<?xml version="1.0" encoding="UTF-8"?>
<gpx creator="StravaGPX Android" version="1.1" xmlns="http://www.topografix.com/GPX/1/1" xmlns:xsi="http://www.w3.org/2001/XMLSchema-instance" xsi:schemaLocation="http://www.topografix.com/GPX/1/1 http://www.topografix.com/GPX/1/1/gpx.xsd">
 <metadata>
  <time>2018-08-18T03:25:03Z</time>
 </metadata>
 <trk>
  <name>Утренний лес Бен Шемен</name>
  <type>1</type>
  <trkseg>
   <trkpt lat="31.9483010" lon="34.9390900">
    <ele>132.5</ele>
    <time>2018-08-18T03:25:03Z</time>
   </trkpt>
   <trkpt lat="31.9482450" lon="34.9391210">
    <ele>132.7</ele>
    <time>2018-08-18T03:25:04Z</time>
   </trkpt>
   <trkpt lat="31.9482780" lon="34.9391420">
    <ele>132.5</ele>
    <time>2018-08-18T03:25:06Z</time>
   </trkpt>
   <trkpt lat="31.9482330" lon="34.9391660">
    <ele>132.8</ele>
    <time>2018-08-18T03:25:07Z</time>
   </trkpt>
   <trkpt lat="31.9481500" lon="34.9391560">
    <ele>133.5</ele>
    <time>2018-08-18T03:25:08Z</time>
   </trkpt>
   <trkpt lat="31.9481680" lon="34.9391850">
    <ele>133.4</ele>
    <time>2018-08-18T03:28:35Z</time>
   </trkpt>
   <trkpt lat="31.9482030" lon="34.9391860">
    <ele>133.4</ele>
    <time>2018-08-18T03:28:43Z</time>
   </trkpt>
   <trkpt lat="31.9482330" lon="34.9391950">
    <ele>133.3</ele>
    <time>2018-08-18T03:28:45Z</time>
   </trkpt>
   <trkpt lat="31.9482740" lon="34.9391960">
    <ele>133.3</ele>
    <time>2018-08-18T03:28:47Z</time>
   </trkpt>
   <trkpt lat="31.9483140" lon="34.9391920">
    <ele>133.2</ele>
    <time>2018-08-18T03:28:49Z</time>
   </trkpt>
   <trkpt lat="31.9483630" lon="34.9391790">
    <ele>133.1</ele>
    <time>2018-08-18T03:28:51Z</time>
   </trkpt>
   <trkpt lat="31.9484140" lon="34.9391730">
    <ele>132.9</ele>
    <time>2018-08-18T03:28:53Z</time>
   </trkpt>
   <trkpt lat="31.9484430" lon="34.9391670">
    <ele>132.7</ele>
    <time>2018-08-18T03:28:54Z</time>
   </trkpt>
   <trkpt lat="31.9484750" lon="34.9391690">
    <ele>132.6</ele>
    <time>2018-08-18T03:28:55Z</time>
   </trkpt>
   <trkpt lat="31.9485100" lon="34.9391770">
    <ele>132.5</ele>
    <time>2018-08-18T03:28:56Z</time>
   </trkpt>
   <trkpt lat="31.9485480" lon="34.9391830">
    <ele>132.4</ele>
    <time>2018-08-18T03:28:57Z</time>
   </trkpt>
   <trkpt lat="31.9485810" lon="34.9391880">
    <ele>132.3</ele>
    <time>2018-08-18T03:28:58Z</time>
   </trkpt>
   <trkpt lat="31.9486130" lon="34.9391900">
    <ele>132.2</ele>
    <time>2018-08-18T03:28:59Z</time>
   </trkpt>
   <trkpt lat="31.9486430" lon="34.9391890">
    <ele>132.1</ele>
    <time>2018-08-18T03:29:00Z</time>
   </trkpt>
   <trkpt lat="31.9486790" lon="34.9391850">
    <ele>132.0</ele>
    <time>2018-08-18T03:29:01Z</time>
   </trkpt>
   <trkpt lat="31.9487190" lon="34.9391840">
    <ele>131.9</ele>
    <time>2018-08-18T03:29:02Z</time>
   </trkpt>
   <trkpt lat="31.9487630" lon="34.9391830">
    <ele>131.7</ele>
    <time>2018-08-18T03:29:03Z</time>
   </trkpt>
   <trkpt lat="31.9488100" lon="34.9391660">
    <ele>131.5</ele>
    <time>2018-08-18T03:29:04Z</time>
   </trkpt>
   <trkpt lat="31.9488470" lon="34.9391430">
    <ele>131.3</ele>
    <time>2018-08-18T03:29:05Z</time>
   </trkpt>
   <trkpt lat="31.9488780" lon="34.9391040">
    <ele>131.2</ele>
    <time>2018-08-18T03:29:06Z</time>
   </trkpt>
   <trkpt lat="31.9489020" lon="34.9390580">
    <ele>130.7</ele>
    <time>2018-08-18T03:29:07Z</time>
   </trkpt>
   <trkpt lat="31.9489200" lon="34.9390080">
    <ele>130.5</ele>
    <time>2018-08-18T03:29:08Z</time>
   </trkpt>
   <trkpt lat="31.9489380" lon="34.9389650">
    <ele>130.3</ele>
    <time>2018-08-18T03:29:09Z</time>
   </trkpt>
   <trkpt lat="31.9489560" lon="34.9389170">
    <ele>130.1</ele>
    <time>2018-08-18T03:29:10Z</time>
   </trkpt>
   <trkpt lat="31.9489740" lon="34.9388750">
    <ele>129.9</ele>
    <time>2018-08-18T03:29:11Z</time>
   </trkpt>
   <trkpt lat="31.9489880" lon="34.9388380">
    <ele>129.8</ele>
    <time>2018-08-18T03:29:12Z</time>
   </trkpt>
   <trkpt lat="31.9489970" lon="34.9388080">
    <ele>129.7</ele>
    <time>2018-08-18T03:29:13Z</time>
   </trkpt>
   <trkpt lat="31.9490160" lon="34.9387530">
    <ele>129.4</ele>
    <time>2018-08-18T03:29:15Z</time>
   </trkpt>
   <trkpt lat="31.9490250" lon="34.9387130">
    <ele>129.3</ele>
    <time>2018-08-18T03:29:17Z</time>
   </trkpt>
   <trkpt lat="31.9490200" lon="34.9386540">
    <ele>129.1</ele>
    <time>2018-08-18T03:29:19Z</time>
   </trkpt>
   <trkpt lat="31.9489980" lon="34.9385980">
    <ele>129.0</ele>
    <time>2018-08-18T03:29:21Z</time>
   </trkpt>
   <trkpt lat="31.9489740" lon="34.9385520">
    <ele>129.0</ele>
    <time>2018-08-18T03:29:22Z</time>
   </trkpt>
   <trkpt lat="31.9489550" lon="34.9385240">
    <ele>128.1</ele>
    <time>2018-08-18T03:29:23Z</time>
   </trkpt>
   <trkpt lat="31.9489280" lon="34.9384810">
    <ele>126.9</ele>
    <time>2018-08-18T03:29:24Z</time>
   </trkpt>
   <trkpt lat="31.9489010" lon="34.9384380">
    <ele>125.7</ele>
    <time>2018-08-18T03:29:25Z</time>
   </trkpt>
   <trkpt lat="31.9488810" lon="34.9384080">
    <ele>124.8</ele>
    <time>2018-08-18T03:29:26Z</time>
   </trkpt>
   <trkpt lat="31.9488530" lon="34.9383790">
    <ele>123.9</ele>
    <time>2018-08-18T03:29:27Z</time>
   </trkpt>
   <trkpt lat="31.9488260" lon="34.9383570">
    <ele>123.0</ele>
    <time>2018-08-18T03:29:28Z</time>
   </trkpt>
   <trkpt lat="31.9487980" lon="34.9383340">
    <ele>122.1</ele>
    <time>2018-08-18T03:29:29Z</time>
   </trkpt>
   <trkpt lat="31.9487750" lon="34.9383100">
    <ele>121.3</ele>
    <time>2018-08-18T03:29:30Z</time>
   </trkpt>
   <trkpt lat="31.9487550" lon="34.9382880">
    <ele>120.6</ele>
    <time>2018-08-18T03:29:31Z</time>
   </trkpt>
   <trkpt lat="31.9487310" lon="34.9382640">
    <ele>119.8</ele>
    <time>2018-08-18T03:29:32Z</time>
   </trkpt>
   <trkpt lat="31.9487060" lon="34.9382450">
    <ele>119.0</ele>
    <time>2018-08-18T03:29:33Z</time>
   </trkpt>
   <trkpt lat="31.9486800" lon="34.9382270">
    <ele>119.0</ele>
    <time>2018-08-18T03:29:34Z</time>
   </trkpt>
   <trkpt lat="31.9486440" lon="34.9382080">
    <ele>119.1</ele>
    <time>2018-08-18T03:29:35Z</time>
   </trkpt>
   <trkpt lat="31.9486140" lon="34.9381930">
    <ele>119.1</ele>
    <time>2018-08-18T03:29:36Z</time>
   </trkpt>
   <trkpt lat="31.9485870" lon="34.9381740">
    <ele>119.2</ele>
    <time>2018-08-18T03:29:37Z</time>
   </trkpt>
   <trkpt lat="31.9485560" lon="34.9381480">
    <ele>119.2</ele>
    <time>2018-08-18T03:29:38Z</time>
   </trkpt>
   <trkpt lat="31.9485180" lon="34.9381320">
    <ele>119.3</ele>
    <time>2018-08-18T03:29:39Z</time>
   </trkpt>
   <trkpt lat="31.9484860" lon="34.9381070">
    <ele>119.4</ele>
    <time>2018-08-18T03:29:40Z</time>
   </trkpt>
   <trkpt lat="31.9484570" lon="34.9380820">
    <ele>119.4</ele>
    <time>2018-08-18T03:29:41Z</time>
   </trkpt>
   <trkpt lat="31.9484240" lon="34.9380610">
    <ele>119.5</ele>
    <time>2018-08-18T03:29:42Z</time>
   </trkpt>
   <trkpt lat="31.9483850" lon="34.9380380">
    <ele>119.5</ele>
    <time>2018-08-18T03:29:43Z</time>
   </trkpt>
   <trkpt lat="31.9483560" lon="34.9380170">
    <ele>119.5</ele>
    <time>2018-08-18T03:29:44Z</time>
   </trkpt>
   <trkpt lat="31.9483280" lon="34.9379960">
    <ele>119.6</ele>
    <time>2018-08-18T03:29:45Z</time>
   </trkpt>
   <trkpt lat="31.9482930" lon="34.9379750">
    <ele>119.7</ele>
    <time>2018-08-18T03:29:46Z</time>
   </trkpt>
   <trkpt lat="31.9482450" lon="34.9379650">
    <ele>119.8</ele>
    <time>2018-08-18T03:29:47Z</time>
   </trkpt>
   <trkpt lat="31.9481950" lon="34.9379480">
    <ele>119.9</ele>
    <time>2018-08-18T03:29:48Z</time>
   </trkpt>
   <trkpt lat="31.9481460" lon="34.9379140">
    <ele>120.0</ele>
    <time>2018-08-18T03:29:49Z</time>
   </trkpt>
   <trkpt lat="31.9481090" lon="34.9378840">
    <ele>120.1</ele>
    <time>2018-08-18T03:29:50Z</time>
   </trkpt>
   <trkpt lat="31.9480700" lon="34.9378550">
    <ele>120.1</ele>
    <time>2018-08-18T03:29:51Z</time>
   </trkpt>
   <trkpt lat="31.9480290" lon="34.9378330">
    <ele>120.2</ele>
    <time>2018-08-18T03:29:52Z</time>
   </trkpt>
   <trkpt lat="31.9479800" lon="34.9378200">
    <ele>120.3</ele>
    <time>2018-08-18T03:29:53Z</time>
   </trkpt>
   <trkpt lat="31.9479310" lon="34.9378160">
    <ele>120.4</ele>
    <time>2018-08-18T03:29:54Z</time>
   </trkpt>
   <trkpt lat="31.9478830" lon="34.9378080">
    <ele>120.5</ele>
    <time>2018-08-18T03:29:55Z</time>
   </trkpt>
   <trkpt lat="31.9478360" lon="34.9377880">
    <ele>120.5</ele>
    <time>2018-08-18T03:29:56Z</time>
   </trkpt>
   <trkpt lat="31.9477860" lon="34.9377570">
    <ele>120.6</ele>
    <time>2018-08-18T03:29:57Z</time>
   </trkpt>
   <trkpt lat="31.9477390" lon="34.9377230">
    <ele>120.7</ele>
    <time>2018-08-18T03:29:58Z</time>
   </trkpt>
   <trkpt lat="31.9476910" lon="34.9376890">
    <ele>120.8</ele>
    <time>2018-08-18T03:29:59Z</time>
   </trkpt>
   <trkpt lat="31.9476390" lon="34.9376740">
    <ele>120.9</ele>
    <time>2018-08-18T03:30:00Z</time>
   </trkpt>
   <trkpt lat="31.9475930" lon="34.9376860">
    <ele>120.9</ele>
    <time>2018-08-18T03:30:01Z</time>
   </trkpt>
   <trkpt lat="31.9475480" lon="34.9377010">
    <ele>120.9</ele>
    <time>2018-08-18T03:30:02Z</time>
   </trkpt>
   <trkpt lat="31.9475060" lon="34.9377040">
    <ele>120.9</ele>
    <time>2018-08-18T03:30:03Z</time>
   </trkpt>
   <trkpt lat="31.9474790" lon="34.9376890">
    <ele>120.9</ele>
    <time>2018-08-18T03:30:04Z</time>
   </trkpt>
   <trkpt lat="31.9474430" lon="34.9376720">
    <ele>120.8</ele>
    <time>2018-08-18T03:30:05Z</time>
   </trkpt>
   <trkpt lat="31.9474050" lon="34.9376540">
    <ele>120.7</ele>
    <time>2018-08-18T03:30:06Z</time>
   </trkpt>
   <trkpt lat="31.9473590" lon="34.9376450">
    <ele>120.6</ele>
    <time>2018-08-18T03:30:07Z</time>
   </trkpt>
   <trkpt lat="31.9473150" lon="34.9376650">
    <ele>120.4</ele>
    <time>2018-08-18T03:30:08Z</time>
   </trkpt>
   <trkpt lat="31.9472760" lon="34.9376840">
    <ele>120.3</ele>
    <time>2018-08-18T03:30:09Z</time>
   </trkpt>
   <trkpt lat="31.9472460" lon="34.9376930">
    <ele>120.2</ele>
    <time>2018-08-18T03:30:10Z</time>
   </trkpt>
   <trkpt lat="31.9472110" lon="34.9377100">
    <ele>120.2</ele>
    <time>2018-08-18T03:30:11Z</time>
   </trkpt>
   <trkpt lat="31.9471770" lon="34.9377310">
    <ele>120.2</ele>
    <time>2018-08-18T03:30:12Z</time>
   </trkpt>
   <trkpt lat="31.9471440" lon="34.9377590">
    <ele>120.2</ele>
    <time>2018-08-18T03:30:13Z</time>
   </trkpt>
   <trkpt lat="31.9471200" lon="34.9377810">
    <ele>120.3</ele>
    <time>2018-08-18T03:30:14Z</time>
   </trkpt>
   <trkpt lat="31.9470980" lon="34.9378060">
    <ele>120.3</ele>
    <time>2018-08-18T03:30:15Z</time>
   </trkpt>
   <trkpt lat="31.9470730" lon="34.9378240">
    <ele>120.3</ele>
    <time>2018-08-18T03:30:16Z</time>
   </trkpt>
   <trkpt lat="31.9470490" lon="34.9378380">
    <ele>120.3</ele>
    <time>2018-08-18T03:30:17Z</time>
   </trkpt>
   <trkpt lat="31.9470250" lon="34.9378570">
    <ele>120.4</ele>
    <time>2018-08-18T03:30:18Z</time>
   </trkpt>
   <trkpt lat="31.9469790" lon="34.9379010">
    <ele>120.5</ele>
    <time>2018-08-18T03:30:20Z</time>
   </trkpt>
   <trkpt lat="31.9469620" lon="34.9379300">
    <ele>120.5</ele>
    <time>2018-08-18T03:30:21Z</time>
   </trkpt>
   <trkpt lat="31.9469470" lon="34.9379620">
    <ele>120.6</ele>
    <time>2018-08-18T03:30:22Z</time>
   </trkpt>
   <trkpt lat="31.9469300" lon="34.9379910">
    <ele>120.6</ele>
    <time>2018-08-18T03:30:23Z</time>
   </trkpt>
   <trkpt lat="31.9469210" lon="34.9380220">
    <ele>120.6</ele>
    <time>2018-08-18T03:30:24Z</time>
   </trkpt>
   <trkpt lat="31.9469040" lon="34.9380480">
    <ele>120.7</ele>
    <time>2018-08-18T03:30:25Z</time>
   </trkpt>
   <trkpt lat="31.9468850" lon="34.9380760">
    <ele>120.7</ele>
    <time>2018-08-18T03:30:26Z</time>
   </trkpt>
   <trkpt lat="31.9468710" lon="34.9381120">
    <ele>120.8</ele>
    <time>2018-08-18T03:30:27Z</time>
   </trkpt>
   <trkpt lat="31.9468680" lon="34.9381490">
    <ele>120.8</ele>
    <time>2018-08-18T03:30:28Z</time>
   </trkpt>
   <trkpt lat="31.9468580" lon="34.9381970">
    <ele>120.8</ele>
    <time>2018-08-18T03:30:30Z</time>
   </trkpt>
   <trkpt lat="31.9468480" lon="34.9382320">
    <ele>120.9</ele>
    <time>2018-08-18T03:30:31Z</time>
   </trkpt>
   <trkpt lat="31.9468300" lon="34.9383030">
    <ele>121.0</ele>
    <time>2018-08-18T03:30:33Z</time>
   </trkpt>
   <trkpt lat="31.9468260" lon="34.9383520">
    <ele>121.0</ele>
    <time>2018-08-18T03:30:34Z</time>
   </trkpt>
   <trkpt lat="31.9468390" lon="34.9384070">
    <ele>121.1</ele>
    <time>2018-08-18T03:30:36Z</time>
   </trkpt>
   <trkpt lat="31.9468400" lon="34.9384450">
    <ele>121.1</ele>
    <time>2018-08-18T03:30:37Z</time>
   </trkpt>
   <trkpt lat="31.9468250" lon="34.9384820">
    <ele>121.2</ele>
    <time>2018-08-18T03:30:38Z</time>
   </trkpt>
   <trkpt lat="31.9467990" lon="34.9385150">
    <ele>121.3</ele>
    <time>2018-08-18T03:30:39Z</time>
   </trkpt>
   <trkpt lat="31.9467680" lon="34.9385400">
    <ele>121.3</ele>
    <time>2018-08-18T03:30:40Z</time>
   </trkpt>
   <trkpt lat="31.9467320" lon="34.9385640">
    <ele>121.5</ele>
    <time>2018-08-18T03:30:41Z</time>
   </trkpt>
   <trkpt lat="31.9466990" lon="34.9385830">
    <ele>121.5</ele>
    <time>2018-08-18T03:30:42Z</time>
   </trkpt>
   <trkpt lat="31.9466700" lon="34.9386050">
    <ele>121.6</ele>
    <time>2018-08-18T03:30:43Z</time>
   </trkpt>
   <trkpt lat="31.9466460" lon="34.9386320">
    <ele>121.6</ele>
    <time>2018-08-18T03:30:44Z</time>
   </trkpt>
   <trkpt lat="31.9466170" lon="34.9386580">
    <ele>121.6</ele>
    <time>2018-08-18T03:30:45Z</time>
   </trkpt>
   <trkpt lat="31.9465800" lon="34.9386630">
    <ele>121.7</ele>
    <time>2018-08-18T03:30:46Z</time>
   </trkpt>
   <trkpt lat="31.9465440" lon="34.9386650">
    <ele>121.8</ele>
    <time>2018-08-18T03:30:47Z</time>
   </trkpt>
   <trkpt lat="31.9465020" lon="34.9386630">
    <ele>121.8</ele>
    <time>2018-08-18T03:30:49Z</time>
   </trkpt>
   <trkpt lat="31.9464700" lon="34.9386690">
    <ele>121.9</ele>
    <time>2018-08-18T03:30:52Z</time>
   </trkpt>
   <trkpt lat="31.9464350" lon="34.9386570">
    <ele>121.9</ele>
    <time>2018-08-18T03:30:54Z</time>
   </trkpt>
   <trkpt lat="31.9464050" lon="34.9386440">
    <ele>122.0</ele>
    <time>2018-08-18T03:30:55Z</time>
   </trkpt>
   <trkpt lat="31.9463750" lon="34.9386340">
    <ele>122.1</ele>
    <time>2018-08-18T03:30:56Z</time>
   </trkpt>
   <trkpt lat="31.9463440" lon="34.9386250">
    <ele>122.1</ele>
    <time>2018-08-18T03:30:57Z</time>
   </trkpt>
   <trkpt lat="31.9463140" lon="34.9386180">
    <ele>122.2</ele>
    <time>2018-08-18T03:30:58Z</time>
   </trkpt>
   <trkpt lat="31.9462730" lon="34.9386160">
    <ele>122.2</ele>
    <time>2018-08-18T03:31:00Z</time>
   </trkpt>
   <trkpt lat="31.9462510" lon="34.9385970">
    <ele>122.2</ele>
    <time>2018-08-18T03:31:02Z</time>
   </trkpt>
   <trkpt lat="31.9462210" lon="34.9386070">
    <ele>122.3</ele>
    <time>2018-08-18T03:31:14Z</time>
   </trkpt>
   <trkpt lat="31.9462480" lon="34.9385960">
    <ele>122.2</ele>
    <time>2018-08-18T03:31:24Z</time>
   </trkpt>
   <trkpt lat="31.9462760" lon="34.9385950">
    <ele>122.2</ele>
    <time>2018-08-18T03:31:27Z</time>
   </trkpt>
   <trkpt lat="31.9463230" lon="34.9386120">
    <ele>122.2</ele>
    <time>2018-08-18T03:31:29Z</time>
   </trkpt>
   <trkpt lat="31.9463530" lon="34.9386240">
    <ele>122.2</ele>
    <time>2018-08-18T03:31:30Z</time>
   </trkpt>
   <trkpt lat="31.9463790" lon="34.9386380">
    <ele>122.1</ele>
    <time>2018-08-18T03:31:31Z</time>
   </trkpt>
   <trkpt lat="31.9464100" lon="34.9386740">
    <ele>122.1</ele>
    <time>2018-08-18T03:31:33Z</time>
   </trkpt>
   <trkpt lat="31.9464330" lon="34.9387030">
    <ele>122.0</ele>
    <time>2018-08-18T03:31:37Z</time>
   </trkpt>
   <trkpt lat="31.9464770" lon="34.9387210">
    <ele>122.0</ele>
    <time>2018-08-18T03:31:40Z</time>
   </trkpt>
   <trkpt lat="31.9465020" lon="34.9387310">
    <ele>121.9</ele>
    <time>2018-08-18T03:31:41Z</time>
   </trkpt>
   <trkpt lat="31.9465250" lon="34.9387480">
    <ele>121.9</ele>
    <time>2018-08-18T03:31:42Z</time>
   </trkpt>
   <trkpt lat="31.9465640" lon="34.9387590">
    <ele>121.8</ele>
    <time>2018-08-18T03:31:43Z</time>
   </trkpt>
   <trkpt lat="31.9465960" lon="34.9387450">
    <ele>121.8</ele>
    <time>2018-08-18T03:31:44Z</time>
   </trkpt>
   <trkpt lat="31.9466390" lon="34.9387730">
    <ele>121.8</ele>
    <time>2018-08-18T03:31:48Z</time>
   </trkpt>
   <trkpt lat="31.9466360" lon="34.9388300">
    <ele>121.8</ele>
    <time>2018-08-18T03:35:18Z</time>
   </trkpt>
   <trkpt lat="31.9466000" lon="34.9388260">
    <ele>121.9</ele>
    <time>2018-08-18T03:35:20Z</time>
   </trkpt>
   <trkpt lat="31.9465690" lon="34.9388110">
    <ele>122.0</ele>
    <time>2018-08-18T03:35:22Z</time>
   </trkpt>
   <trkpt lat="31.9465360" lon="34.9387900">
    <ele>122.0</ele>
    <time>2018-08-18T03:35:23Z</time>
   </trkpt>
   <trkpt lat="31.9465080" lon="34.9387720">
    <ele>122.1</ele>
    <time>2018-08-18T03:35:24Z</time>
   </trkpt>
   <trkpt lat="31.9464560" lon="34.9387360">
    <ele>122.2</ele>
    <time>2018-08-18T03:35:26Z</time>
   </trkpt>
   <trkpt lat="31.9464260" lon="34.9387170">
    <ele>122.2</ele>
    <time>2018-08-18T03:35:27Z</time>
   </trkpt>
   <trkpt lat="31.9463920" lon="34.9386970">
    <ele>122.2</ele>
    <time>2018-08-18T03:35:28Z</time>
   </trkpt>
   <trkpt lat="31.9463560" lon="34.9386770">
    <ele>122.3</ele>
    <time>2018-08-18T03:35:29Z</time>
   </trkpt>
   <trkpt lat="31.9463110" lon="34.9386670">
    <ele>122.3</ele>
    <time>2018-08-18T03:35:30Z</time>
   </trkpt>
   <trkpt lat="31.9462760" lon="34.9386520">
    <ele>122.3</ele>
    <time>2018-08-18T03:35:31Z</time>
   </trkpt>
   <trkpt lat="31.9462500" lon="34.9386280">
    <ele>122.4</ele>
    <time>2018-08-18T03:35:32Z</time>
   </trkpt>
   <trkpt lat="31.9462230" lon="34.9386060">
    <ele>122.4</ele>
    <time>2018-08-18T03:35:33Z</time>
   </trkpt>
   <trkpt lat="31.9461600" lon="34.9385320">
    <ele>122.4</ele>
    <time>2018-08-18T03:35:34Z</time>
   </trkpt>
   <trkpt lat="31.9461100" lon="34.9385040">
    <ele>122.4</ele>
    <time>2018-08-18T03:35:35Z</time>
   </trkpt>
   <trkpt lat="31.9460680" lon="34.9384810">
    <ele>122.4</ele>
    <time>2018-08-18T03:35:36Z</time>
   </trkpt>
   <trkpt lat="31.9460270" lon="34.9384650">
    <ele>122.4</ele>
    <time>2018-08-18T03:35:37Z</time>
   </trkpt>
   <trkpt lat="31.9459800" lon="34.9384480">
    <ele>122.4</ele>
    <time>2018-08-18T03:35:38Z</time>
   </trkpt>
   <trkpt lat="31.9459470" lon="34.9384310">
    <ele>122.3</ele>
    <time>2018-08-18T03:35:39Z</time>
   </trkpt>
   <trkpt lat="31.9459160" lon="34.9384140">
    <ele>122.2</ele>
    <time>2018-08-18T03:35:40Z</time>
   </trkpt>
   <trkpt lat="31.9458810" lon="34.9383970">
    <ele>122.1</ele>
    <time>2018-08-18T03:35:41Z</time>
   </trkpt>
   <trkpt lat="31.9458440" lon="34.9383740">
    <ele>122.0</ele>
    <time>2018-08-18T03:35:42Z</time>
   </trkpt>
   <trkpt lat="31.9458040" lon="34.9383470">
    <ele>121.9</ele>
    <time>2018-08-18T03:35:43Z</time>
   </trkpt>
   <trkpt lat="31.9457700" lon="34.9383170">
    <ele>121.9</ele>
    <time>2018-08-18T03:35:44Z</time>
   </trkpt>
   <trkpt lat="31.9457340" lon="34.9382800">
    <ele>121.9</ele>
    <time>2018-08-18T03:35:45Z</time>
   </trkpt>
   <trkpt lat="31.9456970" lon="34.9382400">
    <ele>121.8</ele>
    <time>2018-08-18T03:35:46Z</time>
   </trkpt>
   <trkpt lat="31.9456430" lon="34.9382040">
    <ele>121.8</ele>
    <time>2018-08-18T03:35:47Z</time>
   </trkpt>
   <trkpt lat="31.9456020" lon="34.9381730">
    <ele>121.8</ele>
    <time>2018-08-18T03:35:48Z</time>
   </trkpt>
   <trkpt lat="31.9455620" lon="34.9381400">
    <ele>121.8</ele>
    <time>2018-08-18T03:35:49Z</time>
   </trkpt>
   <trkpt lat="31.9455280" lon="34.9380930">
    <ele>121.7</ele>
    <time>2018-08-18T03:35:50Z</time>
   </trkpt>
   <trkpt lat="31.9454890" lon="34.9380500">
    <ele>121.7</ele>
    <time>2018-08-18T03:35:51Z</time>
   </trkpt>
   <trkpt lat="31.9454490" lon="34.9380130">
    <ele>121.6</ele>
    <time>2018-08-18T03:35:52Z</time>
   </trkpt>
   <trkpt lat="31.9454140" lon="34.9379900">
    <ele>121.6</ele>
    <time>2018-08-18T03:35:53Z</time>
   </trkpt>
   <trkpt lat="31.9453700" lon="34.9379700">
    <ele>121.6</ele>
    <time>2018-08-18T03:35:54Z</time>
   </trkpt>
   <trkpt lat="31.9453190" lon="34.9379510">
    <ele>121.5</ele>
    <time>2018-08-18T03:35:55Z</time>
   </trkpt>
   <trkpt lat="31.9452620" lon="34.9379380">
    <ele>121.4</ele>
    <time>2018-08-18T03:35:56Z</time>
   </trkpt>
   <trkpt lat="31.9452170" lon="34.9379300">
    <ele>121.3</ele>
    <time>2018-08-18T03:35:57Z</time>
   </trkpt>
   <trkpt lat="31.9451780" lon="34.9379340">
    <ele>121.2</ele>
    <time>2018-08-18T03:35:58Z</time>
   </trkpt>
   <trkpt lat="31.9451340" lon="34.9379370">
    <ele>121.2</ele>
    <time>2018-08-18T03:35:59Z</time>
   </trkpt>
   <trkpt lat="31.9450920" lon="34.9379360">
    <ele>121.2</ele>
    <time>2018-08-18T03:36:00Z</time>
   </trkpt>
   <trkpt lat="31.9450550" lon="34.9379370">
    <ele>121.1</ele>
    <time>2018-08-18T03:36:01Z</time>
   </trkpt>
   <trkpt lat="31.9450120" lon="34.9379410">
    <ele>121.1</ele>
    <time>2018-08-18T03:36:03Z</time>
   </trkpt>
   <trkpt lat="31.9449750" lon="34.9379490">
    <ele>121.1</ele>
    <time>2018-08-18T03:36:04Z</time>
   </trkpt>
   <trkpt lat="31.9449440" lon="34.9379660">
    <ele>121.2</ele>
    <time>2018-08-18T03:36:05Z</time>
   </trkpt>
   <trkpt lat="31.9449010" lon="34.9379580">
    <ele>121.2</ele>
    <time>2018-08-18T03:36:06Z</time>
   </trkpt>
   <trkpt lat="31.9448720" lon="34.9379460">
    <ele>121.2</ele>
    <time>2018-08-18T03:36:07Z</time>
   </trkpt>
   <trkpt lat="31.9448340" lon="34.9379300">
    <ele>121.2</ele>
    <time>2018-08-18T03:36:08Z</time>
   </trkpt>
   <trkpt lat="31.9448030" lon="34.9379220">
    <ele>121.2</ele>
    <time>2018-08-18T03:36:09Z</time>
   </trkpt>
   <trkpt lat="31.9447530" lon="34.9379310">
    <ele>121.3</ele>
    <time>2018-08-18T03:36:11Z</time>
   </trkpt>
   <trkpt lat="31.9447190" lon="34.9379610">
    <ele>121.3</ele>
    <time>2018-08-18T03:36:13Z</time>
   </trkpt>
   <trkpt lat="31.9446770" lon="34.9380030">
    <ele>121.4</ele>
    <time>2018-08-18T03:36:15Z</time>
   </trkpt>
   <trkpt lat="31.9446480" lon="34.9380550">
    <ele>121.6</ele>
    <time>2018-08-18T03:36:17Z</time>
   </trkpt>
   <trkpt lat="31.9446300" lon="34.9380910">
    <ele>121.6</ele>
    <time>2018-08-18T03:36:19Z</time>
   </trkpt>
   <trkpt lat="31.9445900" lon="34.9381110">
    <ele>121.7</ele>
    <time>2018-08-18T03:36:21Z</time>
   </trkpt>
   <trkpt lat="31.9445410" lon="34.9381400">
    <ele>121.8</ele>
    <time>2018-08-18T03:36:23Z</time>
   </trkpt>
   <trkpt lat="31.9445190" lon="34.9381690">
    <ele>121.9</ele>
    <time>2018-08-18T03:36:24Z</time>
   </trkpt>
   <trkpt lat="31.9444750" lon="34.9382050">
    <ele>122.0</ele>
    <time>2018-08-18T03:36:26Z</time>
   </trkpt>
   <trkpt lat="31.9444560" lon="34.9382730">
    <ele>122.1</ele>
    <time>2018-08-18T03:36:28Z</time>
   </trkpt>
   <trkpt lat="31.9444460" lon="34.9383080">
    <ele>122.2</ele>
    <time>2018-08-18T03:36:29Z</time>
   </trkpt>
   <trkpt lat="31.9444170" lon="34.9383590">
    <ele>122.3</ele>
    <time>2018-08-18T03:36:31Z</time>
   </trkpt>
   <trkpt lat="31.9444070" lon="34.9383900">
    <ele>122.4</ele>
    <time>2018-08-18T03:36:32Z</time>
   </trkpt>
   <trkpt lat="31.9443960" lon="34.9384200">
    <ele>122.4</ele>
    <time>2018-08-18T03:36:33Z</time>
   </trkpt>
   <trkpt lat="31.9443710" lon="34.9384520">
    <ele>122.5</ele>
    <time>2018-08-18T03:36:35Z</time>
   </trkpt>
   <trkpt lat="31.9443410" lon="34.9384670">
    <ele>122.5</ele>
    <time>2018-08-18T03:36:36Z</time>
   </trkpt>
   <trkpt lat="31.9442920" lon="34.9385080">
    <ele>122.6</ele>
    <time>2018-08-18T03:36:38Z</time>
   </trkpt>
   <trkpt lat="31.9442580" lon="34.9385340">
    <ele>122.7</ele>
    <time>2018-08-18T03:36:39Z</time>
   </trkpt>
   <trkpt lat="31.9442350" lon="34.9385570">
    <ele>122.7</ele>
    <time>2018-08-18T03:36:40Z</time>
   </trkpt>
   <trkpt lat="31.9442030" lon="34.9386020">
    <ele>122.8</ele>
    <time>2018-08-18T03:36:42Z</time>
   </trkpt>
   <trkpt lat="31.9441650" lon="34.9385840">
    <ele>122.8</ele>
    <time>2018-08-18T03:36:44Z</time>
   </trkpt>
   <trkpt lat="31.9441460" lon="34.9385490">
    <ele>122.9</ele>
    <time>2018-08-18T03:36:47Z</time>
   </trkpt>
   <trkpt lat="31.9441590" lon="34.9385050">
    <ele>121.9</ele>
    <time>2018-08-18T03:36:50Z</time>
   </trkpt>
   <trkpt lat="31.9441670" lon="34.9384640">
    <ele>121.6</ele>
    <time>2018-08-18T03:36:51Z</time>
   </trkpt>
   <trkpt lat="31.9441710" lon="34.9384150">
    <ele>121.1</ele>
    <time>2018-08-18T03:36:52Z</time>
   </trkpt>
   <trkpt lat="31.9441700" lon="34.9383570">
    <ele>120.6</ele>
    <time>2018-08-18T03:36:53Z</time>
   </trkpt>
   <trkpt lat="31.9441450" lon="34.9382690">
    <ele>119.8</ele>
    <time>2018-08-18T03:36:54Z</time>
   </trkpt>
   <trkpt lat="31.9441160" lon="34.9381730">
    <ele>119.0</ele>
    <time>2018-08-18T03:36:55Z</time>
   </trkpt>
   <trkpt lat="31.9440790" lon="34.9380860">
    <ele>119.1</ele>
    <time>2018-08-18T03:36:56Z</time>
   </trkpt>
   <trkpt lat="31.9440360" lon="34.9380040">
    <ele>118.9</ele>
    <time>2018-08-18T03:36:57Z</time>
   </trkpt>
   <trkpt lat="31.9439960" lon="34.9379290">
    <ele>118.5</ele>
    <time>2018-08-18T03:36:58Z</time>
   </trkpt>
   <trkpt lat="31.9439580" lon="34.9378580">
    <ele>118.2</ele>
    <time>2018-08-18T03:36:59Z</time>
   </trkpt>
   <trkpt lat="31.9439230" lon="34.9377890">
    <ele>118.3</ele>
    <time>2018-08-18T03:37:00Z</time>
   </trkpt>
   <trkpt lat="31.9439020" lon="34.9377210">
    <ele>118.8</ele>
    <time>2018-08-18T03:37:01Z</time>
   </trkpt>
   <trkpt lat="31.9438860" lon="34.9376510">
    <ele>118.8</ele>
    <time>2018-08-18T03:37:02Z</time>
   </trkpt>
   <trkpt lat="31.9438690" lon="34.9375850">
    <ele>118.3</ele>
    <time>2018-08-18T03:37:03Z</time>
   </trkpt>
   <trkpt lat="31.9438620" lon="34.9375140">
    <ele>117.9</ele>
    <time>2018-08-18T03:37:04Z</time>
   </trkpt>
   <trkpt lat="31.9438500" lon="34.9374430">
    <ele>117.4</ele>
    <time>2018-08-18T03:37:05Z</time>
   </trkpt>
   <trkpt lat="31.9438390" lon="34.9373730">
    <ele>116.9</ele>
    <time>2018-08-18T03:37:06Z</time>
   </trkpt>
   <trkpt lat="31.9438220" lon="34.9373090">
    <ele>116.4</ele>
    <time>2018-08-18T03:37:07Z</time>
   </trkpt>
   <trkpt lat="31.9438010" lon="34.9372580">
    <ele>116.0</ele>
    <time>2018-08-18T03:37:08Z</time>
   </trkpt>
   <trkpt lat="31.9437720" lon="34.9372100">
    <ele>115.4</ele>
    <time>2018-08-18T03:37:09Z</time>
   </trkpt>
   <trkpt lat="31.9437430" lon="34.9371510">
    <ele>114.5</ele>
    <time>2018-08-18T03:37:10Z</time>
   </trkpt>
   <trkpt lat="31.9437110" lon="34.9370890">
    <ele>113.0</ele>
    <time>2018-08-18T03:37:11Z</time>
   </trkpt>
   <trkpt lat="31.9436740" lon="34.9370220">
    <ele>111.2</ele>
    <time>2018-08-18T03:37:12Z</time>
   </trkpt>
   <trkpt lat="31.9436400" lon="34.9369530">
    <ele>110.2</ele>
    <time>2018-08-18T03:37:13Z</time>
   </trkpt>
   <trkpt lat="31.9436140" lon="34.9368900">
    <ele>109.6</ele>
    <time>2018-08-18T03:37:14Z</time>
   </trkpt>
   <trkpt lat="31.9435960" lon="34.9368370">
    <ele>109.0</ele>
    <time>2018-08-18T03:37:15Z</time>
   </trkpt>
   <trkpt lat="31.9435920" lon="34.9367820">
    <ele>108.5</ele>
    <time>2018-08-18T03:37:16Z</time>
   </trkpt>
   <trkpt lat="31.9435920" lon="34.9367190">
    <ele>107.3</ele>
    <time>2018-08-18T03:37:17Z</time>
   </trkpt>
   <trkpt lat="31.9435920" lon="34.9366570">
    <ele>105.8</ele>
    <time>2018-08-18T03:37:18Z</time>
   </trkpt>
   <trkpt lat="31.9435990" lon="34.9365990">
    <ele>104.3</ele>
    <time>2018-08-18T03:37:19Z</time>
   </trkpt>
   <trkpt lat="31.9436160" lon="34.9365400">
    <ele>103.3</ele>
    <time>2018-08-18T03:37:20Z</time>
   </trkpt>
   <trkpt lat="31.9436360" lon="34.9364740">
    <ele>102.1</ele>
    <time>2018-08-18T03:37:21Z</time>
   </trkpt>
   <trkpt lat="31.9436540" lon="34.9364100">
    <ele>100.7</ele>
    <time>2018-08-18T03:37:22Z</time>
   </trkpt>
   <trkpt lat="31.9436740" lon="34.9363400">
    <ele>98.9</ele>
    <time>2018-08-18T03:37:23Z</time>
   </trkpt>
   <trkpt lat="31.9436920" lon="34.9362700">
    <ele>97.1</ele>
    <time>2018-08-18T03:37:24Z</time>
   </trkpt>
   <trkpt lat="31.9437040" lon="34.9362040">
    <ele>96.0</ele>
    <time>2018-08-18T03:37:25Z</time>
   </trkpt>
   <trkpt lat="31.9437070" lon="34.9361370">
    <ele>94.7</ele>
    <time>2018-08-18T03:37:26Z</time>
   </trkpt>
   <trkpt lat="31.9436980" lon="34.9360700">
    <ele>92.9</ele>
    <time>2018-08-18T03:37:27Z</time>
   </trkpt>
   <trkpt lat="31.9436740" lon="34.9360150">
    <ele>91.7</ele>
    <time>2018-08-18T03:37:28Z</time>
   </trkpt>
   <trkpt lat="31.9436440" lon="34.9359570">
    <ele>91.2</ele>
    <time>2018-08-18T03:37:29Z</time>
   </trkpt>
   <trkpt lat="31.9436130" lon="34.9359050">
    <ele>90.7</ele>
    <time>2018-08-18T03:37:30Z</time>
   </trkpt>
   <trkpt lat="31.9435830" lon="34.9358530">
    <ele>90.2</ele>
    <time>2018-08-18T03:37:31Z</time>
   </trkpt>
   <trkpt lat="31.9435560" lon="34.9357930">
    <ele>90.0</ele>
    <time>2018-08-18T03:37:32Z</time>
   </trkpt>
   <trkpt lat="31.9435300" lon="34.9357350">
    <ele>89.7</ele>
    <time>2018-08-18T03:37:33Z</time>
   </trkpt>
   <trkpt lat="31.9435030" lon="34.9356760">
    <ele>89.4</ele>
    <time>2018-08-18T03:37:34Z</time>
   </trkpt>
   <trkpt lat="31.9434790" lon="34.9356190">
    <ele>89.2</ele>
    <time>2018-08-18T03:37:35Z</time>
   </trkpt>
   <trkpt lat="31.9434650" lon="34.9355650">
    <ele>88.9</ele>
    <time>2018-08-18T03:37:36Z</time>
   </trkpt>
   <trkpt lat="31.9434570" lon="34.9355250">
    <ele>88.8</ele>
    <time>2018-08-18T03:37:37Z</time>
   </trkpt>
   <trkpt lat="31.9434440" lon="34.9354860">
    <ele>88.6</ele>
    <time>2018-08-18T03:37:38Z</time>
   </trkpt>
   <trkpt lat="31.9434270" lon="34.9354570">
    <ele>88.5</ele>
    <time>2018-08-18T03:37:39Z</time>
   </trkpt>
   <trkpt lat="31.9433870" lon="34.9354280">
    <ele>88.3</ele>
    <time>2018-08-18T03:37:41Z</time>
   </trkpt>
   <trkpt lat="31.9433600" lon="34.9354180">
    <ele>88.2</ele>
    <time>2018-08-18T03:37:43Z</time>
   </trkpt>
   <trkpt lat="31.9433160" lon="34.9354290">
    <ele>87.9</ele>
    <time>2018-08-18T03:37:47Z</time>
   </trkpt>
   <trkpt lat="31.9432980" lon="34.9354590">
    <ele>87.8</ele>
    <time>2018-08-18T03:37:49Z</time>
   </trkpt>
   <trkpt lat="31.9433060" lon="34.9355010">
    <ele>87.6</ele>
    <time>2018-08-18T03:37:51Z</time>
   </trkpt>
   <trkpt lat="31.9433140" lon="34.9355380">
    <ele>87.4</ele>
    <time>2018-08-18T03:37:54Z</time>
   </trkpt>
   <trkpt lat="31.9432970" lon="34.9355710">
    <ele>87.7</ele>
    <time>2018-08-18T03:37:56Z</time>
   </trkpt>
   <trkpt lat="31.9432820" lon="34.9356100">
    <ele>88.2</ele>
    <time>2018-08-18T03:37:58Z</time>
   </trkpt>
   <trkpt lat="31.9432720" lon="34.9356550">
    <ele>88.8</ele>
    <time>2018-08-18T03:38:00Z</time>
   </trkpt>
   <trkpt lat="31.9432710" lon="34.9356900">
    <ele>89.2</ele>
    <time>2018-08-18T03:38:01Z</time>
   </trkpt>
   <trkpt lat="31.9432640" lon="34.9357380">
    <ele>89.9</ele>
    <time>2018-08-18T03:38:03Z</time>
   </trkpt>
   <trkpt lat="31.9432510" lon="34.9357830">
    <ele>90.5</ele>
    <time>2018-08-18T03:38:05Z</time>
   </trkpt>
   <trkpt lat="31.9432240" lon="34.9358270">
    <ele>91.1</ele>
    <time>2018-08-18T03:38:07Z</time>
   </trkpt>
   <trkpt lat="31.9431980" lon="34.9358550">
    <ele>91.5</ele>
    <time>2018-08-18T03:38:10Z</time>
   </trkpt>
   <trkpt lat="31.9431690" lon="34.9358710">
    <ele>91.7</ele>
    <time>2018-08-18T03:38:12Z</time>
   </trkpt>
   <trkpt lat="31.9431430" lon="34.9358860">
    <ele>91.9</ele>
    <time>2018-08-18T03:38:14Z</time>
   </trkpt>
   <trkpt lat="31.9431150" lon="34.9359040">
    <ele>92.2</ele>
    <time>2018-08-18T03:38:16Z</time>
   </trkpt>
   <trkpt lat="31.9430910" lon="34.9359210">
    <ele>92.3</ele>
    <time>2018-08-18T03:38:18Z</time>
   </trkpt>
   <trkpt lat="31.9430650" lon="34.9359380">
    <ele>92.4</ele>
    <time>2018-08-18T03:38:20Z</time>
   </trkpt>
   <trkpt lat="31.9430300" lon="34.9359530">
    <ele>92.5</ele>
    <time>2018-08-18T03:38:23Z</time>
   </trkpt>
   <trkpt lat="31.9429940" lon="34.9359700">
    <ele>92.7</ele>
    <time>2018-08-18T03:38:26Z</time>
   </trkpt>
   <trkpt lat="31.9429610" lon="34.9359830">
    <ele>92.8</ele>
    <time>2018-08-18T03:38:28Z</time>
   </trkpt>
   <trkpt lat="31.9429300" lon="34.9359930">
    <ele>92.9</ele>
    <time>2018-08-18T03:38:30Z</time>
   </trkpt>
   <trkpt lat="31.9428950" lon="34.9360000">
    <ele>93.0</ele>
    <time>2018-08-18T03:38:32Z</time>
   </trkpt>
   <trkpt lat="31.9428680" lon="34.9360030">
    <ele>93.1</ele>
    <time>2018-08-18T03:38:34Z</time>
   </trkpt>
   <trkpt lat="31.9428280" lon="34.9360040">
    <ele>93.2</ele>
    <time>2018-08-18T03:38:37Z</time>
   </trkpt>
   <trkpt lat="31.9427880" lon="34.9360000">
    <ele>93.3</ele>
    <time>2018-08-18T03:38:39Z</time>
   </trkpt>
   <trkpt lat="31.9427520" lon="34.9359910">
    <ele>93.4</ele>
    <time>2018-08-18T03:38:41Z</time>
   </trkpt>
   <trkpt lat="31.9427180" lon="34.9359840">
    <ele>93.5</ele>
    <time>2018-08-18T03:38:43Z</time>
   </trkpt>
   <trkpt lat="31.9426810" lon="34.9359760">
    <ele>93.6</ele>
    <time>2018-08-18T03:38:45Z</time>
   </trkpt>
   <trkpt lat="31.9426470" lon="34.9359660">
    <ele>93.6</ele>
    <time>2018-08-18T03:38:47Z</time>
   </trkpt>
   <trkpt lat="31.9426110" lon="34.9359550">
    <ele>93.7</ele>
    <time>2018-08-18T03:38:49Z</time>
   </trkpt>
   <trkpt lat="31.9425750" lon="34.9359380">
    <ele>93.8</ele>
    <time>2018-08-18T03:38:51Z</time>
   </trkpt>
   <trkpt lat="31.9425330" lon="34.9359240">
    <ele>93.9</ele>
    <time>2018-08-18T03:38:53Z</time>
   </trkpt>
   <trkpt lat="31.9424870" lon="34.9359070">
    <ele>93.9</ele>
    <time>2018-08-18T03:38:55Z</time>
   </trkpt>
   <trkpt lat="31.9424600" lon="34.9358990">
    <ele>94.0</ele>
    <time>2018-08-18T03:38:56Z</time>
   </trkpt>
   <trkpt lat="31.9424090" lon="34.9358790">
    <ele>94.1</ele>
    <time>2018-08-18T03:38:58Z</time>
   </trkpt>
   <trkpt lat="31.9423810" lon="34.9358710">
    <ele>94.2</ele>
    <time>2018-08-18T03:38:59Z</time>
   </trkpt>
   <trkpt lat="31.9423510" lon="34.9358680">
    <ele>94.2</ele>
    <time>2018-08-18T03:39:00Z</time>
   </trkpt>
   <trkpt lat="31.9423220" lon="34.9358680">
    <ele>94.3</ele>
    <time>2018-08-18T03:39:01Z</time>
   </trkpt>
   <trkpt lat="31.9422800" lon="34.9358690">
    <ele>94.3</ele>
    <time>2018-08-18T03:39:03Z</time>
   </trkpt>
   <trkpt lat="31.9422390" lon="34.9358840">
    <ele>94.4</ele>
    <time>2018-08-18T03:39:05Z</time>
   </trkpt>
   <trkpt lat="31.9421920" lon="34.9358900">
    <ele>94.4</ele>
    <time>2018-08-18T03:39:07Z</time>
   </trkpt>
   <trkpt lat="31.9421430" lon="34.9358840">
    <ele>94.5</ele>
    <time>2018-08-18T03:39:09Z</time>
   </trkpt>
   <trkpt lat="31.9421130" lon="34.9358820">
    <ele>94.5</ele>
    <time>2018-08-18T03:39:10Z</time>
   </trkpt>
   <trkpt lat="31.9420800" lon="34.9358680">
    <ele>94.5</ele>
    <time>2018-08-18T03:39:11Z</time>
   </trkpt>
   <trkpt lat="31.9420470" lon="34.9358550">
    <ele>94.5</ele>
    <time>2018-08-18T03:39:12Z</time>
   </trkpt>
   <trkpt lat="31.9420150" lon="34.9358430">
    <ele>94.6</ele>
    <time>2018-08-18T03:39:13Z</time>
   </trkpt>
   <trkpt lat="31.9419840" lon="34.9358340">
    <ele>94.6</ele>
    <time>2018-08-18T03:39:14Z</time>
   </trkpt>
   <trkpt lat="31.9419540" lon="34.9358340">
    <ele>94.7</ele>
    <time>2018-08-18T03:39:15Z</time>
   </trkpt>
   <trkpt lat="31.9419240" lon="34.9358320">
    <ele>94.8</ele>
    <time>2018-08-18T03:39:16Z</time>
   </trkpt>
   <trkpt lat="31.9418960" lon="34.9358310">
    <ele>94.8</ele>
    <time>2018-08-18T03:39:17Z</time>
   </trkpt>
   <trkpt lat="31.9418620" lon="34.9358410">
    <ele>92.8</ele>
    <time>2018-08-18T03:39:18Z</time>
   </trkpt>
   <trkpt lat="31.9418170" lon="34.9358550">
    <ele>89.6</ele>
    <time>2018-08-18T03:39:20Z</time>
   </trkpt>
   <trkpt lat="31.9417980" lon="34.9358780">
    <ele>89.4</ele>
    <time>2018-08-18T03:39:21Z</time>
   </trkpt>
   <trkpt lat="31.9417860" lon="34.9359090">
    <ele>89.3</ele>
    <time>2018-08-18T03:39:22Z</time>
   </trkpt>
   <trkpt lat="31.9417780" lon="34.9359460">
    <ele>89.1</ele>
    <time>2018-08-18T03:39:23Z</time>
   </trkpt>
   <trkpt lat="31.9417660" lon="34.9360020">
    <ele>88.9</ele>
    <time>2018-08-18T03:39:25Z</time>
   </trkpt>
   <trkpt lat="31.9417560" lon="34.9360430">
    <ele>89.0</ele>
    <time>2018-08-18T03:39:26Z</time>
   </trkpt>
   <trkpt lat="31.9417470" lon="34.9360760">
    <ele>88.9</ele>
    <time>2018-08-18T03:39:27Z</time>
   </trkpt>
   <trkpt lat="31.9417330" lon="34.9361320">
    <ele>88.1</ele>
    <time>2018-08-18T03:39:29Z</time>
   </trkpt>
   <trkpt lat="31.9417210" lon="34.9361930">
    <ele>87.8</ele>
    <time>2018-08-18T03:39:31Z</time>
   </trkpt>
   <trkpt lat="31.9417160" lon="34.9362300">
    <ele>87.6</ele>
    <time>2018-08-18T03:39:32Z</time>
   </trkpt>
   <trkpt lat="31.9417150" lon="34.9362660">
    <ele>87.3</ele>
    <time>2018-08-18T03:39:33Z</time>
   </trkpt>
   <trkpt lat="31.9417120" lon="34.9362990">
    <ele>88.3</ele>
    <time>2018-08-18T03:39:34Z</time>
   </trkpt>
   <trkpt lat="31.9417190" lon="34.9363390">
    <ele>89.2</ele>
    <time>2018-08-18T03:39:35Z</time>
   </trkpt>
   <trkpt lat="31.9417440" lon="34.9363790">
    <ele>90.0</ele>
    <time>2018-08-18T03:39:37Z</time>
   </trkpt>
   <trkpt lat="31.9417740" lon="34.9364190">
    <ele>91.4</ele>
    <time>2018-08-18T03:39:39Z</time>
   </trkpt>
   <trkpt lat="31.9418070" lon="34.9364460">
    <ele>92.6</ele>
    <time>2018-08-18T03:39:41Z</time>
   </trkpt>
   <trkpt lat="31.9418360" lon="34.9364660">
    <ele>93.4</ele>
    <time>2018-08-18T03:39:43Z</time>
   </trkpt>
   <trkpt lat="31.9418710" lon="34.9364800">
    <ele>94.1</ele>
    <time>2018-08-18T03:39:46Z</time>
   </trkpt>
   <trkpt lat="31.9418990" lon="34.9364850">
    <ele>94.4</ele>
    <time>2018-08-18T03:39:48Z</time>
   </trkpt>
   <trkpt lat="31.9419330" lon="34.9364900">
    <ele>95.1</ele>
    <time>2018-08-18T03:39:51Z</time>
   </trkpt>
   <trkpt lat="31.9419620" lon="34.9364980">
    <ele>95.8</ele>
    <time>2018-08-18T03:39:53Z</time>
   </trkpt>
   <trkpt lat="31.9419990" lon="34.9365130">
    <ele>96.8</ele>
    <time>2018-08-18T03:39:55Z</time>
   </trkpt>
   <trkpt lat="31.9420340" lon="34.9365260">
    <ele>97.6</ele>
    <time>2018-08-18T03:39:57Z</time>
   </trkpt>
   <trkpt lat="31.9420740" lon="34.9365470">
    <ele>98.5</ele>
    <time>2018-08-18T03:39:59Z</time>
   </trkpt>
   <trkpt lat="31.9421070" lon="34.9365910">
    <ele>99.5</ele>
    <time>2018-08-18T03:40:01Z</time>
   </trkpt>
   <trkpt lat="31.9421300" lon="34.9366310">
    <ele>100.1</ele>
    <time>2018-08-18T03:40:03Z</time>
   </trkpt>
   <trkpt lat="31.9421570" lon="34.9366810">
    <ele>100.0</ele>
    <time>2018-08-18T03:40:05Z</time>
   </trkpt>
   <trkpt lat="31.9421820" lon="34.9367290">
    <ele>99.9</ele>
    <time>2018-08-18T03:40:07Z</time>
   </trkpt>
   <trkpt lat="31.9421990" lon="34.9367700">
    <ele>100.0</ele>
    <time>2018-08-18T03:40:09Z</time>
   </trkpt>
   <trkpt lat="31.9422170" lon="34.9368180">
    <ele>100.3</ele>
    <time>2018-08-18T03:40:11Z</time>
   </trkpt>
   <trkpt lat="31.9422370" lon="34.9368650">
    <ele>100.7</ele>
    <time>2018-08-18T03:40:13Z</time>
   </trkpt>
   <trkpt lat="31.9422580" lon="34.9369120">
    <ele>101.1</ele>
    <time>2018-08-18T03:40:15Z</time>
   </trkpt>
   <trkpt lat="31.9422780" lon="34.9369520">
    <ele>101.4</ele>
    <time>2018-08-18T03:40:17Z</time>
   </trkpt>
   <trkpt lat="31.9422970" lon="34.9369980">
    <ele>101.2</ele>
    <time>2018-08-18T03:40:19Z</time>
   </trkpt>
   <trkpt lat="31.9423170" lon="34.9370510">
    <ele>101.0</ele>
    <time>2018-08-18T03:40:21Z</time>
   </trkpt>
   <trkpt lat="31.9423320" lon="34.9370950">
    <ele>101.2</ele>
    <time>2018-08-18T03:40:23Z</time>
   </trkpt>
   <trkpt lat="31.9423480" lon="34.9371450">
    <ele>101.5</ele>
    <time>2018-08-18T03:40:25Z</time>
   </trkpt>
   <trkpt lat="31.9423670" lon="34.9372010">
    <ele>101.8</ele>
    <time>2018-08-18T03:40:27Z</time>
   </trkpt>
   <trkpt lat="31.9423820" lon="34.9372590">
    <ele>102.0</ele>
    <time>2018-08-18T03:40:29Z</time>
   </trkpt>
   <trkpt lat="31.9423920" lon="34.9373200">
    <ele>102.0</ele>
    <time>2018-08-18T03:40:31Z</time>
   </trkpt>
   <trkpt lat="31.9423970" lon="34.9373710">
    <ele>102.0</ele>
    <time>2018-08-18T03:40:33Z</time>
   </trkpt>
   <trkpt lat="31.9423870" lon="34.9374210">
    <ele>102.0</ele>
    <time>2018-08-18T03:40:35Z</time>
   </trkpt>
   <trkpt lat="31.9423640" lon="34.9374620">
    <ele>102.1</ele>
    <time>2018-08-18T03:40:37Z</time>
   </trkpt>
   <trkpt lat="31.9423160" lon="34.9375000">
    <ele>102.1</ele>
    <time>2018-08-18T03:40:39Z</time>
   </trkpt>
   <trkpt lat="31.9422810" lon="34.9375190">
    <ele>102.1</ele>
    <time>2018-08-18T03:40:40Z</time>
   </trkpt>
   <trkpt lat="31.9422450" lon="34.9375420">
    <ele>102.1</ele>
    <time>2018-08-18T03:40:41Z</time>
   </trkpt>
   <trkpt lat="31.9422070" lon="34.9375650">
    <ele>102.1</ele>
    <time>2018-08-18T03:40:42Z</time>
   </trkpt>
   <trkpt lat="31.9421710" lon="34.9375840">
    <ele>102.0</ele>
    <time>2018-08-18T03:40:43Z</time>
   </trkpt>
   <trkpt lat="31.9421360" lon="34.9376020">
    <ele>101.9</ele>
    <time>2018-08-18T03:40:44Z</time>
   </trkpt>
   <trkpt lat="31.9421020" lon="34.9376200">
    <ele>101.8</ele>
    <time>2018-08-18T03:40:45Z</time>
   </trkpt>
   <trkpt lat="31.9420680" lon="34.9376380">
    <ele>101.7</ele>
    <time>2018-08-18T03:40:46Z</time>
   </trkpt>
   <trkpt lat="31.9420330" lon="34.9376570">
    <ele>101.7</ele>
    <time>2018-08-18T03:40:47Z</time>
   </trkpt>
   <trkpt lat="31.9419960" lon="34.9376700">
    <ele>101.6</ele>
    <time>2018-08-18T03:40:48Z</time>
   </trkpt>
   <trkpt lat="31.9419580" lon="34.9376830">
    <ele>101.6</ele>
    <time>2018-08-18T03:40:49Z</time>
   </trkpt>
   <trkpt lat="31.9419220" lon="34.9376920">
    <ele>101.6</ele>
    <time>2018-08-18T03:40:50Z</time>
   </trkpt>
   <trkpt lat="31.9418850" lon="34.9376930">
    <ele>101.5</ele>
    <time>2018-08-18T03:40:51Z</time>
   </trkpt>
   <trkpt lat="31.9418510" lon="34.9376930">
    <ele>101.5</ele>
    <time>2018-08-18T03:40:52Z</time>
   </trkpt>
   <trkpt lat="31.9418150" lon="34.9376900">
    <ele>101.5</ele>
    <time>2018-08-18T03:40:53Z</time>
   </trkpt>
   <trkpt lat="31.9417790" lon="34.9376850">
    <ele>101.4</ele>
    <time>2018-08-18T03:40:54Z</time>
   </trkpt>
   <trkpt lat="31.9417440" lon="34.9376770">
    <ele>101.4</ele>
    <time>2018-08-18T03:40:55Z</time>
   </trkpt>
   <trkpt lat="31.9417130" lon="34.9376620">
    <ele>101.4</ele>
    <time>2018-08-18T03:40:56Z</time>
   </trkpt>
   <trkpt lat="31.9416860" lon="34.9376490">
    <ele>101.3</ele>
    <time>2018-08-18T03:40:57Z</time>
   </trkpt>
   <trkpt lat="31.9416500" lon="34.9376360">
    <ele>101.3</ele>
    <time>2018-08-18T03:40:58Z</time>
   </trkpt>
   <trkpt lat="31.9416130" lon="34.9376200">
    <ele>101.2</ele>
    <time>2018-08-18T03:40:59Z</time>
   </trkpt>
   <trkpt lat="31.9415760" lon="34.9376070">
    <ele>101.1</ele>
    <time>2018-08-18T03:41:00Z</time>
   </trkpt>
   <trkpt lat="31.9415480" lon="34.9375880">
    <ele>101.1</ele>
    <time>2018-08-18T03:41:01Z</time>
   </trkpt>
   <trkpt lat="31.9415130" lon="34.9375650">
    <ele>101.0</ele>
    <time>2018-08-18T03:41:02Z</time>
   </trkpt>
   <trkpt lat="31.9414790" lon="34.9375380">
    <ele>101.0</ele>
    <time>2018-08-18T03:41:03Z</time>
   </trkpt>
   <trkpt lat="31.9414480" lon="34.9375010">
    <ele>101.0</ele>
    <time>2018-08-18T03:41:04Z</time>
   </trkpt>
   <trkpt lat="31.9414190" lon="34.9374620">
    <ele>101.0</ele>
    <time>2018-08-18T03:41:05Z</time>
   </trkpt>
   <trkpt lat="31.9413950" lon="34.9374220">
    <ele>101.0</ele>
    <time>2018-08-18T03:41:06Z</time>
   </trkpt>
   <trkpt lat="31.9413680" lon="34.9373810">
    <ele>101.0</ele>
    <time>2018-08-18T03:41:07Z</time>
   </trkpt>
   <trkpt lat="31.9413410" lon="34.9373380">
    <ele>100.7</ele>
    <time>2018-08-18T03:41:08Z</time>
   </trkpt>
   <trkpt lat="31.9413130" lon="34.9372950">
    <ele>99.8</ele>
    <time>2018-08-18T03:41:09Z</time>
   </trkpt>
   <trkpt lat="31.9412830" lon="34.9372490">
    <ele>98.8</ele>
    <time>2018-08-18T03:41:10Z</time>
   </trkpt>
   <trkpt lat="31.9412520" lon="34.9372000">
    <ele>98.1</ele>
    <time>2018-08-18T03:41:11Z</time>
   </trkpt>
   <trkpt lat="31.9412180" lon="34.9371500">
    <ele>97.6</ele>
    <time>2018-08-18T03:41:12Z</time>
   </trkpt>
   <trkpt lat="31.9411840" lon="34.9370910">
    <ele>97.1</ele>
    <time>2018-08-18T03:41:13Z</time>
   </trkpt>
   <trkpt lat="31.9411480" lon="34.9370320">
    <ele>96.4</ele>
    <time>2018-08-18T03:41:14Z</time>
   </trkpt>
   <trkpt lat="31.9411140" lon="34.9369720">
    <ele>95.2</ele>
    <time>2018-08-18T03:41:15Z</time>
   </trkpt>
   <trkpt lat="31.9410820" lon="34.9369110">
    <ele>94.0</ele>
    <time>2018-08-18T03:41:16Z</time>
   </trkpt>
   <trkpt lat="31.9410500" lon="34.9368500">
    <ele>92.9</ele>
    <time>2018-08-18T03:41:17Z</time>
   </trkpt>
   <trkpt lat="31.9410220" lon="34.9367910">
    <ele>92.0</ele>
    <time>2018-08-18T03:41:18Z</time>
   </trkpt>
   <trkpt lat="31.9409940" lon="34.9367360">
    <ele>91.1</ele>
    <time>2018-08-18T03:41:19Z</time>
   </trkpt>
   <trkpt lat="31.9409710" lon="34.9366820">
    <ele>90.1</ele>
    <time>2018-08-18T03:41:20Z</time>
   </trkpt>
   <trkpt lat="31.9409420" lon="34.9366270">
    <ele>89.2</ele>
    <time>2018-08-18T03:41:21Z</time>
   </trkpt>
   <trkpt lat="31.9409150" lon="34.9365840">
    <ele>88.4</ele>
    <time>2018-08-18T03:41:22Z</time>
   </trkpt>
   <trkpt lat="31.9408910" lon="34.9365410">
    <ele>88.0</ele>
    <time>2018-08-18T03:41:23Z</time>
   </trkpt>
   <trkpt lat="31.9408670" lon="34.9365000">
    <ele>87.6</ele>
    <time>2018-08-18T03:41:24Z</time>
   </trkpt>
   <trkpt lat="31.9408410" lon="34.9364760">
    <ele>87.3</ele>
    <time>2018-08-18T03:41:25Z</time>
   </trkpt>
   <trkpt lat="31.9408110" lon="34.9364490">
    <ele>87.1</ele>
    <time>2018-08-18T03:41:26Z</time>
   </trkpt>
   <trkpt lat="31.9407730" lon="34.9364320">
    <ele>86.8</ele>
    <time>2018-08-18T03:41:27Z</time>
   </trkpt>
   <trkpt lat="31.9407390" lon="34.9364090">
    <ele>86.6</ele>
    <time>2018-08-18T03:41:28Z</time>
   </trkpt>
   <trkpt lat="31.9406990" lon="34.9363870">
    <ele>86.3</ele>
    <time>2018-08-18T03:41:29Z</time>
   </trkpt>
   <trkpt lat="31.9406530" lon="34.9363640">
    <ele>86.0</ele>
    <time>2018-08-18T03:41:30Z</time>
   </trkpt>
   <trkpt lat="31.9406080" lon="34.9363440">
    <ele>85.9</ele>
    <time>2018-08-18T03:41:31Z</time>
   </trkpt>
   <trkpt lat="31.9405640" lon="34.9363340">
    <ele>85.8</ele>
    <time>2018-08-18T03:41:32Z</time>
   </trkpt>
   <trkpt lat="31.9405100" lon="34.9363280">
    <ele>85.6</ele>
    <time>2018-08-18T03:41:33Z</time>
   </trkpt>
   <trkpt lat="31.9404640" lon="34.9363210">
    <ele>85.5</ele>
    <time>2018-08-18T03:41:34Z</time>
   </trkpt>
   <trkpt lat="31.9404200" lon="34.9363120">
    <ele>85.4</ele>
    <time>2018-08-18T03:41:35Z</time>
   </trkpt>
   <trkpt lat="31.9403810" lon="34.9362970">
    <ele>85.3</ele>
    <time>2018-08-18T03:41:36Z</time>
   </trkpt>
   <trkpt lat="31.9403410" lon="34.9362820">
    <ele>85.2</ele>
    <time>2018-08-18T03:41:37Z</time>
   </trkpt>
   <trkpt lat="31.9403010" lon="34.9362690">
    <ele>85.1</ele>
    <time>2018-08-18T03:41:38Z</time>
   </trkpt>
   <trkpt lat="31.9402650" lon="34.9362580">
    <ele>85.0</ele>
    <time>2018-08-18T03:41:39Z</time>
   </trkpt>
   <trkpt lat="31.9402280" lon="34.9362460">
    <ele>84.9</ele>
    <time>2018-08-18T03:41:40Z</time>
   </trkpt>
   <trkpt lat="31.9401960" lon="34.9362390">
    <ele>84.7</ele>
    <time>2018-08-18T03:41:41Z</time>
   </trkpt>
   <trkpt lat="31.9401660" lon="34.9362320">
    <ele>84.6</ele>
    <time>2018-08-18T03:41:42Z</time>
   </trkpt>
   <trkpt lat="31.9401350" lon="34.9362230">
    <ele>84.4</ele>
    <time>2018-08-18T03:41:43Z</time>
   </trkpt>
   <trkpt lat="31.9401040" lon="34.9362170">
    <ele>84.3</ele>
    <time>2018-08-18T03:41:44Z</time>
   </trkpt>
   <trkpt lat="31.9400730" lon="34.9362120">
    <ele>84.1</ele>
    <time>2018-08-18T03:41:45Z</time>
   </trkpt>
   <trkpt lat="31.9400410" lon="34.9362110">
    <ele>83.7</ele>
    <time>2018-08-18T03:41:46Z</time>
   </trkpt>
   <trkpt lat="31.9400090" lon="34.9362100">
    <ele>83.3</ele>
    <time>2018-08-18T03:41:47Z</time>
   </trkpt>
   <trkpt lat="31.9399790" lon="34.9362080">
    <ele>82.8</ele>
    <time>2018-08-18T03:41:48Z</time>
   </trkpt>
   <trkpt lat="31.9399520" lon="34.9362050">
    <ele>82.3</ele>
    <time>2018-08-18T03:41:49Z</time>
   </trkpt>
   <trkpt lat="31.9398950" lon="34.9361890">
    <ele>81.5</ele>
    <time>2018-08-18T03:41:51Z</time>
   </trkpt>
   <trkpt lat="31.9398640" lon="34.9361800">
    <ele>81.1</ele>
    <time>2018-08-18T03:41:52Z</time>
   </trkpt>
   <trkpt lat="31.9398350" lon="34.9361720">
    <ele>80.8</ele>
    <time>2018-08-18T03:41:53Z</time>
   </trkpt>
   <trkpt lat="31.9398060" lon="34.9361640">
    <ele>80.5</ele>
    <time>2018-08-18T03:41:54Z</time>
   </trkpt>
   <trkpt lat="31.9397750" lon="34.9361560">
    <ele>80.0</ele>
    <time>2018-08-18T03:41:55Z</time>
   </trkpt>
   <trkpt lat="31.9397390" lon="34.9361450">
    <ele>79.4</ele>
    <time>2018-08-18T03:41:56Z</time>
   </trkpt>
   <trkpt lat="31.9397020" lon="34.9361330">
    <ele>78.9</ele>
    <time>2018-08-18T03:41:57Z</time>
   </trkpt>
   <trkpt lat="31.9396650" lon="34.9361230">
    <ele>78.6</ele>
    <time>2018-08-18T03:41:58Z</time>
   </trkpt>
   <trkpt lat="31.9396250" lon="34.9361150">
    <ele>78.4</ele>
    <time>2018-08-18T03:41:59Z</time>
   </trkpt>
   <trkpt lat="31.9395850" lon="34.9361090">
    <ele>78.1</ele>
    <time>2018-08-18T03:42:00Z</time>
   </trkpt>
   <trkpt lat="31.9395430" lon="34.9361050">
    <ele>77.9</ele>
    <time>2018-08-18T03:42:01Z</time>
   </trkpt>
   <trkpt lat="31.9395020" lon="34.9361050">
    <ele>77.8</ele>
    <time>2018-08-18T03:42:02Z</time>
   </trkpt>
   <trkpt lat="31.9394630" lon="34.9361080">
    <ele>77.7</ele>
    <time>2018-08-18T03:42:03Z</time>
   </trkpt>
   <trkpt lat="31.9394240" lon="34.9361100">
    <ele>77.6</ele>
    <time>2018-08-18T03:42:04Z</time>
   </trkpt>
   <trkpt lat="31.9393840" lon="34.9361140">
    <ele>77.5</ele>
    <time>2018-08-18T03:42:05Z</time>
   </trkpt>
   <trkpt lat="31.9393430" lon="34.9361190">
    <ele>77.5</ele>
    <time>2018-08-18T03:42:06Z</time>
   </trkpt>
   <trkpt lat="31.9393030" lon="34.9361260">
    <ele>77.4</ele>
    <time>2018-08-18T03:42:07Z</time>
   </trkpt>
   <trkpt lat="31.9392620" lon="34.9361330">
    <ele>77.3</ele>
    <time>2018-08-18T03:42:08Z</time>
   </trkpt>
   <trkpt lat="31.9392240" lon="34.9361440">
    <ele>77.2</ele>
    <time>2018-08-18T03:42:09Z</time>
   </trkpt>
   <trkpt lat="31.9391840" lon="34.9361540">
    <ele>77.2</ele>
    <time>2018-08-18T03:42:10Z</time>
   </trkpt>
   <trkpt lat="31.9391480" lon="34.9361600">
    <ele>77.1</ele>
    <time>2018-08-18T03:42:11Z</time>
   </trkpt>
   <trkpt lat="31.9391180" lon="34.9361750">
    <ele>77.1</ele>
    <time>2018-08-18T03:42:12Z</time>
   </trkpt>
   <trkpt lat="31.9390930" lon="34.9362050">
    <ele>77.0</ele>
    <time>2018-08-18T03:42:13Z</time>
   </trkpt>
   <trkpt lat="31.9390800" lon="34.9362450">
    <ele>77.1</ele>
    <time>2018-08-18T03:42:14Z</time>
   </trkpt>
   <trkpt lat="31.9390740" lon="34.9362900">
    <ele>77.2</ele>
    <time>2018-08-18T03:42:15Z</time>
   </trkpt>
   <trkpt lat="31.9390720" lon="34.9363330">
    <ele>77.4</ele>
    <time>2018-08-18T03:42:16Z</time>
   </trkpt>
   <trkpt lat="31.9390720" lon="34.9363750">
    <ele>77.6</ele>
    <time>2018-08-18T03:42:17Z</time>
   </trkpt>
   <trkpt lat="31.9390680" lon="34.9364180">
    <ele>77.8</ele>
    <time>2018-08-18T03:42:18Z</time>
   </trkpt>
   <trkpt lat="31.9390640" lon="34.9364590">
    <ele>78.1</ele>
    <time>2018-08-18T03:42:19Z</time>
   </trkpt>
   <trkpt lat="31.9390590" lon="34.9365020">
    <ele>78.3</ele>
    <time>2018-08-18T03:42:20Z</time>
   </trkpt>
   <trkpt lat="31.9390530" lon="34.9365470">
    <ele>78.6</ele>
    <time>2018-08-18T03:42:21Z</time>
   </trkpt>
   <trkpt lat="31.9390460" lon="34.9365900">
    <ele>78.7</ele>
    <time>2018-08-18T03:42:22Z</time>
   </trkpt>
   <trkpt lat="31.9390410" lon="34.9366350">
    <ele>78.9</ele>
    <time>2018-08-18T03:42:23Z</time>
   </trkpt>
   <trkpt lat="31.9390330" lon="34.9366770">
    <ele>79.0</ele>
    <time>2018-08-18T03:42:24Z</time>
   </trkpt>
   <trkpt lat="31.9390230" lon="34.9367220">
    <ele>79.1</ele>
    <time>2018-08-18T03:42:25Z</time>
   </trkpt>
   <trkpt lat="31.9390120" lon="34.9367710">
    <ele>79.2</ele>
    <time>2018-08-18T03:42:26Z</time>
   </trkpt>
   <trkpt lat="31.9390060" lon="34.9368230">
    <ele>79.4</ele>
    <time>2018-08-18T03:42:27Z</time>
   </trkpt>
   <trkpt lat="31.9390000" lon="34.9368730">
    <ele>79.5</ele>
    <time>2018-08-18T03:42:28Z</time>
   </trkpt>
   <trkpt lat="31.9389930" lon="34.9369210">
    <ele>79.6</ele>
    <time>2018-08-18T03:42:29Z</time>
   </trkpt>
   <trkpt lat="31.9389850" lon="34.9369700">
    <ele>79.6</ele>
    <time>2018-08-18T03:42:30Z</time>
   </trkpt>
   <trkpt lat="31.9389780" lon="34.9370160">
    <ele>79.7</ele>
    <time>2018-08-18T03:42:31Z</time>
   </trkpt>
   <trkpt lat="31.9389680" lon="34.9370610">
    <ele>79.7</ele>
    <time>2018-08-18T03:42:32Z</time>
   </trkpt>
   <trkpt lat="31.9389580" lon="34.9371050">
    <ele>79.8</ele>
    <time>2018-08-18T03:42:33Z</time>
   </trkpt>
   <trkpt lat="31.9389610" lon="34.9371390">
    <ele>79.8</ele>
    <time>2018-08-18T03:42:34Z</time>
   </trkpt>
   <trkpt lat="31.9389650" lon="34.9371780">
    <ele>79.8</ele>
    <time>2018-08-18T03:42:35Z</time>
   </trkpt>
   <trkpt lat="31.9389610" lon="34.9372180">
    <ele>79.9</ele>
    <time>2018-08-18T03:42:36Z</time>
   </trkpt>
   <trkpt lat="31.9389550" lon="34.9372630">
    <ele>79.9</ele>
    <time>2018-08-18T03:42:37Z</time>
   </trkpt>
   <trkpt lat="31.9389480" lon="34.9373120">
    <ele>80.0</ele>
    <time>2018-08-18T03:42:38Z</time>
   </trkpt>
   <trkpt lat="31.9389430" lon="34.9373630">
    <ele>80.1</ele>
    <time>2018-08-18T03:42:39Z</time>
   </trkpt>
   <trkpt lat="31.9389380" lon="34.9374170">
    <ele>80.3</ele>
    <time>2018-08-18T03:42:40Z</time>
   </trkpt>
   <trkpt lat="31.9389300" lon="34.9374710">
    <ele>80.5</ele>
    <time>2018-08-18T03:42:41Z</time>
   </trkpt>
   <trkpt lat="31.9389280" lon="34.9375240">
    <ele>80.7</ele>
    <time>2018-08-18T03:42:42Z</time>
   </trkpt>
   <trkpt lat="31.9389260" lon="34.9375780">
    <ele>81.0</ele>
    <time>2018-08-18T03:42:43Z</time>
   </trkpt>
   <trkpt lat="31.9389270" lon="34.9376300">
    <ele>81.2</ele>
    <time>2018-08-18T03:42:44Z</time>
   </trkpt>
   <trkpt lat="31.9389270" lon="34.9376820">
    <ele>81.4</ele>
    <time>2018-08-18T03:42:45Z</time>
   </trkpt>
   <trkpt lat="31.9389290" lon="34.9377330">
    <ele>81.6</ele>
    <time>2018-08-18T03:42:46Z</time>
   </trkpt>
   <trkpt lat="31.9389330" lon="34.9377820">
    <ele>81.7</ele>
    <time>2018-08-18T03:42:47Z</time>
   </trkpt>
   <trkpt lat="31.9389360" lon="34.9378300">
    <ele>81.8</ele>
    <time>2018-08-18T03:42:48Z</time>
   </trkpt>
   <trkpt lat="31.9389410" lon="34.9378700">
    <ele>81.9</ele>
    <time>2018-08-18T03:42:49Z</time>
   </trkpt>
   <trkpt lat="31.9389460" lon="34.9379140">
    <ele>82.0</ele>
    <time>2018-08-18T03:42:50Z</time>
   </trkpt>
   <trkpt lat="31.9389520" lon="34.9379590">
    <ele>82.1</ele>
    <time>2018-08-18T03:42:51Z</time>
   </trkpt>
   <trkpt lat="31.9389590" lon="34.9380070">
    <ele>82.2</ele>
    <time>2018-08-18T03:42:52Z</time>
   </trkpt>
   <trkpt lat="31.9389660" lon="34.9380500">
    <ele>82.2</ele>
    <time>2018-08-18T03:42:53Z</time>
   </trkpt>
   <trkpt lat="31.9389720" lon="34.9380960">
    <ele>82.3</ele>
    <time>2018-08-18T03:42:54Z</time>
   </trkpt>
   <trkpt lat="31.9389770" lon="34.9381400">
    <ele>82.3</ele>
    <time>2018-08-18T03:42:55Z</time>
   </trkpt>
   <trkpt lat="31.9389800" lon="34.9381830">
    <ele>82.3</ele>
    <time>2018-08-18T03:42:56Z</time>
   </trkpt>
   <trkpt lat="31.9389870" lon="34.9382280">
    <ele>82.4</ele>
    <time>2018-08-18T03:42:57Z</time>
   </trkpt>
   <trkpt lat="31.9389900" lon="34.9382710">
    <ele>82.4</ele>
    <time>2018-08-18T03:42:58Z</time>
   </trkpt>
   <trkpt lat="31.9389950" lon="34.9383160">
    <ele>82.4</ele>
    <time>2018-08-18T03:42:59Z</time>
   </trkpt>
   <trkpt lat="31.9389970" lon="34.9383590">
    <ele>82.4</ele>
    <time>2018-08-18T03:43:00Z</time>
   </trkpt>
   <trkpt lat="31.9389990" lon="34.9384010">
    <ele>82.4</ele>
    <time>2018-08-18T03:43:01Z</time>
   </trkpt>
   <trkpt lat="31.9390050" lon="34.9384420">
    <ele>82.4</ele>
    <time>2018-08-18T03:43:02Z</time>
   </trkpt>
   <trkpt lat="31.9390090" lon="34.9384800">
    <ele>82.5</ele>
    <time>2018-08-18T03:43:03Z</time>
   </trkpt>
   <trkpt lat="31.9390090" lon="34.9385160">
    <ele>82.5</ele>
    <time>2018-08-18T03:43:04Z</time>
   </trkpt>
   <trkpt lat="31.9390080" lon="34.9385550">
    <ele>82.5</ele>
    <time>2018-08-18T03:43:05Z</time>
   </trkpt>
   <trkpt lat="31.9390100" lon="34.9386260">
    <ele>82.5</ele>
    <time>2018-08-18T03:43:07Z</time>
   </trkpt>
   <trkpt lat="31.9390100" lon="34.9386680">
    <ele>82.5</ele>
    <time>2018-08-18T03:43:08Z</time>
   </trkpt>
   <trkpt lat="31.9390100" lon="34.9387130">
    <ele>82.5</ele>
    <time>2018-08-18T03:43:09Z</time>
   </trkpt>
   <trkpt lat="31.9390110" lon="34.9387560">
    <ele>82.5</ele>
    <time>2018-08-18T03:43:10Z</time>
   </trkpt>
   <trkpt lat="31.9390130" lon="34.9387970">
    <ele>82.5</ele>
    <time>2018-08-18T03:43:11Z</time>
   </trkpt>
   <trkpt lat="31.9390170" lon="34.9388400">
    <ele>82.5</ele>
    <time>2018-08-18T03:43:12Z</time>
   </trkpt>
   <trkpt lat="31.9390230" lon="34.9388820">
    <ele>82.5</ele>
    <time>2018-08-18T03:43:13Z</time>
   </trkpt>
   <trkpt lat="31.9390270" lon="34.9389240">
    <ele>82.5</ele>
    <time>2018-08-18T03:43:14Z</time>
   </trkpt>
   <trkpt lat="31.9390290" lon="34.9389710">
    <ele>82.5</ele>
    <time>2018-08-18T03:43:15Z</time>
   </trkpt>
   <trkpt lat="31.9390360" lon="34.9390160">
    <ele>82.5</ele>
    <time>2018-08-18T03:43:16Z</time>
   </trkpt>
   <trkpt lat="31.9390430" lon="34.9390640">
    <ele>82.5</ele>
    <time>2018-08-18T03:43:17Z</time>
   </trkpt>
   <trkpt lat="31.9390490" lon="34.9391120">
    <ele>82.5</ele>
    <time>2018-08-18T03:43:18Z</time>
   </trkpt>
   <trkpt lat="31.9390580" lon="34.9391510">
    <ele>82.5</ele>
    <time>2018-08-18T03:43:19Z</time>
   </trkpt>
   <trkpt lat="31.9390680" lon="34.9392010">
    <ele>82.5</ele>
    <time>2018-08-18T03:43:20Z</time>
   </trkpt>
   <trkpt lat="31.9390800" lon="34.9392490">
    <ele>82.4</ele>
    <time>2018-08-18T03:43:21Z</time>
   </trkpt>
   <trkpt lat="31.9390940" lon="34.9392950">
    <ele>82.3</ele>
    <time>2018-08-18T03:43:22Z</time>
   </trkpt>
   <trkpt lat="31.9391120" lon="34.9393360">
    <ele>82.1</ele>
    <time>2018-08-18T03:43:23Z</time>
   </trkpt>
   <trkpt lat="31.9391300" lon="34.9393760">
    <ele>82.0</ele>
    <time>2018-08-18T03:43:24Z</time>
   </trkpt>
   <trkpt lat="31.9391490" lon="34.9394180">
    <ele>81.8</ele>
    <time>2018-08-18T03:43:25Z</time>
   </trkpt>
   <trkpt lat="31.9391670" lon="34.9394600">
    <ele>81.6</ele>
    <time>2018-08-18T03:43:26Z</time>
   </trkpt>
   <trkpt lat="31.9391830" lon="34.9395000">
    <ele>81.6</ele>
    <time>2018-08-18T03:43:27Z</time>
   </trkpt>
   <trkpt lat="31.9392010" lon="34.9395400">
    <ele>81.5</ele>
    <time>2018-08-18T03:43:28Z</time>
   </trkpt>
   <trkpt lat="31.9392180" lon="34.9395780">
    <ele>81.4</ele>
    <time>2018-08-18T03:43:29Z</time>
   </trkpt>
   <trkpt lat="31.9392330" lon="34.9396140">
    <ele>81.4</ele>
    <time>2018-08-18T03:43:30Z</time>
   </trkpt>
   <trkpt lat="31.9392490" lon="34.9396480">
    <ele>81.3</ele>
    <time>2018-08-18T03:43:31Z</time>
   </trkpt>
   <trkpt lat="31.9392630" lon="34.9396860">
    <ele>81.3</ele>
    <time>2018-08-18T03:43:32Z</time>
   </trkpt>
   <trkpt lat="31.9392800" lon="34.9397200">
    <ele>81.2</ele>
    <time>2018-08-18T03:43:33Z</time>
   </trkpt>
   <trkpt lat="31.9392930" lon="34.9397600">
    <ele>81.1</ele>
    <time>2018-08-18T03:43:34Z</time>
   </trkpt>
   <trkpt lat="31.9393050" lon="34.9398010">
    <ele>81.0</ele>
    <time>2018-08-18T03:43:35Z</time>
   </trkpt>
   <trkpt lat="31.9393180" lon="34.9398420">
    <ele>80.9</ele>
    <time>2018-08-18T03:43:36Z</time>
   </trkpt>
   <trkpt lat="31.9393300" lon="34.9398870">
    <ele>80.8</ele>
    <time>2018-08-18T03:43:37Z</time>
   </trkpt>
   <trkpt lat="31.9393380" lon="34.9399350">
    <ele>80.6</ele>
    <time>2018-08-18T03:43:38Z</time>
   </trkpt>
   <trkpt lat="31.9393470" lon="34.9399840">
    <ele>80.4</ele>
    <time>2018-08-18T03:43:39Z</time>
   </trkpt>
   <trkpt lat="31.9393550" lon="34.9400370">
    <ele>80.2</ele>
    <time>2018-08-18T03:43:40Z</time>
   </trkpt>
   <trkpt lat="31.9393630" lon="34.9400940">
    <ele>80.1</ele>
    <time>2018-08-18T03:43:41Z</time>
   </trkpt>
   <trkpt lat="31.9393650" lon="34.9401500">
    <ele>80.1</ele>
    <time>2018-08-18T03:43:42Z</time>
   </trkpt>
   <trkpt lat="31.9393680" lon="34.9402110">
    <ele>80.1</ele>
    <time>2018-08-18T03:43:43Z</time>
   </trkpt>
   <trkpt lat="31.9393680" lon="34.9402740">
    <ele>80.2</ele>
    <time>2018-08-18T03:43:44Z</time>
   </trkpt>
   <trkpt lat="31.9393680" lon="34.9403400">
    <ele>80.5</ele>
    <time>2018-08-18T03:43:45Z</time>
   </trkpt>
   <trkpt lat="31.9393650" lon="34.9404040">
    <ele>80.9</ele>
    <time>2018-08-18T03:43:46Z</time>
   </trkpt>
   <trkpt lat="31.9393620" lon="34.9404690">
    <ele>81.4</ele>
    <time>2018-08-18T03:43:47Z</time>
   </trkpt>
   <trkpt lat="31.9393580" lon="34.9405360">
    <ele>81.9</ele>
    <time>2018-08-18T03:43:48Z</time>
   </trkpt>
   <trkpt lat="31.9393540" lon="34.9406020">
    <ele>82.0</ele>
    <time>2018-08-18T03:43:49Z</time>
   </trkpt>
   <trkpt lat="31.9393490" lon="34.9406640">
    <ele>82.0</ele>
    <time>2018-08-18T03:43:50Z</time>
   </trkpt>
   <trkpt lat="31.9393460" lon="34.9407290">
    <ele>82.0</ele>
    <time>2018-08-18T03:43:51Z</time>
   </trkpt>
   <trkpt lat="31.9393450" lon="34.9407880">
    <ele>82.0</ele>
    <time>2018-08-18T03:43:52Z</time>
   </trkpt>
   <trkpt lat="31.9393490" lon="34.9408400">
    <ele>82.0</ele>
    <time>2018-08-18T03:43:53Z</time>
   </trkpt>
   <trkpt lat="31.9393510" lon="34.9408910">
    <ele>82.0</ele>
    <time>2018-08-18T03:43:54Z</time>
   </trkpt>
   <trkpt lat="31.9393530" lon="34.9409400">
    <ele>82.0</ele>
    <time>2018-08-18T03:43:55Z</time>
   </trkpt>
   <trkpt lat="31.9393510" lon="34.9409810">
    <ele>82.0</ele>
    <time>2018-08-18T03:43:56Z</time>
   </trkpt>
   <trkpt lat="31.9393520" lon="34.9410230">
    <ele>82.0</ele>
    <time>2018-08-18T03:43:57Z</time>
   </trkpt>
   <trkpt lat="31.9393500" lon="34.9410600">
    <ele>82.0</ele>
    <time>2018-08-18T03:43:58Z</time>
   </trkpt>
   <trkpt lat="31.9393500" lon="34.9410920">
    <ele>82.0</ele>
    <time>2018-08-18T03:43:59Z</time>
   </trkpt>
   <trkpt lat="31.9393490" lon="34.9411280">
    <ele>82.0</ele>
    <time>2018-08-18T03:44:00Z</time>
   </trkpt>
   <trkpt lat="31.9393480" lon="34.9411640">
    <ele>82.0</ele>
    <time>2018-08-18T03:44:01Z</time>
   </trkpt>
   <trkpt lat="31.9393520" lon="34.9412280">
    <ele>82.0</ele>
    <time>2018-08-18T03:44:03Z</time>
   </trkpt>
   <trkpt lat="31.9393490" lon="34.9412610">
    <ele>82.0</ele>
    <time>2018-08-18T03:44:04Z</time>
   </trkpt>
   <trkpt lat="31.9393460" lon="34.9412940">
    <ele>82.0</ele>
    <time>2018-08-18T03:44:05Z</time>
   </trkpt>
   <trkpt lat="31.9393420" lon="34.9413260">
    <ele>82.0</ele>
    <time>2018-08-18T03:44:06Z</time>
   </trkpt>
   <trkpt lat="31.9393360" lon="34.9413570">
    <ele>82.0</ele>
    <time>2018-08-18T03:44:07Z</time>
   </trkpt>
   <trkpt lat="31.9393320" lon="34.9414060">
    <ele>82.0</ele>
    <time>2018-08-18T03:44:09Z</time>
   </trkpt>
   <trkpt lat="31.9393270" lon="34.9414590">
    <ele>82.0</ele>
    <time>2018-08-18T03:44:11Z</time>
   </trkpt>
   <trkpt lat="31.9393210" lon="34.9415140">
    <ele>82.0</ele>
    <time>2018-08-18T03:44:13Z</time>
   </trkpt>
   <trkpt lat="31.9393110" lon="34.9415690">
    <ele>82.0</ele>
    <time>2018-08-18T03:44:15Z</time>
   </trkpt>
   <trkpt lat="31.9393020" lon="34.9416070">
    <ele>82.4</ele>
    <time>2018-08-18T03:44:16Z</time>
   </trkpt>
   <trkpt lat="31.9392940" lon="34.9416570">
    <ele>83.9</ele>
    <time>2018-08-18T03:44:18Z</time>
   </trkpt>
   <trkpt lat="31.9392890" lon="34.9417020">
    <ele>84.9</ele>
    <time>2018-08-18T03:44:20Z</time>
   </trkpt>
   <trkpt lat="31.9392870" lon="34.9417560">
    <ele>85.4</ele>
    <time>2018-08-18T03:44:22Z</time>
   </trkpt>
   <trkpt lat="31.9392870" lon="34.9418100">
    <ele>85.9</ele>
    <time>2018-08-18T03:44:24Z</time>
   </trkpt>
   <trkpt lat="31.9392830" lon="34.9418620">
    <ele>86.5</ele>
    <time>2018-08-18T03:44:26Z</time>
   </trkpt>
   <trkpt lat="31.9392720" lon="34.9419210">
    <ele>87.0</ele>
    <time>2018-08-18T03:44:28Z</time>
   </trkpt>
   <trkpt lat="31.9392600" lon="34.9419750">
    <ele>87.3</ele>
    <time>2018-08-18T03:44:30Z</time>
   </trkpt>
   <trkpt lat="31.9392490" lon="34.9420350">
    <ele>87.7</ele>
    <time>2018-08-18T03:44:32Z</time>
   </trkpt>
   <trkpt lat="31.9392400" lon="34.9420960">
    <ele>88.1</ele>
    <time>2018-08-18T03:44:34Z</time>
   </trkpt>
   <trkpt lat="31.9392350" lon="34.9421300">
    <ele>88.3</ele>
    <time>2018-08-18T03:44:35Z</time>
   </trkpt>
   <trkpt lat="31.9392300" lon="34.9421630">
    <ele>88.5</ele>
    <time>2018-08-18T03:44:36Z</time>
   </trkpt>
   <trkpt lat="31.9392250" lon="34.9421970">
    <ele>88.7</ele>
    <time>2018-08-18T03:44:37Z</time>
   </trkpt>
   <trkpt lat="31.9392200" lon="34.9422340">
    <ele>88.9</ele>
    <time>2018-08-18T03:44:38Z</time>
   </trkpt>
   <trkpt lat="31.9392140" lon="34.9422710">
    <ele>89.0</ele>
    <time>2018-08-18T03:44:39Z</time>
   </trkpt>
   <trkpt lat="31.9392110" lon="34.9423060">
    <ele>89.0</ele>
    <time>2018-08-18T03:44:40Z</time>
   </trkpt>
   <trkpt lat="31.9392060" lon="34.9423440">
    <ele>89.0</ele>
    <time>2018-08-18T03:44:41Z</time>
   </trkpt>
   <trkpt lat="31.9392010" lon="34.9423840">
    <ele>89.0</ele>
    <time>2018-08-18T03:44:42Z</time>
   </trkpt>
   <trkpt lat="31.9391980" lon="34.9424250">
    <ele>89.0</ele>
    <time>2018-08-18T03:44:43Z</time>
   </trkpt>
   <trkpt lat="31.9391940" lon="34.9424640">
    <ele>89.0</ele>
    <time>2018-08-18T03:44:44Z</time>
   </trkpt>
   <trkpt lat="31.9391910" lon="34.9425030">
    <ele>89.1</ele>
    <time>2018-08-18T03:44:45Z</time>
   </trkpt>
   <trkpt lat="31.9391900" lon="34.9425410">
    <ele>89.1</ele>
    <time>2018-08-18T03:44:46Z</time>
   </trkpt>
   <trkpt lat="31.9391900" lon="34.9425770">
    <ele>89.1</ele>
    <time>2018-08-18T03:44:47Z</time>
   </trkpt>
   <trkpt lat="31.9391890" lon="34.9426130">
    <ele>89.2</ele>
    <time>2018-08-18T03:44:48Z</time>
   </trkpt>
   <trkpt lat="31.9391910" lon="34.9426470">
    <ele>89.2</ele>
    <time>2018-08-18T03:44:49Z</time>
   </trkpt>
   <trkpt lat="31.9391940" lon="34.9426820">
    <ele>89.3</ele>
    <time>2018-08-18T03:44:50Z</time>
   </trkpt>
   <trkpt lat="31.9392000" lon="34.9427160">
    <ele>89.4</ele>
    <time>2018-08-18T03:44:51Z</time>
   </trkpt>
   <trkpt lat="31.9392060" lon="34.9427490">
    <ele>89.5</ele>
    <time>2018-08-18T03:44:52Z</time>
   </trkpt>
   <trkpt lat="31.9392090" lon="34.9427880">
    <ele>89.5</ele>
    <time>2018-08-18T03:44:53Z</time>
   </trkpt>
   <trkpt lat="31.9392130" lon="34.9428280">
    <ele>89.6</ele>
    <time>2018-08-18T03:44:54Z</time>
   </trkpt>
   <trkpt lat="31.9392160" lon="34.9428670">
    <ele>89.8</ele>
    <time>2018-08-18T03:44:55Z</time>
   </trkpt>
   <trkpt lat="31.9392180" lon="34.9429050">
    <ele>89.9</ele>
    <time>2018-08-18T03:44:56Z</time>
   </trkpt>
   <trkpt lat="31.9392230" lon="34.9429440">
    <ele>90.2</ele>
    <time>2018-08-18T03:44:57Z</time>
   </trkpt>
   <trkpt lat="31.9392280" lon="34.9429850">
    <ele>90.5</ele>
    <time>2018-08-18T03:44:58Z</time>
   </trkpt>
   <trkpt lat="31.9392290" lon="34.9430280">
    <ele>90.5</ele>
    <time>2018-08-18T03:44:59Z</time>
   </trkpt>
   <trkpt lat="31.9392290" lon="34.9430730">
    <ele>90.6</ele>
    <time>2018-08-18T03:45:00Z</time>
   </trkpt>
   <trkpt lat="31.9392300" lon="34.9431190">
    <ele>90.7</ele>
    <time>2018-08-18T03:45:01Z</time>
   </trkpt>
   <trkpt lat="31.9392330" lon="34.9431610">
    <ele>90.8</ele>
    <time>2018-08-18T03:45:02Z</time>
   </trkpt>
   <trkpt lat="31.9392360" lon="34.9432040">
    <ele>90.8</ele>
    <time>2018-08-18T03:45:03Z</time>
   </trkpt>
   <trkpt lat="31.9392400" lon="34.9432470">
    <ele>90.8</ele>
    <time>2018-08-18T03:45:04Z</time>
   </trkpt>
   <trkpt lat="31.9392430" lon="34.9432890">
    <ele>90.9</ele>
    <time>2018-08-18T03:45:05Z</time>
   </trkpt>
   <trkpt lat="31.9392470" lon="34.9433330">
    <ele>90.9</ele>
    <time>2018-08-18T03:45:06Z</time>
   </trkpt>
   <trkpt lat="31.9392500" lon="34.9433820">
    <ele>90.9</ele>
    <time>2018-08-18T03:45:07Z</time>
   </trkpt>
   <trkpt lat="31.9392510" lon="34.9434310">
    <ele>91.0</ele>
    <time>2018-08-18T03:45:08Z</time>
   </trkpt>
   <trkpt lat="31.9392540" lon="34.9434740">
    <ele>91.0</ele>
    <time>2018-08-18T03:45:09Z</time>
   </trkpt>
   <trkpt lat="31.9392560" lon="34.9435190">
    <ele>91.0</ele>
    <time>2018-08-18T03:45:10Z</time>
   </trkpt>
   <trkpt lat="31.9392570" lon="34.9435670">
    <ele>91.0</ele>
    <time>2018-08-18T03:45:11Z</time>
   </trkpt>
   <trkpt lat="31.9392570" lon="34.9436110">
    <ele>91.0</ele>
    <time>2018-08-18T03:45:12Z</time>
   </trkpt>
   <trkpt lat="31.9392580" lon="34.9436560">
    <ele>91.0</ele>
    <time>2018-08-18T03:45:13Z</time>
   </trkpt>
   <trkpt lat="31.9392590" lon="34.9437050">
    <ele>91.0</ele>
    <time>2018-08-18T03:45:14Z</time>
   </trkpt>
   <trkpt lat="31.9392640" lon="34.9437570">
    <ele>91.0</ele>
    <time>2018-08-18T03:45:15Z</time>
   </trkpt>
   <trkpt lat="31.9392680" lon="34.9438050">
    <ele>91.0</ele>
    <time>2018-08-18T03:45:16Z</time>
   </trkpt>
   <trkpt lat="31.9392720" lon="34.9438480">
    <ele>91.0</ele>
    <time>2018-08-18T03:45:17Z</time>
   </trkpt>
   <trkpt lat="31.9392760" lon="34.9438900">
    <ele>91.0</ele>
    <time>2018-08-18T03:45:18Z</time>
   </trkpt>
   <trkpt lat="31.9392780" lon="34.9439380">
    <ele>91.0</ele>
    <time>2018-08-18T03:45:19Z</time>
   </trkpt>
   <trkpt lat="31.9392790" lon="34.9439870">
    <ele>91.0</ele>
    <time>2018-08-18T03:45:20Z</time>
   </trkpt>
   <trkpt lat="31.9392820" lon="34.9440370">
    <ele>91.0</ele>
    <time>2018-08-18T03:45:21Z</time>
   </trkpt>
   <trkpt lat="31.9392830" lon="34.9440860">
    <ele>91.0</ele>
    <time>2018-08-18T03:45:22Z</time>
   </trkpt>
   <trkpt lat="31.9392830" lon="34.9441330">
    <ele>91.0</ele>
    <time>2018-08-18T03:45:23Z</time>
   </trkpt>
   <trkpt lat="31.9392840" lon="34.9441810">
    <ele>91.0</ele>
    <time>2018-08-18T03:45:24Z</time>
   </trkpt>
   <trkpt lat="31.9392850" lon="34.9442250">
    <ele>91.1</ele>
    <time>2018-08-18T03:45:25Z</time>
   </trkpt>
   <trkpt lat="31.9392870" lon="34.9442680">
    <ele>91.1</ele>
    <time>2018-08-18T03:45:26Z</time>
   </trkpt>
   <trkpt lat="31.9392880" lon="34.9443130">
    <ele>91.1</ele>
    <time>2018-08-18T03:45:27Z</time>
   </trkpt>
   <trkpt lat="31.9392900" lon="34.9443570">
    <ele>91.1</ele>
    <time>2018-08-18T03:45:28Z</time>
   </trkpt>
   <trkpt lat="31.9392920" lon="34.9444030">
    <ele>91.1</ele>
    <time>2018-08-18T03:45:29Z</time>
   </trkpt>
   <trkpt lat="31.9392940" lon="34.9444460">
    <ele>91.2</ele>
    <time>2018-08-18T03:45:30Z</time>
   </trkpt>
   <trkpt lat="31.9392990" lon="34.9444770">
    <ele>91.2</ele>
    <time>2018-08-18T03:45:31Z</time>
   </trkpt>
   <trkpt lat="31.9392990" lon="34.9445130">
    <ele>91.2</ele>
    <time>2018-08-18T03:45:32Z</time>
   </trkpt>
   <trkpt lat="31.9393000" lon="34.9445510">
    <ele>91.3</ele>
    <time>2018-08-18T03:45:33Z</time>
   </trkpt>
   <trkpt lat="31.9393020" lon="34.9445890">
    <ele>91.3</ele>
    <time>2018-08-18T03:45:34Z</time>
   </trkpt>
   <trkpt lat="31.9393020" lon="34.9446290">
    <ele>91.4</ele>
    <time>2018-08-18T03:45:35Z</time>
   </trkpt>
   <trkpt lat="31.9393020" lon="34.9446730">
    <ele>91.4</ele>
    <time>2018-08-18T03:45:36Z</time>
   </trkpt>
   <trkpt lat="31.9393040" lon="34.9447240">
    <ele>91.6</ele>
    <time>2018-08-18T03:45:37Z</time>
   </trkpt>
   <trkpt lat="31.9393040" lon="34.9447690">
    <ele>91.7</ele>
    <time>2018-08-18T03:45:38Z</time>
   </trkpt>
   <trkpt lat="31.9393030" lon="34.9448140">
    <ele>91.9</ele>
    <time>2018-08-18T03:45:39Z</time>
   </trkpt>
   <trkpt lat="31.9393020" lon="34.9448630">
    <ele>92.2</ele>
    <time>2018-08-18T03:45:40Z</time>
   </trkpt>
   <trkpt lat="31.9393000" lon="34.9449130">
    <ele>92.5</ele>
    <time>2018-08-18T03:45:41Z</time>
   </trkpt>
   <trkpt lat="31.9393000" lon="34.9449640">
    <ele>92.8</ele>
    <time>2018-08-18T03:45:42Z</time>
   </trkpt>
   <trkpt lat="31.9393010" lon="34.9450170">
    <ele>93.1</ele>
    <time>2018-08-18T03:45:43Z</time>
   </trkpt>
   <trkpt lat="31.9393030" lon="34.9450610">
    <ele>93.2</ele>
    <time>2018-08-18T03:45:44Z</time>
   </trkpt>
   <trkpt lat="31.9393030" lon="34.9451100">
    <ele>93.3</ele>
    <time>2018-08-18T03:45:45Z</time>
   </trkpt>
   <trkpt lat="31.9393020" lon="34.9451620">
    <ele>93.4</ele>
    <time>2018-08-18T03:45:46Z</time>
   </trkpt>
   <trkpt lat="31.9393020" lon="34.9452140">
    <ele>93.6</ele>
    <time>2018-08-18T03:45:47Z</time>
   </trkpt>
   <trkpt lat="31.9393000" lon="34.9452660">
    <ele>93.7</ele>
    <time>2018-08-18T03:45:48Z</time>
   </trkpt>
   <trkpt lat="31.9392930" lon="34.9453170">
    <ele>93.8</ele>
    <time>2018-08-18T03:45:49Z</time>
   </trkpt>
   <trkpt lat="31.9392860" lon="34.9453670">
    <ele>94.0</ele>
    <time>2018-08-18T03:45:50Z</time>
   </trkpt>
   <trkpt lat="31.9392790" lon="34.9454160">
    <ele>93.9</ele>
    <time>2018-08-18T03:45:51Z</time>
   </trkpt>
   <trkpt lat="31.9392670" lon="34.9454630">
    <ele>93.8</ele>
    <time>2018-08-18T03:45:52Z</time>
   </trkpt>
   <trkpt lat="31.9392470" lon="34.9455020">
    <ele>93.6</ele>
    <time>2018-08-18T03:45:53Z</time>
   </trkpt>
   <trkpt lat="31.9392230" lon="34.9455380">
    <ele>93.5</ele>
    <time>2018-08-18T03:45:54Z</time>
   </trkpt>
   <trkpt lat="31.9391960" lon="34.9455710">
    <ele>93.3</ele>
    <time>2018-08-18T03:45:55Z</time>
   </trkpt>
   <trkpt lat="31.9391630" lon="34.9456040">
    <ele>93.1</ele>
    <time>2018-08-18T03:45:56Z</time>
   </trkpt>
   <trkpt lat="31.9391290" lon="34.9456380">
    <ele>92.9</ele>
    <time>2018-08-18T03:45:57Z</time>
   </trkpt>
   <trkpt lat="31.9390930" lon="34.9456730">
    <ele>92.7</ele>
    <time>2018-08-18T03:45:58Z</time>
   </trkpt>
   <trkpt lat="31.9390580" lon="34.9457080">
    <ele>92.4</ele>
    <time>2018-08-18T03:45:59Z</time>
   </trkpt>
   <trkpt lat="31.9390220" lon="34.9457460">
    <ele>92.2</ele>
    <time>2018-08-18T03:46:00Z</time>
   </trkpt>
   <trkpt lat="31.9389860" lon="34.9457910">
    <ele>91.9</ele>
    <time>2018-08-18T03:46:01Z</time>
   </trkpt>
   <trkpt lat="31.9389480" lon="34.9458390">
    <ele>91.7</ele>
    <time>2018-08-18T03:46:02Z</time>
   </trkpt>
   <trkpt lat="31.9389100" lon="34.9458830">
    <ele>91.5</ele>
    <time>2018-08-18T03:46:03Z</time>
   </trkpt>
   <trkpt lat="31.9388710" lon="34.9459300">
    <ele>91.2</ele>
    <time>2018-08-18T03:46:04Z</time>
   </trkpt>
   <trkpt lat="31.9388340" lon="34.9459830">
    <ele>90.9</ele>
    <time>2018-08-18T03:46:05Z</time>
   </trkpt>
   <trkpt lat="31.9387960" lon="34.9460370">
    <ele>90.5</ele>
    <time>2018-08-18T03:46:06Z</time>
   </trkpt>
   <trkpt lat="31.9387580" lon="34.9460910">
    <ele>90.0</ele>
    <time>2018-08-18T03:46:07Z</time>
   </trkpt>
   <trkpt lat="31.9387220" lon="34.9461440">
    <ele>89.5</ele>
    <time>2018-08-18T03:46:08Z</time>
   </trkpt>
   <trkpt lat="31.9386870" lon="34.9461950">
    <ele>89.0</ele>
    <time>2018-08-18T03:46:09Z</time>
   </trkpt>
   <trkpt lat="31.9386580" lon="34.9462440">
    <ele>88.6</ele>
    <time>2018-08-18T03:46:10Z</time>
   </trkpt>
   <trkpt lat="31.9386330" lon="34.9462960">
    <ele>88.2</ele>
    <time>2018-08-18T03:46:11Z</time>
   </trkpt>
   <trkpt lat="31.9386100" lon="34.9463550">
    <ele>87.8</ele>
    <time>2018-08-18T03:46:12Z</time>
   </trkpt>
   <trkpt lat="31.9385930" lon="34.9464170">
    <ele>87.5</ele>
    <time>2018-08-18T03:46:13Z</time>
   </trkpt>
   <trkpt lat="31.9385750" lon="34.9464810">
    <ele>87.3</ele>
    <time>2018-08-18T03:46:14Z</time>
   </trkpt>
   <trkpt lat="31.9385680" lon="34.9465470">
    <ele>87.1</ele>
    <time>2018-08-18T03:46:15Z</time>
   </trkpt>
   <trkpt lat="31.9385590" lon="34.9466120">
    <ele>87.2</ele>
    <time>2018-08-18T03:46:16Z</time>
   </trkpt>
   <trkpt lat="31.9385530" lon="34.9466760">
    <ele>87.7</ele>
    <time>2018-08-18T03:46:17Z</time>
   </trkpt>
   <trkpt lat="31.9385510" lon="34.9467360">
    <ele>88.0</ele>
    <time>2018-08-18T03:46:18Z</time>
   </trkpt>
   <trkpt lat="31.9385310" lon="34.9467990">
    <ele>88.5</ele>
    <time>2018-08-18T03:46:19Z</time>
   </trkpt>
   <trkpt lat="31.9385030" lon="34.9468530">
    <ele>88.9</ele>
    <time>2018-08-18T03:46:20Z</time>
   </trkpt>
   <trkpt lat="31.9384730" lon="34.9469050">
    <ele>89.0</ele>
    <time>2018-08-18T03:46:21Z</time>
   </trkpt>
   <trkpt lat="31.9384440" lon="34.9469520">
    <ele>89.0</ele>
    <time>2018-08-18T03:46:22Z</time>
   </trkpt>
   <trkpt lat="31.9384110" lon="34.9469960">
    <ele>89.5</ele>
    <time>2018-08-18T03:46:23Z</time>
   </trkpt>
   <trkpt lat="31.9383800" lon="34.9470330">
    <ele>90.1</ele>
    <time>2018-08-18T03:46:24Z</time>
   </trkpt>
   <trkpt lat="31.9383500" lon="34.9470690">
    <ele>90.7</ele>
    <time>2018-08-18T03:46:25Z</time>
   </trkpt>
   <trkpt lat="31.9383200" lon="34.9471060">
    <ele>91.2</ele>
    <time>2018-08-18T03:46:26Z</time>
   </trkpt>
   <trkpt lat="31.9382930" lon="34.9471430">
    <ele>91.8</ele>
    <time>2018-08-18T03:46:27Z</time>
   </trkpt>
   <trkpt lat="31.9382640" lon="34.9471820">
    <ele>92.0</ele>
    <time>2018-08-18T03:46:28Z</time>
   </trkpt>
   <trkpt lat="31.9382370" lon="34.9472230">
    <ele>92.0</ele>
    <time>2018-08-18T03:46:29Z</time>
   </trkpt>
   <trkpt lat="31.9382150" lon="34.9472630">
    <ele>92.0</ele>
    <time>2018-08-18T03:46:30Z</time>
   </trkpt>
   <trkpt lat="31.9381980" lon="34.9472930">
    <ele>92.0</ele>
    <time>2018-08-18T03:46:31Z</time>
   </trkpt>
   <trkpt lat="31.9381810" lon="34.9473200">
    <ele>92.0</ele>
    <time>2018-08-18T03:46:32Z</time>
   </trkpt>
   <trkpt lat="31.9381610" lon="34.9473430">
    <ele>92.0</ele>
    <time>2018-08-18T03:46:33Z</time>
   </trkpt>
   <trkpt lat="31.9381380" lon="34.9473820">
    <ele>92.6</ele>
    <time>2018-08-18T03:46:35Z</time>
   </trkpt>
   <trkpt lat="31.9381270" lon="34.9474310">
    <ele>93.7</ele>
    <time>2018-08-18T03:46:37Z</time>
   </trkpt>
   <trkpt lat="31.9381170" lon="34.9474650">
    <ele>94.5</ele>
    <time>2018-08-18T03:46:39Z</time>
   </trkpt>
   <trkpt lat="31.9380970" lon="34.9475010">
    <ele>95.4</ele>
    <time>2018-08-18T03:46:42Z</time>
   </trkpt>
   <trkpt lat="31.9380750" lon="34.9475330">
    <ele>96.2</ele>
    <time>2018-08-18T03:46:44Z</time>
   </trkpt>
   <trkpt lat="31.9380550" lon="34.9475560">
    <ele>96.9</ele>
    <time>2018-08-18T03:46:46Z</time>
   </trkpt>
   <trkpt lat="31.9380420" lon="34.9475840">
    <ele>97.6</ele>
    <time>2018-08-18T03:46:47Z</time>
   </trkpt>
   <trkpt lat="31.9380210" lon="34.9476240">
    <ele>98.5</ele>
    <time>2018-08-18T03:46:49Z</time>
   </trkpt>
   <trkpt lat="31.9380020" lon="34.9476500">
    <ele>99.3</ele>
    <time>2018-08-18T03:46:51Z</time>
   </trkpt>
   <trkpt lat="31.9379830" lon="34.9476900">
    <ele>100.2</ele>
    <time>2018-08-18T03:46:53Z</time>
   </trkpt>
   <trkpt lat="31.9379620" lon="34.9477280">
    <ele>101.1</ele>
    <time>2018-08-18T03:46:55Z</time>
   </trkpt>
   <trkpt lat="31.9379330" lon="34.9477690">
    <ele>102.3</ele>
    <time>2018-08-18T03:46:57Z</time>
   </trkpt>
   <trkpt lat="31.9379100" lon="34.9478030">
    <ele>103.2</ele>
    <time>2018-08-18T03:46:59Z</time>
   </trkpt>
   <trkpt lat="31.9378910" lon="34.9478340">
    <ele>104.0</ele>
    <time>2018-08-18T03:47:01Z</time>
   </trkpt>
   <trkpt lat="31.9378750" lon="34.9478680">
    <ele>104.3</ele>
    <time>2018-08-18T03:47:03Z</time>
   </trkpt>
   <trkpt lat="31.9378580" lon="34.9478970">
    <ele>104.6</ele>
    <time>2018-08-18T03:47:05Z</time>
   </trkpt>
   <trkpt lat="31.9378430" lon="34.9479280">
    <ele>105.0</ele>
    <time>2018-08-18T03:47:07Z</time>
   </trkpt>
   <trkpt lat="31.9378170" lon="34.9479660">
    <ele>105.4</ele>
    <time>2018-08-18T03:47:10Z</time>
   </trkpt>
   <trkpt lat="31.9377970" lon="34.9479910">
    <ele>105.7</ele>
    <time>2018-08-18T03:47:12Z</time>
   </trkpt>
   <trkpt lat="31.9377800" lon="34.9480220">
    <ele>106.0</ele>
    <time>2018-08-18T03:47:14Z</time>
   </trkpt>
   <trkpt lat="31.9377630" lon="34.9480520">
    <ele>106.4</ele>
    <time>2018-08-18T03:47:16Z</time>
   </trkpt>
   <trkpt lat="31.9377360" lon="34.9480840">
    <ele>106.8</ele>
    <time>2018-08-18T03:47:19Z</time>
   </trkpt>
   <trkpt lat="31.9377090" lon="34.9481200">
    <ele>107.2</ele>
    <time>2018-08-18T03:47:22Z</time>
   </trkpt>
   <trkpt lat="31.9376970" lon="34.9481540">
    <ele>107.5</ele>
    <time>2018-08-18T03:47:24Z</time>
   </trkpt>
   <trkpt lat="31.9376750" lon="34.9481830">
    <ele>107.9</ele>
    <time>2018-08-18T03:47:26Z</time>
   </trkpt>
   <trkpt lat="31.9376560" lon="34.9482270">
    <ele>108.3</ele>
    <time>2018-08-18T03:47:29Z</time>
   </trkpt>
   <trkpt lat="31.9376360" lon="34.9482510">
    <ele>108.6</ele>
    <time>2018-08-18T03:47:31Z</time>
   </trkpt>
   <trkpt lat="31.9376120" lon="34.9482820">
    <ele>109.0</ele>
    <time>2018-08-18T03:47:34Z</time>
   </trkpt>
   <trkpt lat="31.9375940" lon="34.9483130">
    <ele>109.4</ele>
    <time>2018-08-18T03:47:37Z</time>
   </trkpt>
   <trkpt lat="31.9375690" lon="34.9483430">
    <ele>109.7</ele>
    <time>2018-08-18T03:47:40Z</time>
   </trkpt>
   <trkpt lat="31.9375410" lon="34.9483690">
    <ele>110.2</ele>
    <time>2018-08-18T03:47:43Z</time>
   </trkpt>
   <trkpt lat="31.9375150" lon="34.9483900">
    <ele>110.5</ele>
    <time>2018-08-18T03:47:45Z</time>
   </trkpt>
   <trkpt lat="31.9374880" lon="34.9484080">
    <ele>110.9</ele>
    <time>2018-08-18T03:47:47Z</time>
   </trkpt>
   <trkpt lat="31.9374580" lon="34.9484250">
    <ele>111.3</ele>
    <time>2018-08-18T03:47:49Z</time>
   </trkpt>
   <trkpt lat="31.9374250" lon="34.9484370">
    <ele>111.7</ele>
    <time>2018-08-18T03:47:51Z</time>
   </trkpt>
   <trkpt lat="31.9373870" lon="34.9484500">
    <ele>112.1</ele>
    <time>2018-08-18T03:47:53Z</time>
   </trkpt>
   <trkpt lat="31.9373570" lon="34.9484750">
    <ele>112.5</ele>
    <time>2018-08-18T03:47:55Z</time>
   </trkpt>
   <trkpt lat="31.9373330" lon="34.9484960">
    <ele>112.8</ele>
    <time>2018-08-18T03:47:57Z</time>
   </trkpt>
   <trkpt lat="31.9373060" lon="34.9485320">
    <ele>113.2</ele>
    <time>2018-08-18T03:48:00Z</time>
   </trkpt>
   <trkpt lat="31.9372890" lon="34.9485610">
    <ele>113.5</ele>
    <time>2018-08-18T03:48:02Z</time>
   </trkpt>
   <trkpt lat="31.9372800" lon="34.9485950">
    <ele>113.8</ele>
    <time>2018-08-18T03:48:04Z</time>
   </trkpt>
   <trkpt lat="31.9372650" lon="34.9486250">
    <ele>114.1</ele>
    <time>2018-08-18T03:48:06Z</time>
   </trkpt>
   <trkpt lat="31.9372500" lon="34.9486560">
    <ele>114.3</ele>
    <time>2018-08-18T03:48:08Z</time>
   </trkpt>
   <trkpt lat="31.9372390" lon="34.9486890">
    <ele>114.5</ele>
    <time>2018-08-18T03:48:10Z</time>
   </trkpt>
   <trkpt lat="31.9372310" lon="34.9487260">
    <ele>114.7</ele>
    <time>2018-08-18T03:48:12Z</time>
   </trkpt>
   <trkpt lat="31.9372240" lon="34.9487620">
    <ele>115.0</ele>
    <time>2018-08-18T03:48:14Z</time>
   </trkpt>
   <trkpt lat="31.9372170" lon="34.9487970">
    <ele>115.2</ele>
    <time>2018-08-18T03:48:16Z</time>
   </trkpt>
   <trkpt lat="31.9372150" lon="34.9488310">
    <ele>115.4</ele>
    <time>2018-08-18T03:48:18Z</time>
   </trkpt>
   <trkpt lat="31.9372130" lon="34.9488690">
    <ele>115.6</ele>
    <time>2018-08-18T03:48:20Z</time>
   </trkpt>
   <trkpt lat="31.9372120" lon="34.9489140">
    <ele>115.9</ele>
    <time>2018-08-18T03:48:22Z</time>
   </trkpt>
   <trkpt lat="31.9372080" lon="34.9489590">
    <ele>116.3</ele>
    <time>2018-08-18T03:48:24Z</time>
   </trkpt>
   <trkpt lat="31.9372020" lon="34.9490020">
    <ele>116.7</ele>
    <time>2018-08-18T03:48:26Z</time>
   </trkpt>
   <trkpt lat="31.9371980" lon="34.9490510">
    <ele>117.2</ele>
    <time>2018-08-18T03:48:28Z</time>
   </trkpt>
   <trkpt lat="31.9371980" lon="34.9491010">
    <ele>117.6</ele>
    <time>2018-08-18T03:48:30Z</time>
   </trkpt>
   <trkpt lat="31.9371980" lon="34.9491500">
    <ele>118.0</ele>
    <time>2018-08-18T03:48:32Z</time>
   </trkpt>
   <trkpt lat="31.9371980" lon="34.9491980">
    <ele>118.3</ele>
    <time>2018-08-18T03:48:34Z</time>
   </trkpt>
   <trkpt lat="31.9371950" lon="34.9492440">
    <ele>118.5</ele>
    <time>2018-08-18T03:48:36Z</time>
   </trkpt>
   <trkpt lat="31.9371850" lon="34.9492900">
    <ele>118.7</ele>
    <time>2018-08-18T03:48:38Z</time>
   </trkpt>
   <trkpt lat="31.9371680" lon="34.9493340">
    <ele>118.9</ele>
    <time>2018-08-18T03:48:40Z</time>
   </trkpt>
   <trkpt lat="31.9371320" lon="34.9493680">
    <ele>119.0</ele>
    <time>2018-08-18T03:48:42Z</time>
   </trkpt>
   <trkpt lat="31.9370970" lon="34.9493850">
    <ele>119.0</ele>
    <time>2018-08-18T03:48:44Z</time>
   </trkpt>
   <trkpt lat="31.9370610" lon="34.9494050">
    <ele>119.0</ele>
    <time>2018-08-18T03:48:46Z</time>
   </trkpt>
   <trkpt lat="31.9370300" lon="34.9494200">
    <ele>119.0</ele>
    <time>2018-08-18T03:48:48Z</time>
   </trkpt>
   <trkpt lat="31.9370020" lon="34.9494290">
    <ele>119.0</ele>
    <time>2018-08-18T03:48:50Z</time>
   </trkpt>
   <trkpt lat="31.9369630" lon="34.9494380">
    <ele>119.0</ele>
    <time>2018-08-18T03:48:52Z</time>
   </trkpt>
   <trkpt lat="31.9369230" lon="34.9494390">
    <ele>119.0</ele>
    <time>2018-08-18T03:48:54Z</time>
   </trkpt>
   <trkpt lat="31.9368800" lon="34.9494330">
    <ele>119.0</ele>
    <time>2018-08-18T03:48:56Z</time>
   </trkpt>
   <trkpt lat="31.9368370" lon="34.9494210">
    <ele>119.0</ele>
    <time>2018-08-18T03:48:58Z</time>
   </trkpt>
   <trkpt lat="31.9367980" lon="34.9494100">
    <ele>118.5</ele>
    <time>2018-08-18T03:49:00Z</time>
   </trkpt>
   <trkpt lat="31.9367600" lon="34.9493980">
    <ele>117.8</ele>
    <time>2018-08-18T03:49:02Z</time>
   </trkpt>
   <trkpt lat="31.9367250" lon="34.9493800">
    <ele>117.1</ele>
    <time>2018-08-18T03:49:04Z</time>
   </trkpt>
   <trkpt lat="31.9366960" lon="34.9493670">
    <ele>116.7</ele>
    <time>2018-08-18T03:49:06Z</time>
   </trkpt>
   <trkpt lat="31.9366590" lon="34.9493520">
    <ele>116.1</ele>
    <time>2018-08-18T03:49:08Z</time>
   </trkpt>
   <trkpt lat="31.9366250" lon="34.9493410">
    <ele>115.6</ele>
    <time>2018-08-18T03:49:10Z</time>
   </trkpt>
   <trkpt lat="31.9365930" lon="34.9493290">
    <ele>115.0</ele>
    <time>2018-08-18T03:49:12Z</time>
   </trkpt>
   <trkpt lat="31.9365520" lon="34.9493150">
    <ele>113.8</ele>
    <time>2018-08-18T03:49:14Z</time>
   </trkpt>
   <trkpt lat="31.9365040" lon="34.9492900">
    <ele>112.8</ele>
    <time>2018-08-18T03:49:16Z</time>
   </trkpt>
   <trkpt lat="31.9364740" lon="34.9492730">
    <ele>112.2</ele>
    <time>2018-08-18T03:49:17Z</time>
   </trkpt>
   <trkpt lat="31.9364410" lon="34.9492550">
    <ele>111.4</ele>
    <time>2018-08-18T03:49:18Z</time>
   </trkpt>
   <trkpt lat="31.9364040" lon="34.9492360">
    <ele>110.4</ele>
    <time>2018-08-18T03:49:19Z</time>
   </trkpt>
   <trkpt lat="31.9363650" lon="34.9492180">
    <ele>109.4</ele>
    <time>2018-08-18T03:49:20Z</time>
   </trkpt>
   <trkpt lat="31.9363170" lon="34.9492090">
    <ele>108.3</ele>
    <time>2018-08-18T03:49:21Z</time>
   </trkpt>
   <trkpt lat="31.9362660" lon="34.9492220">
    <ele>107.2</ele>
    <time>2018-08-18T03:49:22Z</time>
   </trkpt>
   <trkpt lat="31.9362200" lon="34.9492550">
    <ele>106.9</ele>
    <time>2018-08-18T03:49:23Z</time>
   </trkpt>
   <trkpt lat="31.9361840" lon="34.9493020">
    <ele>108.1</ele>
    <time>2018-08-18T03:49:24Z</time>
   </trkpt>
   <trkpt lat="31.9361600" lon="34.9493540">
    <ele>109.1</ele>
    <time>2018-08-18T03:49:25Z</time>
   </trkpt>
   <trkpt lat="31.9361450" lon="34.9494020">
    <ele>109.9</ele>
    <time>2018-08-18T03:49:26Z</time>
   </trkpt>
   <trkpt lat="31.9361370" lon="34.9494440">
    <ele>110.6</ele>
    <time>2018-08-18T03:49:27Z</time>
   </trkpt>
   <trkpt lat="31.9361350" lon="34.9494860">
    <ele>111.3</ele>
    <time>2018-08-18T03:49:28Z</time>
   </trkpt>
   <trkpt lat="31.9361330" lon="34.9495240">
    <ele>111.8</ele>
    <time>2018-08-18T03:49:29Z</time>
   </trkpt>
   <trkpt lat="31.9361310" lon="34.9495590">
    <ele>112.2</ele>
    <time>2018-08-18T03:49:30Z</time>
   </trkpt>
   <trkpt lat="31.9361270" lon="34.9495940">
    <ele>112.7</ele>
    <time>2018-08-18T03:49:31Z</time>
   </trkpt>
   <trkpt lat="31.9361190" lon="34.9496280">
    <ele>113.1</ele>
    <time>2018-08-18T03:49:32Z</time>
   </trkpt>
   <trkpt lat="31.9361090" lon="34.9496840">
    <ele>113.7</ele>
    <time>2018-08-18T03:49:34Z</time>
   </trkpt>
   <trkpt lat="31.9360970" lon="34.9497360">
    <ele>114.3</ele>
    <time>2018-08-18T03:49:36Z</time>
   </trkpt>
   <trkpt lat="31.9360800" lon="34.9497860">
    <ele>115.0</ele>
    <time>2018-08-18T03:49:38Z</time>
   </trkpt>
   <trkpt lat="31.9360610" lon="34.9498360">
    <ele>116.0</ele>
    <time>2018-08-18T03:49:40Z</time>
   </trkpt>
   <trkpt lat="31.9360470" lon="34.9498660">
    <ele>116.6</ele>
    <time>2018-08-18T03:49:41Z</time>
   </trkpt>
   <trkpt lat="31.9360210" lon="34.9499150">
    <ele>117.7</ele>
    <time>2018-08-18T03:49:43Z</time>
   </trkpt>
   <trkpt lat="31.9359950" lon="34.9499730">
    <ele>118.9</ele>
    <time>2018-08-18T03:49:45Z</time>
   </trkpt>
   <trkpt lat="31.9359790" lon="34.9500020">
    <ele>119.6</ele>
    <time>2018-08-18T03:49:46Z</time>
   </trkpt>
   <trkpt lat="31.9359510" lon="34.9500480">
    <ele>120.2</ele>
    <time>2018-08-18T03:49:48Z</time>
   </trkpt>
   <trkpt lat="31.9359220" lon="34.9500850">
    <ele>120.4</ele>
    <time>2018-08-18T03:49:50Z</time>
   </trkpt>
   <trkpt lat="31.9358970" lon="34.9501180">
    <ele>120.5</ele>
    <time>2018-08-18T03:49:52Z</time>
   </trkpt>
   <trkpt lat="31.9358770" lon="34.9501560">
    <ele>120.6</ele>
    <time>2018-08-18T03:49:54Z</time>
   </trkpt>
   <trkpt lat="31.9358600" lon="34.9501900">
    <ele>120.7</ele>
    <time>2018-08-18T03:49:56Z</time>
   </trkpt>
   <trkpt lat="31.9358360" lon="34.9502170">
    <ele>120.7</ele>
    <time>2018-08-18T03:49:58Z</time>
   </trkpt>
   <trkpt lat="31.9358120" lon="34.9502570">
    <ele>120.8</ele>
    <time>2018-08-18T03:50:01Z</time>
   </trkpt>
   <trkpt lat="31.9357900" lon="34.9502940">
    <ele>120.9</ele>
    <time>2018-08-18T03:50:03Z</time>
   </trkpt>
   <trkpt lat="31.9357630" lon="34.9503320">
    <ele>120.9</ele>
    <time>2018-08-18T03:50:05Z</time>
   </trkpt>
   <trkpt lat="31.9357390" lon="34.9503730">
    <ele>121.0</ele>
    <time>2018-08-18T03:50:07Z</time>
   </trkpt>
   <trkpt lat="31.9357180" lon="34.9504220">
    <ele>121.1</ele>
    <time>2018-08-18T03:50:09Z</time>
   </trkpt>
   <trkpt lat="31.9357080" lon="34.9504520">
    <ele>121.2</ele>
    <time>2018-08-18T03:50:10Z</time>
   </trkpt>
   <trkpt lat="31.9356960" lon="34.9504850">
    <ele>121.2</ele>
    <time>2018-08-18T03:50:11Z</time>
   </trkpt>
   <trkpt lat="31.9356860" lon="34.9505290">
    <ele>121.3</ele>
    <time>2018-08-18T03:50:13Z</time>
   </trkpt>
   <trkpt lat="31.9356680" lon="34.9505660">
    <ele>121.3</ele>
    <time>2018-08-18T03:50:15Z</time>
   </trkpt>
   <trkpt lat="31.9356520" lon="34.9505960">
    <ele>121.3</ele>
    <time>2018-08-18T03:50:17Z</time>
   </trkpt>
   <trkpt lat="31.9356330" lon="34.9506310">
    <ele>121.4</ele>
    <time>2018-08-18T03:50:19Z</time>
   </trkpt>
   <trkpt lat="31.9356130" lon="34.9506660">
    <ele>121.5</ele>
    <time>2018-08-18T03:50:21Z</time>
   </trkpt>
   <trkpt lat="31.9355840" lon="34.9507120">
    <ele>121.6</ele>
    <time>2018-08-18T03:50:23Z</time>
   </trkpt>
   <trkpt lat="31.9355680" lon="34.9507430">
    <ele>121.7</ele>
    <time>2018-08-18T03:50:24Z</time>
   </trkpt>
   <trkpt lat="31.9355420" lon="34.9507720">
    <ele>121.7</ele>
    <time>2018-08-18T03:50:25Z</time>
   </trkpt>
   <trkpt lat="31.9355120" lon="34.9508220">
    <ele>121.9</ele>
    <time>2018-08-18T03:50:27Z</time>
   </trkpt>
   <trkpt lat="31.9354930" lon="34.9508450">
    <ele>121.9</ele>
    <time>2018-08-18T03:50:28Z</time>
   </trkpt>
   <trkpt lat="31.9354710" lon="34.9508650">
    <ele>122.1</ele>
    <time>2018-08-18T03:50:29Z</time>
   </trkpt>
   <trkpt lat="31.9354490" lon="34.9508870">
    <ele>122.3</ele>
    <time>2018-08-18T03:50:30Z</time>
   </trkpt>
   <trkpt lat="31.9354280" lon="34.9509090">
    <ele>122.5</ele>
    <time>2018-08-18T03:50:31Z</time>
   </trkpt>
   <trkpt lat="31.9354040" lon="34.9509300">
    <ele>122.8</ele>
    <time>2018-08-18T03:50:32Z</time>
   </trkpt>
   <trkpt lat="31.9353780" lon="34.9509560">
    <ele>123.1</ele>
    <time>2018-08-18T03:50:33Z</time>
   </trkpt>
   <trkpt lat="31.9353540" lon="34.9509790">
    <ele>123.3</ele>
    <time>2018-08-18T03:50:34Z</time>
   </trkpt>
   <trkpt lat="31.9353160" lon="34.9510180">
    <ele>123.8</ele>
    <time>2018-08-18T03:50:36Z</time>
   </trkpt>
   <trkpt lat="31.9352970" lon="34.9510410">
    <ele>124.0</ele>
    <time>2018-08-18T03:50:37Z</time>
   </trkpt>
   <trkpt lat="31.9352610" lon="34.9510870">
    <ele>124.4</ele>
    <time>2018-08-18T03:50:39Z</time>
   </trkpt>
   <trkpt lat="31.9352430" lon="34.9511170">
    <ele>124.7</ele>
    <time>2018-08-18T03:50:40Z</time>
   </trkpt>
   <trkpt lat="31.9352270" lon="34.9511500">
    <ele>125.0</ele>
    <time>2018-08-18T03:50:41Z</time>
   </trkpt>
   <trkpt lat="31.9352150" lon="34.9511780">
    <ele>125.2</ele>
    <time>2018-08-18T03:50:42Z</time>
   </trkpt>
   <trkpt lat="31.9352080" lon="34.9512140">
    <ele>125.4</ele>
    <time>2018-08-18T03:50:43Z</time>
   </trkpt>
   <trkpt lat="31.9352040" lon="34.9512470">
    <ele>125.6</ele>
    <time>2018-08-18T03:50:44Z</time>
   </trkpt>
   <trkpt lat="31.9352000" lon="34.9512800">
    <ele>125.8</ele>
    <time>2018-08-18T03:50:45Z</time>
   </trkpt>
   <trkpt lat="31.9352020" lon="34.9513120">
    <ele>126.0</ele>
    <time>2018-08-18T03:50:46Z</time>
   </trkpt>
   <trkpt lat="31.9352050" lon="34.9513600">
    <ele>126.3</ele>
    <time>2018-08-18T03:50:48Z</time>
   </trkpt>
   <trkpt lat="31.9351950" lon="34.9513900">
    <ele>126.5</ele>
    <time>2018-08-18T03:50:49Z</time>
   </trkpt>
   <trkpt lat="31.9351760" lon="34.9514480">
    <ele>126.9</ele>
    <time>2018-08-18T03:50:51Z</time>
   </trkpt>
   <trkpt lat="31.9351700" lon="34.9515080">
    <ele>127.2</ele>
    <time>2018-08-18T03:50:53Z</time>
   </trkpt>
   <trkpt lat="31.9351660" lon="34.9515400">
    <ele>127.4</ele>
    <time>2018-08-18T03:50:54Z</time>
   </trkpt>
   <trkpt lat="31.9351630" lon="34.9515920">
    <ele>127.6</ele>
    <time>2018-08-18T03:50:56Z</time>
   </trkpt>
   <trkpt lat="31.9351700" lon="34.9516430">
    <ele>127.9</ele>
    <time>2018-08-18T03:50:58Z</time>
   </trkpt>
   <trkpt lat="31.9351620" lon="34.9516920">
    <ele>128.1</ele>
    <time>2018-08-18T03:51:00Z</time>
   </trkpt>
   <trkpt lat="31.9351530" lon="34.9517390">
    <ele>128.3</ele>
    <time>2018-08-18T03:51:02Z</time>
   </trkpt>
   <trkpt lat="31.9351510" lon="34.9517810">
    <ele>128.5</ele>
    <time>2018-08-18T03:51:04Z</time>
   </trkpt>
   <trkpt lat="31.9351450" lon="34.9518170">
    <ele>128.6</ele>
    <time>2018-08-18T03:51:06Z</time>
   </trkpt>
   <trkpt lat="31.9351520" lon="34.9518650">
    <ele>128.8</ele>
    <time>2018-08-18T03:51:08Z</time>
   </trkpt>
   <trkpt lat="31.9351470" lon="34.9519130">
    <ele>128.9</ele>
    <time>2018-08-18T03:51:10Z</time>
   </trkpt>
   <trkpt lat="31.9351350" lon="34.9519590">
    <ele>129.0</ele>
    <time>2018-08-18T03:51:12Z</time>
   </trkpt>
   <trkpt lat="31.9351120" lon="34.9519980">
    <ele>129.1</ele>
    <time>2018-08-18T03:51:14Z</time>
   </trkpt>
   <trkpt lat="31.9350950" lon="34.9520490">
    <ele>129.1</ele>
    <time>2018-08-18T03:51:16Z</time>
   </trkpt>
   <trkpt lat="31.9350750" lon="34.9520920">
    <ele>129.1</ele>
    <time>2018-08-18T03:51:18Z</time>
   </trkpt>
   <trkpt lat="31.9350520" lon="34.9521400">
    <ele>129.2</ele>
    <time>2018-08-18T03:51:20Z</time>
   </trkpt>
   <trkpt lat="31.9350380" lon="34.9521880">
    <ele>129.2</ele>
    <time>2018-08-18T03:51:22Z</time>
   </trkpt>
   <trkpt lat="31.9350240" lon="34.9522550">
    <ele>129.2</ele>
    <time>2018-08-18T03:51:24Z</time>
   </trkpt>
   <trkpt lat="31.9350130" lon="34.9523080">
    <ele>129.2</ele>
    <time>2018-08-18T03:51:26Z</time>
   </trkpt>
   <trkpt lat="31.9350050" lon="34.9523450">
    <ele>129.3</ele>
    <time>2018-08-18T03:51:27Z</time>
   </trkpt>
   <trkpt lat="31.9350000" lon="34.9523810">
    <ele>129.3</ele>
    <time>2018-08-18T03:51:28Z</time>
   </trkpt>
   <trkpt lat="31.9349980" lon="34.9524340">
    <ele>129.3</ele>
    <time>2018-08-18T03:51:30Z</time>
   </trkpt>
   <trkpt lat="31.9349740" lon="34.9524840">
    <ele>129.3</ele>
    <time>2018-08-18T03:51:32Z</time>
   </trkpt>
   <trkpt lat="31.9349460" lon="34.9525260">
    <ele>129.3</ele>
    <time>2018-08-18T03:51:34Z</time>
   </trkpt>
   <trkpt lat="31.9349150" lon="34.9525620">
    <ele>129.3</ele>
    <time>2018-08-18T03:51:36Z</time>
   </trkpt>
   <trkpt lat="31.9348730" lon="34.9525770">
    <ele>129.2</ele>
    <time>2018-08-18T03:51:38Z</time>
   </trkpt>
   <trkpt lat="31.9348260" lon="34.9525910">
    <ele>129.2</ele>
    <time>2018-08-18T03:51:40Z</time>
   </trkpt>
   <trkpt lat="31.9347750" lon="34.9526070">
    <ele>129.2</ele>
    <time>2018-08-18T03:51:42Z</time>
   </trkpt>
   <trkpt lat="31.9347480" lon="34.9526130">
    <ele>129.2</ele>
    <time>2018-08-18T03:51:43Z</time>
   </trkpt>
   <trkpt lat="31.9347210" lon="34.9526200">
    <ele>129.1</ele>
    <time>2018-08-18T03:51:44Z</time>
   </trkpt>
   <trkpt lat="31.9346920" lon="34.9526260">
    <ele>129.1</ele>
    <time>2018-08-18T03:51:45Z</time>
   </trkpt>
   <trkpt lat="31.9346620" lon="34.9526330">
    <ele>129.1</ele>
    <time>2018-08-18T03:51:46Z</time>
   </trkpt>
   <trkpt lat="31.9346340" lon="34.9526440">
    <ele>129.1</ele>
    <time>2018-08-18T03:51:47Z</time>
   </trkpt>
   <trkpt lat="31.9346020" lon="34.9526580">
    <ele>129.0</ele>
    <time>2018-08-18T03:51:48Z</time>
   </trkpt>
   <trkpt lat="31.9345680" lon="34.9526670">
    <ele>129.0</ele>
    <time>2018-08-18T03:51:49Z</time>
   </trkpt>
   <trkpt lat="31.9345340" lon="34.9526760">
    <ele>129.0</ele>
    <time>2018-08-18T03:51:50Z</time>
   </trkpt>
   <trkpt lat="31.9344990" lon="34.9526830">
    <ele>129.0</ele>
    <time>2018-08-18T03:51:51Z</time>
   </trkpt>
   <trkpt lat="31.9344650" lon="34.9526890">
    <ele>129.0</ele>
    <time>2018-08-18T03:51:52Z</time>
   </trkpt>
   <trkpt lat="31.9344270" lon="34.9527000">
    <ele>128.9</ele>
    <time>2018-08-18T03:51:53Z</time>
   </trkpt>
   <trkpt lat="31.9343890" lon="34.9527080">
    <ele>128.9</ele>
    <time>2018-08-18T03:51:54Z</time>
   </trkpt>
   <trkpt lat="31.9343500" lon="34.9527190">
    <ele>128.9</ele>
    <time>2018-08-18T03:51:55Z</time>
   </trkpt>
   <trkpt lat="31.9343090" lon="34.9527310">
    <ele>128.9</ele>
    <time>2018-08-18T03:51:56Z</time>
   </trkpt>
   <trkpt lat="31.9342680" lon="34.9527460">
    <ele>128.9</ele>
    <time>2018-08-18T03:51:57Z</time>
   </trkpt>
   <trkpt lat="31.9342290" lon="34.9527660">
    <ele>128.9</ele>
    <time>2018-08-18T03:51:58Z</time>
   </trkpt>
   <trkpt lat="31.9341920" lon="34.9527880">
    <ele>128.9</ele>
    <time>2018-08-18T03:51:59Z</time>
   </trkpt>
   <trkpt lat="31.9341570" lon="34.9528120">
    <ele>128.9</ele>
    <time>2018-08-18T03:52:00Z</time>
   </trkpt>
   <trkpt lat="31.9341180" lon="34.9528360">
    <ele>128.9</ele>
    <time>2018-08-18T03:52:01Z</time>
   </trkpt>
   <trkpt lat="31.9340820" lon="34.9528610">
    <ele>128.9</ele>
    <time>2018-08-18T03:52:02Z</time>
   </trkpt>
   <trkpt lat="31.9340440" lon="34.9528890">
    <ele>128.9</ele>
    <time>2018-08-18T03:52:03Z</time>
   </trkpt>
   <trkpt lat="31.9340130" lon="34.9529210">
    <ele>128.9</ele>
    <time>2018-08-18T03:52:04Z</time>
   </trkpt>
   <trkpt lat="31.9339880" lon="34.9529480">
    <ele>128.9</ele>
    <time>2018-08-18T03:52:05Z</time>
   </trkpt>
   <trkpt lat="31.9339650" lon="34.9529790">
    <ele>128.9</ele>
    <time>2018-08-18T03:52:06Z</time>
   </trkpt>
   <trkpt lat="31.9339410" lon="34.9530110">
    <ele>128.9</ele>
    <time>2018-08-18T03:52:07Z</time>
   </trkpt>
   <trkpt lat="31.9339170" lon="34.9530410">
    <ele>128.9</ele>
    <time>2018-08-18T03:52:08Z</time>
   </trkpt>
   <trkpt lat="31.9338960" lon="34.9530690">
    <ele>128.9</ele>
    <time>2018-08-18T03:52:09Z</time>
   </trkpt>
   <trkpt lat="31.9338760" lon="34.9530930">
    <ele>128.9</ele>
    <time>2018-08-18T03:52:10Z</time>
   </trkpt>
   <trkpt lat="31.9338540" lon="34.9531120">
    <ele>128.9</ele>
    <time>2018-08-18T03:52:11Z</time>
   </trkpt>
   <trkpt lat="31.9338260" lon="34.9531270">
    <ele>128.9</ele>
    <time>2018-08-18T03:52:12Z</time>
   </trkpt>
   <trkpt lat="31.9337960" lon="34.9531430">
    <ele>128.9</ele>
    <time>2018-08-18T03:52:13Z</time>
   </trkpt>
   <trkpt lat="31.9337670" lon="34.9531550">
    <ele>129.0</ele>
    <time>2018-08-18T03:52:14Z</time>
   </trkpt>
   <trkpt lat="31.9337370" lon="34.9531670">
    <ele>129.0</ele>
    <time>2018-08-18T03:52:15Z</time>
   </trkpt>
   <trkpt lat="31.9337040" lon="34.9531810">
    <ele>129.4</ele>
    <time>2018-08-18T03:52:16Z</time>
   </trkpt>
   <trkpt lat="31.9336740" lon="34.9531920">
    <ele>129.8</ele>
    <time>2018-08-18T03:52:17Z</time>
   </trkpt>
   <trkpt lat="31.9336440" lon="34.9532040">
    <ele>130.2</ele>
    <time>2018-08-18T03:52:18Z</time>
   </trkpt>
   <trkpt lat="31.9336170" lon="34.9532130">
    <ele>130.5</ele>
    <time>2018-08-18T03:52:19Z</time>
   </trkpt>
   <trkpt lat="31.9335870" lon="34.9532220">
    <ele>130.9</ele>
    <time>2018-08-18T03:52:20Z</time>
   </trkpt>
   <trkpt lat="31.9335590" lon="34.9532310">
    <ele>131.3</ele>
    <time>2018-08-18T03:52:21Z</time>
   </trkpt>
   <trkpt lat="31.9335300" lon="34.9532380">
    <ele>131.6</ele>
    <time>2018-08-18T03:52:22Z</time>
   </trkpt>
   <trkpt lat="31.9335000" lon="34.9532470">
    <ele>131.8</ele>
    <time>2018-08-18T03:52:23Z</time>
   </trkpt>
   <trkpt lat="31.9334650" lon="34.9532520">
    <ele>132.1</ele>
    <time>2018-08-18T03:52:24Z</time>
   </trkpt>
   <trkpt lat="31.9334350" lon="34.9532550">
    <ele>132.3</ele>
    <time>2018-08-18T03:52:25Z</time>
   </trkpt>
   <trkpt lat="31.9334050" lon="34.9532580">
    <ele>132.5</ele>
    <time>2018-08-18T03:52:26Z</time>
   </trkpt>
   <trkpt lat="31.9333750" lon="34.9532600">
    <ele>132.7</ele>
    <time>2018-08-18T03:52:27Z</time>
   </trkpt>
   <trkpt lat="31.9333400" lon="34.9532620">
    <ele>132.8</ele>
    <time>2018-08-18T03:52:28Z</time>
   </trkpt>
   <trkpt lat="31.9333080" lon="34.9532640">
    <ele>132.9</ele>
    <time>2018-08-18T03:52:29Z</time>
   </trkpt>
   <trkpt lat="31.9332770" lon="34.9532680">
    <ele>133.0</ele>
    <time>2018-08-18T03:52:30Z</time>
   </trkpt>
   <trkpt lat="31.9332460" lon="34.9532680">
    <ele>133.1</ele>
    <time>2018-08-18T03:52:31Z</time>
   </trkpt>
   <trkpt lat="31.9331970" lon="34.9532710">
    <ele>133.3</ele>
    <time>2018-08-18T03:52:33Z</time>
   </trkpt>
   <trkpt lat="31.9331640" lon="34.9532710">
    <ele>133.5</ele>
    <time>2018-08-18T03:52:34Z</time>
   </trkpt>
   <trkpt lat="31.9331330" lon="34.9532760">
    <ele>133.6</ele>
    <time>2018-08-18T03:52:35Z</time>
   </trkpt>
   <trkpt lat="31.9331030" lon="34.9532780">
    <ele>133.7</ele>
    <time>2018-08-18T03:52:36Z</time>
   </trkpt>
   <trkpt lat="31.9330470" lon="34.9532830">
    <ele>133.9</ele>
    <time>2018-08-18T03:52:38Z</time>
   </trkpt>
   <trkpt lat="31.9330020" lon="34.9532790">
    <ele>133.9</ele>
    <time>2018-08-18T03:52:40Z</time>
   </trkpt>
   <trkpt lat="31.9329500" lon="34.9532810">
    <ele>133.7</ele>
    <time>2018-08-18T03:52:42Z</time>
   </trkpt>
   <trkpt lat="31.9329220" lon="34.9532800">
    <ele>133.6</ele>
    <time>2018-08-18T03:52:43Z</time>
   </trkpt>
   <trkpt lat="31.9328940" lon="34.9532810">
    <ele>133.6</ele>
    <time>2018-08-18T03:52:44Z</time>
   </trkpt>
   <trkpt lat="31.9328650" lon="34.9532850">
    <ele>133.7</ele>
    <time>2018-08-18T03:52:45Z</time>
   </trkpt>
   <trkpt lat="31.9328360" lon="34.9532860">
    <ele>133.8</ele>
    <time>2018-08-18T03:52:46Z</time>
   </trkpt>
   <trkpt lat="31.9328070" lon="34.9532890">
    <ele>134.0</ele>
    <time>2018-08-18T03:52:47Z</time>
   </trkpt>
   <trkpt lat="31.9327780" lon="34.9532880">
    <ele>134.1</ele>
    <time>2018-08-18T03:52:48Z</time>
   </trkpt>
   <trkpt lat="31.9327490" lon="34.9532880">
    <ele>134.3</ele>
    <time>2018-08-18T03:52:49Z</time>
   </trkpt>
   <trkpt lat="31.9327210" lon="34.9532860">
    <ele>134.3</ele>
    <time>2018-08-18T03:52:50Z</time>
   </trkpt>
   <trkpt lat="31.9326940" lon="34.9532820">
    <ele>134.4</ele>
    <time>2018-08-18T03:52:51Z</time>
   </trkpt>
   <trkpt lat="31.9326640" lon="34.9532790">
    <ele>134.3</ele>
    <time>2018-08-18T03:52:52Z</time>
   </trkpt>
   <trkpt lat="31.9326140" lon="34.9532610">
    <ele>134.2</ele>
    <time>2018-08-18T03:52:54Z</time>
   </trkpt>
   <trkpt lat="31.9325740" lon="34.9532320">
    <ele>134.0</ele>
    <time>2018-08-18T03:52:56Z</time>
   </trkpt>
   <trkpt lat="31.9325400" lon="34.9531980">
    <ele>134.0</ele>
    <time>2018-08-18T03:52:58Z</time>
   </trkpt>
   <trkpt lat="31.9325010" lon="34.9531570">
    <ele>135.1</ele>
    <time>2018-08-18T03:53:00Z</time>
   </trkpt>
   <trkpt lat="31.9324800" lon="34.9531290">
    <ele>135.9</ele>
    <time>2018-08-18T03:53:01Z</time>
   </trkpt>
   <trkpt lat="31.9324590" lon="34.9531000">
    <ele>137.0</ele>
    <time>2018-08-18T03:53:02Z</time>
   </trkpt>
   <trkpt lat="31.9324360" lon="34.9530690">
    <ele>137.0</ele>
    <time>2018-08-18T03:53:03Z</time>
   </trkpt>
   <trkpt lat="31.9324180" lon="34.9530420">
    <ele>137.0</ele>
    <time>2018-08-18T03:53:04Z</time>
   </trkpt>
   <trkpt lat="31.9323990" lon="34.9530130">
    <ele>137.0</ele>
    <time>2018-08-18T03:53:05Z</time>
   </trkpt>
   <trkpt lat="31.9323780" lon="34.9529810">
    <ele>137.0</ele>
    <time>2018-08-18T03:53:06Z</time>
   </trkpt>
   <trkpt lat="31.9323530" lon="34.9529470">
    <ele>137.1</ele>
    <time>2018-08-18T03:53:07Z</time>
   </trkpt>
   <trkpt lat="31.9323330" lon="34.9529190">
    <ele>137.1</ele>
    <time>2018-08-18T03:53:08Z</time>
   </trkpt>
   <trkpt lat="31.9323090" lon="34.9528890">
    <ele>137.1</ele>
    <time>2018-08-18T03:53:09Z</time>
   </trkpt>
   <trkpt lat="31.9322830" lon="34.9528540">
    <ele>137.1</ele>
    <time>2018-08-18T03:53:10Z</time>
   </trkpt>
   <trkpt lat="31.9322560" lon="34.9528200">
    <ele>137.1</ele>
    <time>2018-08-18T03:53:11Z</time>
   </trkpt>
   <trkpt lat="31.9322310" lon="34.9527850">
    <ele>137.1</ele>
    <time>2018-08-18T03:53:12Z</time>
   </trkpt>
   <trkpt lat="31.9322040" lon="34.9527490">
    <ele>137.2</ele>
    <time>2018-08-18T03:53:13Z</time>
   </trkpt>
   <trkpt lat="31.9321740" lon="34.9527160">
    <ele>137.3</ele>
    <time>2018-08-18T03:53:14Z</time>
   </trkpt>
   <trkpt lat="31.9321430" lon="34.9526880">
    <ele>137.3</ele>
    <time>2018-08-18T03:53:15Z</time>
   </trkpt>
   <trkpt lat="31.9321080" lon="34.9526540">
    <ele>137.4</ele>
    <time>2018-08-18T03:53:16Z</time>
   </trkpt>
   <trkpt lat="31.9320750" lon="34.9526240">
    <ele>137.5</ele>
    <time>2018-08-18T03:53:17Z</time>
   </trkpt>
   <trkpt lat="31.9320430" lon="34.9525960">
    <ele>137.6</ele>
    <time>2018-08-18T03:53:18Z</time>
   </trkpt>
   <trkpt lat="31.9320000" lon="34.9525680">
    <ele>137.8</ele>
    <time>2018-08-18T03:53:19Z</time>
   </trkpt>
   <trkpt lat="31.9319660" lon="34.9525420">
    <ele>138.1</ele>
    <time>2018-08-18T03:53:20Z</time>
   </trkpt>
   <trkpt lat="31.9319260" lon="34.9525130">
    <ele>138.4</ele>
    <time>2018-08-18T03:53:21Z</time>
   </trkpt>
   <trkpt lat="31.9318910" lon="34.9524910">
    <ele>138.7</ele>
    <time>2018-08-18T03:53:22Z</time>
   </trkpt>
   <trkpt lat="31.9318570" lon="34.9524710">
    <ele>138.9</ele>
    <time>2018-08-18T03:53:23Z</time>
   </trkpt>
   <trkpt lat="31.9318230" lon="34.9524500">
    <ele>139.1</ele>
    <time>2018-08-18T03:53:24Z</time>
   </trkpt>
   <trkpt lat="31.9317890" lon="34.9524310">
    <ele>139.3</ele>
    <time>2018-08-18T03:53:25Z</time>
   </trkpt>
   <trkpt lat="31.9317570" lon="34.9524100">
    <ele>139.5</ele>
    <time>2018-08-18T03:53:26Z</time>
   </trkpt>
   <trkpt lat="31.9317310" lon="34.9523880">
    <ele>139.6</ele>
    <time>2018-08-18T03:53:27Z</time>
   </trkpt>
   <trkpt lat="31.9317050" lon="34.9523670">
    <ele>139.7</ele>
    <time>2018-08-18T03:53:28Z</time>
   </trkpt>
   <trkpt lat="31.9316780" lon="34.9523460">
    <ele>139.8</ele>
    <time>2018-08-18T03:53:29Z</time>
   </trkpt>
   <trkpt lat="31.9316550" lon="34.9523270">
    <ele>139.8</ele>
    <time>2018-08-18T03:53:30Z</time>
   </trkpt>
   <trkpt lat="31.9316300" lon="34.9523050">
    <ele>139.9</ele>
    <time>2018-08-18T03:53:31Z</time>
   </trkpt>
   <trkpt lat="31.9316020" lon="34.9522830">
    <ele>140.0</ele>
    <time>2018-08-18T03:53:32Z</time>
   </trkpt>
   <trkpt lat="31.9315690" lon="34.9522690">
    <ele>140.0</ele>
    <time>2018-08-18T03:53:33Z</time>
   </trkpt>
   <trkpt lat="31.9315340" lon="34.9522590">
    <ele>140.0</ele>
    <time>2018-08-18T03:53:34Z</time>
   </trkpt>
   <trkpt lat="31.9314990" lon="34.9522630">
    <ele>140.0</ele>
    <time>2018-08-18T03:53:35Z</time>
   </trkpt>
   <trkpt lat="31.9314670" lon="34.9522700">
    <ele>140.0</ele>
    <time>2018-08-18T03:53:36Z</time>
   </trkpt>
   <trkpt lat="31.9314350" lon="34.9522810">
    <ele>140.0</ele>
    <time>2018-08-18T03:53:37Z</time>
   </trkpt>
   <trkpt lat="31.9314050" lon="34.9522900">
    <ele>140.0</ele>
    <time>2018-08-18T03:53:38Z</time>
   </trkpt>
   <trkpt lat="31.9313750" lon="34.9522990">
    <ele>140.0</ele>
    <time>2018-08-18T03:53:39Z</time>
   </trkpt>
   <trkpt lat="31.9313260" lon="34.9523120">
    <ele>140.0</ele>
    <time>2018-08-18T03:53:41Z</time>
   </trkpt>
   <trkpt lat="31.9312820" lon="34.9523260">
    <ele>140.1</ele>
    <time>2018-08-18T03:53:43Z</time>
   </trkpt>
   <trkpt lat="31.9312400" lon="34.9523360">
    <ele>140.3</ele>
    <time>2018-08-18T03:53:45Z</time>
   </trkpt>
   <trkpt lat="31.9311950" lon="34.9523410">
    <ele>140.4</ele>
    <time>2018-08-18T03:53:47Z</time>
   </trkpt>
   <trkpt lat="31.9311480" lon="34.9523430">
    <ele>140.6</ele>
    <time>2018-08-18T03:53:49Z</time>
   </trkpt>
   <trkpt lat="31.9311010" lon="34.9523440">
    <ele>140.8</ele>
    <time>2018-08-18T03:53:51Z</time>
   </trkpt>
   <trkpt lat="31.9310650" lon="34.9523450">
    <ele>141.1</ele>
    <time>2018-08-18T03:53:53Z</time>
   </trkpt>
   <trkpt lat="31.9310230" lon="34.9523460">
    <ele>141.6</ele>
    <time>2018-08-18T03:53:56Z</time>
   </trkpt>
   <trkpt lat="31.9309920" lon="34.9523470">
    <ele>141.8</ele>
    <time>2018-08-18T03:53:58Z</time>
   </trkpt>
   <trkpt lat="31.9309590" lon="34.9523520">
    <ele>142.1</ele>
    <time>2018-08-18T03:54:00Z</time>
   </trkpt>
   <trkpt lat="31.9309230" lon="34.9523610">
    <ele>142.2</ele>
    <time>2018-08-18T03:54:03Z</time>
   </trkpt>
   <trkpt lat="31.9309240" lon="34.9523260">
    <ele>142.3</ele>
    <time>2018-08-18T03:55:12Z</time>
   </trkpt>
   <trkpt lat="31.9308900" lon="34.9523380">
    <ele>142.4</ele>
    <time>2018-08-18T03:55:15Z</time>
   </trkpt>
   <trkpt lat="31.9308410" lon="34.9523160">
    <ele>142.7</ele>
    <time>2018-08-18T03:55:17Z</time>
   </trkpt>
   <trkpt lat="31.9307940" lon="34.9522900">
    <ele>143.2</ele>
    <time>2018-08-18T03:55:19Z</time>
   </trkpt>
   <trkpt lat="31.9307440" lon="34.9522820">
    <ele>143.6</ele>
    <time>2018-08-18T03:55:21Z</time>
   </trkpt>
   <trkpt lat="31.9307050" lon="34.9522660">
    <ele>143.9</ele>
    <time>2018-08-18T03:55:23Z</time>
   </trkpt>
   <trkpt lat="31.9306580" lon="34.9522590">
    <ele>144.1</ele>
    <time>2018-08-18T03:55:25Z</time>
   </trkpt>
   <trkpt lat="31.9306150" lon="34.9522700">
    <ele>144.3</ele>
    <time>2018-08-18T03:55:26Z</time>
   </trkpt>
   <trkpt lat="31.9305760" lon="34.9522910">
    <ele>144.5</ele>
    <time>2018-08-18T03:55:28Z</time>
   </trkpt>
   <trkpt lat="31.9305350" lon="34.9522960">
    <ele>144.7</ele>
    <time>2018-08-18T03:55:30Z</time>
   </trkpt>
   <trkpt lat="31.9304950" lon="34.9522880">
    <ele>145.0</ele>
    <time>2018-08-18T03:55:33Z</time>
   </trkpt>
   <trkpt lat="31.9304630" lon="34.9522970">
    <ele>145.4</ele>
    <time>2018-08-18T03:55:35Z</time>
   </trkpt>
   <trkpt lat="31.9304280" lon="34.9523010">
    <ele>145.8</ele>
    <time>2018-08-18T03:55:37Z</time>
   </trkpt>
   <trkpt lat="31.9303980" lon="34.9523100">
    <ele>146.1</ele>
    <time>2018-08-18T03:55:39Z</time>
   </trkpt>
   <trkpt lat="31.9303610" lon="34.9523190">
    <ele>146.5</ele>
    <time>2018-08-18T03:55:41Z</time>
   </trkpt>
   <trkpt lat="31.9303200" lon="34.9523380">
    <ele>146.8</ele>
    <time>2018-08-18T03:55:43Z</time>
   </trkpt>
   <trkpt lat="31.9302640" lon="34.9523510">
    <ele>147.1</ele>
    <time>2018-08-18T03:55:45Z</time>
   </trkpt>
   <trkpt lat="31.9302310" lon="34.9523670">
    <ele>147.5</ele>
    <time>2018-08-18T03:55:46Z</time>
   </trkpt>
   <trkpt lat="31.9301910" lon="34.9523700">
    <ele>148.0</ele>
    <time>2018-08-18T03:55:48Z</time>
   </trkpt>
   <trkpt lat="31.9301520" lon="34.9523690">
    <ele>148.5</ele>
    <time>2018-08-18T03:55:51Z</time>
   </trkpt>
   <trkpt lat="31.9301250" lon="34.9523900">
    <ele>148.7</ele>
    <time>2018-08-18T03:55:53Z</time>
   </trkpt>
   <trkpt lat="31.9300890" lon="34.9524110">
    <ele>149.0</ele>
    <time>2018-08-18T03:55:56Z</time>
   </trkpt>
   <trkpt lat="31.9300480" lon="34.9524060">
    <ele>149.4</ele>
    <time>2018-08-18T03:55:59Z</time>
   </trkpt>
   <trkpt lat="31.9300060" lon="34.9524180">
    <ele>149.9</ele>
    <time>2018-08-18T03:56:02Z</time>
   </trkpt>
   <trkpt lat="31.9299560" lon="34.9524200">
    <ele>150.3</ele>
    <time>2018-08-18T03:56:04Z</time>
   </trkpt>
   <trkpt lat="31.9299090" lon="34.9524210">
    <ele>150.6</ele>
    <time>2018-08-18T03:56:06Z</time>
   </trkpt>
   <trkpt lat="31.9298660" lon="34.9524220">
    <ele>150.7</ele>
    <time>2018-08-18T03:56:08Z</time>
   </trkpt>
   <trkpt lat="31.9298320" lon="34.9524270">
    <ele>150.8</ele>
    <time>2018-08-18T03:56:10Z</time>
   </trkpt>
   <trkpt lat="31.9298040" lon="34.9524220">
    <ele>150.9</ele>
    <time>2018-08-18T03:56:12Z</time>
   </trkpt>
   <trkpt lat="31.9297650" lon="34.9524210">
    <ele>151.1</ele>
    <time>2018-08-18T03:56:15Z</time>
   </trkpt>
   <trkpt lat="31.9297330" lon="34.9524180">
    <ele>151.3</ele>
    <time>2018-08-18T03:56:17Z</time>
   </trkpt>
   <trkpt lat="31.9296930" lon="34.9524300">
    <ele>151.6</ele>
    <time>2018-08-18T03:56:19Z</time>
   </trkpt>
   <trkpt lat="31.9296680" lon="34.9524430">
    <ele>151.8</ele>
    <time>2018-08-18T03:56:20Z</time>
   </trkpt>
   <trkpt lat="31.9296350" lon="34.9524600">
    <ele>152.1</ele>
    <time>2018-08-18T03:56:22Z</time>
   </trkpt>
   <trkpt lat="31.9296050" lon="34.9524780">
    <ele>152.3</ele>
    <time>2018-08-18T03:56:24Z</time>
   </trkpt>
   <trkpt lat="31.9295720" lon="34.9525170">
    <ele>152.4</ele>
    <time>2018-08-18T03:56:26Z</time>
   </trkpt>
   <trkpt lat="31.9295320" lon="34.9525630">
    <ele>152.6</ele>
    <time>2018-08-18T03:56:28Z</time>
   </trkpt>
   <trkpt lat="31.9295240" lon="34.9526090">
    <ele>152.8</ele>
    <time>2018-08-18T03:56:30Z</time>
   </trkpt>
   <trkpt lat="31.9295050" lon="34.9526560">
    <ele>152.9</ele>
    <time>2018-08-18T03:56:32Z</time>
   </trkpt>
   <trkpt lat="31.9294840" lon="34.9527060">
    <ele>153.0</ele>
    <time>2018-08-18T03:56:34Z</time>
   </trkpt>
   <trkpt lat="31.9294680" lon="34.9527530">
    <ele>152.9</ele>
    <time>2018-08-18T03:56:36Z</time>
   </trkpt>
   <trkpt lat="31.9294580" lon="34.9527960">
    <ele>152.7</ele>
    <time>2018-08-18T03:56:38Z</time>
   </trkpt>
   <trkpt lat="31.9294440" lon="34.9528350">
    <ele>152.6</ele>
    <time>2018-08-18T03:56:40Z</time>
   </trkpt>
   <trkpt lat="31.9294240" lon="34.9528990">
    <ele>152.4</ele>
    <time>2018-08-18T03:56:42Z</time>
   </trkpt>
   <trkpt lat="31.9294120" lon="34.9529390">
    <ele>152.3</ele>
    <time>2018-08-18T03:56:43Z</time>
   </trkpt>
   <trkpt lat="31.9293920" lon="34.9529750">
    <ele>152.1</ele>
    <time>2018-08-18T03:56:44Z</time>
   </trkpt>
   <trkpt lat="31.9293980" lon="34.9530120">
    <ele>152.0</ele>
    <time>2018-08-18T03:56:45Z</time>
   </trkpt>
   <trkpt lat="31.9294040" lon="34.9530470">
    <ele>151.9</ele>
    <time>2018-08-18T03:56:46Z</time>
   </trkpt>
   <trkpt lat="31.9294150" lon="34.9530840">
    <ele>151.8</ele>
    <time>2018-08-18T03:56:47Z</time>
   </trkpt>
   <trkpt lat="31.9294220" lon="34.9531320">
    <ele>151.6</ele>
    <time>2018-08-18T03:56:48Z</time>
   </trkpt>
   <trkpt lat="31.9294350" lon="34.9531720">
    <ele>151.4</ele>
    <time>2018-08-18T03:56:49Z</time>
   </trkpt>
   <trkpt lat="31.9294440" lon="34.9532080">
    <ele>151.1</ele>
    <time>2018-08-18T03:56:50Z</time>
   </trkpt>
   <trkpt lat="31.9294390" lon="34.9532690">
    <ele>150.6</ele>
    <time>2018-08-18T03:56:52Z</time>
   </trkpt>
   <trkpt lat="31.9294370" lon="34.9533020">
    <ele>150.2</ele>
    <time>2018-08-18T03:56:53Z</time>
   </trkpt>
   <trkpt lat="31.9294270" lon="34.9533450">
    <ele>149.6</ele>
    <time>2018-08-18T03:56:54Z</time>
   </trkpt>
   <trkpt lat="31.9294190" lon="34.9533940">
    <ele>149.2</ele>
    <time>2018-08-18T03:56:55Z</time>
   </trkpt>
   <trkpt lat="31.9294110" lon="34.9534440">
    <ele>148.7</ele>
    <time>2018-08-18T03:56:56Z</time>
   </trkpt>
   <trkpt lat="31.9294020" lon="34.9534930">
    <ele>148.4</ele>
    <time>2018-08-18T03:56:57Z</time>
   </trkpt>
   <trkpt lat="31.9293920" lon="34.9535420">
    <ele>148.1</ele>
    <time>2018-08-18T03:56:58Z</time>
   </trkpt>
   <trkpt lat="31.9293810" lon="34.9535870">
    <ele>147.8</ele>
    <time>2018-08-18T03:56:59Z</time>
   </trkpt>
   <trkpt lat="31.9293610" lon="34.9536320">
    <ele>147.5</ele>
    <time>2018-08-18T03:57:00Z</time>
   </trkpt>
   <trkpt lat="31.9293370" lon="34.9536780">
    <ele>147.1</ele>
    <time>2018-08-18T03:57:01Z</time>
   </trkpt>
   <trkpt lat="31.9293080" lon="34.9537190">
    <ele>146.8</ele>
    <time>2018-08-18T03:57:02Z</time>
   </trkpt>
   <trkpt lat="31.9292680" lon="34.9537630">
    <ele>146.3</ele>
    <time>2018-08-18T03:57:03Z</time>
   </trkpt>
   <trkpt lat="31.9292260" lon="34.9538070">
    <ele>145.8</ele>
    <time>2018-08-18T03:57:04Z</time>
   </trkpt>
   <trkpt lat="31.9291900" lon="34.9538550">
    <ele>145.1</ele>
    <time>2018-08-18T03:57:05Z</time>
   </trkpt>
   <trkpt lat="31.9291650" lon="34.9539010">
    <ele>144.6</ele>
    <time>2018-08-18T03:57:06Z</time>
   </trkpt>
   <trkpt lat="31.9291440" lon="34.9539470">
    <ele>144.1</ele>
    <time>2018-08-18T03:57:07Z</time>
   </trkpt>
   <trkpt lat="31.9291260" lon="34.9539950">
    <ele>143.6</ele>
    <time>2018-08-18T03:57:08Z</time>
   </trkpt>
   <trkpt lat="31.9291100" lon="34.9540480">
    <ele>143.1</ele>
    <time>2018-08-18T03:57:09Z</time>
   </trkpt>
   <trkpt lat="31.9290930" lon="34.9541000">
    <ele>142.6</ele>
    <time>2018-08-18T03:57:10Z</time>
   </trkpt>
   <trkpt lat="31.9290780" lon="34.9541480">
    <ele>142.2</ele>
    <time>2018-08-18T03:57:11Z</time>
   </trkpt>
   <trkpt lat="31.9290710" lon="34.9541990">
    <ele>141.9</ele>
    <time>2018-08-18T03:57:12Z</time>
   </trkpt>
   <trkpt lat="31.9290710" lon="34.9542540">
    <ele>141.5</ele>
    <time>2018-08-18T03:57:13Z</time>
   </trkpt>
   <trkpt lat="31.9290700" lon="34.9542900">
    <ele>141.3</ele>
    <time>2018-08-18T03:57:14Z</time>
   </trkpt>
   <trkpt lat="31.9290610" lon="34.9543300">
    <ele>140.9</ele>
    <time>2018-08-18T03:57:15Z</time>
   </trkpt>
   <trkpt lat="31.9290420" lon="34.9543670">
    <ele>140.5</ele>
    <time>2018-08-18T03:57:16Z</time>
   </trkpt>
   <trkpt lat="31.9290090" lon="34.9544100">
    <ele>140.0</ele>
    <time>2018-08-18T03:57:17Z</time>
   </trkpt>
   <trkpt lat="31.9289750" lon="34.9544500">
    <ele>139.8</ele>
    <time>2018-08-18T03:57:18Z</time>
   </trkpt>
   <trkpt lat="31.9289460" lon="34.9544990">
    <ele>139.5</ele>
    <time>2018-08-18T03:57:19Z</time>
   </trkpt>
   <trkpt lat="31.9289220" lon="34.9545490">
    <ele>139.2</ele>
    <time>2018-08-18T03:57:20Z</time>
   </trkpt>
   <trkpt lat="31.9288990" lon="34.9546080">
    <ele>139.0</ele>
    <time>2018-08-18T03:57:21Z</time>
   </trkpt>
   <trkpt lat="31.9288710" lon="34.9546660">
    <ele>138.8</ele>
    <time>2018-08-18T03:57:22Z</time>
   </trkpt>
   <trkpt lat="31.9288390" lon="34.9547200">
    <ele>138.7</ele>
    <time>2018-08-18T03:57:23Z</time>
   </trkpt>
   <trkpt lat="31.9288070" lon="34.9547700">
    <ele>138.6</ele>
    <time>2018-08-18T03:57:24Z</time>
   </trkpt>
   <trkpt lat="31.9287770" lon="34.9548240">
    <ele>138.5</ele>
    <time>2018-08-18T03:57:25Z</time>
   </trkpt>
   <trkpt lat="31.9287470" lon="34.9548810">
    <ele>138.4</ele>
    <time>2018-08-18T03:57:26Z</time>
   </trkpt>
   <trkpt lat="31.9287180" lon="34.9549360">
    <ele>138.3</ele>
    <time>2018-08-18T03:57:27Z</time>
   </trkpt>
   <trkpt lat="31.9286930" lon="34.9549830">
    <ele>138.2</ele>
    <time>2018-08-18T03:57:28Z</time>
   </trkpt>
   <trkpt lat="31.9286750" lon="34.9550220">
    <ele>138.2</ele>
    <time>2018-08-18T03:57:29Z</time>
   </trkpt>
   <trkpt lat="31.9286550" lon="34.9550540">
    <ele>138.1</ele>
    <time>2018-08-18T03:57:30Z</time>
   </trkpt>
   <trkpt lat="31.9286360" lon="34.9550770">
    <ele>138.0</ele>
    <time>2018-08-18T03:57:31Z</time>
   </trkpt>
   <trkpt lat="31.9285780" lon="34.9550930">
    <ele>137.8</ele>
    <time>2018-08-18T03:57:33Z</time>
   </trkpt>
   <trkpt lat="31.9285420" lon="34.9550970">
    <ele>137.6</ele>
    <time>2018-08-18T03:57:34Z</time>
   </trkpt>
   <trkpt lat="31.9285040" lon="34.9550920">
    <ele>137.4</ele>
    <time>2018-08-18T03:57:35Z</time>
   </trkpt>
   <trkpt lat="31.9284800" lon="34.9550720">
    <ele>137.3</ele>
    <time>2018-08-18T03:57:36Z</time>
   </trkpt>
   <trkpt lat="31.9284610" lon="34.9550380">
    <ele>136.9</ele>
    <time>2018-08-18T03:57:37Z</time>
   </trkpt>
   <trkpt lat="31.9284490" lon="34.9550080">
    <ele>136.9</ele>
    <time>2018-08-18T03:57:38Z</time>
   </trkpt>
   <trkpt lat="31.9284220" lon="34.9549720">
    <ele>136.8</ele>
    <time>2018-08-18T03:57:39Z</time>
   </trkpt>
   <trkpt lat="31.9283980" lon="34.9549390">
    <ele>136.8</ele>
    <time>2018-08-18T03:57:40Z</time>
   </trkpt>
   <trkpt lat="31.9283750" lon="34.9548990">
    <ele>136.7</ele>
    <time>2018-08-18T03:57:41Z</time>
   </trkpt>
   <trkpt lat="31.9283580" lon="34.9548620">
    <ele>136.7</ele>
    <time>2018-08-18T03:57:42Z</time>
   </trkpt>
   <trkpt lat="31.9283450" lon="34.9548240">
    <ele>136.6</ele>
    <time>2018-08-18T03:57:43Z</time>
   </trkpt>
   <trkpt lat="31.9283370" lon="34.9547910">
    <ele>136.6</ele>
    <time>2018-08-18T03:57:44Z</time>
   </trkpt>
   <trkpt lat="31.9283280" lon="34.9547550">
    <ele>136.6</ele>
    <time>2018-08-18T03:57:45Z</time>
   </trkpt>
   <trkpt lat="31.9283180" lon="34.9547200">
    <ele>136.5</ele>
    <time>2018-08-18T03:57:46Z</time>
   </trkpt>
   <trkpt lat="31.9283080" lon="34.9546840">
    <ele>136.5</ele>
    <time>2018-08-18T03:57:47Z</time>
   </trkpt>
   <trkpt lat="31.9282950" lon="34.9546420">
    <ele>136.5</ele>
    <time>2018-08-18T03:57:48Z</time>
   </trkpt>
   <trkpt lat="31.9282830" lon="34.9546020">
    <ele>136.4</ele>
    <time>2018-08-18T03:57:49Z</time>
   </trkpt>
   <trkpt lat="31.9282650" lon="34.9545630">
    <ele>136.4</ele>
    <time>2018-08-18T03:57:50Z</time>
   </trkpt>
   <trkpt lat="31.9282460" lon="34.9545290">
    <ele>136.4</ele>
    <time>2018-08-18T03:57:51Z</time>
   </trkpt>
   <trkpt lat="31.9282210" lon="34.9544940">
    <ele>136.3</ele>
    <time>2018-08-18T03:57:52Z</time>
   </trkpt>
   <trkpt lat="31.9281980" lon="34.9544610">
    <ele>136.3</ele>
    <time>2018-08-18T03:57:53Z</time>
   </trkpt>
   <trkpt lat="31.9281720" lon="34.9544280">
    <ele>136.2</ele>
    <time>2018-08-18T03:57:54Z</time>
   </trkpt>
   <trkpt lat="31.9281460" lon="34.9543930">
    <ele>136.2</ele>
    <time>2018-08-18T03:57:55Z</time>
   </trkpt>
   <trkpt lat="31.9281200" lon="34.9543580">
    <ele>136.1</ele>
    <time>2018-08-18T03:57:56Z</time>
   </trkpt>
   <trkpt lat="31.9280940" lon="34.9543230">
    <ele>136.1</ele>
    <time>2018-08-18T03:57:57Z</time>
   </trkpt>
   <trkpt lat="31.9280700" lon="34.9542900">
    <ele>136.0</ele>
    <time>2018-08-18T03:57:58Z</time>
   </trkpt>
   <trkpt lat="31.9280470" lon="34.9542550">
    <ele>135.9</ele>
    <time>2018-08-18T03:57:59Z</time>
   </trkpt>
   <trkpt lat="31.9280250" lon="34.9542200">
    <ele>135.9</ele>
    <time>2018-08-18T03:58:00Z</time>
   </trkpt>
   <trkpt lat="31.9280020" lon="34.9541870">
    <ele>135.8</ele>
    <time>2018-08-18T03:58:01Z</time>
   </trkpt>
   <trkpt lat="31.9279780" lon="34.9541580">
    <ele>135.7</ele>
    <time>2018-08-18T03:58:02Z</time>
   </trkpt>
   <trkpt lat="31.9279530" lon="34.9541300">
    <ele>135.6</ele>
    <time>2018-08-18T03:58:03Z</time>
   </trkpt>
   <trkpt lat="31.9279310" lon="34.9541010">
    <ele>135.5</ele>
    <time>2018-08-18T03:58:04Z</time>
   </trkpt>
   <trkpt lat="31.9279060" lon="34.9540700">
    <ele>135.4</ele>
    <time>2018-08-18T03:58:05Z</time>
   </trkpt>
   <trkpt lat="31.9278830" lon="34.9540400">
    <ele>135.3</ele>
    <time>2018-08-18T03:58:06Z</time>
   </trkpt>
   <trkpt lat="31.9278590" lon="34.9540090">
    <ele>135.1</ele>
    <time>2018-08-18T03:58:07Z</time>
   </trkpt>
   <trkpt lat="31.9278360" lon="34.9539770">
    <ele>134.8</ele>
    <time>2018-08-18T03:58:08Z</time>
   </trkpt>
   <trkpt lat="31.9278140" lon="34.9539470">
    <ele>134.3</ele>
    <time>2018-08-18T03:58:09Z</time>
   </trkpt>
   <trkpt lat="31.9277940" lon="34.9539140">
    <ele>133.9</ele>
    <time>2018-08-18T03:58:10Z</time>
   </trkpt>
   <trkpt lat="31.9277740" lon="34.9538820">
    <ele>133.7</ele>
    <time>2018-08-18T03:58:11Z</time>
   </trkpt>
   <trkpt lat="31.9277550" lon="34.9538540">
    <ele>133.4</ele>
    <time>2018-08-18T03:58:12Z</time>
   </trkpt>
   <trkpt lat="31.9277230" lon="34.9538060">
    <ele>133.1</ele>
    <time>2018-08-18T03:58:14Z</time>
   </trkpt>
   <trkpt lat="31.9277010" lon="34.9537830">
    <ele>132.9</ele>
    <time>2018-08-18T03:58:15Z</time>
   </trkpt>
   <trkpt lat="31.9276780" lon="34.9537620">
    <ele>132.7</ele>
    <time>2018-08-18T03:58:16Z</time>
   </trkpt>
   <trkpt lat="31.9276520" lon="34.9537410">
    <ele>132.4</ele>
    <time>2018-08-18T03:58:17Z</time>
   </trkpt>
   <trkpt lat="31.9276190" lon="34.9537210">
    <ele>132.1</ele>
    <time>2018-08-18T03:58:18Z</time>
   </trkpt>
   <trkpt lat="31.9275860" lon="34.9537010">
    <ele>131.5</ele>
    <time>2018-08-18T03:58:19Z</time>
   </trkpt>
   <trkpt lat="31.9275460" lon="34.9536800">
    <ele>130.9</ele>
    <time>2018-08-18T03:58:20Z</time>
   </trkpt>
   <trkpt lat="31.9275060" lon="34.9536590">
    <ele>130.3</ele>
    <time>2018-08-18T03:58:21Z</time>
   </trkpt>
   <trkpt lat="31.9274620" lon="34.9536360">
    <ele>130.1</ele>
    <time>2018-08-18T03:58:22Z</time>
   </trkpt>
   <trkpt lat="31.9274160" lon="34.9536130">
    <ele>129.9</ele>
    <time>2018-08-18T03:58:23Z</time>
   </trkpt>
   <trkpt lat="31.9273670" lon="34.9535880">
    <ele>129.7</ele>
    <time>2018-08-18T03:58:24Z</time>
   </trkpt>
   <trkpt lat="31.9273170" lon="34.9535610">
    <ele>129.5</ele>
    <time>2018-08-18T03:58:25Z</time>
   </trkpt>
   <trkpt lat="31.9272660" lon="34.9535340">
    <ele>129.3</ele>
    <time>2018-08-18T03:58:26Z</time>
   </trkpt>
   <trkpt lat="31.9272160" lon="34.9535060">
    <ele>129.2</ele>
    <time>2018-08-18T03:58:27Z</time>
   </trkpt>
   <trkpt lat="31.9271660" lon="34.9534760">
    <ele>129.1</ele>
    <time>2018-08-18T03:58:28Z</time>
   </trkpt>
   <trkpt lat="31.9271140" lon="34.9534490">
    <ele>128.9</ele>
    <time>2018-08-18T03:58:29Z</time>
   </trkpt>
   <trkpt lat="31.9270610" lon="34.9534250">
    <ele>128.8</ele>
    <time>2018-08-18T03:58:30Z</time>
   </trkpt>
   <trkpt lat="31.9270070" lon="34.9534010">
    <ele>128.7</ele>
    <time>2018-08-18T03:58:31Z</time>
   </trkpt>
   <trkpt lat="31.9269550" lon="34.9533780">
    <ele>128.4</ele>
    <time>2018-08-18T03:58:32Z</time>
   </trkpt>
   <trkpt lat="31.9269030" lon="34.9533550">
    <ele>128.0</ele>
    <time>2018-08-18T03:58:33Z</time>
   </trkpt>
   <trkpt lat="31.9268500" lon="34.9533340">
    <ele>127.7</ele>
    <time>2018-08-18T03:58:34Z</time>
   </trkpt>
   <trkpt lat="31.9268010" lon="34.9533180">
    <ele>127.6</ele>
    <time>2018-08-18T03:58:35Z</time>
   </trkpt>
   <trkpt lat="31.9267470" lon="34.9533080">
    <ele>127.4</ele>
    <time>2018-08-18T03:58:36Z</time>
   </trkpt>
   <trkpt lat="31.9266950" lon="34.9533010">
    <ele>127.3</ele>
    <time>2018-08-18T03:58:37Z</time>
   </trkpt>
   <trkpt lat="31.9266450" lon="34.9533030">
    <ele>127.2</ele>
    <time>2018-08-18T03:58:38Z</time>
   </trkpt>
   <trkpt lat="31.9265960" lon="34.9533070">
    <ele>127.1</ele>
    <time>2018-08-18T03:58:39Z</time>
   </trkpt>
   <trkpt lat="31.9265470" lon="34.9533160">
    <ele>126.9</ele>
    <time>2018-08-18T03:58:40Z</time>
   </trkpt>
   <trkpt lat="31.9264960" lon="34.9533340">
    <ele>126.4</ele>
    <time>2018-08-18T03:58:41Z</time>
   </trkpt>
   <trkpt lat="31.9264500" lon="34.9533500">
    <ele>126.0</ele>
    <time>2018-08-18T03:58:42Z</time>
   </trkpt>
   <trkpt lat="31.9264030" lon="34.9533730">
    <ele>125.8</ele>
    <time>2018-08-18T03:58:43Z</time>
   </trkpt>
   <trkpt lat="31.9263550" lon="34.9533970">
    <ele>125.6</ele>
    <time>2018-08-18T03:58:44Z</time>
   </trkpt>
   <trkpt lat="31.9263120" lon="34.9534200">
    <ele>125.3</ele>
    <time>2018-08-18T03:58:45Z</time>
   </trkpt>
   <trkpt lat="31.9262670" lon="34.9534420">
    <ele>124.7</ele>
    <time>2018-08-18T03:58:46Z</time>
   </trkpt>
   <trkpt lat="31.9262140" lon="34.9534630">
    <ele>124.1</ele>
    <time>2018-08-18T03:58:47Z</time>
   </trkpt>
   <trkpt lat="31.9261630" lon="34.9534860">
    <ele>123.8</ele>
    <time>2018-08-18T03:58:48Z</time>
   </trkpt>
   <trkpt lat="31.9261120" lon="34.9535080">
    <ele>123.6</ele>
    <time>2018-08-18T03:58:49Z</time>
   </trkpt>
   <trkpt lat="31.9260590" lon="34.9535310">
    <ele>123.3</ele>
    <time>2018-08-18T03:58:50Z</time>
   </trkpt>
   <trkpt lat="31.9260040" lon="34.9535550">
    <ele>122.9</ele>
    <time>2018-08-18T03:58:51Z</time>
   </trkpt>
   <trkpt lat="31.9259470" lon="34.9535770">
    <ele>122.3</ele>
    <time>2018-08-18T03:58:52Z</time>
   </trkpt>
   <trkpt lat="31.9258940" lon="34.9535970">
    <ele>122.0</ele>
    <time>2018-08-18T03:58:53Z</time>
   </trkpt>
   <trkpt lat="31.9258430" lon="34.9536070">
    <ele>121.8</ele>
    <time>2018-08-18T03:58:54Z</time>
   </trkpt>
   <trkpt lat="31.9257990" lon="34.9536150">
    <ele>121.4</ele>
    <time>2018-08-18T03:58:55Z</time>
   </trkpt>
   <trkpt lat="31.9257470" lon="34.9536200">
    <ele>120.8</ele>
    <time>2018-08-18T03:58:56Z</time>
   </trkpt>
   <trkpt lat="31.9256980" lon="34.9536110">
    <ele>120.5</ele>
    <time>2018-08-18T03:58:57Z</time>
   </trkpt>
   <trkpt lat="31.9256540" lon="34.9535980">
    <ele>120.2</ele>
    <time>2018-08-18T03:58:58Z</time>
   </trkpt>
   <trkpt lat="31.9256080" lon="34.9535790">
    <ele>119.9</ele>
    <time>2018-08-18T03:58:59Z</time>
   </trkpt>
   <trkpt lat="31.9255700" lon="34.9535550">
    <ele>119.7</ele>
    <time>2018-08-18T03:59:00Z</time>
   </trkpt>
   <trkpt lat="31.9255300" lon="34.9535290">
    <ele>119.4</ele>
    <time>2018-08-18T03:59:01Z</time>
   </trkpt>
   <trkpt lat="31.9254890" lon="34.9535030">
    <ele>118.9</ele>
    <time>2018-08-18T03:59:02Z</time>
   </trkpt>
   <trkpt lat="31.9254490" lon="34.9534800">
    <ele>117.6</ele>
    <time>2018-08-18T03:59:03Z</time>
   </trkpt>
   <trkpt lat="31.9254120" lon="34.9534570">
    <ele>117.4</ele>
    <time>2018-08-18T03:59:04Z</time>
   </trkpt>
   <trkpt lat="31.9253800" lon="34.9534350">
    <ele>117.2</ele>
    <time>2018-08-18T03:59:05Z</time>
   </trkpt>
   <trkpt lat="31.9253580" lon="34.9534120">
    <ele>117.0</ele>
    <time>2018-08-18T03:59:06Z</time>
   </trkpt>
   <trkpt lat="31.9253420" lon="34.9533760">
    <ele>116.7</ele>
    <time>2018-08-18T03:59:07Z</time>
   </trkpt>
   <trkpt lat="31.9253300" lon="34.9533370">
    <ele>116.4</ele>
    <time>2018-08-18T03:59:08Z</time>
   </trkpt>
   <trkpt lat="31.9253200" lon="34.9532920">
    <ele>116.1</ele>
    <time>2018-08-18T03:59:09Z</time>
   </trkpt>
   <trkpt lat="31.9253140" lon="34.9532370">
    <ele>115.9</ele>
    <time>2018-08-18T03:59:10Z</time>
   </trkpt>
   <trkpt lat="31.9253070" lon="34.9531840">
    <ele>115.8</ele>
    <time>2018-08-18T03:59:11Z</time>
   </trkpt>
   <trkpt lat="31.9252990" lon="34.9531300">
    <ele>115.7</ele>
    <time>2018-08-18T03:59:12Z</time>
   </trkpt>
   <trkpt lat="31.9252930" lon="34.9530780">
    <ele>115.6</ele>
    <time>2018-08-18T03:59:13Z</time>
   </trkpt>
   <trkpt lat="31.9252880" lon="34.9530210">
    <ele>115.4</ele>
    <time>2018-08-18T03:59:14Z</time>
   </trkpt>
   <trkpt lat="31.9252820" lon="34.9529640">
    <ele>115.3</ele>
    <time>2018-08-18T03:59:15Z</time>
   </trkpt>
   <trkpt lat="31.9252700" lon="34.9528980">
    <ele>115.1</ele>
    <time>2018-08-18T03:59:16Z</time>
   </trkpt>
   <trkpt lat="31.9252610" lon="34.9528360">
    <ele>114.9</ele>
    <time>2018-08-18T03:59:17Z</time>
   </trkpt>
   <trkpt lat="31.9252520" lon="34.9527660">
    <ele>114.7</ele>
    <time>2018-08-18T03:59:18Z</time>
   </trkpt>
   <trkpt lat="31.9252460" lon="34.9526960">
    <ele>114.3</ele>
    <time>2018-08-18T03:59:19Z</time>
   </trkpt>
   <trkpt lat="31.9252370" lon="34.9526280">
    <ele>113.8</ele>
    <time>2018-08-18T03:59:20Z</time>
   </trkpt>
   <trkpt lat="31.9252270" lon="34.9525610">
    <ele>113.3</ele>
    <time>2018-08-18T03:59:21Z</time>
   </trkpt>
   <trkpt lat="31.9252170" lon="34.9524930">
    <ele>113.1</ele>
    <time>2018-08-18T03:59:22Z</time>
   </trkpt>
   <trkpt lat="31.9252100" lon="34.9524230">
    <ele>113.0</ele>
    <time>2018-08-18T03:59:23Z</time>
   </trkpt>
   <trkpt lat="31.9251990" lon="34.9523540">
    <ele>112.8</ele>
    <time>2018-08-18T03:59:24Z</time>
   </trkpt>
   <trkpt lat="31.9251900" lon="34.9522830">
    <ele>112.6</ele>
    <time>2018-08-18T03:59:25Z</time>
   </trkpt>
   <trkpt lat="31.9251800" lon="34.9522120">
    <ele>112.5</ele>
    <time>2018-08-18T03:59:26Z</time>
   </trkpt>
   <trkpt lat="31.9251690" lon="34.9521380">
    <ele>112.4</ele>
    <time>2018-08-18T03:59:27Z</time>
   </trkpt>
   <trkpt lat="31.9251600" lon="34.9520620">
    <ele>112.2</ele>
    <time>2018-08-18T03:59:28Z</time>
   </trkpt>
   <trkpt lat="31.9251500" lon="34.9519850">
    <ele>112.1</ele>
    <time>2018-08-18T03:59:29Z</time>
   </trkpt>
   <trkpt lat="31.9251460" lon="34.9519050">
    <ele>111.9</ele>
    <time>2018-08-18T03:59:30Z</time>
   </trkpt>
   <trkpt lat="31.9251380" lon="34.9518250">
    <ele>111.7</ele>
    <time>2018-08-18T03:59:31Z</time>
   </trkpt>
   <trkpt lat="31.9251260" lon="34.9517460">
    <ele>111.2</ele>
    <time>2018-08-18T03:59:32Z</time>
   </trkpt>
   <trkpt lat="31.9251070" lon="34.9516700">
    <ele>110.6</ele>
    <time>2018-08-18T03:59:33Z</time>
   </trkpt>
   <trkpt lat="31.9250950" lon="34.9515920">
    <ele>110.1</ele>
    <time>2018-08-18T03:59:34Z</time>
   </trkpt>
   <trkpt lat="31.9250820" lon="34.9515140">
    <ele>109.8</ele>
    <time>2018-08-18T03:59:35Z</time>
   </trkpt>
   <trkpt lat="31.9250710" lon="34.9514370">
    <ele>109.7</ele>
    <time>2018-08-18T03:59:36Z</time>
   </trkpt>
   <trkpt lat="31.9250580" lon="34.9513620">
    <ele>109.6</ele>
    <time>2018-08-18T03:59:37Z</time>
   </trkpt>
   <trkpt lat="31.9250440" lon="34.9512890">
    <ele>109.5</ele>
    <time>2018-08-18T03:59:38Z</time>
   </trkpt>
   <trkpt lat="31.9250310" lon="34.9512180">
    <ele>109.4</ele>
    <time>2018-08-18T03:59:39Z</time>
   </trkpt>
   <trkpt lat="31.9250200" lon="34.9511460">
    <ele>109.4</ele>
    <time>2018-08-18T03:59:40Z</time>
   </trkpt>
   <trkpt lat="31.9250090" lon="34.9510770">
    <ele>109.3</ele>
    <time>2018-08-18T03:59:41Z</time>
   </trkpt>
   <trkpt lat="31.9249990" lon="34.9510070">
    <ele>109.3</ele>
    <time>2018-08-18T03:59:42Z</time>
   </trkpt>
   <trkpt lat="31.9249870" lon="34.9509400">
    <ele>109.2</ele>
    <time>2018-08-18T03:59:43Z</time>
   </trkpt>
   <trkpt lat="31.9249760" lon="34.9508740">
    <ele>109.2</ele>
    <time>2018-08-18T03:59:44Z</time>
   </trkpt>
   <trkpt lat="31.9249660" lon="34.9508100">
    <ele>109.1</ele>
    <time>2018-08-18T03:59:45Z</time>
   </trkpt>
   <trkpt lat="31.9249540" lon="34.9507460">
    <ele>109.1</ele>
    <time>2018-08-18T03:59:46Z</time>
   </trkpt>
   <trkpt lat="31.9249390" lon="34.9506840">
    <ele>109.0</ele>
    <time>2018-08-18T03:59:47Z</time>
   </trkpt>
   <trkpt lat="31.9249240" lon="34.9506220">
    <ele>109.0</ele>
    <time>2018-08-18T03:59:48Z</time>
   </trkpt>
   <trkpt lat="31.9249100" lon="34.9505600">
    <ele>109.0</ele>
    <time>2018-08-18T03:59:49Z</time>
   </trkpt>
   <trkpt lat="31.9248970" lon="34.9504970">
    <ele>108.9</ele>
    <time>2018-08-18T03:59:50Z</time>
   </trkpt>
   <trkpt lat="31.9248840" lon="34.9504340">
    <ele>108.9</ele>
    <time>2018-08-18T03:59:51Z</time>
   </trkpt>
   <trkpt lat="31.9248730" lon="34.9503710">
    <ele>108.8</ele>
    <time>2018-08-18T03:59:52Z</time>
   </trkpt>
   <trkpt lat="31.9248640" lon="34.9503090">
    <ele>108.8</ele>
    <time>2018-08-18T03:59:53Z</time>
   </trkpt>
   <trkpt lat="31.9248530" lon="34.9502470">
    <ele>108.7</ele>
    <time>2018-08-18T03:59:54Z</time>
   </trkpt>
   <trkpt lat="31.9248440" lon="34.9501880">
    <ele>108.7</ele>
    <time>2018-08-18T03:59:55Z</time>
   </trkpt>
   <trkpt lat="31.9248380" lon="34.9501290">
    <ele>108.6</ele>
    <time>2018-08-18T03:59:56Z</time>
   </trkpt>
   <trkpt lat="31.9248360" lon="34.9500660">
    <ele>108.5</ele>
    <time>2018-08-18T03:59:57Z</time>
   </trkpt>
   <trkpt lat="31.9248330" lon="34.9500040">
    <ele>108.4</ele>
    <time>2018-08-18T03:59:58Z</time>
   </trkpt>
   <trkpt lat="31.9248320" lon="34.9499410">
    <ele>108.3</ele>
    <time>2018-08-18T03:59:59Z</time>
   </trkpt>
   <trkpt lat="31.9248340" lon="34.9498800">
    <ele>108.1</ele>
    <time>2018-08-18T04:00:00Z</time>
   </trkpt>
   <trkpt lat="31.9248390" lon="34.9498180">
    <ele>107.7</ele>
    <time>2018-08-18T04:00:01Z</time>
   </trkpt>
   <trkpt lat="31.9248410" lon="34.9497620">
    <ele>107.3</ele>
    <time>2018-08-18T04:00:02Z</time>
   </trkpt>
   <trkpt lat="31.9248390" lon="34.9497140">
    <ele>107.1</ele>
    <time>2018-08-18T04:00:03Z</time>
   </trkpt>
   <trkpt lat="31.9248360" lon="34.9496770">
    <ele>107.0</ele>
    <time>2018-08-18T04:00:04Z</time>
   </trkpt>
   <trkpt lat="31.9248310" lon="34.9496450">
    <ele>106.9</ele>
    <time>2018-08-18T04:00:05Z</time>
   </trkpt>
   <trkpt lat="31.9248230" lon="34.9496130">
    <ele>106.9</ele>
    <time>2018-08-18T04:00:06Z</time>
   </trkpt>
   <trkpt lat="31.9248080" lon="34.9495750">
    <ele>106.8</ele>
    <time>2018-08-18T04:00:07Z</time>
   </trkpt>
   <trkpt lat="31.9247910" lon="34.9495340">
    <ele>106.7</ele>
    <time>2018-08-18T04:00:08Z</time>
   </trkpt>
   <trkpt lat="31.9247730" lon="34.9494910">
    <ele>106.6</ele>
    <time>2018-08-18T04:00:09Z</time>
   </trkpt>
   <trkpt lat="31.9247530" lon="34.9494400">
    <ele>106.5</ele>
    <time>2018-08-18T04:00:10Z</time>
   </trkpt>
   <trkpt lat="31.9247340" lon="34.9493910">
    <ele>106.4</ele>
    <time>2018-08-18T04:00:11Z</time>
   </trkpt>
   <trkpt lat="31.9247130" lon="34.9493430">
    <ele>106.4</ele>
    <time>2018-08-18T04:00:12Z</time>
   </trkpt>
   <trkpt lat="31.9246950" lon="34.9492950">
    <ele>106.3</ele>
    <time>2018-08-18T04:00:13Z</time>
   </trkpt>
   <trkpt lat="31.9246730" lon="34.9492520">
    <ele>106.2</ele>
    <time>2018-08-18T04:00:14Z</time>
   </trkpt>
   <trkpt lat="31.9246550" lon="34.9492210">
    <ele>106.4</ele>
    <time>2018-08-18T04:00:15Z</time>
   </trkpt>
   <trkpt lat="31.9246280" lon="34.9491940">
    <ele>106.6</ele>
    <time>2018-08-18T04:00:16Z</time>
   </trkpt>
   <trkpt lat="31.9245960" lon="34.9491720">
    <ele>106.8</ele>
    <time>2018-08-18T04:00:17Z</time>
   </trkpt>
   <trkpt lat="31.9245630" lon="34.9491580">
    <ele>107.0</ele>
    <time>2018-08-18T04:00:18Z</time>
   </trkpt>
   <trkpt lat="31.9245270" lon="34.9491530">
    <ele>107.2</ele>
    <time>2018-08-18T04:00:19Z</time>
   </trkpt>
   <trkpt lat="31.9244860" lon="34.9491530">
    <ele>107.4</ele>
    <time>2018-08-18T04:00:20Z</time>
   </trkpt>
   <trkpt lat="31.9244440" lon="34.9491670">
    <ele>107.6</ele>
    <time>2018-08-18T04:00:21Z</time>
   </trkpt>
   <trkpt lat="31.9244000" lon="34.9491910">
    <ele>107.8</ele>
    <time>2018-08-18T04:00:22Z</time>
   </trkpt>
   <trkpt lat="31.9243590" lon="34.9492270">
    <ele>108.2</ele>
    <time>2018-08-18T04:00:23Z</time>
   </trkpt>
   <trkpt lat="31.9243190" lon="34.9492650">
    <ele>108.6</ele>
    <time>2018-08-18T04:00:24Z</time>
   </trkpt>
   <trkpt lat="31.9242820" lon="34.9493030">
    <ele>109.0</ele>
    <time>2018-08-18T04:00:25Z</time>
   </trkpt>
   <trkpt lat="31.9242450" lon="34.9493380">
    <ele>109.5</ele>
    <time>2018-08-18T04:00:26Z</time>
   </trkpt>
   <trkpt lat="31.9242060" lon="34.9493710">
    <ele>109.9</ele>
    <time>2018-08-18T04:00:27Z</time>
   </trkpt>
   <trkpt lat="31.9241670" lon="34.9494030">
    <ele>110.4</ele>
    <time>2018-08-18T04:00:28Z</time>
   </trkpt>
   <trkpt lat="31.9241270" lon="34.9494330">
    <ele>110.8</ele>
    <time>2018-08-18T04:00:29Z</time>
   </trkpt>
   <trkpt lat="31.9240870" lon="34.9494620">
    <ele>111.1</ele>
    <time>2018-08-18T04:00:30Z</time>
   </trkpt>
   <trkpt lat="31.9240450" lon="34.9494920">
    <ele>111.5</ele>
    <time>2018-08-18T04:00:31Z</time>
   </trkpt>
   <trkpt lat="31.9240040" lon="34.9495180">
    <ele>111.8</ele>
    <time>2018-08-18T04:00:32Z</time>
   </trkpt>
   <trkpt lat="31.9239610" lon="34.9495430">
    <ele>112.3</ele>
    <time>2018-08-18T04:00:33Z</time>
   </trkpt>
   <trkpt lat="31.9239160" lon="34.9495650">
    <ele>112.8</ele>
    <time>2018-08-18T04:00:34Z</time>
   </trkpt>
   <trkpt lat="31.9238720" lon="34.9495800">
    <ele>113.1</ele>
    <time>2018-08-18T04:00:35Z</time>
   </trkpt>
   <trkpt lat="31.9238320" lon="34.9495900">
    <ele>113.5</ele>
    <time>2018-08-18T04:00:36Z</time>
   </trkpt>
   <trkpt lat="31.9237900" lon="34.9496030">
    <ele>113.8</ele>
    <time>2018-08-18T04:00:37Z</time>
   </trkpt>
   <trkpt lat="31.9237530" lon="34.9496180">
    <ele>114.1</ele>
    <time>2018-08-18T04:00:38Z</time>
   </trkpt>
   <trkpt lat="31.9237130" lon="34.9496330">
    <ele>114.3</ele>
    <time>2018-08-18T04:00:39Z</time>
   </trkpt>
   <trkpt lat="31.9236740" lon="34.9496460">
    <ele>114.6</ele>
    <time>2018-08-18T04:00:40Z</time>
   </trkpt>
   <trkpt lat="31.9236360" lon="34.9496570">
    <ele>114.8</ele>
    <time>2018-08-18T04:00:41Z</time>
   </trkpt>
   <trkpt lat="31.9235970" lon="34.9496680">
    <ele>115.1</ele>
    <time>2018-08-18T04:00:42Z</time>
   </trkpt>
   <trkpt lat="31.9235580" lon="34.9496820">
    <ele>115.3</ele>
    <time>2018-08-18T04:00:43Z</time>
   </trkpt>
   <trkpt lat="31.9235200" lon="34.9496990">
    <ele>115.6</ele>
    <time>2018-08-18T04:00:44Z</time>
   </trkpt>
   <trkpt lat="31.9234860" lon="34.9497180">
    <ele>115.8</ele>
    <time>2018-08-18T04:00:45Z</time>
   </trkpt>
   <trkpt lat="31.9234510" lon="34.9497350">
    <ele>116.1</ele>
    <time>2018-08-18T04:00:46Z</time>
   </trkpt>
   <trkpt lat="31.9234180" lon="34.9497550">
    <ele>116.4</ele>
    <time>2018-08-18T04:00:47Z</time>
   </trkpt>
   <trkpt lat="31.9233850" lon="34.9497750">
    <ele>116.7</ele>
    <time>2018-08-18T04:00:48Z</time>
   </trkpt>
   <trkpt lat="31.9233550" lon="34.9497920">
    <ele>117.0</ele>
    <time>2018-08-18T04:00:49Z</time>
   </trkpt>
   <trkpt lat="31.9233280" lon="34.9498080">
    <ele>117.3</ele>
    <time>2018-08-18T04:00:50Z</time>
   </trkpt>
   <trkpt lat="31.9233010" lon="34.9498210">
    <ele>117.5</ele>
    <time>2018-08-18T04:00:51Z</time>
   </trkpt>
   <trkpt lat="31.9232720" lon="34.9498340">
    <ele>117.8</ele>
    <time>2018-08-18T04:00:52Z</time>
   </trkpt>
   <trkpt lat="31.9232440" lon="34.9498420">
    <ele>118.1</ele>
    <time>2018-08-18T04:00:53Z</time>
   </trkpt>
   <trkpt lat="31.9232080" lon="34.9498540">
    <ele>118.2</ele>
    <time>2018-08-18T04:00:54Z</time>
   </trkpt>
   <trkpt lat="31.9231710" lon="34.9498410">
    <ele>118.3</ele>
    <time>2018-08-18T04:00:55Z</time>
   </trkpt>
   <trkpt lat="31.9231320" lon="34.9498250">
    <ele>118.4</ele>
    <time>2018-08-18T04:00:56Z</time>
   </trkpt>
   <trkpt lat="31.9230970" lon="34.9498160">
    <ele>118.5</ele>
    <time>2018-08-18T04:00:57Z</time>
   </trkpt>
   <trkpt lat="31.9230690" lon="34.9498070">
    <ele>118.7</ele>
    <time>2018-08-18T04:00:58Z</time>
   </trkpt>
   <trkpt lat="31.9230420" lon="34.9498130">
    <ele>118.8</ele>
    <time>2018-08-18T04:00:59Z</time>
   </trkpt>
   <trkpt lat="31.9229940" lon="34.9498000">
    <ele>119.3</ele>
    <time>2018-08-18T04:01:01Z</time>
   </trkpt>
   <trkpt lat="31.9229490" lon="34.9497870">
    <ele>119.7</ele>
    <time>2018-08-18T04:01:03Z</time>
   </trkpt>
   <trkpt lat="31.9229060" lon="34.9497740">
    <ele>120.1</ele>
    <time>2018-08-18T04:01:05Z</time>
   </trkpt>
   <trkpt lat="31.9228600" lon="34.9497610">
    <ele>120.5</ele>
    <time>2018-08-18T04:01:07Z</time>
   </trkpt>
   <trkpt lat="31.9228160" lon="34.9497520">
    <ele>120.8</ele>
    <time>2018-08-18T04:01:09Z</time>
   </trkpt>
   <trkpt lat="31.9227770" lon="34.9497430">
    <ele>121.1</ele>
    <time>2018-08-18T04:01:11Z</time>
   </trkpt>
   <trkpt lat="31.9227450" lon="34.9497360">
    <ele>121.3</ele>
    <time>2018-08-18T04:01:13Z</time>
   </trkpt>
   <trkpt lat="31.9227040" lon="34.9497330">
    <ele>121.6</ele>
    <time>2018-08-18T04:01:15Z</time>
   </trkpt>
   <trkpt lat="31.9226590" lon="34.9497340">
    <ele>121.8</ele>
    <time>2018-08-18T04:01:17Z</time>
   </trkpt>
   <trkpt lat="31.9226230" lon="34.9497360">
    <ele>122.1</ele>
    <time>2018-08-18T04:01:19Z</time>
   </trkpt>
   <trkpt lat="31.9225840" lon="34.9497430">
    <ele>122.5</ele>
    <time>2018-08-18T04:01:21Z</time>
   </trkpt>
   <trkpt lat="31.9225400" lon="34.9497550">
    <ele>123.0</ele>
    <time>2018-08-18T04:01:23Z</time>
   </trkpt>
   <trkpt lat="31.9225160" lon="34.9497740">
    <ele>123.2</ele>
    <time>2018-08-18T04:01:24Z</time>
   </trkpt>
   <trkpt lat="31.9224750" lon="34.9498080">
    <ele>123.5</ele>
    <time>2018-08-18T04:01:26Z</time>
   </trkpt>
   <trkpt lat="31.9224380" lon="34.9498460">
    <ele>123.6</ele>
    <time>2018-08-18T04:01:28Z</time>
   </trkpt>
   <trkpt lat="31.9223960" lon="34.9498810">
    <ele>123.7</ele>
    <time>2018-08-18T04:01:30Z</time>
   </trkpt>
   <trkpt lat="31.9223700" lon="34.9498970">
    <ele>123.8</ele>
    <time>2018-08-18T04:01:32Z</time>
   </trkpt>
   <trkpt lat="31.9223370" lon="34.9499240">
    <ele>123.9</ele>
    <time>2018-08-18T04:01:34Z</time>
   </trkpt>
   <trkpt lat="31.9222940" lon="34.9499380">
    <ele>124.0</ele>
    <time>2018-08-18T04:01:36Z</time>
   </trkpt>
   <trkpt lat="31.9222540" lon="34.9499480">
    <ele>124.3</ele>
    <time>2018-08-18T04:01:38Z</time>
   </trkpt>
   <trkpt lat="31.9222210" lon="34.9499510">
    <ele>124.6</ele>
    <time>2018-08-18T04:01:40Z</time>
   </trkpt>
   <trkpt lat="31.9221910" lon="34.9499360">
    <ele>125.0</ele>
    <time>2018-08-18T04:01:42Z</time>
   </trkpt>
   <trkpt lat="31.9221710" lon="34.9499130">
    <ele>125.2</ele>
    <time>2018-08-18T04:01:44Z</time>
   </trkpt>
   <trkpt lat="31.9221470" lon="34.9498770">
    <ele>125.6</ele>
    <time>2018-08-18T04:01:46Z</time>
   </trkpt>
   <trkpt lat="31.9221320" lon="34.9498440">
    <ele>126.0</ele>
    <time>2018-08-18T04:01:48Z</time>
   </trkpt>
   <trkpt lat="31.9221170" lon="34.9498080">
    <ele>126.3</ele>
    <time>2018-08-18T04:01:51Z</time>
   </trkpt>
   <trkpt lat="31.9221050" lon="34.9497780">
    <ele>126.6</ele>
    <time>2018-08-18T04:01:53Z</time>
   </trkpt>
   <trkpt lat="31.9220880" lon="34.9497440">
    <ele>126.9</ele>
    <time>2018-08-18T04:01:56Z</time>
   </trkpt>
   <trkpt lat="31.9220680" lon="34.9497120">
    <ele>127.3</ele>
    <time>2018-08-18T04:01:59Z</time>
   </trkpt>
   <trkpt lat="31.9220340" lon="34.9496980">
    <ele>127.6</ele>
    <time>2018-08-18T04:02:02Z</time>
   </trkpt>
   <trkpt lat="31.9220010" lon="34.9496930">
    <ele>128.0</ele>
    <time>2018-08-18T04:02:05Z</time>
   </trkpt>
   <trkpt lat="31.9219680" lon="34.9497020">
    <ele>128.3</ele>
    <time>2018-08-18T04:02:08Z</time>
   </trkpt>
   <trkpt lat="31.9219380" lon="34.9497210">
    <ele>128.6</ele>
    <time>2018-08-18T04:02:11Z</time>
   </trkpt>
   <trkpt lat="31.9219100" lon="34.9497460">
    <ele>128.9</ele>
    <time>2018-08-18T04:02:13Z</time>
   </trkpt>
   <trkpt lat="31.9218820" lon="34.9497700">
    <ele>129.2</ele>
    <time>2018-08-18T04:02:15Z</time>
   </trkpt>
   <trkpt lat="31.9218610" lon="34.9497990">
    <ele>129.5</ele>
    <time>2018-08-18T04:02:17Z</time>
   </trkpt>
   <trkpt lat="31.9218430" lon="34.9498280">
    <ele>129.7</ele>
    <time>2018-08-18T04:02:19Z</time>
   </trkpt>
   <trkpt lat="31.9218230" lon="34.9498540">
    <ele>130.0</ele>
    <time>2018-08-18T04:02:21Z</time>
   </trkpt>
   <trkpt lat="31.9217890" lon="34.9498880">
    <ele>130.4</ele>
    <time>2018-08-18T04:02:23Z</time>
   </trkpt>
   <trkpt lat="31.9217520" lon="34.9499200">
    <ele>130.7</ele>
    <time>2018-08-18T04:02:25Z</time>
   </trkpt>
   <trkpt lat="31.9217130" lon="34.9499620">
    <ele>131.2</ele>
    <time>2018-08-18T04:02:27Z</time>
   </trkpt>
   <trkpt lat="31.9216720" lon="34.9500010">
    <ele>131.6</ele>
    <time>2018-08-18T04:02:29Z</time>
   </trkpt>
   <trkpt lat="31.9216370" lon="34.9500290">
    <ele>131.9</ele>
    <time>2018-08-18T04:02:31Z</time>
   </trkpt>
   <trkpt lat="31.9216100" lon="34.9500440">
    <ele>132.1</ele>
    <time>2018-08-18T04:02:34Z</time>
   </trkpt>
   <trkpt lat="31.9215740" lon="34.9500630">
    <ele>132.4</ele>
    <time>2018-08-18T04:02:37Z</time>
   </trkpt>
   <trkpt lat="31.9215380" lon="34.9500740">
    <ele>132.7</ele>
    <time>2018-08-18T04:02:39Z</time>
   </trkpt>
   <trkpt lat="31.9214990" lon="34.9500790">
    <ele>133.0</ele>
    <time>2018-08-18T04:02:41Z</time>
   </trkpt>
   <trkpt lat="31.9214550" lon="34.9500930">
    <ele>133.4</ele>
    <time>2018-08-18T04:02:43Z</time>
   </trkpt>
   <trkpt lat="31.9214140" lon="34.9501020">
    <ele>133.7</ele>
    <time>2018-08-18T04:02:45Z</time>
   </trkpt>
   <trkpt lat="31.9213840" lon="34.9501080">
    <ele>133.9</ele>
    <time>2018-08-18T04:02:47Z</time>
   </trkpt>
   <trkpt lat="31.9213530" lon="34.9501180">
    <ele>134.2</ele>
    <time>2018-08-18T04:02:49Z</time>
   </trkpt>
   <trkpt lat="31.9213160" lon="34.9501300">
    <ele>134.5</ele>
    <time>2018-08-18T04:02:51Z</time>
   </trkpt>
   <trkpt lat="31.9212810" lon="34.9501430">
    <ele>134.8</ele>
    <time>2018-08-18T04:02:53Z</time>
   </trkpt>
   <trkpt lat="31.9212520" lon="34.9501570">
    <ele>135.1</ele>
    <time>2018-08-18T04:02:55Z</time>
   </trkpt>
   <trkpt lat="31.9212100" lon="34.9501800">
    <ele>135.5</ele>
    <time>2018-08-18T04:02:57Z</time>
   </trkpt>
   <trkpt lat="31.9211710" lon="34.9501970">
    <ele>135.8</ele>
    <time>2018-08-18T04:02:59Z</time>
   </trkpt>
   <trkpt lat="31.9211420" lon="34.9502030">
    <ele>136.1</ele>
    <time>2018-08-18T04:03:01Z</time>
   </trkpt>
   <trkpt lat="31.9211130" lon="34.9502130">
    <ele>136.3</ele>
    <time>2018-08-18T04:03:03Z</time>
   </trkpt>
   <trkpt lat="31.9210820" lon="34.9502160">
    <ele>136.6</ele>
    <time>2018-08-18T04:03:05Z</time>
   </trkpt>
   <trkpt lat="31.9210510" lon="34.9502190">
    <ele>136.8</ele>
    <time>2018-08-18T04:03:07Z</time>
   </trkpt>
   <trkpt lat="31.9210210" lon="34.9502220">
    <ele>137.1</ele>
    <time>2018-08-18T04:03:09Z</time>
   </trkpt>
   <trkpt lat="31.9209890" lon="34.9502270">
    <ele>137.3</ele>
    <time>2018-08-18T04:03:11Z</time>
   </trkpt>
   <trkpt lat="31.9209580" lon="34.9502380">
    <ele>137.6</ele>
    <time>2018-08-18T04:03:13Z</time>
   </trkpt>
   <trkpt lat="31.9209270" lon="34.9502470">
    <ele>137.9</ele>
    <time>2018-08-18T04:03:15Z</time>
   </trkpt>
   <trkpt lat="31.9208980" lon="34.9502600">
    <ele>138.1</ele>
    <time>2018-08-18T04:03:17Z</time>
   </trkpt>
   <trkpt lat="31.9208700" lon="34.9502740">
    <ele>138.4</ele>
    <time>2018-08-18T04:03:19Z</time>
   </trkpt>
   <trkpt lat="31.9208420" lon="34.9502930">
    <ele>138.7</ele>
    <time>2018-08-18T04:03:21Z</time>
   </trkpt>
   <trkpt lat="31.9208140" lon="34.9503070">
    <ele>138.9</ele>
    <time>2018-08-18T04:03:23Z</time>
   </trkpt>
   <trkpt lat="31.9207870" lon="34.9503260">
    <ele>139.2</ele>
    <time>2018-08-18T04:03:25Z</time>
   </trkpt>
   <trkpt lat="31.9207560" lon="34.9503550">
    <ele>139.6</ele>
    <time>2018-08-18T04:03:27Z</time>
   </trkpt>
   <trkpt lat="31.9207220" lon="34.9503830">
    <ele>139.9</ele>
    <time>2018-08-18T04:03:29Z</time>
   </trkpt>
   <trkpt lat="31.9206930" lon="34.9504050">
    <ele>140.2</ele>
    <time>2018-08-18T04:03:31Z</time>
   </trkpt>
   <trkpt lat="31.9206690" lon="34.9504230">
    <ele>140.4</ele>
    <time>2018-08-18T04:03:33Z</time>
   </trkpt>
   <trkpt lat="31.9206420" lon="34.9504420">
    <ele>140.6</ele>
    <time>2018-08-18T04:03:35Z</time>
   </trkpt>
   <trkpt lat="31.9206140" lon="34.9504580">
    <ele>140.8</ele>
    <time>2018-08-18T04:03:37Z</time>
   </trkpt>
   <trkpt lat="31.9205830" lon="34.9504690">
    <ele>141.1</ele>
    <time>2018-08-18T04:03:39Z</time>
   </trkpt>
   <trkpt lat="31.9205550" lon="34.9504810">
    <ele>141.2</ele>
    <time>2018-08-18T04:03:41Z</time>
   </trkpt>
   <trkpt lat="31.9205260" lon="34.9504920">
    <ele>141.4</ele>
    <time>2018-08-18T04:03:43Z</time>
   </trkpt>
   <trkpt lat="31.9204980" lon="34.9505010">
    <ele>141.5</ele>
    <time>2018-08-18T04:03:45Z</time>
   </trkpt>
   <trkpt lat="31.9204680" lon="34.9505040">
    <ele>141.6</ele>
    <time>2018-08-18T04:03:47Z</time>
   </trkpt>
   <trkpt lat="31.9204360" lon="34.9505010">
    <ele>141.7</ele>
    <time>2018-08-18T04:03:49Z</time>
   </trkpt>
   <trkpt lat="31.9204080" lon="34.9505010">
    <ele>141.8</ele>
    <time>2018-08-18T04:03:51Z</time>
   </trkpt>
   <trkpt lat="31.9203680" lon="34.9504980">
    <ele>141.8</ele>
    <time>2018-08-18T04:03:54Z</time>
   </trkpt>
   <trkpt lat="31.9203390" lon="34.9504900">
    <ele>141.9</ele>
    <time>2018-08-18T04:03:56Z</time>
   </trkpt>
   <trkpt lat="31.9203080" lon="34.9504810">
    <ele>142.0</ele>
    <time>2018-08-18T04:03:58Z</time>
   </trkpt>
   <trkpt lat="31.9202800" lon="34.9504680">
    <ele>142.0</ele>
    <time>2018-08-18T04:04:00Z</time>
   </trkpt>
   <trkpt lat="31.9202510" lon="34.9504540">
    <ele>142.1</ele>
    <time>2018-08-18T04:04:02Z</time>
   </trkpt>
   <trkpt lat="31.9202190" lon="34.9504430">
    <ele>142.1</ele>
    <time>2018-08-18T04:04:04Z</time>
   </trkpt>
   <trkpt lat="31.9201890" lon="34.9504320">
    <ele>142.2</ele>
    <time>2018-08-18T04:04:06Z</time>
   </trkpt>
   <trkpt lat="31.9201630" lon="34.9504200">
    <ele>142.2</ele>
    <time>2018-08-18T04:04:08Z</time>
   </trkpt>
   <trkpt lat="31.9201390" lon="34.9504050">
    <ele>142.2</ele>
    <time>2018-08-18T04:04:10Z</time>
   </trkpt>
   <trkpt lat="31.9201100" lon="34.9503950">
    <ele>142.2</ele>
    <time>2018-08-18T04:04:12Z</time>
   </trkpt>
   <trkpt lat="31.9200760" lon="34.9503900">
    <ele>142.2</ele>
    <time>2018-08-18T04:04:14Z</time>
   </trkpt>
   <trkpt lat="31.9200430" lon="34.9503760">
    <ele>142.2</ele>
    <time>2018-08-18T04:04:16Z</time>
   </trkpt>
   <trkpt lat="31.9200040" lon="34.9503660">
    <ele>142.1</ele>
    <time>2018-08-18T04:04:18Z</time>
   </trkpt>
   <trkpt lat="31.9199660" lon="34.9503490">
    <ele>142.1</ele>
    <time>2018-08-18T04:04:20Z</time>
   </trkpt>
   <trkpt lat="31.9199260" lon="34.9503370">
    <ele>142.1</ele>
    <time>2018-08-18T04:04:22Z</time>
   </trkpt>
   <trkpt lat="31.9198800" lon="34.9503180">
    <ele>142.0</ele>
    <time>2018-08-18T04:04:24Z</time>
   </trkpt>
   <trkpt lat="31.9198440" lon="34.9502900">
    <ele>141.9</ele>
    <time>2018-08-18T04:04:26Z</time>
   </trkpt>
   <trkpt lat="31.9198000" lon="34.9502510">
    <ele>141.8</ele>
    <time>2018-08-18T04:04:28Z</time>
   </trkpt>
   <trkpt lat="31.9197750" lon="34.9502270">
    <ele>141.8</ele>
    <time>2018-08-18T04:04:29Z</time>
   </trkpt>
   <trkpt lat="31.9197520" lon="34.9502060">
    <ele>141.7</ele>
    <time>2018-08-18T04:04:30Z</time>
   </trkpt>
   <trkpt lat="31.9197090" lon="34.9501680">
    <ele>141.6</ele>
    <time>2018-08-18T04:04:32Z</time>
   </trkpt>
   <trkpt lat="31.9196870" lon="34.9501500">
    <ele>141.5</ele>
    <time>2018-08-18T04:04:33Z</time>
   </trkpt>
   <trkpt lat="31.9196620" lon="34.9501290">
    <ele>141.4</ele>
    <time>2018-08-18T04:04:34Z</time>
   </trkpt>
   <trkpt lat="31.9196370" lon="34.9501100">
    <ele>141.3</ele>
    <time>2018-08-18T04:04:35Z</time>
   </trkpt>
   <trkpt lat="31.9196030" lon="34.9500960">
    <ele>141.1</ele>
    <time>2018-08-18T04:04:36Z</time>
   </trkpt>
   <trkpt lat="31.9195730" lon="34.9500890">
    <ele>140.7</ele>
    <time>2018-08-18T04:04:37Z</time>
   </trkpt>
   <trkpt lat="31.9195400" lon="34.9500930">
    <ele>140.2</ele>
    <time>2018-08-18T04:04:38Z</time>
   </trkpt>
   <trkpt lat="31.9195080" lon="34.9500870">
    <ele>139.9</ele>
    <time>2018-08-18T04:04:39Z</time>
   </trkpt>
   <trkpt lat="31.9194750" lon="34.9500780">
    <ele>139.6</ele>
    <time>2018-08-18T04:04:40Z</time>
   </trkpt>
   <trkpt lat="31.9194430" lon="34.9500680">
    <ele>139.3</ele>
    <time>2018-08-18T04:04:41Z</time>
   </trkpt>
   <trkpt lat="31.9194130" lon="34.9500560">
    <ele>139.0</ele>
    <time>2018-08-18T04:04:42Z</time>
   </trkpt>
   <trkpt lat="31.9193830" lon="34.9500430">
    <ele>138.5</ele>
    <time>2018-08-18T04:04:43Z</time>
   </trkpt>
   <trkpt lat="31.9193510" lon="34.9500340">
    <ele>138.0</ele>
    <time>2018-08-18T04:04:44Z</time>
   </trkpt>
   <trkpt lat="31.9193170" lon="34.9500240">
    <ele>137.5</ele>
    <time>2018-08-18T04:04:45Z</time>
   </trkpt>
   <trkpt lat="31.9192850" lon="34.9500200">
    <ele>137.3</ele>
    <time>2018-08-18T04:04:46Z</time>
   </trkpt>
   <trkpt lat="31.9192340" lon="34.9500180">
    <ele>137.0</ele>
    <time>2018-08-18T04:04:48Z</time>
   </trkpt>
   <trkpt lat="31.9192040" lon="34.9500190">
    <ele>136.8</ele>
    <time>2018-08-18T04:04:49Z</time>
   </trkpt>
   <trkpt lat="31.9191660" lon="34.9500190">
    <ele>136.6</ele>
    <time>2018-08-18T04:04:50Z</time>
   </trkpt>
   <trkpt lat="31.9191270" lon="34.9500200">
    <ele>136.3</ele>
    <time>2018-08-18T04:04:51Z</time>
   </trkpt>
   <trkpt lat="31.9190830" lon="34.9500240">
    <ele>135.7</ele>
    <time>2018-08-18T04:04:52Z</time>
   </trkpt>
   <trkpt lat="31.9190360" lon="34.9500270">
    <ele>135.1</ele>
    <time>2018-08-18T04:04:53Z</time>
   </trkpt>
   <trkpt lat="31.9189860" lon="34.9500310">
    <ele>134.3</ele>
    <time>2018-08-18T04:04:54Z</time>
   </trkpt>
   <trkpt lat="31.9189360" lon="34.9500350">
    <ele>133.9</ele>
    <time>2018-08-18T04:04:55Z</time>
   </trkpt>
   <trkpt lat="31.9188850" lon="34.9500380">
    <ele>133.5</ele>
    <time>2018-08-18T04:04:56Z</time>
   </trkpt>
   <trkpt lat="31.9188380" lon="34.9500380">
    <ele>132.8</ele>
    <time>2018-08-18T04:04:57Z</time>
   </trkpt>
   <trkpt lat="31.9187930" lon="34.9500390">
    <ele>132.3</ele>
    <time>2018-08-18T04:04:58Z</time>
   </trkpt>
   <trkpt lat="31.9187500" lon="34.9500410">
    <ele>132.0</ele>
    <time>2018-08-18T04:04:59Z</time>
   </trkpt>
   <trkpt lat="31.9187100" lon="34.9500410">
    <ele>131.8</ele>
    <time>2018-08-18T04:05:00Z</time>
   </trkpt>
   <trkpt lat="31.9186720" lon="34.9500400">
    <ele>131.6</ele>
    <time>2018-08-18T04:05:01Z</time>
   </trkpt>
   <trkpt lat="31.9186370" lon="34.9500340">
    <ele>131.5</ele>
    <time>2018-08-18T04:05:02Z</time>
   </trkpt>
   <trkpt lat="31.9186080" lon="34.9500240">
    <ele>131.4</ele>
    <time>2018-08-18T04:05:03Z</time>
   </trkpt>
   <trkpt lat="31.9185850" lon="34.9500070">
    <ele>131.3</ele>
    <time>2018-08-18T04:05:04Z</time>
   </trkpt>
   <trkpt lat="31.9185810" lon="34.9499720">
    <ele>131.2</ele>
    <time>2018-08-18T04:05:05Z</time>
   </trkpt>
   <trkpt lat="31.9185780" lon="34.9499260">
    <ele>129.9</ele>
    <time>2018-08-18T04:05:06Z</time>
   </trkpt>
   <trkpt lat="31.9185840" lon="34.9498750">
    <ele>129.2</ele>
    <time>2018-08-18T04:05:07Z</time>
   </trkpt>
   <trkpt lat="31.9185870" lon="34.9498200">
    <ele>128.7</ele>
    <time>2018-08-18T04:05:08Z</time>
   </trkpt>
   <trkpt lat="31.9185930" lon="34.9497750">
    <ele>128.4</ele>
    <time>2018-08-18T04:05:09Z</time>
   </trkpt>
   <trkpt lat="31.9186050" lon="34.9497320">
    <ele>128.2</ele>
    <time>2018-08-18T04:05:10Z</time>
   </trkpt>
   <trkpt lat="31.9186180" lon="34.9496870">
    <ele>128.1</ele>
    <time>2018-08-18T04:05:11Z</time>
   </trkpt>
   <trkpt lat="31.9186300" lon="34.9496430">
    <ele>128.0</ele>
    <time>2018-08-18T04:05:12Z</time>
   </trkpt>
   <trkpt lat="31.9186400" lon="34.9495930">
    <ele>128.0</ele>
    <time>2018-08-18T04:05:13Z</time>
   </trkpt>
   <trkpt lat="31.9186490" lon="34.9495470">
    <ele>128.0</ele>
    <time>2018-08-18T04:05:14Z</time>
   </trkpt>
   <trkpt lat="31.9186590" lon="34.9495010">
    <ele>128.1</ele>
    <time>2018-08-18T04:05:15Z</time>
   </trkpt>
   <trkpt lat="31.9186690" lon="34.9494570">
    <ele>128.2</ele>
    <time>2018-08-18T04:05:16Z</time>
   </trkpt>
   <trkpt lat="31.9186890" lon="34.9494170">
    <ele>128.3</ele>
    <time>2018-08-18T04:05:17Z</time>
   </trkpt>
   <trkpt lat="31.9187070" lon="34.9493720">
    <ele>128.3</ele>
    <time>2018-08-18T04:05:18Z</time>
   </trkpt>
   <trkpt lat="31.9187250" lon="34.9493290">
    <ele>128.3</ele>
    <time>2018-08-18T04:05:19Z</time>
   </trkpt>
   <trkpt lat="31.9187390" lon="34.9492860">
    <ele>128.1</ele>
    <time>2018-08-18T04:05:20Z</time>
   </trkpt>
   <trkpt lat="31.9187560" lon="34.9492410">
    <ele>128.0</ele>
    <time>2018-08-18T04:05:21Z</time>
   </trkpt>
   <trkpt lat="31.9187740" lon="34.9491940">
    <ele>127.8</ele>
    <time>2018-08-18T04:05:22Z</time>
   </trkpt>
   <trkpt lat="31.9187920" lon="34.9491480">
    <ele>127.5</ele>
    <time>2018-08-18T04:05:23Z</time>
   </trkpt>
   <trkpt lat="31.9188030" lon="34.9490980">
    <ele>126.8</ele>
    <time>2018-08-18T04:05:24Z</time>
   </trkpt>
   <trkpt lat="31.9188080" lon="34.9490480">
    <ele>126.2</ele>
    <time>2018-08-18T04:05:25Z</time>
   </trkpt>
   <trkpt lat="31.9188130" lon="34.9490020">
    <ele>125.8</ele>
    <time>2018-08-18T04:05:26Z</time>
   </trkpt>
   <trkpt lat="31.9188140" lon="34.9489560">
    <ele>125.3</ele>
    <time>2018-08-18T04:05:27Z</time>
   </trkpt>
   <trkpt lat="31.9188130" lon="34.9489100">
    <ele>125.2</ele>
    <time>2018-08-18T04:05:28Z</time>
   </trkpt>
   <trkpt lat="31.9188110" lon="34.9488670">
    <ele>125.2</ele>
    <time>2018-08-18T04:05:29Z</time>
   </trkpt>
   <trkpt lat="31.9188100" lon="34.9488220">
    <ele>125.3</ele>
    <time>2018-08-18T04:05:30Z</time>
   </trkpt>
   <trkpt lat="31.9188080" lon="34.9487770">
    <ele>125.4</ele>
    <time>2018-08-18T04:05:31Z</time>
   </trkpt>
   <trkpt lat="31.9188040" lon="34.9487350">
    <ele>125.5</ele>
    <time>2018-08-18T04:05:32Z</time>
   </trkpt>
   <trkpt lat="31.9187980" lon="34.9486930">
    <ele>125.6</ele>
    <time>2018-08-18T04:05:33Z</time>
   </trkpt>
   <trkpt lat="31.9187870" lon="34.9486530">
    <ele>125.7</ele>
    <time>2018-08-18T04:05:34Z</time>
   </trkpt>
   <trkpt lat="31.9187710" lon="34.9486150">
    <ele>125.8</ele>
    <time>2018-08-18T04:05:35Z</time>
   </trkpt>
   <trkpt lat="31.9187500" lon="34.9485780">
    <ele>125.9</ele>
    <time>2018-08-18T04:05:36Z</time>
   </trkpt>
   <trkpt lat="31.9187300" lon="34.9485380">
    <ele>125.9</ele>
    <time>2018-08-18T04:05:37Z</time>
   </trkpt>
   <trkpt lat="31.9187120" lon="34.9484990">
    <ele>126.0</ele>
    <time>2018-08-18T04:05:38Z</time>
   </trkpt>
   <trkpt lat="31.9186950" lon="34.9484600">
    <ele>126.1</ele>
    <time>2018-08-18T04:05:39Z</time>
   </trkpt>
   <trkpt lat="31.9186760" lon="34.9484270">
    <ele>126.6</ele>
    <time>2018-08-18T04:05:40Z</time>
   </trkpt>
   <trkpt lat="31.9186600" lon="34.9483960">
    <ele>126.9</ele>
    <time>2018-08-18T04:05:41Z</time>
   </trkpt>
   <trkpt lat="31.9186450" lon="34.9483620">
    <ele>127.4</ele>
    <time>2018-08-18T04:05:42Z</time>
   </trkpt>
   <trkpt lat="31.9186340" lon="34.9483310">
    <ele>127.9</ele>
    <time>2018-08-18T04:05:43Z</time>
   </trkpt>
   <trkpt lat="31.9186260" lon="34.9482990">
    <ele>128.3</ele>
    <time>2018-08-18T04:05:44Z</time>
   </trkpt>
   <trkpt lat="31.9186150" lon="34.9482650">
    <ele>128.7</ele>
    <time>2018-08-18T04:05:45Z</time>
   </trkpt>
   <trkpt lat="31.9186040" lon="34.9482300">
    <ele>128.9</ele>
    <time>2018-08-18T04:05:46Z</time>
   </trkpt>
   <trkpt lat="31.9185920" lon="34.9481950">
    <ele>129.1</ele>
    <time>2018-08-18T04:05:47Z</time>
   </trkpt>
   <trkpt lat="31.9185770" lon="34.9481570">
    <ele>129.5</ele>
    <time>2018-08-18T04:05:48Z</time>
   </trkpt>
   <trkpt lat="31.9185660" lon="34.9481280">
    <ele>129.9</ele>
    <time>2018-08-18T04:05:49Z</time>
   </trkpt>
   <trkpt lat="31.9185560" lon="34.9480980">
    <ele>130.2</ele>
    <time>2018-08-18T04:05:50Z</time>
   </trkpt>
   <trkpt lat="31.9185460" lon="34.9480680">
    <ele>130.5</ele>
    <time>2018-08-18T04:05:51Z</time>
   </trkpt>
   <trkpt lat="31.9185360" lon="34.9480360">
    <ele>130.9</ele>
    <time>2018-08-18T04:05:52Z</time>
   </trkpt>
   <trkpt lat="31.9185250" lon="34.9480010">
    <ele>131.2</ele>
    <time>2018-08-18T04:05:53Z</time>
   </trkpt>
   <trkpt lat="31.9185210" lon="34.9479650">
    <ele>131.4</ele>
    <time>2018-08-18T04:05:54Z</time>
   </trkpt>
   <trkpt lat="31.9185160" lon="34.9479270">
    <ele>131.4</ele>
    <time>2018-08-18T04:05:55Z</time>
   </trkpt>
   <trkpt lat="31.9185130" lon="34.9478900">
    <ele>131.5</ele>
    <time>2018-08-18T04:05:56Z</time>
   </trkpt>
   <trkpt lat="31.9185150" lon="34.9478530">
    <ele>131.5</ele>
    <time>2018-08-18T04:05:57Z</time>
   </trkpt>
   <trkpt lat="31.9185160" lon="34.9478120">
    <ele>131.5</ele>
    <time>2018-08-18T04:05:58Z</time>
   </trkpt>
   <trkpt lat="31.9185200" lon="34.9477730">
    <ele>131.5</ele>
    <time>2018-08-18T04:05:59Z</time>
   </trkpt>
   <trkpt lat="31.9185240" lon="34.9477370">
    <ele>131.5</ele>
    <time>2018-08-18T04:06:00Z</time>
   </trkpt>
   <trkpt lat="31.9185210" lon="34.9477010">
    <ele>131.5</ele>
    <time>2018-08-18T04:06:01Z</time>
   </trkpt>
   <trkpt lat="31.9185100" lon="34.9476700">
    <ele>131.4</ele>
    <time>2018-08-18T04:06:02Z</time>
   </trkpt>
   <trkpt lat="31.9184970" lon="34.9476350">
    <ele>131.3</ele>
    <time>2018-08-18T04:06:03Z</time>
   </trkpt>
   <trkpt lat="31.9184870" lon="34.9476000">
    <ele>131.1</ele>
    <time>2018-08-18T04:06:04Z</time>
   </trkpt>
   <trkpt lat="31.9184780" lon="34.9475640">
    <ele>130.7</ele>
    <time>2018-08-18T04:06:05Z</time>
   </trkpt>
   <trkpt lat="31.9184680" lon="34.9475250">
    <ele>130.3</ele>
    <time>2018-08-18T04:06:06Z</time>
   </trkpt>
   <trkpt lat="31.9184570" lon="34.9474830">
    <ele>129.8</ele>
    <time>2018-08-18T04:06:07Z</time>
   </trkpt>
   <trkpt lat="31.9184470" lon="34.9474410">
    <ele>129.3</ele>
    <time>2018-08-18T04:06:08Z</time>
   </trkpt>
   <trkpt lat="31.9184320" lon="34.9473970">
    <ele>128.8</ele>
    <time>2018-08-18T04:06:09Z</time>
   </trkpt>
   <trkpt lat="31.9184170" lon="34.9473550">
    <ele>128.2</ele>
    <time>2018-08-18T04:06:10Z</time>
   </trkpt>
   <trkpt lat="31.9184020" lon="34.9473080">
    <ele>127.6</ele>
    <time>2018-08-18T04:06:11Z</time>
   </trkpt>
   <trkpt lat="31.9183890" lon="34.9472600">
    <ele>127.1</ele>
    <time>2018-08-18T04:06:12Z</time>
   </trkpt>
   <trkpt lat="31.9183750" lon="34.9472120">
    <ele>126.7</ele>
    <time>2018-08-18T04:06:13Z</time>
   </trkpt>
   <trkpt lat="31.9183590" lon="34.9471650">
    <ele>126.5</ele>
    <time>2018-08-18T04:06:14Z</time>
   </trkpt>
   <trkpt lat="31.9183420" lon="34.9471210">
    <ele>126.5</ele>
    <time>2018-08-18T04:06:15Z</time>
   </trkpt>
   <trkpt lat="31.9183220" lon="34.9470800">
    <ele>126.5</ele>
    <time>2018-08-18T04:06:16Z</time>
   </trkpt>
   <trkpt lat="31.9183030" lon="34.9470370">
    <ele>126.6</ele>
    <time>2018-08-18T04:06:17Z</time>
   </trkpt>
   <trkpt lat="31.9182840" lon="34.9469970">
    <ele>126.7</ele>
    <time>2018-08-18T04:06:18Z</time>
   </trkpt>
   <trkpt lat="31.9182620" lon="34.9469520">
    <ele>126.7</ele>
    <time>2018-08-18T04:06:19Z</time>
   </trkpt>
   <trkpt lat="31.9182400" lon="34.9469040">
    <ele>126.7</ele>
    <time>2018-08-18T04:06:20Z</time>
   </trkpt>
   <trkpt lat="31.9182160" lon="34.9468570">
    <ele>126.7</ele>
    <time>2018-08-18T04:06:21Z</time>
   </trkpt>
   <trkpt lat="31.9181930" lon="34.9468100">
    <ele>126.8</ele>
    <time>2018-08-18T04:06:22Z</time>
   </trkpt>
   <trkpt lat="31.9181640" lon="34.9467630">
    <ele>127.0</ele>
    <time>2018-08-18T04:06:23Z</time>
   </trkpt>
   <trkpt lat="31.9181340" lon="34.9467180">
    <ele>127.3</ele>
    <time>2018-08-18T04:06:24Z</time>
   </trkpt>
   <trkpt lat="31.9180980" lon="34.9466770">
    <ele>127.8</ele>
    <time>2018-08-18T04:06:25Z</time>
   </trkpt>
   <trkpt lat="31.9180580" lon="34.9466440">
    <ele>128.0</ele>
    <time>2018-08-18T04:06:26Z</time>
   </trkpt>
   <trkpt lat="31.9180150" lon="34.9466200">
    <ele>128.0</ele>
    <time>2018-08-18T04:06:27Z</time>
   </trkpt>
   <trkpt lat="31.9179720" lon="34.9466010">
    <ele>128.2</ele>
    <time>2018-08-18T04:06:28Z</time>
   </trkpt>
   <trkpt lat="31.9179270" lon="34.9465790">
    <ele>128.4</ele>
    <time>2018-08-18T04:06:29Z</time>
   </trkpt>
   <trkpt lat="31.9178850" lon="34.9465580">
    <ele>128.6</ele>
    <time>2018-08-18T04:06:30Z</time>
   </trkpt>
   <trkpt lat="31.9178510" lon="34.9465490">
    <ele>128.8</ele>
    <time>2018-08-18T04:06:31Z</time>
   </trkpt>
   <trkpt lat="31.9178160" lon="34.9465450">
    <ele>129.0</ele>
    <time>2018-08-18T04:06:32Z</time>
   </trkpt>
   <trkpt lat="31.9177810" lon="34.9465410">
    <ele>129.1</ele>
    <time>2018-08-18T04:06:33Z</time>
   </trkpt>
   <trkpt lat="31.9177490" lon="34.9465360">
    <ele>129.3</ele>
    <time>2018-08-18T04:06:34Z</time>
   </trkpt>
   <trkpt lat="31.9177160" lon="34.9465300">
    <ele>129.5</ele>
    <time>2018-08-18T04:06:35Z</time>
   </trkpt>
   <trkpt lat="31.9176850" lon="34.9465210">
    <ele>129.7</ele>
    <time>2018-08-18T04:06:36Z</time>
   </trkpt>
   <trkpt lat="31.9176580" lon="34.9465090">
    <ele>129.8</ele>
    <time>2018-08-18T04:06:37Z</time>
   </trkpt>
   <trkpt lat="31.9176300" lon="34.9465020">
    <ele>130.0</ele>
    <time>2018-08-18T04:06:38Z</time>
   </trkpt>
   <trkpt lat="31.9175810" lon="34.9464960">
    <ele>130.3</ele>
    <time>2018-08-18T04:06:40Z</time>
   </trkpt>
   <trkpt lat="31.9175270" lon="34.9464930">
    <ele>130.6</ele>
    <time>2018-08-18T04:06:42Z</time>
   </trkpt>
   <trkpt lat="31.9174730" lon="34.9464960">
    <ele>131.3</ele>
    <time>2018-08-18T04:06:44Z</time>
   </trkpt>
   <trkpt lat="31.9174260" lon="34.9465010">
    <ele>132.3</ele>
    <time>2018-08-18T04:06:46Z</time>
   </trkpt>
   <trkpt lat="31.9173760" lon="34.9465020">
    <ele>133.5</ele>
    <time>2018-08-18T04:06:48Z</time>
   </trkpt>
   <trkpt lat="31.9173490" lon="34.9464980">
    <ele>134.0</ele>
    <time>2018-08-18T04:06:49Z</time>
   </trkpt>
   <trkpt lat="31.9173090" lon="34.9464950">
    <ele>134.0</ele>
    <time>2018-08-18T04:06:51Z</time>
   </trkpt>
   <trkpt lat="31.9172620" lon="34.9464880">
    <ele>134.0</ele>
    <time>2018-08-18T04:06:53Z</time>
   </trkpt>
   <trkpt lat="31.9172280" lon="34.9464800">
    <ele>134.0</ele>
    <time>2018-08-18T04:06:55Z</time>
   </trkpt>
   <trkpt lat="31.9171950" lon="34.9464590">
    <ele>134.0</ele>
    <time>2018-08-18T04:06:57Z</time>
   </trkpt>
   <trkpt lat="31.9171590" lon="34.9464460">
    <ele>134.1</ele>
    <time>2018-08-18T04:06:59Z</time>
   </trkpt>
   <trkpt lat="31.9171250" lon="34.9464320">
    <ele>134.1</ele>
    <time>2018-08-18T04:07:01Z</time>
   </trkpt>
   <trkpt lat="31.9170850" lon="34.9464120">
    <ele>134.1</ele>
    <time>2018-08-18T04:07:03Z</time>
   </trkpt>
   <trkpt lat="31.9170520" lon="34.9463910">
    <ele>134.2</ele>
    <time>2018-08-18T04:07:05Z</time>
   </trkpt>
   <trkpt lat="31.9170250" lon="34.9463680">
    <ele>134.2</ele>
    <time>2018-08-18T04:07:07Z</time>
   </trkpt>
   <trkpt lat="31.9169940" lon="34.9463450">
    <ele>134.2</ele>
    <time>2018-08-18T04:07:09Z</time>
   </trkpt>
   <trkpt lat="31.9169750" lon="34.9463190">
    <ele>134.2</ele>
    <time>2018-08-18T04:07:11Z</time>
   </trkpt>
   <trkpt lat="31.9169490" lon="34.9463020">
    <ele>134.3</ele>
    <time>2018-08-18T04:07:13Z</time>
   </trkpt>
   <trkpt lat="31.9169220" lon="34.9462770">
    <ele>134.3</ele>
    <time>2018-08-18T04:07:15Z</time>
   </trkpt>
   <trkpt lat="31.9168940" lon="34.9462470">
    <ele>134.4</ele>
    <time>2018-08-18T04:07:17Z</time>
   </trkpt>
   <trkpt lat="31.9168650" lon="34.9462290">
    <ele>134.4</ele>
    <time>2018-08-18T04:07:19Z</time>
   </trkpt>
   <trkpt lat="31.9168390" lon="34.9462100">
    <ele>134.4</ele>
    <time>2018-08-18T04:07:21Z</time>
   </trkpt>
   <trkpt lat="31.9168060" lon="34.9461860">
    <ele>134.5</ele>
    <time>2018-08-18T04:07:23Z</time>
   </trkpt>
   <trkpt lat="31.9167740" lon="34.9461590">
    <ele>134.6</ele>
    <time>2018-08-18T04:07:25Z</time>
   </trkpt>
   <trkpt lat="31.9167430" lon="34.9461350">
    <ele>134.6</ele>
    <time>2018-08-18T04:07:27Z</time>
   </trkpt>
   <trkpt lat="31.9167110" lon="34.9461130">
    <ele>134.7</ele>
    <time>2018-08-18T04:07:29Z</time>
   </trkpt>
   <trkpt lat="31.9166820" lon="34.9460920">
    <ele>134.7</ele>
    <time>2018-08-18T04:07:31Z</time>
   </trkpt>
   <trkpt lat="31.9166530" lon="34.9460690">
    <ele>134.8</ele>
    <time>2018-08-18T04:07:33Z</time>
   </trkpt>
   <trkpt lat="31.9166210" lon="34.9460460">
    <ele>134.8</ele>
    <time>2018-08-18T04:07:35Z</time>
   </trkpt>
   <trkpt lat="31.9165870" lon="34.9460290">
    <ele>134.9</ele>
    <time>2018-08-18T04:07:37Z</time>
   </trkpt>
   <trkpt lat="31.9165520" lon="34.9460120">
    <ele>134.9</ele>
    <time>2018-08-18T04:07:39Z</time>
   </trkpt>
   <trkpt lat="31.9165210" lon="34.9459870">
    <ele>135.0</ele>
    <time>2018-08-18T04:07:41Z</time>
   </trkpt>
   <trkpt lat="31.9164900" lon="34.9459660">
    <ele>135.3</ele>
    <time>2018-08-18T04:07:43Z</time>
   </trkpt>
   <trkpt lat="31.9164630" lon="34.9459470">
    <ele>135.6</ele>
    <time>2018-08-18T04:07:45Z</time>
   </trkpt>
   <trkpt lat="31.9164360" lon="34.9459270">
    <ele>135.9</ele>
    <time>2018-08-18T04:07:47Z</time>
   </trkpt>
   <trkpt lat="31.9164100" lon="34.9459000">
    <ele>136.2</ele>
    <time>2018-08-18T04:07:49Z</time>
   </trkpt>
   <trkpt lat="31.9163890" lon="34.9458630">
    <ele>136.5</ele>
    <time>2018-08-18T04:07:51Z</time>
   </trkpt>
   <trkpt lat="31.9163690" lon="34.9458290">
    <ele>136.8</ele>
    <time>2018-08-18T04:07:53Z</time>
   </trkpt>
   <trkpt lat="31.9163470" lon="34.9457940">
    <ele>137.2</ele>
    <time>2018-08-18T04:07:56Z</time>
   </trkpt>
   <trkpt lat="31.9163290" lon="34.9457650">
    <ele>137.5</ele>
    <time>2018-08-18T04:07:58Z</time>
   </trkpt>
   <trkpt lat="31.9163150" lon="34.9457340">
    <ele>137.8</ele>
    <time>2018-08-18T04:08:00Z</time>
   </trkpt>
   <trkpt lat="31.9163080" lon="34.9457030">
    <ele>138.0</ele>
    <time>2018-08-18T04:08:02Z</time>
   </trkpt>
   <trkpt lat="31.9162960" lon="34.9456710">
    <ele>138.3</ele>
    <time>2018-08-18T04:08:04Z</time>
   </trkpt>
   <trkpt lat="31.9162830" lon="34.9456370">
    <ele>138.6</ele>
    <time>2018-08-18T04:08:06Z</time>
   </trkpt>
   <trkpt lat="31.9162710" lon="34.9455980">
    <ele>138.9</ele>
    <time>2018-08-18T04:08:08Z</time>
   </trkpt>
   <trkpt lat="31.9162600" lon="34.9455600">
    <ele>139.1</ele>
    <time>2018-08-18T04:08:10Z</time>
   </trkpt>
   <trkpt lat="31.9162440" lon="34.9455190">
    <ele>139.4</ele>
    <time>2018-08-18T04:08:12Z</time>
   </trkpt>
   <trkpt lat="31.9162290" lon="34.9454810">
    <ele>139.6</ele>
    <time>2018-08-18T04:08:14Z</time>
   </trkpt>
   <trkpt lat="31.9162130" lon="34.9454450">
    <ele>139.8</ele>
    <time>2018-08-18T04:08:16Z</time>
   </trkpt>
   <trkpt lat="31.9161880" lon="34.9454160">
    <ele>139.9</ele>
    <time>2018-08-18T04:08:18Z</time>
   </trkpt>
   <trkpt lat="31.9161690" lon="34.9453760">
    <ele>139.9</ele>
    <time>2018-08-18T04:08:20Z</time>
   </trkpt>
   <trkpt lat="31.9161470" lon="34.9453430">
    <ele>140.0</ele>
    <time>2018-08-18T04:08:22Z</time>
   </trkpt>
   <trkpt lat="31.9161290" lon="34.9453140">
    <ele>140.1</ele>
    <time>2018-08-18T04:08:24Z</time>
   </trkpt>
   <trkpt lat="31.9161060" lon="34.9452770">
    <ele>140.1</ele>
    <time>2018-08-18T04:08:26Z</time>
   </trkpt>
   <trkpt lat="31.9160870" lon="34.9452460">
    <ele>140.2</ele>
    <time>2018-08-18T04:08:28Z</time>
   </trkpt>
   <trkpt lat="31.9160720" lon="34.9452180">
    <ele>140.3</ele>
    <time>2018-08-18T04:08:30Z</time>
   </trkpt>
   <trkpt lat="31.9160510" lon="34.9451780">
    <ele>140.3</ele>
    <time>2018-08-18T04:08:33Z</time>
   </trkpt>
   <trkpt lat="31.9160330" lon="34.9451500">
    <ele>140.3</ele>
    <time>2018-08-18T04:08:35Z</time>
   </trkpt>
   <trkpt lat="31.9160140" lon="34.9451180">
    <ele>140.4</ele>
    <time>2018-08-18T04:08:37Z</time>
   </trkpt>
   <trkpt lat="31.9159940" lon="34.9450860">
    <ele>140.4</ele>
    <time>2018-08-18T04:08:39Z</time>
   </trkpt>
   <trkpt lat="31.9159720" lon="34.9450520">
    <ele>140.4</ele>
    <time>2018-08-18T04:08:41Z</time>
   </trkpt>
   <trkpt lat="31.9159470" lon="34.9450130">
    <ele>140.4</ele>
    <time>2018-08-18T04:08:43Z</time>
   </trkpt>
   <trkpt lat="31.9159210" lon="34.9449810">
    <ele>140.5</ele>
    <time>2018-08-18T04:08:45Z</time>
   </trkpt>
   <trkpt lat="31.9159020" lon="34.9449510">
    <ele>140.5</ele>
    <time>2018-08-18T04:08:47Z</time>
   </trkpt>
   <trkpt lat="31.9158830" lon="34.9449220">
    <ele>140.5</ele>
    <time>2018-08-18T04:08:49Z</time>
   </trkpt>
   <trkpt lat="31.9158620" lon="34.9448950">
    <ele>140.5</ele>
    <time>2018-08-18T04:08:51Z</time>
   </trkpt>
   <trkpt lat="31.9158420" lon="34.9448630">
    <ele>140.5</ele>
    <time>2018-08-18T04:08:53Z</time>
   </trkpt>
   <trkpt lat="31.9158210" lon="34.9448320">
    <ele>140.5</ele>
    <time>2018-08-18T04:08:55Z</time>
   </trkpt>
   <trkpt lat="31.9157970" lon="34.9448050">
    <ele>140.5</ele>
    <time>2018-08-18T04:08:57Z</time>
   </trkpt>
   <trkpt lat="31.9157700" lon="34.9447750">
    <ele>140.5</ele>
    <time>2018-08-18T04:08:59Z</time>
   </trkpt>
   <trkpt lat="31.9157390" lon="34.9447350">
    <ele>140.5</ele>
    <time>2018-08-18T04:09:01Z</time>
   </trkpt>
   <trkpt lat="31.9157060" lon="34.9446990">
    <ele>140.4</ele>
    <time>2018-08-18T04:09:03Z</time>
   </trkpt>
   <trkpt lat="31.9156740" lon="34.9446720">
    <ele>140.4</ele>
    <time>2018-08-18T04:09:05Z</time>
   </trkpt>
   <trkpt lat="31.9156550" lon="34.9446420">
    <ele>140.4</ele>
    <time>2018-08-18T04:09:07Z</time>
   </trkpt>
   <trkpt lat="31.9156210" lon="34.9446080">
    <ele>140.4</ele>
    <time>2018-08-18T04:09:09Z</time>
   </trkpt>
   <trkpt lat="31.9155880" lon="34.9445740">
    <ele>140.4</ele>
    <time>2018-08-18T04:09:11Z</time>
   </trkpt>
   <trkpt lat="31.9155630" lon="34.9445440">
    <ele>140.4</ele>
    <time>2018-08-18T04:09:13Z</time>
   </trkpt>
   <trkpt lat="31.9155400" lon="34.9445140">
    <ele>140.4</ele>
    <time>2018-08-18T04:09:15Z</time>
   </trkpt>
   <trkpt lat="31.9155180" lon="34.9444850">
    <ele>140.3</ele>
    <time>2018-08-18T04:09:17Z</time>
   </trkpt>
   <trkpt lat="31.9154930" lon="34.9444570">
    <ele>140.2</ele>
    <time>2018-08-18T04:09:19Z</time>
   </trkpt>
   <trkpt lat="31.9154640" lon="34.9444220">
    <ele>140.2</ele>
    <time>2018-08-18T04:09:21Z</time>
   </trkpt>
   <trkpt lat="31.9154300" lon="34.9443830">
    <ele>140.1</ele>
    <time>2018-08-18T04:09:23Z</time>
   </trkpt>
   <trkpt lat="31.9154090" lon="34.9443560">
    <ele>140.1</ele>
    <time>2018-08-18T04:09:24Z</time>
   </trkpt>
   <trkpt lat="31.9153870" lon="34.9443300">
    <ele>139.9</ele>
    <time>2018-08-18T04:09:25Z</time>
   </trkpt>
   <trkpt lat="31.9153610" lon="34.9443040">
    <ele>139.5</ele>
    <time>2018-08-18T04:09:26Z</time>
   </trkpt>
   <trkpt lat="31.9153370" lon="34.9442800">
    <ele>139.2</ele>
    <time>2018-08-18T04:09:27Z</time>
   </trkpt>
   <trkpt lat="31.9153140" lon="34.9442490">
    <ele>138.6</ele>
    <time>2018-08-18T04:09:28Z</time>
   </trkpt>
   <trkpt lat="31.9152850" lon="34.9442140">
    <ele>137.9</ele>
    <time>2018-08-18T04:09:29Z</time>
   </trkpt>
   <trkpt lat="31.9152520" lon="34.9441790">
    <ele>137.0</ele>
    <time>2018-08-18T04:09:30Z</time>
   </trkpt>
   <trkpt lat="31.9152170" lon="34.9441420">
    <ele>136.1</ele>
    <time>2018-08-18T04:09:31Z</time>
   </trkpt>
   <trkpt lat="31.9151840" lon="34.9441080">
    <ele>134.9</ele>
    <time>2018-08-18T04:09:32Z</time>
   </trkpt>
   <trkpt lat="31.9151470" lon="34.9440690">
    <ele>133.9</ele>
    <time>2018-08-18T04:09:33Z</time>
   </trkpt>
   <trkpt lat="31.9151150" lon="34.9440300">
    <ele>133.0</ele>
    <time>2018-08-18T04:09:34Z</time>
   </trkpt>
   <trkpt lat="31.9150840" lon="34.9439930">
    <ele>131.8</ele>
    <time>2018-08-18T04:09:35Z</time>
   </trkpt>
   <trkpt lat="31.9150560" lon="34.9439560">
    <ele>130.2</ele>
    <time>2018-08-18T04:09:36Z</time>
   </trkpt>
   <trkpt lat="31.9150260" lon="34.9439130">
    <ele>128.7</ele>
    <time>2018-08-18T04:09:37Z</time>
   </trkpt>
   <trkpt lat="31.9149990" lon="34.9438680">
    <ele>128.1</ele>
    <time>2018-08-18T04:09:38Z</time>
   </trkpt>
   <trkpt lat="31.9149780" lon="34.9438240">
    <ele>127.8</ele>
    <time>2018-08-18T04:09:39Z</time>
   </trkpt>
   <trkpt lat="31.9149560" lon="34.9437820">
    <ele>127.5</ele>
    <time>2018-08-18T04:09:40Z</time>
   </trkpt>
   <trkpt lat="31.9149330" lon="34.9437330">
    <ele>127.0</ele>
    <time>2018-08-18T04:09:41Z</time>
   </trkpt>
   <trkpt lat="31.9149120" lon="34.9436860">
    <ele>127.0</ele>
    <time>2018-08-18T04:09:42Z</time>
   </trkpt>
   <trkpt lat="31.9148920" lon="34.9436420">
    <ele>127.0</ele>
    <time>2018-08-18T04:09:43Z</time>
   </trkpt>
   <trkpt lat="31.9148720" lon="34.9436040">
    <ele>127.0</ele>
    <time>2018-08-18T04:09:44Z</time>
   </trkpt>
   <trkpt lat="31.9148510" lon="34.9435690">
    <ele>127.0</ele>
    <time>2018-08-18T04:09:45Z</time>
   </trkpt>
   <trkpt lat="31.9148210" lon="34.9435430">
    <ele>127.0</ele>
    <time>2018-08-18T04:09:46Z</time>
   </trkpt>
   <trkpt lat="31.9147810" lon="34.9435260">
    <ele>127.0</ele>
    <time>2018-08-18T04:09:47Z</time>
   </trkpt>
   <trkpt lat="31.9147350" lon="34.9435230">
    <ele>127.0</ele>
    <time>2018-08-18T04:09:48Z</time>
   </trkpt>
   <trkpt lat="31.9146880" lon="34.9435280">
    <ele>127.0</ele>
    <time>2018-08-18T04:09:49Z</time>
   </trkpt>
   <trkpt lat="31.9146340" lon="34.9435390">
    <ele>127.0</ele>
    <time>2018-08-18T04:09:50Z</time>
   </trkpt>
   <trkpt lat="31.9145820" lon="34.9435530">
    <ele>127.0</ele>
    <time>2018-08-18T04:09:51Z</time>
   </trkpt>
   <trkpt lat="31.9145250" lon="34.9435660">
    <ele>127.0</ele>
    <time>2018-08-18T04:09:52Z</time>
   </trkpt>
   <trkpt lat="31.9144650" lon="34.9435750">
    <ele>126.9</ele>
    <time>2018-08-18T04:09:53Z</time>
   </trkpt>
   <trkpt lat="31.9144070" lon="34.9435800">
    <ele>126.9</ele>
    <time>2018-08-18T04:09:54Z</time>
   </trkpt>
   <trkpt lat="31.9143510" lon="34.9435840">
    <ele>127.0</ele>
    <time>2018-08-18T04:09:55Z</time>
   </trkpt>
   <trkpt lat="31.9142940" lon="34.9435850">
    <ele>127.0</ele>
    <time>2018-08-18T04:09:56Z</time>
   </trkpt>
   <trkpt lat="31.9142390" lon="34.9435870">
    <ele>127.0</ele>
    <time>2018-08-18T04:09:57Z</time>
   </trkpt>
   <trkpt lat="31.9141850" lon="34.9435930">
    <ele>127.0</ele>
    <time>2018-08-18T04:09:58Z</time>
   </trkpt>
   <trkpt lat="31.9141330" lon="34.9436040">
    <ele>127.0</ele>
    <time>2018-08-18T04:09:59Z</time>
   </trkpt>
   <trkpt lat="31.9140800" lon="34.9436150">
    <ele>127.0</ele>
    <time>2018-08-18T04:10:00Z</time>
   </trkpt>
   <trkpt lat="31.9140250" lon="34.9436260">
    <ele>127.1</ele>
    <time>2018-08-18T04:10:01Z</time>
   </trkpt>
   <trkpt lat="31.9139800" lon="34.9436390">
    <ele>127.1</ele>
    <time>2018-08-18T04:10:02Z</time>
   </trkpt>
   <trkpt lat="31.9139410" lon="34.9436560">
    <ele>127.2</ele>
    <time>2018-08-18T04:10:03Z</time>
   </trkpt>
   <trkpt lat="31.9139010" lon="34.9436720">
    <ele>127.3</ele>
    <time>2018-08-18T04:10:04Z</time>
   </trkpt>
   <trkpt lat="31.9138620" lon="34.9436850">
    <ele>127.5</ele>
    <time>2018-08-18T04:10:05Z</time>
   </trkpt>
   <trkpt lat="31.9138210" lon="34.9437010">
    <ele>127.7</ele>
    <time>2018-08-18T04:10:06Z</time>
   </trkpt>
   <trkpt lat="31.9137820" lon="34.9437170">
    <ele>127.9</ele>
    <time>2018-08-18T04:10:07Z</time>
   </trkpt>
   <trkpt lat="31.9137430" lon="34.9437320">
    <ele>128.3</ele>
    <time>2018-08-18T04:10:08Z</time>
   </trkpt>
   <trkpt lat="31.9137040" lon="34.9437460">
    <ele>128.6</ele>
    <time>2018-08-18T04:10:09Z</time>
   </trkpt>
   <trkpt lat="31.9136640" lon="34.9437630">
    <ele>129.1</ele>
    <time>2018-08-18T04:10:10Z</time>
   </trkpt>
   <trkpt lat="31.9136210" lon="34.9437800">
    <ele>129.4</ele>
    <time>2018-08-18T04:10:11Z</time>
   </trkpt>
   <trkpt lat="31.9135790" lon="34.9438040">
    <ele>129.7</ele>
    <time>2018-08-18T04:10:12Z</time>
   </trkpt>
   <trkpt lat="31.9135440" lon="34.9438310">
    <ele>130.0</ele>
    <time>2018-08-18T04:10:13Z</time>
   </trkpt>
   <trkpt lat="31.9135120" lon="34.9438590">
    <ele>130.2</ele>
    <time>2018-08-18T04:10:14Z</time>
   </trkpt>
   <trkpt lat="31.9134830" lon="34.9438850">
    <ele>130.4</ele>
    <time>2018-08-18T04:10:15Z</time>
   </trkpt>
   <trkpt lat="31.9134600" lon="34.9439130">
    <ele>130.6</ele>
    <time>2018-08-18T04:10:16Z</time>
   </trkpt>
   <trkpt lat="31.9134370" lon="34.9439450">
    <ele>130.7</ele>
    <time>2018-08-18T04:10:17Z</time>
   </trkpt>
   <trkpt lat="31.9134180" lon="34.9439750">
    <ele>130.8</ele>
    <time>2018-08-18T04:10:18Z</time>
   </trkpt>
   <trkpt lat="31.9133970" lon="34.9440060">
    <ele>130.9</ele>
    <time>2018-08-18T04:10:19Z</time>
   </trkpt>
   <trkpt lat="31.9133790" lon="34.9440350">
    <ele>130.9</ele>
    <time>2018-08-18T04:10:20Z</time>
   </trkpt>
   <trkpt lat="31.9133620" lon="34.9440610">
    <ele>131.0</ele>
    <time>2018-08-18T04:10:21Z</time>
   </trkpt>
   <trkpt lat="31.9133410" lon="34.9440870">
    <ele>131.1</ele>
    <time>2018-08-18T04:10:22Z</time>
   </trkpt>
   <trkpt lat="31.9133230" lon="34.9441130">
    <ele>131.2</ele>
    <time>2018-08-18T04:10:23Z</time>
   </trkpt>
   <trkpt lat="31.9133040" lon="34.9441380">
    <ele>131.3</ele>
    <time>2018-08-18T04:10:24Z</time>
   </trkpt>
   <trkpt lat="31.9132840" lon="34.9441660">
    <ele>131.4</ele>
    <time>2018-08-18T04:10:25Z</time>
   </trkpt>
   <trkpt lat="31.9132630" lon="34.9441920">
    <ele>131.4</ele>
    <time>2018-08-18T04:10:26Z</time>
   </trkpt>
   <trkpt lat="31.9132410" lon="34.9442200">
    <ele>131.5</ele>
    <time>2018-08-18T04:10:27Z</time>
   </trkpt>
   <trkpt lat="31.9132210" lon="34.9442450">
    <ele>131.7</ele>
    <time>2018-08-18T04:10:28Z</time>
   </trkpt>
   <trkpt lat="31.9131990" lon="34.9442700">
    <ele>131.9</ele>
    <time>2018-08-18T04:10:29Z</time>
   </trkpt>
   <trkpt lat="31.9131780" lon="34.9442940">
    <ele>132.1</ele>
    <time>2018-08-18T04:10:30Z</time>
   </trkpt>
   <trkpt lat="31.9131550" lon="34.9443180">
    <ele>132.3</ele>
    <time>2018-08-18T04:10:31Z</time>
   </trkpt>
   <trkpt lat="31.9131330" lon="34.9443390">
    <ele>132.5</ele>
    <time>2018-08-18T04:10:32Z</time>
   </trkpt>
   <trkpt lat="31.9131090" lon="34.9443600">
    <ele>132.6</ele>
    <time>2018-08-18T04:10:33Z</time>
   </trkpt>
   <trkpt lat="31.9130860" lon="34.9443820">
    <ele>132.8</ele>
    <time>2018-08-18T04:10:34Z</time>
   </trkpt>
   <trkpt lat="31.9130610" lon="34.9444020">
    <ele>133.0</ele>
    <time>2018-08-18T04:10:35Z</time>
   </trkpt>
   <trkpt lat="31.9130380" lon="34.9444200">
    <ele>133.0</ele>
    <time>2018-08-18T04:10:36Z</time>
   </trkpt>
   <trkpt lat="31.9130150" lon="34.9444410">
    <ele>133.1</ele>
    <time>2018-08-18T04:10:37Z</time>
   </trkpt>
   <trkpt lat="31.9129930" lon="34.9444590">
    <ele>133.2</ele>
    <time>2018-08-18T04:10:38Z</time>
   </trkpt>
   <trkpt lat="31.9129490" lon="34.9444970">
    <ele>133.3</ele>
    <time>2018-08-18T04:10:40Z</time>
   </trkpt>
   <trkpt lat="31.9129250" lon="34.9445140">
    <ele>133.3</ele>
    <time>2018-08-18T04:10:41Z</time>
   </trkpt>
   <trkpt lat="31.9128840" lon="34.9445500">
    <ele>133.5</ele>
    <time>2018-08-18T04:10:43Z</time>
   </trkpt>
   <trkpt lat="31.9128420" lon="34.9445830">
    <ele>133.6</ele>
    <time>2018-08-18T04:10:45Z</time>
   </trkpt>
   <trkpt lat="31.9127960" lon="34.9446170">
    <ele>133.7</ele>
    <time>2018-08-18T04:10:47Z</time>
   </trkpt>
   <trkpt lat="31.9127730" lon="34.9446360">
    <ele>133.7</ele>
    <time>2018-08-18T04:10:48Z</time>
   </trkpt>
   <trkpt lat="31.9127500" lon="34.9446540">
    <ele>133.8</ele>
    <time>2018-08-18T04:10:49Z</time>
   </trkpt>
   <trkpt lat="31.9127260" lon="34.9446700">
    <ele>133.9</ele>
    <time>2018-08-18T04:10:50Z</time>
   </trkpt>
   <trkpt lat="31.9127010" lon="34.9446850">
    <ele>134.0</ele>
    <time>2018-08-18T04:10:51Z</time>
   </trkpt>
   <trkpt lat="31.9126760" lon="34.9447020">
    <ele>134.1</ele>
    <time>2018-08-18T04:10:52Z</time>
   </trkpt>
   <trkpt lat="31.9126310" lon="34.9447330">
    <ele>134.3</ele>
    <time>2018-08-18T04:10:54Z</time>
   </trkpt>
   <trkpt lat="31.9125840" lon="34.9447660">
    <ele>134.5</ele>
    <time>2018-08-18T04:10:56Z</time>
   </trkpt>
   <trkpt lat="31.9125560" lon="34.9447870">
    <ele>134.7</ele>
    <time>2018-08-18T04:10:57Z</time>
   </trkpt>
   <trkpt lat="31.9125280" lon="34.9448080">
    <ele>134.9</ele>
    <time>2018-08-18T04:10:58Z</time>
   </trkpt>
   <trkpt lat="31.9125020" lon="34.9448310">
    <ele>135.1</ele>
    <time>2018-08-18T04:10:59Z</time>
   </trkpt>
   <trkpt lat="31.9124790" lon="34.9448520">
    <ele>135.2</ele>
    <time>2018-08-18T04:11:00Z</time>
   </trkpt>
   <trkpt lat="31.9124410" lon="34.9448990">
    <ele>135.5</ele>
    <time>2018-08-18T04:11:02Z</time>
   </trkpt>
   <trkpt lat="31.9124210" lon="34.9449220">
    <ele>135.7</ele>
    <time>2018-08-18T04:11:03Z</time>
   </trkpt>
   <trkpt lat="31.9123980" lon="34.9449460">
    <ele>135.8</ele>
    <time>2018-08-18T04:11:04Z</time>
   </trkpt>
   <trkpt lat="31.9123760" lon="34.9449690">
    <ele>136.0</ele>
    <time>2018-08-18T04:11:05Z</time>
   </trkpt>
   <trkpt lat="31.9123430" lon="34.9450160">
    <ele>136.1</ele>
    <time>2018-08-18T04:11:07Z</time>
   </trkpt>
   <trkpt lat="31.9123160" lon="34.9450660">
    <ele>136.2</ele>
    <time>2018-08-18T04:11:09Z</time>
   </trkpt>
   <trkpt lat="31.9122860" lon="34.9451150">
    <ele>136.3</ele>
    <time>2018-08-18T04:11:11Z</time>
   </trkpt>
   <trkpt lat="31.9122560" lon="34.9451640">
    <ele>136.5</ele>
    <time>2018-08-18T04:11:13Z</time>
   </trkpt>
   <trkpt lat="31.9122330" lon="34.9452090">
    <ele>136.6</ele>
    <time>2018-08-18T04:11:15Z</time>
   </trkpt>
   <trkpt lat="31.9122040" lon="34.9452540">
    <ele>136.7</ele>
    <time>2018-08-18T04:11:17Z</time>
   </trkpt>
   <trkpt lat="31.9121810" lon="34.9452950">
    <ele>136.8</ele>
    <time>2018-08-18T04:11:19Z</time>
   </trkpt>
   <trkpt lat="31.9121520" lon="34.9453430">
    <ele>137.0</ele>
    <time>2018-08-18T04:11:21Z</time>
   </trkpt>
   <trkpt lat="31.9121350" lon="34.9453750">
    <ele>137.1</ele>
    <time>2018-08-18T04:11:22Z</time>
   </trkpt>
   <trkpt lat="31.9121170" lon="34.9454060">
    <ele>137.2</ele>
    <time>2018-08-18T04:11:23Z</time>
   </trkpt>
   <trkpt lat="31.9121000" lon="34.9454370">
    <ele>137.3</ele>
    <time>2018-08-18T04:11:24Z</time>
   </trkpt>
   <trkpt lat="31.9120840" lon="34.9454670">
    <ele>137.5</ele>
    <time>2018-08-18T04:11:25Z</time>
   </trkpt>
   <trkpt lat="31.9120640" lon="34.9455180">
    <ele>137.8</ele>
    <time>2018-08-18T04:11:27Z</time>
   </trkpt>
   <trkpt lat="31.9120400" lon="34.9455740">
    <ele>138.1</ele>
    <time>2018-08-18T04:11:29Z</time>
   </trkpt>
   <trkpt lat="31.9120300" lon="34.9456050">
    <ele>138.3</ele>
    <time>2018-08-18T04:11:30Z</time>
   </trkpt>
   <trkpt lat="31.9120120" lon="34.9456640">
    <ele>138.6</ele>
    <time>2018-08-18T04:11:32Z</time>
   </trkpt>
   <trkpt lat="31.9120010" lon="34.9456940">
    <ele>138.8</ele>
    <time>2018-08-18T04:11:33Z</time>
   </trkpt>
   <trkpt lat="31.9119880" lon="34.9457560">
    <ele>139.0</ele>
    <time>2018-08-18T04:11:35Z</time>
   </trkpt>
   <trkpt lat="31.9119810" lon="34.9457890">
    <ele>139.1</ele>
    <time>2018-08-18T04:11:36Z</time>
   </trkpt>
   <trkpt lat="31.9119730" lon="34.9458500">
    <ele>139.3</ele>
    <time>2018-08-18T04:11:38Z</time>
   </trkpt>
   <trkpt lat="31.9119600" lon="34.9459070">
    <ele>139.4</ele>
    <time>2018-08-18T04:11:40Z</time>
   </trkpt>
   <trkpt lat="31.9119500" lon="34.9459620">
    <ele>139.5</ele>
    <time>2018-08-18T04:11:42Z</time>
   </trkpt>
   <trkpt lat="31.9119450" lon="34.9460150">
    <ele>139.7</ele>
    <time>2018-08-18T04:11:44Z</time>
   </trkpt>
   <trkpt lat="31.9119420" lon="34.9460660">
    <ele>139.8</ele>
    <time>2018-08-18T04:11:46Z</time>
   </trkpt>
   <trkpt lat="31.9119340" lon="34.9461040">
    <ele>139.9</ele>
    <time>2018-08-18T04:11:48Z</time>
   </trkpt>
   <trkpt lat="31.9119180" lon="34.9461410">
    <ele>140.0</ele>
    <time>2018-08-18T04:11:50Z</time>
   </trkpt>
   <trkpt lat="31.9118820" lon="34.9461720">
    <ele>140.0</ele>
    <time>2018-08-18T04:11:52Z</time>
   </trkpt>
   <trkpt lat="31.9118390" lon="34.9461860">
    <ele>140.0</ele>
    <time>2018-08-18T04:11:54Z</time>
   </trkpt>
   <trkpt lat="31.9117930" lon="34.9461740">
    <ele>140.0</ele>
    <time>2018-08-18T04:11:56Z</time>
   </trkpt>
   <trkpt lat="31.9117590" lon="34.9461460">
    <ele>140.0</ele>
    <time>2018-08-18T04:11:58Z</time>
   </trkpt>
   <trkpt lat="31.9117470" lon="34.9461170">
    <ele>140.2</ele>
    <time>2018-08-18T04:11:59Z</time>
   </trkpt>
   <trkpt lat="31.9117360" lon="34.9460880">
    <ele>140.3</ele>
    <time>2018-08-18T04:12:00Z</time>
   </trkpt>
   <trkpt lat="31.9117210" lon="34.9460600">
    <ele>140.5</ele>
    <time>2018-08-18T04:12:01Z</time>
   </trkpt>
   <trkpt lat="31.9117060" lon="34.9460330">
    <ele>140.6</ele>
    <time>2018-08-18T04:12:02Z</time>
   </trkpt>
   <trkpt lat="31.9116760" lon="34.9459790">
    <ele>140.9</ele>
    <time>2018-08-18T04:12:04Z</time>
   </trkpt>
   <trkpt lat="31.9116600" lon="34.9459470">
    <ele>141.0</ele>
    <time>2018-08-18T04:12:05Z</time>
   </trkpt>
   <trkpt lat="31.9116390" lon="34.9459140">
    <ele>141.2</ele>
    <time>2018-08-18T04:12:06Z</time>
   </trkpt>
   <trkpt lat="31.9116190" lon="34.9458850">
    <ele>141.3</ele>
    <time>2018-08-18T04:12:07Z</time>
   </trkpt>
   <trkpt lat="31.9115970" lon="34.9458580">
    <ele>141.4</ele>
    <time>2018-08-18T04:12:08Z</time>
   </trkpt>
   <trkpt lat="31.9115680" lon="34.9458320">
    <ele>141.5</ele>
    <time>2018-08-18T04:12:09Z</time>
   </trkpt>
   <trkpt lat="31.9115440" lon="34.9458040">
    <ele>141.5</ele>
    <time>2018-08-18T04:12:10Z</time>
   </trkpt>
   <trkpt lat="31.9115160" lon="34.9457730">
    <ele>141.6</ele>
    <time>2018-08-18T04:12:11Z</time>
   </trkpt>
   <trkpt lat="31.9114860" lon="34.9457410">
    <ele>141.6</ele>
    <time>2018-08-18T04:12:12Z</time>
   </trkpt>
   <trkpt lat="31.9114580" lon="34.9457100">
    <ele>141.7</ele>
    <time>2018-08-18T04:12:13Z</time>
   </trkpt>
   <trkpt lat="31.9114280" lon="34.9456790">
    <ele>141.8</ele>
    <time>2018-08-18T04:12:14Z</time>
   </trkpt>
   <trkpt lat="31.9113980" lon="34.9456500">
    <ele>141.8</ele>
    <time>2018-08-18T04:12:15Z</time>
   </trkpt>
   <trkpt lat="31.9113730" lon="34.9456220">
    <ele>141.9</ele>
    <time>2018-08-18T04:12:16Z</time>
   </trkpt>
   <trkpt lat="31.9113510" lon="34.9455980">
    <ele>141.9</ele>
    <time>2018-08-18T04:12:17Z</time>
   </trkpt>
   <trkpt lat="31.9113270" lon="34.9455730">
    <ele>142.0</ele>
    <time>2018-08-18T04:12:18Z</time>
   </trkpt>
   <trkpt lat="31.9113000" lon="34.9455490">
    <ele>142.1</ele>
    <time>2018-08-18T04:12:19Z</time>
   </trkpt>
   <trkpt lat="31.9112670" lon="34.9455180">
    <ele>142.2</ele>
    <time>2018-08-18T04:12:20Z</time>
   </trkpt>
   <trkpt lat="31.9112350" lon="34.9454900">
    <ele>142.3</ele>
    <time>2018-08-18T04:12:21Z</time>
   </trkpt>
   <trkpt lat="31.9112050" lon="34.9454670">
    <ele>142.5</ele>
    <time>2018-08-18T04:12:22Z</time>
   </trkpt>
   <trkpt lat="31.9111700" lon="34.9454510">
    <ele>142.6</ele>
    <time>2018-08-18T04:12:23Z</time>
   </trkpt>
   <trkpt lat="31.9111380" lon="34.9454400">
    <ele>142.7</ele>
    <time>2018-08-18T04:12:24Z</time>
   </trkpt>
   <trkpt lat="31.9111070" lon="34.9454290">
    <ele>142.9</ele>
    <time>2018-08-18T04:12:25Z</time>
   </trkpt>
   <trkpt lat="31.9110770" lon="34.9454200">
    <ele>143.0</ele>
    <time>2018-08-18T04:12:26Z</time>
   </trkpt>
   <trkpt lat="31.9110320" lon="34.9454140">
    <ele>143.2</ele>
    <time>2018-08-18T04:12:28Z</time>
   </trkpt>
   <trkpt lat="31.9109810" lon="34.9454040">
    <ele>143.4</ele>
    <time>2018-08-18T04:12:30Z</time>
   </trkpt>
   <trkpt lat="31.9109530" lon="34.9454000">
    <ele>143.5</ele>
    <time>2018-08-18T04:12:31Z</time>
   </trkpt>
   <trkpt lat="31.9109040" lon="34.9453890">
    <ele>143.6</ele>
    <time>2018-08-18T04:12:33Z</time>
   </trkpt>
   <trkpt lat="31.9108590" lon="34.9453800">
    <ele>143.7</ele>
    <time>2018-08-18T04:12:35Z</time>
   </trkpt>
   <trkpt lat="31.9108320" lon="34.9453700">
    <ele>143.8</ele>
    <time>2018-08-18T04:12:36Z</time>
   </trkpt>
   <trkpt lat="31.9108050" lon="34.9453590">
    <ele>143.9</ele>
    <time>2018-08-18T04:12:37Z</time>
   </trkpt>
   <trkpt lat="31.9107760" lon="34.9453450">
    <ele>144.0</ele>
    <time>2018-08-18T04:12:38Z</time>
   </trkpt>
   <trkpt lat="31.9107400" lon="34.9453400">
    <ele>144.1</ele>
    <time>2018-08-18T04:12:39Z</time>
   </trkpt>
   <trkpt lat="31.9106980" lon="34.9453340">
    <ele>144.2</ele>
    <time>2018-08-18T04:12:40Z</time>
   </trkpt>
   <trkpt lat="31.9106500" lon="34.9453080">
    <ele>144.5</ele>
    <time>2018-08-18T04:12:42Z</time>
   </trkpt>
   <trkpt lat="31.9106000" lon="34.9452920">
    <ele>144.7</ele>
    <time>2018-08-18T04:12:44Z</time>
   </trkpt>
   <trkpt lat="31.9105730" lon="34.9452850">
    <ele>144.8</ele>
    <time>2018-08-18T04:12:45Z</time>
   </trkpt>
   <trkpt lat="31.9105410" lon="34.9452770">
    <ele>145.0</ele>
    <time>2018-08-18T04:12:46Z</time>
   </trkpt>
   <trkpt lat="31.9104970" lon="34.9452700">
    <ele>145.2</ele>
    <time>2018-08-18T04:12:47Z</time>
   </trkpt>
   <trkpt lat="31.9104550" lon="34.9452620">
    <ele>145.3</ele>
    <time>2018-08-18T04:12:48Z</time>
   </trkpt>
   <trkpt lat="31.9104170" lon="34.9452540">
    <ele>145.5</ele>
    <time>2018-08-18T04:12:49Z</time>
   </trkpt>
   <trkpt lat="31.9103810" lon="34.9452460">
    <ele>145.6</ele>
    <time>2018-08-18T04:12:50Z</time>
   </trkpt>
   <trkpt lat="31.9103500" lon="34.9452390">
    <ele>145.8</ele>
    <time>2018-08-18T04:12:51Z</time>
   </trkpt>
   <trkpt lat="31.9103200" lon="34.9452360">
    <ele>145.9</ele>
    <time>2018-08-18T04:12:52Z</time>
   </trkpt>
   <trkpt lat="31.9102930" lon="34.9452280">
    <ele>145.9</ele>
    <time>2018-08-18T04:12:53Z</time>
   </trkpt>
   <trkpt lat="31.9102620" lon="34.9452220">
    <ele>146.0</ele>
    <time>2018-08-18T04:12:54Z</time>
   </trkpt>
   <trkpt lat="31.9102330" lon="34.9452170">
    <ele>146.1</ele>
    <time>2018-08-18T04:12:55Z</time>
   </trkpt>
   <trkpt lat="31.9102030" lon="34.9452120">
    <ele>146.2</ele>
    <time>2018-08-18T04:12:56Z</time>
   </trkpt>
   <trkpt lat="31.9101730" lon="34.9452090">
    <ele>146.3</ele>
    <time>2018-08-18T04:12:57Z</time>
   </trkpt>
   <trkpt lat="31.9101450" lon="34.9452060">
    <ele>146.4</ele>
    <time>2018-08-18T04:12:58Z</time>
   </trkpt>
   <trkpt lat="31.9100980" lon="34.9451980">
    <ele>146.5</ele>
    <time>2018-08-18T04:13:00Z</time>
   </trkpt>
   <trkpt lat="31.9100700" lon="34.9451940">
    <ele>146.6</ele>
    <time>2018-08-18T04:13:01Z</time>
   </trkpt>
   <trkpt lat="31.9100410" lon="34.9451890">
    <ele>146.7</ele>
    <time>2018-08-18T04:13:02Z</time>
   </trkpt>
   <trkpt lat="31.9100070" lon="34.9451850">
    <ele>146.9</ele>
    <time>2018-08-18T04:13:03Z</time>
   </trkpt>
   <trkpt lat="31.9099740" lon="34.9451820">
    <ele>147.0</ele>
    <time>2018-08-18T04:13:04Z</time>
   </trkpt>
   <trkpt lat="31.9099120" lon="34.9451760">
    <ele>147.3</ele>
    <time>2018-08-18T04:13:06Z</time>
   </trkpt>
   <trkpt lat="31.9098740" lon="34.9451700">
    <ele>147.4</ele>
    <time>2018-08-18T04:13:07Z</time>
   </trkpt>
   <trkpt lat="31.9098450" lon="34.9451670">
    <ele>147.5</ele>
    <time>2018-08-18T04:13:08Z</time>
   </trkpt>
   <trkpt lat="31.9098160" lon="34.9451630">
    <ele>147.6</ele>
    <time>2018-08-18T04:13:09Z</time>
   </trkpt>
   <trkpt lat="31.9097810" lon="34.9451550">
    <ele>147.8</ele>
    <time>2018-08-18T04:13:10Z</time>
   </trkpt>
   <trkpt lat="31.9097330" lon="34.9451350">
    <ele>148.0</ele>
    <time>2018-08-18T04:13:12Z</time>
   </trkpt>
   <trkpt lat="31.9096830" lon="34.9451130">
    <ele>148.1</ele>
    <time>2018-08-18T04:13:14Z</time>
   </trkpt>
   <trkpt lat="31.9096540" lon="34.9451030">
    <ele>148.2</ele>
    <time>2018-08-18T04:13:15Z</time>
   </trkpt>
   <trkpt lat="31.9096260" lon="34.9450950">
    <ele>148.3</ele>
    <time>2018-08-18T04:13:16Z</time>
   </trkpt>
   <trkpt lat="31.9095760" lon="34.9450810">
    <ele>148.5</ele>
    <time>2018-08-18T04:13:18Z</time>
   </trkpt>
   <trkpt lat="31.9095290" lon="34.9450630">
    <ele>148.7</ele>
    <time>2018-08-18T04:13:20Z</time>
   </trkpt>
   <trkpt lat="31.9095020" lon="34.9450550">
    <ele>148.8</ele>
    <time>2018-08-18T04:13:21Z</time>
   </trkpt>
   <trkpt lat="31.9094730" lon="34.9450460">
    <ele>148.9</ele>
    <time>2018-08-18T04:13:22Z</time>
   </trkpt>
   <trkpt lat="31.9094220" lon="34.9450300">
    <ele>149.2</ele>
    <time>2018-08-18T04:13:24Z</time>
   </trkpt>
   <trkpt lat="31.9093730" lon="34.9450220">
    <ele>149.4</ele>
    <time>2018-08-18T04:13:26Z</time>
   </trkpt>
   <trkpt lat="31.9093160" lon="34.9450080">
    <ele>149.7</ele>
    <time>2018-08-18T04:13:28Z</time>
   </trkpt>
   <trkpt lat="31.9092840" lon="34.9450040">
    <ele>149.8</ele>
    <time>2018-08-18T04:13:29Z</time>
   </trkpt>
   <trkpt lat="31.9092520" lon="34.9450000">
    <ele>150.0</ele>
    <time>2018-08-18T04:13:30Z</time>
   </trkpt>
   <trkpt lat="31.9092210" lon="34.9449930">
    <ele>150.2</ele>
    <time>2018-08-18T04:13:31Z</time>
   </trkpt>
   <trkpt lat="31.9091910" lon="34.9449910">
    <ele>150.3</ele>
    <time>2018-08-18T04:13:32Z</time>
   </trkpt>
   <trkpt lat="31.9091620" lon="34.9449900">
    <ele>150.5</ele>
    <time>2018-08-18T04:13:33Z</time>
   </trkpt>
   <trkpt lat="31.9091340" lon="34.9449890">
    <ele>150.6</ele>
    <time>2018-08-18T04:13:34Z</time>
   </trkpt>
   <trkpt lat="31.9090830" lon="34.9449850">
    <ele>150.9</ele>
    <time>2018-08-18T04:13:36Z</time>
   </trkpt>
   <trkpt lat="31.9090350" lon="34.9449810">
    <ele>151.1</ele>
    <time>2018-08-18T04:13:38Z</time>
   </trkpt>
   <trkpt lat="31.9089980" lon="34.9449790">
    <ele>151.4</ele>
    <time>2018-08-18T04:13:40Z</time>
   </trkpt>
   <trkpt lat="31.9089610" lon="34.9449770">
    <ele>151.6</ele>
    <time>2018-08-18T04:13:42Z</time>
   </trkpt>
   <trkpt lat="31.9089190" lon="34.9449780">
    <ele>151.8</ele>
    <time>2018-08-18T04:13:44Z</time>
   </trkpt>
   <trkpt lat="31.9088770" lon="34.9449770">
    <ele>152.1</ele>
    <time>2018-08-18T04:13:46Z</time>
   </trkpt>
   <trkpt lat="31.9088290" lon="34.9449750">
    <ele>152.4</ele>
    <time>2018-08-18T04:13:48Z</time>
   </trkpt>
   <trkpt lat="31.9087850" lon="34.9449800">
    <ele>152.7</ele>
    <time>2018-08-18T04:13:50Z</time>
   </trkpt>
   <trkpt lat="31.9087370" lon="34.9449790">
    <ele>153.0</ele>
    <time>2018-08-18T04:13:52Z</time>
   </trkpt>
   <trkpt lat="31.9086860" lon="34.9449840">
    <ele>153.3</ele>
    <time>2018-08-18T04:13:54Z</time>
   </trkpt>
   <trkpt lat="31.9086430" lon="34.9449870">
    <ele>153.6</ele>
    <time>2018-08-18T04:13:56Z</time>
   </trkpt>
   <trkpt lat="31.9085980" lon="34.9449940">
    <ele>153.8</ele>
    <time>2018-08-18T04:13:58Z</time>
   </trkpt>
   <trkpt lat="31.9085530" lon="34.9450010">
    <ele>154.0</ele>
    <time>2018-08-18T04:14:00Z</time>
   </trkpt>
   <trkpt lat="31.9085130" lon="34.9450100">
    <ele>154.1</ele>
    <time>2018-08-18T04:14:02Z</time>
   </trkpt>
   <trkpt lat="31.9084820" lon="34.9450160">
    <ele>154.2</ele>
    <time>2018-08-18T04:14:04Z</time>
   </trkpt>
   <trkpt lat="31.9084450" lon="34.9450240">
    <ele>154.3</ele>
    <time>2018-08-18T04:14:06Z</time>
   </trkpt>
   <trkpt lat="31.9084030" lon="34.9450350">
    <ele>154.5</ele>
    <time>2018-08-18T04:14:08Z</time>
   </trkpt>
   <trkpt lat="31.9083570" lon="34.9450520">
    <ele>154.6</ele>
    <time>2018-08-18T04:14:10Z</time>
   </trkpt>
   <trkpt lat="31.9083170" lon="34.9450700">
    <ele>154.6</ele>
    <time>2018-08-18T04:14:12Z</time>
   </trkpt>
   <trkpt lat="31.9082780" lon="34.9450810">
    <ele>154.7</ele>
    <time>2018-08-18T04:14:14Z</time>
   </trkpt>
   <trkpt lat="31.9082360" lon="34.9451000">
    <ele>154.7</ele>
    <time>2018-08-18T04:14:16Z</time>
   </trkpt>
   <trkpt lat="31.9081950" lon="34.9451310">
    <ele>154.8</ele>
    <time>2018-08-18T04:14:18Z</time>
   </trkpt>
   <trkpt lat="31.9081600" lon="34.9451480">
    <ele>154.9</ele>
    <time>2018-08-18T04:14:20Z</time>
   </trkpt>
   <trkpt lat="31.9081170" lon="34.9451650">
    <ele>154.9</ele>
    <time>2018-08-18T04:14:22Z</time>
   </trkpt>
   <trkpt lat="31.9080730" lon="34.9451780">
    <ele>155.0</ele>
    <time>2018-08-18T04:14:24Z</time>
   </trkpt>
   <trkpt lat="31.9080290" lon="34.9451890">
    <ele>155.1</ele>
    <time>2018-08-18T04:14:26Z</time>
   </trkpt>
   <trkpt lat="31.9079770" lon="34.9452040">
    <ele>155.1</ele>
    <time>2018-08-18T04:14:28Z</time>
   </trkpt>
   <trkpt lat="31.9079460" lon="34.9452060">
    <ele>155.2</ele>
    <time>2018-08-18T04:14:30Z</time>
   </trkpt>
   <trkpt lat="31.9079090" lon="34.9452150">
    <ele>155.2</ele>
    <time>2018-08-18T04:14:32Z</time>
   </trkpt>
   <trkpt lat="31.9078680" lon="34.9452150">
    <ele>155.3</ele>
    <time>2018-08-18T04:14:34Z</time>
   </trkpt>
   <trkpt lat="31.9078300" lon="34.9452150">
    <ele>155.3</ele>
    <time>2018-08-18T04:14:36Z</time>
   </trkpt>
   <trkpt lat="31.9077890" lon="34.9452200">
    <ele>155.4</ele>
    <time>2018-08-18T04:14:38Z</time>
   </trkpt>
   <trkpt lat="31.9077310" lon="34.9452310">
    <ele>155.5</ele>
    <time>2018-08-18T04:14:40Z</time>
   </trkpt>
   <trkpt lat="31.9077040" lon="34.9452350">
    <ele>155.6</ele>
    <time>2018-08-18T04:14:41Z</time>
   </trkpt>
   <trkpt lat="31.9076750" lon="34.9452380">
    <ele>155.6</ele>
    <time>2018-08-18T04:14:42Z</time>
   </trkpt>
   <trkpt lat="31.9076270" lon="34.9452460">
    <ele>155.7</ele>
    <time>2018-08-18T04:14:44Z</time>
   </trkpt>
   <trkpt lat="31.9075800" lon="34.9452610">
    <ele>155.8</ele>
    <time>2018-08-18T04:14:46Z</time>
   </trkpt>
   <trkpt lat="31.9075300" lon="34.9452830">
    <ele>155.9</ele>
    <time>2018-08-18T04:14:48Z</time>
   </trkpt>
   <trkpt lat="31.9074800" lon="34.9453090">
    <ele>155.9</ele>
    <time>2018-08-18T04:14:50Z</time>
   </trkpt>
   <trkpt lat="31.9074380" lon="34.9453460">
    <ele>156.0</ele>
    <time>2018-08-18T04:14:52Z</time>
   </trkpt>
   <trkpt lat="31.9074170" lon="34.9453710">
    <ele>156.0</ele>
    <time>2018-08-18T04:14:53Z</time>
   </trkpt>
   <trkpt lat="31.9073970" lon="34.9453960">
    <ele>156.0</ele>
    <time>2018-08-18T04:14:54Z</time>
   </trkpt>
   <trkpt lat="31.9073760" lon="34.9454230">
    <ele>156.0</ele>
    <time>2018-08-18T04:14:55Z</time>
   </trkpt>
   <trkpt lat="31.9073560" lon="34.9454500">
    <ele>156.0</ele>
    <time>2018-08-18T04:14:56Z</time>
   </trkpt>
   <trkpt lat="31.9073330" lon="34.9454780">
    <ele>156.0</ele>
    <time>2018-08-18T04:14:57Z</time>
   </trkpt>
   <trkpt lat="31.9073120" lon="34.9455040">
    <ele>156.0</ele>
    <time>2018-08-18T04:14:58Z</time>
   </trkpt>
   <trkpt lat="31.9072910" lon="34.9455290">
    <ele>156.0</ele>
    <time>2018-08-18T04:14:59Z</time>
   </trkpt>
   <trkpt lat="31.9072670" lon="34.9455580">
    <ele>155.5</ele>
    <time>2018-08-18T04:15:00Z</time>
   </trkpt>
   <trkpt lat="31.9072400" lon="34.9455880">
    <ele>154.7</ele>
    <time>2018-08-18T04:15:01Z</time>
   </trkpt>
   <trkpt lat="31.9072100" lon="34.9456180">
    <ele>154.3</ele>
    <time>2018-08-18T04:15:02Z</time>
   </trkpt>
   <trkpt lat="31.9071770" lon="34.9456470">
    <ele>153.8</ele>
    <time>2018-08-18T04:15:03Z</time>
   </trkpt>
   <trkpt lat="31.9071390" lon="34.9456780">
    <ele>153.4</ele>
    <time>2018-08-18T04:15:04Z</time>
   </trkpt>
   <trkpt lat="31.9071000" lon="34.9457040">
    <ele>153.0</ele>
    <time>2018-08-18T04:15:05Z</time>
   </trkpt>
   <trkpt lat="31.9070580" lon="34.9457330">
    <ele>152.6</ele>
    <time>2018-08-18T04:15:06Z</time>
   </trkpt>
   <trkpt lat="31.9070120" lon="34.9457670">
    <ele>151.5</ele>
    <time>2018-08-18T04:15:07Z</time>
   </trkpt>
   <trkpt lat="31.9069660" lon="34.9458000">
    <ele>150.5</ele>
    <time>2018-08-18T04:15:08Z</time>
   </trkpt>
   <trkpt lat="31.9069190" lon="34.9458360">
    <ele>150.0</ele>
    <time>2018-08-18T04:15:09Z</time>
   </trkpt>
   <trkpt lat="31.9068690" lon="34.9458750">
    <ele>149.5</ele>
    <time>2018-08-18T04:15:10Z</time>
   </trkpt>
   <trkpt lat="31.9068210" lon="34.9459220">
    <ele>148.8</ele>
    <time>2018-08-18T04:15:11Z</time>
   </trkpt>
   <trkpt lat="31.9067730" lon="34.9459720">
    <ele>147.6</ele>
    <time>2018-08-18T04:15:12Z</time>
   </trkpt>
   <trkpt lat="31.9067230" lon="34.9460150">
    <ele>146.4</ele>
    <time>2018-08-18T04:15:13Z</time>
   </trkpt>
   <trkpt lat="31.9066750" lon="34.9460470">
    <ele>145.9</ele>
    <time>2018-08-18T04:15:14Z</time>
   </trkpt>
   <trkpt lat="31.9066240" lon="34.9460750">
    <ele>145.4</ele>
    <time>2018-08-18T04:15:15Z</time>
   </trkpt>
   <trkpt lat="31.9065650" lon="34.9461030">
    <ele>144.7</ele>
    <time>2018-08-18T04:15:16Z</time>
   </trkpt>
   <trkpt lat="31.9064970" lon="34.9461140">
    <ele>144.3</ele>
    <time>2018-08-18T04:15:17Z</time>
   </trkpt>
   <trkpt lat="31.9064250" lon="34.9461180">
    <ele>143.3</ele>
    <time>2018-08-18T04:15:18Z</time>
   </trkpt>
   <trkpt lat="31.9063500" lon="34.9461150">
    <ele>142.5</ele>
    <time>2018-08-18T04:15:19Z</time>
   </trkpt>
   <trkpt lat="31.9062750" lon="34.9461100">
    <ele>142.1</ele>
    <time>2018-08-18T04:15:20Z</time>
   </trkpt>
   <trkpt lat="31.9062000" lon="34.9461060">
    <ele>141.5</ele>
    <time>2018-08-18T04:15:21Z</time>
   </trkpt>
   <trkpt lat="31.9061250" lon="34.9460980">
    <ele>140.7</ele>
    <time>2018-08-18T04:15:22Z</time>
   </trkpt>
   <trkpt lat="31.9060480" lon="34.9460860">
    <ele>140.2</ele>
    <time>2018-08-18T04:15:23Z</time>
   </trkpt>
   <trkpt lat="31.9059690" lon="34.9460740">
    <ele>139.9</ele>
    <time>2018-08-18T04:15:24Z</time>
   </trkpt>
   <trkpt lat="31.9058910" lon="34.9460620">
    <ele>139.5</ele>
    <time>2018-08-18T04:15:25Z</time>
   </trkpt>
   <trkpt lat="31.9058140" lon="34.9460510">
    <ele>138.9</ele>
    <time>2018-08-18T04:15:26Z</time>
   </trkpt>
   <trkpt lat="31.9057390" lon="34.9460370">
    <ele>138.2</ele>
    <time>2018-08-18T04:15:27Z</time>
   </trkpt>
   <trkpt lat="31.9056660" lon="34.9460200">
    <ele>137.9</ele>
    <time>2018-08-18T04:15:28Z</time>
   </trkpt>
   <trkpt lat="31.9055940" lon="34.9460040">
    <ele>137.7</ele>
    <time>2018-08-18T04:15:29Z</time>
   </trkpt>
   <trkpt lat="31.9055230" lon="34.9459960">
    <ele>137.5</ele>
    <time>2018-08-18T04:15:30Z</time>
   </trkpt>
   <trkpt lat="31.9054530" lon="34.9459930">
    <ele>137.3</ele>
    <time>2018-08-18T04:15:31Z</time>
   </trkpt>
   <trkpt lat="31.9053830" lon="34.9459950">
    <ele>136.9</ele>
    <time>2018-08-18T04:15:32Z</time>
   </trkpt>
   <trkpt lat="31.9053120" lon="34.9459970">
    <ele>136.3</ele>
    <time>2018-08-18T04:15:33Z</time>
   </trkpt>
   <trkpt lat="31.9052430" lon="34.9459990">
    <ele>136.1</ele>
    <time>2018-08-18T04:15:34Z</time>
   </trkpt>
   <trkpt lat="31.9051750" lon="34.9459920">
    <ele>135.9</ele>
    <time>2018-08-18T04:15:35Z</time>
   </trkpt>
   <trkpt lat="31.9051060" lon="34.9459790">
    <ele>135.8</ele>
    <time>2018-08-18T04:15:36Z</time>
   </trkpt>
   <trkpt lat="31.9050360" lon="34.9459680">
    <ele>135.7</ele>
    <time>2018-08-18T04:15:37Z</time>
   </trkpt>
   <trkpt lat="31.9049650" lon="34.9459640">
    <ele>135.6</ele>
    <time>2018-08-18T04:15:38Z</time>
   </trkpt>
   <trkpt lat="31.9048930" lon="34.9459540">
    <ele>135.5</ele>
    <time>2018-08-18T04:15:39Z</time>
   </trkpt>
   <trkpt lat="31.9048250" lon="34.9459290">
    <ele>135.4</ele>
    <time>2018-08-18T04:15:40Z</time>
   </trkpt>
   <trkpt lat="31.9047610" lon="34.9458950">
    <ele>135.3</ele>
    <time>2018-08-18T04:15:41Z</time>
   </trkpt>
   <trkpt lat="31.9046980" lon="34.9458620">
    <ele>135.2</ele>
    <time>2018-08-18T04:15:42Z</time>
   </trkpt>
   <trkpt lat="31.9046340" lon="34.9458280">
    <ele>135.2</ele>
    <time>2018-08-18T04:15:43Z</time>
   </trkpt>
   <trkpt lat="31.9045710" lon="34.9457960">
    <ele>135.0</ele>
    <time>2018-08-18T04:15:44Z</time>
   </trkpt>
   <trkpt lat="31.9045100" lon="34.9457650">
    <ele>134.6</ele>
    <time>2018-08-18T04:15:45Z</time>
   </trkpt>
   <trkpt lat="31.9044510" lon="34.9457330">
    <ele>134.0</ele>
    <time>2018-08-18T04:15:46Z</time>
   </trkpt>
   <trkpt lat="31.9043890" lon="34.9457160">
    <ele>133.7</ele>
    <time>2018-08-18T04:15:47Z</time>
   </trkpt>
   <trkpt lat="31.9043310" lon="34.9456990">
    <ele>133.4</ele>
    <time>2018-08-18T04:15:48Z</time>
   </trkpt>
   <trkpt lat="31.9042740" lon="34.9456790">
    <ele>133.2</ele>
    <time>2018-08-18T04:15:49Z</time>
   </trkpt>
   <trkpt lat="31.9042170" lon="34.9456550">
    <ele>133.0</ele>
    <time>2018-08-18T04:15:50Z</time>
   </trkpt>
   <trkpt lat="31.9041620" lon="34.9456200">
    <ele>132.7</ele>
    <time>2018-08-18T04:15:51Z</time>
   </trkpt>
   <trkpt lat="31.9041110" lon="34.9455820">
    <ele>132.2</ele>
    <time>2018-08-18T04:15:52Z</time>
   </trkpt>
   <trkpt lat="31.9040590" lon="34.9455410">
    <ele>131.7</ele>
    <time>2018-08-18T04:15:53Z</time>
   </trkpt>
   <trkpt lat="31.9040070" lon="34.9454980">
    <ele>131.5</ele>
    <time>2018-08-18T04:15:54Z</time>
   </trkpt>
   <trkpt lat="31.9039530" lon="34.9454530">
    <ele>131.4</ele>
    <time>2018-08-18T04:15:55Z</time>
   </trkpt>
   <trkpt lat="31.9038950" lon="34.9454110">
    <ele>131.3</ele>
    <time>2018-08-18T04:15:56Z</time>
   </trkpt>
   <trkpt lat="31.9038320" lon="34.9453800">
    <ele>131.2</ele>
    <time>2018-08-18T04:15:57Z</time>
   </trkpt>
   <trkpt lat="31.9037660" lon="34.9453650">
    <ele>131.1</ele>
    <time>2018-08-18T04:15:58Z</time>
   </trkpt>
   <trkpt lat="31.9037070" lon="34.9453700">
    <ele>131.1</ele>
    <time>2018-08-18T04:15:59Z</time>
   </trkpt>
   <trkpt lat="31.9036470" lon="34.9453780">
    <ele>131.1</ele>
    <time>2018-08-18T04:16:00Z</time>
   </trkpt>
   <trkpt lat="31.9035860" lon="34.9453890">
    <ele>131.0</ele>
    <time>2018-08-18T04:16:01Z</time>
   </trkpt>
   <trkpt lat="31.9035290" lon="34.9454010">
    <ele>131.0</ele>
    <time>2018-08-18T04:16:02Z</time>
   </trkpt>
   <trkpt lat="31.9034720" lon="34.9454140">
    <ele>131.0</ele>
    <time>2018-08-18T04:16:03Z</time>
   </trkpt>
   <trkpt lat="31.9034180" lon="34.9454280">
    <ele>131.0</ele>
    <time>2018-08-18T04:16:04Z</time>
   </trkpt>
   <trkpt lat="31.9033710" lon="34.9454410">
    <ele>131.0</ele>
    <time>2018-08-18T04:16:05Z</time>
   </trkpt>
   <trkpt lat="31.9033220" lon="34.9454570">
    <ele>131.0</ele>
    <time>2018-08-18T04:16:06Z</time>
   </trkpt>
   <trkpt lat="31.9032750" lon="34.9454690">
    <ele>131.0</ele>
    <time>2018-08-18T04:16:07Z</time>
   </trkpt>
   <trkpt lat="31.9032330" lon="34.9454800">
    <ele>130.9</ele>
    <time>2018-08-18T04:16:08Z</time>
   </trkpt>
   <trkpt lat="31.9031900" lon="34.9454880">
    <ele>130.9</ele>
    <time>2018-08-18T04:16:09Z</time>
   </trkpt>
   <trkpt lat="31.9031430" lon="34.9454880">
    <ele>130.9</ele>
    <time>2018-08-18T04:16:10Z</time>
   </trkpt>
   <trkpt lat="31.9030970" lon="34.9454850">
    <ele>130.9</ele>
    <time>2018-08-18T04:16:11Z</time>
   </trkpt>
   <trkpt lat="31.9030520" lon="34.9454790">
    <ele>130.9</ele>
    <time>2018-08-18T04:16:12Z</time>
   </trkpt>
   <trkpt lat="31.9030060" lon="34.9454720">
    <ele>130.9</ele>
    <time>2018-08-18T04:16:13Z</time>
   </trkpt>
   <trkpt lat="31.9029630" lon="34.9454670">
    <ele>130.9</ele>
    <time>2018-08-18T04:16:14Z</time>
   </trkpt>
   <trkpt lat="31.9029160" lon="34.9454630">
    <ele>130.9</ele>
    <time>2018-08-18T04:16:15Z</time>
   </trkpt>
   <trkpt lat="31.9028660" lon="34.9454530">
    <ele>130.9</ele>
    <time>2018-08-18T04:16:16Z</time>
   </trkpt>
   <trkpt lat="31.9028150" lon="34.9454340">
    <ele>130.9</ele>
    <time>2018-08-18T04:16:17Z</time>
   </trkpt>
   <trkpt lat="31.9027710" lon="34.9454080">
    <ele>130.9</ele>
    <time>2018-08-18T04:16:18Z</time>
   </trkpt>
   <trkpt lat="31.9027290" lon="34.9453830">
    <ele>130.8</ele>
    <time>2018-08-18T04:16:19Z</time>
   </trkpt>
   <trkpt lat="31.9026880" lon="34.9453560">
    <ele>130.8</ele>
    <time>2018-08-18T04:16:20Z</time>
   </trkpt>
   <trkpt lat="31.9026500" lon="34.9453300">
    <ele>130.8</ele>
    <time>2018-08-18T04:16:21Z</time>
   </trkpt>
   <trkpt lat="31.9026120" lon="34.9453010">
    <ele>130.8</ele>
    <time>2018-08-18T04:16:22Z</time>
   </trkpt>
   <trkpt lat="31.9025750" lon="34.9452730">
    <ele>130.7</ele>
    <time>2018-08-18T04:16:23Z</time>
   </trkpt>
   <trkpt lat="31.9025380" lon="34.9452360">
    <ele>130.7</ele>
    <time>2018-08-18T04:16:24Z</time>
   </trkpt>
   <trkpt lat="31.9025150" lon="34.9451870">
    <ele>130.6</ele>
    <time>2018-08-18T04:16:25Z</time>
   </trkpt>
   <trkpt lat="31.9025000" lon="34.9451320">
    <ele>130.6</ele>
    <time>2018-08-18T04:16:26Z</time>
   </trkpt>
   <trkpt lat="31.9024870" lon="34.9450800">
    <ele>130.5</ele>
    <time>2018-08-18T04:16:27Z</time>
   </trkpt>
   <trkpt lat="31.9024650" lon="34.9450260">
    <ele>130.3</ele>
    <time>2018-08-18T04:16:28Z</time>
   </trkpt>
   <trkpt lat="31.9024430" lon="34.9449750">
    <ele>130.1</ele>
    <time>2018-08-18T04:16:29Z</time>
   </trkpt>
   <trkpt lat="31.9024240" lon="34.9449240">
    <ele>129.6</ele>
    <time>2018-08-18T04:16:30Z</time>
   </trkpt>
   <trkpt lat="31.9024030" lon="34.9448720">
    <ele>129.1</ele>
    <time>2018-08-18T04:16:31Z</time>
   </trkpt>
   <trkpt lat="31.9023820" lon="34.9448210">
    <ele>128.5</ele>
    <time>2018-08-18T04:16:32Z</time>
   </trkpt>
   <trkpt lat="31.9023670" lon="34.9447690">
    <ele>128.0</ele>
    <time>2018-08-18T04:16:33Z</time>
   </trkpt>
   <trkpt lat="31.9023470" lon="34.9447120">
    <ele>127.5</ele>
    <time>2018-08-18T04:16:34Z</time>
   </trkpt>
   <trkpt lat="31.9023220" lon="34.9446600">
    <ele>127.3</ele>
    <time>2018-08-18T04:16:35Z</time>
   </trkpt>
   <trkpt lat="31.9022980" lon="34.9446180">
    <ele>127.3</ele>
    <time>2018-08-18T04:16:36Z</time>
   </trkpt>
   <trkpt lat="31.9022650" lon="34.9445820">
    <ele>127.3</ele>
    <time>2018-08-18T04:16:37Z</time>
   </trkpt>
   <trkpt lat="31.9022190" lon="34.9445520">
    <ele>127.5</ele>
    <time>2018-08-18T04:16:38Z</time>
   </trkpt>
   <trkpt lat="31.9021710" lon="34.9445280">
    <ele>127.7</ele>
    <time>2018-08-18T04:16:39Z</time>
   </trkpt>
   <trkpt lat="31.9021160" lon="34.9445220">
    <ele>127.9</ele>
    <time>2018-08-18T04:16:40Z</time>
   </trkpt>
   <trkpt lat="31.9020630" lon="34.9445220">
    <ele>128.4</ele>
    <time>2018-08-18T04:16:41Z</time>
   </trkpt>
   <trkpt lat="31.9020130" lon="34.9445290">
    <ele>128.8</ele>
    <time>2018-08-18T04:16:42Z</time>
   </trkpt>
   <trkpt lat="31.9019680" lon="34.9445440">
    <ele>129.2</ele>
    <time>2018-08-18T04:16:43Z</time>
   </trkpt>
   <trkpt lat="31.9019310" lon="34.9445590">
    <ele>129.4</ele>
    <time>2018-08-18T04:16:44Z</time>
   </trkpt>
   <trkpt lat="31.9018980" lon="34.9445740">
    <ele>129.7</ele>
    <time>2018-08-18T04:16:45Z</time>
   </trkpt>
   <trkpt lat="31.9018710" lon="34.9445900">
    <ele>129.9</ele>
    <time>2018-08-18T04:16:46Z</time>
   </trkpt>
   <trkpt lat="31.9018300" lon="34.9446180">
    <ele>130.1</ele>
    <time>2018-08-18T04:16:48Z</time>
   </trkpt>
   <trkpt lat="31.9017850" lon="34.9446290">
    <ele>130.4</ele>
    <time>2018-08-18T04:16:50Z</time>
   </trkpt>
   <trkpt lat="31.9017360" lon="34.9446460">
    <ele>130.6</ele>
    <time>2018-08-18T04:16:52Z</time>
   </trkpt>
   <trkpt lat="31.9016910" lon="34.9446610">
    <ele>130.9</ele>
    <time>2018-08-18T04:16:54Z</time>
   </trkpt>
   <trkpt lat="31.9016480" lon="34.9446730">
    <ele>131.1</ele>
    <time>2018-08-18T04:16:56Z</time>
   </trkpt>
   <trkpt lat="31.9016050" lon="34.9446780">
    <ele>131.3</ele>
    <time>2018-08-18T04:16:58Z</time>
   </trkpt>
   <trkpt lat="31.9015640" lon="34.9446840">
    <ele>131.6</ele>
    <time>2018-08-18T04:17:00Z</time>
   </trkpt>
   <trkpt lat="31.9015270" lon="34.9446930">
    <ele>131.8</ele>
    <time>2018-08-18T04:17:02Z</time>
   </trkpt>
   <trkpt lat="31.9014860" lon="34.9446990">
    <ele>132.0</ele>
    <time>2018-08-18T04:17:04Z</time>
   </trkpt>
   <trkpt lat="31.9014500" lon="34.9446990">
    <ele>132.3</ele>
    <time>2018-08-18T04:17:06Z</time>
   </trkpt>
   <trkpt lat="31.9014130" lon="34.9447160">
    <ele>132.5</ele>
    <time>2018-08-18T04:17:08Z</time>
   </trkpt>
   <trkpt lat="31.9013760" lon="34.9447380">
    <ele>132.8</ele>
    <time>2018-08-18T04:17:10Z</time>
   </trkpt>
   <trkpt lat="31.9013430" lon="34.9447630">
    <ele>133.1</ele>
    <time>2018-08-18T04:17:12Z</time>
   </trkpt>
   <trkpt lat="31.9013130" lon="34.9447890">
    <ele>133.3</ele>
    <time>2018-08-18T04:17:14Z</time>
   </trkpt>
   <trkpt lat="31.9012910" lon="34.9448260">
    <ele>133.6</ele>
    <time>2018-08-18T04:17:16Z</time>
   </trkpt>
   <trkpt lat="31.9012710" lon="34.9448620">
    <ele>133.8</ele>
    <time>2018-08-18T04:17:18Z</time>
   </trkpt>
   <trkpt lat="31.9012510" lon="34.9449000">
    <ele>134.0</ele>
    <time>2018-08-18T04:17:20Z</time>
   </trkpt>
   <trkpt lat="31.9012340" lon="34.9449440">
    <ele>134.3</ele>
    <time>2018-08-18T04:17:22Z</time>
   </trkpt>
   <trkpt lat="31.9012180" lon="34.9449830">
    <ele>134.5</ele>
    <time>2018-08-18T04:17:24Z</time>
   </trkpt>
   <trkpt lat="31.9012020" lon="34.9450140">
    <ele>134.7</ele>
    <time>2018-08-18T04:17:26Z</time>
   </trkpt>
   <trkpt lat="31.9011860" lon="34.9450420">
    <ele>134.8</ele>
    <time>2018-08-18T04:17:28Z</time>
   </trkpt>
   <trkpt lat="31.9011640" lon="34.9450730">
    <ele>135.0</ele>
    <time>2018-08-18T04:17:30Z</time>
   </trkpt>
   <trkpt lat="31.9011450" lon="34.9451020">
    <ele>135.2</ele>
    <time>2018-08-18T04:17:32Z</time>
   </trkpt>
   <trkpt lat="31.9011260" lon="34.9451320">
    <ele>135.4</ele>
    <time>2018-08-18T04:17:34Z</time>
   </trkpt>
   <trkpt lat="31.9011050" lon="34.9451630">
    <ele>135.5</ele>
    <time>2018-08-18T04:17:36Z</time>
   </trkpt>
   <trkpt lat="31.9010850" lon="34.9451940">
    <ele>135.7</ele>
    <time>2018-08-18T04:17:38Z</time>
   </trkpt>
   <trkpt lat="31.9010690" lon="34.9452310">
    <ele>135.9</ele>
    <time>2018-08-18T04:17:40Z</time>
   </trkpt>
   <trkpt lat="31.9010520" lon="34.9452710">
    <ele>136.1</ele>
    <time>2018-08-18T04:17:42Z</time>
   </trkpt>
   <trkpt lat="31.9010390" lon="34.9453120">
    <ele>136.3</ele>
    <time>2018-08-18T04:17:44Z</time>
   </trkpt>
   <trkpt lat="31.9010280" lon="34.9453570">
    <ele>136.5</ele>
    <time>2018-08-18T04:17:46Z</time>
   </trkpt>
   <trkpt lat="31.9010170" lon="34.9454070">
    <ele>136.8</ele>
    <time>2018-08-18T04:17:48Z</time>
   </trkpt>
   <trkpt lat="31.9010010" lon="34.9454530">
    <ele>137.0</ele>
    <time>2018-08-18T04:17:50Z</time>
   </trkpt>
   <trkpt lat="31.9009830" lon="34.9454940">
    <ele>137.2</ele>
    <time>2018-08-18T04:17:52Z</time>
   </trkpt>
   <trkpt lat="31.9009660" lon="34.9455300">
    <ele>137.4</ele>
    <time>2018-08-18T04:17:54Z</time>
   </trkpt>
   <trkpt lat="31.9009450" lon="34.9455560">
    <ele>137.6</ele>
    <time>2018-08-18T04:17:56Z</time>
   </trkpt>
   <trkpt lat="31.9009230" lon="34.9455830">
    <ele>137.7</ele>
    <time>2018-08-18T04:17:58Z</time>
   </trkpt>
   <trkpt lat="31.9008900" lon="34.9456090">
    <ele>137.9</ele>
    <time>2018-08-18T04:18:00Z</time>
   </trkpt>
   <trkpt lat="31.9008470" lon="34.9456260">
    <ele>138.2</ele>
    <time>2018-08-18T04:18:02Z</time>
   </trkpt>
   <trkpt lat="31.9008100" lon="34.9456390">
    <ele>138.3</ele>
    <time>2018-08-18T04:18:04Z</time>
   </trkpt>
   <trkpt lat="31.9007700" lon="34.9456540">
    <ele>138.5</ele>
    <time>2018-08-18T04:18:06Z</time>
   </trkpt>
   <trkpt lat="31.9007370" lon="34.9456770">
    <ele>138.7</ele>
    <time>2018-08-18T04:18:08Z</time>
   </trkpt>
   <trkpt lat="31.9007040" lon="34.9457040">
    <ele>138.8</ele>
    <time>2018-08-18T04:18:10Z</time>
   </trkpt>
   <trkpt lat="31.9006750" lon="34.9457310">
    <ele>138.9</ele>
    <time>2018-08-18T04:18:12Z</time>
   </trkpt>
   <trkpt lat="31.9006490" lon="34.9457660">
    <ele>139.1</ele>
    <time>2018-08-18T04:18:14Z</time>
   </trkpt>
   <trkpt lat="31.9006230" lon="34.9458030">
    <ele>139.2</ele>
    <time>2018-08-18T04:18:16Z</time>
   </trkpt>
   <trkpt lat="31.9006000" lon="34.9458420">
    <ele>139.3</ele>
    <time>2018-08-18T04:18:18Z</time>
   </trkpt>
   <trkpt lat="31.9005790" lon="34.9458890">
    <ele>139.5</ele>
    <time>2018-08-18T04:18:20Z</time>
   </trkpt>
   <trkpt lat="31.9005510" lon="34.9459300">
    <ele>139.6</ele>
    <time>2018-08-18T04:18:22Z</time>
   </trkpt>
   <trkpt lat="31.9005210" lon="34.9459620">
    <ele>139.8</ele>
    <time>2018-08-18T04:18:24Z</time>
   </trkpt>
   <trkpt lat="31.9004900" lon="34.9459850">
    <ele>139.9</ele>
    <time>2018-08-18T04:18:26Z</time>
   </trkpt>
   <trkpt lat="31.9004560" lon="34.9460080">
    <ele>140.1</ele>
    <time>2018-08-18T04:18:28Z</time>
   </trkpt>
   <trkpt lat="31.9004190" lon="34.9460250">
    <ele>140.2</ele>
    <time>2018-08-18T04:18:30Z</time>
   </trkpt>
   <trkpt lat="31.9003770" lon="34.9460470">
    <ele>140.4</ele>
    <time>2018-08-18T04:18:32Z</time>
   </trkpt>
   <trkpt lat="31.9003300" lon="34.9460690">
    <ele>140.6</ele>
    <time>2018-08-18T04:18:34Z</time>
   </trkpt>
   <trkpt lat="31.9002870" lon="34.9460940">
    <ele>140.8</ele>
    <time>2018-08-18T04:18:36Z</time>
   </trkpt>
   <trkpt lat="31.9002480" lon="34.9461160">
    <ele>141.0</ele>
    <time>2018-08-18T04:18:38Z</time>
   </trkpt>
   <trkpt lat="31.9002130" lon="34.9461620">
    <ele>141.3</ele>
    <time>2018-08-18T04:18:40Z</time>
   </trkpt>
   <trkpt lat="31.9001870" lon="34.9462160">
    <ele>141.6</ele>
    <time>2018-08-18T04:18:42Z</time>
   </trkpt>
   <trkpt lat="31.9001770" lon="34.9462460">
    <ele>141.7</ele>
    <time>2018-08-18T04:18:43Z</time>
   </trkpt>
   <trkpt lat="31.9001710" lon="34.9462790">
    <ele>141.9</ele>
    <time>2018-08-18T04:18:44Z</time>
   </trkpt>
   <trkpt lat="31.9001640" lon="34.9463190">
    <ele>142.1</ele>
    <time>2018-08-18T04:18:45Z</time>
   </trkpt>
   <trkpt lat="31.9001620" lon="34.9463610">
    <ele>142.4</ele>
    <time>2018-08-18T04:18:46Z</time>
   </trkpt>
   <trkpt lat="31.9001590" lon="34.9464070">
    <ele>142.7</ele>
    <time>2018-08-18T04:18:47Z</time>
   </trkpt>
   <trkpt lat="31.9001590" lon="34.9464590">
    <ele>143.0</ele>
    <time>2018-08-18T04:18:48Z</time>
   </trkpt>
   <trkpt lat="31.9001550" lon="34.9465190">
    <ele>142.6</ele>
    <time>2018-08-18T04:18:49Z</time>
   </trkpt>
   <trkpt lat="31.9001360" lon="34.9465830">
    <ele>142.2</ele>
    <time>2018-08-18T04:18:50Z</time>
   </trkpt>
   <trkpt lat="31.9001070" lon="34.9466490">
    <ele>141.8</ele>
    <time>2018-08-18T04:18:51Z</time>
   </trkpt>
   <trkpt lat="31.9000650" lon="34.9467080">
    <ele>140.7</ele>
    <time>2018-08-18T04:18:52Z</time>
   </trkpt>
   <trkpt lat="31.9000180" lon="34.9467540">
    <ele>140.2</ele>
    <time>2018-08-18T04:18:53Z</time>
   </trkpt>
   <trkpt lat="31.8999660" lon="34.9467910">
    <ele>139.8</ele>
    <time>2018-08-18T04:18:54Z</time>
   </trkpt>
   <trkpt lat="31.8999120" lon="34.9468150">
    <ele>139.5</ele>
    <time>2018-08-18T04:18:55Z</time>
   </trkpt>
   <trkpt lat="31.8998580" lon="34.9468420">
    <ele>139.3</ele>
    <time>2018-08-18T04:18:56Z</time>
   </trkpt>
   <trkpt lat="31.8998070" lon="34.9468720">
    <ele>139.1</ele>
    <time>2018-08-18T04:18:57Z</time>
   </trkpt>
   <trkpt lat="31.8997600" lon="34.9469110">
    <ele>138.9</ele>
    <time>2018-08-18T04:18:58Z</time>
   </trkpt>
   <trkpt lat="31.8997210" lon="34.9469590">
    <ele>138.7</ele>
    <time>2018-08-18T04:18:59Z</time>
   </trkpt>
   <trkpt lat="31.8996920" lon="34.9470110">
    <ele>138.6</ele>
    <time>2018-08-18T04:19:00Z</time>
   </trkpt>
   <trkpt lat="31.8996690" lon="34.9470690">
    <ele>138.4</ele>
    <time>2018-08-18T04:19:01Z</time>
   </trkpt>
   <trkpt lat="31.8996600" lon="34.9471370">
    <ele>138.3</ele>
    <time>2018-08-18T04:19:02Z</time>
   </trkpt>
   <trkpt lat="31.8996560" lon="34.9472050">
    <ele>138.1</ele>
    <time>2018-08-18T04:19:03Z</time>
   </trkpt>
   <trkpt lat="31.8996520" lon="34.9472730">
    <ele>137.9</ele>
    <time>2018-08-18T04:19:04Z</time>
   </trkpt>
   <trkpt lat="31.8996410" lon="34.9473360">
    <ele>137.7</ele>
    <time>2018-08-18T04:19:05Z</time>
   </trkpt>
   <trkpt lat="31.8996240" lon="34.9473950">
    <ele>137.3</ele>
    <time>2018-08-18T04:19:06Z</time>
   </trkpt>
   <trkpt lat="31.8995990" lon="34.9474430">
    <ele>136.5</ele>
    <time>2018-08-18T04:19:07Z</time>
   </trkpt>
   <trkpt lat="31.8995610" lon="34.9474790">
    <ele>135.9</ele>
    <time>2018-08-18T04:19:08Z</time>
   </trkpt>
   <trkpt lat="31.8995120" lon="34.9475000">
    <ele>135.5</ele>
    <time>2018-08-18T04:19:09Z</time>
   </trkpt>
   <trkpt lat="31.8994650" lon="34.9475120">
    <ele>135.1</ele>
    <time>2018-08-18T04:19:10Z</time>
   </trkpt>
   <trkpt lat="31.8994100" lon="34.9475200">
    <ele>134.5</ele>
    <time>2018-08-18T04:19:11Z</time>
   </trkpt>
   <trkpt lat="31.8993520" lon="34.9475260">
    <ele>133.4</ele>
    <time>2018-08-18T04:19:12Z</time>
   </trkpt>
   <trkpt lat="31.8992910" lon="34.9475220">
    <ele>132.2</ele>
    <time>2018-08-18T04:19:13Z</time>
   </trkpt>
   <trkpt lat="31.8992290" lon="34.9475080">
    <ele>131.6</ele>
    <time>2018-08-18T04:19:14Z</time>
   </trkpt>
   <trkpt lat="31.8991700" lon="34.9474950">
    <ele>130.6</ele>
    <time>2018-08-18T04:19:15Z</time>
   </trkpt>
   <trkpt lat="31.8991150" lon="34.9474830">
    <ele>129.4</ele>
    <time>2018-08-18T04:19:16Z</time>
   </trkpt>
   <trkpt lat="31.8990600" lon="34.9474690">
    <ele>128.8</ele>
    <time>2018-08-18T04:19:17Z</time>
   </trkpt>
   <trkpt lat="31.8990050" lon="34.9474560">
    <ele>128.3</ele>
    <time>2018-08-18T04:19:18Z</time>
   </trkpt>
   <trkpt lat="31.8989470" lon="34.9474460">
    <ele>127.8</ele>
    <time>2018-08-18T04:19:19Z</time>
   </trkpt>
   <trkpt lat="31.8988880" lon="34.9474340">
    <ele>127.2</ele>
    <time>2018-08-18T04:19:20Z</time>
   </trkpt>
   <trkpt lat="31.8988250" lon="34.9474250">
    <ele>125.8</ele>
    <time>2018-08-18T04:19:21Z</time>
   </trkpt>
   <trkpt lat="31.8987650" lon="34.9474190">
    <ele>125.2</ele>
    <time>2018-08-18T04:19:22Z</time>
   </trkpt>
   <trkpt lat="31.8987120" lon="34.9474140">
    <ele>124.7</ele>
    <time>2018-08-18T04:19:23Z</time>
   </trkpt>
   <trkpt lat="31.8986600" lon="34.9474140">
    <ele>124.3</ele>
    <time>2018-08-18T04:19:24Z</time>
   </trkpt>
   <trkpt lat="31.8986130" lon="34.9474150">
    <ele>124.0</ele>
    <time>2018-08-18T04:19:25Z</time>
   </trkpt>
   <trkpt lat="31.8985660" lon="34.9474250">
    <ele>123.7</ele>
    <time>2018-08-18T04:19:26Z</time>
   </trkpt>
   <trkpt lat="31.8985200" lon="34.9474450">
    <ele>123.1</ele>
    <time>2018-08-18T04:19:27Z</time>
   </trkpt>
   <trkpt lat="31.8984760" lon="34.9474700">
    <ele>122.2</ele>
    <time>2018-08-18T04:19:28Z</time>
   </trkpt>
   <trkpt lat="31.8984340" lon="34.9474980">
    <ele>121.6</ele>
    <time>2018-08-18T04:19:29Z</time>
   </trkpt>
   <trkpt lat="31.8983940" lon="34.9475300">
    <ele>117.0</ele>
    <time>2018-08-18T04:19:30Z</time>
   </trkpt>
   <trkpt lat="31.8983630" lon="34.9475690">
    <ele>117.0</ele>
    <time>2018-08-18T04:19:31Z</time>
   </trkpt>
   <trkpt lat="31.8983410" lon="34.9476090">
    <ele>117.0</ele>
    <time>2018-08-18T04:19:32Z</time>
   </trkpt>
   <trkpt lat="31.8983280" lon="34.9476510">
    <ele>117.0</ele>
    <time>2018-08-18T04:19:33Z</time>
   </trkpt>
   <trkpt lat="31.8983220" lon="34.9476960">
    <ele>117.0</ele>
    <time>2018-08-18T04:19:34Z</time>
   </trkpt>
   <trkpt lat="31.8983250" lon="34.9477450">
    <ele>117.1</ele>
    <time>2018-08-18T04:19:35Z</time>
   </trkpt>
   <trkpt lat="31.8983370" lon="34.9477850">
    <ele>117.2</ele>
    <time>2018-08-18T04:19:36Z</time>
   </trkpt>
   <trkpt lat="31.8983490" lon="34.9478210">
    <ele>117.3</ele>
    <time>2018-08-18T04:19:37Z</time>
   </trkpt>
   <trkpt lat="31.8983590" lon="34.9478550">
    <ele>117.4</ele>
    <time>2018-08-18T04:19:38Z</time>
   </trkpt>
   <trkpt lat="31.8983690" lon="34.9479200">
    <ele>117.6</ele>
    <time>2018-08-18T04:19:40Z</time>
   </trkpt>
   <trkpt lat="31.8983800" lon="34.9479800">
    <ele>117.8</ele>
    <time>2018-08-18T04:19:42Z</time>
   </trkpt>
   <trkpt lat="31.8983860" lon="34.9480140">
    <ele>118.0</ele>
    <time>2018-08-18T04:19:43Z</time>
   </trkpt>
   <trkpt lat="31.8983950" lon="34.9480510">
    <ele>118.1</ele>
    <time>2018-08-18T04:19:44Z</time>
   </trkpt>
   <trkpt lat="31.8984030" lon="34.9480890">
    <ele>118.3</ele>
    <time>2018-08-18T04:19:45Z</time>
   </trkpt>
   <trkpt lat="31.8984110" lon="34.9481250">
    <ele>118.4</ele>
    <time>2018-08-18T04:19:46Z</time>
   </trkpt>
   <trkpt lat="31.8984210" lon="34.9481570">
    <ele>118.6</ele>
    <time>2018-08-18T04:19:47Z</time>
   </trkpt>
   <trkpt lat="31.8984420" lon="34.9481980">
    <ele>118.8</ele>
    <time>2018-08-18T04:19:49Z</time>
   </trkpt>
   <trkpt lat="31.8984700" lon="34.9482430">
    <ele>119.0</ele>
    <time>2018-08-18T04:19:51Z</time>
   </trkpt>
   <trkpt lat="31.8984900" lon="34.9482710">
    <ele>119.1</ele>
    <time>2018-08-18T04:19:52Z</time>
   </trkpt>
   <trkpt lat="31.8985090" lon="34.9482990">
    <ele>119.2</ele>
    <time>2018-08-18T04:19:53Z</time>
   </trkpt>
   <trkpt lat="31.8985260" lon="34.9483260">
    <ele>119.3</ele>
    <time>2018-08-18T04:19:54Z</time>
   </trkpt>
   <trkpt lat="31.8985440" lon="34.9483530">
    <ele>119.4</ele>
    <time>2018-08-18T04:19:55Z</time>
   </trkpt>
   <trkpt lat="31.8985660" lon="34.9483790">
    <ele>119.4</ele>
    <time>2018-08-18T04:19:56Z</time>
   </trkpt>
   <trkpt lat="31.8985860" lon="34.9484050">
    <ele>119.5</ele>
    <time>2018-08-18T04:19:57Z</time>
   </trkpt>
   <trkpt lat="31.8986070" lon="34.9484310">
    <ele>119.5</ele>
    <time>2018-08-18T04:19:58Z</time>
   </trkpt>
   <trkpt lat="31.8986260" lon="34.9484560">
    <ele>119.5</ele>
    <time>2018-08-18T04:19:59Z</time>
   </trkpt>
   <trkpt lat="31.8986430" lon="34.9484840">
    <ele>119.6</ele>
    <time>2018-08-18T04:20:00Z</time>
   </trkpt>
   <trkpt lat="31.8986610" lon="34.9485120">
    <ele>119.6</ele>
    <time>2018-08-18T04:20:01Z</time>
   </trkpt>
   <trkpt lat="31.8986770" lon="34.9485410">
    <ele>119.6</ele>
    <time>2018-08-18T04:20:02Z</time>
   </trkpt>
   <trkpt lat="31.8986970" lon="34.9485710">
    <ele>119.6</ele>
    <time>2018-08-18T04:20:03Z</time>
   </trkpt>
   <trkpt lat="31.8987190" lon="34.9485970">
    <ele>119.7</ele>
    <time>2018-08-18T04:20:04Z</time>
   </trkpt>
   <trkpt lat="31.8987370" lon="34.9486280">
    <ele>119.7</ele>
    <time>2018-08-18T04:20:05Z</time>
   </trkpt>
   <trkpt lat="31.8987520" lon="34.9486550">
    <ele>119.7</ele>
    <time>2018-08-18T04:20:06Z</time>
   </trkpt>
   <trkpt lat="31.8987660" lon="34.9486860">
    <ele>119.7</ele>
    <time>2018-08-18T04:20:07Z</time>
   </trkpt>
   <trkpt lat="31.8987800" lon="34.9487180">
    <ele>119.7</ele>
    <time>2018-08-18T04:20:08Z</time>
   </trkpt>
   <trkpt lat="31.8987940" lon="34.9487490">
    <ele>119.7</ele>
    <time>2018-08-18T04:20:09Z</time>
   </trkpt>
   <trkpt lat="31.8988130" lon="34.9487720">
    <ele>119.8</ele>
    <time>2018-08-18T04:20:10Z</time>
   </trkpt>
   <trkpt lat="31.8988390" lon="34.9488160">
    <ele>119.8</ele>
    <time>2018-08-18T04:20:12Z</time>
   </trkpt>
   <trkpt lat="31.8988660" lon="34.9488570">
    <ele>119.8</ele>
    <time>2018-08-18T04:20:14Z</time>
   </trkpt>
   <trkpt lat="31.8988910" lon="34.9489070">
    <ele>119.8</ele>
    <time>2018-08-18T04:20:16Z</time>
   </trkpt>
   <trkpt lat="31.8989230" lon="34.9489550">
    <ele>119.9</ele>
    <time>2018-08-18T04:20:18Z</time>
   </trkpt>
   <trkpt lat="31.8989400" lon="34.9489830">
    <ele>120.0</ele>
    <time>2018-08-18T04:20:19Z</time>
   </trkpt>
   <trkpt lat="31.8989580" lon="34.9490150">
    <ele>120.0</ele>
    <time>2018-08-18T04:20:20Z</time>
   </trkpt>
   <trkpt lat="31.8989790" lon="34.9490500">
    <ele>120.1</ele>
    <time>2018-08-18T04:20:21Z</time>
   </trkpt>
   <trkpt lat="31.8989980" lon="34.9490890">
    <ele>120.2</ele>
    <time>2018-08-18T04:20:22Z</time>
   </trkpt>
   <trkpt lat="31.8990150" lon="34.9491260">
    <ele>120.3</ele>
    <time>2018-08-18T04:20:23Z</time>
   </trkpt>
   <trkpt lat="31.8990330" lon="34.9491610">
    <ele>120.3</ele>
    <time>2018-08-18T04:20:24Z</time>
   </trkpt>
   <trkpt lat="31.8990520" lon="34.9492000">
    <ele>120.4</ele>
    <time>2018-08-18T04:20:25Z</time>
   </trkpt>
   <trkpt lat="31.8990810" lon="34.9492430">
    <ele>120.5</ele>
    <time>2018-08-18T04:20:26Z</time>
   </trkpt>
   <trkpt lat="31.8991130" lon="34.9492900">
    <ele>120.7</ele>
    <time>2018-08-18T04:20:27Z</time>
   </trkpt>
   <trkpt lat="31.8991330" lon="34.9493230">
    <ele>120.8</ele>
    <time>2018-08-18T04:20:28Z</time>
   </trkpt>
   <trkpt lat="31.8991520" lon="34.9493560">
    <ele>120.8</ele>
    <time>2018-08-18T04:20:29Z</time>
   </trkpt>
   <trkpt lat="31.8991750" lon="34.9493890">
    <ele>121.1</ele>
    <time>2018-08-18T04:20:30Z</time>
   </trkpt>
   <trkpt lat="31.8991960" lon="34.9494200">
    <ele>121.3</ele>
    <time>2018-08-18T04:20:31Z</time>
   </trkpt>
   <trkpt lat="31.8992170" lon="34.9494490">
    <ele>121.5</ele>
    <time>2018-08-18T04:20:32Z</time>
   </trkpt>
   <trkpt lat="31.8992350" lon="34.9494760">
    <ele>121.7</ele>
    <time>2018-08-18T04:20:33Z</time>
   </trkpt>
   <trkpt lat="31.8992540" lon="34.9495030">
    <ele>122.0</ele>
    <time>2018-08-18T04:20:34Z</time>
   </trkpt>
   <trkpt lat="31.8992730" lon="34.9495280">
    <ele>122.2</ele>
    <time>2018-08-18T04:20:35Z</time>
   </trkpt>
   <trkpt lat="31.8992890" lon="34.9495570">
    <ele>122.5</ele>
    <time>2018-08-18T04:20:36Z</time>
   </trkpt>
   <trkpt lat="31.8993090" lon="34.9495820">
    <ele>122.8</ele>
    <time>2018-08-18T04:20:37Z</time>
   </trkpt>
   <trkpt lat="31.8993430" lon="34.9496200">
    <ele>123.2</ele>
    <time>2018-08-18T04:20:39Z</time>
   </trkpt>
   <trkpt lat="31.8993790" lon="34.9496550">
    <ele>123.7</ele>
    <time>2018-08-18T04:20:41Z</time>
   </trkpt>
   <trkpt lat="31.8994170" lon="34.9496950">
    <ele>124.3</ele>
    <time>2018-08-18T04:20:43Z</time>
   </trkpt>
   <trkpt lat="31.8994380" lon="34.9497180">
    <ele>124.6</ele>
    <time>2018-08-18T04:20:44Z</time>
   </trkpt>
   <trkpt lat="31.8994580" lon="34.9497430">
    <ele>124.9</ele>
    <time>2018-08-18T04:20:45Z</time>
   </trkpt>
   <trkpt lat="31.8994780" lon="34.9497660">
    <ele>125.3</ele>
    <time>2018-08-18T04:20:46Z</time>
   </trkpt>
   <trkpt lat="31.8994980" lon="34.9497910">
    <ele>125.6</ele>
    <time>2018-08-18T04:20:47Z</time>
   </trkpt>
   <trkpt lat="31.8995300" lon="34.9498300">
    <ele>126.1</ele>
    <time>2018-08-18T04:20:49Z</time>
   </trkpt>
   <trkpt lat="31.8995590" lon="34.9498690">
    <ele>126.6</ele>
    <time>2018-08-18T04:20:51Z</time>
   </trkpt>
   <trkpt lat="31.8995930" lon="34.9499010">
    <ele>127.0</ele>
    <time>2018-08-18T04:20:53Z</time>
   </trkpt>
   <trkpt lat="31.8996230" lon="34.9499350">
    <ele>127.4</ele>
    <time>2018-08-18T04:20:55Z</time>
   </trkpt>
   <trkpt lat="31.8996610" lon="34.9499650">
    <ele>127.8</ele>
    <time>2018-08-18T04:20:57Z</time>
   </trkpt>
   <trkpt lat="31.8997150" lon="34.9499750">
    <ele>128.2</ele>
    <time>2018-08-18T04:20:59Z</time>
   </trkpt>
   <trkpt lat="31.8997450" lon="34.9499820">
    <ele>128.5</ele>
    <time>2018-08-18T04:21:00Z</time>
   </trkpt>
   <trkpt lat="31.8997730" lon="34.9499920">
    <ele>128.6</ele>
    <time>2018-08-18T04:21:01Z</time>
   </trkpt>
   <trkpt lat="31.8998200" lon="34.9500110">
    <ele>128.8</ele>
    <time>2018-08-18T04:21:03Z</time>
   </trkpt>
   <trkpt lat="31.8998570" lon="34.9500330">
    <ele>129.0</ele>
    <time>2018-08-18T04:21:05Z</time>
   </trkpt>
   <trkpt lat="31.8998880" lon="34.9500490">
    <ele>129.1</ele>
    <time>2018-08-18T04:21:07Z</time>
   </trkpt>
   <trkpt lat="31.8999210" lon="34.9500630">
    <ele>129.2</ele>
    <time>2018-08-18T04:21:09Z</time>
   </trkpt>
   <trkpt lat="31.8999480" lon="34.9500780">
    <ele>129.4</ele>
    <time>2018-08-18T04:21:11Z</time>
   </trkpt>
   <trkpt lat="31.8999820" lon="34.9501010">
    <ele>129.6</ele>
    <time>2018-08-18T04:21:13Z</time>
   </trkpt>
   <trkpt lat="31.9000190" lon="34.9501310">
    <ele>129.9</ele>
    <time>2018-08-18T04:21:15Z</time>
   </trkpt>
   <trkpt lat="31.9000550" lon="34.9501580">
    <ele>130.2</ele>
    <time>2018-08-18T04:21:17Z</time>
   </trkpt>
   <trkpt lat="31.9000840" lon="34.9501920">
    <ele>130.5</ele>
    <time>2018-08-18T04:21:19Z</time>
   </trkpt>
   <trkpt lat="31.9001160" lon="34.9502190">
    <ele>130.9</ele>
    <time>2018-08-18T04:21:21Z</time>
   </trkpt>
   <trkpt lat="31.9001520" lon="34.9502580">
    <ele>131.3</ele>
    <time>2018-08-18T04:21:23Z</time>
   </trkpt>
   <trkpt lat="31.9001850" lon="34.9502950">
    <ele>131.7</ele>
    <time>2018-08-18T04:21:25Z</time>
   </trkpt>
   <trkpt lat="31.9002150" lon="34.9503310">
    <ele>132.1</ele>
    <time>2018-08-18T04:21:27Z</time>
   </trkpt>
   <trkpt lat="31.9002520" lon="34.9503640">
    <ele>132.5</ele>
    <time>2018-08-18T04:21:29Z</time>
   </trkpt>
   <trkpt lat="31.9002830" lon="34.9504030">
    <ele>132.8</ele>
    <time>2018-08-18T04:21:31Z</time>
   </trkpt>
   <trkpt lat="31.9003150" lon="34.9504470">
    <ele>133.1</ele>
    <time>2018-08-18T04:21:33Z</time>
   </trkpt>
   <trkpt lat="31.9003530" lon="34.9504900">
    <ele>133.4</ele>
    <time>2018-08-18T04:21:35Z</time>
   </trkpt>
   <trkpt lat="31.9003850" lon="34.9505280">
    <ele>133.7</ele>
    <time>2018-08-18T04:21:37Z</time>
   </trkpt>
   <trkpt lat="31.9004100" lon="34.9505540">
    <ele>134.0</ele>
    <time>2018-08-18T04:21:39Z</time>
   </trkpt>
   <trkpt lat="31.9004380" lon="34.9505750">
    <ele>134.3</ele>
    <time>2018-08-18T04:21:41Z</time>
   </trkpt>
   <trkpt lat="31.9004640" lon="34.9505990">
    <ele>134.6</ele>
    <time>2018-08-18T04:21:43Z</time>
   </trkpt>
   <trkpt lat="31.9004900" lon="34.9506250">
    <ele>134.9</ele>
    <time>2018-08-18T04:21:45Z</time>
   </trkpt>
   <trkpt lat="31.9005230" lon="34.9506500">
    <ele>135.2</ele>
    <time>2018-08-18T04:21:47Z</time>
   </trkpt>
   <trkpt lat="31.9005540" lon="34.9506690">
    <ele>135.6</ele>
    <time>2018-08-18T04:21:49Z</time>
   </trkpt>
   <trkpt lat="31.9005870" lon="34.9506740">
    <ele>135.9</ele>
    <time>2018-08-18T04:21:51Z</time>
   </trkpt>
   <trkpt lat="31.9006300" lon="34.9506950">
    <ele>136.3</ele>
    <time>2018-08-18T04:21:53Z</time>
   </trkpt>
   <trkpt lat="31.9006700" lon="34.9507150">
    <ele>136.6</ele>
    <time>2018-08-18T04:21:55Z</time>
   </trkpt>
   <trkpt lat="31.9007080" lon="34.9507310">
    <ele>136.9</ele>
    <time>2018-08-18T04:21:57Z</time>
   </trkpt>
   <trkpt lat="31.9007470" lon="34.9507500">
    <ele>137.4</ele>
    <time>2018-08-18T04:21:59Z</time>
   </trkpt>
   <trkpt lat="31.9007850" lon="34.9507630">
    <ele>138.1</ele>
    <time>2018-08-18T04:22:01Z</time>
   </trkpt>
   <trkpt lat="31.9008250" lon="34.9507770">
    <ele>138.9</ele>
    <time>2018-08-18T04:22:03Z</time>
   </trkpt>
   <trkpt lat="31.9008630" lon="34.9507920">
    <ele>139.6</ele>
    <time>2018-08-18T04:22:05Z</time>
   </trkpt>
   <trkpt lat="31.9008960" lon="34.9508050">
    <ele>140.0</ele>
    <time>2018-08-18T04:22:07Z</time>
   </trkpt>
   <trkpt lat="31.9009350" lon="34.9508220">
    <ele>140.1</ele>
    <time>2018-08-18T04:22:09Z</time>
   </trkpt>
   <trkpt lat="31.9009680" lon="34.9508350">
    <ele>140.2</ele>
    <time>2018-08-18T04:22:11Z</time>
   </trkpt>
   <trkpt lat="31.9010030" lon="34.9508470">
    <ele>140.2</ele>
    <time>2018-08-18T04:22:13Z</time>
   </trkpt>
   <trkpt lat="31.9010330" lon="34.9508560">
    <ele>140.2</ele>
    <time>2018-08-18T04:22:15Z</time>
   </trkpt>
   <trkpt lat="31.9010650" lon="34.9508780">
    <ele>140.3</ele>
    <time>2018-08-18T04:22:17Z</time>
   </trkpt>
   <trkpt lat="31.9010950" lon="34.9509030">
    <ele>140.3</ele>
    <time>2018-08-18T04:22:19Z</time>
   </trkpt>
   <trkpt lat="31.9011310" lon="34.9509310">
    <ele>140.4</ele>
    <time>2018-08-18T04:22:21Z</time>
   </trkpt>
   <trkpt lat="31.9011770" lon="34.9509600">
    <ele>140.5</ele>
    <time>2018-08-18T04:22:23Z</time>
   </trkpt>
   <trkpt lat="31.9012020" lon="34.9509740">
    <ele>140.5</ele>
    <time>2018-08-18T04:22:24Z</time>
   </trkpt>
   <trkpt lat="31.9012270" lon="34.9509870">
    <ele>140.5</ele>
    <time>2018-08-18T04:22:25Z</time>
   </trkpt>
   <trkpt lat="31.9012560" lon="34.9509950">
    <ele>140.5</ele>
    <time>2018-08-18T04:22:26Z</time>
   </trkpt>
   <trkpt lat="31.9012840" lon="34.9510030">
    <ele>140.6</ele>
    <time>2018-08-18T04:22:27Z</time>
   </trkpt>
   <trkpt lat="31.9013120" lon="34.9510100">
    <ele>140.6</ele>
    <time>2018-08-18T04:22:28Z</time>
   </trkpt>
   <trkpt lat="31.9013460" lon="34.9510090">
    <ele>140.7</ele>
    <time>2018-08-18T04:22:29Z</time>
   </trkpt>
   <trkpt lat="31.9013790" lon="34.9510050">
    <ele>140.7</ele>
    <time>2018-08-18T04:22:30Z</time>
   </trkpt>
   <trkpt lat="31.9014130" lon="34.9509990">
    <ele>140.7</ele>
    <time>2018-08-18T04:22:31Z</time>
   </trkpt>
   <trkpt lat="31.9014450" lon="34.9509870">
    <ele>140.8</ele>
    <time>2018-08-18T04:22:32Z</time>
   </trkpt>
   <trkpt lat="31.9014760" lon="34.9509740">
    <ele>140.8</ele>
    <time>2018-08-18T04:22:33Z</time>
   </trkpt>
   <trkpt lat="31.9015050" lon="34.9509580">
    <ele>140.8</ele>
    <time>2018-08-18T04:22:34Z</time>
   </trkpt>
   <trkpt lat="31.9015290" lon="34.9509440">
    <ele>140.9</ele>
    <time>2018-08-18T04:22:35Z</time>
   </trkpt>
   <trkpt lat="31.9015550" lon="34.9509310">
    <ele>140.9</ele>
    <time>2018-08-18T04:22:36Z</time>
   </trkpt>
   <trkpt lat="31.9015850" lon="34.9509190">
    <ele>140.9</ele>
    <time>2018-08-18T04:22:37Z</time>
   </trkpt>
   <trkpt lat="31.9016120" lon="34.9509070">
    <ele>140.9</ele>
    <time>2018-08-18T04:22:38Z</time>
   </trkpt>
   <trkpt lat="31.9016630" lon="34.9508890">
    <ele>141.0</ele>
    <time>2018-08-18T04:22:40Z</time>
   </trkpt>
   <trkpt lat="31.9017170" lon="34.9508750">
    <ele>141.0</ele>
    <time>2018-08-18T04:22:42Z</time>
   </trkpt>
   <trkpt lat="31.9017460" lon="34.9508700">
    <ele>141.1</ele>
    <time>2018-08-18T04:22:43Z</time>
   </trkpt>
   <trkpt lat="31.9017740" lon="34.9508660">
    <ele>141.1</ele>
    <time>2018-08-18T04:22:44Z</time>
   </trkpt>
   <trkpt lat="31.9018030" lon="34.9508670">
    <ele>141.2</ele>
    <time>2018-08-18T04:22:45Z</time>
   </trkpt>
   <trkpt lat="31.9018360" lon="34.9508660">
    <ele>141.2</ele>
    <time>2018-08-18T04:22:46Z</time>
   </trkpt>
   <trkpt lat="31.9018660" lon="34.9508650">
    <ele>141.3</ele>
    <time>2018-08-18T04:22:47Z</time>
   </trkpt>
   <trkpt lat="31.9018970" lon="34.9508660">
    <ele>141.3</ele>
    <time>2018-08-18T04:22:48Z</time>
   </trkpt>
   <trkpt lat="31.9019280" lon="34.9508680">
    <ele>141.3</ele>
    <time>2018-08-18T04:22:49Z</time>
   </trkpt>
   <trkpt lat="31.9019580" lon="34.9508670">
    <ele>141.4</ele>
    <time>2018-08-18T04:22:50Z</time>
   </trkpt>
   <trkpt lat="31.9019870" lon="34.9508720">
    <ele>141.4</ele>
    <time>2018-08-18T04:22:51Z</time>
   </trkpt>
   <trkpt lat="31.9020160" lon="34.9508730">
    <ele>141.5</ele>
    <time>2018-08-18T04:22:52Z</time>
   </trkpt>
   <trkpt lat="31.9020440" lon="34.9508730">
    <ele>141.6</ele>
    <time>2018-08-18T04:22:53Z</time>
   </trkpt>
   <trkpt lat="31.9020720" lon="34.9508720">
    <ele>141.7</ele>
    <time>2018-08-18T04:22:54Z</time>
   </trkpt>
   <trkpt lat="31.9020990" lon="34.9508650">
    <ele>141.8</ele>
    <time>2018-08-18T04:22:55Z</time>
   </trkpt>
   <trkpt lat="31.9021240" lon="34.9508530">
    <ele>141.9</ele>
    <time>2018-08-18T04:22:56Z</time>
   </trkpt>
   <trkpt lat="31.9021540" lon="34.9508470">
    <ele>142.1</ele>
    <time>2018-08-18T04:22:57Z</time>
   </trkpt>
   <trkpt lat="31.9021820" lon="34.9508390">
    <ele>142.3</ele>
    <time>2018-08-18T04:22:58Z</time>
   </trkpt>
   <trkpt lat="31.9022090" lon="34.9508310">
    <ele>142.5</ele>
    <time>2018-08-18T04:22:59Z</time>
   </trkpt>
   <trkpt lat="31.9022360" lon="34.9508220">
    <ele>142.7</ele>
    <time>2018-08-18T04:23:00Z</time>
   </trkpt>
   <trkpt lat="31.9022880" lon="34.9508090">
    <ele>143.0</ele>
    <time>2018-08-18T04:23:02Z</time>
   </trkpt>
   <trkpt lat="31.9023170" lon="34.9508040">
    <ele>143.2</ele>
    <time>2018-08-18T04:23:03Z</time>
   </trkpt>
   <trkpt lat="31.9023670" lon="34.9507960">
    <ele>143.4</ele>
    <time>2018-08-18T04:23:05Z</time>
   </trkpt>
   <trkpt lat="31.9024170" lon="34.9507880">
    <ele>143.6</ele>
    <time>2018-08-18T04:23:07Z</time>
   </trkpt>
   <trkpt lat="31.9024660" lon="34.9507830">
    <ele>143.7</ele>
    <time>2018-08-18T04:23:09Z</time>
   </trkpt>
   <trkpt lat="31.9025180" lon="34.9507760">
    <ele>143.8</ele>
    <time>2018-08-18T04:23:11Z</time>
   </trkpt>
   <trkpt lat="31.9025720" lon="34.9507670">
    <ele>143.9</ele>
    <time>2018-08-18T04:23:13Z</time>
   </trkpt>
   <trkpt lat="31.9026220" lon="34.9507580">
    <ele>144.0</ele>
    <time>2018-08-18T04:23:15Z</time>
   </trkpt>
   <trkpt lat="31.9026490" lon="34.9507520">
    <ele>144.1</ele>
    <time>2018-08-18T04:23:16Z</time>
   </trkpt>
   <trkpt lat="31.9027000" lon="34.9507370">
    <ele>144.2</ele>
    <time>2018-08-18T04:23:18Z</time>
   </trkpt>
   <trkpt lat="31.9027460" lon="34.9507290">
    <ele>144.3</ele>
    <time>2018-08-18T04:23:20Z</time>
   </trkpt>
   <trkpt lat="31.9027730" lon="34.9507250">
    <ele>144.4</ele>
    <time>2018-08-18T04:23:21Z</time>
   </trkpt>
   <trkpt lat="31.9028240" lon="34.9507210">
    <ele>144.5</ele>
    <time>2018-08-18T04:23:23Z</time>
   </trkpt>
   <trkpt lat="31.9028710" lon="34.9507320">
    <ele>144.5</ele>
    <time>2018-08-18T04:23:25Z</time>
   </trkpt>
   <trkpt lat="31.9029240" lon="34.9507420">
    <ele>144.6</ele>
    <time>2018-08-18T04:23:27Z</time>
   </trkpt>
   <trkpt lat="31.9029540" lon="34.9507460">
    <ele>144.6</ele>
    <time>2018-08-18T04:23:28Z</time>
   </trkpt>
   <trkpt lat="31.9029810" lon="34.9507490">
    <ele>144.6</ele>
    <time>2018-08-18T04:23:29Z</time>
   </trkpt>
   <trkpt lat="31.9030340" lon="34.9507550">
    <ele>144.6</ele>
    <time>2018-08-18T04:23:31Z</time>
   </trkpt>
   <trkpt lat="31.9030870" lon="34.9507640">
    <ele>144.7</ele>
    <time>2018-08-18T04:23:33Z</time>
   </trkpt>
   <trkpt lat="31.9031420" lon="34.9507650">
    <ele>144.7</ele>
    <time>2018-08-18T04:23:35Z</time>
   </trkpt>
   <trkpt lat="31.9031700" lon="34.9507660">
    <ele>144.7</ele>
    <time>2018-08-18T04:23:36Z</time>
   </trkpt>
   <trkpt lat="31.9031980" lon="34.9507630">
    <ele>144.7</ele>
    <time>2018-08-18T04:23:37Z</time>
   </trkpt>
   <trkpt lat="31.9032290" lon="34.9507590">
    <ele>144.7</ele>
    <time>2018-08-18T04:23:38Z</time>
   </trkpt>
   <trkpt lat="31.9032820" lon="34.9507490">
    <ele>144.8</ele>
    <time>2018-08-18T04:23:40Z</time>
   </trkpt>
   <trkpt lat="31.9033090" lon="34.9507460">
    <ele>144.8</ele>
    <time>2018-08-18T04:23:41Z</time>
   </trkpt>
   <trkpt lat="31.9033400" lon="34.9507420">
    <ele>144.8</ele>
    <time>2018-08-18T04:23:42Z</time>
   </trkpt>
   <trkpt lat="31.9033700" lon="34.9507380">
    <ele>144.8</ele>
    <time>2018-08-18T04:23:43Z</time>
   </trkpt>
   <trkpt lat="31.9034010" lon="34.9507310">
    <ele>144.8</ele>
    <time>2018-08-18T04:23:44Z</time>
   </trkpt>
   <trkpt lat="31.9034290" lon="34.9507310">
    <ele>144.8</ele>
    <time>2018-08-18T04:23:45Z</time>
   </trkpt>
   <trkpt lat="31.9034740" lon="34.9507300">
    <ele>144.8</ele>
    <time>2018-08-18T04:23:47Z</time>
   </trkpt>
   <trkpt lat="31.9035210" lon="34.9507460">
    <ele>144.9</ele>
    <time>2018-08-18T04:23:49Z</time>
   </trkpt>
   <trkpt lat="31.9035630" lon="34.9507640">
    <ele>144.9</ele>
    <time>2018-08-18T04:23:51Z</time>
   </trkpt>
   <trkpt lat="31.9035890" lon="34.9507760">
    <ele>144.9</ele>
    <time>2018-08-18T04:23:52Z</time>
   </trkpt>
   <trkpt lat="31.9036180" lon="34.9507850">
    <ele>144.9</ele>
    <time>2018-08-18T04:23:53Z</time>
   </trkpt>
   <trkpt lat="31.9036470" lon="34.9507960">
    <ele>144.9</ele>
    <time>2018-08-18T04:23:54Z</time>
   </trkpt>
   <trkpt lat="31.9036770" lon="34.9508070">
    <ele>145.0</ele>
    <time>2018-08-18T04:23:55Z</time>
   </trkpt>
   <trkpt lat="31.9037060" lon="34.9508210">
    <ele>145.0</ele>
    <time>2018-08-18T04:23:56Z</time>
   </trkpt>
   <trkpt lat="31.9037380" lon="34.9508360">
    <ele>145.0</ele>
    <time>2018-08-18T04:23:57Z</time>
   </trkpt>
   <trkpt lat="31.9037690" lon="34.9508450">
    <ele>145.0</ele>
    <time>2018-08-18T04:23:58Z</time>
   </trkpt>
   <trkpt lat="31.9037970" lon="34.9508590">
    <ele>145.0</ele>
    <time>2018-08-18T04:23:59Z</time>
   </trkpt>
   <trkpt lat="31.9038240" lon="34.9508710">
    <ele>145.0</ele>
    <time>2018-08-18T04:24:00Z</time>
   </trkpt>
   <trkpt lat="31.9038520" lon="34.9508790">
    <ele>145.0</ele>
    <time>2018-08-18T04:24:01Z</time>
   </trkpt>
   <trkpt lat="31.9038990" lon="34.9509050">
    <ele>145.0</ele>
    <time>2018-08-18T04:24:03Z</time>
   </trkpt>
   <trkpt lat="31.9039480" lon="34.9509250">
    <ele>145.0</ele>
    <time>2018-08-18T04:24:05Z</time>
   </trkpt>
   <trkpt lat="31.9039970" lon="34.9509410">
    <ele>145.0</ele>
    <time>2018-08-18T04:24:07Z</time>
   </trkpt>
   <trkpt lat="31.9040400" lon="34.9509670">
    <ele>145.0</ele>
    <time>2018-08-18T04:24:09Z</time>
   </trkpt>
   <trkpt lat="31.9040790" lon="34.9509900">
    <ele>145.0</ele>
    <time>2018-08-18T04:24:11Z</time>
   </trkpt>
   <trkpt lat="31.9041180" lon="34.9510140">
    <ele>144.9</ele>
    <time>2018-08-18T04:24:13Z</time>
   </trkpt>
   <trkpt lat="31.9041550" lon="34.9510350">
    <ele>144.9</ele>
    <time>2018-08-18T04:24:15Z</time>
   </trkpt>
   <trkpt lat="31.9041910" lon="34.9510540">
    <ele>145.1</ele>
    <time>2018-08-18T04:24:17Z</time>
   </trkpt>
   <trkpt lat="31.9042190" lon="34.9510560">
    <ele>145.3</ele>
    <time>2018-08-18T04:24:19Z</time>
   </trkpt>
   <trkpt lat="31.9042500" lon="34.9510610">
    <ele>145.7</ele>
    <time>2018-08-18T04:24:21Z</time>
   </trkpt>
   <trkpt lat="31.9042920" lon="34.9510700">
    <ele>146.2</ele>
    <time>2018-08-18T04:24:23Z</time>
   </trkpt>
   <trkpt lat="31.9043360" lon="34.9510810">
    <ele>146.9</ele>
    <time>2018-08-18T04:24:25Z</time>
   </trkpt>
   <trkpt lat="31.9043750" lon="34.9510920">
    <ele>147.5</ele>
    <time>2018-08-18T04:24:27Z</time>
   </trkpt>
   <trkpt lat="31.9044010" lon="34.9511060">
    <ele>147.7</ele>
    <time>2018-08-18T04:24:29Z</time>
   </trkpt>
   <trkpt lat="31.9044300" lon="34.9511220">
    <ele>147.9</ele>
    <time>2018-08-18T04:24:31Z</time>
   </trkpt>
   <trkpt lat="31.9044530" lon="34.9511390">
    <ele>148.0</ele>
    <time>2018-08-18T04:24:33Z</time>
   </trkpt>
   <trkpt lat="31.9044840" lon="34.9511700">
    <ele>148.0</ele>
    <time>2018-08-18T04:24:35Z</time>
   </trkpt>
   <trkpt lat="31.9045040" lon="34.9512020">
    <ele>148.0</ele>
    <time>2018-08-18T04:24:37Z</time>
   </trkpt>
   <trkpt lat="31.9045230" lon="34.9512390">
    <ele>148.0</ele>
    <time>2018-08-18T04:24:39Z</time>
   </trkpt>
   <trkpt lat="31.9045360" lon="34.9512870">
    <ele>148.0</ele>
    <time>2018-08-18T04:24:41Z</time>
   </trkpt>
   <trkpt lat="31.9045430" lon="34.9513450">
    <ele>148.0</ele>
    <time>2018-08-18T04:24:43Z</time>
   </trkpt>
   <trkpt lat="31.9045570" lon="34.9514020">
    <ele>148.0</ele>
    <time>2018-08-18T04:24:45Z</time>
   </trkpt>
   <trkpt lat="31.9045700" lon="34.9514560">
    <ele>148.0</ele>
    <time>2018-08-18T04:24:47Z</time>
   </trkpt>
   <trkpt lat="31.9045880" lon="34.9515090">
    <ele>148.0</ele>
    <time>2018-08-18T04:24:49Z</time>
   </trkpt>
   <trkpt lat="31.9046090" lon="34.9515600">
    <ele>148.0</ele>
    <time>2018-08-18T04:24:51Z</time>
   </trkpt>
   <trkpt lat="31.9046300" lon="34.9516080">
    <ele>148.0</ele>
    <time>2018-08-18T04:24:53Z</time>
   </trkpt>
   <trkpt lat="31.9046520" lon="34.9516490">
    <ele>148.3</ele>
    <time>2018-08-18T04:24:55Z</time>
   </trkpt>
   <trkpt lat="31.9046700" lon="34.9517010">
    <ele>148.6</ele>
    <time>2018-08-18T04:24:57Z</time>
   </trkpt>
   <trkpt lat="31.9046960" lon="34.9517540">
    <ele>149.0</ele>
    <time>2018-08-18T04:24:59Z</time>
   </trkpt>
   <trkpt lat="31.9047120" lon="34.9518050">
    <ele>149.3</ele>
    <time>2018-08-18T04:25:01Z</time>
   </trkpt>
   <trkpt lat="31.9047180" lon="34.9518490">
    <ele>149.5</ele>
    <time>2018-08-18T04:25:03Z</time>
   </trkpt>
   <trkpt lat="31.9047340" lon="34.9519050">
    <ele>149.7</ele>
    <time>2018-08-18T04:25:05Z</time>
   </trkpt>
   <trkpt lat="31.9047460" lon="34.9519600">
    <ele>150.0</ele>
    <time>2018-08-18T04:25:07Z</time>
   </trkpt>
   <trkpt lat="31.9047680" lon="34.9520090">
    <ele>150.3</ele>
    <time>2018-08-18T04:25:09Z</time>
   </trkpt>
   <trkpt lat="31.9047910" lon="34.9520560">
    <ele>150.8</ele>
    <time>2018-08-18T04:25:11Z</time>
   </trkpt>
   <trkpt lat="31.9048120" lon="34.9521020">
    <ele>151.1</ele>
    <time>2018-08-18T04:25:13Z</time>
   </trkpt>
   <trkpt lat="31.9048320" lon="34.9521500">
    <ele>151.4</ele>
    <time>2018-08-18T04:25:15Z</time>
   </trkpt>
   <trkpt lat="31.9048540" lon="34.9521960">
    <ele>151.6</ele>
    <time>2018-08-18T04:25:17Z</time>
   </trkpt>
   <trkpt lat="31.9048740" lon="34.9522400">
    <ele>151.8</ele>
    <time>2018-08-18T04:25:19Z</time>
   </trkpt>
   <trkpt lat="31.9048900" lon="34.9522940">
    <ele>152.0</ele>
    <time>2018-08-18T04:25:21Z</time>
   </trkpt>
   <trkpt lat="31.9049050" lon="34.9523480">
    <ele>152.3</ele>
    <time>2018-08-18T04:25:23Z</time>
   </trkpt>
   <trkpt lat="31.9049180" lon="34.9524100">
    <ele>152.6</ele>
    <time>2018-08-18T04:25:25Z</time>
   </trkpt>
   <trkpt lat="31.9049240" lon="34.9524450">
    <ele>152.8</ele>
    <time>2018-08-18T04:25:26Z</time>
   </trkpt>
   <trkpt lat="31.9049290" lon="34.9524820">
    <ele>153.2</ele>
    <time>2018-08-18T04:25:27Z</time>
   </trkpt>
   <trkpt lat="31.9049370" lon="34.9525200">
    <ele>153.4</ele>
    <time>2018-08-18T04:25:28Z</time>
   </trkpt>
   <trkpt lat="31.9049500" lon="34.9525590">
    <ele>153.7</ele>
    <time>2018-08-18T04:25:29Z</time>
   </trkpt>
   <trkpt lat="31.9049600" lon="34.9526000">
    <ele>153.9</ele>
    <time>2018-08-18T04:25:30Z</time>
   </trkpt>
   <trkpt lat="31.9049680" lon="34.9526440">
    <ele>154.2</ele>
    <time>2018-08-18T04:25:31Z</time>
   </trkpt>
   <trkpt lat="31.9049790" lon="34.9526890">
    <ele>154.5</ele>
    <time>2018-08-18T04:25:32Z</time>
   </trkpt>
   <trkpt lat="31.9049880" lon="34.9527320">
    <ele>154.8</ele>
    <time>2018-08-18T04:25:33Z</time>
   </trkpt>
   <trkpt lat="31.9049970" lon="34.9527760">
    <ele>155.0</ele>
    <time>2018-08-18T04:25:34Z</time>
   </trkpt>
   <trkpt lat="31.9050070" lon="34.9528130">
    <ele>155.2</ele>
    <time>2018-08-18T04:25:35Z</time>
   </trkpt>
   <trkpt lat="31.9050150" lon="34.9528480">
    <ele>155.3</ele>
    <time>2018-08-18T04:25:36Z</time>
   </trkpt>
   <trkpt lat="31.9050280" lon="34.9529020">
    <ele>155.6</ele>
    <time>2018-08-18T04:25:38Z</time>
   </trkpt>
   <trkpt lat="31.9050410" lon="34.9529590">
    <ele>156.0</ele>
    <time>2018-08-18T04:25:40Z</time>
   </trkpt>
   <trkpt lat="31.9050500" lon="34.9529930">
    <ele>156.1</ele>
    <time>2018-08-18T04:25:41Z</time>
   </trkpt>
   <trkpt lat="31.9050600" lon="34.9530260">
    <ele>156.2</ele>
    <time>2018-08-18T04:25:42Z</time>
   </trkpt>
   <trkpt lat="31.9050790" lon="34.9530880">
    <ele>156.5</ele>
    <time>2018-08-18T04:25:44Z</time>
   </trkpt>
   <trkpt lat="31.9050920" lon="34.9531210">
    <ele>156.6</ele>
    <time>2018-08-18T04:25:45Z</time>
   </trkpt>
   <trkpt lat="31.9051050" lon="34.9531580">
    <ele>156.8</ele>
    <time>2018-08-18T04:25:46Z</time>
   </trkpt>
   <trkpt lat="31.9051190" lon="34.9531960">
    <ele>156.9</ele>
    <time>2018-08-18T04:25:47Z</time>
   </trkpt>
   <trkpt lat="31.9051330" lon="34.9532360">
    <ele>156.8</ele>
    <time>2018-08-18T04:25:48Z</time>
   </trkpt>
   <trkpt lat="31.9051470" lon="34.9532750">
    <ele>156.5</ele>
    <time>2018-08-18T04:25:49Z</time>
   </trkpt>
   <trkpt lat="31.9051640" lon="34.9533150">
    <ele>156.2</ele>
    <time>2018-08-18T04:25:50Z</time>
   </trkpt>
   <trkpt lat="31.9051830" lon="34.9533530">
    <ele>156.0</ele>
    <time>2018-08-18T04:25:51Z</time>
   </trkpt>
   <trkpt lat="31.9052040" lon="34.9533880">
    <ele>155.8</ele>
    <time>2018-08-18T04:25:52Z</time>
   </trkpt>
   <trkpt lat="31.9052200" lon="34.9534200">
    <ele>155.6</ele>
    <time>2018-08-18T04:25:53Z</time>
   </trkpt>
   <trkpt lat="31.9052390" lon="34.9534520">
    <ele>155.5</ele>
    <time>2018-08-18T04:25:54Z</time>
   </trkpt>
   <trkpt lat="31.9052530" lon="34.9534840">
    <ele>154.4</ele>
    <time>2018-08-18T04:25:55Z</time>
   </trkpt>
   <trkpt lat="31.9052710" lon="34.9535170">
    <ele>153.9</ele>
    <time>2018-08-18T04:25:56Z</time>
   </trkpt>
   <trkpt lat="31.9052870" lon="34.9535490">
    <ele>153.9</ele>
    <time>2018-08-18T04:25:57Z</time>
   </trkpt>
   <trkpt lat="31.9053030" lon="34.9535790">
    <ele>153.9</ele>
    <time>2018-08-18T04:25:58Z</time>
   </trkpt>
   <trkpt lat="31.9053230" lon="34.9536100">
    <ele>154.0</ele>
    <time>2018-08-18T04:25:59Z</time>
   </trkpt>
   <trkpt lat="31.9053400" lon="34.9536400">
    <ele>154.0</ele>
    <time>2018-08-18T04:26:00Z</time>
   </trkpt>
   <trkpt lat="31.9053530" lon="34.9536720">
    <ele>154.0</ele>
    <time>2018-08-18T04:26:01Z</time>
   </trkpt>
   <trkpt lat="31.9053680" lon="34.9537030">
    <ele>154.1</ele>
    <time>2018-08-18T04:26:02Z</time>
   </trkpt>
   <trkpt lat="31.9054020" lon="34.9537480">
    <ele>154.6</ele>
    <time>2018-08-18T04:26:04Z</time>
   </trkpt>
   <trkpt lat="31.9054380" lon="34.9537890">
    <ele>155.2</ele>
    <time>2018-08-18T04:26:06Z</time>
   </trkpt>
   <trkpt lat="31.9054710" lon="34.9538220">
    <ele>155.7</ele>
    <time>2018-08-18T04:26:08Z</time>
   </trkpt>
   <trkpt lat="31.9055130" lon="34.9538410">
    <ele>156.2</ele>
    <time>2018-08-18T04:26:10Z</time>
   </trkpt>
   <trkpt lat="31.9055530" lon="34.9538640">
    <ele>156.7</ele>
    <time>2018-08-18T04:26:12Z</time>
   </trkpt>
   <trkpt lat="31.9055980" lon="34.9538890">
    <ele>157.5</ele>
    <time>2018-08-18T04:26:14Z</time>
   </trkpt>
   <trkpt lat="31.9056270" lon="34.9539070">
    <ele>158.0</ele>
    <time>2018-08-18T04:26:15Z</time>
   </trkpt>
   <trkpt lat="31.9056440" lon="34.9539330">
    <ele>158.5</ele>
    <time>2018-08-18T04:26:16Z</time>
   </trkpt>
   <trkpt lat="31.9056830" lon="34.9539690">
    <ele>159.1</ele>
    <time>2018-08-18T04:26:18Z</time>
   </trkpt>
   <trkpt lat="31.9057160" lon="34.9540080">
    <ele>159.8</ele>
    <time>2018-08-18T04:26:20Z</time>
   </trkpt>
   <trkpt lat="31.9057510" lon="34.9540530">
    <ele>160.5</ele>
    <time>2018-08-18T04:26:22Z</time>
   </trkpt>
   <trkpt lat="31.9057700" lon="34.9540760">
    <ele>161.0</ele>
    <time>2018-08-18T04:26:23Z</time>
   </trkpt>
   <trkpt lat="31.9058030" lon="34.9541140">
    <ele>161.9</ele>
    <time>2018-08-18T04:26:25Z</time>
   </trkpt>
   <trkpt lat="31.9058350" lon="34.9541500">
    <ele>162.4</ele>
    <time>2018-08-18T04:26:27Z</time>
   </trkpt>
   <trkpt lat="31.9058660" lon="34.9541920">
    <ele>162.9</ele>
    <time>2018-08-18T04:26:29Z</time>
   </trkpt>
   <trkpt lat="31.9059010" lon="34.9542390">
    <ele>162.8</ele>
    <time>2018-08-18T04:26:31Z</time>
   </trkpt>
   <trkpt lat="31.9059210" lon="34.9542640">
    <ele>162.7</ele>
    <time>2018-08-18T04:26:32Z</time>
   </trkpt>
   <trkpt lat="31.9059500" lon="34.9543050">
    <ele>162.5</ele>
    <time>2018-08-18T04:26:34Z</time>
   </trkpt>
   <trkpt lat="31.9059780" lon="34.9543490">
    <ele>162.0</ele>
    <time>2018-08-18T04:26:36Z</time>
   </trkpt>
   <trkpt lat="31.9059950" lon="34.9543770">
    <ele>161.7</ele>
    <time>2018-08-18T04:26:37Z</time>
   </trkpt>
   <trkpt lat="31.9060120" lon="34.9544070">
    <ele>161.5</ele>
    <time>2018-08-18T04:26:38Z</time>
   </trkpt>
   <trkpt lat="31.9060250" lon="34.9544380">
    <ele>161.3</ele>
    <time>2018-08-18T04:26:39Z</time>
   </trkpt>
   <trkpt lat="31.9060310" lon="34.9544690">
    <ele>161.0</ele>
    <time>2018-08-18T04:26:40Z</time>
   </trkpt>
   <trkpt lat="31.9060370" lon="34.9545050">
    <ele>160.7</ele>
    <time>2018-08-18T04:26:41Z</time>
   </trkpt>
   <trkpt lat="31.9060360" lon="34.9545420">
    <ele>160.5</ele>
    <time>2018-08-18T04:26:42Z</time>
   </trkpt>
   <trkpt lat="31.9060280" lon="34.9545800">
    <ele>160.3</ele>
    <time>2018-08-18T04:26:43Z</time>
   </trkpt>
   <trkpt lat="31.9060170" lon="34.9546150">
    <ele>160.1</ele>
    <time>2018-08-18T04:26:44Z</time>
   </trkpt>
   <trkpt lat="31.9060010" lon="34.9546470">
    <ele>159.6</ele>
    <time>2018-08-18T04:26:45Z</time>
   </trkpt>
   <trkpt lat="31.9059810" lon="34.9546770">
    <ele>159.4</ele>
    <time>2018-08-18T04:26:46Z</time>
   </trkpt>
   <trkpt lat="31.9059610" lon="34.9547030">
    <ele>158.9</ele>
    <time>2018-08-18T04:26:47Z</time>
   </trkpt>
   <trkpt lat="31.9059350" lon="34.9547260">
    <ele>158.4</ele>
    <time>2018-08-18T04:26:48Z</time>
   </trkpt>
   <trkpt lat="31.9059070" lon="34.9547520">
    <ele>158.2</ele>
    <time>2018-08-18T04:26:49Z</time>
   </trkpt>
   <trkpt lat="31.9058790" lon="34.9547770">
    <ele>157.9</ele>
    <time>2018-08-18T04:26:50Z</time>
   </trkpt>
   <trkpt lat="31.9058470" lon="34.9547990">
    <ele>157.5</ele>
    <time>2018-08-18T04:26:51Z</time>
   </trkpt>
   <trkpt lat="31.9058170" lon="34.9548190">
    <ele>157.1</ele>
    <time>2018-08-18T04:26:52Z</time>
   </trkpt>
   <trkpt lat="31.9057890" lon="34.9548310">
    <ele>156.6</ele>
    <time>2018-08-18T04:26:53Z</time>
   </trkpt>
   <trkpt lat="31.9057630" lon="34.9548450">
    <ele>156.4</ele>
    <time>2018-08-18T04:26:54Z</time>
   </trkpt>
   <trkpt lat="31.9057370" lon="34.9548580">
    <ele>155.7</ele>
    <time>2018-08-18T04:26:55Z</time>
   </trkpt>
   <trkpt lat="31.9057090" lon="34.9548730">
    <ele>155.0</ele>
    <time>2018-08-18T04:26:56Z</time>
   </trkpt>
   <trkpt lat="31.9056810" lon="34.9548920">
    <ele>154.3</ele>
    <time>2018-08-18T04:26:57Z</time>
   </trkpt>
   <trkpt lat="31.9056520" lon="34.9549120">
    <ele>154.1</ele>
    <time>2018-08-18T04:26:58Z</time>
   </trkpt>
   <trkpt lat="31.9056240" lon="34.9549290">
    <ele>153.4</ele>
    <time>2018-08-18T04:26:59Z</time>
   </trkpt>
   <trkpt lat="31.9055950" lon="34.9549450">
    <ele>152.8</ele>
    <time>2018-08-18T04:27:00Z</time>
   </trkpt>
   <trkpt lat="31.9055660" lon="34.9549610">
    <ele>152.1</ele>
    <time>2018-08-18T04:27:01Z</time>
   </trkpt>
   <trkpt lat="31.9055370" lon="34.9549740">
    <ele>151.1</ele>
    <time>2018-08-18T04:27:02Z</time>
   </trkpt>
   <trkpt lat="31.9055060" lon="34.9549830">
    <ele>150.9</ele>
    <time>2018-08-18T04:27:03Z</time>
   </trkpt>
   <trkpt lat="31.9054740" lon="34.9549900">
    <ele>150.1</ele>
    <time>2018-08-18T04:27:04Z</time>
   </trkpt>
   <trkpt lat="31.9054440" lon="34.9549950">
    <ele>149.4</ele>
    <time>2018-08-18T04:27:05Z</time>
   </trkpt>
   <trkpt lat="31.9054160" lon="34.9550020">
    <ele>148.6</ele>
    <time>2018-08-18T04:27:06Z</time>
   </trkpt>
   <trkpt lat="31.9053890" lon="34.9550170">
    <ele>147.9</ele>
    <time>2018-08-18T04:27:07Z</time>
   </trkpt>
   <trkpt lat="31.9053620" lon="34.9550340">
    <ele>147.6</ele>
    <time>2018-08-18T04:27:08Z</time>
   </trkpt>
   <trkpt lat="31.9053350" lon="34.9550540">
    <ele>146.9</ele>
    <time>2018-08-18T04:27:09Z</time>
   </trkpt>
   <trkpt lat="31.9053070" lon="34.9550840">
    <ele>146.4</ele>
    <time>2018-08-18T04:27:10Z</time>
   </trkpt>
   <trkpt lat="31.9052840" lon="34.9551180">
    <ele>146.0</ele>
    <time>2018-08-18T04:27:11Z</time>
   </trkpt>
   <trkpt lat="31.9052620" lon="34.9551580">
    <ele>145.6</ele>
    <time>2018-08-18T04:27:12Z</time>
   </trkpt>
   <trkpt lat="31.9052410" lon="34.9551970">
    <ele>145.2</ele>
    <time>2018-08-18T04:27:13Z</time>
   </trkpt>
   <trkpt lat="31.9052220" lon="34.9552420">
    <ele>144.8</ele>
    <time>2018-08-18T04:27:14Z</time>
   </trkpt>
   <trkpt lat="31.9052070" lon="34.9552880">
    <ele>144.4</ele>
    <time>2018-08-18T04:27:15Z</time>
   </trkpt>
   <trkpt lat="31.9051900" lon="34.9553360">
    <ele>144.0</ele>
    <time>2018-08-18T04:27:16Z</time>
   </trkpt>
   <trkpt lat="31.9051730" lon="34.9553910">
    <ele>143.6</ele>
    <time>2018-08-18T04:27:17Z</time>
   </trkpt>
   <trkpt lat="31.9051620" lon="34.9554440">
    <ele>143.2</ele>
    <time>2018-08-18T04:27:18Z</time>
   </trkpt>
   <trkpt lat="31.9051520" lon="34.9554920">
    <ele>142.8</ele>
    <time>2018-08-18T04:27:19Z</time>
   </trkpt>
   <trkpt lat="31.9051410" lon="34.9555430">
    <ele>142.5</ele>
    <time>2018-08-18T04:27:20Z</time>
   </trkpt>
   <trkpt lat="31.9051370" lon="34.9555930">
    <ele>142.1</ele>
    <time>2018-08-18T04:27:21Z</time>
   </trkpt>
   <trkpt lat="31.9051310" lon="34.9556380">
    <ele>141.8</ele>
    <time>2018-08-18T04:27:22Z</time>
   </trkpt>
   <trkpt lat="31.9051240" lon="34.9556870">
    <ele>141.4</ele>
    <time>2018-08-18T04:27:23Z</time>
   </trkpt>
   <trkpt lat="31.9051140" lon="34.9557350">
    <ele>141.0</ele>
    <time>2018-08-18T04:27:24Z</time>
   </trkpt>
   <trkpt lat="31.9051030" lon="34.9557780">
    <ele>140.7</ele>
    <time>2018-08-18T04:27:25Z</time>
   </trkpt>
   <trkpt lat="31.9050830" lon="34.9558230">
    <ele>140.3</ele>
    <time>2018-08-18T04:27:26Z</time>
   </trkpt>
   <trkpt lat="31.9050650" lon="34.9558640">
    <ele>139.9</ele>
    <time>2018-08-18T04:27:27Z</time>
   </trkpt>
   <trkpt lat="31.9050440" lon="34.9558940">
    <ele>139.6</ele>
    <time>2018-08-18T04:27:28Z</time>
   </trkpt>
   <trkpt lat="31.9050210" lon="34.9559230">
    <ele>139.2</ele>
    <time>2018-08-18T04:27:29Z</time>
   </trkpt>
   <trkpt lat="31.9049980" lon="34.9559510">
    <ele>139.0</ele>
    <time>2018-08-18T04:27:30Z</time>
   </trkpt>
   <trkpt lat="31.9049790" lon="34.9559800">
    <ele>139.0</ele>
    <time>2018-08-18T04:27:31Z</time>
   </trkpt>
   <trkpt lat="31.9049580" lon="34.9560060">
    <ele>139.0</ele>
    <time>2018-08-18T04:27:32Z</time>
   </trkpt>
   <trkpt lat="31.9049330" lon="34.9560300">
    <ele>139.0</ele>
    <time>2018-08-18T04:27:33Z</time>
   </trkpt>
   <trkpt lat="31.9049050" lon="34.9560450">
    <ele>139.0</ele>
    <time>2018-08-18T04:27:34Z</time>
   </trkpt>
   <trkpt lat="31.9048790" lon="34.9560660">
    <ele>139.0</ele>
    <time>2018-08-18T04:27:35Z</time>
   </trkpt>
   <trkpt lat="31.9048530" lon="34.9560920">
    <ele>139.0</ele>
    <time>2018-08-18T04:27:36Z</time>
   </trkpt>
   <trkpt lat="31.9048280" lon="34.9561220">
    <ele>139.0</ele>
    <time>2018-08-18T04:27:37Z</time>
   </trkpt>
   <trkpt lat="31.9048030" lon="34.9561550">
    <ele>139.0</ele>
    <time>2018-08-18T04:27:38Z</time>
   </trkpt>
   <trkpt lat="31.9047780" lon="34.9561910">
    <ele>139.1</ele>
    <time>2018-08-18T04:27:39Z</time>
   </trkpt>
   <trkpt lat="31.9047540" lon="34.9562260">
    <ele>139.2</ele>
    <time>2018-08-18T04:27:40Z</time>
   </trkpt>
   <trkpt lat="31.9047310" lon="34.9562640">
    <ele>139.2</ele>
    <time>2018-08-18T04:27:41Z</time>
   </trkpt>
   <trkpt lat="31.9047110" lon="34.9563050">
    <ele>139.2</ele>
    <time>2018-08-18T04:27:42Z</time>
   </trkpt>
   <trkpt lat="31.9046900" lon="34.9563480">
    <ele>139.0</ele>
    <time>2018-08-18T04:27:43Z</time>
   </trkpt>
   <trkpt lat="31.9046730" lon="34.9563990">
    <ele>139.0</ele>
    <time>2018-08-18T04:27:44Z</time>
   </trkpt>
   <trkpt lat="31.9046660" lon="34.9564500">
    <ele>139.0</ele>
    <time>2018-08-18T04:27:45Z</time>
   </trkpt>
   <trkpt lat="31.9046640" lon="34.9564970">
    <ele>139.0</ele>
    <time>2018-08-18T04:27:46Z</time>
   </trkpt>
   <trkpt lat="31.9046640" lon="34.9565430">
    <ele>139.0</ele>
    <time>2018-08-18T04:27:47Z</time>
   </trkpt>
   <trkpt lat="31.9046660" lon="34.9565880">
    <ele>138.9</ele>
    <time>2018-08-18T04:27:48Z</time>
   </trkpt>
   <trkpt lat="31.9046720" lon="34.9566260">
    <ele>138.9</ele>
    <time>2018-08-18T04:27:49Z</time>
   </trkpt>
   <trkpt lat="31.9046810" lon="34.9566650">
    <ele>138.9</ele>
    <time>2018-08-18T04:27:50Z</time>
   </trkpt>
   <trkpt lat="31.9046920" lon="34.9567040">
    <ele>138.9</ele>
    <time>2018-08-18T04:27:51Z</time>
   </trkpt>
   <trkpt lat="31.9047030" lon="34.9567490">
    <ele>138.9</ele>
    <time>2018-08-18T04:27:52Z</time>
   </trkpt>
   <trkpt lat="31.9047140" lon="34.9567960">
    <ele>138.8</ele>
    <time>2018-08-18T04:27:53Z</time>
   </trkpt>
   <trkpt lat="31.9047290" lon="34.9568430">
    <ele>138.7</ele>
    <time>2018-08-18T04:27:54Z</time>
   </trkpt>
   <trkpt lat="31.9047450" lon="34.9568880">
    <ele>138.6</ele>
    <time>2018-08-18T04:27:55Z</time>
   </trkpt>
   <trkpt lat="31.9047630" lon="34.9569300">
    <ele>138.4</ele>
    <time>2018-08-18T04:27:56Z</time>
   </trkpt>
   <trkpt lat="31.9047770" lon="34.9569750">
    <ele>138.3</ele>
    <time>2018-08-18T04:27:57Z</time>
   </trkpt>
   <trkpt lat="31.9047900" lon="34.9570220">
    <ele>138.2</ele>
    <time>2018-08-18T04:27:58Z</time>
   </trkpt>
   <trkpt lat="31.9048040" lon="34.9570700">
    <ele>138.2</ele>
    <time>2018-08-18T04:27:59Z</time>
   </trkpt>
   <trkpt lat="31.9048220" lon="34.9571160">
    <ele>138.1</ele>
    <time>2018-08-18T04:28:00Z</time>
   </trkpt>
   <trkpt lat="31.9048390" lon="34.9571620">
    <ele>138.0</ele>
    <time>2018-08-18T04:28:01Z</time>
   </trkpt>
   <trkpt lat="31.9048540" lon="34.9572060">
    <ele>138.0</ele>
    <time>2018-08-18T04:28:02Z</time>
   </trkpt>
   <trkpt lat="31.9048710" lon="34.9572500">
    <ele>138.0</ele>
    <time>2018-08-18T04:28:03Z</time>
   </trkpt>
   <trkpt lat="31.9048860" lon="34.9572940">
    <ele>138.0</ele>
    <time>2018-08-18T04:28:04Z</time>
   </trkpt>
   <trkpt lat="31.9049060" lon="34.9573390">
    <ele>137.9</ele>
    <time>2018-08-18T04:28:05Z</time>
   </trkpt>
   <trkpt lat="31.9049230" lon="34.9573860">
    <ele>137.9</ele>
    <time>2018-08-18T04:28:06Z</time>
   </trkpt>
   <trkpt lat="31.9049370" lon="34.9574330">
    <ele>137.9</ele>
    <time>2018-08-18T04:28:07Z</time>
   </trkpt>
   <trkpt lat="31.9049510" lon="34.9574810">
    <ele>137.8</ele>
    <time>2018-08-18T04:28:08Z</time>
   </trkpt>
   <trkpt lat="31.9049660" lon="34.9575270">
    <ele>137.8</ele>
    <time>2018-08-18T04:28:09Z</time>
   </trkpt>
   <trkpt lat="31.9049830" lon="34.9575740">
    <ele>137.8</ele>
    <time>2018-08-18T04:28:10Z</time>
   </trkpt>
   <trkpt lat="31.9050010" lon="34.9576210">
    <ele>137.8</ele>
    <time>2018-08-18T04:28:11Z</time>
   </trkpt>
   <trkpt lat="31.9050150" lon="34.9576720">
    <ele>137.8</ele>
    <time>2018-08-18T04:28:12Z</time>
   </trkpt>
   <trkpt lat="31.9050320" lon="34.9577230">
    <ele>137.7</ele>
    <time>2018-08-18T04:28:13Z</time>
   </trkpt>
   <trkpt lat="31.9050480" lon="34.9577740">
    <ele>137.7</ele>
    <time>2018-08-18T04:28:14Z</time>
   </trkpt>
   <trkpt lat="31.9050660" lon="34.9578230">
    <ele>137.6</ele>
    <time>2018-08-18T04:28:15Z</time>
   </trkpt>
   <trkpt lat="31.9050820" lon="34.9578710">
    <ele>137.5</ele>
    <time>2018-08-18T04:28:16Z</time>
   </trkpt>
   <trkpt lat="31.9050970" lon="34.9579200">
    <ele>137.4</ele>
    <time>2018-08-18T04:28:17Z</time>
   </trkpt>
   <trkpt lat="31.9051130" lon="34.9579690">
    <ele>137.2</ele>
    <time>2018-08-18T04:28:18Z</time>
   </trkpt>
   <trkpt lat="31.9051290" lon="34.9580160">
    <ele>137.0</ele>
    <time>2018-08-18T04:28:19Z</time>
   </trkpt>
   <trkpt lat="31.9051470" lon="34.9580680">
    <ele>137.0</ele>
    <time>2018-08-18T04:28:20Z</time>
   </trkpt>
   <trkpt lat="31.9051640" lon="34.9581220">
    <ele>136.9</ele>
    <time>2018-08-18T04:28:21Z</time>
   </trkpt>
   <trkpt lat="31.9051800" lon="34.9581780">
    <ele>136.8</ele>
    <time>2018-08-18T04:28:22Z</time>
   </trkpt>
   <trkpt lat="31.9051950" lon="34.9582340">
    <ele>136.7</ele>
    <time>2018-08-18T04:28:23Z</time>
   </trkpt>
   <trkpt lat="31.9052110" lon="34.9582910">
    <ele>136.6</ele>
    <time>2018-08-18T04:28:24Z</time>
   </trkpt>
   <trkpt lat="31.9052270" lon="34.9583480">
    <ele>136.4</ele>
    <time>2018-08-18T04:28:25Z</time>
   </trkpt>
   <trkpt lat="31.9052420" lon="34.9584020">
    <ele>136.2</ele>
    <time>2018-08-18T04:28:26Z</time>
   </trkpt>
   <trkpt lat="31.9052560" lon="34.9584550">
    <ele>136.1</ele>
    <time>2018-08-18T04:28:27Z</time>
   </trkpt>
   <trkpt lat="31.9052700" lon="34.9585090">
    <ele>135.9</ele>
    <time>2018-08-18T04:28:28Z</time>
   </trkpt>
   <trkpt lat="31.9052840" lon="34.9585610">
    <ele>135.9</ele>
    <time>2018-08-18T04:28:29Z</time>
   </trkpt>
   <trkpt lat="31.9053000" lon="34.9586150">
    <ele>135.9</ele>
    <time>2018-08-18T04:28:30Z</time>
   </trkpt>
   <trkpt lat="31.9053170" lon="34.9586700">
    <ele>135.8</ele>
    <time>2018-08-18T04:28:31Z</time>
   </trkpt>
   <trkpt lat="31.9053320" lon="34.9587250">
    <ele>135.8</ele>
    <time>2018-08-18T04:28:32Z</time>
   </trkpt>
   <trkpt lat="31.9053480" lon="34.9587800">
    <ele>135.8</ele>
    <time>2018-08-18T04:28:33Z</time>
   </trkpt>
   <trkpt lat="31.9053640" lon="34.9588380">
    <ele>135.8</ele>
    <time>2018-08-18T04:28:34Z</time>
   </trkpt>
   <trkpt lat="31.9053860" lon="34.9588970">
    <ele>135.8</ele>
    <time>2018-08-18T04:28:35Z</time>
   </trkpt>
   <trkpt lat="31.9054090" lon="34.9589560">
    <ele>135.8</ele>
    <time>2018-08-18T04:28:36Z</time>
   </trkpt>
   <trkpt lat="31.9054320" lon="34.9590150">
    <ele>135.8</ele>
    <time>2018-08-18T04:28:37Z</time>
   </trkpt>
   <trkpt lat="31.9054510" lon="34.9590760">
    <ele>135.8</ele>
    <time>2018-08-18T04:28:38Z</time>
   </trkpt>
   <trkpt lat="31.9054750" lon="34.9591320">
    <ele>135.8</ele>
    <time>2018-08-18T04:28:39Z</time>
   </trkpt>
   <trkpt lat="31.9055000" lon="34.9591850">
    <ele>135.9</ele>
    <time>2018-08-18T04:28:40Z</time>
   </trkpt>
   <trkpt lat="31.9055240" lon="34.9592390">
    <ele>135.9</ele>
    <time>2018-08-18T04:28:41Z</time>
   </trkpt>
   <trkpt lat="31.9055500" lon="34.9592950">
    <ele>136.0</ele>
    <time>2018-08-18T04:28:42Z</time>
   </trkpt>
   <trkpt lat="31.9055760" lon="34.9593520">
    <ele>136.0</ele>
    <time>2018-08-18T04:28:43Z</time>
   </trkpt>
   <trkpt lat="31.9056030" lon="34.9594090">
    <ele>136.0</ele>
    <time>2018-08-18T04:28:44Z</time>
   </trkpt>
   <trkpt lat="31.9056320" lon="34.9594630">
    <ele>136.2</ele>
    <time>2018-08-18T04:28:45Z</time>
   </trkpt>
   <trkpt lat="31.9056600" lon="34.9595160">
    <ele>136.5</ele>
    <time>2018-08-18T04:28:46Z</time>
   </trkpt>
   <trkpt lat="31.9056880" lon="34.9595700">
    <ele>136.8</ele>
    <time>2018-08-18T04:28:47Z</time>
   </trkpt>
   <trkpt lat="31.9057140" lon="34.9596190">
    <ele>137.1</ele>
    <time>2018-08-18T04:28:48Z</time>
   </trkpt>
   <trkpt lat="31.9057420" lon="34.9596640">
    <ele>137.3</ele>
    <time>2018-08-18T04:28:49Z</time>
   </trkpt>
   <trkpt lat="31.9057710" lon="34.9597080">
    <ele>137.5</ele>
    <time>2018-08-18T04:28:50Z</time>
   </trkpt>
   <trkpt lat="31.9057970" lon="34.9597510">
    <ele>137.6</ele>
    <time>2018-08-18T04:28:51Z</time>
   </trkpt>
   <trkpt lat="31.9058210" lon="34.9597960">
    <ele>137.6</ele>
    <time>2018-08-18T04:28:52Z</time>
   </trkpt>
   <trkpt lat="31.9058460" lon="34.9598390">
    <ele>137.7</ele>
    <time>2018-08-18T04:28:53Z</time>
   </trkpt>
   <trkpt lat="31.9058710" lon="34.9598830">
    <ele>137.8</ele>
    <time>2018-08-18T04:28:54Z</time>
   </trkpt>
   <trkpt lat="31.9058970" lon="34.9599240">
    <ele>137.9</ele>
    <time>2018-08-18T04:28:55Z</time>
   </trkpt>
   <trkpt lat="31.9059250" lon="34.9599650">
    <ele>137.9</ele>
    <time>2018-08-18T04:28:56Z</time>
   </trkpt>
   <trkpt lat="31.9059520" lon="34.9600060">
    <ele>138.0</ele>
    <time>2018-08-18T04:28:57Z</time>
   </trkpt>
   <trkpt lat="31.9059830" lon="34.9600480">
    <ele>138.1</ele>
    <time>2018-08-18T04:28:58Z</time>
   </trkpt>
   <trkpt lat="31.9060140" lon="34.9600870">
    <ele>138.1</ele>
    <time>2018-08-18T04:28:59Z</time>
   </trkpt>
   <trkpt lat="31.9060450" lon="34.9601270">
    <ele>138.2</ele>
    <time>2018-08-18T04:29:00Z</time>
   </trkpt>
   <trkpt lat="31.9060740" lon="34.9601680">
    <ele>138.2</ele>
    <time>2018-08-18T04:29:01Z</time>
   </trkpt>
   <trkpt lat="31.9061030" lon="34.9602060">
    <ele>138.2</ele>
    <time>2018-08-18T04:29:02Z</time>
   </trkpt>
   <trkpt lat="31.9061320" lon="34.9602430">
    <ele>138.3</ele>
    <time>2018-08-18T04:29:03Z</time>
   </trkpt>
   <trkpt lat="31.9061640" lon="34.9602760">
    <ele>138.3</ele>
    <time>2018-08-18T04:29:04Z</time>
   </trkpt>
   <trkpt lat="31.9061920" lon="34.9603090">
    <ele>138.3</ele>
    <time>2018-08-18T04:29:05Z</time>
   </trkpt>
   <trkpt lat="31.9062190" lon="34.9603430">
    <ele>138.3</ele>
    <time>2018-08-18T04:29:06Z</time>
   </trkpt>
   <trkpt lat="31.9062490" lon="34.9603740">
    <ele>138.4</ele>
    <time>2018-08-18T04:29:07Z</time>
   </trkpt>
   <trkpt lat="31.9062770" lon="34.9604090">
    <ele>138.4</ele>
    <time>2018-08-18T04:29:08Z</time>
   </trkpt>
   <trkpt lat="31.9063090" lon="34.9604430">
    <ele>138.4</ele>
    <time>2018-08-18T04:29:09Z</time>
   </trkpt>
   <trkpt lat="31.9063370" lon="34.9604800">
    <ele>138.5</ele>
    <time>2018-08-18T04:29:10Z</time>
   </trkpt>
   <trkpt lat="31.9063640" lon="34.9605150">
    <ele>138.5</ele>
    <time>2018-08-18T04:29:11Z</time>
   </trkpt>
   <trkpt lat="31.9063930" lon="34.9605440">
    <ele>138.5</ele>
    <time>2018-08-18T04:29:12Z</time>
   </trkpt>
   <trkpt lat="31.9064210" lon="34.9605730">
    <ele>138.5</ele>
    <time>2018-08-18T04:29:13Z</time>
   </trkpt>
   <trkpt lat="31.9064450" lon="34.9606030">
    <ele>138.6</ele>
    <time>2018-08-18T04:29:14Z</time>
   </trkpt>
   <trkpt lat="31.9064670" lon="34.9606330">
    <ele>138.6</ele>
    <time>2018-08-18T04:29:15Z</time>
   </trkpt>
   <trkpt lat="31.9064890" lon="34.9606630">
    <ele>138.6</ele>
    <time>2018-08-18T04:29:16Z</time>
   </trkpt>
   <trkpt lat="31.9065090" lon="34.9606900">
    <ele>138.6</ele>
    <time>2018-08-18T04:29:17Z</time>
   </trkpt>
   <trkpt lat="31.9065300" lon="34.9607180">
    <ele>138.6</ele>
    <time>2018-08-18T04:29:18Z</time>
   </trkpt>
   <trkpt lat="31.9065510" lon="34.9607430">
    <ele>138.6</ele>
    <time>2018-08-18T04:29:19Z</time>
   </trkpt>
   <trkpt lat="31.9065740" lon="34.9607720">
    <ele>138.6</ele>
    <time>2018-08-18T04:29:20Z</time>
   </trkpt>
   <trkpt lat="31.9065990" lon="34.9608030">
    <ele>138.7</ele>
    <time>2018-08-18T04:29:21Z</time>
   </trkpt>
   <trkpt lat="31.9066240" lon="34.9608350">
    <ele>138.7</ele>
    <time>2018-08-18T04:29:22Z</time>
   </trkpt>
   <trkpt lat="31.9066500" lon="34.9608660">
    <ele>138.7</ele>
    <time>2018-08-18T04:29:23Z</time>
   </trkpt>
   <trkpt lat="31.9066760" lon="34.9608980">
    <ele>138.7</ele>
    <time>2018-08-18T04:29:24Z</time>
   </trkpt>
   <trkpt lat="31.9067030" lon="34.9609310">
    <ele>138.7</ele>
    <time>2018-08-18T04:29:25Z</time>
   </trkpt>
   <trkpt lat="31.9067300" lon="34.9609630">
    <ele>138.7</ele>
    <time>2018-08-18T04:29:26Z</time>
   </trkpt>
   <trkpt lat="31.9067540" lon="34.9609920">
    <ele>138.7</ele>
    <time>2018-08-18T04:29:27Z</time>
   </trkpt>
   <trkpt lat="31.9067770" lon="34.9610220">
    <ele>138.8</ele>
    <time>2018-08-18T04:29:28Z</time>
   </trkpt>
   <trkpt lat="31.9067990" lon="34.9610510">
    <ele>138.8</ele>
    <time>2018-08-18T04:29:29Z</time>
   </trkpt>
   <trkpt lat="31.9068200" lon="34.9610820">
    <ele>138.8</ele>
    <time>2018-08-18T04:29:30Z</time>
   </trkpt>
   <trkpt lat="31.9068460" lon="34.9611100">
    <ele>138.8</ele>
    <time>2018-08-18T04:29:31Z</time>
   </trkpt>
   <trkpt lat="31.9068710" lon="34.9611400">
    <ele>139.5</ele>
    <time>2018-08-18T04:29:32Z</time>
   </trkpt>
   <trkpt lat="31.9068950" lon="34.9611690">
    <ele>140.1</ele>
    <time>2018-08-18T04:29:33Z</time>
   </trkpt>
   <trkpt lat="31.9069190" lon="34.9611980">
    <ele>140.2</ele>
    <time>2018-08-18T04:29:34Z</time>
   </trkpt>
   <trkpt lat="31.9069450" lon="34.9612270">
    <ele>140.6</ele>
    <time>2018-08-18T04:29:35Z</time>
   </trkpt>
   <trkpt lat="31.9069690" lon="34.9612540">
    <ele>140.9</ele>
    <time>2018-08-18T04:29:36Z</time>
   </trkpt>
   <trkpt lat="31.9069940" lon="34.9612820">
    <ele>141.1</ele>
    <time>2018-08-18T04:29:37Z</time>
   </trkpt>
   <trkpt lat="31.9070220" lon="34.9613140">
    <ele>141.5</ele>
    <time>2018-08-18T04:29:38Z</time>
   </trkpt>
   <trkpt lat="31.9070500" lon="34.9613450">
    <ele>141.9</ele>
    <time>2018-08-18T04:29:39Z</time>
   </trkpt>
   <trkpt lat="31.9070750" lon="34.9613760">
    <ele>142.1</ele>
    <time>2018-08-18T04:29:40Z</time>
   </trkpt>
   <trkpt lat="31.9070980" lon="34.9614080">
    <ele>142.3</ele>
    <time>2018-08-18T04:29:41Z</time>
   </trkpt>
   <trkpt lat="31.9071220" lon="34.9614390">
    <ele>142.3</ele>
    <time>2018-08-18T04:29:42Z</time>
   </trkpt>
   <trkpt lat="31.9071460" lon="34.9614700">
    <ele>142.3</ele>
    <time>2018-08-18T04:29:43Z</time>
   </trkpt>
   <trkpt lat="31.9071740" lon="34.9615010">
    <ele>142.2</ele>
    <time>2018-08-18T04:29:44Z</time>
   </trkpt>
   <trkpt lat="31.9072020" lon="34.9615320">
    <ele>142.7</ele>
    <time>2018-08-18T04:29:45Z</time>
   </trkpt>
   <trkpt lat="31.9072290" lon="34.9615640">
    <ele>143.1</ele>
    <time>2018-08-18T04:29:46Z</time>
   </trkpt>
   <trkpt lat="31.9072540" lon="34.9615960">
    <ele>143.6</ele>
    <time>2018-08-18T04:29:47Z</time>
   </trkpt>
   <trkpt lat="31.9072790" lon="34.9616260">
    <ele>143.7</ele>
    <time>2018-08-18T04:29:48Z</time>
   </trkpt>
   <trkpt lat="31.9073050" lon="34.9616570">
    <ele>144.0</ele>
    <time>2018-08-18T04:29:49Z</time>
   </trkpt>
   <trkpt lat="31.9073310" lon="34.9616870">
    <ele>144.2</ele>
    <time>2018-08-18T04:29:50Z</time>
   </trkpt>
   <trkpt lat="31.9073550" lon="34.9617180">
    <ele>143.9</ele>
    <time>2018-08-18T04:29:51Z</time>
   </trkpt>
   <trkpt lat="31.9073800" lon="34.9617470">
    <ele>144.5</ele>
    <time>2018-08-18T04:29:52Z</time>
   </trkpt>
   <trkpt lat="31.9074050" lon="34.9617780">
    <ele>144.4</ele>
    <time>2018-08-18T04:29:53Z</time>
   </trkpt>
   <trkpt lat="31.9074320" lon="34.9618080">
    <ele>144.1</ele>
    <time>2018-08-18T04:29:54Z</time>
   </trkpt>
   <trkpt lat="31.9074570" lon="34.9618380">
    <ele>144.4</ele>
    <time>2018-08-18T04:29:55Z</time>
   </trkpt>
   <trkpt lat="31.9074810" lon="34.9618680">
    <ele>144.1</ele>
    <time>2018-08-18T04:29:56Z</time>
   </trkpt>
   <trkpt lat="31.9075060" lon="34.9619010">
    <ele>143.8</ele>
    <time>2018-08-18T04:29:57Z</time>
   </trkpt>
   <trkpt lat="31.9075350" lon="34.9619310">
    <ele>143.6</ele>
    <time>2018-08-18T04:29:58Z</time>
   </trkpt>
   <trkpt lat="31.9075630" lon="34.9619680">
    <ele>143.7</ele>
    <time>2018-08-18T04:29:59Z</time>
   </trkpt>
   <trkpt lat="31.9075890" lon="34.9620050">
    <ele>143.3</ele>
    <time>2018-08-18T04:30:00Z</time>
   </trkpt>
   <trkpt lat="31.9076140" lon="34.9620400">
    <ele>143.0</ele>
    <time>2018-08-18T04:30:01Z</time>
   </trkpt>
   <trkpt lat="31.9076410" lon="34.9620710">
    <ele>142.8</ele>
    <time>2018-08-18T04:30:02Z</time>
   </trkpt>
   <trkpt lat="31.9076670" lon="34.9621020">
    <ele>142.8</ele>
    <time>2018-08-18T04:30:03Z</time>
   </trkpt>
   <trkpt lat="31.9076930" lon="34.9621330">
    <ele>143.0</ele>
    <time>2018-08-18T04:30:04Z</time>
   </trkpt>
   <trkpt lat="31.9077210" lon="34.9621640">
    <ele>143.0</ele>
    <time>2018-08-18T04:30:05Z</time>
   </trkpt>
   <trkpt lat="31.9077500" lon="34.9621970">
    <ele>142.9</ele>
    <time>2018-08-18T04:30:06Z</time>
   </trkpt>
   <trkpt lat="31.9077790" lon="34.9622340">
    <ele>142.6</ele>
    <time>2018-08-18T04:30:07Z</time>
   </trkpt>
   <trkpt lat="31.9078050" lon="34.9622700">
    <ele>142.6</ele>
    <time>2018-08-18T04:30:08Z</time>
   </trkpt>
   <trkpt lat="31.9078320" lon="34.9623080">
    <ele>142.5</ele>
    <time>2018-08-18T04:30:09Z</time>
   </trkpt>
   <trkpt lat="31.9078600" lon="34.9623430">
    <ele>142.4</ele>
    <time>2018-08-18T04:30:10Z</time>
   </trkpt>
   <trkpt lat="31.9078880" lon="34.9623820">
    <ele>142.5</ele>
    <time>2018-08-18T04:30:11Z</time>
   </trkpt>
   <trkpt lat="31.9079170" lon="34.9624190">
    <ele>142.7</ele>
    <time>2018-08-18T04:30:12Z</time>
   </trkpt>
   <trkpt lat="31.9079420" lon="34.9624580">
    <ele>142.9</ele>
    <time>2018-08-18T04:30:13Z</time>
   </trkpt>
   <trkpt lat="31.9079660" lon="34.9624960">
    <ele>143.1</ele>
    <time>2018-08-18T04:30:14Z</time>
   </trkpt>
   <trkpt lat="31.9079900" lon="34.9625330">
    <ele>143.1</ele>
    <time>2018-08-18T04:30:15Z</time>
   </trkpt>
   <trkpt lat="31.9080150" lon="34.9625690">
    <ele>143.2</ele>
    <time>2018-08-18T04:30:16Z</time>
   </trkpt>
   <trkpt lat="31.9080370" lon="34.9626070">
    <ele>143.1</ele>
    <time>2018-08-18T04:30:17Z</time>
   </trkpt>
   <trkpt lat="31.9080600" lon="34.9626440">
    <ele>142.9</ele>
    <time>2018-08-18T04:30:18Z</time>
   </trkpt>
   <trkpt lat="31.9080860" lon="34.9626810">
    <ele>142.7</ele>
    <time>2018-08-18T04:30:19Z</time>
   </trkpt>
   <trkpt lat="31.9081110" lon="34.9627180">
    <ele>142.8</ele>
    <time>2018-08-18T04:30:20Z</time>
   </trkpt>
   <trkpt lat="31.9081340" lon="34.9627550">
    <ele>143.0</ele>
    <time>2018-08-18T04:30:21Z</time>
   </trkpt>
   <trkpt lat="31.9081580" lon="34.9627920">
    <ele>142.8</ele>
    <time>2018-08-18T04:30:22Z</time>
   </trkpt>
   <trkpt lat="31.9081800" lon="34.9628300">
    <ele>143.2</ele>
    <time>2018-08-18T04:30:23Z</time>
   </trkpt>
   <trkpt lat="31.9082030" lon="34.9628680">
    <ele>143.3</ele>
    <time>2018-08-18T04:30:24Z</time>
   </trkpt>
   <trkpt lat="31.9082270" lon="34.9629050">
    <ele>143.3</ele>
    <time>2018-08-18T04:30:25Z</time>
   </trkpt>
   <trkpt lat="31.9082480" lon="34.9629390">
    <ele>143.7</ele>
    <time>2018-08-18T04:30:26Z</time>
   </trkpt>
   <trkpt lat="31.9082710" lon="34.9629660">
    <ele>143.9</ele>
    <time>2018-08-18T04:30:27Z</time>
   </trkpt>
   <trkpt lat="31.9082990" lon="34.9629780">
    <ele>143.9</ele>
    <time>2018-08-18T04:30:28Z</time>
   </trkpt>
   <trkpt lat="31.9083270" lon="34.9629870">
    <ele>144.0</ele>
    <time>2018-08-18T04:30:29Z</time>
   </trkpt>
   <trkpt lat="31.9083560" lon="34.9629860">
    <ele>144.0</ele>
    <time>2018-08-18T04:30:30Z</time>
   </trkpt>
   <trkpt lat="31.9083850" lon="34.9629740">
    <ele>144.0</ele>
    <time>2018-08-18T04:30:31Z</time>
   </trkpt>
   <trkpt lat="31.9084160" lon="34.9629550">
    <ele>144.0</ele>
    <time>2018-08-18T04:30:32Z</time>
   </trkpt>
   <trkpt lat="31.9084410" lon="34.9629300">
    <ele>144.0</ele>
    <time>2018-08-18T04:30:33Z</time>
   </trkpt>
   <trkpt lat="31.9084690" lon="34.9628970">
    <ele>144.0</ele>
    <time>2018-08-18T04:30:35Z</time>
   </trkpt>
   <trkpt lat="31.9085010" lon="34.9628720">
    <ele>144.1</ele>
    <time>2018-08-18T04:30:37Z</time>
   </trkpt>
   <trkpt lat="31.9085390" lon="34.9628520">
    <ele>144.2</ele>
    <time>2018-08-18T04:30:39Z</time>
   </trkpt>
   <trkpt lat="31.9085760" lon="34.9628370">
    <ele>144.6</ele>
    <time>2018-08-18T04:30:41Z</time>
   </trkpt>
   <trkpt lat="31.9086140" lon="34.9628260">
    <ele>144.9</ele>
    <time>2018-08-18T04:30:43Z</time>
   </trkpt>
   <trkpt lat="31.9086540" lon="34.9628070">
    <ele>145.4</ele>
    <time>2018-08-18T04:30:45Z</time>
   </trkpt>
   <trkpt lat="31.9086880" lon="34.9627810">
    <ele>145.9</ele>
    <time>2018-08-18T04:30:47Z</time>
   </trkpt>
   <trkpt lat="31.9087300" lon="34.9627560">
    <ele>146.5</ele>
    <time>2018-08-18T04:30:49Z</time>
   </trkpt>
   <trkpt lat="31.9087690" lon="34.9627350">
    <ele>146.9</ele>
    <time>2018-08-18T04:30:51Z</time>
   </trkpt>
   <trkpt lat="31.9088080" lon="34.9627150">
    <ele>147.3</ele>
    <time>2018-08-18T04:30:53Z</time>
   </trkpt>
   <trkpt lat="31.9088430" lon="34.9626920">
    <ele>147.8</ele>
    <time>2018-08-18T04:30:55Z</time>
   </trkpt>
   <trkpt lat="31.9088770" lon="34.9626740">
    <ele>148.4</ele>
    <time>2018-08-18T04:30:57Z</time>
   </trkpt>
   <trkpt lat="31.9089120" lon="34.9626580">
    <ele>149.0</ele>
    <time>2018-08-18T04:30:59Z</time>
   </trkpt>
   <trkpt lat="31.9089490" lon="34.9626500">
    <ele>149.7</ele>
    <time>2018-08-18T04:31:01Z</time>
   </trkpt>
   <trkpt lat="31.9089850" lon="34.9626390">
    <ele>150.4</ele>
    <time>2018-08-18T04:31:03Z</time>
   </trkpt>
   <trkpt lat="31.9090210" lon="34.9626200">
    <ele>150.7</ele>
    <time>2018-08-18T04:31:05Z</time>
   </trkpt>
   <trkpt lat="31.9090560" lon="34.9626030">
    <ele>150.8</ele>
    <time>2018-08-18T04:31:07Z</time>
   </trkpt>
   <trkpt lat="31.9090960" lon="34.9625940">
    <ele>151.0</ele>
    <time>2018-08-18T04:31:09Z</time>
   </trkpt>
   <trkpt lat="31.9091340" lon="34.9625830">
    <ele>151.4</ele>
    <time>2018-08-18T04:31:11Z</time>
   </trkpt>
   <trkpt lat="31.9091710" lon="34.9625660">
    <ele>151.7</ele>
    <time>2018-08-18T04:31:13Z</time>
   </trkpt>
   <trkpt lat="31.9092030" lon="34.9625560">
    <ele>151.8</ele>
    <time>2018-08-18T04:31:15Z</time>
   </trkpt>
   <trkpt lat="31.9092340" lon="34.9625450">
    <ele>151.9</ele>
    <time>2018-08-18T04:31:17Z</time>
   </trkpt>
   <trkpt lat="31.9092660" lon="34.9625350">
    <ele>151.9</ele>
    <time>2018-08-18T04:31:19Z</time>
   </trkpt>
   <trkpt lat="31.9092990" lon="34.9625260">
    <ele>151.8</ele>
    <time>2018-08-18T04:31:21Z</time>
   </trkpt>
   <trkpt lat="31.9093390" lon="34.9625250">
    <ele>151.6</ele>
    <time>2018-08-18T04:31:23Z</time>
   </trkpt>
   <trkpt lat="31.9093730" lon="34.9625190">
    <ele>151.2</ele>
    <time>2018-08-18T04:31:25Z</time>
   </trkpt>
   <trkpt lat="31.9094080" lon="34.9625130">
    <ele>150.8</ele>
    <time>2018-08-18T04:31:27Z</time>
   </trkpt>
   <trkpt lat="31.9094480" lon="34.9625110">
    <ele>150.4</ele>
    <time>2018-08-18T04:31:29Z</time>
   </trkpt>
   <trkpt lat="31.9094870" lon="34.9625090">
    <ele>150.1</ele>
    <time>2018-08-18T04:31:31Z</time>
   </trkpt>
   <trkpt lat="31.9095260" lon="34.9625090">
    <ele>150.0</ele>
    <time>2018-08-18T04:31:33Z</time>
   </trkpt>
   <trkpt lat="31.9095610" lon="34.9625100">
    <ele>149.9</ele>
    <time>2018-08-18T04:31:35Z</time>
   </trkpt>
   <trkpt lat="31.9096020" lon="34.9625100">
    <ele>150.0</ele>
    <time>2018-08-18T04:31:37Z</time>
   </trkpt>
   <trkpt lat="31.9096410" lon="34.9625150">
    <ele>150.2</ele>
    <time>2018-08-18T04:31:39Z</time>
   </trkpt>
   <trkpt lat="31.9096760" lon="34.9625160">
    <ele>150.4</ele>
    <time>2018-08-18T04:31:41Z</time>
   </trkpt>
   <trkpt lat="31.9097110" lon="34.9625180">
    <ele>150.7</ele>
    <time>2018-08-18T04:31:43Z</time>
   </trkpt>
   <trkpt lat="31.9097460" lon="34.9625210">
    <ele>151.0</ele>
    <time>2018-08-18T04:31:45Z</time>
   </trkpt>
   <trkpt lat="31.9097820" lon="34.9625160">
    <ele>151.3</ele>
    <time>2018-08-18T04:31:47Z</time>
   </trkpt>
   <trkpt lat="31.9098180" lon="34.9625120">
    <ele>151.5</ele>
    <time>2018-08-18T04:31:49Z</time>
   </trkpt>
   <trkpt lat="31.9098550" lon="34.9625090">
    <ele>151.7</ele>
    <time>2018-08-18T04:31:51Z</time>
   </trkpt>
   <trkpt lat="31.9098940" lon="34.9625110">
    <ele>151.8</ele>
    <time>2018-08-18T04:31:53Z</time>
   </trkpt>
   <trkpt lat="31.9099340" lon="34.9625160">
    <ele>152.1</ele>
    <time>2018-08-18T04:31:55Z</time>
   </trkpt>
   <trkpt lat="31.9099720" lon="34.9625120">
    <ele>152.3</ele>
    <time>2018-08-18T04:31:57Z</time>
   </trkpt>
   <trkpt lat="31.9100100" lon="34.9625120">
    <ele>152.8</ele>
    <time>2018-08-18T04:31:59Z</time>
   </trkpt>
   <trkpt lat="31.9100510" lon="34.9625120">
    <ele>153.3</ele>
    <time>2018-08-18T04:32:01Z</time>
   </trkpt>
   <trkpt lat="31.9100930" lon="34.9625150">
    <ele>153.9</ele>
    <time>2018-08-18T04:32:03Z</time>
   </trkpt>
   <trkpt lat="31.9101280" lon="34.9625210">
    <ele>154.3</ele>
    <time>2018-08-18T04:32:05Z</time>
   </trkpt>
   <trkpt lat="31.9101600" lon="34.9625270">
    <ele>154.5</ele>
    <time>2018-08-18T04:32:07Z</time>
   </trkpt>
   <trkpt lat="31.9101950" lon="34.9625340">
    <ele>154.8</ele>
    <time>2018-08-18T04:32:09Z</time>
   </trkpt>
   <trkpt lat="31.9102280" lon="34.9625430">
    <ele>154.9</ele>
    <time>2018-08-18T04:32:11Z</time>
   </trkpt>
   <trkpt lat="31.9102640" lon="34.9625630">
    <ele>155.0</ele>
    <time>2018-08-18T04:32:13Z</time>
   </trkpt>
   <trkpt lat="31.9103030" lon="34.9625830">
    <ele>155.0</ele>
    <time>2018-08-18T04:32:15Z</time>
   </trkpt>
   <trkpt lat="31.9103430" lon="34.9626150">
    <ele>155.0</ele>
    <time>2018-08-18T04:32:17Z</time>
   </trkpt>
   <trkpt lat="31.9103850" lon="34.9626410">
    <ele>155.0</ele>
    <time>2018-08-18T04:32:19Z</time>
   </trkpt>
   <trkpt lat="31.9104350" lon="34.9626590">
    <ele>154.8</ele>
    <time>2018-08-18T04:32:21Z</time>
   </trkpt>
   <trkpt lat="31.9104620" lon="34.9626700">
    <ele>154.7</ele>
    <time>2018-08-18T04:32:22Z</time>
   </trkpt>
   <trkpt lat="31.9104920" lon="34.9626810">
    <ele>154.6</ele>
    <time>2018-08-18T04:32:23Z</time>
   </trkpt>
   <trkpt lat="31.9105230" lon="34.9626880">
    <ele>154.4</ele>
    <time>2018-08-18T04:32:24Z</time>
   </trkpt>
   <trkpt lat="31.9105550" lon="34.9626950">
    <ele>154.2</ele>
    <time>2018-08-18T04:32:25Z</time>
   </trkpt>
   <trkpt lat="31.9106090" lon="34.9627050">
    <ele>154.3</ele>
    <time>2018-08-18T04:32:27Z</time>
   </trkpt>
   <trkpt lat="31.9106360" lon="34.9627100">
    <ele>154.3</ele>
    <time>2018-08-18T04:32:28Z</time>
   </trkpt>
   <trkpt lat="31.9106650" lon="34.9627170">
    <ele>154.4</ele>
    <time>2018-08-18T04:32:29Z</time>
   </trkpt>
   <trkpt lat="31.9106940" lon="34.9627230">
    <ele>154.5</ele>
    <time>2018-08-18T04:32:30Z</time>
   </trkpt>
   <trkpt lat="31.9107230" lon="34.9627310">
    <ele>154.6</ele>
    <time>2018-08-18T04:32:31Z</time>
   </trkpt>
   <trkpt lat="31.9107540" lon="34.9627390">
    <ele>154.7</ele>
    <time>2018-08-18T04:32:32Z</time>
   </trkpt>
   <trkpt lat="31.9107840" lon="34.9627450">
    <ele>154.9</ele>
    <time>2018-08-18T04:32:33Z</time>
   </trkpt>
   <trkpt lat="31.9108150" lon="34.9627490">
    <ele>155.3</ele>
    <time>2018-08-18T04:32:34Z</time>
   </trkpt>
   <trkpt lat="31.9108460" lon="34.9627540">
    <ele>155.6</ele>
    <time>2018-08-18T04:32:35Z</time>
   </trkpt>
   <trkpt lat="31.9108740" lon="34.9627520">
    <ele>155.8</ele>
    <time>2018-08-18T04:32:36Z</time>
   </trkpt>
   <trkpt lat="31.9109010" lon="34.9627460">
    <ele>156.3</ele>
    <time>2018-08-18T04:32:37Z</time>
   </trkpt>
   <trkpt lat="31.9109420" lon="34.9627180">
    <ele>156.7</ele>
    <time>2018-08-18T04:32:39Z</time>
   </trkpt>
   <trkpt lat="31.9109670" lon="34.9626670">
    <ele>157.1</ele>
    <time>2018-08-18T04:32:41Z</time>
   </trkpt>
   <trkpt lat="31.9109790" lon="34.9626200">
    <ele>157.6</ele>
    <time>2018-08-18T04:32:43Z</time>
   </trkpt>
   <trkpt lat="31.9109850" lon="34.9625790">
    <ele>158.0</ele>
    <time>2018-08-18T04:32:45Z</time>
   </trkpt>
   <trkpt lat="31.9109940" lon="34.9625470">
    <ele>158.3</ele>
    <time>2018-08-18T04:32:47Z</time>
   </trkpt>
   <trkpt lat="31.9110030" lon="34.9625120">
    <ele>158.5</ele>
    <time>2018-08-18T04:32:49Z</time>
   </trkpt>
   <trkpt lat="31.9110120" lon="34.9624780">
    <ele>158.8</ele>
    <time>2018-08-18T04:32:51Z</time>
   </trkpt>
   <trkpt lat="31.9110230" lon="34.9624440">
    <ele>159.2</ele>
    <time>2018-08-18T04:32:53Z</time>
   </trkpt>
   <trkpt lat="31.9110330" lon="34.9624070">
    <ele>159.4</ele>
    <time>2018-08-18T04:32:55Z</time>
   </trkpt>
   <trkpt lat="31.9110600" lon="34.9623680">
    <ele>159.7</ele>
    <time>2018-08-18T04:32:58Z</time>
   </trkpt>
   <trkpt lat="31.9110780" lon="34.9623430">
    <ele>159.9</ele>
    <time>2018-08-18T04:33:00Z</time>
   </trkpt>
   <trkpt lat="31.9111100" lon="34.9623140">
    <ele>160.3</ele>
    <time>2018-08-18T04:33:03Z</time>
   </trkpt>
   <trkpt lat="31.9111350" lon="34.9622900">
    <ele>160.6</ele>
    <time>2018-08-18T04:33:05Z</time>
   </trkpt>
   <trkpt lat="31.9111570" lon="34.9622700">
    <ele>160.8</ele>
    <time>2018-08-18T04:33:07Z</time>
   </trkpt>
   <trkpt lat="31.9111790" lon="34.9622500">
    <ele>160.9</ele>
    <time>2018-08-18T04:33:09Z</time>
   </trkpt>
   <trkpt lat="31.9111950" lon="34.9622190">
    <ele>161.1</ele>
    <time>2018-08-18T04:33:11Z</time>
   </trkpt>
   <trkpt lat="31.9111910" lon="34.9621770">
    <ele>161.3</ele>
    <time>2018-08-18T04:33:13Z</time>
   </trkpt>
   <trkpt lat="31.9111910" lon="34.9621400">
    <ele>161.7</ele>
    <time>2018-08-18T04:33:15Z</time>
   </trkpt>
   <trkpt lat="31.9111990" lon="34.9621010">
    <ele>161.9</ele>
    <time>2018-08-18T04:33:17Z</time>
   </trkpt>
   <trkpt lat="31.9112090" lon="34.9620640">
    <ele>162.0</ele>
    <time>2018-08-18T04:33:19Z</time>
   </trkpt>
   <trkpt lat="31.9112200" lon="34.9620280">
    <ele>162.2</ele>
    <time>2018-08-18T04:33:21Z</time>
   </trkpt>
   <trkpt lat="31.9112370" lon="34.9619870">
    <ele>162.3</ele>
    <time>2018-08-18T04:33:24Z</time>
   </trkpt>
   <trkpt lat="31.9112560" lon="34.9619450">
    <ele>162.5</ele>
    <time>2018-08-18T04:33:27Z</time>
   </trkpt>
   <trkpt lat="31.9112820" lon="34.9619230">
    <ele>162.6</ele>
    <time>2018-08-18T04:33:29Z</time>
   </trkpt>
   <trkpt lat="31.9113060" lon="34.9619030">
    <ele>162.7</ele>
    <time>2018-08-18T04:33:31Z</time>
   </trkpt>
   <trkpt lat="31.9113380" lon="34.9618980">
    <ele>162.8</ele>
    <time>2018-08-18T04:33:33Z</time>
   </trkpt>
   <trkpt lat="31.9113820" lon="34.9619110">
    <ele>162.8</ele>
    <time>2018-08-18T04:33:35Z</time>
   </trkpt>
   <trkpt lat="31.9114260" lon="34.9619290">
    <ele>162.8</ele>
    <time>2018-08-18T04:33:37Z</time>
   </trkpt>
   <trkpt lat="31.9114690" lon="34.9619480">
    <ele>162.8</ele>
    <time>2018-08-18T04:33:39Z</time>
   </trkpt>
   <trkpt lat="31.9115050" lon="34.9619690">
    <ele>162.8</ele>
    <time>2018-08-18T04:33:41Z</time>
   </trkpt>
   <trkpt lat="31.9115410" lon="34.9620110">
    <ele>162.8</ele>
    <time>2018-08-18T04:33:43Z</time>
   </trkpt>
   <trkpt lat="31.9115760" lon="34.9620510">
    <ele>162.8</ele>
    <time>2018-08-18T04:33:45Z</time>
   </trkpt>
   <trkpt lat="31.9116020" lon="34.9620860">
    <ele>162.7</ele>
    <time>2018-08-18T04:33:47Z</time>
   </trkpt>
   <trkpt lat="31.9116240" lon="34.9621180">
    <ele>162.7</ele>
    <time>2018-08-18T04:33:49Z</time>
   </trkpt>
   <trkpt lat="31.9116480" lon="34.9621530">
    <ele>162.6</ele>
    <time>2018-08-18T04:33:51Z</time>
   </trkpt>
   <trkpt lat="31.9116750" lon="34.9622090">
    <ele>162.5</ele>
    <time>2018-08-18T04:33:53Z</time>
   </trkpt>
   <trkpt lat="31.9117000" lon="34.9622390">
    <ele>162.4</ele>
    <time>2018-08-18T04:33:54Z</time>
   </trkpt>
   <trkpt lat="31.9117220" lon="34.9622730">
    <ele>162.3</ele>
    <time>2018-08-18T04:33:55Z</time>
   </trkpt>
   <trkpt lat="31.9117410" lon="34.9623070">
    <ele>162.2</ele>
    <time>2018-08-18T04:33:56Z</time>
   </trkpt>
   <trkpt lat="31.9117590" lon="34.9623370">
    <ele>162.1</ele>
    <time>2018-08-18T04:33:57Z</time>
   </trkpt>
   <trkpt lat="31.9117780" lon="34.9623650">
    <ele>162.0</ele>
    <time>2018-08-18T04:33:58Z</time>
   </trkpt>
   <trkpt lat="31.9117970" lon="34.9623930">
    <ele>162.0</ele>
    <time>2018-08-18T04:33:59Z</time>
   </trkpt>
   <trkpt lat="31.9118100" lon="34.9624220">
    <ele>161.9</ele>
    <time>2018-08-18T04:34:00Z</time>
   </trkpt>
   <trkpt lat="31.9118180" lon="34.9624590">
    <ele>161.9</ele>
    <time>2018-08-18T04:34:01Z</time>
   </trkpt>
   <trkpt lat="31.9118250" lon="34.9625020">
    <ele>161.8</ele>
    <time>2018-08-18T04:34:02Z</time>
   </trkpt>
   <trkpt lat="31.9118350" lon="34.9625530">
    <ele>161.8</ele>
    <time>2018-08-18T04:34:03Z</time>
   </trkpt>
   <trkpt lat="31.9118470" lon="34.9626050">
    <ele>161.8</ele>
    <time>2018-08-18T04:34:04Z</time>
   </trkpt>
   <trkpt lat="31.9118690" lon="34.9626560">
    <ele>161.8</ele>
    <time>2018-08-18T04:34:05Z</time>
   </trkpt>
   <trkpt lat="31.9119000" lon="34.9626980">
    <ele>161.9</ele>
    <time>2018-08-18T04:34:06Z</time>
   </trkpt>
   <trkpt lat="31.9119350" lon="34.9627230">
    <ele>162.1</ele>
    <time>2018-08-18T04:34:07Z</time>
   </trkpt>
   <trkpt lat="31.9119670" lon="34.9627420">
    <ele>162.2</ele>
    <time>2018-08-18T04:34:08Z</time>
   </trkpt>
   <trkpt lat="31.9119980" lon="34.9627520">
    <ele>162.5</ele>
    <time>2018-08-18T04:34:09Z</time>
   </trkpt>
   <trkpt lat="31.9120240" lon="34.9627630">
    <ele>162.7</ele>
    <time>2018-08-18T04:34:10Z</time>
   </trkpt>
   <trkpt lat="31.9120680" lon="34.9627800">
    <ele>163.1</ele>
    <time>2018-08-18T04:34:12Z</time>
   </trkpt>
   <trkpt lat="31.9121120" lon="34.9627860">
    <ele>163.7</ele>
    <time>2018-08-18T04:34:14Z</time>
   </trkpt>
   <trkpt lat="31.9121470" lon="34.9627760">
    <ele>164.2</ele>
    <time>2018-08-18T04:34:16Z</time>
   </trkpt>
   <trkpt lat="31.9121810" lon="34.9627540">
    <ele>164.8</ele>
    <time>2018-08-18T04:34:18Z</time>
   </trkpt>
   <trkpt lat="31.9122050" lon="34.9627250">
    <ele>165.2</ele>
    <time>2018-08-18T04:34:20Z</time>
   </trkpt>
   <trkpt lat="31.9122070" lon="34.9626780">
    <ele>165.7</ele>
    <time>2018-08-18T04:34:22Z</time>
   </trkpt>
   <trkpt lat="31.9122220" lon="34.9626390">
    <ele>166.3</ele>
    <time>2018-08-18T04:34:24Z</time>
   </trkpt>
   <trkpt lat="31.9122570" lon="34.9626250">
    <ele>166.7</ele>
    <time>2018-08-18T04:34:26Z</time>
   </trkpt>
   <trkpt lat="31.9122850" lon="34.9626220">
    <ele>166.9</ele>
    <time>2018-08-18T04:34:28Z</time>
   </trkpt>
   <trkpt lat="31.9123190" lon="34.9626260">
    <ele>167.1</ele>
    <time>2018-08-18T04:34:30Z</time>
   </trkpt>
   <trkpt lat="31.9123580" lon="34.9626350">
    <ele>167.7</ele>
    <time>2018-08-18T04:34:32Z</time>
   </trkpt>
   <trkpt lat="31.9123910" lon="34.9626370">
    <ele>168.1</ele>
    <time>2018-08-18T04:34:34Z</time>
   </trkpt>
   <trkpt lat="31.9124180" lon="34.9626220">
    <ele>168.4</ele>
    <time>2018-08-18T04:34:36Z</time>
   </trkpt>
   <trkpt lat="31.9124400" lon="34.9625980">
    <ele>168.9</ele>
    <time>2018-08-18T04:34:38Z</time>
   </trkpt>
   <trkpt lat="31.9124540" lon="34.9625650">
    <ele>169.1</ele>
    <time>2018-08-18T04:34:40Z</time>
   </trkpt>
   <trkpt lat="31.9124530" lon="34.9625220">
    <ele>169.4</ele>
    <time>2018-08-18T04:34:42Z</time>
   </trkpt>
   <trkpt lat="31.9124420" lon="34.9624810">
    <ele>169.7</ele>
    <time>2018-08-18T04:34:44Z</time>
   </trkpt>
   <trkpt lat="31.9124250" lon="34.9624550">
    <ele>170.1</ele>
    <time>2018-08-18T04:34:46Z</time>
   </trkpt>
   <trkpt lat="31.9124100" lon="34.9624210">
    <ele>170.5</ele>
    <time>2018-08-18T04:34:48Z</time>
   </trkpt>
   <trkpt lat="31.9124040" lon="34.9623800">
    <ele>170.8</ele>
    <time>2018-08-18T04:34:50Z</time>
   </trkpt>
   <trkpt lat="31.9123940" lon="34.9623440">
    <ele>171.1</ele>
    <time>2018-08-18T04:34:52Z</time>
   </trkpt>
   <trkpt lat="31.9123910" lon="34.9623120">
    <ele>171.6</ele>
    <time>2018-08-18T04:34:54Z</time>
   </trkpt>
   <trkpt lat="31.9123870" lon="34.9622740">
    <ele>172.0</ele>
    <time>2018-08-18T04:34:56Z</time>
   </trkpt>
   <trkpt lat="31.9123910" lon="34.9622420">
    <ele>172.3</ele>
    <time>2018-08-18T04:34:58Z</time>
   </trkpt>
   <trkpt lat="31.9124000" lon="34.9622020">
    <ele>172.7</ele>
    <time>2018-08-18T04:35:00Z</time>
   </trkpt>
   <trkpt lat="31.9124120" lon="34.9621730">
    <ele>173.0</ele>
    <time>2018-08-18T04:35:02Z</time>
   </trkpt>
   <trkpt lat="31.9124320" lon="34.9621480">
    <ele>173.4</ele>
    <time>2018-08-18T04:35:04Z</time>
   </trkpt>
   <trkpt lat="31.9124520" lon="34.9621220">
    <ele>173.6</ele>
    <time>2018-08-18T04:35:06Z</time>
   </trkpt>
   <trkpt lat="31.9124800" lon="34.9621110">
    <ele>173.8</ele>
    <time>2018-08-18T04:35:08Z</time>
   </trkpt>
   <trkpt lat="31.9125090" lon="34.9621000">
    <ele>174.1</ele>
    <time>2018-08-18T04:35:10Z</time>
   </trkpt>
   <trkpt lat="31.9125420" lon="34.9620880">
    <ele>174.4</ele>
    <time>2018-08-18T04:35:12Z</time>
   </trkpt>
   <trkpt lat="31.9125700" lon="34.9620770">
    <ele>174.7</ele>
    <time>2018-08-18T04:35:14Z</time>
   </trkpt>
   <trkpt lat="31.9126070" lon="34.9620590">
    <ele>175.1</ele>
    <time>2018-08-18T04:35:17Z</time>
   </trkpt>
   <trkpt lat="31.9126350" lon="34.9620460">
    <ele>175.4</ele>
    <time>2018-08-18T04:35:19Z</time>
   </trkpt>
   <trkpt lat="31.9126680" lon="34.9620290">
    <ele>175.6</ele>
    <time>2018-08-18T04:35:21Z</time>
   </trkpt>
   <trkpt lat="31.9127050" lon="34.9620120">
    <ele>175.9</ele>
    <time>2018-08-18T04:35:23Z</time>
   </trkpt>
   <trkpt lat="31.9127410" lon="34.9619940">
    <ele>176.3</ele>
    <time>2018-08-18T04:35:25Z</time>
   </trkpt>
   <trkpt lat="31.9127770" lon="34.9619760">
    <ele>176.7</ele>
    <time>2018-08-18T04:35:27Z</time>
   </trkpt>
   <trkpt lat="31.9128010" lon="34.9619550">
    <ele>176.7</ele>
    <time>2018-08-18T04:35:29Z</time>
   </trkpt>
   <trkpt lat="31.9128220" lon="34.9619270">
    <ele>176.9</ele>
    <time>2018-08-18T04:35:32Z</time>
   </trkpt>
   <trkpt lat="31.9128520" lon="34.9619150">
    <ele>177.0</ele>
    <time>2018-08-18T04:35:34Z</time>
   </trkpt>
   <trkpt lat="31.9128980" lon="34.9619100">
    <ele>177.1</ele>
    <time>2018-08-18T04:35:36Z</time>
   </trkpt>
   <trkpt lat="31.9129250" lon="34.9619070">
    <ele>177.2</ele>
    <time>2018-08-18T04:35:37Z</time>
   </trkpt>
   <trkpt lat="31.9129760" lon="34.9618990">
    <ele>177.3</ele>
    <time>2018-08-18T04:35:39Z</time>
   </trkpt>
   <trkpt lat="31.9130070" lon="34.9619000">
    <ele>177.4</ele>
    <time>2018-08-18T04:35:40Z</time>
   </trkpt>
   <trkpt lat="31.9130600" lon="34.9618910">
    <ele>177.5</ele>
    <time>2018-08-18T04:35:42Z</time>
   </trkpt>
   <trkpt lat="31.9130890" lon="34.9618880">
    <ele>177.5</ele>
    <time>2018-08-18T04:35:43Z</time>
   </trkpt>
   <trkpt lat="31.9131460" lon="34.9618760">
    <ele>177.7</ele>
    <time>2018-08-18T04:35:45Z</time>
   </trkpt>
   <trkpt lat="31.9131770" lon="34.9618730">
    <ele>177.7</ele>
    <time>2018-08-18T04:35:46Z</time>
   </trkpt>
   <trkpt lat="31.9132070" lon="34.9618720">
    <ele>177.7</ele>
    <time>2018-08-18T04:35:47Z</time>
   </trkpt>
   <trkpt lat="31.9132550" lon="34.9618610">
    <ele>177.8</ele>
    <time>2018-08-18T04:35:49Z</time>
   </trkpt>
   <trkpt lat="31.9133070" lon="34.9618510">
    <ele>177.9</ele>
    <time>2018-08-18T04:35:51Z</time>
   </trkpt>
   <trkpt lat="31.9133540" lon="34.9618520">
    <ele>177.9</ele>
    <time>2018-08-18T04:35:53Z</time>
   </trkpt>
   <trkpt lat="31.9133920" lon="34.9618620">
    <ele>177.9</ele>
    <time>2018-08-18T04:35:55Z</time>
   </trkpt>
   <trkpt lat="31.9134170" lon="34.9618920">
    <ele>177.9</ele>
    <time>2018-08-18T04:35:57Z</time>
   </trkpt>
   <trkpt lat="31.9134440" lon="34.9619330">
    <ele>177.8</ele>
    <time>2018-08-18T04:35:59Z</time>
   </trkpt>
   <trkpt lat="31.9134970" lon="34.9619700">
    <ele>177.6</ele>
    <time>2018-08-18T04:36:01Z</time>
   </trkpt>
   <trkpt lat="31.9135390" lon="34.9619760">
    <ele>177.5</ele>
    <time>2018-08-18T04:36:02Z</time>
   </trkpt>
   <trkpt lat="31.9135810" lon="34.9619680">
    <ele>177.3</ele>
    <time>2018-08-18T04:36:03Z</time>
   </trkpt>
   <trkpt lat="31.9136220" lon="34.9619530">
    <ele>177.2</ele>
    <time>2018-08-18T04:36:04Z</time>
   </trkpt>
   <trkpt lat="31.9136620" lon="34.9619360">
    <ele>177.1</ele>
    <time>2018-08-18T04:36:05Z</time>
   </trkpt>
   <trkpt lat="31.9137010" lon="34.9619170">
    <ele>177.0</ele>
    <time>2018-08-18T04:36:06Z</time>
   </trkpt>
   <trkpt lat="31.9137370" lon="34.9618980">
    <ele>176.9</ele>
    <time>2018-08-18T04:36:07Z</time>
   </trkpt>
   <trkpt lat="31.9137680" lon="34.9618780">
    <ele>176.9</ele>
    <time>2018-08-18T04:36:08Z</time>
   </trkpt>
   <trkpt lat="31.9137960" lon="34.9618660">
    <ele>176.9</ele>
    <time>2018-08-18T04:36:09Z</time>
   </trkpt>
   <trkpt lat="31.9138430" lon="34.9618440">
    <ele>176.8</ele>
    <time>2018-08-18T04:36:11Z</time>
   </trkpt>
   <trkpt lat="31.9138890" lon="34.9618250">
    <ele>176.8</ele>
    <time>2018-08-18T04:36:13Z</time>
   </trkpt>
   <trkpt lat="31.9139190" lon="34.9618130">
    <ele>176.8</ele>
    <time>2018-08-18T04:36:14Z</time>
   </trkpt>
   <trkpt lat="31.9139500" lon="34.9618010">
    <ele>176.8</ele>
    <time>2018-08-18T04:36:15Z</time>
   </trkpt>
   <trkpt lat="31.9139800" lon="34.9617910">
    <ele>176.8</ele>
    <time>2018-08-18T04:36:16Z</time>
   </trkpt>
   <trkpt lat="31.9140090" lon="34.9617790">
    <ele>176.7</ele>
    <time>2018-08-18T04:36:17Z</time>
   </trkpt>
   <trkpt lat="31.9140390" lon="34.9617620">
    <ele>176.7</ele>
    <time>2018-08-18T04:36:18Z</time>
   </trkpt>
   <trkpt lat="31.9140670" lon="34.9617480">
    <ele>176.7</ele>
    <time>2018-08-18T04:36:19Z</time>
   </trkpt>
   <trkpt lat="31.9140930" lon="34.9617330">
    <ele>176.7</ele>
    <time>2018-08-18T04:36:20Z</time>
   </trkpt>
   <trkpt lat="31.9141210" lon="34.9617210">
    <ele>176.7</ele>
    <time>2018-08-18T04:36:21Z</time>
   </trkpt>
   <trkpt lat="31.9141500" lon="34.9617100">
    <ele>176.7</ele>
    <time>2018-08-18T04:36:22Z</time>
   </trkpt>
   <trkpt lat="31.9141850" lon="34.9616960">
    <ele>176.7</ele>
    <time>2018-08-18T04:36:23Z</time>
   </trkpt>
   <trkpt lat="31.9142220" lon="34.9616830">
    <ele>176.6</ele>
    <time>2018-08-18T04:36:24Z</time>
   </trkpt>
   <trkpt lat="31.9142570" lon="34.9616630">
    <ele>176.6</ele>
    <time>2018-08-18T04:36:25Z</time>
   </trkpt>
   <trkpt lat="31.9142910" lon="34.9616370">
    <ele>176.5</ele>
    <time>2018-08-18T04:36:26Z</time>
   </trkpt>
   <trkpt lat="31.9143240" lon="34.9616160">
    <ele>176.5</ele>
    <time>2018-08-18T04:36:27Z</time>
   </trkpt>
   <trkpt lat="31.9143450" lon="34.9615880">
    <ele>176.4</ele>
    <time>2018-08-18T04:36:28Z</time>
   </trkpt>
   <trkpt lat="31.9143640" lon="34.9615590">
    <ele>176.4</ele>
    <time>2018-08-18T04:36:29Z</time>
   </trkpt>
   <trkpt lat="31.9143780" lon="34.9615180">
    <ele>176.2</ele>
    <time>2018-08-18T04:36:30Z</time>
   </trkpt>
   <trkpt lat="31.9143900" lon="34.9614780">
    <ele>176.1</ele>
    <time>2018-08-18T04:36:31Z</time>
   </trkpt>
   <trkpt lat="31.9143950" lon="34.9614330">
    <ele>176.0</ele>
    <time>2018-08-18T04:36:32Z</time>
   </trkpt>
   <trkpt lat="31.9143950" lon="34.9613900">
    <ele>175.9</ele>
    <time>2018-08-18T04:36:33Z</time>
   </trkpt>
   <trkpt lat="31.9143950" lon="34.9613440">
    <ele>175.9</ele>
    <time>2018-08-18T04:36:34Z</time>
   </trkpt>
   <trkpt lat="31.9143950" lon="34.9612970">
    <ele>175.7</ele>
    <time>2018-08-18T04:36:35Z</time>
   </trkpt>
   <trkpt lat="31.9143990" lon="34.9612510">
    <ele>175.5</ele>
    <time>2018-08-18T04:36:36Z</time>
   </trkpt>
   <trkpt lat="31.9144080" lon="34.9612060">
    <ele>175.4</ele>
    <time>2018-08-18T04:36:37Z</time>
   </trkpt>
   <trkpt lat="31.9144200" lon="34.9611600">
    <ele>175.3</ele>
    <time>2018-08-18T04:36:38Z</time>
   </trkpt>
   <trkpt lat="31.9144400" lon="34.9611270">
    <ele>175.1</ele>
    <time>2018-08-18T04:36:39Z</time>
   </trkpt>
   <trkpt lat="31.9144650" lon="34.9610950">
    <ele>174.9</ele>
    <time>2018-08-18T04:36:40Z</time>
   </trkpt>
   <trkpt lat="31.9144900" lon="34.9610700">
    <ele>174.7</ele>
    <time>2018-08-18T04:36:41Z</time>
   </trkpt>
   <trkpt lat="31.9145160" lon="34.9610480">
    <ele>174.5</ele>
    <time>2018-08-18T04:36:42Z</time>
   </trkpt>
   <trkpt lat="31.9145400" lon="34.9610290">
    <ele>174.3</ele>
    <time>2018-08-18T04:36:43Z</time>
   </trkpt>
   <trkpt lat="31.9145890" lon="34.9610010">
    <ele>173.9</ele>
    <time>2018-08-18T04:36:45Z</time>
   </trkpt>
   <trkpt lat="31.9146150" lon="34.9609860">
    <ele>173.7</ele>
    <time>2018-08-18T04:36:46Z</time>
   </trkpt>
   <trkpt lat="31.9146390" lon="34.9609680">
    <ele>173.5</ele>
    <time>2018-08-18T04:36:47Z</time>
   </trkpt>
   <trkpt lat="31.9146630" lon="34.9609490">
    <ele>173.3</ele>
    <time>2018-08-18T04:36:48Z</time>
   </trkpt>
   <trkpt lat="31.9146830" lon="34.9609190">
    <ele>173.1</ele>
    <time>2018-08-18T04:36:49Z</time>
   </trkpt>
   <trkpt lat="31.9146990" lon="34.9608760">
    <ele>172.8</ele>
    <time>2018-08-18T04:36:50Z</time>
   </trkpt>
   <trkpt lat="31.9147070" lon="34.9608260">
    <ele>172.4</ele>
    <time>2018-08-18T04:36:51Z</time>
   </trkpt>
   <trkpt lat="31.9147170" lon="34.9607780">
    <ele>172.2</ele>
    <time>2018-08-18T04:36:52Z</time>
   </trkpt>
   <trkpt lat="31.9147270" lon="34.9607270">
    <ele>172.0</ele>
    <time>2018-08-18T04:36:53Z</time>
   </trkpt>
   <trkpt lat="31.9147380" lon="34.9606750">
    <ele>171.8</ele>
    <time>2018-08-18T04:36:54Z</time>
   </trkpt>
   <trkpt lat="31.9147470" lon="34.9606220">
    <ele>171.6</ele>
    <time>2018-08-18T04:36:55Z</time>
   </trkpt>
   <trkpt lat="31.9147560" lon="34.9605670">
    <ele>171.5</ele>
    <time>2018-08-18T04:36:56Z</time>
   </trkpt>
   <trkpt lat="31.9147670" lon="34.9605100">
    <ele>171.3</ele>
    <time>2018-08-18T04:36:57Z</time>
   </trkpt>
   <trkpt lat="31.9147750" lon="34.9604530">
    <ele>171.1</ele>
    <time>2018-08-18T04:36:58Z</time>
   </trkpt>
   <trkpt lat="31.9147730" lon="34.9603980">
    <ele>170.9</ele>
    <time>2018-08-18T04:36:59Z</time>
   </trkpt>
   <trkpt lat="31.9147630" lon="34.9603480">
    <ele>170.8</ele>
    <time>2018-08-18T04:37:00Z</time>
   </trkpt>
   <trkpt lat="31.9147520" lon="34.9603060">
    <ele>170.6</ele>
    <time>2018-08-18T04:37:01Z</time>
   </trkpt>
   <trkpt lat="31.9147460" lon="34.9602720">
    <ele>170.5</ele>
    <time>2018-08-18T04:37:02Z</time>
   </trkpt>
   <trkpt lat="31.9147460" lon="34.9602340">
    <ele>170.4</ele>
    <time>2018-08-18T04:37:03Z</time>
   </trkpt>
   <trkpt lat="31.9147510" lon="34.9601930">
    <ele>170.3</ele>
    <time>2018-08-18T04:37:04Z</time>
   </trkpt>
   <trkpt lat="31.9147570" lon="34.9601500">
    <ele>170.2</ele>
    <time>2018-08-18T04:37:05Z</time>
   </trkpt>
   <trkpt lat="31.9147670" lon="34.9601060">
    <ele>170.0</ele>
    <time>2018-08-18T04:37:06Z</time>
   </trkpt>
   <trkpt lat="31.9147770" lon="34.9600520">
    <ele>169.8</ele>
    <time>2018-08-18T04:37:07Z</time>
   </trkpt>
   <trkpt lat="31.9147870" lon="34.9599940">
    <ele>169.6</ele>
    <time>2018-08-18T04:37:08Z</time>
   </trkpt>
   <trkpt lat="31.9147910" lon="34.9599380">
    <ele>169.5</ele>
    <time>2018-08-18T04:37:09Z</time>
   </trkpt>
   <trkpt lat="31.9147850" lon="34.9598790">
    <ele>169.3</ele>
    <time>2018-08-18T04:37:10Z</time>
   </trkpt>
   <trkpt lat="31.9147740" lon="34.9598200">
    <ele>169.1</ele>
    <time>2018-08-18T04:37:11Z</time>
   </trkpt>
   <trkpt lat="31.9147590" lon="34.9597660">
    <ele>169.1</ele>
    <time>2018-08-18T04:37:12Z</time>
   </trkpt>
   <trkpt lat="31.9147410" lon="34.9597200">
    <ele>169.0</ele>
    <time>2018-08-18T04:37:13Z</time>
   </trkpt>
   <trkpt lat="31.9147210" lon="34.9596780">
    <ele>169.0</ele>
    <time>2018-08-18T04:37:14Z</time>
   </trkpt>
   <trkpt lat="31.9147000" lon="34.9596370">
    <ele>168.9</ele>
    <time>2018-08-18T04:37:15Z</time>
   </trkpt>
   <trkpt lat="31.9146810" lon="34.9595990">
    <ele>168.9</ele>
    <time>2018-08-18T04:37:16Z</time>
   </trkpt>
   <trkpt lat="31.9146650" lon="34.9595690">
    <ele>168.9</ele>
    <time>2018-08-18T04:37:17Z</time>
   </trkpt>
   <trkpt lat="31.9146480" lon="34.9595410">
    <ele>168.9</ele>
    <time>2018-08-18T04:37:18Z</time>
   </trkpt>
   <trkpt lat="31.9146280" lon="34.9595070">
    <ele>168.9</ele>
    <time>2018-08-18T04:37:19Z</time>
   </trkpt>
   <trkpt lat="31.9146080" lon="34.9594680">
    <ele>168.8</ele>
    <time>2018-08-18T04:37:20Z</time>
   </trkpt>
   <trkpt lat="31.9145960" lon="34.9594260">
    <ele>168.8</ele>
    <time>2018-08-18T04:37:21Z</time>
   </trkpt>
   <trkpt lat="31.9145850" lon="34.9593790">
    <ele>168.7</ele>
    <time>2018-08-18T04:37:22Z</time>
   </trkpt>
   <trkpt lat="31.9145790" lon="34.9593350">
    <ele>168.7</ele>
    <time>2018-08-18T04:37:23Z</time>
   </trkpt>
   <trkpt lat="31.9145810" lon="34.9592860">
    <ele>168.7</ele>
    <time>2018-08-18T04:37:24Z</time>
   </trkpt>
   <trkpt lat="31.9145920" lon="34.9592400">
    <ele>168.6</ele>
    <time>2018-08-18T04:37:25Z</time>
   </trkpt>
   <trkpt lat="31.9145950" lon="34.9592000">
    <ele>168.5</ele>
    <time>2018-08-18T04:37:26Z</time>
   </trkpt>
   <trkpt lat="31.9145990" lon="34.9591560">
    <ele>168.3</ele>
    <time>2018-08-18T04:37:27Z</time>
   </trkpt>
   <trkpt lat="31.9146010" lon="34.9591120">
    <ele>168.2</ele>
    <time>2018-08-18T04:37:28Z</time>
   </trkpt>
   <trkpt lat="31.9146010" lon="34.9590680">
    <ele>168.1</ele>
    <time>2018-08-18T04:37:29Z</time>
   </trkpt>
   <trkpt lat="31.9146020" lon="34.9590270">
    <ele>167.9</ele>
    <time>2018-08-18T04:37:30Z</time>
   </trkpt>
   <trkpt lat="31.9146020" lon="34.9589800">
    <ele>167.8</ele>
    <time>2018-08-18T04:37:31Z</time>
   </trkpt>
   <trkpt lat="31.9146030" lon="34.9589350">
    <ele>167.6</ele>
    <time>2018-08-18T04:37:32Z</time>
   </trkpt>
   <trkpt lat="31.9146010" lon="34.9588970">
    <ele>167.5</ele>
    <time>2018-08-18T04:37:33Z</time>
   </trkpt>
   <trkpt lat="31.9145960" lon="34.9588580">
    <ele>167.4</ele>
    <time>2018-08-18T04:37:34Z</time>
   </trkpt>
   <trkpt lat="31.9145930" lon="34.9588220">
    <ele>167.2</ele>
    <time>2018-08-18T04:37:35Z</time>
   </trkpt>
   <trkpt lat="31.9145930" lon="34.9587900">
    <ele>167.1</ele>
    <time>2018-08-18T04:37:36Z</time>
   </trkpt>
   <trkpt lat="31.9146010" lon="34.9587300">
    <ele>166.8</ele>
    <time>2018-08-18T04:37:38Z</time>
   </trkpt>
   <trkpt lat="31.9146070" lon="34.9586920">
    <ele>166.6</ele>
    <time>2018-08-18T04:37:39Z</time>
   </trkpt>
   <trkpt lat="31.9146130" lon="34.9586510">
    <ele>166.3</ele>
    <time>2018-08-18T04:37:40Z</time>
   </trkpt>
   <trkpt lat="31.9146190" lon="34.9586120">
    <ele>165.8</ele>
    <time>2018-08-18T04:37:41Z</time>
   </trkpt>
   <trkpt lat="31.9146230" lon="34.9585730">
    <ele>165.4</ele>
    <time>2018-08-18T04:37:42Z</time>
   </trkpt>
   <trkpt lat="31.9146220" lon="34.9585300">
    <ele>165.0</ele>
    <time>2018-08-18T04:37:43Z</time>
   </trkpt>
   <trkpt lat="31.9146110" lon="34.9584910">
    <ele>164.6</ele>
    <time>2018-08-18T04:37:44Z</time>
   </trkpt>
   <trkpt lat="31.9145950" lon="34.9584590">
    <ele>164.2</ele>
    <time>2018-08-18T04:37:45Z</time>
   </trkpt>
   <trkpt lat="31.9145750" lon="34.9584210">
    <ele>163.9</ele>
    <time>2018-08-18T04:37:46Z</time>
   </trkpt>
   <trkpt lat="31.9145600" lon="34.9583790">
    <ele>163.6</ele>
    <time>2018-08-18T04:37:47Z</time>
   </trkpt>
   <trkpt lat="31.9145500" lon="34.9583430">
    <ele>163.4</ele>
    <time>2018-08-18T04:37:48Z</time>
   </trkpt>
   <trkpt lat="31.9145480" lon="34.9583090">
    <ele>163.3</ele>
    <time>2018-08-18T04:37:49Z</time>
   </trkpt>
   <trkpt lat="31.9145490" lon="34.9582750">
    <ele>163.2</ele>
    <time>2018-08-18T04:37:50Z</time>
   </trkpt>
   <trkpt lat="31.9145500" lon="34.9582380">
    <ele>163.0</ele>
    <time>2018-08-18T04:37:51Z</time>
   </trkpt>
   <trkpt lat="31.9145600" lon="34.9581980">
    <ele>162.8</ele>
    <time>2018-08-18T04:37:52Z</time>
   </trkpt>
   <trkpt lat="31.9145830" lon="34.9581560">
    <ele>162.6</ele>
    <time>2018-08-18T04:37:53Z</time>
   </trkpt>
   <trkpt lat="31.9146020" lon="34.9581230">
    <ele>162.3</ele>
    <time>2018-08-18T04:37:54Z</time>
   </trkpt>
   <trkpt lat="31.9146510" lon="34.9581080">
    <ele>162.0</ele>
    <time>2018-08-18T04:37:56Z</time>
   </trkpt>
   <trkpt lat="31.9147050" lon="34.9581210">
    <ele>162.0</ele>
    <time>2018-08-18T04:37:58Z</time>
   </trkpt>
   <trkpt lat="31.9147500" lon="34.9581520">
    <ele>161.9</ele>
    <time>2018-08-18T04:38:00Z</time>
   </trkpt>
   <trkpt lat="31.9147690" lon="34.9581840">
    <ele>161.9</ele>
    <time>2018-08-18T04:38:01Z</time>
   </trkpt>
   <trkpt lat="31.9147890" lon="34.9582210">
    <ele>161.9</ele>
    <time>2018-08-18T04:38:02Z</time>
   </trkpt>
   <trkpt lat="31.9148110" lon="34.9582640">
    <ele>161.9</ele>
    <time>2018-08-18T04:38:03Z</time>
   </trkpt>
   <trkpt lat="31.9148340" lon="34.9583030">
    <ele>161.9</ele>
    <time>2018-08-18T04:38:04Z</time>
   </trkpt>
   <trkpt lat="31.9148570" lon="34.9583400">
    <ele>161.8</ele>
    <time>2018-08-18T04:38:05Z</time>
   </trkpt>
   <trkpt lat="31.9148840" lon="34.9583750">
    <ele>161.8</ele>
    <time>2018-08-18T04:38:06Z</time>
   </trkpt>
   <trkpt lat="31.9149140" lon="34.9584080">
    <ele>161.7</ele>
    <time>2018-08-18T04:38:07Z</time>
   </trkpt>
   <trkpt lat="31.9149470" lon="34.9584410">
    <ele>161.6</ele>
    <time>2018-08-18T04:38:08Z</time>
   </trkpt>
   <trkpt lat="31.9149860" lon="34.9584740">
    <ele>161.4</ele>
    <time>2018-08-18T04:38:09Z</time>
   </trkpt>
   <trkpt lat="31.9150270" lon="34.9585100">
    <ele>161.3</ele>
    <time>2018-08-18T04:38:10Z</time>
   </trkpt>
   <trkpt lat="31.9150730" lon="34.9585410">
    <ele>161.1</ele>
    <time>2018-08-18T04:38:11Z</time>
   </trkpt>
   <trkpt lat="31.9151250" lon="34.9585640">
    <ele>160.9</ele>
    <time>2018-08-18T04:38:12Z</time>
   </trkpt>
   <trkpt lat="31.9151700" lon="34.9585820">
    <ele>160.7</ele>
    <time>2018-08-18T04:38:13Z</time>
   </trkpt>
   <trkpt lat="31.9152080" lon="34.9586040">
    <ele>160.6</ele>
    <time>2018-08-18T04:38:14Z</time>
   </trkpt>
   <trkpt lat="31.9152470" lon="34.9586370">
    <ele>160.4</ele>
    <time>2018-08-18T04:38:15Z</time>
   </trkpt>
   <trkpt lat="31.9152870" lon="34.9586780">
    <ele>160.2</ele>
    <time>2018-08-18T04:38:16Z</time>
   </trkpt>
   <trkpt lat="31.9153200" lon="34.9587150">
    <ele>160.1</ele>
    <time>2018-08-18T04:38:17Z</time>
   </trkpt>
   <trkpt lat="31.9153530" lon="34.9587530">
    <ele>160.0</ele>
    <time>2018-08-18T04:38:18Z</time>
   </trkpt>
   <trkpt lat="31.9153880" lon="34.9587960">
    <ele>160.0</ele>
    <time>2018-08-18T04:38:19Z</time>
   </trkpt>
   <trkpt lat="31.9154230" lon="34.9588430">
    <ele>159.9</ele>
    <time>2018-08-18T04:38:20Z</time>
   </trkpt>
   <trkpt lat="31.9154570" lon="34.9588920">
    <ele>159.9</ele>
    <time>2018-08-18T04:38:21Z</time>
   </trkpt>
   <trkpt lat="31.9154910" lon="34.9589410">
    <ele>159.9</ele>
    <time>2018-08-18T04:38:22Z</time>
   </trkpt>
   <trkpt lat="31.9155250" lon="34.9589880">
    <ele>159.9</ele>
    <time>2018-08-18T04:38:23Z</time>
   </trkpt>
   <trkpt lat="31.9155590" lon="34.9590370">
    <ele>160.0</ele>
    <time>2018-08-18T04:38:24Z</time>
   </trkpt>
   <trkpt lat="31.9155940" lon="34.9590830">
    <ele>160.0</ele>
    <time>2018-08-18T04:38:25Z</time>
   </trkpt>
   <trkpt lat="31.9156280" lon="34.9591260">
    <ele>160.0</ele>
    <time>2018-08-18T04:38:26Z</time>
   </trkpt>
   <trkpt lat="31.9156640" lon="34.9591700">
    <ele>160.0</ele>
    <time>2018-08-18T04:38:27Z</time>
   </trkpt>
   <trkpt lat="31.9157040" lon="34.9592160">
    <ele>160.0</ele>
    <time>2018-08-18T04:38:28Z</time>
   </trkpt>
   <trkpt lat="31.9157390" lon="34.9592600">
    <ele>160.0</ele>
    <time>2018-08-18T04:38:29Z</time>
   </trkpt>
   <trkpt lat="31.9157740" lon="34.9593020">
    <ele>159.9</ele>
    <time>2018-08-18T04:38:30Z</time>
   </trkpt>
   <trkpt lat="31.9158160" lon="34.9593420">
    <ele>159.7</ele>
    <time>2018-08-18T04:38:31Z</time>
   </trkpt>
   <trkpt lat="31.9158610" lon="34.9593860">
    <ele>159.5</ele>
    <time>2018-08-18T04:38:32Z</time>
   </trkpt>
   <trkpt lat="31.9159040" lon="34.9594320">
    <ele>159.3</ele>
    <time>2018-08-18T04:38:33Z</time>
   </trkpt>
   <trkpt lat="31.9159480" lon="34.9594770">
    <ele>159.1</ele>
    <time>2018-08-18T04:38:34Z</time>
   </trkpt>
   <trkpt lat="31.9159940" lon="34.9595230">
    <ele>158.9</ele>
    <time>2018-08-18T04:38:35Z</time>
   </trkpt>
   <trkpt lat="31.9160400" lon="34.9595710">
    <ele>158.7</ele>
    <time>2018-08-18T04:38:36Z</time>
   </trkpt>
   <trkpt lat="31.9160780" lon="34.9596200">
    <ele>158.3</ele>
    <time>2018-08-18T04:38:37Z</time>
   </trkpt>
   <trkpt lat="31.9161060" lon="34.9596800">
    <ele>157.8</ele>
    <time>2018-08-18T04:38:38Z</time>
   </trkpt>
   <trkpt lat="31.9161330" lon="34.9597410">
    <ele>157.3</ele>
    <time>2018-08-18T04:38:39Z</time>
   </trkpt>
   <trkpt lat="31.9161620" lon="34.9598010">
    <ele>156.7</ele>
    <time>2018-08-18T04:38:40Z</time>
   </trkpt>
   <trkpt lat="31.9161930" lon="34.9598580">
    <ele>156.2</ele>
    <time>2018-08-18T04:38:41Z</time>
   </trkpt>
   <trkpt lat="31.9162260" lon="34.9599110">
    <ele>155.8</ele>
    <time>2018-08-18T04:38:42Z</time>
   </trkpt>
   <trkpt lat="31.9162670" lon="34.9599560">
    <ele>155.3</ele>
    <time>2018-08-18T04:38:43Z</time>
   </trkpt>
   <trkpt lat="31.9163030" lon="34.9599920">
    <ele>154.9</ele>
    <time>2018-08-18T04:38:44Z</time>
   </trkpt>
   <trkpt lat="31.9163380" lon="34.9600210">
    <ele>154.6</ele>
    <time>2018-08-18T04:38:45Z</time>
   </trkpt>
   <trkpt lat="31.9163750" lon="34.9600440">
    <ele>154.4</ele>
    <time>2018-08-18T04:38:46Z</time>
   </trkpt>
   <trkpt lat="31.9164160" lon="34.9600630">
    <ele>154.2</ele>
    <time>2018-08-18T04:38:47Z</time>
   </trkpt>
   <trkpt lat="31.9164610" lon="34.9600810">
    <ele>154.0</ele>
    <time>2018-08-18T04:38:48Z</time>
   </trkpt>
   <trkpt lat="31.9165070" lon="34.9600890">
    <ele>153.8</ele>
    <time>2018-08-18T04:38:49Z</time>
   </trkpt>
   <trkpt lat="31.9165570" lon="34.9600980">
    <ele>153.6</ele>
    <time>2018-08-18T04:38:50Z</time>
   </trkpt>
   <trkpt lat="31.9166060" lon="34.9601070">
    <ele>153.4</ele>
    <time>2018-08-18T04:38:51Z</time>
   </trkpt>
   <trkpt lat="31.9166570" lon="34.9601210">
    <ele>153.0</ele>
    <time>2018-08-18T04:38:52Z</time>
   </trkpt>
   <trkpt lat="31.9167070" lon="34.9601310">
    <ele>152.6</ele>
    <time>2018-08-18T04:38:53Z</time>
   </trkpt>
   <trkpt lat="31.9167660" lon="34.9601410">
    <ele>152.0</ele>
    <time>2018-08-18T04:38:54Z</time>
   </trkpt>
   <trkpt lat="31.9168210" lon="34.9601500">
    <ele>151.4</ele>
    <time>2018-08-18T04:38:55Z</time>
   </trkpt>
   <trkpt lat="31.9168860" lon="34.9601630">
    <ele>150.6</ele>
    <time>2018-08-18T04:38:56Z</time>
   </trkpt>
   <trkpt lat="31.9169500" lon="34.9601770">
    <ele>150.0</ele>
    <time>2018-08-18T04:38:57Z</time>
   </trkpt>
   <trkpt lat="31.9170180" lon="34.9601970">
    <ele>149.3</ele>
    <time>2018-08-18T04:38:58Z</time>
   </trkpt>
   <trkpt lat="31.9170820" lon="34.9602290">
    <ele>149.0</ele>
    <time>2018-08-18T04:38:59Z</time>
   </trkpt>
   <trkpt lat="31.9171430" lon="34.9602690">
    <ele>148.9</ele>
    <time>2018-08-18T04:39:00Z</time>
   </trkpt>
   <trkpt lat="31.9171990" lon="34.9603150">
    <ele>148.9</ele>
    <time>2018-08-18T04:39:01Z</time>
   </trkpt>
   <trkpt lat="31.9172520" lon="34.9603470">
    <ele>148.8</ele>
    <time>2018-08-18T04:39:02Z</time>
   </trkpt>
   <trkpt lat="31.9173060" lon="34.9603730">
    <ele>148.7</ele>
    <time>2018-08-18T04:39:03Z</time>
   </trkpt>
   <trkpt lat="31.9173600" lon="34.9604040">
    <ele>148.6</ele>
    <time>2018-08-18T04:39:04Z</time>
   </trkpt>
   <trkpt lat="31.9174100" lon="34.9604400">
    <ele>148.5</ele>
    <time>2018-08-18T04:39:05Z</time>
   </trkpt>
   <trkpt lat="31.9174610" lon="34.9604690">
    <ele>148.4</ele>
    <time>2018-08-18T04:39:06Z</time>
   </trkpt>
   <trkpt lat="31.9175110" lon="34.9605010">
    <ele>148.2</ele>
    <time>2018-08-18T04:39:07Z</time>
   </trkpt>
   <trkpt lat="31.9175660" lon="34.9605150">
    <ele>148.0</ele>
    <time>2018-08-18T04:39:08Z</time>
   </trkpt>
   <trkpt lat="31.9176250" lon="34.9605200">
    <ele>147.8</ele>
    <time>2018-08-18T04:39:09Z</time>
   </trkpt>
   <trkpt lat="31.9176850" lon="34.9605250">
    <ele>147.6</ele>
    <time>2018-08-18T04:39:10Z</time>
   </trkpt>
   <trkpt lat="31.9177450" lon="34.9605350">
    <ele>147.4</ele>
    <time>2018-08-18T04:39:11Z</time>
   </trkpt>
   <trkpt lat="31.9178040" lon="34.9605480">
    <ele>147.3</ele>
    <time>2018-08-18T04:39:12Z</time>
   </trkpt>
   <trkpt lat="31.9178600" lon="34.9605630">
    <ele>147.2</ele>
    <time>2018-08-18T04:39:13Z</time>
   </trkpt>
   <trkpt lat="31.9179120" lon="34.9605780">
    <ele>147.2</ele>
    <time>2018-08-18T04:39:14Z</time>
   </trkpt>
   <trkpt lat="31.9179700" lon="34.9605950">
    <ele>147.1</ele>
    <time>2018-08-18T04:39:15Z</time>
   </trkpt>
   <trkpt lat="31.9180250" lon="34.9606100">
    <ele>147.1</ele>
    <time>2018-08-18T04:39:16Z</time>
   </trkpt>
   <trkpt lat="31.9180780" lon="34.9606240">
    <ele>147.0</ele>
    <time>2018-08-18T04:39:17Z</time>
   </trkpt>
   <trkpt lat="31.9181280" lon="34.9606350">
    <ele>147.0</ele>
    <time>2018-08-18T04:39:18Z</time>
   </trkpt>
   <trkpt lat="31.9181790" lon="34.9606420">
    <ele>146.7</ele>
    <time>2018-08-18T04:39:19Z</time>
   </trkpt>
   <trkpt lat="31.9182320" lon="34.9606500">
    <ele>146.2</ele>
    <time>2018-08-18T04:39:20Z</time>
   </trkpt>
   <trkpt lat="31.9182810" lon="34.9606580">
    <ele>146.0</ele>
    <time>2018-08-18T04:39:21Z</time>
   </trkpt>
   <trkpt lat="31.9183230" lon="34.9606630">
    <ele>145.8</ele>
    <time>2018-08-18T04:39:22Z</time>
   </trkpt>
   <trkpt lat="31.9183710" lon="34.9606590">
    <ele>145.5</ele>
    <time>2018-08-18T04:39:23Z</time>
   </trkpt>
   <trkpt lat="31.9184190" lon="34.9606500">
    <ele>145.3</ele>
    <time>2018-08-18T04:39:24Z</time>
   </trkpt>
   <trkpt lat="31.9184680" lon="34.9606460">
    <ele>145.1</ele>
    <time>2018-08-18T04:39:25Z</time>
   </trkpt>
   <trkpt lat="31.9185140" lon="34.9606420">
    <ele>144.9</ele>
    <time>2018-08-18T04:39:26Z</time>
   </trkpt>
   <trkpt lat="31.9185580" lon="34.9606380">
    <ele>144.7</ele>
    <time>2018-08-18T04:39:27Z</time>
   </trkpt>
   <trkpt lat="31.9186040" lon="34.9606320">
    <ele>144.5</ele>
    <time>2018-08-18T04:39:28Z</time>
   </trkpt>
   <trkpt lat="31.9186480" lon="34.9606270">
    <ele>144.2</ele>
    <time>2018-08-18T04:39:29Z</time>
   </trkpt>
   <trkpt lat="31.9186960" lon="34.9606250">
    <ele>143.9</ele>
    <time>2018-08-18T04:39:30Z</time>
   </trkpt>
   <trkpt lat="31.9187400" lon="34.9606250">
    <ele>143.5</ele>
    <time>2018-08-18T04:39:31Z</time>
   </trkpt>
   <trkpt lat="31.9187870" lon="34.9606260">
    <ele>143.1</ele>
    <time>2018-08-18T04:39:32Z</time>
   </trkpt>
   <trkpt lat="31.9188300" lon="34.9606330">
    <ele>142.7</ele>
    <time>2018-08-18T04:39:33Z</time>
   </trkpt>
   <trkpt lat="31.9188740" lon="34.9606350">
    <ele>142.1</ele>
    <time>2018-08-18T04:39:34Z</time>
   </trkpt>
   <trkpt lat="31.9189200" lon="34.9606370">
    <ele>141.5</ele>
    <time>2018-08-18T04:39:35Z</time>
   </trkpt>
   <trkpt lat="31.9189690" lon="34.9606370">
    <ele>140.9</ele>
    <time>2018-08-18T04:39:36Z</time>
   </trkpt>
   <trkpt lat="31.9190220" lon="34.9606370">
    <ele>140.1</ele>
    <time>2018-08-18T04:39:37Z</time>
   </trkpt>
   <trkpt lat="31.9190780" lon="34.9606350">
    <ele>139.4</ele>
    <time>2018-08-18T04:39:38Z</time>
   </trkpt>
   <trkpt lat="31.9191320" lon="34.9606200">
    <ele>138.7</ele>
    <time>2018-08-18T04:39:39Z</time>
   </trkpt>
   <trkpt lat="31.9191910" lon="34.9606070">
    <ele>138.2</ele>
    <time>2018-08-18T04:39:40Z</time>
   </trkpt>
   <trkpt lat="31.9192490" lon="34.9606030">
    <ele>138.0</ele>
    <time>2018-08-18T04:39:41Z</time>
   </trkpt>
   <trkpt lat="31.9193090" lon="34.9606040">
    <ele>137.7</ele>
    <time>2018-08-18T04:39:42Z</time>
   </trkpt>
   <trkpt lat="31.9193670" lon="34.9606060">
    <ele>137.4</ele>
    <time>2018-08-18T04:39:43Z</time>
   </trkpt>
   <trkpt lat="31.9194200" lon="34.9606110">
    <ele>137.2</ele>
    <time>2018-08-18T04:39:44Z</time>
   </trkpt>
   <trkpt lat="31.9194720" lon="34.9606150">
    <ele>136.9</ele>
    <time>2018-08-18T04:39:45Z</time>
   </trkpt>
   <trkpt lat="31.9195170" lon="34.9606260">
    <ele>136.7</ele>
    <time>2018-08-18T04:39:46Z</time>
   </trkpt>
   <trkpt lat="31.9195540" lon="34.9606330">
    <ele>136.6</ele>
    <time>2018-08-18T04:39:47Z</time>
   </trkpt>
   <trkpt lat="31.9195850" lon="34.9606330">
    <ele>136.4</ele>
    <time>2018-08-18T04:39:48Z</time>
   </trkpt>
   <trkpt lat="31.9196320" lon="34.9606100">
    <ele>136.2</ele>
    <time>2018-08-18T04:39:50Z</time>
   </trkpt>
   <trkpt lat="31.9196600" lon="34.9605920">
    <ele>136.1</ele>
    <time>2018-08-18T04:39:51Z</time>
   </trkpt>
   <trkpt lat="31.9196840" lon="34.9605630">
    <ele>136.1</ele>
    <time>2018-08-18T04:39:52Z</time>
   </trkpt>
   <trkpt lat="31.9197060" lon="34.9605250">
    <ele>136.2</ele>
    <time>2018-08-18T04:39:53Z</time>
   </trkpt>
   <trkpt lat="31.9197240" lon="34.9604820">
    <ele>136.3</ele>
    <time>2018-08-18T04:39:54Z</time>
   </trkpt>
   <trkpt lat="31.9197340" lon="34.9604330">
    <ele>136.3</ele>
    <time>2018-08-18T04:39:55Z</time>
   </trkpt>
   <trkpt lat="31.9197440" lon="34.9603830">
    <ele>136.4</ele>
    <time>2018-08-18T04:39:56Z</time>
   </trkpt>
   <trkpt lat="31.9197560" lon="34.9603320">
    <ele>136.5</ele>
    <time>2018-08-18T04:39:57Z</time>
   </trkpt>
   <trkpt lat="31.9197700" lon="34.9602850">
    <ele>136.6</ele>
    <time>2018-08-18T04:39:58Z</time>
   </trkpt>
   <trkpt lat="31.9197920" lon="34.9602390">
    <ele>136.8</ele>
    <time>2018-08-18T04:39:59Z</time>
   </trkpt>
   <trkpt lat="31.9198120" lon="34.9601940">
    <ele>136.9</ele>
    <time>2018-08-18T04:40:00Z</time>
   </trkpt>
   <trkpt lat="31.9198350" lon="34.9601520">
    <ele>137.0</ele>
    <time>2018-08-18T04:40:01Z</time>
   </trkpt>
   <trkpt lat="31.9198580" lon="34.9601060">
    <ele>137.0</ele>
    <time>2018-08-18T04:40:02Z</time>
   </trkpt>
   <trkpt lat="31.9198810" lon="34.9600620">
    <ele>137.1</ele>
    <time>2018-08-18T04:40:03Z</time>
   </trkpt>
   <trkpt lat="31.9199090" lon="34.9600170">
    <ele>137.1</ele>
    <time>2018-08-18T04:40:04Z</time>
   </trkpt>
   <trkpt lat="31.9199360" lon="34.9599720">
    <ele>137.2</ele>
    <time>2018-08-18T04:40:05Z</time>
   </trkpt>
   <trkpt lat="31.9199630" lon="34.9599280">
    <ele>137.2</ele>
    <time>2018-08-18T04:40:06Z</time>
   </trkpt>
   <trkpt lat="31.9199930" lon="34.9598860">
    <ele>137.2</ele>
    <time>2018-08-18T04:40:07Z</time>
   </trkpt>
   <trkpt lat="31.9200240" lon="34.9598440">
    <ele>137.2</ele>
    <time>2018-08-18T04:40:08Z</time>
   </trkpt>
   <trkpt lat="31.9200560" lon="34.9598040">
    <ele>137.2</ele>
    <time>2018-08-18T04:40:09Z</time>
   </trkpt>
   <trkpt lat="31.9200890" lon="34.9597640">
    <ele>137.1</ele>
    <time>2018-08-18T04:40:10Z</time>
   </trkpt>
   <trkpt lat="31.9201210" lon="34.9597230">
    <ele>137.1</ele>
    <time>2018-08-18T04:40:11Z</time>
   </trkpt>
   <trkpt lat="31.9201530" lon="34.9596900">
    <ele>137.0</ele>
    <time>2018-08-18T04:40:12Z</time>
   </trkpt>
   <trkpt lat="31.9201870" lon="34.9596520">
    <ele>137.0</ele>
    <time>2018-08-18T04:40:13Z</time>
   </trkpt>
   <trkpt lat="31.9202220" lon="34.9596100">
    <ele>137.0</ele>
    <time>2018-08-18T04:40:14Z</time>
   </trkpt>
   <trkpt lat="31.9202580" lon="34.9595710">
    <ele>136.9</ele>
    <time>2018-08-18T04:40:15Z</time>
   </trkpt>
   <trkpt lat="31.9202920" lon="34.9595280">
    <ele>136.9</ele>
    <time>2018-08-18T04:40:16Z</time>
   </trkpt>
   <trkpt lat="31.9203230" lon="34.9594840">
    <ele>137.0</ele>
    <time>2018-08-18T04:40:17Z</time>
   </trkpt>
   <trkpt lat="31.9203520" lon="34.9594370">
    <ele>137.0</ele>
    <time>2018-08-18T04:40:18Z</time>
   </trkpt>
   <trkpt lat="31.9203720" lon="34.9593830">
    <ele>137.1</ele>
    <time>2018-08-18T04:40:19Z</time>
   </trkpt>
   <trkpt lat="31.9203880" lon="34.9593240">
    <ele>137.1</ele>
    <time>2018-08-18T04:40:20Z</time>
   </trkpt>
   <trkpt lat="31.9203980" lon="34.9592600">
    <ele>137.2</ele>
    <time>2018-08-18T04:40:21Z</time>
   </trkpt>
   <trkpt lat="31.9204090" lon="34.9591970">
    <ele>137.2</ele>
    <time>2018-08-18T04:40:22Z</time>
   </trkpt>
   <trkpt lat="31.9204210" lon="34.9591370">
    <ele>137.3</ele>
    <time>2018-08-18T04:40:23Z</time>
   </trkpt>
   <trkpt lat="31.9204320" lon="34.9590760">
    <ele>137.4</ele>
    <time>2018-08-18T04:40:24Z</time>
   </trkpt>
   <trkpt lat="31.9204420" lon="34.9590200">
    <ele>137.5</ele>
    <time>2018-08-18T04:40:25Z</time>
   </trkpt>
   <trkpt lat="31.9204510" lon="34.9589700">
    <ele>137.6</ele>
    <time>2018-08-18T04:40:26Z</time>
   </trkpt>
   <trkpt lat="31.9204570" lon="34.9589270">
    <ele>137.6</ele>
    <time>2018-08-18T04:40:27Z</time>
   </trkpt>
   <trkpt lat="31.9204650" lon="34.9588860">
    <ele>137.6</ele>
    <time>2018-08-18T04:40:28Z</time>
   </trkpt>
   <trkpt lat="31.9204720" lon="34.9588420">
    <ele>137.6</ele>
    <time>2018-08-18T04:40:29Z</time>
   </trkpt>
   <trkpt lat="31.9204820" lon="34.9587970">
    <ele>137.6</ele>
    <time>2018-08-18T04:40:30Z</time>
   </trkpt>
   <trkpt lat="31.9204910" lon="34.9587500">
    <ele>137.6</ele>
    <time>2018-08-18T04:40:31Z</time>
   </trkpt>
   <trkpt lat="31.9204970" lon="34.9587020">
    <ele>137.5</ele>
    <time>2018-08-18T04:40:32Z</time>
   </trkpt>
   <trkpt lat="31.9205040" lon="34.9586540">
    <ele>137.5</ele>
    <time>2018-08-18T04:40:33Z</time>
   </trkpt>
   <trkpt lat="31.9205110" lon="34.9586080">
    <ele>137.5</ele>
    <time>2018-08-18T04:40:34Z</time>
   </trkpt>
   <trkpt lat="31.9205170" lon="34.9585600">
    <ele>137.5</ele>
    <time>2018-08-18T04:40:35Z</time>
   </trkpt>
   <trkpt lat="31.9205190" lon="34.9585110">
    <ele>137.5</ele>
    <time>2018-08-18T04:40:36Z</time>
   </trkpt>
   <trkpt lat="31.9205200" lon="34.9584640">
    <ele>137.5</ele>
    <time>2018-08-18T04:40:37Z</time>
   </trkpt>
   <trkpt lat="31.9205230" lon="34.9584220">
    <ele>137.5</ele>
    <time>2018-08-18T04:40:38Z</time>
   </trkpt>
   <trkpt lat="31.9205260" lon="34.9583830">
    <ele>137.5</ele>
    <time>2018-08-18T04:40:39Z</time>
   </trkpt>
   <trkpt lat="31.9205300" lon="34.9583430">
    <ele>137.5</ele>
    <time>2018-08-18T04:40:40Z</time>
   </trkpt>
   <trkpt lat="31.9205350" lon="34.9583040">
    <ele>137.5</ele>
    <time>2018-08-18T04:40:41Z</time>
   </trkpt>
   <trkpt lat="31.9205410" lon="34.9582630">
    <ele>137.5</ele>
    <time>2018-08-18T04:40:42Z</time>
   </trkpt>
   <trkpt lat="31.9205460" lon="34.9582200">
    <ele>137.6</ele>
    <time>2018-08-18T04:40:43Z</time>
   </trkpt>
   <trkpt lat="31.9205570" lon="34.9581740">
    <ele>137.6</ele>
    <time>2018-08-18T04:40:44Z</time>
   </trkpt>
   <trkpt lat="31.9205680" lon="34.9581280">
    <ele>137.6</ele>
    <time>2018-08-18T04:40:45Z</time>
   </trkpt>
   <trkpt lat="31.9205740" lon="34.9580790">
    <ele>137.7</ele>
    <time>2018-08-18T04:40:46Z</time>
   </trkpt>
   <trkpt lat="31.9205860" lon="34.9580200">
    <ele>137.7</ele>
    <time>2018-08-18T04:40:47Z</time>
   </trkpt>
   <trkpt lat="31.9205990" lon="34.9579590">
    <ele>137.8</ele>
    <time>2018-08-18T04:40:48Z</time>
   </trkpt>
   <trkpt lat="31.9206100" lon="34.9579000">
    <ele>138.0</ele>
    <time>2018-08-18T04:40:49Z</time>
   </trkpt>
   <trkpt lat="31.9206210" lon="34.9578440">
    <ele>138.1</ele>
    <time>2018-08-18T04:40:50Z</time>
   </trkpt>
   <trkpt lat="31.9206350" lon="34.9577940">
    <ele>138.3</ele>
    <time>2018-08-18T04:40:51Z</time>
   </trkpt>
   <trkpt lat="31.9206540" lon="34.9577450">
    <ele>138.5</ele>
    <time>2018-08-18T04:40:52Z</time>
   </trkpt>
   <trkpt lat="31.9206730" lon="34.9576960">
    <ele>138.6</ele>
    <time>2018-08-18T04:40:53Z</time>
   </trkpt>
   <trkpt lat="31.9206900" lon="34.9576530">
    <ele>138.7</ele>
    <time>2018-08-18T04:40:54Z</time>
   </trkpt>
   <trkpt lat="31.9207010" lon="34.9576120">
    <ele>138.8</ele>
    <time>2018-08-18T04:40:55Z</time>
   </trkpt>
   <trkpt lat="31.9207170" lon="34.9575780">
    <ele>138.9</ele>
    <time>2018-08-18T04:40:56Z</time>
   </trkpt>
   <trkpt lat="31.9207340" lon="34.9575440">
    <ele>138.9</ele>
    <time>2018-08-18T04:40:57Z</time>
   </trkpt>
   <trkpt lat="31.9207660" lon="34.9575180">
    <ele>138.6</ele>
    <time>2018-08-18T04:40:59Z</time>
   </trkpt>
   <trkpt lat="31.9208100" lon="34.9575260">
    <ele>138.2</ele>
    <time>2018-08-18T04:41:01Z</time>
   </trkpt>
   <trkpt lat="31.9208520" lon="34.9575580">
    <ele>138.0</ele>
    <time>2018-08-18T04:41:03Z</time>
   </trkpt>
   <trkpt lat="31.9208730" lon="34.9575850">
    <ele>137.9</ele>
    <time>2018-08-18T04:41:04Z</time>
   </trkpt>
   <trkpt lat="31.9209150" lon="34.9576070">
    <ele>138.0</ele>
    <time>2018-08-18T04:41:06Z</time>
   </trkpt>
   <trkpt lat="31.9209530" lon="34.9576130">
    <ele>138.2</ele>
    <time>2018-08-18T04:41:08Z</time>
   </trkpt>
   <trkpt lat="31.9209850" lon="34.9576250">
    <ele>138.2</ele>
    <time>2018-08-18T04:41:10Z</time>
   </trkpt>
   <trkpt lat="31.9210170" lon="34.9576310">
    <ele>138.2</ele>
    <time>2018-08-18T04:41:12Z</time>
   </trkpt>
   <trkpt lat="31.9210500" lon="34.9576340">
    <ele>138.3</ele>
    <time>2018-08-18T04:41:14Z</time>
   </trkpt>
   <trkpt lat="31.9210870" lon="34.9576430">
    <ele>138.5</ele>
    <time>2018-08-18T04:41:16Z</time>
   </trkpt>
   <trkpt lat="31.9211290" lon="34.9576510">
    <ele>138.6</ele>
    <time>2018-08-18T04:41:19Z</time>
   </trkpt>
   <trkpt lat="31.9211600" lon="34.9576560">
    <ele>138.8</ele>
    <time>2018-08-18T04:41:21Z</time>
   </trkpt>
   <trkpt lat="31.9211970" lon="34.9576610">
    <ele>139.1</ele>
    <time>2018-08-18T04:41:23Z</time>
   </trkpt>
   <trkpt lat="31.9212390" lon="34.9576730">
    <ele>139.4</ele>
    <time>2018-08-18T04:41:25Z</time>
   </trkpt>
   <trkpt lat="31.9212780" lon="34.9576830">
    <ele>139.8</ele>
    <time>2018-08-18T04:41:27Z</time>
   </trkpt>
   <trkpt lat="31.9213110" lon="34.9576960">
    <ele>140.2</ele>
    <time>2018-08-18T04:41:29Z</time>
   </trkpt>
   <trkpt lat="31.9213420" lon="34.9577190">
    <ele>140.9</ele>
    <time>2018-08-18T04:41:31Z</time>
   </trkpt>
   <trkpt lat="31.9213710" lon="34.9577200">
    <ele>141.5</ele>
    <time>2018-08-18T04:41:34Z</time>
   </trkpt>
   <trkpt lat="31.9214070" lon="34.9577320">
    <ele>142.4</ele>
    <time>2018-08-18T04:41:45Z</time>
   </trkpt>
   <trkpt lat="31.9214330" lon="34.9577400">
    <ele>142.5</ele>
    <time>2018-08-18T04:41:50Z</time>
   </trkpt>
   <trkpt lat="31.9214750" lon="34.9577310">
    <ele>142.7</ele>
    <time>2018-08-18T04:41:53Z</time>
   </trkpt>
   <trkpt lat="31.9215080" lon="34.9577270">
    <ele>142.8</ele>
    <time>2018-08-18T04:41:55Z</time>
   </trkpt>
   <trkpt lat="31.9215390" lon="34.9577160">
    <ele>142.9</ele>
    <time>2018-08-18T04:41:57Z</time>
   </trkpt>
   <trkpt lat="31.9215790" lon="34.9577100">
    <ele>142.9</ele>
    <time>2018-08-18T04:41:59Z</time>
   </trkpt>
   <trkpt lat="31.9216190" lon="34.9577000">
    <ele>143.0</ele>
    <time>2018-08-18T04:42:01Z</time>
   </trkpt>
   <trkpt lat="31.9216610" lon="34.9576890">
    <ele>143.1</ele>
    <time>2018-08-18T04:42:03Z</time>
   </trkpt>
   <trkpt lat="31.9217050" lon="34.9576710">
    <ele>143.2</ele>
    <time>2018-08-18T04:42:05Z</time>
   </trkpt>
   <trkpt lat="31.9217490" lon="34.9576450">
    <ele>142.8</ele>
    <time>2018-08-18T04:42:07Z</time>
   </trkpt>
   <trkpt lat="31.9217920" lon="34.9576200">
    <ele>142.5</ele>
    <time>2018-08-18T04:42:09Z</time>
   </trkpt>
   <trkpt lat="31.9218320" lon="34.9576050">
    <ele>142.5</ele>
    <time>2018-08-18T04:42:11Z</time>
   </trkpt>
   <trkpt lat="31.9218700" lon="34.9575880">
    <ele>142.5</ele>
    <time>2018-08-18T04:42:13Z</time>
   </trkpt>
   <trkpt lat="31.9219060" lon="34.9575770">
    <ele>142.2</ele>
    <time>2018-08-18T04:42:15Z</time>
   </trkpt>
   <trkpt lat="31.9219400" lon="34.9575860">
    <ele>142.1</ele>
    <time>2018-08-18T04:42:17Z</time>
   </trkpt>
   <trkpt lat="31.9219640" lon="34.9576080">
    <ele>142.2</ele>
    <time>2018-08-18T04:42:19Z</time>
   </trkpt>
   <trkpt lat="31.9219800" lon="34.9576380">
    <ele>142.3</ele>
    <time>2018-08-18T04:42:21Z</time>
   </trkpt>
   <trkpt lat="31.9219960" lon="34.9576640">
    <ele>142.4</ele>
    <time>2018-08-18T04:42:23Z</time>
   </trkpt>
   <trkpt lat="31.9220140" lon="34.9576930">
    <ele>142.4</ele>
    <time>2018-08-18T04:42:25Z</time>
   </trkpt>
   <trkpt lat="31.9220200" lon="34.9577290">
    <ele>142.4</ele>
    <time>2018-08-18T04:42:27Z</time>
   </trkpt>
   <trkpt lat="31.9220300" lon="34.9577620">
    <ele>142.4</ele>
    <time>2018-08-18T04:42:29Z</time>
   </trkpt>
   <trkpt lat="31.9220580" lon="34.9578000">
    <ele>142.6</ele>
    <time>2018-08-18T04:42:32Z</time>
   </trkpt>
   <trkpt lat="31.9220760" lon="34.9578320">
    <ele>142.7</ele>
    <time>2018-08-18T04:42:34Z</time>
   </trkpt>
   <trkpt lat="31.9220920" lon="34.9578720">
    <ele>142.7</ele>
    <time>2018-08-18T04:42:37Z</time>
   </trkpt>
   <trkpt lat="31.9221100" lon="34.9579000">
    <ele>142.7</ele>
    <time>2018-08-18T04:42:39Z</time>
   </trkpt>
   <trkpt lat="31.9221240" lon="34.9579300">
    <ele>142.9</ele>
    <time>2018-08-18T04:42:41Z</time>
   </trkpt>
   <trkpt lat="31.9221370" lon="34.9579620">
    <ele>143.1</ele>
    <time>2018-08-18T04:42:43Z</time>
   </trkpt>
   <trkpt lat="31.9221620" lon="34.9579930">
    <ele>143.4</ele>
    <time>2018-08-18T04:42:46Z</time>
   </trkpt>
   <trkpt lat="31.9221910" lon="34.9580210">
    <ele>143.7</ele>
    <time>2018-08-18T04:42:49Z</time>
   </trkpt>
   <trkpt lat="31.9222130" lon="34.9580470">
    <ele>143.9</ele>
    <time>2018-08-18T04:42:52Z</time>
   </trkpt>
   <trkpt lat="31.9222360" lon="34.9580630">
    <ele>144.1</ele>
    <time>2018-08-18T04:42:54Z</time>
   </trkpt>
   <trkpt lat="31.9222660" lon="34.9580650">
    <ele>144.3</ele>
    <time>2018-08-18T04:42:56Z</time>
   </trkpt>
   <trkpt lat="31.9222990" lon="34.9580770">
    <ele>144.5</ele>
    <time>2018-08-18T04:42:59Z</time>
   </trkpt>
   <trkpt lat="31.9223290" lon="34.9581030">
    <ele>144.8</ele>
    <time>2018-08-18T04:43:02Z</time>
   </trkpt>
   <trkpt lat="31.9223420" lon="34.9581390">
    <ele>145.0</ele>
    <time>2018-08-18T04:43:04Z</time>
   </trkpt>
   <trkpt lat="31.9223510" lon="34.9581790">
    <ele>145.4</ele>
    <time>2018-08-18T04:43:06Z</time>
   </trkpt>
   <trkpt lat="31.9223610" lon="34.9582100">
    <ele>145.8</ele>
    <time>2018-08-18T04:43:08Z</time>
   </trkpt>
   <trkpt lat="31.9223760" lon="34.9582570">
    <ele>146.5</ele>
    <time>2018-08-18T04:43:11Z</time>
   </trkpt>
   <trkpt lat="31.9223840" lon="34.9582890">
    <ele>146.9</ele>
    <time>2018-08-18T04:43:13Z</time>
   </trkpt>
   <trkpt lat="31.9223960" lon="34.9583230">
    <ele>147.1</ele>
    <time>2018-08-18T04:43:16Z</time>
   </trkpt>
   <trkpt lat="31.9224190" lon="34.9583470">
    <ele>147.4</ele>
    <time>2018-08-18T04:43:19Z</time>
   </trkpt>
   <trkpt lat="31.9224500" lon="34.9583650">
    <ele>147.5</ele>
    <time>2018-08-18T04:43:22Z</time>
   </trkpt>
   <trkpt lat="31.9224750" lon="34.9583940">
    <ele>147.7</ele>
    <time>2018-08-18T04:43:25Z</time>
   </trkpt>
   <trkpt lat="31.9224960" lon="34.9584210">
    <ele>147.8</ele>
    <time>2018-08-18T04:43:28Z</time>
   </trkpt>
   <trkpt lat="31.9225170" lon="34.9584470">
    <ele>147.9</ele>
    <time>2018-08-18T04:43:30Z</time>
   </trkpt>
   <trkpt lat="31.9225410" lon="34.9584750">
    <ele>148.0</ele>
    <time>2018-08-18T04:43:32Z</time>
   </trkpt>
   <trkpt lat="31.9225620" lon="34.9584990">
    <ele>148.0</ele>
    <time>2018-08-18T04:43:34Z</time>
   </trkpt>
   <trkpt lat="31.9225850" lon="34.9585200">
    <ele>148.0</ele>
    <time>2018-08-18T04:43:36Z</time>
   </trkpt>
   <trkpt lat="31.9226040" lon="34.9585460">
    <ele>148.0</ele>
    <time>2018-08-18T04:43:38Z</time>
   </trkpt>
   <trkpt lat="31.9226230" lon="34.9585700">
    <ele>147.9</ele>
    <time>2018-08-18T04:43:40Z</time>
   </trkpt>
   <trkpt lat="31.9226530" lon="34.9585810">
    <ele>147.8</ele>
    <time>2018-08-18T04:43:42Z</time>
   </trkpt>
   <trkpt lat="31.9226800" lon="34.9585890">
    <ele>147.8</ele>
    <time>2018-08-18T04:43:44Z</time>
   </trkpt>
   <trkpt lat="31.9227100" lon="34.9586130">
    <ele>147.8</ele>
    <time>2018-08-18T04:43:47Z</time>
   </trkpt>
   <trkpt lat="31.9227270" lon="34.9586410">
    <ele>147.9</ele>
    <time>2018-08-18T04:43:49Z</time>
   </trkpt>
   <trkpt lat="31.9227380" lon="34.9586740">
    <ele>148.0</ele>
    <time>2018-08-18T04:43:51Z</time>
   </trkpt>
   <trkpt lat="31.9227470" lon="34.9587040">
    <ele>148.0</ele>
    <time>2018-08-18T04:43:53Z</time>
   </trkpt>
   <trkpt lat="31.9227600" lon="34.9587430">
    <ele>148.0</ele>
    <time>2018-08-18T04:43:55Z</time>
   </trkpt>
   <trkpt lat="31.9227830" lon="34.9587800">
    <ele>148.0</ele>
    <time>2018-08-18T04:43:58Z</time>
   </trkpt>
   <trkpt lat="31.9228040" lon="34.9588010">
    <ele>147.9</ele>
    <time>2018-08-18T04:44:00Z</time>
   </trkpt>
   <trkpt lat="31.9228280" lon="34.9588300">
    <ele>148.0</ele>
    <time>2018-08-18T04:44:02Z</time>
   </trkpt>
   <trkpt lat="31.9228490" lon="34.9588600">
    <ele>148.1</ele>
    <time>2018-08-18T04:44:04Z</time>
   </trkpt>
   <trkpt lat="31.9228660" lon="34.9588880">
    <ele>148.1</ele>
    <time>2018-08-18T04:44:06Z</time>
   </trkpt>
   <trkpt lat="31.9228820" lon="34.9589230">
    <ele>148.3</ele>
    <time>2018-08-18T04:44:08Z</time>
   </trkpt>
   <trkpt lat="31.9229050" lon="34.9589550">
    <ele>148.4</ele>
    <time>2018-08-18T04:44:10Z</time>
   </trkpt>
   <trkpt lat="31.9229290" lon="34.9589950">
    <ele>148.6</ele>
    <time>2018-08-18T04:44:12Z</time>
   </trkpt>
   <trkpt lat="31.9229540" lon="34.9590310">
    <ele>148.7</ele>
    <time>2018-08-18T04:44:14Z</time>
   </trkpt>
   <trkpt lat="31.9229750" lon="34.9590600">
    <ele>148.9</ele>
    <time>2018-08-18T04:44:16Z</time>
   </trkpt>
   <trkpt lat="31.9230000" lon="34.9590930">
    <ele>149.1</ele>
    <time>2018-08-18T04:44:18Z</time>
   </trkpt>
   <trkpt lat="31.9230350" lon="34.9591240">
    <ele>149.5</ele>
    <time>2018-08-18T04:44:20Z</time>
   </trkpt>
   <trkpt lat="31.9230770" lon="34.9591460">
    <ele>149.8</ele>
    <time>2018-08-18T04:44:22Z</time>
   </trkpt>
   <trkpt lat="31.9231190" lon="34.9591730">
    <ele>150.0</ele>
    <time>2018-08-18T04:44:24Z</time>
   </trkpt>
   <trkpt lat="31.9231570" lon="34.9592000">
    <ele>150.2</ele>
    <time>2018-08-18T04:44:26Z</time>
   </trkpt>
   <trkpt lat="31.9231920" lon="34.9592230">
    <ele>150.4</ele>
    <time>2018-08-18T04:44:28Z</time>
   </trkpt>
   <trkpt lat="31.9232300" lon="34.9592510">
    <ele>150.7</ele>
    <time>2018-08-18T04:44:30Z</time>
   </trkpt>
   <trkpt lat="31.9232670" lon="34.9592850">
    <ele>150.9</ele>
    <time>2018-08-18T04:44:32Z</time>
   </trkpt>
   <trkpt lat="31.9233070" lon="34.9593120">
    <ele>151.1</ele>
    <time>2018-08-18T04:44:34Z</time>
   </trkpt>
   <trkpt lat="31.9233490" lon="34.9593320">
    <ele>151.2</ele>
    <time>2018-08-18T04:44:36Z</time>
   </trkpt>
   <trkpt lat="31.9233750" lon="34.9593470">
    <ele>151.4</ele>
    <time>2018-08-18T04:44:37Z</time>
   </trkpt>
   <trkpt lat="31.9234060" lon="34.9593920">
    <ele>151.6</ele>
    <time>2018-08-18T04:44:39Z</time>
   </trkpt>
   <trkpt lat="31.9234280" lon="34.9594460">
    <ele>151.8</ele>
    <time>2018-08-18T04:44:41Z</time>
   </trkpt>
   <trkpt lat="31.9234510" lon="34.9595000">
    <ele>152.0</ele>
    <time>2018-08-18T04:44:43Z</time>
   </trkpt>
   <trkpt lat="31.9234610" lon="34.9595570">
    <ele>152.1</ele>
    <time>2018-08-18T04:44:45Z</time>
   </trkpt>
   <trkpt lat="31.9234800" lon="34.9596070">
    <ele>152.3</ele>
    <time>2018-08-18T04:44:47Z</time>
   </trkpt>
   <trkpt lat="31.9234970" lon="34.9596540">
    <ele>152.4</ele>
    <time>2018-08-18T04:44:49Z</time>
   </trkpt>
   <trkpt lat="31.9235160" lon="34.9597020">
    <ele>152.6</ele>
    <time>2018-08-18T04:44:51Z</time>
   </trkpt>
   <trkpt lat="31.9235460" lon="34.9597510">
    <ele>152.8</ele>
    <time>2018-08-18T04:44:53Z</time>
   </trkpt>
   <trkpt lat="31.9235640" lon="34.9597750">
    <ele>152.9</ele>
    <time>2018-08-18T04:44:54Z</time>
   </trkpt>
   <trkpt lat="31.9235830" lon="34.9598030">
    <ele>153.1</ele>
    <time>2018-08-18T04:44:55Z</time>
   </trkpt>
   <trkpt lat="31.9236000" lon="34.9598310">
    <ele>153.4</ele>
    <time>2018-08-18T04:44:56Z</time>
   </trkpt>
   <trkpt lat="31.9236140" lon="34.9598610">
    <ele>153.6</ele>
    <time>2018-08-18T04:44:57Z</time>
   </trkpt>
   <trkpt lat="31.9236290" lon="34.9598920">
    <ele>153.7</ele>
    <time>2018-08-18T04:44:58Z</time>
   </trkpt>
   <trkpt lat="31.9236420" lon="34.9599260">
    <ele>153.9</ele>
    <time>2018-08-18T04:44:59Z</time>
   </trkpt>
   <trkpt lat="31.9236510" lon="34.9599840">
    <ele>154.1</ele>
    <time>2018-08-18T04:45:01Z</time>
   </trkpt>
   <trkpt lat="31.9236590" lon="34.9600240">
    <ele>154.3</ele>
    <time>2018-08-18T04:45:03Z</time>
   </trkpt>
   <trkpt lat="31.9236740" lon="34.9600700">
    <ele>154.5</ele>
    <time>2018-08-18T04:45:05Z</time>
   </trkpt>
   <trkpt lat="31.9236910" lon="34.9601140">
    <ele>154.5</ele>
    <time>2018-08-18T04:45:07Z</time>
   </trkpt>
   <trkpt lat="31.9237240" lon="34.9601620">
    <ele>154.6</ele>
    <time>2018-08-18T04:45:09Z</time>
   </trkpt>
   <trkpt lat="31.9237400" lon="34.9601910">
    <ele>154.6</ele>
    <time>2018-08-18T04:45:10Z</time>
   </trkpt>
   <trkpt lat="31.9237550" lon="34.9602170">
    <ele>154.6</ele>
    <time>2018-08-18T04:45:11Z</time>
   </trkpt>
   <trkpt lat="31.9237770" lon="34.9602390">
    <ele>154.6</ele>
    <time>2018-08-18T04:45:12Z</time>
   </trkpt>
   <trkpt lat="31.9238280" lon="34.9602750">
    <ele>154.5</ele>
    <time>2018-08-18T04:45:14Z</time>
   </trkpt>
   <trkpt lat="31.9238660" lon="34.9602920">
    <ele>154.4</ele>
    <time>2018-08-18T04:45:15Z</time>
   </trkpt>
   <trkpt lat="31.9239080" lon="34.9603130">
    <ele>154.3</ele>
    <time>2018-08-18T04:45:16Z</time>
   </trkpt>
   <trkpt lat="31.9239550" lon="34.9603350">
    <ele>154.0</ele>
    <time>2018-08-18T04:45:17Z</time>
   </trkpt>
   <trkpt lat="31.9240060" lon="34.9603560">
    <ele>153.8</ele>
    <time>2018-08-18T04:45:18Z</time>
   </trkpt>
   <trkpt lat="31.9240570" lon="34.9603760">
    <ele>153.7</ele>
    <time>2018-08-18T04:45:19Z</time>
   </trkpt>
   <trkpt lat="31.9241090" lon="34.9603980">
    <ele>153.5</ele>
    <time>2018-08-18T04:45:20Z</time>
   </trkpt>
   <trkpt lat="31.9241660" lon="34.9604200">
    <ele>153.3</ele>
    <time>2018-08-18T04:45:21Z</time>
   </trkpt>
   <trkpt lat="31.9242280" lon="34.9604430">
    <ele>153.1</ele>
    <time>2018-08-18T04:45:22Z</time>
   </trkpt>
   <trkpt lat="31.9242920" lon="34.9604750">
    <ele>153.0</ele>
    <time>2018-08-18T04:45:23Z</time>
   </trkpt>
   <trkpt lat="31.9243500" lon="34.9605130">
    <ele>153.0</ele>
    <time>2018-08-18T04:45:24Z</time>
   </trkpt>
   <trkpt lat="31.9243960" lon="34.9605530">
    <ele>153.1</ele>
    <time>2018-08-18T04:45:25Z</time>
   </trkpt>
   <trkpt lat="31.9244360" lon="34.9605820">
    <ele>153.2</ele>
    <time>2018-08-18T04:45:26Z</time>
   </trkpt>
   <trkpt lat="31.9244720" lon="34.9606010">
    <ele>153.3</ele>
    <time>2018-08-18T04:45:27Z</time>
   </trkpt>
   <trkpt lat="31.9245100" lon="34.9606160">
    <ele>153.5</ele>
    <time>2018-08-18T04:45:28Z</time>
   </trkpt>
   <trkpt lat="31.9245440" lon="34.9606260">
    <ele>153.7</ele>
    <time>2018-08-18T04:45:29Z</time>
   </trkpt>
   <trkpt lat="31.9245960" lon="34.9606370">
    <ele>154.0</ele>
    <time>2018-08-18T04:45:31Z</time>
   </trkpt>
   <trkpt lat="31.9246450" lon="34.9606520">
    <ele>154.3</ele>
    <time>2018-08-18T04:45:33Z</time>
   </trkpt>
   <trkpt lat="31.9246760" lon="34.9606660">
    <ele>154.4</ele>
    <time>2018-08-18T04:45:34Z</time>
   </trkpt>
   <trkpt lat="31.9247120" lon="34.9606870">
    <ele>154.5</ele>
    <time>2018-08-18T04:45:35Z</time>
   </trkpt>
   <trkpt lat="31.9247450" lon="34.9606990">
    <ele>154.6</ele>
    <time>2018-08-18T04:45:36Z</time>
   </trkpt>
   <trkpt lat="31.9247790" lon="34.9607140">
    <ele>154.6</ele>
    <time>2018-08-18T04:45:37Z</time>
   </trkpt>
   <trkpt lat="31.9248090" lon="34.9607260">
    <ele>154.7</ele>
    <time>2018-08-18T04:45:38Z</time>
   </trkpt>
   <trkpt lat="31.9248390" lon="34.9607340">
    <ele>154.7</ele>
    <time>2018-08-18T04:45:39Z</time>
   </trkpt>
   <trkpt lat="31.9248690" lon="34.9607410">
    <ele>154.7</ele>
    <time>2018-08-18T04:45:40Z</time>
   </trkpt>
   <trkpt lat="31.9249010" lon="34.9607500">
    <ele>154.7</ele>
    <time>2018-08-18T04:45:41Z</time>
   </trkpt>
   <trkpt lat="31.9249320" lon="34.9607540">
    <ele>154.7</ele>
    <time>2018-08-18T04:45:42Z</time>
   </trkpt>
   <trkpt lat="31.9249630" lon="34.9607550">
    <ele>154.7</ele>
    <time>2018-08-18T04:45:43Z</time>
   </trkpt>
   <trkpt lat="31.9249900" lon="34.9607550">
    <ele>154.7</ele>
    <time>2018-08-18T04:45:44Z</time>
   </trkpt>
   <trkpt lat="31.9250430" lon="34.9607590">
    <ele>154.7</ele>
    <time>2018-08-18T04:45:46Z</time>
   </trkpt>
   <trkpt lat="31.9250720" lon="34.9607620">
    <ele>154.7</ele>
    <time>2018-08-18T04:45:47Z</time>
   </trkpt>
   <trkpt lat="31.9251020" lon="34.9607740">
    <ele>154.7</ele>
    <time>2018-08-18T04:45:48Z</time>
   </trkpt>
   <trkpt lat="31.9251310" lon="34.9607840">
    <ele>154.6</ele>
    <time>2018-08-18T04:45:49Z</time>
   </trkpt>
   <trkpt lat="31.9251640" lon="34.9608010">
    <ele>154.6</ele>
    <time>2018-08-18T04:45:50Z</time>
   </trkpt>
   <trkpt lat="31.9251940" lon="34.9608140">
    <ele>154.6</ele>
    <time>2018-08-18T04:45:51Z</time>
   </trkpt>
   <trkpt lat="31.9252220" lon="34.9608260">
    <ele>154.6</ele>
    <time>2018-08-18T04:45:52Z</time>
   </trkpt>
   <trkpt lat="31.9252700" lon="34.9608420">
    <ele>154.6</ele>
    <time>2018-08-18T04:45:54Z</time>
   </trkpt>
   <trkpt lat="31.9252970" lon="34.9608550">
    <ele>154.6</ele>
    <time>2018-08-18T04:45:55Z</time>
   </trkpt>
   <trkpt lat="31.9253470" lon="34.9608810">
    <ele>154.5</ele>
    <time>2018-08-18T04:45:57Z</time>
   </trkpt>
   <trkpt lat="31.9253750" lon="34.9608930">
    <ele>154.5</ele>
    <time>2018-08-18T04:45:58Z</time>
   </trkpt>
   <trkpt lat="31.9254060" lon="34.9609120">
    <ele>154.5</ele>
    <time>2018-08-18T04:45:59Z</time>
   </trkpt>
   <trkpt lat="31.9254380" lon="34.9609330">
    <ele>154.5</ele>
    <time>2018-08-18T04:46:00Z</time>
   </trkpt>
   <trkpt lat="31.9254700" lon="34.9609530">
    <ele>154.4</ele>
    <time>2018-08-18T04:46:01Z</time>
   </trkpt>
   <trkpt lat="31.9254940" lon="34.9609690">
    <ele>154.4</ele>
    <time>2018-08-18T04:46:02Z</time>
   </trkpt>
   <trkpt lat="31.9255180" lon="34.9609850">
    <ele>154.4</ele>
    <time>2018-08-18T04:46:03Z</time>
   </trkpt>
   <trkpt lat="31.9255440" lon="34.9609990">
    <ele>154.4</ele>
    <time>2018-08-18T04:46:04Z</time>
   </trkpt>
   <trkpt lat="31.9255780" lon="34.9610240">
    <ele>154.4</ele>
    <time>2018-08-18T04:46:05Z</time>
   </trkpt>
   <trkpt lat="31.9256020" lon="34.9610440">
    <ele>154.3</ele>
    <time>2018-08-18T04:46:06Z</time>
   </trkpt>
   <trkpt lat="31.9256250" lon="34.9610600">
    <ele>154.3</ele>
    <time>2018-08-18T04:46:07Z</time>
   </trkpt>
   <trkpt lat="31.9256530" lon="34.9610800">
    <ele>154.3</ele>
    <time>2018-08-18T04:46:08Z</time>
   </trkpt>
   <trkpt lat="31.9257020" lon="34.9610980">
    <ele>154.3</ele>
    <time>2018-08-18T04:46:10Z</time>
   </trkpt>
   <trkpt lat="31.9257340" lon="34.9611090">
    <ele>154.2</ele>
    <time>2018-08-18T04:46:11Z</time>
   </trkpt>
   <trkpt lat="31.9257650" lon="34.9611240">
    <ele>154.2</ele>
    <time>2018-08-18T04:46:12Z</time>
   </trkpt>
   <trkpt lat="31.9257990" lon="34.9611410">
    <ele>154.2</ele>
    <time>2018-08-18T04:46:13Z</time>
   </trkpt>
   <trkpt lat="31.9258350" lon="34.9611580">
    <ele>154.2</ele>
    <time>2018-08-18T04:46:14Z</time>
   </trkpt>
   <trkpt lat="31.9258700" lon="34.9611760">
    <ele>154.1</ele>
    <time>2018-08-18T04:46:15Z</time>
   </trkpt>
   <trkpt lat="31.9259010" lon="34.9612020">
    <ele>154.1</ele>
    <time>2018-08-18T04:46:16Z</time>
   </trkpt>
   <trkpt lat="31.9259160" lon="34.9612340">
    <ele>154.1</ele>
    <time>2018-08-18T04:46:17Z</time>
   </trkpt>
   <trkpt lat="31.9259160" lon="34.9612700">
    <ele>154.0</ele>
    <time>2018-08-18T04:46:18Z</time>
   </trkpt>
   <trkpt lat="31.9259030" lon="34.9612990">
    <ele>154.0</ele>
    <time>2018-08-18T04:46:19Z</time>
   </trkpt>
   <trkpt lat="31.9258830" lon="34.9613240">
    <ele>154.0</ele>
    <time>2018-08-18T04:46:20Z</time>
   </trkpt>
   <trkpt lat="31.9258650" lon="34.9613490">
    <ele>154.0</ele>
    <time>2018-08-18T04:46:21Z</time>
   </trkpt>
   <trkpt lat="31.9258460" lon="34.9613730">
    <ele>154.0</ele>
    <time>2018-08-18T04:46:22Z</time>
   </trkpt>
   <trkpt lat="31.9258110" lon="34.9614200">
    <ele>154.0</ele>
    <time>2018-08-18T04:46:24Z</time>
   </trkpt>
   <trkpt lat="31.9257890" lon="34.9614770">
    <ele>154.0</ele>
    <time>2018-08-18T04:46:26Z</time>
   </trkpt>
   <trkpt lat="31.9258060" lon="34.9615250">
    <ele>154.2</ele>
    <time>2018-08-18T04:46:28Z</time>
   </trkpt>
   <trkpt lat="31.9258240" lon="34.9615480">
    <ele>154.4</ele>
    <time>2018-08-18T04:46:29Z</time>
   </trkpt>
   <trkpt lat="31.9258530" lon="34.9615880">
    <ele>154.6</ele>
    <time>2018-08-18T04:46:31Z</time>
   </trkpt>
   <trkpt lat="31.9258720" lon="34.9616170">
    <ele>154.8</ele>
    <time>2018-08-18T04:46:33Z</time>
   </trkpt>
   <trkpt lat="31.9258960" lon="34.9616650">
    <ele>155.0</ele>
    <time>2018-08-18T04:46:35Z</time>
   </trkpt>
   <trkpt lat="31.9259140" lon="34.9616980">
    <ele>155.1</ele>
    <time>2018-08-18T04:46:36Z</time>
   </trkpt>
   <trkpt lat="31.9259300" lon="34.9617350">
    <ele>155.2</ele>
    <time>2018-08-18T04:46:37Z</time>
   </trkpt>
   <trkpt lat="31.9259660" lon="34.9617720">
    <ele>155.3</ele>
    <time>2018-08-18T04:46:39Z</time>
   </trkpt>
   <trkpt lat="31.9259920" lon="34.9617950">
    <ele>155.4</ele>
    <time>2018-08-18T04:46:41Z</time>
   </trkpt>
   <trkpt lat="31.9260280" lon="34.9618330">
    <ele>155.3</ele>
    <time>2018-08-18T04:46:43Z</time>
   </trkpt>
   <trkpt lat="31.9260500" lon="34.9618620">
    <ele>155.3</ele>
    <time>2018-08-18T04:46:44Z</time>
   </trkpt>
   <trkpt lat="31.9260720" lon="34.9618940">
    <ele>155.2</ele>
    <time>2018-08-18T04:46:45Z</time>
   </trkpt>
   <trkpt lat="31.9261020" lon="34.9619510">
    <ele>155.1</ele>
    <time>2018-08-18T04:46:47Z</time>
   </trkpt>
   <trkpt lat="31.9261220" lon="34.9619740">
    <ele>155.1</ele>
    <time>2018-08-18T04:46:48Z</time>
   </trkpt>
   <trkpt lat="31.9261540" lon="34.9619910">
    <ele>155.0</ele>
    <time>2018-08-18T04:46:49Z</time>
   </trkpt>
   <trkpt lat="31.9262160" lon="34.9620130">
    <ele>154.8</ele>
    <time>2018-08-18T04:46:50Z</time>
   </trkpt>
   <trkpt lat="31.9262780" lon="34.9620270">
    <ele>154.7</ele>
    <time>2018-08-18T04:46:51Z</time>
   </trkpt>
   <trkpt lat="31.9263410" lon="34.9620290">
    <ele>154.6</ele>
    <time>2018-08-18T04:46:52Z</time>
   </trkpt>
   <trkpt lat="31.9263980" lon="34.9620280">
    <ele>154.5</ele>
    <time>2018-08-18T04:46:53Z</time>
   </trkpt>
   <trkpt lat="31.9264550" lon="34.9620200">
    <ele>154.4</ele>
    <time>2018-08-18T04:46:54Z</time>
   </trkpt>
   <trkpt lat="31.9265040" lon="34.9620070">
    <ele>154.3</ele>
    <time>2018-08-18T04:46:55Z</time>
   </trkpt>
   <trkpt lat="31.9265530" lon="34.9619900">
    <ele>154.3</ele>
    <time>2018-08-18T04:46:56Z</time>
   </trkpt>
   <trkpt lat="31.9266030" lon="34.9619810">
    <ele>154.3</ele>
    <time>2018-08-18T04:46:57Z</time>
   </trkpt>
   <trkpt lat="31.9266490" lon="34.9619730">
    <ele>154.2</ele>
    <time>2018-08-18T04:46:58Z</time>
   </trkpt>
   <trkpt lat="31.9266950" lon="34.9619620">
    <ele>154.2</ele>
    <time>2018-08-18T04:46:59Z</time>
   </trkpt>
   <trkpt lat="31.9267410" lon="34.9619440">
    <ele>154.2</ele>
    <time>2018-08-18T04:47:00Z</time>
   </trkpt>
   <trkpt lat="31.9267930" lon="34.9619250">
    <ele>154.1</ele>
    <time>2018-08-18T04:47:01Z</time>
   </trkpt>
   <trkpt lat="31.9268460" lon="34.9619100">
    <ele>154.0</ele>
    <time>2018-08-18T04:47:02Z</time>
   </trkpt>
   <trkpt lat="31.9269020" lon="34.9618980">
    <ele>153.9</ele>
    <time>2018-08-18T04:47:03Z</time>
   </trkpt>
   <trkpt lat="31.9269600" lon="34.9618830">
    <ele>153.9</ele>
    <time>2018-08-18T04:47:04Z</time>
   </trkpt>
   <trkpt lat="31.9270170" lon="34.9618680">
    <ele>153.8</ele>
    <time>2018-08-18T04:47:05Z</time>
   </trkpt>
   <trkpt lat="31.9270760" lon="34.9618530">
    <ele>153.6</ele>
    <time>2018-08-18T04:47:06Z</time>
   </trkpt>
   <trkpt lat="31.9271350" lon="34.9618210">
    <ele>153.6</ele>
    <time>2018-08-18T04:47:07Z</time>
   </trkpt>
   <trkpt lat="31.9271950" lon="34.9617890">
    <ele>153.5</ele>
    <time>2018-08-18T04:47:08Z</time>
   </trkpt>
   <trkpt lat="31.9272530" lon="34.9617620">
    <ele>153.5</ele>
    <time>2018-08-18T04:47:09Z</time>
   </trkpt>
   <trkpt lat="31.9273060" lon="34.9617340">
    <ele>153.5</ele>
    <time>2018-08-18T04:47:10Z</time>
   </trkpt>
   <trkpt lat="31.9273590" lon="34.9617110">
    <ele>153.4</ele>
    <time>2018-08-18T04:47:11Z</time>
   </trkpt>
   <trkpt lat="31.9274110" lon="34.9616910">
    <ele>153.4</ele>
    <time>2018-08-18T04:47:12Z</time>
   </trkpt>
   <trkpt lat="31.9274630" lon="34.9616720">
    <ele>153.4</ele>
    <time>2018-08-18T04:47:13Z</time>
   </trkpt>
   <trkpt lat="31.9275190" lon="34.9616570">
    <ele>153.4</ele>
    <time>2018-08-18T04:47:14Z</time>
   </trkpt>
   <trkpt lat="31.9275750" lon="34.9616400">
    <ele>153.5</ele>
    <time>2018-08-18T04:47:15Z</time>
   </trkpt>
   <trkpt lat="31.9276290" lon="34.9616210">
    <ele>153.6</ele>
    <time>2018-08-18T04:47:16Z</time>
   </trkpt>
   <trkpt lat="31.9276810" lon="34.9616010">
    <ele>153.7</ele>
    <time>2018-08-18T04:47:17Z</time>
   </trkpt>
   <trkpt lat="31.9277240" lon="34.9615800">
    <ele>153.8</ele>
    <time>2018-08-18T04:47:18Z</time>
   </trkpt>
   <trkpt lat="31.9277590" lon="34.9615630">
    <ele>153.9</ele>
    <time>2018-08-18T04:47:19Z</time>
   </trkpt>
   <trkpt lat="31.9277900" lon="34.9615580">
    <ele>154.0</ele>
    <time>2018-08-18T04:47:20Z</time>
   </trkpt>
   <trkpt lat="31.9278440" lon="34.9615640">
    <ele>153.7</ele>
    <time>2018-08-18T04:47:22Z</time>
   </trkpt>
   <trkpt lat="31.9278690" lon="34.9615790">
    <ele>153.6</ele>
    <time>2018-08-18T04:47:23Z</time>
   </trkpt>
   <trkpt lat="31.9279150" lon="34.9615860">
    <ele>153.4</ele>
    <time>2018-08-18T04:47:25Z</time>
   </trkpt>
   <trkpt lat="31.9279480" lon="34.9615710">
    <ele>153.3</ele>
    <time>2018-08-18T04:47:26Z</time>
   </trkpt>
   <trkpt lat="31.9279800" lon="34.9615500">
    <ele>153.2</ele>
    <time>2018-08-18T04:47:27Z</time>
   </trkpt>
   <trkpt lat="31.9280090" lon="34.9615310">
    <ele>153.1</ele>
    <time>2018-08-18T04:47:28Z</time>
   </trkpt>
   <trkpt lat="31.9280400" lon="34.9615200">
    <ele>153.1</ele>
    <time>2018-08-18T04:47:29Z</time>
   </trkpt>
   <trkpt lat="31.9280740" lon="34.9615180">
    <ele>153.0</ele>
    <time>2018-08-18T04:47:30Z</time>
   </trkpt>
   <trkpt lat="31.9281200" lon="34.9615170">
    <ele>153.0</ele>
    <time>2018-08-18T04:47:31Z</time>
   </trkpt>
   <trkpt lat="31.9281730" lon="34.9615130">
    <ele>153.0</ele>
    <time>2018-08-18T04:47:32Z</time>
   </trkpt>
   <trkpt lat="31.9282300" lon="34.9615120">
    <ele>153.0</ele>
    <time>2018-08-18T04:47:33Z</time>
   </trkpt>
   <trkpt lat="31.9282880" lon="34.9615150">
    <ele>153.0</ele>
    <time>2018-08-18T04:47:34Z</time>
   </trkpt>
   <trkpt lat="31.9283440" lon="34.9615240">
    <ele>153.0</ele>
    <time>2018-08-18T04:47:35Z</time>
   </trkpt>
   <trkpt lat="31.9283920" lon="34.9615400">
    <ele>152.6</ele>
    <time>2018-08-18T04:47:36Z</time>
   </trkpt>
   <trkpt lat="31.9284440" lon="34.9615660">
    <ele>152.4</ele>
    <time>2018-08-18T04:47:37Z</time>
   </trkpt>
   <trkpt lat="31.9284970" lon="34.9616130">
    <ele>152.3</ele>
    <time>2018-08-18T04:47:38Z</time>
   </trkpt>
   <trkpt lat="31.9285480" lon="34.9616670">
    <ele>152.1</ele>
    <time>2018-08-18T04:47:39Z</time>
   </trkpt>
   <trkpt lat="31.9285930" lon="34.9617290">
    <ele>152.0</ele>
    <time>2018-08-18T04:47:40Z</time>
   </trkpt>
   <trkpt lat="31.9286330" lon="34.9617890">
    <ele>151.8</ele>
    <time>2018-08-18T04:47:41Z</time>
   </trkpt>
   <trkpt lat="31.9286750" lon="34.9618520">
    <ele>151.5</ele>
    <time>2018-08-18T04:47:42Z</time>
   </trkpt>
   <trkpt lat="31.9287090" lon="34.9619030">
    <ele>151.7</ele>
    <time>2018-08-18T04:47:43Z</time>
   </trkpt>
   <trkpt lat="31.9287350" lon="34.9619490">
    <ele>151.6</ele>
    <time>2018-08-18T04:47:44Z</time>
   </trkpt>
   <trkpt lat="31.9287540" lon="34.9620080">
    <ele>151.4</ele>
    <time>2018-08-18T04:47:45Z</time>
   </trkpt>
   <trkpt lat="31.9287730" lon="34.9620730">
    <ele>151.6</ele>
    <time>2018-08-18T04:47:46Z</time>
   </trkpt>
   <trkpt lat="31.9288000" lon="34.9621230">
    <ele>151.0</ele>
    <time>2018-08-18T04:47:47Z</time>
   </trkpt>
   <trkpt lat="31.9288210" lon="34.9621650">
    <ele>150.2</ele>
    <time>2018-08-18T04:47:48Z</time>
   </trkpt>
   <trkpt lat="31.9288470" lon="34.9622110">
    <ele>150.3</ele>
    <time>2018-08-18T04:47:49Z</time>
   </trkpt>
   <trkpt lat="31.9288700" lon="34.9622660">
    <ele>149.8</ele>
    <time>2018-08-18T04:47:50Z</time>
   </trkpt>
   <trkpt lat="31.9288870" lon="34.9623000">
    <ele>150.1</ele>
    <time>2018-08-18T04:47:51Z</time>
   </trkpt>
   <trkpt lat="31.9288970" lon="34.9623440">
    <ele>150.0</ele>
    <time>2018-08-18T04:47:52Z</time>
   </trkpt>
   <trkpt lat="31.9288950" lon="34.9623940">
    <ele>150.4</ele>
    <time>2018-08-18T04:47:53Z</time>
   </trkpt>
   <trkpt lat="31.9288980" lon="34.9624420">
    <ele>150.7</ele>
    <time>2018-08-18T04:47:55Z</time>
   </trkpt>
   <trkpt lat="31.9289430" lon="34.9624520">
    <ele>150.5</ele>
    <time>2018-08-18T04:47:57Z</time>
   </trkpt>
   <trkpt lat="31.9289780" lon="34.9624420">
    <ele>150.4</ele>
    <time>2018-08-18T04:47:58Z</time>
   </trkpt>
   <trkpt lat="31.9290140" lon="34.9624090">
    <ele>150.3</ele>
    <time>2018-08-18T04:47:59Z</time>
   </trkpt>
   <trkpt lat="31.9290630" lon="34.9623770">
    <ele>150.2</ele>
    <time>2018-08-18T04:48:00Z</time>
   </trkpt>
   <trkpt lat="31.9291100" lon="34.9623480">
    <ele>149.9</ele>
    <time>2018-08-18T04:48:01Z</time>
   </trkpt>
   <trkpt lat="31.9291480" lon="34.9623270">
    <ele>149.6</ele>
    <time>2018-08-18T04:48:02Z</time>
   </trkpt>
   <trkpt lat="31.9291930" lon="34.9623070">
    <ele>149.3</ele>
    <time>2018-08-18T04:48:03Z</time>
   </trkpt>
   <trkpt lat="31.9292350" lon="34.9622980">
    <ele>149.1</ele>
    <time>2018-08-18T04:48:04Z</time>
   </trkpt>
   <trkpt lat="31.9292820" lon="34.9622790">
    <ele>149.0</ele>
    <time>2018-08-18T04:48:05Z</time>
   </trkpt>
   <trkpt lat="31.9293360" lon="34.9622620">
    <ele>148.9</ele>
    <time>2018-08-18T04:48:06Z</time>
   </trkpt>
   <trkpt lat="31.9293980" lon="34.9622510">
    <ele>148.8</ele>
    <time>2018-08-18T04:48:07Z</time>
   </trkpt>
   <trkpt lat="31.9294670" lon="34.9622360">
    <ele>148.5</ele>
    <time>2018-08-18T04:48:08Z</time>
   </trkpt>
   <trkpt lat="31.9295370" lon="34.9622310">
    <ele>148.0</ele>
    <time>2018-08-18T04:48:09Z</time>
   </trkpt>
   <trkpt lat="31.9296060" lon="34.9622410">
    <ele>147.7</ele>
    <time>2018-08-18T04:48:10Z</time>
   </trkpt>
   <trkpt lat="31.9296850" lon="34.9622520">
    <ele>147.6</ele>
    <time>2018-08-18T04:48:11Z</time>
   </trkpt>
   <trkpt lat="31.9297640" lon="34.9622520">
    <ele>147.4</ele>
    <time>2018-08-18T04:48:12Z</time>
   </trkpt>
   <trkpt lat="31.9298400" lon="34.9622680">
    <ele>147.0</ele>
    <time>2018-08-18T04:48:13Z</time>
   </trkpt>
   <trkpt lat="31.9299160" lon="34.9622860">
    <ele>146.6</ele>
    <time>2018-08-18T04:48:14Z</time>
   </trkpt>
   <trkpt lat="31.9299800" lon="34.9623110">
    <ele>146.4</ele>
    <time>2018-08-18T04:48:15Z</time>
   </trkpt>
   <trkpt lat="31.9300380" lon="34.9623230">
    <ele>146.2</ele>
    <time>2018-08-18T04:48:16Z</time>
   </trkpt>
   <trkpt lat="31.9300980" lon="34.9623440">
    <ele>146.1</ele>
    <time>2018-08-18T04:48:17Z</time>
   </trkpt>
   <trkpt lat="31.9301490" lon="34.9623550">
    <ele>145.9</ele>
    <time>2018-08-18T04:48:18Z</time>
   </trkpt>
   <trkpt lat="31.9301950" lon="34.9623630">
    <ele>145.6</ele>
    <time>2018-08-18T04:48:19Z</time>
   </trkpt>
   <trkpt lat="31.9302480" lon="34.9623600">
    <ele>145.0</ele>
    <time>2018-08-18T04:48:20Z</time>
   </trkpt>
   <trkpt lat="31.9303060" lon="34.9623460">
    <ele>145.0</ele>
    <time>2018-08-18T04:48:21Z</time>
   </trkpt>
   <trkpt lat="31.9303500" lon="34.9623370">
    <ele>145.0</ele>
    <time>2018-08-18T04:48:22Z</time>
   </trkpt>
   <trkpt lat="31.9303920" lon="34.9623350">
    <ele>145.0</ele>
    <time>2018-08-18T04:48:23Z</time>
   </trkpt>
   <trkpt lat="31.9304410" lon="34.9623300">
    <ele>145.0</ele>
    <time>2018-08-18T04:48:24Z</time>
   </trkpt>
   <trkpt lat="31.9304920" lon="34.9623290">
    <ele>145.0</ele>
    <time>2018-08-18T04:48:25Z</time>
   </trkpt>
   <trkpt lat="31.9305520" lon="34.9623530">
    <ele>145.0</ele>
    <time>2018-08-18T04:48:26Z</time>
   </trkpt>
   <trkpt lat="31.9306130" lon="34.9623750">
    <ele>145.0</ele>
    <time>2018-08-18T04:48:27Z</time>
   </trkpt>
   <trkpt lat="31.9306690" lon="34.9624090">
    <ele>144.7</ele>
    <time>2018-08-18T04:48:28Z</time>
   </trkpt>
   <trkpt lat="31.9307160" lon="34.9624380">
    <ele>144.0</ele>
    <time>2018-08-18T04:48:29Z</time>
   </trkpt>
   <trkpt lat="31.9307890" lon="34.9624800">
    <ele>142.9</ele>
    <time>2018-08-18T04:48:30Z</time>
   </trkpt>
   <trkpt lat="31.9308560" lon="34.9625170">
    <ele>140.7</ele>
    <time>2018-08-18T04:48:31Z</time>
   </trkpt>
   <trkpt lat="31.9309290" lon="34.9625580">
    <ele>138.6</ele>
    <time>2018-08-18T04:48:32Z</time>
   </trkpt>
   <trkpt lat="31.9310100" lon="34.9625950">
    <ele>137.1</ele>
    <time>2018-08-18T04:48:33Z</time>
   </trkpt>
   <trkpt lat="31.9310820" lon="34.9626110">
    <ele>135.9</ele>
    <time>2018-08-18T04:48:34Z</time>
   </trkpt>
   <trkpt lat="31.9311480" lon="34.9626330">
    <ele>135.1</ele>
    <time>2018-08-18T04:48:35Z</time>
   </trkpt>
   <trkpt lat="31.9312140" lon="34.9626590">
    <ele>134.4</ele>
    <time>2018-08-18T04:48:36Z</time>
   </trkpt>
   <trkpt lat="31.9312820" lon="34.9626760">
    <ele>133.4</ele>
    <time>2018-08-18T04:48:37Z</time>
   </trkpt>
   <trkpt lat="31.9313470" lon="34.9626830">
    <ele>132.4</ele>
    <time>2018-08-18T04:48:38Z</time>
   </trkpt>
   <trkpt lat="31.9314150" lon="34.9626880">
    <ele>130.9</ele>
    <time>2018-08-18T04:48:39Z</time>
   </trkpt>
   <trkpt lat="31.9314800" lon="34.9626870">
    <ele>129.0</ele>
    <time>2018-08-18T04:48:40Z</time>
   </trkpt>
   <trkpt lat="31.9315370" lon="34.9626870">
    <ele>127.5</ele>
    <time>2018-08-18T04:48:41Z</time>
   </trkpt>
   <trkpt lat="31.9315990" lon="34.9626830">
    <ele>126.0</ele>
    <time>2018-08-18T04:48:42Z</time>
   </trkpt>
   <trkpt lat="31.9316640" lon="34.9626610">
    <ele>124.3</ele>
    <time>2018-08-18T04:48:43Z</time>
   </trkpt>
   <trkpt lat="31.9317220" lon="34.9626400">
    <ele>124.0</ele>
    <time>2018-08-18T04:48:44Z</time>
   </trkpt>
   <trkpt lat="31.9317720" lon="34.9626260">
    <ele>124.0</ele>
    <time>2018-08-18T04:48:45Z</time>
   </trkpt>
   <trkpt lat="31.9318260" lon="34.9626030">
    <ele>124.0</ele>
    <time>2018-08-18T04:48:46Z</time>
   </trkpt>
   <trkpt lat="31.9318900" lon="34.9625860">
    <ele>124.0</ele>
    <time>2018-08-18T04:48:47Z</time>
   </trkpt>
   <trkpt lat="31.9319580" lon="34.9625730">
    <ele>124.0</ele>
    <time>2018-08-18T04:48:48Z</time>
   </trkpt>
   <trkpt lat="31.9320220" lon="34.9625670">
    <ele>124.0</ele>
    <time>2018-08-18T04:48:49Z</time>
   </trkpt>
   <trkpt lat="31.9320760" lon="34.9625670">
    <ele>124.0</ele>
    <time>2018-08-18T04:48:50Z</time>
   </trkpt>
   <trkpt lat="31.9321170" lon="34.9625610">
    <ele>124.0</ele>
    <time>2018-08-18T04:48:51Z</time>
   </trkpt>
   <trkpt lat="31.9321480" lon="34.9625600">
    <ele>124.0</ele>
    <time>2018-08-18T04:48:52Z</time>
   </trkpt>
   <trkpt lat="31.9321980" lon="34.9625770">
    <ele>124.0</ele>
    <time>2018-08-18T04:48:54Z</time>
   </trkpt>
   <trkpt lat="31.9322210" lon="34.9625960">
    <ele>124.0</ele>
    <time>2018-08-18T04:48:55Z</time>
   </trkpt>
   <trkpt lat="31.9322380" lon="34.9626370">
    <ele>124.0</ele>
    <time>2018-08-18T04:48:57Z</time>
   </trkpt>
   <trkpt lat="31.9322310" lon="34.9626900">
    <ele>124.0</ele>
    <time>2018-08-18T04:48:59Z</time>
   </trkpt>
   <trkpt lat="31.9321920" lon="34.9627260">
    <ele>124.9</ele>
    <time>2018-08-18T04:49:01Z</time>
   </trkpt>
   <trkpt lat="31.9321480" lon="34.9627690">
    <ele>126.2</ele>
    <time>2018-08-18T04:49:03Z</time>
   </trkpt>
   <trkpt lat="31.9321240" lon="34.9627950">
    <ele>126.9</ele>
    <time>2018-08-18T04:49:04Z</time>
   </trkpt>
   <trkpt lat="31.9321010" lon="34.9628140">
    <ele>127.5</ele>
    <time>2018-08-18T04:49:05Z</time>
   </trkpt>
   <trkpt lat="31.9320770" lon="34.9628340">
    <ele>128.1</ele>
    <time>2018-08-18T04:49:06Z</time>
   </trkpt>
   <trkpt lat="31.9320510" lon="34.9628540">
    <ele>128.6</ele>
    <time>2018-08-18T04:49:07Z</time>
   </trkpt>
   <trkpt lat="31.9320260" lon="34.9628780">
    <ele>129.2</ele>
    <time>2018-08-18T04:49:08Z</time>
   </trkpt>
   <trkpt lat="31.9320040" lon="34.9629030">
    <ele>129.6</ele>
    <time>2018-08-18T04:49:09Z</time>
   </trkpt>
   <trkpt lat="31.9319800" lon="34.9629330">
    <ele>130.0</ele>
    <time>2018-08-18T04:49:10Z</time>
   </trkpt>
   <trkpt lat="31.9319560" lon="34.9629620">
    <ele>130.2</ele>
    <time>2018-08-18T04:49:11Z</time>
   </trkpt>
   <trkpt lat="31.9319290" lon="34.9629880">
    <ele>130.4</ele>
    <time>2018-08-18T04:49:12Z</time>
   </trkpt>
   <trkpt lat="31.9319010" lon="34.9630130">
    <ele>130.6</ele>
    <time>2018-08-18T04:49:13Z</time>
   </trkpt>
   <trkpt lat="31.9318690" lon="34.9630350">
    <ele>130.8</ele>
    <time>2018-08-18T04:49:14Z</time>
   </trkpt>
   <trkpt lat="31.9318440" lon="34.9630570">
    <ele>131.0</ele>
    <time>2018-08-18T04:49:15Z</time>
   </trkpt>
   <trkpt lat="31.9318160" lon="34.9630840">
    <ele>131.3</ele>
    <time>2018-08-18T04:49:16Z</time>
   </trkpt>
   <trkpt lat="31.9317900" lon="34.9631030">
    <ele>131.6</ele>
    <time>2018-08-18T04:49:17Z</time>
   </trkpt>
   <trkpt lat="31.9317620" lon="34.9631250">
    <ele>131.8</ele>
    <time>2018-08-18T04:49:18Z</time>
   </trkpt>
   <trkpt lat="31.9317170" lon="34.9631740">
    <ele>132.1</ele>
    <time>2018-08-18T04:49:20Z</time>
   </trkpt>
   <trkpt lat="31.9316970" lon="34.9631980">
    <ele>132.2</ele>
    <time>2018-08-18T04:49:21Z</time>
   </trkpt>
   <trkpt lat="31.9316760" lon="34.9632280">
    <ele>132.4</ele>
    <time>2018-08-18T04:49:22Z</time>
   </trkpt>
   <trkpt lat="31.9316590" lon="34.9632750">
    <ele>132.5</ele>
    <time>2018-08-18T04:49:23Z</time>
   </trkpt>
   <trkpt lat="31.9316390" lon="34.9633320">
    <ele>132.8</ele>
    <time>2018-08-18T04:49:24Z</time>
   </trkpt>
   <trkpt lat="31.9316190" lon="34.9633850">
    <ele>133.0</ele>
    <time>2018-08-18T04:49:25Z</time>
   </trkpt>
   <trkpt lat="31.9315980" lon="34.9634240">
    <ele>133.1</ele>
    <time>2018-08-18T04:49:26Z</time>
   </trkpt>
   <trkpt lat="31.9315750" lon="34.9634640">
    <ele>133.3</ele>
    <time>2018-08-18T04:49:27Z</time>
   </trkpt>
   <trkpt lat="31.9315550" lon="34.9635010">
    <ele>133.4</ele>
    <time>2018-08-18T04:49:28Z</time>
   </trkpt>
   <trkpt lat="31.9315380" lon="34.9635390">
    <ele>133.6</ele>
    <time>2018-08-18T04:49:29Z</time>
   </trkpt>
   <trkpt lat="31.9315280" lon="34.9635780">
    <ele>133.8</ele>
    <time>2018-08-18T04:49:30Z</time>
   </trkpt>
   <trkpt lat="31.9315170" lon="34.9636120">
    <ele>133.9</ele>
    <time>2018-08-18T04:49:31Z</time>
   </trkpt>
   <trkpt lat="31.9315120" lon="34.9636510">
    <ele>134.1</ele>
    <time>2018-08-18T04:49:32Z</time>
   </trkpt>
   <trkpt lat="31.9315010" lon="34.9636850">
    <ele>134.2</ele>
    <time>2018-08-18T04:49:33Z</time>
   </trkpt>
   <trkpt lat="31.9314870" lon="34.9637200">
    <ele>134.3</ele>
    <time>2018-08-18T04:49:34Z</time>
   </trkpt>
   <trkpt lat="31.9314730" lon="34.9637530">
    <ele>134.4</ele>
    <time>2018-08-18T04:49:35Z</time>
   </trkpt>
   <trkpt lat="31.9314650" lon="34.9637860">
    <ele>134.5</ele>
    <time>2018-08-18T04:49:36Z</time>
   </trkpt>
   <trkpt lat="31.9314670" lon="34.9638250">
    <ele>134.6</ele>
    <time>2018-08-18T04:49:37Z</time>
   </trkpt>
   <trkpt lat="31.9314720" lon="34.9638580">
    <ele>134.7</ele>
    <time>2018-08-18T04:49:38Z</time>
   </trkpt>
   <trkpt lat="31.9314830" lon="34.9638940">
    <ele>134.9</ele>
    <time>2018-08-18T04:49:39Z</time>
   </trkpt>
   <trkpt lat="31.9315010" lon="34.9639480">
    <ele>135.0</ele>
    <time>2018-08-18T04:49:41Z</time>
   </trkpt>
   <trkpt lat="31.9315150" lon="34.9639980">
    <ele>135.2</ele>
    <time>2018-08-18T04:49:43Z</time>
   </trkpt>
   <trkpt lat="31.9315210" lon="34.9640300">
    <ele>135.3</ele>
    <time>2018-08-18T04:49:44Z</time>
   </trkpt>
   <trkpt lat="31.9315290" lon="34.9640670">
    <ele>135.4</ele>
    <time>2018-08-18T04:49:45Z</time>
   </trkpt>
   <trkpt lat="31.9315390" lon="34.9640970">
    <ele>135.5</ele>
    <time>2018-08-18T04:49:46Z</time>
   </trkpt>
   <trkpt lat="31.9315530" lon="34.9641270">
    <ele>135.6</ele>
    <time>2018-08-18T04:49:48Z</time>
   </trkpt>
   <trkpt lat="31.9315990" lon="34.9641210">
    <ele>135.8</ele>
    <time>2018-08-18T04:49:51Z</time>
   </trkpt>
   <trkpt lat="31.9316310" lon="34.9640880">
    <ele>130.3</ele>
    <time>2018-08-18T04:49:53Z</time>
   </trkpt>
   <trkpt lat="31.9316650" lon="34.9640610">
    <ele>129.0</ele>
    <time>2018-08-18T04:49:55Z</time>
   </trkpt>
   <trkpt lat="31.9317020" lon="34.9640550">
    <ele>127.8</ele>
    <time>2018-08-18T04:49:57Z</time>
   </trkpt>
   <trkpt lat="31.9317400" lon="34.9640640">
    <ele>126.6</ele>
    <time>2018-08-18T04:49:59Z</time>
   </trkpt>
   <trkpt lat="31.9317750" lon="34.9641070">
    <ele>125.0</ele>
    <time>2018-08-18T04:50:01Z</time>
   </trkpt>
   <trkpt lat="31.9317970" lon="34.9641590">
    <ele>125.3</ele>
    <time>2018-08-18T04:50:03Z</time>
   </trkpt>
   <trkpt lat="31.9318140" lon="34.9642120">
    <ele>125.5</ele>
    <time>2018-08-18T04:50:05Z</time>
   </trkpt>
   <trkpt lat="31.9318330" lon="34.9642630">
    <ele>125.8</ele>
    <time>2018-08-18T04:50:07Z</time>
   </trkpt>
   <trkpt lat="31.9318490" lon="34.9643130">
    <ele>126.0</ele>
    <time>2018-08-18T04:50:09Z</time>
   </trkpt>
   <trkpt lat="31.9318590" lon="34.9643680">
    <ele>126.3</ele>
    <time>2018-08-18T04:50:11Z</time>
   </trkpt>
   <trkpt lat="31.9318820" lon="34.9644200">
    <ele>126.6</ele>
    <time>2018-08-18T04:50:13Z</time>
   </trkpt>
   <trkpt lat="31.9319060" lon="34.9644690">
    <ele>126.9</ele>
    <time>2018-08-18T04:50:15Z</time>
   </trkpt>
   <trkpt lat="31.9319230" lon="34.9645190">
    <ele>127.2</ele>
    <time>2018-08-18T04:50:17Z</time>
   </trkpt>
   <trkpt lat="31.9319460" lon="34.9645600">
    <ele>127.5</ele>
    <time>2018-08-18T04:50:19Z</time>
   </trkpt>
   <trkpt lat="31.9319630" lon="34.9646110">
    <ele>127.8</ele>
    <time>2018-08-18T04:50:21Z</time>
   </trkpt>
   <trkpt lat="31.9319740" lon="34.9646710">
    <ele>128.0</ele>
    <time>2018-08-18T04:50:23Z</time>
   </trkpt>
   <trkpt lat="31.9319850" lon="34.9647020">
    <ele>128.1</ele>
    <time>2018-08-18T04:50:24Z</time>
   </trkpt>
   <trkpt lat="31.9319940" lon="34.9647350">
    <ele>128.2</ele>
    <time>2018-08-18T04:50:25Z</time>
   </trkpt>
   <trkpt lat="31.9320030" lon="34.9647670">
    <ele>128.3</ele>
    <time>2018-08-18T04:50:26Z</time>
   </trkpt>
   <trkpt lat="31.9320100" lon="34.9647980">
    <ele>128.4</ele>
    <time>2018-08-18T04:50:27Z</time>
   </trkpt>
   <trkpt lat="31.9320140" lon="34.9648300">
    <ele>128.4</ele>
    <time>2018-08-18T04:50:28Z</time>
   </trkpt>
   <trkpt lat="31.9320210" lon="34.9648610">
    <ele>128.5</ele>
    <time>2018-08-18T04:50:29Z</time>
   </trkpt>
   <trkpt lat="31.9320280" lon="34.9648940">
    <ele>128.6</ele>
    <time>2018-08-18T04:50:30Z</time>
   </trkpt>
   <trkpt lat="31.9320420" lon="34.9649540">
    <ele>128.8</ele>
    <time>2018-08-18T04:50:32Z</time>
   </trkpt>
   <trkpt lat="31.9320450" lon="34.9649860">
    <ele>128.9</ele>
    <time>2018-08-18T04:50:33Z</time>
   </trkpt>
   <trkpt lat="31.9320490" lon="34.9650200">
    <ele>129.0</ele>
    <time>2018-08-18T04:50:34Z</time>
   </trkpt>
   <trkpt lat="31.9320530" lon="34.9650530">
    <ele>129.0</ele>
    <time>2018-08-18T04:50:35Z</time>
   </trkpt>
   <trkpt lat="31.9320540" lon="34.9650860">
    <ele>129.0</ele>
    <time>2018-08-18T04:50:36Z</time>
   </trkpt>
   <trkpt lat="31.9320570" lon="34.9651490">
    <ele>129.0</ele>
    <time>2018-08-18T04:50:38Z</time>
   </trkpt>
   <trkpt lat="31.9320620" lon="34.9652130">
    <ele>129.0</ele>
    <time>2018-08-18T04:50:40Z</time>
   </trkpt>
   <trkpt lat="31.9320630" lon="34.9652470">
    <ele>129.0</ele>
    <time>2018-08-18T04:50:41Z</time>
   </trkpt>
   <trkpt lat="31.9320630" lon="34.9652850">
    <ele>129.0</ele>
    <time>2018-08-18T04:50:42Z</time>
   </trkpt>
   <trkpt lat="31.9320640" lon="34.9653270">
    <ele>129.0</ele>
    <time>2018-08-18T04:50:43Z</time>
   </trkpt>
   <trkpt lat="31.9320640" lon="34.9653690">
    <ele>129.0</ele>
    <time>2018-08-18T04:50:44Z</time>
   </trkpt>
   <trkpt lat="31.9320640" lon="34.9654060">
    <ele>129.0</ele>
    <time>2018-08-18T04:50:45Z</time>
   </trkpt>
   <trkpt lat="31.9320620" lon="34.9654390">
    <ele>129.0</ele>
    <time>2018-08-18T04:50:46Z</time>
   </trkpt>
   <trkpt lat="31.9320590" lon="34.9654730">
    <ele>129.0</ele>
    <time>2018-08-18T04:50:47Z</time>
   </trkpt>
   <trkpt lat="31.9320520" lon="34.9655290">
    <ele>129.2</ele>
    <time>2018-08-18T04:50:49Z</time>
   </trkpt>
   <trkpt lat="31.9320440" lon="34.9655910">
    <ele>129.5</ele>
    <time>2018-08-18T04:50:51Z</time>
   </trkpt>
   <trkpt lat="31.9320400" lon="34.9656240">
    <ele>129.6</ele>
    <time>2018-08-18T04:50:52Z</time>
   </trkpt>
   <trkpt lat="31.9320380" lon="34.9656560">
    <ele>129.8</ele>
    <time>2018-08-18T04:50:53Z</time>
   </trkpt>
   <trkpt lat="31.9320340" lon="34.9656930">
    <ele>129.9</ele>
    <time>2018-08-18T04:50:54Z</time>
   </trkpt>
   <trkpt lat="31.9320290" lon="34.9657300">
    <ele>130.1</ele>
    <time>2018-08-18T04:50:55Z</time>
   </trkpt>
   <trkpt lat="31.9320240" lon="34.9657640">
    <ele>130.2</ele>
    <time>2018-08-18T04:50:56Z</time>
   </trkpt>
   <trkpt lat="31.9320150" lon="34.9657940">
    <ele>130.3</ele>
    <time>2018-08-18T04:50:57Z</time>
   </trkpt>
   <trkpt lat="31.9320130" lon="34.9658280">
    <ele>130.5</ele>
    <time>2018-08-18T04:50:58Z</time>
   </trkpt>
   <trkpt lat="31.9320100" lon="34.9658680">
    <ele>130.7</ele>
    <time>2018-08-18T04:50:59Z</time>
   </trkpt>
   <trkpt lat="31.9320030" lon="34.9659060">
    <ele>130.8</ele>
    <time>2018-08-18T04:51:00Z</time>
   </trkpt>
   <trkpt lat="31.9319970" lon="34.9659460">
    <ele>131.1</ele>
    <time>2018-08-18T04:51:01Z</time>
   </trkpt>
   <trkpt lat="31.9319910" lon="34.9659860">
    <ele>131.3</ele>
    <time>2018-08-18T04:51:02Z</time>
   </trkpt>
   <trkpt lat="31.9319850" lon="34.9660290">
    <ele>131.6</ele>
    <time>2018-08-18T04:51:03Z</time>
   </trkpt>
   <trkpt lat="31.9319770" lon="34.9660740">
    <ele>131.9</ele>
    <time>2018-08-18T04:51:04Z</time>
   </trkpt>
   <trkpt lat="31.9319680" lon="34.9661170">
    <ele>132.1</ele>
    <time>2018-08-18T04:51:05Z</time>
   </trkpt>
   <trkpt lat="31.9319580" lon="34.9661620">
    <ele>132.4</ele>
    <time>2018-08-18T04:51:06Z</time>
   </trkpt>
   <trkpt lat="31.9319480" lon="34.9661970">
    <ele>132.5</ele>
    <time>2018-08-18T04:51:07Z</time>
   </trkpt>
   <trkpt lat="31.9319360" lon="34.9662380">
    <ele>132.8</ele>
    <time>2018-08-18T04:51:08Z</time>
   </trkpt>
   <trkpt lat="31.9319290" lon="34.9662750">
    <ele>132.9</ele>
    <time>2018-08-18T04:51:09Z</time>
   </trkpt>
   <trkpt lat="31.9319190" lon="34.9663050">
    <ele>133.1</ele>
    <time>2018-08-18T04:51:10Z</time>
   </trkpt>
   <trkpt lat="31.9319090" lon="34.9663370">
    <ele>133.3</ele>
    <time>2018-08-18T04:51:11Z</time>
   </trkpt>
   <trkpt lat="31.9318960" lon="34.9663990">
    <ele>133.6</ele>
    <time>2018-08-18T04:51:13Z</time>
   </trkpt>
   <trkpt lat="31.9318890" lon="34.9664340">
    <ele>133.8</ele>
    <time>2018-08-18T04:51:14Z</time>
   </trkpt>
   <trkpt lat="31.9318820" lon="34.9664660">
    <ele>133.9</ele>
    <time>2018-08-18T04:51:15Z</time>
   </trkpt>
   <trkpt lat="31.9318640" lon="34.9665230">
    <ele>134.2</ele>
    <time>2018-08-18T04:51:17Z</time>
   </trkpt>
   <trkpt lat="31.9318540" lon="34.9665600">
    <ele>134.4</ele>
    <time>2018-08-18T04:51:18Z</time>
   </trkpt>
   <trkpt lat="31.9318460" lon="34.9665990">
    <ele>134.8</ele>
    <time>2018-08-18T04:51:19Z</time>
   </trkpt>
   <trkpt lat="31.9318400" lon="34.9666370">
    <ele>135.2</ele>
    <time>2018-08-18T04:51:20Z</time>
   </trkpt>
   <trkpt lat="31.9318330" lon="34.9666750">
    <ele>135.5</ele>
    <time>2018-08-18T04:51:21Z</time>
   </trkpt>
   <trkpt lat="31.9318230" lon="34.9667130">
    <ele>135.7</ele>
    <time>2018-08-18T04:51:22Z</time>
   </trkpt>
   <trkpt lat="31.9318130" lon="34.9667490">
    <ele>135.9</ele>
    <time>2018-08-18T04:51:23Z</time>
   </trkpt>
   <trkpt lat="31.9318020" lon="34.9667880">
    <ele>136.1</ele>
    <time>2018-08-18T04:51:24Z</time>
   </trkpt>
   <trkpt lat="31.9317870" lon="34.9668230">
    <ele>136.3</ele>
    <time>2018-08-18T04:51:25Z</time>
   </trkpt>
   <trkpt lat="31.9317730" lon="34.9668550">
    <ele>136.4</ele>
    <time>2018-08-18T04:51:26Z</time>
   </trkpt>
   <trkpt lat="31.9317620" lon="34.9668880">
    <ele>136.6</ele>
    <time>2018-08-18T04:51:27Z</time>
   </trkpt>
   <trkpt lat="31.9317440" lon="34.9669490">
    <ele>136.9</ele>
    <time>2018-08-18T04:51:29Z</time>
   </trkpt>
   <trkpt lat="31.9317330" lon="34.9669820">
    <ele>137.0</ele>
    <time>2018-08-18T04:51:30Z</time>
   </trkpt>
   <trkpt lat="31.9317270" lon="34.9670150">
    <ele>137.2</ele>
    <time>2018-08-18T04:51:31Z</time>
   </trkpt>
   <trkpt lat="31.9317120" lon="34.9670460">
    <ele>137.4</ele>
    <time>2018-08-18T04:51:32Z</time>
   </trkpt>
   <trkpt lat="31.9316990" lon="34.9670770">
    <ele>137.5</ele>
    <time>2018-08-18T04:51:33Z</time>
   </trkpt>
   <trkpt lat="31.9316850" lon="34.9671090">
    <ele>137.7</ele>
    <time>2018-08-18T04:51:34Z</time>
   </trkpt>
   <trkpt lat="31.9316720" lon="34.9671430">
    <ele>138.0</ele>
    <time>2018-08-18T04:51:35Z</time>
   </trkpt>
   <trkpt lat="31.9316600" lon="34.9671760">
    <ele>138.2</ele>
    <time>2018-08-18T04:51:36Z</time>
   </trkpt>
   <trkpt lat="31.9316480" lon="34.9672060">
    <ele>138.5</ele>
    <time>2018-08-18T04:51:37Z</time>
   </trkpt>
   <trkpt lat="31.9316300" lon="34.9672360">
    <ele>138.7</ele>
    <time>2018-08-18T04:51:38Z</time>
   </trkpt>
   <trkpt lat="31.9316140" lon="34.9672630">
    <ele>138.9</ele>
    <time>2018-08-18T04:51:39Z</time>
   </trkpt>
   <trkpt lat="31.9316000" lon="34.9672900">
    <ele>139.2</ele>
    <time>2018-08-18T04:51:40Z</time>
   </trkpt>
   <trkpt lat="31.9315820" lon="34.9673140">
    <ele>139.4</ele>
    <time>2018-08-18T04:51:41Z</time>
   </trkpt>
   <trkpt lat="31.9315630" lon="34.9673370">
    <ele>139.6</ele>
    <time>2018-08-18T04:51:42Z</time>
   </trkpt>
   <trkpt lat="31.9315250" lon="34.9673900">
    <ele>140.0</ele>
    <time>2018-08-18T04:51:44Z</time>
   </trkpt>
   <trkpt lat="31.9315040" lon="34.9674190">
    <ele>139.7</ele>
    <time>2018-08-18T04:51:45Z</time>
   </trkpt>
   <trkpt lat="31.9314730" lon="34.9674670">
    <ele>139.4</ele>
    <time>2018-08-18T04:51:47Z</time>
   </trkpt>
   <trkpt lat="31.9314580" lon="34.9674960">
    <ele>139.1</ele>
    <time>2018-08-18T04:51:48Z</time>
   </trkpt>
   <trkpt lat="31.9314400" lon="34.9675280">
    <ele>138.8</ele>
    <time>2018-08-18T04:51:49Z</time>
   </trkpt>
   <trkpt lat="31.9314210" lon="34.9675590">
    <ele>138.5</ele>
    <time>2018-08-18T04:51:50Z</time>
   </trkpt>
   <trkpt lat="31.9313990" lon="34.9675830">
    <ele>138.3</ele>
    <time>2018-08-18T04:51:51Z</time>
   </trkpt>
   <trkpt lat="31.9313660" lon="34.9676290">
    <ele>137.9</ele>
    <time>2018-08-18T04:51:53Z</time>
   </trkpt>
   <trkpt lat="31.9313480" lon="34.9676560">
    <ele>137.7</ele>
    <time>2018-08-18T04:51:54Z</time>
   </trkpt>
   <trkpt lat="31.9313300" lon="34.9676830">
    <ele>137.4</ele>
    <time>2018-08-18T04:51:55Z</time>
   </trkpt>
   <trkpt lat="31.9313070" lon="34.9677120">
    <ele>137.1</ele>
    <time>2018-08-18T04:51:56Z</time>
   </trkpt>
   <trkpt lat="31.9312850" lon="34.9677460">
    <ele>136.8</ele>
    <time>2018-08-18T04:51:57Z</time>
   </trkpt>
   <trkpt lat="31.9312560" lon="34.9677960">
    <ele>136.5</ele>
    <time>2018-08-18T04:51:59Z</time>
   </trkpt>
   <trkpt lat="31.9312320" lon="34.9678360">
    <ele>136.2</ele>
    <time>2018-08-18T04:52:01Z</time>
   </trkpt>
   <trkpt lat="31.9312040" lon="34.9678760">
    <ele>136.0</ele>
    <time>2018-08-18T04:52:03Z</time>
   </trkpt>
   <trkpt lat="31.9311700" lon="34.9679210">
    <ele>136.1</ele>
    <time>2018-08-18T04:52:05Z</time>
   </trkpt>
   <trkpt lat="31.9311480" lon="34.9679440">
    <ele>136.1</ele>
    <time>2018-08-18T04:52:06Z</time>
   </trkpt>
   <trkpt lat="31.9311320" lon="34.9679700">
    <ele>136.2</ele>
    <time>2018-08-18T04:52:07Z</time>
   </trkpt>
   <trkpt lat="31.9311070" lon="34.9679990">
    <ele>136.2</ele>
    <time>2018-08-18T04:52:08Z</time>
   </trkpt>
   <trkpt lat="31.9310730" lon="34.9680350">
    <ele>136.3</ele>
    <time>2018-08-18T04:52:10Z</time>
   </trkpt>
   <trkpt lat="31.9310430" lon="34.9680850">
    <ele>136.4</ele>
    <time>2018-08-18T04:52:12Z</time>
   </trkpt>
   <trkpt lat="31.9310200" lon="34.9681110">
    <ele>136.4</ele>
    <time>2018-08-18T04:52:13Z</time>
   </trkpt>
   <trkpt lat="31.9309950" lon="34.9681400">
    <ele>136.5</ele>
    <time>2018-08-18T04:52:14Z</time>
   </trkpt>
   <trkpt lat="31.9309750" lon="34.9681620">
    <ele>136.6</ele>
    <time>2018-08-18T04:52:15Z</time>
   </trkpt>
   <trkpt lat="31.9309530" lon="34.9681910">
    <ele>136.7</ele>
    <time>2018-08-18T04:52:16Z</time>
   </trkpt>
   <trkpt lat="31.9309290" lon="34.9682190">
    <ele>136.9</ele>
    <time>2018-08-18T04:52:17Z</time>
   </trkpt>
   <trkpt lat="31.9309050" lon="34.9682460">
    <ele>137.0</ele>
    <time>2018-08-18T04:52:18Z</time>
   </trkpt>
   <trkpt lat="31.9308820" lon="34.9682710">
    <ele>137.2</ele>
    <time>2018-08-18T04:52:19Z</time>
   </trkpt>
   <trkpt lat="31.9308560" lon="34.9682950">
    <ele>137.3</ele>
    <time>2018-08-18T04:52:20Z</time>
   </trkpt>
   <trkpt lat="31.9308330" lon="34.9683210">
    <ele>137.4</ele>
    <time>2018-08-18T04:52:21Z</time>
   </trkpt>
   <trkpt lat="31.9308100" lon="34.9683520">
    <ele>137.6</ele>
    <time>2018-08-18T04:52:22Z</time>
   </trkpt>
   <trkpt lat="31.9307830" lon="34.9683820">
    <ele>137.7</ele>
    <time>2018-08-18T04:52:23Z</time>
   </trkpt>
   <trkpt lat="31.9307580" lon="34.9684070">
    <ele>137.9</ele>
    <time>2018-08-18T04:52:24Z</time>
   </trkpt>
   <trkpt lat="31.9307340" lon="34.9684300">
    <ele>138.1</ele>
    <time>2018-08-18T04:52:25Z</time>
   </trkpt>
   <trkpt lat="31.9307110" lon="34.9684540">
    <ele>138.3</ele>
    <time>2018-08-18T04:52:26Z</time>
   </trkpt>
   <trkpt lat="31.9306880" lon="34.9684800">
    <ele>138.5</ele>
    <time>2018-08-18T04:52:27Z</time>
   </trkpt>
   <trkpt lat="31.9306480" lon="34.9685250">
    <ele>139.0</ele>
    <time>2018-08-18T04:52:29Z</time>
   </trkpt>
   <trkpt lat="31.9306290" lon="34.9685480">
    <ele>139.3</ele>
    <time>2018-08-18T04:52:30Z</time>
   </trkpt>
   <trkpt lat="31.9306070" lon="34.9685690">
    <ele>139.9</ele>
    <time>2018-08-18T04:52:31Z</time>
   </trkpt>
   <trkpt lat="31.9305850" lon="34.9685880">
    <ele>140.2</ele>
    <time>2018-08-18T04:52:32Z</time>
   </trkpt>
   <trkpt lat="31.9305590" lon="34.9686110">
    <ele>140.5</ele>
    <time>2018-08-18T04:52:33Z</time>
   </trkpt>
   <trkpt lat="31.9305320" lon="34.9686330">
    <ele>140.8</ele>
    <time>2018-08-18T04:52:34Z</time>
   </trkpt>
   <trkpt lat="31.9305120" lon="34.9686550">
    <ele>140.9</ele>
    <time>2018-08-18T04:52:35Z</time>
   </trkpt>
   <trkpt lat="31.9304940" lon="34.9686780">
    <ele>141.1</ele>
    <time>2018-08-18T04:52:36Z</time>
   </trkpt>
   <trkpt lat="31.9304540" lon="34.9687260">
    <ele>141.3</ele>
    <time>2018-08-18T04:52:38Z</time>
   </trkpt>
   <trkpt lat="31.9304330" lon="34.9687520">
    <ele>141.5</ele>
    <time>2018-08-18T04:52:39Z</time>
   </trkpt>
   <trkpt lat="31.9304010" lon="34.9687920">
    <ele>141.7</ele>
    <time>2018-08-18T04:52:41Z</time>
   </trkpt>
   <trkpt lat="31.9303880" lon="34.9688270">
    <ele>141.8</ele>
    <time>2018-08-18T04:52:43Z</time>
   </trkpt>
   <trkpt lat="31.9303680" lon="34.9688810">
    <ele>141.9</ele>
    <time>2018-08-18T04:52:45Z</time>
   </trkpt>
   <trkpt lat="31.9303660" lon="34.9689360">
    <ele>141.6</ele>
    <time>2018-08-18T04:52:47Z</time>
   </trkpt>
   <trkpt lat="31.9303410" lon="34.9689810">
    <ele>140.9</ele>
    <time>2018-08-18T04:52:49Z</time>
   </trkpt>
   <trkpt lat="31.9303210" lon="34.9690340">
    <ele>140.1</ele>
    <time>2018-08-18T04:52:51Z</time>
   </trkpt>
   <trkpt lat="31.9303170" lon="34.9690660">
    <ele>139.7</ele>
    <time>2018-08-18T04:52:52Z</time>
   </trkpt>
   <trkpt lat="31.9303100" lon="34.9690980">
    <ele>139.2</ele>
    <time>2018-08-18T04:52:53Z</time>
   </trkpt>
   <trkpt lat="31.9302890" lon="34.9691440">
    <ele>138.5</ele>
    <time>2018-08-18T04:52:55Z</time>
   </trkpt>
   <trkpt lat="31.9302930" lon="34.9691880">
    <ele>137.9</ele>
    <time>2018-08-18T04:52:57Z</time>
   </trkpt>
   <trkpt lat="31.9302870" lon="34.9692320">
    <ele>137.3</ele>
    <time>2018-08-18T04:52:59Z</time>
   </trkpt>
   <trkpt lat="31.9302870" lon="34.9692750">
    <ele>136.8</ele>
    <time>2018-08-18T04:53:01Z</time>
   </trkpt>
   <trkpt lat="31.9302900" lon="34.9693320">
    <ele>136.0</ele>
    <time>2018-08-18T04:53:03Z</time>
   </trkpt>
   <trkpt lat="31.9302940" lon="34.9693930">
    <ele>135.2</ele>
    <time>2018-08-18T04:53:05Z</time>
   </trkpt>
   <trkpt lat="31.9302900" lon="34.9694550">
    <ele>135.0</ele>
    <time>2018-08-18T04:53:07Z</time>
   </trkpt>
   <trkpt lat="31.9302840" lon="34.9695090">
    <ele>135.0</ele>
    <time>2018-08-18T04:53:09Z</time>
   </trkpt>
   <trkpt lat="31.9302930" lon="34.9695710">
    <ele>135.0</ele>
    <time>2018-08-18T04:53:11Z</time>
   </trkpt>
   <trkpt lat="31.9302940" lon="34.9696250">
    <ele>135.0</ele>
    <time>2018-08-18T04:53:13Z</time>
   </trkpt>
   <trkpt lat="31.9303040" lon="34.9696830">
    <ele>135.0</ele>
    <time>2018-08-18T04:53:15Z</time>
   </trkpt>
   <trkpt lat="31.9303200" lon="34.9697440">
    <ele>135.0</ele>
    <time>2018-08-18T04:53:17Z</time>
   </trkpt>
   <trkpt lat="31.9303400" lon="34.9697950">
    <ele>135.0</ele>
    <time>2018-08-18T04:53:19Z</time>
   </trkpt>
   <trkpt lat="31.9303440" lon="34.9698470">
    <ele>135.0</ele>
    <time>2018-08-18T04:53:21Z</time>
   </trkpt>
   <trkpt lat="31.9303580" lon="34.9699000">
    <ele>135.0</ele>
    <time>2018-08-18T04:53:23Z</time>
   </trkpt>
   <trkpt lat="31.9303710" lon="34.9699530">
    <ele>135.0</ele>
    <time>2018-08-18T04:53:25Z</time>
   </trkpt>
   <trkpt lat="31.9303860" lon="34.9700050">
    <ele>135.0</ele>
    <time>2018-08-18T04:53:27Z</time>
   </trkpt>
   <trkpt lat="31.9304030" lon="34.9700600">
    <ele>135.0</ele>
    <time>2018-08-18T04:53:29Z</time>
   </trkpt>
   <trkpt lat="31.9304140" lon="34.9700910">
    <ele>135.0</ele>
    <time>2018-08-18T04:53:30Z</time>
   </trkpt>
   <trkpt lat="31.9304210" lon="34.9701230">
    <ele>135.0</ele>
    <time>2018-08-18T04:53:31Z</time>
   </trkpt>
   <trkpt lat="31.9304290" lon="34.9701560">
    <ele>135.0</ele>
    <time>2018-08-18T04:53:32Z</time>
   </trkpt>
   <trkpt lat="31.9304380" lon="34.9701940">
    <ele>135.2</ele>
    <time>2018-08-18T04:53:33Z</time>
   </trkpt>
   <trkpt lat="31.9304480" lon="34.9702290">
    <ele>135.3</ele>
    <time>2018-08-18T04:53:34Z</time>
   </trkpt>
   <trkpt lat="31.9304560" lon="34.9702640">
    <ele>135.5</ele>
    <time>2018-08-18T04:53:35Z</time>
   </trkpt>
   <trkpt lat="31.9304640" lon="34.9703000">
    <ele>135.6</ele>
    <time>2018-08-18T04:53:36Z</time>
   </trkpt>
   <trkpt lat="31.9304750" lon="34.9703380">
    <ele>135.7</ele>
    <time>2018-08-18T04:53:37Z</time>
   </trkpt>
   <trkpt lat="31.9304870" lon="34.9703780">
    <ele>135.9</ele>
    <time>2018-08-18T04:53:38Z</time>
   </trkpt>
   <trkpt lat="31.9304980" lon="34.9704190">
    <ele>136.1</ele>
    <time>2018-08-18T04:53:39Z</time>
   </trkpt>
   <trkpt lat="31.9305110" lon="34.9704550">
    <ele>136.2</ele>
    <time>2018-08-18T04:53:40Z</time>
   </trkpt>
   <trkpt lat="31.9305220" lon="34.9704900">
    <ele>136.3</ele>
    <time>2018-08-18T04:53:41Z</time>
   </trkpt>
   <trkpt lat="31.9305300" lon="34.9705240">
    <ele>136.5</ele>
    <time>2018-08-18T04:53:42Z</time>
   </trkpt>
   <trkpt lat="31.9305380" lon="34.9705570">
    <ele>136.6</ele>
    <time>2018-08-18T04:53:43Z</time>
   </trkpt>
   <trkpt lat="31.9305500" lon="34.9706110">
    <ele>136.8</ele>
    <time>2018-08-18T04:53:45Z</time>
   </trkpt>
   <trkpt lat="31.9305580" lon="34.9706620">
    <ele>137.0</ele>
    <time>2018-08-18T04:53:47Z</time>
   </trkpt>
   <trkpt lat="31.9305710" lon="34.9706980">
    <ele>137.2</ele>
    <time>2018-08-18T04:53:49Z</time>
   </trkpt>
   <trkpt lat="31.9305770" lon="34.9707350">
    <ele>137.3</ele>
    <time>2018-08-18T04:53:51Z</time>
   </trkpt>
   <trkpt lat="31.9305730" lon="34.9707800">
    <ele>137.6</ele>
    <time>2018-08-18T04:53:53Z</time>
   </trkpt>
   <trkpt lat="31.9305670" lon="34.9708280">
    <ele>138.0</ele>
    <time>2018-08-18T04:53:55Z</time>
   </trkpt>
   <trkpt lat="31.9305540" lon="34.9708670">
    <ele>138.3</ele>
    <time>2018-08-18T04:53:57Z</time>
   </trkpt>
   <trkpt lat="31.9305400" lon="34.9708970">
    <ele>139.2</ele>
    <time>2018-08-18T04:53:59Z</time>
   </trkpt>
   <trkpt lat="31.9305140" lon="34.9709370">
    <ele>139.2</ele>
    <time>2018-08-18T04:54:01Z</time>
   </trkpt>
   <trkpt lat="31.9304890" lon="34.9709530">
    <ele>139.3</ele>
    <time>2018-08-18T04:54:02Z</time>
   </trkpt>
   <trkpt lat="31.9304350" lon="34.9709680">
    <ele>139.4</ele>
    <time>2018-08-18T04:54:04Z</time>
   </trkpt>
   <trkpt lat="31.9304090" lon="34.9709810">
    <ele>139.4</ele>
    <time>2018-08-18T04:54:05Z</time>
   </trkpt>
   <trkpt lat="31.9303540" lon="34.9710020">
    <ele>139.4</ele>
    <time>2018-08-18T04:54:07Z</time>
   </trkpt>
   <trkpt lat="31.9303250" lon="34.9710100">
    <ele>139.5</ele>
    <time>2018-08-18T04:54:08Z</time>
   </trkpt>
   <trkpt lat="31.9302980" lon="34.9710150">
    <ele>139.5</ele>
    <time>2018-08-18T04:54:09Z</time>
   </trkpt>
   <trkpt lat="31.9302460" lon="34.9710260">
    <ele>139.5</ele>
    <time>2018-08-18T04:54:11Z</time>
   </trkpt>
   <trkpt lat="31.9302040" lon="34.9710420">
    <ele>139.5</ele>
    <time>2018-08-18T04:54:13Z</time>
   </trkpt>
   <trkpt lat="31.9301650" lon="34.9710490">
    <ele>139.6</ele>
    <time>2018-08-18T04:54:15Z</time>
   </trkpt>
   <trkpt lat="31.9301250" lon="34.9710660">
    <ele>139.6</ele>
    <time>2018-08-18T04:54:17Z</time>
   </trkpt>
   <trkpt lat="31.9300810" lon="34.9710810">
    <ele>139.6</ele>
    <time>2018-08-18T04:54:19Z</time>
   </trkpt>
   <trkpt lat="31.9300380" lon="34.9710940">
    <ele>139.6</ele>
    <time>2018-08-18T04:54:21Z</time>
   </trkpt>
   <trkpt lat="31.9300110" lon="34.9711020">
    <ele>139.7</ele>
    <time>2018-08-18T04:54:22Z</time>
   </trkpt>
   <trkpt lat="31.9299650" lon="34.9711150">
    <ele>139.7</ele>
    <time>2018-08-18T04:54:24Z</time>
   </trkpt>
   <trkpt lat="31.9299180" lon="34.9711220">
    <ele>139.7</ele>
    <time>2018-08-18T04:54:26Z</time>
   </trkpt>
   <trkpt lat="31.9298720" lon="34.9711240">
    <ele>139.7</ele>
    <time>2018-08-18T04:54:28Z</time>
   </trkpt>
   <trkpt lat="31.9298170" lon="34.9711260">
    <ele>139.7</ele>
    <time>2018-08-18T04:54:30Z</time>
   </trkpt>
   <trkpt lat="31.9297880" lon="34.9711250">
    <ele>139.7</ele>
    <time>2018-08-18T04:54:31Z</time>
   </trkpt>
   <trkpt lat="31.9297590" lon="34.9711220">
    <ele>139.8</ele>
    <time>2018-08-18T04:54:32Z</time>
   </trkpt>
   <trkpt lat="31.9297310" lon="34.9711210">
    <ele>139.8</ele>
    <time>2018-08-18T04:54:33Z</time>
   </trkpt>
   <trkpt lat="31.9297030" lon="34.9711160">
    <ele>139.8</ele>
    <time>2018-08-18T04:54:34Z</time>
   </trkpt>
   <trkpt lat="31.9296750" lon="34.9711080">
    <ele>139.8</ele>
    <time>2018-08-18T04:54:35Z</time>
   </trkpt>
   <trkpt lat="31.9296250" lon="34.9711120">
    <ele>139.8</ele>
    <time>2018-08-18T04:54:37Z</time>
   </trkpt>
   <trkpt lat="31.9295980" lon="34.9711080">
    <ele>139.8</ele>
    <time>2018-08-18T04:54:38Z</time>
   </trkpt>
   <trkpt lat="31.9295690" lon="34.9710960">
    <ele>139.8</ele>
    <time>2018-08-18T04:54:39Z</time>
   </trkpt>
   <trkpt lat="31.9295400" lon="34.9710880">
    <ele>139.8</ele>
    <time>2018-08-18T04:54:40Z</time>
   </trkpt>
   <trkpt lat="31.9295070" lon="34.9710780">
    <ele>139.8</ele>
    <time>2018-08-18T04:54:41Z</time>
   </trkpt>
   <trkpt lat="31.9294730" lon="34.9710670">
    <ele>139.9</ele>
    <time>2018-08-18T04:54:42Z</time>
   </trkpt>
   <trkpt lat="31.9294380" lon="34.9710570">
    <ele>139.9</ele>
    <time>2018-08-18T04:54:43Z</time>
   </trkpt>
   <trkpt lat="31.9293850" lon="34.9710400">
    <ele>139.9</ele>
    <time>2018-08-18T04:54:45Z</time>
   </trkpt>
   <trkpt lat="31.9293500" lon="34.9710280">
    <ele>139.9</ele>
    <time>2018-08-18T04:54:46Z</time>
   </trkpt>
   <trkpt lat="31.9293180" lon="34.9710150">
    <ele>140.0</ele>
    <time>2018-08-18T04:54:47Z</time>
   </trkpt>
   <trkpt lat="31.9292840" lon="34.9710040">
    <ele>140.2</ele>
    <time>2018-08-18T04:54:48Z</time>
   </trkpt>
   <trkpt lat="31.9292490" lon="34.9709970">
    <ele>140.6</ele>
    <time>2018-08-18T04:54:49Z</time>
   </trkpt>
   <trkpt lat="31.9292100" lon="34.9709950">
    <ele>141.1</ele>
    <time>2018-08-18T04:54:50Z</time>
   </trkpt>
   <trkpt lat="31.9291760" lon="34.9709950">
    <ele>141.5</ele>
    <time>2018-08-18T04:54:51Z</time>
   </trkpt>
   <trkpt lat="31.9291400" lon="34.9709930">
    <ele>141.9</ele>
    <time>2018-08-18T04:54:52Z</time>
   </trkpt>
   <trkpt lat="31.9291060" lon="34.9709920">
    <ele>142.3</ele>
    <time>2018-08-18T04:54:53Z</time>
   </trkpt>
   <trkpt lat="31.9290770" lon="34.9709970">
    <ele>142.6</ele>
    <time>2018-08-18T04:54:54Z</time>
   </trkpt>
   <trkpt lat="31.9290490" lon="34.9710000">
    <ele>142.9</ele>
    <time>2018-08-18T04:54:55Z</time>
   </trkpt>
   <trkpt lat="31.9290200" lon="34.9710080">
    <ele>143.3</ele>
    <time>2018-08-18T04:54:56Z</time>
   </trkpt>
   <trkpt lat="31.9289910" lon="34.9710220">
    <ele>143.7</ele>
    <time>2018-08-18T04:54:57Z</time>
   </trkpt>
   <trkpt lat="31.9289600" lon="34.9710370">
    <ele>144.0</ele>
    <time>2018-08-18T04:54:58Z</time>
   </trkpt>
   <trkpt lat="31.9289320" lon="34.9710470">
    <ele>144.4</ele>
    <time>2018-08-18T04:54:59Z</time>
   </trkpt>
   <trkpt lat="31.9288990" lon="34.9710580">
    <ele>144.8</ele>
    <time>2018-08-18T04:55:00Z</time>
   </trkpt>
   <trkpt lat="31.9288650" lon="34.9710690">
    <ele>145.0</ele>
    <time>2018-08-18T04:55:01Z</time>
   </trkpt>
   <trkpt lat="31.9288330" lon="34.9710800">
    <ele>145.0</ele>
    <time>2018-08-18T04:55:02Z</time>
   </trkpt>
   <trkpt lat="31.9288000" lon="34.9710910">
    <ele>145.0</ele>
    <time>2018-08-18T04:55:03Z</time>
   </trkpt>
   <trkpt lat="31.9287640" lon="34.9711030">
    <ele>145.0</ele>
    <time>2018-08-18T04:55:04Z</time>
   </trkpt>
   <trkpt lat="31.9287280" lon="34.9711130">
    <ele>145.0</ele>
    <time>2018-08-18T04:55:05Z</time>
   </trkpt>
   <trkpt lat="31.9286900" lon="34.9711240">
    <ele>145.0</ele>
    <time>2018-08-18T04:55:06Z</time>
   </trkpt>
   <trkpt lat="31.9286540" lon="34.9711360">
    <ele>145.0</ele>
    <time>2018-08-18T04:55:07Z</time>
   </trkpt>
   <trkpt lat="31.9286190" lon="34.9711480">
    <ele>145.0</ele>
    <time>2018-08-18T04:55:08Z</time>
   </trkpt>
   <trkpt lat="31.9285860" lon="34.9711620">
    <ele>145.4</ele>
    <time>2018-08-18T04:55:09Z</time>
   </trkpt>
   <trkpt lat="31.9285570" lon="34.9711780">
    <ele>145.7</ele>
    <time>2018-08-18T04:55:10Z</time>
   </trkpt>
   <trkpt lat="31.9285320" lon="34.9711920">
    <ele>145.9</ele>
    <time>2018-08-18T04:55:11Z</time>
   </trkpt>
   <trkpt lat="31.9285040" lon="34.9712080">
    <ele>146.2</ele>
    <time>2018-08-18T04:55:12Z</time>
   </trkpt>
   <trkpt lat="31.9284810" lon="34.9712270">
    <ele>146.4</ele>
    <time>2018-08-18T04:55:13Z</time>
   </trkpt>
   <trkpt lat="31.9284430" lon="34.9712520">
    <ele>147.3</ele>
    <time>2018-08-18T04:55:15Z</time>
   </trkpt>
   <trkpt lat="31.9284120" lon="34.9712890">
    <ele>148.2</ele>
    <time>2018-08-18T04:55:17Z</time>
   </trkpt>
   <trkpt lat="31.9283860" lon="34.9713430">
    <ele>149.0</ele>
    <time>2018-08-18T04:55:19Z</time>
   </trkpt>
   <trkpt lat="31.9283720" lon="34.9713720">
    <ele>149.2</ele>
    <time>2018-08-18T04:55:20Z</time>
   </trkpt>
   <trkpt lat="31.9283430" lon="34.9714150">
    <ele>149.5</ele>
    <time>2018-08-18T04:55:22Z</time>
   </trkpt>
   <trkpt lat="31.9283240" lon="34.9714530">
    <ele>149.8</ele>
    <time>2018-08-18T04:55:25Z</time>
   </trkpt>
   <trkpt lat="31.9283080" lon="34.9714790">
    <ele>150.0</ele>
    <time>2018-08-18T04:55:26Z</time>
   </trkpt>
   <trkpt lat="31.9282690" lon="34.9715240">
    <ele>150.3</ele>
    <time>2018-08-18T04:55:28Z</time>
   </trkpt>
   <trkpt lat="31.9282430" lon="34.9715600">
    <ele>150.5</ele>
    <time>2018-08-18T04:55:29Z</time>
   </trkpt>
   <trkpt lat="31.9282170" lon="34.9715990">
    <ele>150.8</ele>
    <time>2018-08-18T04:55:31Z</time>
   </trkpt>
   <trkpt lat="31.9281900" lon="34.9716340">
    <ele>151.0</ele>
    <time>2018-08-18T04:55:32Z</time>
   </trkpt>
   <trkpt lat="31.9281690" lon="34.9716650">
    <ele>151.2</ele>
    <time>2018-08-18T04:55:33Z</time>
   </trkpt>
   <trkpt lat="31.9281520" lon="34.9716930">
    <ele>151.4</ele>
    <time>2018-08-18T04:55:34Z</time>
   </trkpt>
   <trkpt lat="31.9281120" lon="34.9717470">
    <ele>151.7</ele>
    <time>2018-08-18T04:55:36Z</time>
   </trkpt>
   <trkpt lat="31.9280890" lon="34.9717700">
    <ele>151.8</ele>
    <time>2018-08-18T04:55:37Z</time>
   </trkpt>
   <trkpt lat="31.9280700" lon="34.9717940">
    <ele>152.0</ele>
    <time>2018-08-18T04:55:38Z</time>
   </trkpt>
   <trkpt lat="31.9280440" lon="34.9718200">
    <ele>152.3</ele>
    <time>2018-08-18T04:55:39Z</time>
   </trkpt>
   <trkpt lat="31.9280180" lon="34.9718400">
    <ele>152.6</ele>
    <time>2018-08-18T04:55:40Z</time>
   </trkpt>
   <trkpt lat="31.9279950" lon="34.9718580">
    <ele>152.7</ele>
    <time>2018-08-18T04:55:41Z</time>
   </trkpt>
   <trkpt lat="31.9279480" lon="34.9718800">
    <ele>152.8</ele>
    <time>2018-08-18T04:55:43Z</time>
   </trkpt>
   <trkpt lat="31.9279020" lon="34.9719030">
    <ele>152.9</ele>
    <time>2018-08-18T04:55:45Z</time>
   </trkpt>
   <trkpt lat="31.9278590" lon="34.9719210">
    <ele>153.0</ele>
    <time>2018-08-18T04:55:47Z</time>
   </trkpt>
   <trkpt lat="31.9278170" lon="34.9719430">
    <ele>153.0</ele>
    <time>2018-08-18T04:55:49Z</time>
   </trkpt>
   <trkpt lat="31.9277820" lon="34.9719760">
    <ele>153.0</ele>
    <time>2018-08-18T04:55:51Z</time>
   </trkpt>
   <trkpt lat="31.9277510" lon="34.9720090">
    <ele>153.1</ele>
    <time>2018-08-18T04:55:53Z</time>
   </trkpt>
   <trkpt lat="31.9277210" lon="34.9720500">
    <ele>153.2</ele>
    <time>2018-08-18T04:55:55Z</time>
   </trkpt>
   <trkpt lat="31.9276950" lon="34.9720970">
    <ele>153.5</ele>
    <time>2018-08-18T04:55:57Z</time>
   </trkpt>
   <trkpt lat="31.9276740" lon="34.9721480">
    <ele>153.8</ele>
    <time>2018-08-18T04:55:59Z</time>
   </trkpt>
   <trkpt lat="31.9276520" lon="34.9721980">
    <ele>154.0</ele>
    <time>2018-08-18T04:56:01Z</time>
   </trkpt>
   <trkpt lat="31.9276290" lon="34.9722490">
    <ele>154.0</ele>
    <time>2018-08-18T04:56:03Z</time>
   </trkpt>
   <trkpt lat="31.9276190" lon="34.9722800">
    <ele>154.0</ele>
    <time>2018-08-18T04:56:04Z</time>
   </trkpt>
   <trkpt lat="31.9275970" lon="34.9723340">
    <ele>154.1</ele>
    <time>2018-08-18T04:56:06Z</time>
   </trkpt>
   <trkpt lat="31.9275750" lon="34.9723820">
    <ele>154.1</ele>
    <time>2018-08-18T04:56:08Z</time>
   </trkpt>
   <trkpt lat="31.9275520" lon="34.9724200">
    <ele>154.2</ele>
    <time>2018-08-18T04:56:10Z</time>
   </trkpt>
   <trkpt lat="31.9275340" lon="34.9724720">
    <ele>154.2</ele>
    <time>2018-08-18T04:56:12Z</time>
   </trkpt>
   <trkpt lat="31.9275170" lon="34.9725230">
    <ele>154.2</ele>
    <time>2018-08-18T04:56:14Z</time>
   </trkpt>
   <trkpt lat="31.9274920" lon="34.9725740">
    <ele>154.3</ele>
    <time>2018-08-18T04:56:16Z</time>
   </trkpt>
   <trkpt lat="31.9274750" lon="34.9726000">
    <ele>154.4</ele>
    <time>2018-08-18T04:56:17Z</time>
   </trkpt>
   <trkpt lat="31.9274590" lon="34.9726260">
    <ele>154.4</ele>
    <time>2018-08-18T04:56:18Z</time>
   </trkpt>
   <trkpt lat="31.9274320" lon="34.9726710">
    <ele>154.6</ele>
    <time>2018-08-18T04:56:20Z</time>
   </trkpt>
   <trkpt lat="31.9274060" lon="34.9727080">
    <ele>154.8</ele>
    <time>2018-08-18T04:56:22Z</time>
   </trkpt>
   <trkpt lat="31.9273850" lon="34.9727420">
    <ele>155.0</ele>
    <time>2018-08-18T04:56:24Z</time>
   </trkpt>
   <trkpt lat="31.9273570" lon="34.9727850">
    <ele>155.2</ele>
    <time>2018-08-18T04:56:26Z</time>
   </trkpt>
   <trkpt lat="31.9273380" lon="34.9728090">
    <ele>155.2</ele>
    <time>2018-08-18T04:56:27Z</time>
   </trkpt>
   <trkpt lat="31.9273190" lon="34.9728320">
    <ele>155.2</ele>
    <time>2018-08-18T04:56:28Z</time>
   </trkpt>
   <trkpt lat="31.9272990" lon="34.9728540">
    <ele>155.3</ele>
    <time>2018-08-18T04:56:29Z</time>
   </trkpt>
   <trkpt lat="31.9272690" lon="34.9728940">
    <ele>155.3</ele>
    <time>2018-08-18T04:56:31Z</time>
   </trkpt>
   <trkpt lat="31.9272430" lon="34.9729320">
    <ele>155.3</ele>
    <time>2018-08-18T04:56:33Z</time>
   </trkpt>
   <trkpt lat="31.9272190" lon="34.9729670">
    <ele>155.3</ele>
    <time>2018-08-18T04:56:35Z</time>
   </trkpt>
   <trkpt lat="31.9271920" lon="34.9730010">
    <ele>155.3</ele>
    <time>2018-08-18T04:56:37Z</time>
   </trkpt>
   <trkpt lat="31.9271560" lon="34.9730360">
    <ele>155.3</ele>
    <time>2018-08-18T04:56:39Z</time>
   </trkpt>
   <trkpt lat="31.9271210" lon="34.9730610">
    <ele>155.3</ele>
    <time>2018-08-18T04:56:41Z</time>
   </trkpt>
   <trkpt lat="31.9270870" lon="34.9730660">
    <ele>155.2</ele>
    <time>2018-08-18T04:56:43Z</time>
   </trkpt>
   <trkpt lat="31.9270570" lon="34.9730670">
    <ele>155.2</ele>
    <time>2018-08-18T04:56:45Z</time>
   </trkpt>
   <trkpt lat="31.9270230" lon="34.9730810">
    <ele>155.2</ele>
    <time>2018-08-18T04:56:47Z</time>
   </trkpt>
   <trkpt lat="31.9269890" lon="34.9731050">
    <ele>155.2</ele>
    <time>2018-08-18T04:56:49Z</time>
   </trkpt>
   <trkpt lat="31.9269490" lon="34.9731360">
    <ele>154.8</ele>
    <time>2018-08-18T04:56:51Z</time>
   </trkpt>
   <trkpt lat="31.9269160" lon="34.9731470">
    <ele>154.9</ele>
    <time>2018-08-18T04:56:53Z</time>
   </trkpt>
   <trkpt lat="31.9268850" lon="34.9731610">
    <ele>155.1</ele>
    <time>2018-08-18T04:56:55Z</time>
   </trkpt>
   <trkpt lat="31.9268560" lon="34.9731730">
    <ele>155.1</ele>
    <time>2018-08-18T04:56:57Z</time>
   </trkpt>
   <trkpt lat="31.9268280" lon="34.9731910">
    <ele>155.8</ele>
    <time>2018-08-18T04:56:59Z</time>
   </trkpt>
   <trkpt lat="31.9267990" lon="34.9731940">
    <ele>156.4</ele>
    <time>2018-08-18T04:57:01Z</time>
   </trkpt>
   <trkpt lat="31.9267710" lon="34.9731890">
    <ele>157.1</ele>
    <time>2018-08-18T04:57:03Z</time>
   </trkpt>
   <trkpt lat="31.9267430" lon="34.9731670">
    <ele>157.3</ele>
    <time>2018-08-18T04:57:05Z</time>
   </trkpt>
   <trkpt lat="31.9267360" lon="34.9731360">
    <ele>158.1</ele>
    <time>2018-08-18T04:57:11Z</time>
   </trkpt>
   <trkpt lat="31.9267520" lon="34.9731100">
    <ele>157.8</ele>
    <time>2018-08-18T04:57:19Z</time>
   </trkpt>
   <trkpt lat="31.9267650" lon="34.9731400">
    <ele>157.3</ele>
    <time>2018-08-18T04:57:23Z</time>
   </trkpt>
   <trkpt lat="31.9267810" lon="34.9731710">
    <ele>156.5</ele>
    <time>2018-08-18T04:57:45Z</time>
   </trkpt>
   <trkpt lat="31.9267960" lon="34.9731970">
    <ele>156.3</ele>
    <time>2018-08-18T04:57:51Z</time>
   </trkpt>
   <trkpt lat="31.9268490" lon="34.9732180">
    <ele>155.8</ele>
    <time>2018-08-18T04:58:31Z</time>
   </trkpt>
   <trkpt lat="31.9268750" lon="34.9732370">
    <ele>155.1</ele>
    <time>2018-08-18T04:58:33Z</time>
   </trkpt>
   <trkpt lat="31.9269000" lon="34.9732700">
    <ele>155.0</ele>
    <time>2018-08-18T04:58:35Z</time>
   </trkpt>
   <trkpt lat="31.9269280" lon="34.9733200">
    <ele>155.0</ele>
    <time>2018-08-18T04:58:37Z</time>
   </trkpt>
   <trkpt lat="31.9269570" lon="34.9733750">
    <ele>155.0</ele>
    <time>2018-08-18T04:58:39Z</time>
   </trkpt>
   <trkpt lat="31.9269710" lon="34.9734020">
    <ele>155.0</ele>
    <time>2018-08-18T04:58:40Z</time>
   </trkpt>
   <trkpt lat="31.9269880" lon="34.9734320">
    <ele>155.0</ele>
    <time>2018-08-18T04:58:41Z</time>
   </trkpt>
   <trkpt lat="31.9270100" lon="34.9734670">
    <ele>155.0</ele>
    <time>2018-08-18T04:58:42Z</time>
   </trkpt>
   <trkpt lat="31.9270310" lon="34.9735090">
    <ele>155.0</ele>
    <time>2018-08-18T04:58:43Z</time>
   </trkpt>
   <trkpt lat="31.9270460" lon="34.9735490">
    <ele>155.0</ele>
    <time>2018-08-18T04:58:44Z</time>
   </trkpt>
   <trkpt lat="31.9270550" lon="34.9735840">
    <ele>155.0</ele>
    <time>2018-08-18T04:58:45Z</time>
   </trkpt>
   <trkpt lat="31.9270600" lon="34.9736330">
    <ele>155.0</ele>
    <time>2018-08-18T04:58:46Z</time>
   </trkpt>
   <trkpt lat="31.9270560" lon="34.9736810">
    <ele>155.0</ele>
    <time>2018-08-18T04:58:47Z</time>
   </trkpt>
   <trkpt lat="31.9270520" lon="34.9737350">
    <ele>155.0</ele>
    <time>2018-08-18T04:58:48Z</time>
   </trkpt>
   <trkpt lat="31.9270440" lon="34.9737890">
    <ele>155.1</ele>
    <time>2018-08-18T04:58:49Z</time>
   </trkpt>
   <trkpt lat="31.9270340" lon="34.9738390">
    <ele>155.2</ele>
    <time>2018-08-18T04:58:50Z</time>
   </trkpt>
   <trkpt lat="31.9270250" lon="34.9738890">
    <ele>155.4</ele>
    <time>2018-08-18T04:58:51Z</time>
   </trkpt>
   <trkpt lat="31.9270160" lon="34.9739310">
    <ele>155.5</ele>
    <time>2018-08-18T04:58:52Z</time>
   </trkpt>
   <trkpt lat="31.9270070" lon="34.9739680">
    <ele>155.6</ele>
    <time>2018-08-18T04:58:53Z</time>
   </trkpt>
   <trkpt lat="31.9269940" lon="34.9740090">
    <ele>155.6</ele>
    <time>2018-08-18T04:58:54Z</time>
   </trkpt>
   <trkpt lat="31.9269840" lon="34.9740430">
    <ele>155.6</ele>
    <time>2018-08-18T04:58:55Z</time>
   </trkpt>
   <trkpt lat="31.9269750" lon="34.9740790">
    <ele>155.5</ele>
    <time>2018-08-18T04:58:56Z</time>
   </trkpt>
   <trkpt lat="31.9269500" lon="34.9741360">
    <ele>155.5</ele>
    <time>2018-08-18T04:58:58Z</time>
   </trkpt>
   <trkpt lat="31.9269280" lon="34.9741780">
    <ele>155.5</ele>
    <time>2018-08-18T04:59:00Z</time>
   </trkpt>
   <trkpt lat="31.9269120" lon="34.9742360">
    <ele>155.4</ele>
    <time>2018-08-18T04:59:02Z</time>
   </trkpt>
   <trkpt lat="31.9269030" lon="34.9742700">
    <ele>155.4</ele>
    <time>2018-08-18T04:59:03Z</time>
   </trkpt>
   <trkpt lat="31.9268910" lon="34.9743040">
    <ele>155.4</ele>
    <time>2018-08-18T04:59:04Z</time>
   </trkpt>
   <trkpt lat="31.9268790" lon="34.9743400">
    <ele>155.3</ele>
    <time>2018-08-18T04:59:05Z</time>
   </trkpt>
   <trkpt lat="31.9268670" lon="34.9743680">
    <ele>155.3</ele>
    <time>2018-08-18T04:59:06Z</time>
   </trkpt>
   <trkpt lat="31.9268570" lon="34.9744000">
    <ele>155.3</ele>
    <time>2018-08-18T04:59:07Z</time>
   </trkpt>
   <trkpt lat="31.9268510" lon="34.9744350">
    <ele>155.2</ele>
    <time>2018-08-18T04:59:08Z</time>
   </trkpt>
   <trkpt lat="31.9268470" lon="34.9744700">
    <ele>155.2</ele>
    <time>2018-08-18T04:59:09Z</time>
   </trkpt>
   <trkpt lat="31.9268370" lon="34.9745060">
    <ele>155.1</ele>
    <time>2018-08-18T04:59:10Z</time>
   </trkpt>
   <trkpt lat="31.9268300" lon="34.9745420">
    <ele>155.1</ele>
    <time>2018-08-18T04:59:11Z</time>
   </trkpt>
   <trkpt lat="31.9268240" lon="34.9745780">
    <ele>155.0</ele>
    <time>2018-08-18T04:59:12Z</time>
   </trkpt>
   <trkpt lat="31.9268260" lon="34.9746430">
    <ele>155.1</ele>
    <time>2018-08-18T04:59:14Z</time>
   </trkpt>
   <trkpt lat="31.9268300" lon="34.9746750">
    <ele>155.2</ele>
    <time>2018-08-18T04:59:15Z</time>
   </trkpt>
   <trkpt lat="31.9268500" lon="34.9747320">
    <ele>155.3</ele>
    <time>2018-08-18T04:59:17Z</time>
   </trkpt>
   <trkpt lat="31.9268640" lon="34.9747640">
    <ele>155.4</ele>
    <time>2018-08-18T04:59:18Z</time>
   </trkpt>
   <trkpt lat="31.9268820" lon="34.9748000">
    <ele>155.4</ele>
    <time>2018-08-18T04:59:19Z</time>
   </trkpt>
   <trkpt lat="31.9269010" lon="34.9748400">
    <ele>155.5</ele>
    <time>2018-08-18T04:59:20Z</time>
   </trkpt>
   <trkpt lat="31.9269200" lon="34.9748800">
    <ele>155.6</ele>
    <time>2018-08-18T04:59:21Z</time>
   </trkpt>
   <trkpt lat="31.9269330" lon="34.9749080">
    <ele>155.7</ele>
    <time>2018-08-18T04:59:22Z</time>
   </trkpt>
   <trkpt lat="31.9269460" lon="34.9749400">
    <ele>155.7</ele>
    <time>2018-08-18T04:59:23Z</time>
   </trkpt>
   <trkpt lat="31.9269580" lon="34.9749720">
    <ele>155.8</ele>
    <time>2018-08-18T04:59:24Z</time>
   </trkpt>
   <trkpt lat="31.9269890" lon="34.9750340">
    <ele>155.9</ele>
    <time>2018-08-18T04:59:26Z</time>
   </trkpt>
   <trkpt lat="31.9270060" lon="34.9750690">
    <ele>156.0</ele>
    <time>2018-08-18T04:59:27Z</time>
   </trkpt>
   <trkpt lat="31.9270230" lon="34.9751050">
    <ele>156.2</ele>
    <time>2018-08-18T04:59:28Z</time>
   </trkpt>
   <trkpt lat="31.9270370" lon="34.9751440">
    <ele>156.4</ele>
    <time>2018-08-18T04:59:29Z</time>
   </trkpt>
   <trkpt lat="31.9270490" lon="34.9751770">
    <ele>156.5</ele>
    <time>2018-08-18T04:59:30Z</time>
   </trkpt>
   <trkpt lat="31.9270600" lon="34.9752100">
    <ele>156.6</ele>
    <time>2018-08-18T04:59:31Z</time>
   </trkpt>
   <trkpt lat="31.9270730" lon="34.9752460">
    <ele>156.7</ele>
    <time>2018-08-18T04:59:32Z</time>
   </trkpt>
   <trkpt lat="31.9270840" lon="34.9752800">
    <ele>156.8</ele>
    <time>2018-08-18T04:59:33Z</time>
   </trkpt>
   <trkpt lat="31.9270960" lon="34.9753150">
    <ele>157.1</ele>
    <time>2018-08-18T04:59:34Z</time>
   </trkpt>
   <trkpt lat="31.9271090" lon="34.9753510">
    <ele>157.6</ele>
    <time>2018-08-18T04:59:35Z</time>
   </trkpt>
   <trkpt lat="31.9271220" lon="34.9753870">
    <ele>158.0</ele>
    <time>2018-08-18T04:59:36Z</time>
   </trkpt>
   <trkpt lat="31.9271340" lon="34.9754200">
    <ele>158.5</ele>
    <time>2018-08-18T04:59:37Z</time>
   </trkpt>
   <trkpt lat="31.9271440" lon="34.9754520">
    <ele>158.9</ele>
    <time>2018-08-18T04:59:38Z</time>
   </trkpt>
   <trkpt lat="31.9271530" lon="34.9755120">
    <ele>159.1</ele>
    <time>2018-08-18T04:59:40Z</time>
   </trkpt>
   <trkpt lat="31.9271650" lon="34.9755730">
    <ele>159.3</ele>
    <time>2018-08-18T04:59:42Z</time>
   </trkpt>
   <trkpt lat="31.9271740" lon="34.9756080">
    <ele>159.5</ele>
    <time>2018-08-18T04:59:43Z</time>
   </trkpt>
   <trkpt lat="31.9271810" lon="34.9756430">
    <ele>159.6</ele>
    <time>2018-08-18T04:59:44Z</time>
   </trkpt>
   <trkpt lat="31.9271910" lon="34.9756770">
    <ele>159.7</ele>
    <time>2018-08-18T04:59:45Z</time>
   </trkpt>
   <trkpt lat="31.9271990" lon="34.9757090">
    <ele>159.9</ele>
    <time>2018-08-18T04:59:46Z</time>
   </trkpt>
   <trkpt lat="31.9272040" lon="34.9757430">
    <ele>160.0</ele>
    <time>2018-08-18T04:59:47Z</time>
   </trkpt>
   <trkpt lat="31.9272080" lon="34.9757760">
    <ele>160.2</ele>
    <time>2018-08-18T04:59:48Z</time>
   </trkpt>
   <trkpt lat="31.9272100" lon="34.9758120">
    <ele>160.4</ele>
    <time>2018-08-18T04:59:49Z</time>
   </trkpt>
   <trkpt lat="31.9272130" lon="34.9758460">
    <ele>160.7</ele>
    <time>2018-08-18T04:59:50Z</time>
   </trkpt>
   <trkpt lat="31.9272190" lon="34.9758810">
    <ele>161.1</ele>
    <time>2018-08-18T04:59:51Z</time>
   </trkpt>
   <trkpt lat="31.9272260" lon="34.9759170">
    <ele>161.5</ele>
    <time>2018-08-18T04:59:52Z</time>
   </trkpt>
   <trkpt lat="31.9272320" lon="34.9759520">
    <ele>161.7</ele>
    <time>2018-08-18T04:59:53Z</time>
   </trkpt>
   <trkpt lat="31.9272360" lon="34.9759960">
    <ele>161.9</ele>
    <time>2018-08-18T04:59:54Z</time>
   </trkpt>
   <trkpt lat="31.9272410" lon="34.9760390">
    <ele>162.0</ele>
    <time>2018-08-18T04:59:55Z</time>
   </trkpt>
   <trkpt lat="31.9272500" lon="34.9760790">
    <ele>162.1</ele>
    <time>2018-08-18T04:59:56Z</time>
   </trkpt>
   <trkpt lat="31.9272580" lon="34.9761170">
    <ele>162.2</ele>
    <time>2018-08-18T04:59:57Z</time>
   </trkpt>
   <trkpt lat="31.9272690" lon="34.9761510">
    <ele>162.2</ele>
    <time>2018-08-18T04:59:58Z</time>
   </trkpt>
   <trkpt lat="31.9272770" lon="34.9761870">
    <ele>162.3</ele>
    <time>2018-08-18T04:59:59Z</time>
   </trkpt>
   <trkpt lat="31.9272820" lon="34.9762260">
    <ele>162.4</ele>
    <time>2018-08-18T05:00:00Z</time>
   </trkpt>
   <trkpt lat="31.9272840" lon="34.9762640">
    <ele>162.4</ele>
    <time>2018-08-18T05:00:01Z</time>
   </trkpt>
   <trkpt lat="31.9272880" lon="34.9763060">
    <ele>162.5</ele>
    <time>2018-08-18T05:00:02Z</time>
   </trkpt>
   <trkpt lat="31.9272950" lon="34.9763460">
    <ele>162.5</ele>
    <time>2018-08-18T05:00:03Z</time>
   </trkpt>
   <trkpt lat="31.9273010" lon="34.9763880">
    <ele>162.6</ele>
    <time>2018-08-18T05:00:04Z</time>
   </trkpt>
   <trkpt lat="31.9273070" lon="34.9764270">
    <ele>162.6</ele>
    <time>2018-08-18T05:00:05Z</time>
   </trkpt>
   <trkpt lat="31.9273130" lon="34.9764660">
    <ele>162.6</ele>
    <time>2018-08-18T05:00:06Z</time>
   </trkpt>
   <trkpt lat="31.9273170" lon="34.9765020">
    <ele>162.7</ele>
    <time>2018-08-18T05:00:07Z</time>
   </trkpt>
   <trkpt lat="31.9273210" lon="34.9765380">
    <ele>162.7</ele>
    <time>2018-08-18T05:00:08Z</time>
   </trkpt>
   <trkpt lat="31.9273240" lon="34.9765770">
    <ele>162.7</ele>
    <time>2018-08-18T05:00:09Z</time>
   </trkpt>
   <trkpt lat="31.9273260" lon="34.9766140">
    <ele>162.8</ele>
    <time>2018-08-18T05:00:10Z</time>
   </trkpt>
   <trkpt lat="31.9273310" lon="34.9766530">
    <ele>162.8</ele>
    <time>2018-08-18T05:00:11Z</time>
   </trkpt>
   <trkpt lat="31.9273330" lon="34.9766860">
    <ele>162.9</ele>
    <time>2018-08-18T05:00:12Z</time>
   </trkpt>
   <trkpt lat="31.9273370" lon="34.9767180">
    <ele>162.9</ele>
    <time>2018-08-18T05:00:13Z</time>
   </trkpt>
   <trkpt lat="31.9273400" lon="34.9767540">
    <ele>162.9</ele>
    <time>2018-08-18T05:00:14Z</time>
   </trkpt>
   <trkpt lat="31.9273420" lon="34.9767870">
    <ele>163.0</ele>
    <time>2018-08-18T05:00:15Z</time>
   </trkpt>
   <trkpt lat="31.9273450" lon="34.9768250">
    <ele>163.0</ele>
    <time>2018-08-18T05:00:16Z</time>
   </trkpt>
   <trkpt lat="31.9273450" lon="34.9768580">
    <ele>163.0</ele>
    <time>2018-08-18T05:00:17Z</time>
   </trkpt>
   <trkpt lat="31.9273440" lon="34.9768900">
    <ele>163.0</ele>
    <time>2018-08-18T05:00:18Z</time>
   </trkpt>
   <trkpt lat="31.9273460" lon="34.9769420">
    <ele>163.0</ele>
    <time>2018-08-18T05:00:20Z</time>
   </trkpt>
   <trkpt lat="31.9273520" lon="34.9769750">
    <ele>163.0</ele>
    <time>2018-08-18T05:00:21Z</time>
   </trkpt>
   <trkpt lat="31.9273540" lon="34.9770070">
    <ele>163.0</ele>
    <time>2018-08-18T05:00:22Z</time>
   </trkpt>
   <trkpt lat="31.9273270" lon="34.9770490">
    <ele>163.0</ele>
    <time>2018-08-18T05:00:24Z</time>
   </trkpt>
   <trkpt lat="31.9273000" lon="34.9770630">
    <ele>163.0</ele>
    <time>2018-08-18T05:00:25Z</time>
   </trkpt>
   <trkpt lat="31.9272730" lon="34.9770780">
    <ele>163.0</ele>
    <time>2018-08-18T05:00:28Z</time>
   </trkpt>
   <trkpt lat="31.9272340" lon="34.9770800">
    <ele>163.0</ele>
    <time>2018-08-18T05:00:31Z</time>
   </trkpt>
   <trkpt lat="31.9272080" lon="34.9770870">
    <ele>163.0</ele>
    <time>2018-08-18T05:00:37Z</time>
   </trkpt>
   <trkpt lat="31.9272420" lon="34.9770520">
    <ele>163.0</ele>
    <time>2018-08-18T05:11:55Z</time>
   </trkpt>
   <trkpt lat="31.9272710" lon="34.9770480">
    <ele>163.1</ele>
    <time>2018-08-18T05:11:57Z</time>
   </trkpt>
   <trkpt lat="31.9273100" lon="34.9770610">
    <ele>163.2</ele>
    <time>2018-08-18T05:11:59Z</time>
   </trkpt>
   <trkpt lat="31.9273450" lon="34.9771020">
    <ele>163.3</ele>
    <time>2018-08-18T05:12:01Z</time>
   </trkpt>
   <trkpt lat="31.9273640" lon="34.9771600">
    <ele>163.4</ele>
    <time>2018-08-18T05:12:03Z</time>
   </trkpt>
   <trkpt lat="31.9273800" lon="34.9771870">
    <ele>163.6</ele>
    <time>2018-08-18T05:12:04Z</time>
   </trkpt>
   <trkpt lat="31.9273900" lon="34.9772190">
    <ele>163.7</ele>
    <time>2018-08-18T05:12:05Z</time>
   </trkpt>
   <trkpt lat="31.9273990" lon="34.9772500">
    <ele>163.7</ele>
    <time>2018-08-18T05:12:06Z</time>
   </trkpt>
   <trkpt lat="31.9274160" lon="34.9773110">
    <ele>163.7</ele>
    <time>2018-08-18T05:12:08Z</time>
   </trkpt>
   <trkpt lat="31.9274270" lon="34.9773440">
    <ele>163.7</ele>
    <time>2018-08-18T05:12:09Z</time>
   </trkpt>
   <trkpt lat="31.9274410" lon="34.9773810">
    <ele>163.7</ele>
    <time>2018-08-18T05:12:10Z</time>
   </trkpt>
   <trkpt lat="31.9274590" lon="34.9774370">
    <ele>163.6</ele>
    <time>2018-08-18T05:12:12Z</time>
   </trkpt>
   <trkpt lat="31.9274670" lon="34.9774690">
    <ele>163.6</ele>
    <time>2018-08-18T05:12:13Z</time>
   </trkpt>
   <trkpt lat="31.9274770" lon="34.9775010">
    <ele>163.6</ele>
    <time>2018-08-18T05:12:14Z</time>
   </trkpt>
   <trkpt lat="31.9274880" lon="34.9775330">
    <ele>163.6</ele>
    <time>2018-08-18T05:12:15Z</time>
   </trkpt>
   <trkpt lat="31.9275030" lon="34.9775940">
    <ele>163.5</ele>
    <time>2018-08-18T05:12:17Z</time>
   </trkpt>
   <trkpt lat="31.9275110" lon="34.9776260">
    <ele>163.5</ele>
    <time>2018-08-18T05:12:18Z</time>
   </trkpt>
   <trkpt lat="31.9275180" lon="34.9776590">
    <ele>163.5</ele>
    <time>2018-08-18T05:12:19Z</time>
   </trkpt>
   <trkpt lat="31.9275280" lon="34.9776950">
    <ele>163.4</ele>
    <time>2018-08-18T05:12:20Z</time>
   </trkpt>
   <trkpt lat="31.9275360" lon="34.9777310">
    <ele>163.4</ele>
    <time>2018-08-18T05:12:21Z</time>
   </trkpt>
   <trkpt lat="31.9275440" lon="34.9777690">
    <ele>163.3</ele>
    <time>2018-08-18T05:12:22Z</time>
   </trkpt>
   <trkpt lat="31.9275510" lon="34.9778000">
    <ele>163.3</ele>
    <time>2018-08-18T05:12:23Z</time>
   </trkpt>
   <trkpt lat="31.9275640" lon="34.9778600">
    <ele>163.2</ele>
    <time>2018-08-18T05:12:25Z</time>
   </trkpt>
   <trkpt lat="31.9275680" lon="34.9778910">
    <ele>163.2</ele>
    <time>2018-08-18T05:12:26Z</time>
   </trkpt>
   <trkpt lat="31.9275700" lon="34.9779480">
    <ele>163.2</ele>
    <time>2018-08-18T05:12:28Z</time>
   </trkpt>
   <trkpt lat="31.9275760" lon="34.9780150">
    <ele>163.1</ele>
    <time>2018-08-18T05:12:30Z</time>
   </trkpt>
   <trkpt lat="31.9275800" lon="34.9780480">
    <ele>163.1</ele>
    <time>2018-08-18T05:12:31Z</time>
   </trkpt>
   <trkpt lat="31.9275840" lon="34.9780820">
    <ele>163.1</ele>
    <time>2018-08-18T05:12:32Z</time>
   </trkpt>
   <trkpt lat="31.9275870" lon="34.9781150">
    <ele>163.1</ele>
    <time>2018-08-18T05:12:33Z</time>
   </trkpt>
   <trkpt lat="31.9275970" lon="34.9781780">
    <ele>163.1</ele>
    <time>2018-08-18T05:12:35Z</time>
   </trkpt>
   <trkpt lat="31.9276010" lon="34.9782100">
    <ele>163.1</ele>
    <time>2018-08-18T05:12:36Z</time>
   </trkpt>
   <trkpt lat="31.9276040" lon="34.9782730">
    <ele>163.2</ele>
    <time>2018-08-18T05:12:38Z</time>
   </trkpt>
   <trkpt lat="31.9276090" lon="34.9783360">
    <ele>163.3</ele>
    <time>2018-08-18T05:12:40Z</time>
   </trkpt>
   <trkpt lat="31.9276100" lon="34.9783700">
    <ele>163.3</ele>
    <time>2018-08-18T05:12:41Z</time>
   </trkpt>
   <trkpt lat="31.9276120" lon="34.9784060">
    <ele>163.2</ele>
    <time>2018-08-18T05:12:42Z</time>
   </trkpt>
   <trkpt lat="31.9276120" lon="34.9784440">
    <ele>163.2</ele>
    <time>2018-08-18T05:12:43Z</time>
   </trkpt>
   <trkpt lat="31.9276070" lon="34.9785090">
    <ele>163.1</ele>
    <time>2018-08-18T05:12:45Z</time>
   </trkpt>
   <trkpt lat="31.9276040" lon="34.9785450">
    <ele>163.1</ele>
    <time>2018-08-18T05:12:46Z</time>
   </trkpt>
   <trkpt lat="31.9276010" lon="34.9785810">
    <ele>163.1</ele>
    <time>2018-08-18T05:12:47Z</time>
   </trkpt>
   <trkpt lat="31.9275960" lon="34.9786430">
    <ele>163.0</ele>
    <time>2018-08-18T05:12:49Z</time>
   </trkpt>
   <trkpt lat="31.9275900" lon="34.9787040">
    <ele>163.0</ele>
    <time>2018-08-18T05:12:51Z</time>
   </trkpt>
   <trkpt lat="31.9275810" lon="34.9787360">
    <ele>163.0</ele>
    <time>2018-08-18T05:12:52Z</time>
   </trkpt>
   <trkpt lat="31.9275690" lon="34.9787960">
    <ele>163.1</ele>
    <time>2018-08-18T05:12:54Z</time>
   </trkpt>
   <trkpt lat="31.9275610" lon="34.9788570">
    <ele>163.1</ele>
    <time>2018-08-18T05:12:56Z</time>
   </trkpt>
   <trkpt lat="31.9275550" lon="34.9788880">
    <ele>163.1</ele>
    <time>2018-08-18T05:12:57Z</time>
   </trkpt>
   <trkpt lat="31.9275460" lon="34.9789500">
    <ele>163.2</ele>
    <time>2018-08-18T05:12:59Z</time>
   </trkpt>
   <trkpt lat="31.9275340" lon="34.9790120">
    <ele>163.3</ele>
    <time>2018-08-18T05:13:01Z</time>
   </trkpt>
   <trkpt lat="31.9275180" lon="34.9790680">
    <ele>163.4</ele>
    <time>2018-08-18T05:13:03Z</time>
   </trkpt>
   <trkpt lat="31.9274980" lon="34.9791210">
    <ele>163.5</ele>
    <time>2018-08-18T05:13:05Z</time>
   </trkpt>
   <trkpt lat="31.9274750" lon="34.9791710">
    <ele>163.7</ele>
    <time>2018-08-18T05:13:07Z</time>
   </trkpt>
   <trkpt lat="31.9274550" lon="34.9792230">
    <ele>163.8</ele>
    <time>2018-08-18T05:13:09Z</time>
   </trkpt>
   <trkpt lat="31.9274320" lon="34.9792680">
    <ele>164.1</ele>
    <time>2018-08-18T05:13:11Z</time>
   </trkpt>
   <trkpt lat="31.9274140" lon="34.9793170">
    <ele>164.5</ele>
    <time>2018-08-18T05:13:13Z</time>
   </trkpt>
   <trkpt lat="31.9273940" lon="34.9793690">
    <ele>164.8</ele>
    <time>2018-08-18T05:13:15Z</time>
   </trkpt>
   <trkpt lat="31.9273690" lon="34.9794210">
    <ele>165.0</ele>
    <time>2018-08-18T05:13:17Z</time>
   </trkpt>
   <trkpt lat="31.9273490" lon="34.9794790">
    <ele>165.1</ele>
    <time>2018-08-18T05:13:19Z</time>
   </trkpt>
   <trkpt lat="31.9273290" lon="34.9795360">
    <ele>165.2</ele>
    <time>2018-08-18T05:13:21Z</time>
   </trkpt>
   <trkpt lat="31.9273240" lon="34.9795710">
    <ele>165.3</ele>
    <time>2018-08-18T05:13:22Z</time>
   </trkpt>
   <trkpt lat="31.9273250" lon="34.9796030">
    <ele>165.4</ele>
    <time>2018-08-18T05:13:23Z</time>
   </trkpt>
   <trkpt lat="31.9273260" lon="34.9796350">
    <ele>165.5</ele>
    <time>2018-08-18T05:13:24Z</time>
   </trkpt>
   <trkpt lat="31.9273240" lon="34.9796920">
    <ele>165.6</ele>
    <time>2018-08-18T05:13:26Z</time>
   </trkpt>
   <trkpt lat="31.9273190" lon="34.9797460">
    <ele>165.9</ele>
    <time>2018-08-18T05:13:28Z</time>
   </trkpt>
   <trkpt lat="31.9273220" lon="34.9798060">
    <ele>166.4</ele>
    <time>2018-08-18T05:13:30Z</time>
   </trkpt>
   <trkpt lat="31.9273230" lon="34.9798550">
    <ele>166.7</ele>
    <time>2018-08-18T05:13:32Z</time>
   </trkpt>
   <trkpt lat="31.9273320" lon="34.9799040">
    <ele>166.9</ele>
    <time>2018-08-18T05:13:34Z</time>
   </trkpt>
   <trkpt lat="31.9273420" lon="34.9799630">
    <ele>167.0</ele>
    <time>2018-08-18T05:13:36Z</time>
   </trkpt>
   <trkpt lat="31.9273530" lon="34.9800090">
    <ele>167.1</ele>
    <time>2018-08-18T05:13:38Z</time>
   </trkpt>
   <trkpt lat="31.9273650" lon="34.9800550">
    <ele>167.1</ele>
    <time>2018-08-18T05:13:40Z</time>
   </trkpt>
   <trkpt lat="31.9273790" lon="34.9801050">
    <ele>167.2</ele>
    <time>2018-08-18T05:13:42Z</time>
   </trkpt>
   <trkpt lat="31.9273770" lon="34.9801640">
    <ele>167.3</ele>
    <time>2018-08-18T05:13:44Z</time>
   </trkpt>
   <trkpt lat="31.9273800" lon="34.9802280">
    <ele>167.4</ele>
    <time>2018-08-18T05:13:46Z</time>
   </trkpt>
   <trkpt lat="31.9273860" lon="34.9802910">
    <ele>167.5</ele>
    <time>2018-08-18T05:13:48Z</time>
   </trkpt>
   <trkpt lat="31.9273910" lon="34.9803530">
    <ele>167.7</ele>
    <time>2018-08-18T05:13:50Z</time>
   </trkpt>
   <trkpt lat="31.9273860" lon="34.9804130">
    <ele>167.8</ele>
    <time>2018-08-18T05:13:52Z</time>
   </trkpt>
   <trkpt lat="31.9273950" lon="34.9804700">
    <ele>168.2</ele>
    <time>2018-08-18T05:13:54Z</time>
   </trkpt>
   <trkpt lat="31.9273990" lon="34.9805280">
    <ele>168.5</ele>
    <time>2018-08-18T05:13:56Z</time>
   </trkpt>
   <trkpt lat="31.9274060" lon="34.9805920">
    <ele>168.6</ele>
    <time>2018-08-18T05:13:58Z</time>
   </trkpt>
   <trkpt lat="31.9274100" lon="34.9806270">
    <ele>168.7</ele>
    <time>2018-08-18T05:13:59Z</time>
   </trkpt>
   <trkpt lat="31.9274120" lon="34.9806650">
    <ele>168.8</ele>
    <time>2018-08-18T05:14:00Z</time>
   </trkpt>
   <trkpt lat="31.9274170" lon="34.9807090">
    <ele>168.8</ele>
    <time>2018-08-18T05:14:01Z</time>
   </trkpt>
   <trkpt lat="31.9274190" lon="34.9807460">
    <ele>168.8</ele>
    <time>2018-08-18T05:14:02Z</time>
   </trkpt>
   <trkpt lat="31.9274220" lon="34.9807800">
    <ele>168.8</ele>
    <time>2018-08-18T05:14:03Z</time>
   </trkpt>
   <trkpt lat="31.9274240" lon="34.9808130">
    <ele>168.9</ele>
    <time>2018-08-18T05:14:04Z</time>
   </trkpt>
   <trkpt lat="31.9274270" lon="34.9808450">
    <ele>168.9</ele>
    <time>2018-08-18T05:14:05Z</time>
   </trkpt>
   <trkpt lat="31.9274290" lon="34.9808770">
    <ele>168.9</ele>
    <time>2018-08-18T05:14:06Z</time>
   </trkpt>
   <trkpt lat="31.9274310" lon="34.9809100">
    <ele>168.9</ele>
    <time>2018-08-18T05:14:07Z</time>
   </trkpt>
   <trkpt lat="31.9274330" lon="34.9809450">
    <ele>169.0</ele>
    <time>2018-08-18T05:14:08Z</time>
   </trkpt>
   <trkpt lat="31.9274390" lon="34.9809830">
    <ele>169.0</ele>
    <time>2018-08-18T05:14:09Z</time>
   </trkpt>
   <trkpt lat="31.9274460" lon="34.9810200">
    <ele>169.0</ele>
    <time>2018-08-18T05:14:10Z</time>
   </trkpt>
   <trkpt lat="31.9274540" lon="34.9810560">
    <ele>169.1</ele>
    <time>2018-08-18T05:14:11Z</time>
   </trkpt>
   <trkpt lat="31.9274610" lon="34.9810920">
    <ele>169.1</ele>
    <time>2018-08-18T05:14:12Z</time>
   </trkpt>
   <trkpt lat="31.9274650" lon="34.9811270">
    <ele>169.1</ele>
    <time>2018-08-18T05:14:13Z</time>
   </trkpt>
   <trkpt lat="31.9274690" lon="34.9811640">
    <ele>169.2</ele>
    <time>2018-08-18T05:14:14Z</time>
   </trkpt>
   <trkpt lat="31.9274740" lon="34.9812040">
    <ele>169.2</ele>
    <time>2018-08-18T05:14:15Z</time>
   </trkpt>
   <trkpt lat="31.9274790" lon="34.9812420">
    <ele>169.3</ele>
    <time>2018-08-18T05:14:16Z</time>
   </trkpt>
   <trkpt lat="31.9274840" lon="34.9812820">
    <ele>169.3</ele>
    <time>2018-08-18T05:14:17Z</time>
   </trkpt>
   <trkpt lat="31.9274900" lon="34.9813190">
    <ele>169.4</ele>
    <time>2018-08-18T05:14:18Z</time>
   </trkpt>
   <trkpt lat="31.9274990" lon="34.9813560">
    <ele>169.4</ele>
    <time>2018-08-18T05:14:19Z</time>
   </trkpt>
   <trkpt lat="31.9275040" lon="34.9813910">
    <ele>169.5</ele>
    <time>2018-08-18T05:14:20Z</time>
   </trkpt>
   <trkpt lat="31.9275130" lon="34.9814230">
    <ele>169.6</ele>
    <time>2018-08-18T05:14:21Z</time>
   </trkpt>
   <trkpt lat="31.9275220" lon="34.9814570">
    <ele>169.7</ele>
    <time>2018-08-18T05:14:22Z</time>
   </trkpt>
   <trkpt lat="31.9275300" lon="34.9814930">
    <ele>169.9</ele>
    <time>2018-08-18T05:14:23Z</time>
   </trkpt>
   <trkpt lat="31.9275380" lon="34.9815270">
    <ele>170.1</ele>
    <time>2018-08-18T05:14:24Z</time>
   </trkpt>
   <trkpt lat="31.9275460" lon="34.9815610">
    <ele>170.3</ele>
    <time>2018-08-18T05:14:25Z</time>
   </trkpt>
   <trkpt lat="31.9275550" lon="34.9815920">
    <ele>170.4</ele>
    <time>2018-08-18T05:14:26Z</time>
   </trkpt>
   <trkpt lat="31.9275650" lon="34.9816260">
    <ele>170.5</ele>
    <time>2018-08-18T05:14:27Z</time>
   </trkpt>
   <trkpt lat="31.9275720" lon="34.9816590">
    <ele>170.5</ele>
    <time>2018-08-18T05:14:28Z</time>
   </trkpt>
   <trkpt lat="31.9275770" lon="34.9816940">
    <ele>170.6</ele>
    <time>2018-08-18T05:14:29Z</time>
   </trkpt>
   <trkpt lat="31.9275780" lon="34.9817300">
    <ele>170.6</ele>
    <time>2018-08-18T05:14:30Z</time>
   </trkpt>
   <trkpt lat="31.9275790" lon="34.9817660">
    <ele>170.7</ele>
    <time>2018-08-18T05:14:31Z</time>
   </trkpt>
   <trkpt lat="31.9275810" lon="34.9818040">
    <ele>170.7</ele>
    <time>2018-08-18T05:14:32Z</time>
   </trkpt>
   <trkpt lat="31.9275850" lon="34.9818430">
    <ele>170.8</ele>
    <time>2018-08-18T05:14:33Z</time>
   </trkpt>
   <trkpt lat="31.9275870" lon="34.9818820">
    <ele>170.8</ele>
    <time>2018-08-18T05:14:34Z</time>
   </trkpt>
   <trkpt lat="31.9275920" lon="34.9819180">
    <ele>170.9</ele>
    <time>2018-08-18T05:14:35Z</time>
   </trkpt>
   <trkpt lat="31.9275940" lon="34.9819530">
    <ele>170.9</ele>
    <time>2018-08-18T05:14:36Z</time>
   </trkpt>
   <trkpt lat="31.9275940" lon="34.9820150">
    <ele>171.0</ele>
    <time>2018-08-18T05:14:38Z</time>
   </trkpt>
   <trkpt lat="31.9275930" lon="34.9820780">
    <ele>171.0</ele>
    <time>2018-08-18T05:14:40Z</time>
   </trkpt>
   <trkpt lat="31.9275940" lon="34.9821100">
    <ele>171.1</ele>
    <time>2018-08-18T05:14:41Z</time>
   </trkpt>
   <trkpt lat="31.9275990" lon="34.9821450">
    <ele>171.1</ele>
    <time>2018-08-18T05:14:42Z</time>
   </trkpt>
   <trkpt lat="31.9276030" lon="34.9821800">
    <ele>171.2</ele>
    <time>2018-08-18T05:14:43Z</time>
   </trkpt>
   <trkpt lat="31.9276060" lon="34.9822150">
    <ele>171.2</ele>
    <time>2018-08-18T05:14:44Z</time>
   </trkpt>
   <trkpt lat="31.9276110" lon="34.9822510">
    <ele>171.3</ele>
    <time>2018-08-18T05:14:45Z</time>
   </trkpt>
   <trkpt lat="31.9276180" lon="34.9822890">
    <ele>171.3</ele>
    <time>2018-08-18T05:14:46Z</time>
   </trkpt>
   <trkpt lat="31.9276230" lon="34.9823210">
    <ele>171.4</ele>
    <time>2018-08-18T05:14:47Z</time>
   </trkpt>
   <trkpt lat="31.9276250" lon="34.9823540">
    <ele>171.5</ele>
    <time>2018-08-18T05:14:48Z</time>
   </trkpt>
   <trkpt lat="31.9276280" lon="34.9823870">
    <ele>171.5</ele>
    <time>2018-08-18T05:14:49Z</time>
   </trkpt>
   <trkpt lat="31.9276310" lon="34.9824190">
    <ele>171.6</ele>
    <time>2018-08-18T05:14:50Z</time>
   </trkpt>
   <trkpt lat="31.9276370" lon="34.9824500">
    <ele>171.8</ele>
    <time>2018-08-18T05:14:51Z</time>
   </trkpt>
   <trkpt lat="31.9276450" lon="34.9825130">
    <ele>172.2</ele>
    <time>2018-08-18T05:14:53Z</time>
   </trkpt>
   <trkpt lat="31.9276510" lon="34.9825730">
    <ele>172.5</ele>
    <time>2018-08-18T05:14:55Z</time>
   </trkpt>
   <trkpt lat="31.9276540" lon="34.9826330">
    <ele>172.6</ele>
    <time>2018-08-18T05:14:57Z</time>
   </trkpt>
   <trkpt lat="31.9276550" lon="34.9826650">
    <ele>172.7</ele>
    <time>2018-08-18T05:14:58Z</time>
   </trkpt>
   <trkpt lat="31.9276570" lon="34.9826970">
    <ele>172.8</ele>
    <time>2018-08-18T05:14:59Z</time>
   </trkpt>
   <trkpt lat="31.9276680" lon="34.9827580">
    <ele>172.9</ele>
    <time>2018-08-18T05:15:01Z</time>
   </trkpt>
   <trkpt lat="31.9276730" lon="34.9828180">
    <ele>173.0</ele>
    <time>2018-08-18T05:15:03Z</time>
   </trkpt>
   <trkpt lat="31.9276760" lon="34.9828820">
    <ele>173.1</ele>
    <time>2018-08-18T05:15:05Z</time>
   </trkpt>
   <trkpt lat="31.9276780" lon="34.9829140">
    <ele>173.2</ele>
    <time>2018-08-18T05:15:06Z</time>
   </trkpt>
   <trkpt lat="31.9276780" lon="34.9829740">
    <ele>173.3</ele>
    <time>2018-08-18T05:15:08Z</time>
   </trkpt>
   <trkpt lat="31.9276780" lon="34.9830320">
    <ele>173.4</ele>
    <time>2018-08-18T05:15:10Z</time>
   </trkpt>
   <trkpt lat="31.9276830" lon="34.9830750">
    <ele>173.5</ele>
    <time>2018-08-18T05:15:11Z</time>
   </trkpt>
   <trkpt lat="31.9276820" lon="34.9831070">
    <ele>173.5</ele>
    <time>2018-08-18T05:15:12Z</time>
   </trkpt>
   <trkpt lat="31.9276780" lon="34.9831390">
    <ele>173.6</ele>
    <time>2018-08-18T05:15:13Z</time>
   </trkpt>
   <trkpt lat="31.9276770" lon="34.9832010">
    <ele>174.0</ele>
    <time>2018-08-18T05:15:15Z</time>
   </trkpt>
   <trkpt lat="31.9276830" lon="34.9832600">
    <ele>174.4</ele>
    <time>2018-08-18T05:15:17Z</time>
   </trkpt>
   <trkpt lat="31.9276880" lon="34.9833130">
    <ele>174.6</ele>
    <time>2018-08-18T05:15:19Z</time>
   </trkpt>
   <trkpt lat="31.9276960" lon="34.9833730">
    <ele>174.7</ele>
    <time>2018-08-18T05:15:21Z</time>
   </trkpt>
   <trkpt lat="31.9277000" lon="34.9834040">
    <ele>174.8</ele>
    <time>2018-08-18T05:15:22Z</time>
   </trkpt>
   <trkpt lat="31.9277040" lon="34.9834360">
    <ele>174.8</ele>
    <time>2018-08-18T05:15:23Z</time>
   </trkpt>
   <trkpt lat="31.9277080" lon="34.9834690">
    <ele>174.8</ele>
    <time>2018-08-18T05:15:24Z</time>
   </trkpt>
   <trkpt lat="31.9277180" lon="34.9835310">
    <ele>174.9</ele>
    <time>2018-08-18T05:15:26Z</time>
   </trkpt>
   <trkpt lat="31.9277320" lon="34.9835860">
    <ele>175.0</ele>
    <time>2018-08-18T05:15:28Z</time>
   </trkpt>
   <trkpt lat="31.9277410" lon="34.9836160">
    <ele>175.0</ele>
    <time>2018-08-18T05:15:29Z</time>
   </trkpt>
   <trkpt lat="31.9277530" lon="34.9836470">
    <ele>175.0</ele>
    <time>2018-08-18T05:15:30Z</time>
   </trkpt>
   <trkpt lat="31.9277660" lon="34.9836790">
    <ele>175.0</ele>
    <time>2018-08-18T05:15:31Z</time>
   </trkpt>
   <trkpt lat="31.9277800" lon="34.9837100">
    <ele>175.0</ele>
    <time>2018-08-18T05:15:32Z</time>
   </trkpt>
   <trkpt lat="31.9277950" lon="34.9837440">
    <ele>175.0</ele>
    <time>2018-08-18T05:15:33Z</time>
   </trkpt>
   <trkpt lat="31.9278100" lon="34.9837780">
    <ele>175.0</ele>
    <time>2018-08-18T05:15:34Z</time>
   </trkpt>
   <trkpt lat="31.9278230" lon="34.9838120">
    <ele>175.0</ele>
    <time>2018-08-18T05:15:35Z</time>
   </trkpt>
   <trkpt lat="31.9278340" lon="34.9838460">
    <ele>175.0</ele>
    <time>2018-08-18T05:15:36Z</time>
   </trkpt>
   <trkpt lat="31.9278450" lon="34.9838860">
    <ele>175.0</ele>
    <time>2018-08-18T05:15:37Z</time>
   </trkpt>
   <trkpt lat="31.9278500" lon="34.9839200">
    <ele>175.0</ele>
    <time>2018-08-18T05:15:38Z</time>
   </trkpt>
   <trkpt lat="31.9278550" lon="34.9839520">
    <ele>175.2</ele>
    <time>2018-08-18T05:15:39Z</time>
   </trkpt>
   <trkpt lat="31.9278590" lon="34.9839860">
    <ele>175.2</ele>
    <time>2018-08-18T05:15:40Z</time>
   </trkpt>
   <trkpt lat="31.9278620" lon="34.9840190">
    <ele>175.3</ele>
    <time>2018-08-18T05:15:41Z</time>
   </trkpt>
   <trkpt lat="31.9278630" lon="34.9840540">
    <ele>175.4</ele>
    <time>2018-08-18T05:15:42Z</time>
   </trkpt>
   <trkpt lat="31.9278640" lon="34.9840900">
    <ele>175.5</ele>
    <time>2018-08-18T05:15:43Z</time>
   </trkpt>
   <trkpt lat="31.9278640" lon="34.9841240">
    <ele>175.6</ele>
    <time>2018-08-18T05:15:44Z</time>
   </trkpt>
   <trkpt lat="31.9278580" lon="34.9841840">
    <ele>175.8</ele>
    <time>2018-08-18T05:15:46Z</time>
   </trkpt>
   <trkpt lat="31.9278550" lon="34.9842180">
    <ele>175.9</ele>
    <time>2018-08-18T05:15:47Z</time>
   </trkpt>
   <trkpt lat="31.9278520" lon="34.9842510">
    <ele>176.0</ele>
    <time>2018-08-18T05:15:48Z</time>
   </trkpt>
   <trkpt lat="31.9278480" lon="34.9842830">
    <ele>176.2</ele>
    <time>2018-08-18T05:15:49Z</time>
   </trkpt>
   <trkpt lat="31.9278430" lon="34.9843160">
    <ele>176.3</ele>
    <time>2018-08-18T05:15:50Z</time>
   </trkpt>
   <trkpt lat="31.9278370" lon="34.9843600">
    <ele>176.5</ele>
    <time>2018-08-18T05:15:51Z</time>
   </trkpt>
   <trkpt lat="31.9278300" lon="34.9844030">
    <ele>176.7</ele>
    <time>2018-08-18T05:15:52Z</time>
   </trkpt>
   <trkpt lat="31.9278220" lon="34.9844440">
    <ele>176.9</ele>
    <time>2018-08-18T05:15:53Z</time>
   </trkpt>
   <trkpt lat="31.9278160" lon="34.9844800">
    <ele>177.2</ele>
    <time>2018-08-18T05:15:54Z</time>
   </trkpt>
   <trkpt lat="31.9278090" lon="34.9845160">
    <ele>177.5</ele>
    <time>2018-08-18T05:15:55Z</time>
   </trkpt>
   <trkpt lat="31.9278000" lon="34.9845510">
    <ele>177.9</ele>
    <time>2018-08-18T05:15:56Z</time>
   </trkpt>
   <trkpt lat="31.9277930" lon="34.9845860">
    <ele>178.4</ele>
    <time>2018-08-18T05:15:57Z</time>
   </trkpt>
   <trkpt lat="31.9277830" lon="34.9846200">
    <ele>179.0</ele>
    <time>2018-08-18T05:15:58Z</time>
   </trkpt>
   <trkpt lat="31.9277720" lon="34.9846560">
    <ele>179.3</ele>
    <time>2018-08-18T05:15:59Z</time>
   </trkpt>
   <trkpt lat="31.9277600" lon="34.9846920">
    <ele>179.6</ele>
    <time>2018-08-18T05:16:00Z</time>
   </trkpt>
   <trkpt lat="31.9277470" lon="34.9847250">
    <ele>179.8</ele>
    <time>2018-08-18T05:16:01Z</time>
   </trkpt>
   <trkpt lat="31.9277390" lon="34.9847610">
    <ele>179.9</ele>
    <time>2018-08-18T05:16:02Z</time>
   </trkpt>
   <trkpt lat="31.9277280" lon="34.9847970">
    <ele>180.1</ele>
    <time>2018-08-18T05:16:03Z</time>
   </trkpt>
   <trkpt lat="31.9277170" lon="34.9848320">
    <ele>180.2</ele>
    <time>2018-08-18T05:16:04Z</time>
   </trkpt>
   <trkpt lat="31.9277040" lon="34.9848680">
    <ele>180.3</ele>
    <time>2018-08-18T05:16:05Z</time>
   </trkpt>
   <trkpt lat="31.9276940" lon="34.9849050">
    <ele>180.5</ele>
    <time>2018-08-18T05:16:06Z</time>
   </trkpt>
   <trkpt lat="31.9276800" lon="34.9849410">
    <ele>180.6</ele>
    <time>2018-08-18T05:16:07Z</time>
   </trkpt>
   <trkpt lat="31.9276670" lon="34.9849770">
    <ele>180.7</ele>
    <time>2018-08-18T05:16:08Z</time>
   </trkpt>
   <trkpt lat="31.9276490" lon="34.9850110">
    <ele>180.8</ele>
    <time>2018-08-18T05:16:09Z</time>
   </trkpt>
   <trkpt lat="31.9276350" lon="34.9850490">
    <ele>180.9</ele>
    <time>2018-08-18T05:16:10Z</time>
   </trkpt>
   <trkpt lat="31.9276210" lon="34.9850870">
    <ele>181.1</ele>
    <time>2018-08-18T05:16:11Z</time>
   </trkpt>
   <trkpt lat="31.9276090" lon="34.9851240">
    <ele>181.2</ele>
    <time>2018-08-18T05:16:12Z</time>
   </trkpt>
   <trkpt lat="31.9275970" lon="34.9851640">
    <ele>181.3</ele>
    <time>2018-08-18T05:16:13Z</time>
   </trkpt>
   <trkpt lat="31.9275870" lon="34.9852040">
    <ele>181.4</ele>
    <time>2018-08-18T05:16:14Z</time>
   </trkpt>
   <trkpt lat="31.9275790" lon="34.9852460">
    <ele>181.5</ele>
    <time>2018-08-18T05:16:15Z</time>
   </trkpt>
   <trkpt lat="31.9275680" lon="34.9852840">
    <ele>181.7</ele>
    <time>2018-08-18T05:16:16Z</time>
   </trkpt>
   <trkpt lat="31.9275570" lon="34.9853240">
    <ele>181.8</ele>
    <time>2018-08-18T05:16:17Z</time>
   </trkpt>
   <trkpt lat="31.9275460" lon="34.9853670">
    <ele>181.9</ele>
    <time>2018-08-18T05:16:18Z</time>
   </trkpt>
   <trkpt lat="31.9275330" lon="34.9854090">
    <ele>182.0</ele>
    <time>2018-08-18T05:16:19Z</time>
   </trkpt>
   <trkpt lat="31.9275230" lon="34.9854500">
    <ele>182.1</ele>
    <time>2018-08-18T05:16:20Z</time>
   </trkpt>
   <trkpt lat="31.9275120" lon="34.9854880">
    <ele>182.1</ele>
    <time>2018-08-18T05:16:21Z</time>
   </trkpt>
   <trkpt lat="31.9275030" lon="34.9855250">
    <ele>182.2</ele>
    <time>2018-08-18T05:16:22Z</time>
   </trkpt>
   <trkpt lat="31.9274890" lon="34.9855640">
    <ele>182.3</ele>
    <time>2018-08-18T05:16:23Z</time>
   </trkpt>
   <trkpt lat="31.9274800" lon="34.9856050">
    <ele>182.3</ele>
    <time>2018-08-18T05:16:24Z</time>
   </trkpt>
   <trkpt lat="31.9274710" lon="34.9856450">
    <ele>182.4</ele>
    <time>2018-08-18T05:16:25Z</time>
   </trkpt>
   <trkpt lat="31.9274610" lon="34.9856830">
    <ele>182.5</ele>
    <time>2018-08-18T05:16:26Z</time>
   </trkpt>
   <trkpt lat="31.9274510" lon="34.9857210">
    <ele>182.6</ele>
    <time>2018-08-18T05:16:27Z</time>
   </trkpt>
   <trkpt lat="31.9274390" lon="34.9857560">
    <ele>182.6</ele>
    <time>2018-08-18T05:16:28Z</time>
   </trkpt>
   <trkpt lat="31.9274260" lon="34.9857890">
    <ele>182.7</ele>
    <time>2018-08-18T05:16:29Z</time>
   </trkpt>
   <trkpt lat="31.9274170" lon="34.9858240">
    <ele>182.8</ele>
    <time>2018-08-18T05:16:30Z</time>
   </trkpt>
   <trkpt lat="31.9274050" lon="34.9858600">
    <ele>182.9</ele>
    <time>2018-08-18T05:16:31Z</time>
   </trkpt>
   <trkpt lat="31.9273920" lon="34.9858950">
    <ele>183.0</ele>
    <time>2018-08-18T05:16:32Z</time>
   </trkpt>
   <trkpt lat="31.9273800" lon="34.9859340">
    <ele>183.2</ele>
    <time>2018-08-18T05:16:33Z</time>
   </trkpt>
   <trkpt lat="31.9273720" lon="34.9859750">
    <ele>183.4</ele>
    <time>2018-08-18T05:16:34Z</time>
   </trkpt>
   <trkpt lat="31.9273650" lon="34.9860160">
    <ele>183.7</ele>
    <time>2018-08-18T05:16:35Z</time>
   </trkpt>
   <trkpt lat="31.9273610" lon="34.9860560">
    <ele>184.2</ele>
    <time>2018-08-18T05:16:36Z</time>
   </trkpt>
   <trkpt lat="31.9273590" lon="34.9860960">
    <ele>184.6</ele>
    <time>2018-08-18T05:16:37Z</time>
   </trkpt>
   <trkpt lat="31.9273550" lon="34.9861350">
    <ele>184.8</ele>
    <time>2018-08-18T05:16:38Z</time>
   </trkpt>
   <trkpt lat="31.9273550" lon="34.9861760">
    <ele>185.0</ele>
    <time>2018-08-18T05:16:39Z</time>
   </trkpt>
   <trkpt lat="31.9273550" lon="34.9862160">
    <ele>185.1</ele>
    <time>2018-08-18T05:16:40Z</time>
   </trkpt>
   <trkpt lat="31.9273550" lon="34.9862570">
    <ele>185.2</ele>
    <time>2018-08-18T05:16:41Z</time>
   </trkpt>
   <trkpt lat="31.9273540" lon="34.9862900">
    <ele>185.4</ele>
    <time>2018-08-18T05:16:42Z</time>
   </trkpt>
   <trkpt lat="31.9273470" lon="34.9863540">
    <ele>185.5</ele>
    <time>2018-08-18T05:16:44Z</time>
   </trkpt>
   <trkpt lat="31.9273440" lon="34.9864180">
    <ele>185.7</ele>
    <time>2018-08-18T05:16:46Z</time>
   </trkpt>
   <trkpt lat="31.9273450" lon="34.9864500">
    <ele>185.8</ele>
    <time>2018-08-18T05:16:47Z</time>
   </trkpt>
   <trkpt lat="31.9273380" lon="34.9865120">
    <ele>185.9</ele>
    <time>2018-08-18T05:16:49Z</time>
   </trkpt>
   <trkpt lat="31.9273340" lon="34.9865430">
    <ele>186.0</ele>
    <time>2018-08-18T05:16:50Z</time>
   </trkpt>
   <trkpt lat="31.9273320" lon="34.9865760">
    <ele>186.1</ele>
    <time>2018-08-18T05:16:51Z</time>
   </trkpt>
   <trkpt lat="31.9273310" lon="34.9866390">
    <ele>186.2</ele>
    <time>2018-08-18T05:16:53Z</time>
   </trkpt>
   <trkpt lat="31.9273300" lon="34.9866710">
    <ele>186.3</ele>
    <time>2018-08-18T05:16:54Z</time>
   </trkpt>
   <trkpt lat="31.9273240" lon="34.9867340">
    <ele>186.4</ele>
    <time>2018-08-18T05:16:56Z</time>
   </trkpt>
   <trkpt lat="31.9273220" lon="34.9867670">
    <ele>186.5</ele>
    <time>2018-08-18T05:16:57Z</time>
   </trkpt>
   <trkpt lat="31.9273150" lon="34.9868000">
    <ele>186.6</ele>
    <time>2018-08-18T05:16:58Z</time>
   </trkpt>
   <trkpt lat="31.9273100" lon="34.9868340">
    <ele>186.8</ele>
    <time>2018-08-18T05:16:59Z</time>
   </trkpt>
   <trkpt lat="31.9273060" lon="34.9868690">
    <ele>187.0</ele>
    <time>2018-08-18T05:17:00Z</time>
   </trkpt>
   <trkpt lat="31.9273040" lon="34.9869020">
    <ele>187.4</ele>
    <time>2018-08-18T05:17:01Z</time>
   </trkpt>
   <trkpt lat="31.9272990" lon="34.9869640">
    <ele>188.2</ele>
    <time>2018-08-18T05:17:03Z</time>
   </trkpt>
   <trkpt lat="31.9272790" lon="34.9870280">
    <ele>189.0</ele>
    <time>2018-08-18T05:17:05Z</time>
   </trkpt>
   <trkpt lat="31.9272700" lon="34.9870630">
    <ele>189.3</ele>
    <time>2018-08-18T05:17:06Z</time>
   </trkpt>
   <trkpt lat="31.9272620" lon="34.9870980">
    <ele>189.5</ele>
    <time>2018-08-18T05:17:07Z</time>
   </trkpt>
   <trkpt lat="31.9272520" lon="34.9871300">
    <ele>189.7</ele>
    <time>2018-08-18T05:17:08Z</time>
   </trkpt>
   <trkpt lat="31.9272410" lon="34.9871620">
    <ele>189.9</ele>
    <time>2018-08-18T05:17:09Z</time>
   </trkpt>
   <trkpt lat="31.9272280" lon="34.9871940">
    <ele>190.0</ele>
    <time>2018-08-18T05:17:10Z</time>
   </trkpt>
   <trkpt lat="31.9272190" lon="34.9872250">
    <ele>190.2</ele>
    <time>2018-08-18T05:17:11Z</time>
   </trkpt>
   <trkpt lat="31.9272070" lon="34.9872870">
    <ele>190.7</ele>
    <time>2018-08-18T05:17:13Z</time>
   </trkpt>
   <trkpt lat="31.9271960" lon="34.9873170">
    <ele>191.2</ele>
    <time>2018-08-18T05:17:14Z</time>
   </trkpt>
   <trkpt lat="31.9271820" lon="34.9873440">
    <ele>191.6</ele>
    <time>2018-08-18T05:17:15Z</time>
   </trkpt>
   <trkpt lat="31.9271560" lon="34.9874010">
    <ele>192.3</ele>
    <time>2018-08-18T05:17:17Z</time>
   </trkpt>
   <trkpt lat="31.9271420" lon="34.9874310">
    <ele>192.4</ele>
    <time>2018-08-18T05:17:18Z</time>
   </trkpt>
   <trkpt lat="31.9271300" lon="34.9874600">
    <ele>192.5</ele>
    <time>2018-08-18T05:17:19Z</time>
   </trkpt>
   <trkpt lat="31.9271180" lon="34.9874880">
    <ele>192.6</ele>
    <time>2018-08-18T05:17:20Z</time>
   </trkpt>
   <trkpt lat="31.9270930" lon="34.9875410">
    <ele>192.8</ele>
    <time>2018-08-18T05:17:22Z</time>
   </trkpt>
   <trkpt lat="31.9270800" lon="34.9875710">
    <ele>192.9</ele>
    <time>2018-08-18T05:17:23Z</time>
   </trkpt>
   <trkpt lat="31.9270490" lon="34.9876130">
    <ele>193.0</ele>
    <time>2018-08-18T05:17:25Z</time>
   </trkpt>
   <trkpt lat="31.9270150" lon="34.9876520">
    <ele>192.9</ele>
    <time>2018-08-18T05:17:27Z</time>
   </trkpt>
   <trkpt lat="31.9269800" lon="34.9876920">
    <ele>192.9</ele>
    <time>2018-08-18T05:17:29Z</time>
   </trkpt>
   <trkpt lat="31.9269460" lon="34.9877310">
    <ele>192.8</ele>
    <time>2018-08-18T05:17:31Z</time>
   </trkpt>
   <trkpt lat="31.9269090" lon="34.9877710">
    <ele>192.8</ele>
    <time>2018-08-18T05:17:33Z</time>
   </trkpt>
   <trkpt lat="31.9268710" lon="34.9878090">
    <ele>192.8</ele>
    <time>2018-08-18T05:17:35Z</time>
   </trkpt>
   <trkpt lat="31.9268340" lon="34.9878430">
    <ele>192.7</ele>
    <time>2018-08-18T05:17:37Z</time>
   </trkpt>
   <trkpt lat="31.9267960" lon="34.9878810">
    <ele>192.7</ele>
    <time>2018-08-18T05:17:39Z</time>
   </trkpt>
   <trkpt lat="31.9267610" lon="34.9879210">
    <ele>192.8</ele>
    <time>2018-08-18T05:17:41Z</time>
   </trkpt>
   <trkpt lat="31.9267300" lon="34.9879600">
    <ele>192.8</ele>
    <time>2018-08-18T05:17:43Z</time>
   </trkpt>
   <trkpt lat="31.9266960" lon="34.9880070">
    <ele>192.8</ele>
    <time>2018-08-18T05:17:45Z</time>
   </trkpt>
   <trkpt lat="31.9266770" lon="34.9880340">
    <ele>192.8</ele>
    <time>2018-08-18T05:17:46Z</time>
   </trkpt>
   <trkpt lat="31.9266430" lon="34.9880830">
    <ele>192.9</ele>
    <time>2018-08-18T05:17:48Z</time>
   </trkpt>
   <trkpt lat="31.9266120" lon="34.9881320">
    <ele>193.0</ele>
    <time>2018-08-18T05:17:50Z</time>
   </trkpt>
   <trkpt lat="31.9265920" lon="34.9881560">
    <ele>193.1</ele>
    <time>2018-08-18T05:17:51Z</time>
   </trkpt>
   <trkpt lat="31.9265620" lon="34.9882070">
    <ele>193.4</ele>
    <time>2018-08-18T05:17:53Z</time>
   </trkpt>
   <trkpt lat="31.9265360" lon="34.9882620">
    <ele>193.6</ele>
    <time>2018-08-18T05:17:55Z</time>
   </trkpt>
   <trkpt lat="31.9265240" lon="34.9882920">
    <ele>193.7</ele>
    <time>2018-08-18T05:17:56Z</time>
   </trkpt>
   <trkpt lat="31.9265110" lon="34.9883220">
    <ele>193.7</ele>
    <time>2018-08-18T05:17:57Z</time>
   </trkpt>
   <trkpt lat="31.9265000" lon="34.9883560">
    <ele>193.8</ele>
    <time>2018-08-18T05:17:58Z</time>
   </trkpt>
   <trkpt lat="31.9264880" lon="34.9883890">
    <ele>193.8</ele>
    <time>2018-08-18T05:17:59Z</time>
   </trkpt>
   <trkpt lat="31.9264740" lon="34.9884210">
    <ele>193.8</ele>
    <time>2018-08-18T05:18:00Z</time>
   </trkpt>
   <trkpt lat="31.9264630" lon="34.9884510">
    <ele>193.8</ele>
    <time>2018-08-18T05:18:01Z</time>
   </trkpt>
   <trkpt lat="31.9264390" lon="34.9885080">
    <ele>193.9</ele>
    <time>2018-08-18T05:18:03Z</time>
   </trkpt>
   <trkpt lat="31.9264260" lon="34.9885400">
    <ele>193.9</ele>
    <time>2018-08-18T05:18:04Z</time>
   </trkpt>
   <trkpt lat="31.9264120" lon="34.9885710">
    <ele>193.9</ele>
    <time>2018-08-18T05:18:05Z</time>
   </trkpt>
   <trkpt lat="31.9263980" lon="34.9886040">
    <ele>193.9</ele>
    <time>2018-08-18T05:18:06Z</time>
   </trkpt>
   <trkpt lat="31.9263830" lon="34.9886370">
    <ele>193.9</ele>
    <time>2018-08-18T05:18:07Z</time>
   </trkpt>
   <trkpt lat="31.9263710" lon="34.9886670">
    <ele>193.9</ele>
    <time>2018-08-18T05:18:08Z</time>
   </trkpt>
   <trkpt lat="31.9263590" lon="34.9887000">
    <ele>193.9</ele>
    <time>2018-08-18T05:18:09Z</time>
   </trkpt>
   <trkpt lat="31.9263470" lon="34.9887340">
    <ele>194.0</ele>
    <time>2018-08-18T05:18:10Z</time>
   </trkpt>
   <trkpt lat="31.9263350" lon="34.9887650">
    <ele>194.0</ele>
    <time>2018-08-18T05:18:11Z</time>
   </trkpt>
   <trkpt lat="31.9263240" lon="34.9887960">
    <ele>194.0</ele>
    <time>2018-08-18T05:18:12Z</time>
   </trkpt>
   <trkpt lat="31.9263120" lon="34.9888280">
    <ele>194.0</ele>
    <time>2018-08-18T05:18:13Z</time>
   </trkpt>
   <trkpt lat="31.9263030" lon="34.9888600">
    <ele>194.1</ele>
    <time>2018-08-18T05:18:14Z</time>
   </trkpt>
   <trkpt lat="31.9262930" lon="34.9888950">
    <ele>194.1</ele>
    <time>2018-08-18T05:18:15Z</time>
   </trkpt>
   <trkpt lat="31.9262810" lon="34.9889240">
    <ele>194.1</ele>
    <time>2018-08-18T05:18:16Z</time>
   </trkpt>
   <trkpt lat="31.9262680" lon="34.9889520">
    <ele>194.1</ele>
    <time>2018-08-18T05:18:17Z</time>
   </trkpt>
   <trkpt lat="31.9262580" lon="34.9889820">
    <ele>194.3</ele>
    <time>2018-08-18T05:18:18Z</time>
   </trkpt>
   <trkpt lat="31.9262490" lon="34.9890150">
    <ele>194.4</ele>
    <time>2018-08-18T05:18:19Z</time>
   </trkpt>
   <trkpt lat="31.9262390" lon="34.9890470">
    <ele>194.5</ele>
    <time>2018-08-18T05:18:20Z</time>
   </trkpt>
   <trkpt lat="31.9262260" lon="34.9890800">
    <ele>194.7</ele>
    <time>2018-08-18T05:18:21Z</time>
   </trkpt>
   <trkpt lat="31.9262130" lon="34.9891150">
    <ele>194.8</ele>
    <time>2018-08-18T05:18:22Z</time>
   </trkpt>
   <trkpt lat="31.9261990" lon="34.9891480">
    <ele>194.9</ele>
    <time>2018-08-18T05:18:23Z</time>
   </trkpt>
   <trkpt lat="31.9261800" lon="34.9891850">
    <ele>194.9</ele>
    <time>2018-08-18T05:18:24Z</time>
   </trkpt>
   <trkpt lat="31.9261630" lon="34.9892170">
    <ele>194.9</ele>
    <time>2018-08-18T05:18:25Z</time>
   </trkpt>
   <trkpt lat="31.9261490" lon="34.9892570">
    <ele>195.0</ele>
    <time>2018-08-18T05:18:26Z</time>
   </trkpt>
   <trkpt lat="31.9261370" lon="34.9892910">
    <ele>195.0</ele>
    <time>2018-08-18T05:18:27Z</time>
   </trkpt>
   <trkpt lat="31.9261270" lon="34.9893290">
    <ele>195.0</ele>
    <time>2018-08-18T05:18:28Z</time>
   </trkpt>
   <trkpt lat="31.9261170" lon="34.9893660">
    <ele>195.1</ele>
    <time>2018-08-18T05:18:29Z</time>
   </trkpt>
   <trkpt lat="31.9261060" lon="34.9893980">
    <ele>195.1</ele>
    <time>2018-08-18T05:18:30Z</time>
   </trkpt>
   <trkpt lat="31.9260960" lon="34.9894300">
    <ele>195.1</ele>
    <time>2018-08-18T05:18:31Z</time>
   </trkpt>
   <trkpt lat="31.9260860" lon="34.9894650">
    <ele>195.1</ele>
    <time>2018-08-18T05:18:32Z</time>
   </trkpt>
   <trkpt lat="31.9260760" lon="34.9894950">
    <ele>195.2</ele>
    <time>2018-08-18T05:18:33Z</time>
   </trkpt>
   <trkpt lat="31.9260660" lon="34.9895290">
    <ele>195.2</ele>
    <time>2018-08-18T05:18:34Z</time>
   </trkpt>
   <trkpt lat="31.9260570" lon="34.9895620">
    <ele>195.2</ele>
    <time>2018-08-18T05:18:35Z</time>
   </trkpt>
   <trkpt lat="31.9260470" lon="34.9895940">
    <ele>195.2</ele>
    <time>2018-08-18T05:18:36Z</time>
   </trkpt>
   <trkpt lat="31.9260380" lon="34.9896290">
    <ele>195.3</ele>
    <time>2018-08-18T05:18:37Z</time>
   </trkpt>
   <trkpt lat="31.9260280" lon="34.9896630">
    <ele>195.3</ele>
    <time>2018-08-18T05:18:38Z</time>
   </trkpt>
   <trkpt lat="31.9259980" lon="34.9897130">
    <ele>195.5</ele>
    <time>2018-08-18T05:18:40Z</time>
   </trkpt>
   <trkpt lat="31.9259780" lon="34.9897670">
    <ele>195.6</ele>
    <time>2018-08-18T05:18:42Z</time>
   </trkpt>
   <trkpt lat="31.9259620" lon="34.9898280">
    <ele>196.0</ele>
    <time>2018-08-18T05:18:44Z</time>
   </trkpt>
   <trkpt lat="31.9259530" lon="34.9898620">
    <ele>196.1</ele>
    <time>2018-08-18T05:18:45Z</time>
   </trkpt>
   <trkpt lat="31.9259460" lon="34.9898980">
    <ele>196.1</ele>
    <time>2018-08-18T05:18:46Z</time>
   </trkpt>
   <trkpt lat="31.9259400" lon="34.9899320">
    <ele>196.2</ele>
    <time>2018-08-18T05:18:47Z</time>
   </trkpt>
   <trkpt lat="31.9259370" lon="34.9899650">
    <ele>196.2</ele>
    <time>2018-08-18T05:18:48Z</time>
   </trkpt>
   <trkpt lat="31.9259280" lon="34.9900280">
    <ele>196.2</ele>
    <time>2018-08-18T05:18:50Z</time>
   </trkpt>
   <trkpt lat="31.9259240" lon="34.9900620">
    <ele>196.2</ele>
    <time>2018-08-18T05:18:51Z</time>
   </trkpt>
   <trkpt lat="31.9259200" lon="34.9900970">
    <ele>196.2</ele>
    <time>2018-08-18T05:18:52Z</time>
   </trkpt>
   <trkpt lat="31.9259090" lon="34.9901620">
    <ele>196.1</ele>
    <time>2018-08-18T05:18:54Z</time>
   </trkpt>
   <trkpt lat="31.9259080" lon="34.9902010">
    <ele>196.1</ele>
    <time>2018-08-18T05:18:55Z</time>
   </trkpt>
   <trkpt lat="31.9259090" lon="34.9902560">
    <ele>196.1</ele>
    <time>2018-08-18T05:18:57Z</time>
   </trkpt>
   <trkpt lat="31.9259130" lon="34.9903030">
    <ele>196.1</ele>
    <time>2018-08-18T05:18:59Z</time>
   </trkpt>
   <trkpt lat="31.9259060" lon="34.9903640">
    <ele>196.0</ele>
    <time>2018-08-18T05:19:01Z</time>
   </trkpt>
   <trkpt lat="31.9259040" lon="34.9903980">
    <ele>196.0</ele>
    <time>2018-08-18T05:19:02Z</time>
   </trkpt>
   <trkpt lat="31.9259000" lon="34.9904350">
    <ele>196.2</ele>
    <time>2018-08-18T05:19:03Z</time>
   </trkpt>
   <trkpt lat="31.9258960" lon="34.9904700">
    <ele>196.4</ele>
    <time>2018-08-18T05:19:04Z</time>
   </trkpt>
   <trkpt lat="31.9258930" lon="34.9905030">
    <ele>196.5</ele>
    <time>2018-08-18T05:19:05Z</time>
   </trkpt>
   <trkpt lat="31.9258840" lon="34.9905350">
    <ele>196.7</ele>
    <time>2018-08-18T05:19:06Z</time>
   </trkpt>
   <trkpt lat="31.9258710" lon="34.9905980">
    <ele>197.0</ele>
    <time>2018-08-18T05:19:08Z</time>
   </trkpt>
   <trkpt lat="31.9258670" lon="34.9906310">
    <ele>197.2</ele>
    <time>2018-08-18T05:19:09Z</time>
   </trkpt>
   <trkpt lat="31.9258680" lon="34.9906690">
    <ele>197.4</ele>
    <time>2018-08-18T05:19:10Z</time>
   </trkpt>
   <trkpt lat="31.9258760" lon="34.9907110">
    <ele>198.1</ele>
    <time>2018-08-18T05:19:11Z</time>
   </trkpt>
   <trkpt lat="31.9258870" lon="34.9907510">
    <ele>198.1</ele>
    <time>2018-08-18T05:19:12Z</time>
   </trkpt>
   <trkpt lat="31.9259010" lon="34.9907900">
    <ele>198.1</ele>
    <time>2018-08-18T05:19:13Z</time>
   </trkpt>
   <trkpt lat="31.9259180" lon="34.9908280">
    <ele>198.1</ele>
    <time>2018-08-18T05:19:14Z</time>
   </trkpt>
   <trkpt lat="31.9259320" lon="34.9908560">
    <ele>198.1</ele>
    <time>2018-08-18T05:19:15Z</time>
   </trkpt>
   <trkpt lat="31.9259480" lon="34.9908840">
    <ele>198.0</ele>
    <time>2018-08-18T05:19:16Z</time>
   </trkpt>
   <trkpt lat="31.9259670" lon="34.9909080">
    <ele>198.0</ele>
    <time>2018-08-18T05:19:17Z</time>
   </trkpt>
   <trkpt lat="31.9259930" lon="34.9909250">
    <ele>198.0</ele>
    <time>2018-08-18T05:19:18Z</time>
   </trkpt>
   <trkpt lat="31.9260290" lon="34.9909710">
    <ele>197.9</ele>
    <time>2018-08-18T05:19:20Z</time>
   </trkpt>
   <trkpt lat="31.9260600" lon="34.9910120">
    <ele>197.8</ele>
    <time>2018-08-18T05:19:22Z</time>
   </trkpt>
   <trkpt lat="31.9260910" lon="34.9910500">
    <ele>197.8</ele>
    <time>2018-08-18T05:19:24Z</time>
   </trkpt>
   <trkpt lat="31.9261130" lon="34.9911020">
    <ele>197.8</ele>
    <time>2018-08-18T05:19:26Z</time>
   </trkpt>
   <trkpt lat="31.9261500" lon="34.9911450">
    <ele>197.8</ele>
    <time>2018-08-18T05:19:28Z</time>
   </trkpt>
   <trkpt lat="31.9261730" lon="34.9911910">
    <ele>197.8</ele>
    <time>2018-08-18T05:19:30Z</time>
   </trkpt>
   <trkpt lat="31.9262050" lon="34.9912340">
    <ele>197.8</ele>
    <time>2018-08-18T05:19:32Z</time>
   </trkpt>
   <trkpt lat="31.9262340" lon="34.9912790">
    <ele>197.9</ele>
    <time>2018-08-18T05:19:34Z</time>
   </trkpt>
   <trkpt lat="31.9262520" lon="34.9913190">
    <ele>197.9</ele>
    <time>2018-08-18T05:19:36Z</time>
   </trkpt>
   <trkpt lat="31.9262830" lon="34.9913620">
    <ele>197.9</ele>
    <time>2018-08-18T05:19:38Z</time>
   </trkpt>
   <trkpt lat="31.9263140" lon="34.9913910">
    <ele>197.9</ele>
    <time>2018-08-18T05:19:40Z</time>
   </trkpt>
   <trkpt lat="31.9263470" lon="34.9914330">
    <ele>197.9</ele>
    <time>2018-08-18T05:19:42Z</time>
   </trkpt>
   <trkpt lat="31.9263850" lon="34.9914690">
    <ele>197.9</ele>
    <time>2018-08-18T05:19:44Z</time>
   </trkpt>
   <trkpt lat="31.9264350" lon="34.9915020">
    <ele>197.8</ele>
    <time>2018-08-18T05:19:46Z</time>
   </trkpt>
   <trkpt lat="31.9264680" lon="34.9915210">
    <ele>197.8</ele>
    <time>2018-08-18T05:19:47Z</time>
   </trkpt>
   <trkpt lat="31.9264970" lon="34.9915370">
    <ele>197.8</ele>
    <time>2018-08-18T05:19:48Z</time>
   </trkpt>
   <trkpt lat="31.9265270" lon="34.9915510">
    <ele>197.8</ele>
    <time>2018-08-18T05:19:49Z</time>
   </trkpt>
   <trkpt lat="31.9265610" lon="34.9915700">
    <ele>197.8</ele>
    <time>2018-08-18T05:19:50Z</time>
   </trkpt>
   <trkpt lat="31.9265940" lon="34.9915860">
    <ele>197.9</ele>
    <time>2018-08-18T05:19:51Z</time>
   </trkpt>
   <trkpt lat="31.9266220" lon="34.9915960">
    <ele>197.9</ele>
    <time>2018-08-18T05:19:52Z</time>
   </trkpt>
   <trkpt lat="31.9266480" lon="34.9916070">
    <ele>198.0</ele>
    <time>2018-08-18T05:19:53Z</time>
   </trkpt>
   <trkpt lat="31.9266740" lon="34.9916170">
    <ele>198.0</ele>
    <time>2018-08-18T05:19:54Z</time>
   </trkpt>
   <trkpt lat="31.9267020" lon="34.9916280">
    <ele>198.6</ele>
    <time>2018-08-18T05:19:55Z</time>
   </trkpt>
   <trkpt lat="31.9267330" lon="34.9916370">
    <ele>198.4</ele>
    <time>2018-08-18T05:19:56Z</time>
   </trkpt>
   <trkpt lat="31.9267650" lon="34.9916420">
    <ele>198.0</ele>
    <time>2018-08-18T05:19:57Z</time>
   </trkpt>
   <trkpt lat="31.9267940" lon="34.9916520">
    <ele>197.6</ele>
    <time>2018-08-18T05:19:58Z</time>
   </trkpt>
   <trkpt lat="31.9268200" lon="34.9916650">
    <ele>197.2</ele>
    <time>2018-08-18T05:19:59Z</time>
   </trkpt>
   <trkpt lat="31.9268730" lon="34.9916840">
    <ele>197.3</ele>
    <time>2018-08-18T05:20:01Z</time>
   </trkpt>
   <trkpt lat="31.9269010" lon="34.9916980">
    <ele>197.0</ele>
    <time>2018-08-18T05:20:02Z</time>
   </trkpt>
   <trkpt lat="31.9269290" lon="34.9917100">
    <ele>196.8</ele>
    <time>2018-08-18T05:20:03Z</time>
   </trkpt>
   <trkpt lat="31.9269550" lon="34.9917230">
    <ele>197.4</ele>
    <time>2018-08-18T05:20:04Z</time>
   </trkpt>
   <trkpt lat="31.9269840" lon="34.9917370">
    <ele>197.3</ele>
    <time>2018-08-18T05:20:05Z</time>
   </trkpt>
   <trkpt lat="31.9270260" lon="34.9917570">
    <ele>197.9</ele>
    <time>2018-08-18T05:20:07Z</time>
   </trkpt>
   <trkpt lat="31.9270730" lon="34.9917820">
    <ele>198.0</ele>
    <time>2018-08-18T05:20:09Z</time>
   </trkpt>
   <trkpt lat="31.9271040" lon="34.9917990">
    <ele>198.6</ele>
    <time>2018-08-18T05:20:10Z</time>
   </trkpt>
   <trkpt lat="31.9271500" lon="34.9918280">
    <ele>198.5</ele>
    <time>2018-08-18T05:20:12Z</time>
   </trkpt>
   <trkpt lat="31.9271740" lon="34.9918450">
    <ele>198.8</ele>
    <time>2018-08-18T05:20:13Z</time>
   </trkpt>
   <trkpt lat="31.9272000" lon="34.9918660">
    <ele>199.0</ele>
    <time>2018-08-18T05:20:14Z</time>
   </trkpt>
   <trkpt lat="31.9272460" lon="34.9918930">
    <ele>199.6</ele>
    <time>2018-08-18T05:20:16Z</time>
   </trkpt>
   <trkpt lat="31.9272700" lon="34.9919090">
    <ele>199.8</ele>
    <time>2018-08-18T05:20:17Z</time>
   </trkpt>
   <trkpt lat="31.9272910" lon="34.9919330">
    <ele>200.0</ele>
    <time>2018-08-18T05:20:18Z</time>
   </trkpt>
   <trkpt lat="31.9273340" lon="34.9919700">
    <ele>200.1</ele>
    <time>2018-08-18T05:20:20Z</time>
   </trkpt>
   <trkpt lat="31.9273600" lon="34.9919860">
    <ele>200.2</ele>
    <time>2018-08-18T05:20:21Z</time>
   </trkpt>
   <trkpt lat="31.9273840" lon="34.9920040">
    <ele>200.3</ele>
    <time>2018-08-18T05:20:22Z</time>
   </trkpt>
   <trkpt lat="31.9274060" lon="34.9920230">
    <ele>200.3</ele>
    <time>2018-08-18T05:20:23Z</time>
   </trkpt>
   <trkpt lat="31.9274470" lon="34.9920510">
    <ele>200.4</ele>
    <time>2018-08-18T05:20:25Z</time>
   </trkpt>
   <trkpt lat="31.9274930" lon="34.9920760">
    <ele>200.7</ele>
    <time>2018-08-18T05:20:27Z</time>
   </trkpt>
   <trkpt lat="31.9275190" lon="34.9920850">
    <ele>200.7</ele>
    <time>2018-08-18T05:20:28Z</time>
   </trkpt>
   <trkpt lat="31.9275490" lon="34.9920960">
    <ele>200.8</ele>
    <time>2018-08-18T05:20:29Z</time>
   </trkpt>
   <trkpt lat="31.9275980" lon="34.9921180">
    <ele>201.1</ele>
    <time>2018-08-18T05:20:31Z</time>
   </trkpt>
   <trkpt lat="31.9276360" lon="34.9921260">
    <ele>201.3</ele>
    <time>2018-08-18T05:20:33Z</time>
   </trkpt>
   <trkpt lat="31.9276820" lon="34.9921370">
    <ele>201.6</ele>
    <time>2018-08-18T05:20:35Z</time>
   </trkpt>
   <trkpt lat="31.9277280" lon="34.9921480">
    <ele>202.5</ele>
    <time>2018-08-18T05:20:37Z</time>
   </trkpt>
   <trkpt lat="31.9277780" lon="34.9921610">
    <ele>202.7</ele>
    <time>2018-08-18T05:20:39Z</time>
   </trkpt>
   <trkpt lat="31.9278240" lon="34.9921730">
    <ele>203.0</ele>
    <time>2018-08-18T05:20:41Z</time>
   </trkpt>
   <trkpt lat="31.9278750" lon="34.9921710">
    <ele>203.4</ele>
    <time>2018-08-18T05:20:43Z</time>
   </trkpt>
   <trkpt lat="31.9279240" lon="34.9921730">
    <ele>203.6</ele>
    <time>2018-08-18T05:20:45Z</time>
   </trkpt>
   <trkpt lat="31.9279680" lon="34.9921710">
    <ele>203.7</ele>
    <time>2018-08-18T05:20:47Z</time>
   </trkpt>
   <trkpt lat="31.9280080" lon="34.9921680">
    <ele>203.9</ele>
    <time>2018-08-18T05:20:49Z</time>
   </trkpt>
   <trkpt lat="31.9280540" lon="34.9921680">
    <ele>204.0</ele>
    <time>2018-08-18T05:20:51Z</time>
   </trkpt>
   <trkpt lat="31.9281040" lon="34.9921670">
    <ele>204.1</ele>
    <time>2018-08-18T05:20:53Z</time>
   </trkpt>
   <trkpt lat="31.9281500" lon="34.9921680">
    <ele>204.2</ele>
    <time>2018-08-18T05:20:55Z</time>
   </trkpt>
   <trkpt lat="31.9281770" lon="34.9921780">
    <ele>204.3</ele>
    <time>2018-08-18T05:20:56Z</time>
   </trkpt>
   <trkpt lat="31.9282230" lon="34.9921930">
    <ele>204.7</ele>
    <time>2018-08-18T05:20:58Z</time>
   </trkpt>
   <trkpt lat="31.9282600" lon="34.9922030">
    <ele>205.0</ele>
    <time>2018-08-18T05:21:00Z</time>
   </trkpt>
   <trkpt lat="31.9283070" lon="34.9922180">
    <ele>205.3</ele>
    <time>2018-08-18T05:21:02Z</time>
   </trkpt>
   <trkpt lat="31.9283500" lon="34.9922300">
    <ele>206.3</ele>
    <time>2018-08-18T05:21:04Z</time>
   </trkpt>
   <trkpt lat="31.9283930" lon="34.9922460">
    <ele>206.7</ele>
    <time>2018-08-18T05:21:06Z</time>
   </trkpt>
   <trkpt lat="31.9284400" lon="34.9922560">
    <ele>207.0</ele>
    <time>2018-08-18T05:21:08Z</time>
   </trkpt>
   <trkpt lat="31.9284840" lon="34.9922600">
    <ele>207.3</ele>
    <time>2018-08-18T05:21:10Z</time>
   </trkpt>
   <trkpt lat="31.9285250" lon="34.9922560">
    <ele>207.6</ele>
    <time>2018-08-18T05:21:12Z</time>
   </trkpt>
   <trkpt lat="31.9285730" lon="34.9922500">
    <ele>208.2</ele>
    <time>2018-08-18T05:21:14Z</time>
   </trkpt>
   <trkpt lat="31.9286160" lon="34.9922400">
    <ele>208.5</ele>
    <time>2018-08-18T05:21:16Z</time>
   </trkpt>
   <trkpt lat="31.9286640" lon="34.9922260">
    <ele>208.4</ele>
    <time>2018-08-18T05:21:18Z</time>
   </trkpt>
   <trkpt lat="31.9287120" lon="34.9922150">
    <ele>208.9</ele>
    <time>2018-08-18T05:21:20Z</time>
   </trkpt>
   <trkpt lat="31.9287400" lon="34.9922090">
    <ele>209.0</ele>
    <time>2018-08-18T05:21:21Z</time>
   </trkpt>
   <trkpt lat="31.9287680" lon="34.9922050">
    <ele>209.3</ele>
    <time>2018-08-18T05:21:22Z</time>
   </trkpt>
   <trkpt lat="31.9287950" lon="34.9921940">
    <ele>209.8</ele>
    <time>2018-08-18T05:21:23Z</time>
   </trkpt>
   <trkpt lat="31.9288210" lon="34.9921810">
    <ele>210.1</ele>
    <time>2018-08-18T05:21:24Z</time>
   </trkpt>
   <trkpt lat="31.9288670" lon="34.9921580">
    <ele>210.7</ele>
    <time>2018-08-18T05:21:26Z</time>
   </trkpt>
   <trkpt lat="31.9289170" lon="34.9921370">
    <ele>211.0</ele>
    <time>2018-08-18T05:21:28Z</time>
   </trkpt>
   <trkpt lat="31.9289650" lon="34.9921190">
    <ele>211.8</ele>
    <time>2018-08-18T05:21:30Z</time>
   </trkpt>
   <trkpt lat="31.9290160" lon="34.9920940">
    <ele>211.9</ele>
    <time>2018-08-18T05:21:32Z</time>
   </trkpt>
   <trkpt lat="31.9290710" lon="34.9920900">
    <ele>212.2</ele>
    <time>2018-08-18T05:21:34Z</time>
   </trkpt>
   <trkpt lat="31.9291000" lon="34.9920750">
    <ele>212.6</ele>
    <time>2018-08-18T05:21:35Z</time>
   </trkpt>
   <trkpt lat="31.9291280" lon="34.9920650">
    <ele>212.9</ele>
    <time>2018-08-18T05:21:36Z</time>
   </trkpt>
   <trkpt lat="31.9291560" lon="34.9920530">
    <ele>212.8</ele>
    <time>2018-08-18T05:21:37Z</time>
   </trkpt>
   <trkpt lat="31.9291840" lon="34.9920430">
    <ele>213.1</ele>
    <time>2018-08-18T05:21:38Z</time>
   </trkpt>
   <trkpt lat="31.9292120" lon="34.9920350">
    <ele>213.1</ele>
    <time>2018-08-18T05:21:39Z</time>
   </trkpt>
   <trkpt lat="31.9292400" lon="34.9920290">
    <ele>213.5</ele>
    <time>2018-08-18T05:21:40Z</time>
   </trkpt>
   <trkpt lat="31.9292670" lon="34.9920140">
    <ele>213.8</ele>
    <time>2018-08-18T05:21:41Z</time>
   </trkpt>
   <trkpt lat="31.9292880" lon="34.9919900">
    <ele>213.6</ele>
    <time>2018-08-18T05:21:42Z</time>
   </trkpt>
   <trkpt lat="31.9293120" lon="34.9919720">
    <ele>213.9</ele>
    <time>2018-08-18T05:21:43Z</time>
   </trkpt>
   <trkpt lat="31.9293390" lon="34.9919610">
    <ele>214.0</ele>
    <time>2018-08-18T05:21:44Z</time>
   </trkpt>
   <trkpt lat="31.9293890" lon="34.9919350">
    <ele>214.3</ele>
    <time>2018-08-18T05:21:46Z</time>
   </trkpt>
   <trkpt lat="31.9294120" lon="34.9919160">
    <ele>214.4</ele>
    <time>2018-08-18T05:21:47Z</time>
   </trkpt>
   <trkpt lat="31.9294380" lon="34.9919030">
    <ele>214.7</ele>
    <time>2018-08-18T05:21:48Z</time>
   </trkpt>
   <trkpt lat="31.9294850" lon="34.9918730">
    <ele>214.8</ele>
    <time>2018-08-18T05:21:50Z</time>
   </trkpt>
   <trkpt lat="31.9295340" lon="34.9918550">
    <ele>215.1</ele>
    <time>2018-08-18T05:21:52Z</time>
   </trkpt>
   <trkpt lat="31.9295790" lon="34.9918440">
    <ele>215.4</ele>
    <time>2018-08-18T05:21:54Z</time>
   </trkpt>
   <trkpt lat="31.9296210" lon="34.9918330">
    <ele>215.8</ele>
    <time>2018-08-18T05:21:56Z</time>
   </trkpt>
   <trkpt lat="31.9296650" lon="34.9918310">
    <ele>216.0</ele>
    <time>2018-08-18T05:21:58Z</time>
   </trkpt>
   <trkpt lat="31.9297050" lon="34.9918390">
    <ele>216.3</ele>
    <time>2018-08-18T05:22:00Z</time>
   </trkpt>
   <trkpt lat="31.9297440" lon="34.9918390">
    <ele>216.7</ele>
    <time>2018-08-18T05:22:02Z</time>
   </trkpt>
   <trkpt lat="31.9297880" lon="34.9918380">
    <ele>217.0</ele>
    <time>2018-08-18T05:22:04Z</time>
   </trkpt>
   <trkpt lat="31.9298300" lon="34.9918390">
    <ele>217.3</ele>
    <time>2018-08-18T05:22:06Z</time>
   </trkpt>
   <trkpt lat="31.9298680" lon="34.9918370">
    <ele>217.6</ele>
    <time>2018-08-18T05:22:08Z</time>
   </trkpt>
   <trkpt lat="31.9299100" lon="34.9918350">
    <ele>217.9</ele>
    <time>2018-08-18T05:22:10Z</time>
   </trkpt>
   <trkpt lat="31.9299450" lon="34.9918330">
    <ele>218.3</ele>
    <time>2018-08-18T05:22:12Z</time>
   </trkpt>
   <trkpt lat="31.9299870" lon="34.9918320">
    <ele>218.5</ele>
    <time>2018-08-18T05:22:14Z</time>
   </trkpt>
   <trkpt lat="31.9300250" lon="34.9918320">
    <ele>218.5</ele>
    <time>2018-08-18T05:22:16Z</time>
   </trkpt>
   <trkpt lat="31.9300700" lon="34.9918280">
    <ele>218.6</ele>
    <time>2018-08-18T05:22:18Z</time>
   </trkpt>
   <trkpt lat="31.9301110" lon="34.9918200">
    <ele>218.7</ele>
    <time>2018-08-18T05:22:20Z</time>
   </trkpt>
   <trkpt lat="31.9301500" lon="34.9918090">
    <ele>218.7</ele>
    <time>2018-08-18T05:22:22Z</time>
   </trkpt>
   <trkpt lat="31.9301930" lon="34.9918070">
    <ele>218.8</ele>
    <time>2018-08-18T05:22:24Z</time>
   </trkpt>
   <trkpt lat="31.9302300" lon="34.9918000">
    <ele>218.9</ele>
    <time>2018-08-18T05:22:26Z</time>
   </trkpt>
   <trkpt lat="31.9302700" lon="34.9917940">
    <ele>218.7</ele>
    <time>2018-08-18T05:22:28Z</time>
   </trkpt>
   <trkpt lat="31.9303080" lon="34.9917860">
    <ele>218.8</ele>
    <time>2018-08-18T05:22:30Z</time>
   </trkpt>
   <trkpt lat="31.9303540" lon="34.9917830">
    <ele>218.8</ele>
    <time>2018-08-18T05:22:32Z</time>
   </trkpt>
   <trkpt lat="31.9303900" lon="34.9917690">
    <ele>218.9</ele>
    <time>2018-08-18T05:22:34Z</time>
   </trkpt>
   <trkpt lat="31.9304260" lon="34.9917710">
    <ele>219.0</ele>
    <time>2018-08-18T05:22:36Z</time>
   </trkpt>
   <trkpt lat="31.9304550" lon="34.9917690">
    <ele>219.0</ele>
    <time>2018-08-18T05:22:37Z</time>
   </trkpt>
   <trkpt lat="31.9305010" lon="34.9917650">
    <ele>219.1</ele>
    <time>2018-08-18T05:22:39Z</time>
   </trkpt>
   <trkpt lat="31.9305470" lon="34.9917600">
    <ele>219.1</ele>
    <time>2018-08-18T05:22:41Z</time>
   </trkpt>
   <trkpt lat="31.9305890" lon="34.9917580">
    <ele>219.1</ele>
    <time>2018-08-18T05:22:43Z</time>
   </trkpt>
   <trkpt lat="31.9306280" lon="34.9917540">
    <ele>218.9</ele>
    <time>2018-08-18T05:22:45Z</time>
   </trkpt>
   <trkpt lat="31.9306740" lon="34.9917490">
    <ele>219.0</ele>
    <time>2018-08-18T05:22:47Z</time>
   </trkpt>
   <trkpt lat="31.9307180" lon="34.9917380">
    <ele>218.7</ele>
    <time>2018-08-18T05:22:49Z</time>
   </trkpt>
   <trkpt lat="31.9307640" lon="34.9917160">
    <ele>218.6</ele>
    <time>2018-08-18T05:22:51Z</time>
   </trkpt>
   <trkpt lat="31.9308090" lon="34.9916950">
    <ele>218.3</ele>
    <time>2018-08-18T05:22:53Z</time>
   </trkpt>
   <trkpt lat="31.9308530" lon="34.9916680">
    <ele>218.4</ele>
    <time>2018-08-18T05:22:55Z</time>
   </trkpt>
   <trkpt lat="31.9308980" lon="34.9916420">
    <ele>218.0</ele>
    <time>2018-08-18T05:22:57Z</time>
   </trkpt>
   <trkpt lat="31.9309230" lon="34.9916280">
    <ele>218.0</ele>
    <time>2018-08-18T05:22:58Z</time>
   </trkpt>
   <trkpt lat="31.9309680" lon="34.9915940">
    <ele>218.0</ele>
    <time>2018-08-18T05:23:00Z</time>
   </trkpt>
   <trkpt lat="31.9309940" lon="34.9915760">
    <ele>218.3</ele>
    <time>2018-08-18T05:23:01Z</time>
   </trkpt>
   <trkpt lat="31.9310200" lon="34.9915570">
    <ele>218.3</ele>
    <time>2018-08-18T05:23:02Z</time>
   </trkpt>
   <trkpt lat="31.9310430" lon="34.9915370">
    <ele>218.7</ele>
    <time>2018-08-18T05:23:03Z</time>
   </trkpt>
   <trkpt lat="31.9310860" lon="34.9915010">
    <ele>218.7</ele>
    <time>2018-08-18T05:23:05Z</time>
   </trkpt>
   <trkpt lat="31.9311310" lon="34.9914670">
    <ele>219.0</ele>
    <time>2018-08-18T05:23:07Z</time>
   </trkpt>
   <trkpt lat="31.9311760" lon="34.9914400">
    <ele>219.4</ele>
    <time>2018-08-18T05:23:09Z</time>
   </trkpt>
   <trkpt lat="31.9312170" lon="34.9914120">
    <ele>219.8</ele>
    <time>2018-08-18T05:23:11Z</time>
   </trkpt>
   <trkpt lat="31.9312650" lon="34.9913800">
    <ele>219.9</ele>
    <time>2018-08-18T05:23:13Z</time>
   </trkpt>
   <trkpt lat="31.9313100" lon="34.9913510">
    <ele>220.4</ele>
    <time>2018-08-18T05:23:15Z</time>
   </trkpt>
   <trkpt lat="31.9313340" lon="34.9913300">
    <ele>220.4</ele>
    <time>2018-08-18T05:23:16Z</time>
   </trkpt>
   <trkpt lat="31.9313500" lon="34.9912860">
    <ele>220.8</ele>
    <time>2018-08-18T05:23:18Z</time>
   </trkpt>
   <trkpt lat="31.9313390" lon="34.9912260">
    <ele>221.6</ele>
    <time>2018-08-18T05:23:20Z</time>
   </trkpt>
   <trkpt lat="31.9313340" lon="34.9911940">
    <ele>222.0</ele>
    <time>2018-08-18T05:23:21Z</time>
   </trkpt>
   <trkpt lat="31.9313280" lon="34.9911590">
    <ele>222.3</ele>
    <time>2018-08-18T05:23:22Z</time>
   </trkpt>
   <trkpt lat="31.9313310" lon="34.9911210">
    <ele>222.7</ele>
    <time>2018-08-18T05:23:23Z</time>
   </trkpt>
   <trkpt lat="31.9313460" lon="34.9910890">
    <ele>223.0</ele>
    <time>2018-08-18T05:23:24Z</time>
   </trkpt>
   <trkpt lat="31.9313640" lon="34.9910580">
    <ele>223.5</ele>
    <time>2018-08-18T05:23:25Z</time>
   </trkpt>
   <trkpt lat="31.9313830" lon="34.9910280">
    <ele>223.5</ele>
    <time>2018-08-18T05:23:26Z</time>
   </trkpt>
   <trkpt lat="31.9314060" lon="34.9910010">
    <ele>223.8</ele>
    <time>2018-08-18T05:23:27Z</time>
   </trkpt>
   <trkpt lat="31.9314260" lon="34.9909720">
    <ele>224.1</ele>
    <time>2018-08-18T05:23:28Z</time>
   </trkpt>
   <trkpt lat="31.9314560" lon="34.9909210">
    <ele>224.2</ele>
    <time>2018-08-18T05:23:30Z</time>
   </trkpt>
   <trkpt lat="31.9314790" lon="34.9908770">
    <ele>224.3</ele>
    <time>2018-08-18T05:23:32Z</time>
   </trkpt>
   <trkpt lat="31.9315110" lon="34.9908520">
    <ele>224.6</ele>
    <time>2018-08-18T05:23:34Z</time>
   </trkpt>
   <trkpt lat="31.9315430" lon="34.9908230">
    <ele>224.4</ele>
    <time>2018-08-18T05:23:36Z</time>
   </trkpt>
   <trkpt lat="31.9315510" lon="34.9907900">
    <ele>224.6</ele>
    <time>2018-08-18T05:23:39Z</time>
   </trkpt>
   <trkpt lat="31.9315210" lon="34.9907770">
    <ele>224.7</ele>
    <time>2018-08-18T05:23:41Z</time>
   </trkpt>
   <trkpt lat="31.9314820" lon="34.9907820">
    <ele>224.9</ele>
    <time>2018-08-18T05:23:43Z</time>
   </trkpt>
   <trkpt lat="31.9314410" lon="34.9907660">
    <ele>225.1</ele>
    <time>2018-08-18T05:23:45Z</time>
   </trkpt>
   <trkpt lat="31.9314010" lon="34.9907580">
    <ele>225.4</ele>
    <time>2018-08-18T05:23:47Z</time>
   </trkpt>
   <trkpt lat="31.9313520" lon="34.9907530">
    <ele>225.6</ele>
    <time>2018-08-18T05:23:49Z</time>
   </trkpt>
   <trkpt lat="31.9312980" lon="34.9907470">
    <ele>226.0</ele>
    <time>2018-08-18T05:23:51Z</time>
   </trkpt>
   <trkpt lat="31.9312690" lon="34.9907470">
    <ele>226.2</ele>
    <time>2018-08-18T05:23:52Z</time>
   </trkpt>
   <trkpt lat="31.9312130" lon="34.9907510">
    <ele>226.7</ele>
    <time>2018-08-18T05:23:54Z</time>
   </trkpt>
   <trkpt lat="31.9311840" lon="34.9907550">
    <ele>226.8</ele>
    <time>2018-08-18T05:23:55Z</time>
   </trkpt>
   <trkpt lat="31.9311540" lon="34.9907540">
    <ele>227.0</ele>
    <time>2018-08-18T05:23:56Z</time>
   </trkpt>
   <trkpt lat="31.9311240" lon="34.9907550">
    <ele>227.2</ele>
    <time>2018-08-18T05:23:57Z</time>
   </trkpt>
   <trkpt lat="31.9310910" lon="34.9907520">
    <ele>227.3</ele>
    <time>2018-08-18T05:23:58Z</time>
   </trkpt>
   <trkpt lat="31.9310600" lon="34.9907500">
    <ele>227.4</ele>
    <time>2018-08-18T05:23:59Z</time>
   </trkpt>
   <trkpt lat="31.9310300" lon="34.9907470">
    <ele>227.5</ele>
    <time>2018-08-18T05:24:00Z</time>
   </trkpt>
   <trkpt lat="31.9310010" lon="34.9907450">
    <ele>227.5</ele>
    <time>2018-08-18T05:24:01Z</time>
   </trkpt>
   <trkpt lat="31.9309700" lon="34.9907410">
    <ele>227.5</ele>
    <time>2018-08-18T05:24:02Z</time>
   </trkpt>
   <trkpt lat="31.9309410" lon="34.9907310">
    <ele>227.5</ele>
    <time>2018-08-18T05:24:03Z</time>
   </trkpt>
   <trkpt lat="31.9309130" lon="34.9907190">
    <ele>227.4</ele>
    <time>2018-08-18T05:24:04Z</time>
   </trkpt>
   <trkpt lat="31.9308850" lon="34.9907070">
    <ele>227.4</ele>
    <time>2018-08-18T05:24:05Z</time>
   </trkpt>
   <trkpt lat="31.9308580" lon="34.9906970">
    <ele>227.5</ele>
    <time>2018-08-18T05:24:06Z</time>
   </trkpt>
   <trkpt lat="31.9308130" lon="34.9906700">
    <ele>227.6</ele>
    <time>2018-08-18T05:24:08Z</time>
   </trkpt>
   <trkpt lat="31.9307710" lon="34.9906340">
    <ele>227.8</ele>
    <time>2018-08-18T05:24:10Z</time>
   </trkpt>
   <trkpt lat="31.9307340" lon="34.9906050">
    <ele>227.9</ele>
    <time>2018-08-18T05:24:12Z</time>
   </trkpt>
   <trkpt lat="31.9307020" lon="34.9905720">
    <ele>228.2</ele>
    <time>2018-08-18T05:24:14Z</time>
   </trkpt>
   <trkpt lat="31.9306610" lon="34.9905420">
    <ele>228.7</ele>
    <time>2018-08-18T05:24:16Z</time>
   </trkpt>
   <trkpt lat="31.9306250" lon="34.9905040">
    <ele>229.2</ele>
    <time>2018-08-18T05:24:18Z</time>
   </trkpt>
   <trkpt lat="31.9305870" lon="34.9904680">
    <ele>229.5</ele>
    <time>2018-08-18T05:24:20Z</time>
   </trkpt>
   <trkpt lat="31.9305420" lon="34.9904290">
    <ele>229.8</ele>
    <time>2018-08-18T05:24:22Z</time>
   </trkpt>
   <trkpt lat="31.9305230" lon="34.9904060">
    <ele>230.0</ele>
    <time>2018-08-18T05:24:23Z</time>
   </trkpt>
   <trkpt lat="31.9304980" lon="34.9903600">
    <ele>230.2</ele>
    <time>2018-08-18T05:24:25Z</time>
   </trkpt>
   <trkpt lat="31.9304760" lon="34.9903120">
    <ele>230.5</ele>
    <time>2018-08-18T05:24:27Z</time>
   </trkpt>
   <trkpt lat="31.9304600" lon="34.9902590">
    <ele>230.7</ele>
    <time>2018-08-18T05:24:29Z</time>
   </trkpt>
   <trkpt lat="31.9304520" lon="34.9902060">
    <ele>231.0</ele>
    <time>2018-08-18T05:24:31Z</time>
   </trkpt>
   <trkpt lat="31.9304550" lon="34.9901720">
    <ele>231.0</ele>
    <time>2018-08-18T05:24:32Z</time>
   </trkpt>
   <trkpt lat="31.9304600" lon="34.9901360">
    <ele>231.0</ele>
    <time>2018-08-18T05:24:33Z</time>
   </trkpt>
   <trkpt lat="31.9304640" lon="34.9901020">
    <ele>231.0</ele>
    <time>2018-08-18T05:24:34Z</time>
   </trkpt>
   <trkpt lat="31.9304730" lon="34.9900490">
    <ele>230.7</ele>
    <time>2018-08-18T05:24:36Z</time>
   </trkpt>
   <trkpt lat="31.9304700" lon="34.9900180">
    <ele>230.5</ele>
    <time>2018-08-18T05:24:37Z</time>
   </trkpt>
   <trkpt lat="31.9304720" lon="34.9899620">
    <ele>230.3</ele>
    <time>2018-08-18T05:24:39Z</time>
   </trkpt>
   <trkpt lat="31.9304770" lon="34.9899130">
    <ele>230.2</ele>
    <time>2018-08-18T05:24:41Z</time>
   </trkpt>
   <trkpt lat="31.9304740" lon="34.9898770">
    <ele>230.1</ele>
    <time>2018-08-18T05:24:42Z</time>
   </trkpt>
   <trkpt lat="31.9304770" lon="34.9898360">
    <ele>229.9</ele>
    <time>2018-08-18T05:24:43Z</time>
   </trkpt>
   <trkpt lat="31.9304830" lon="34.9897880">
    <ele>229.4</ele>
    <time>2018-08-18T05:24:44Z</time>
   </trkpt>
   <trkpt lat="31.9304850" lon="34.9897530">
    <ele>229.1</ele>
    <time>2018-08-18T05:24:45Z</time>
   </trkpt>
   <trkpt lat="31.9304840" lon="34.9897150">
    <ele>228.7</ele>
    <time>2018-08-18T05:24:46Z</time>
   </trkpt>
   <trkpt lat="31.9304850" lon="34.9896810">
    <ele>228.3</ele>
    <time>2018-08-18T05:24:47Z</time>
   </trkpt>
   <trkpt lat="31.9304820" lon="34.9896230">
    <ele>227.8</ele>
    <time>2018-08-18T05:24:49Z</time>
   </trkpt>
   <trkpt lat="31.9304830" lon="34.9895870">
    <ele>227.5</ele>
    <time>2018-08-18T05:24:50Z</time>
   </trkpt>
   <trkpt lat="31.9304820" lon="34.9895430">
    <ele>227.3</ele>
    <time>2018-08-18T05:24:51Z</time>
   </trkpt>
   <trkpt lat="31.9304850" lon="34.9894990">
    <ele>227.1</ele>
    <time>2018-08-18T05:24:52Z</time>
   </trkpt>
   <trkpt lat="31.9304760" lon="34.9894530">
    <ele>226.7</ele>
    <time>2018-08-18T05:24:53Z</time>
   </trkpt>
   <trkpt lat="31.9304600" lon="34.9894140">
    <ele>226.3</ele>
    <time>2018-08-18T05:24:54Z</time>
   </trkpt>
   <trkpt lat="31.9304370" lon="34.9893670">
    <ele>225.3</ele>
    <time>2018-08-18T05:24:55Z</time>
   </trkpt>
   <trkpt lat="31.9304110" lon="34.9893220">
    <ele>224.4</ele>
    <time>2018-08-18T05:24:56Z</time>
   </trkpt>
   <trkpt lat="31.9303820" lon="34.9892840">
    <ele>223.5</ele>
    <time>2018-08-18T05:24:57Z</time>
   </trkpt>
   <trkpt lat="31.9303590" lon="34.9892510">
    <ele>222.8</ele>
    <time>2018-08-18T05:24:58Z</time>
   </trkpt>
   <trkpt lat="31.9303410" lon="34.9892210">
    <ele>222.0</ele>
    <time>2018-08-18T05:24:59Z</time>
   </trkpt>
   <trkpt lat="31.9303230" lon="34.9891840">
    <ele>221.1</ele>
    <time>2018-08-18T05:25:00Z</time>
   </trkpt>
   <trkpt lat="31.9303030" lon="34.9891460">
    <ele>220.0</ele>
    <time>2018-08-18T05:25:01Z</time>
   </trkpt>
   <trkpt lat="31.9302850" lon="34.9891140">
    <ele>218.9</ele>
    <time>2018-08-18T05:25:02Z</time>
   </trkpt>
   <trkpt lat="31.9302670" lon="34.9890820">
    <ele>217.9</ele>
    <time>2018-08-18T05:25:03Z</time>
   </trkpt>
   <trkpt lat="31.9302580" lon="34.9890480">
    <ele>216.3</ele>
    <time>2018-08-18T05:25:04Z</time>
   </trkpt>
   <trkpt lat="31.9302440" lon="34.9890120">
    <ele>216.4</ele>
    <time>2018-08-18T05:25:05Z</time>
   </trkpt>
   <trkpt lat="31.9302290" lon="34.9889760">
    <ele>216.4</ele>
    <time>2018-08-18T05:25:06Z</time>
   </trkpt>
   <trkpt lat="31.9302100" lon="34.9889400">
    <ele>216.5</ele>
    <time>2018-08-18T05:25:07Z</time>
   </trkpt>
   <trkpt lat="31.9301790" lon="34.9889160">
    <ele>216.5</ele>
    <time>2018-08-18T05:25:08Z</time>
   </trkpt>
   <trkpt lat="31.9301350" lon="34.9889040">
    <ele>216.6</ele>
    <time>2018-08-18T05:25:09Z</time>
   </trkpt>
   <trkpt lat="31.9300880" lon="34.9888910">
    <ele>216.7</ele>
    <time>2018-08-18T05:25:10Z</time>
   </trkpt>
   <trkpt lat="31.9300380" lon="34.9888800">
    <ele>216.7</ele>
    <time>2018-08-18T05:25:11Z</time>
   </trkpt>
   <trkpt lat="31.9299860" lon="34.9888770">
    <ele>216.8</ele>
    <time>2018-08-18T05:25:12Z</time>
   </trkpt>
   <trkpt lat="31.9299340" lon="34.9888780">
    <ele>216.9</ele>
    <time>2018-08-18T05:25:13Z</time>
   </trkpt>
   <trkpt lat="31.9298770" lon="34.9888760">
    <ele>216.9</ele>
    <time>2018-08-18T05:25:14Z</time>
   </trkpt>
   <trkpt lat="31.9298170" lon="34.9888730">
    <ele>216.9</ele>
    <time>2018-08-18T05:25:15Z</time>
   </trkpt>
   <trkpt lat="31.9297500" lon="34.9888680">
    <ele>216.9</ele>
    <time>2018-08-18T05:25:16Z</time>
   </trkpt>
   <trkpt lat="31.9296910" lon="34.9888630">
    <ele>217.0</ele>
    <time>2018-08-18T05:25:17Z</time>
   </trkpt>
   <trkpt lat="31.9296350" lon="34.9888600">
    <ele>217.0</ele>
    <time>2018-08-18T05:25:18Z</time>
   </trkpt>
   <trkpt lat="31.9295940" lon="34.9888530">
    <ele>217.0</ele>
    <time>2018-08-18T05:25:19Z</time>
   </trkpt>
   <trkpt lat="31.9295640" lon="34.9888490">
    <ele>217.0</ele>
    <time>2018-08-18T05:25:20Z</time>
   </trkpt>
   <trkpt lat="31.9295310" lon="34.9888330">
    <ele>217.0</ele>
    <time>2018-08-18T05:25:22Z</time>
   </trkpt>
   <trkpt lat="31.9295190" lon="34.9887960">
    <ele>216.6</ele>
    <time>2018-08-18T05:25:24Z</time>
   </trkpt>
   <trkpt lat="31.9295120" lon="34.9887380">
    <ele>216.1</ele>
    <time>2018-08-18T05:25:26Z</time>
   </trkpt>
   <trkpt lat="31.9295190" lon="34.9887020">
    <ele>215.9</ele>
    <time>2018-08-18T05:25:27Z</time>
   </trkpt>
   <trkpt lat="31.9295380" lon="34.9886740">
    <ele>215.6</ele>
    <time>2018-08-18T05:25:28Z</time>
   </trkpt>
   <trkpt lat="31.9295600" lon="34.9886430">
    <ele>215.4</ele>
    <time>2018-08-18T05:25:29Z</time>
   </trkpt>
   <trkpt lat="31.9295850" lon="34.9886110">
    <ele>215.0</ele>
    <time>2018-08-18T05:25:30Z</time>
   </trkpt>
   <trkpt lat="31.9296080" lon="34.9885750">
    <ele>214.5</ele>
    <time>2018-08-18T05:25:31Z</time>
   </trkpt>
   <trkpt lat="31.9296310" lon="34.9885470">
    <ele>214.0</ele>
    <time>2018-08-18T05:25:32Z</time>
   </trkpt>
   <trkpt lat="31.9296530" lon="34.9885150">
    <ele>213.6</ele>
    <time>2018-08-18T05:25:33Z</time>
   </trkpt>
   <trkpt lat="31.9296750" lon="34.9884830">
    <ele>213.2</ele>
    <time>2018-08-18T05:25:34Z</time>
   </trkpt>
   <trkpt lat="31.9296940" lon="34.9884460">
    <ele>212.9</ele>
    <time>2018-08-18T05:25:35Z</time>
   </trkpt>
   <trkpt lat="31.9297090" lon="34.9884050">
    <ele>212.6</ele>
    <time>2018-08-18T05:25:36Z</time>
   </trkpt>
   <trkpt lat="31.9297160" lon="34.9883620">
    <ele>212.1</ele>
    <time>2018-08-18T05:25:37Z</time>
   </trkpt>
   <trkpt lat="31.9297100" lon="34.9883180">
    <ele>211.7</ele>
    <time>2018-08-18T05:25:38Z</time>
   </trkpt>
   <trkpt lat="31.9297010" lon="34.9882750">
    <ele>211.4</ele>
    <time>2018-08-18T05:25:39Z</time>
   </trkpt>
   <trkpt lat="31.9296840" lon="34.9882360">
    <ele>211.2</ele>
    <time>2018-08-18T05:25:40Z</time>
   </trkpt>
   <trkpt lat="31.9296710" lon="34.9881870">
    <ele>210.8</ele>
    <time>2018-08-18T05:25:41Z</time>
   </trkpt>
   <trkpt lat="31.9296680" lon="34.9881320">
    <ele>210.4</ele>
    <time>2018-08-18T05:25:42Z</time>
   </trkpt>
   <trkpt lat="31.9296660" lon="34.9880810">
    <ele>210.0</ele>
    <time>2018-08-18T05:25:43Z</time>
   </trkpt>
   <trkpt lat="31.9296710" lon="34.9880420">
    <ele>209.8</ele>
    <time>2018-08-18T05:25:44Z</time>
   </trkpt>
   <trkpt lat="31.9296840" lon="34.9879980">
    <ele>209.6</ele>
    <time>2018-08-18T05:25:45Z</time>
   </trkpt>
   <trkpt lat="31.9296970" lon="34.9879490">
    <ele>209.4</ele>
    <time>2018-08-18T05:25:46Z</time>
   </trkpt>
   <trkpt lat="31.9297120" lon="34.9879000">
    <ele>209.2</ele>
    <time>2018-08-18T05:25:47Z</time>
   </trkpt>
   <trkpt lat="31.9297250" lon="34.9878490">
    <ele>209.0</ele>
    <time>2018-08-18T05:25:48Z</time>
   </trkpt>
   <trkpt lat="31.9297310" lon="34.9878000">
    <ele>208.7</ele>
    <time>2018-08-18T05:25:49Z</time>
   </trkpt>
   <trkpt lat="31.9297300" lon="34.9877490">
    <ele>208.4</ele>
    <time>2018-08-18T05:25:50Z</time>
   </trkpt>
   <trkpt lat="31.9297290" lon="34.9877010">
    <ele>208.1</ele>
    <time>2018-08-18T05:25:51Z</time>
   </trkpt>
   <trkpt lat="31.9297250" lon="34.9876500">
    <ele>207.7</ele>
    <time>2018-08-18T05:25:52Z</time>
   </trkpt>
   <trkpt lat="31.9297230" lon="34.9876050">
    <ele>207.4</ele>
    <time>2018-08-18T05:25:53Z</time>
   </trkpt>
   <trkpt lat="31.9297310" lon="34.9875610">
    <ele>207.1</ele>
    <time>2018-08-18T05:25:54Z</time>
   </trkpt>
   <trkpt lat="31.9297440" lon="34.9875160">
    <ele>206.9</ele>
    <time>2018-08-18T05:25:55Z</time>
   </trkpt>
   <trkpt lat="31.9297650" lon="34.9874660">
    <ele>206.6</ele>
    <time>2018-08-18T05:25:56Z</time>
   </trkpt>
   <trkpt lat="31.9297840" lon="34.9874180">
    <ele>206.4</ele>
    <time>2018-08-18T05:25:57Z</time>
   </trkpt>
   <trkpt lat="31.9298020" lon="34.9873790">
    <ele>206.0</ele>
    <time>2018-08-18T05:25:58Z</time>
   </trkpt>
   <trkpt lat="31.9298190" lon="34.9873410">
    <ele>205.7</ele>
    <time>2018-08-18T05:25:59Z</time>
   </trkpt>
   <trkpt lat="31.9298350" lon="34.9873010">
    <ele>205.5</ele>
    <time>2018-08-18T05:26:00Z</time>
   </trkpt>
   <trkpt lat="31.9298420" lon="34.9872600">
    <ele>205.2</ele>
    <time>2018-08-18T05:26:01Z</time>
   </trkpt>
   <trkpt lat="31.9298500" lon="34.9872200">
    <ele>205.0</ele>
    <time>2018-08-18T05:26:02Z</time>
   </trkpt>
   <trkpt lat="31.9298580" lon="34.9871740">
    <ele>204.8</ele>
    <time>2018-08-18T05:26:03Z</time>
   </trkpt>
   <trkpt lat="31.9298610" lon="34.9871300">
    <ele>204.6</ele>
    <time>2018-08-18T05:26:04Z</time>
   </trkpt>
   <trkpt lat="31.9298550" lon="34.9870770">
    <ele>204.3</ele>
    <time>2018-08-18T05:26:05Z</time>
   </trkpt>
   <trkpt lat="31.9298530" lon="34.9870340">
    <ele>204.1</ele>
    <time>2018-08-18T05:26:06Z</time>
   </trkpt>
   <trkpt lat="31.9298560" lon="34.9869740">
    <ele>203.7</ele>
    <time>2018-08-18T05:26:07Z</time>
   </trkpt>
   <trkpt lat="31.9298610" lon="34.9869110">
    <ele>203.2</ele>
    <time>2018-08-18T05:26:08Z</time>
   </trkpt>
   <trkpt lat="31.9298740" lon="34.9868460">
    <ele>202.8</ele>
    <time>2018-08-18T05:26:09Z</time>
   </trkpt>
   <trkpt lat="31.9298830" lon="34.9867870">
    <ele>202.4</ele>
    <time>2018-08-18T05:26:10Z</time>
   </trkpt>
   <trkpt lat="31.9298820" lon="34.9867270">
    <ele>202.1</ele>
    <time>2018-08-18T05:26:11Z</time>
   </trkpt>
   <trkpt lat="31.9298830" lon="34.9866750">
    <ele>201.8</ele>
    <time>2018-08-18T05:26:12Z</time>
   </trkpt>
   <trkpt lat="31.9298850" lon="34.9866300">
    <ele>201.5</ele>
    <time>2018-08-18T05:26:13Z</time>
   </trkpt>
   <trkpt lat="31.9298900" lon="34.9865870">
    <ele>201.3</ele>
    <time>2018-08-18T05:26:14Z</time>
   </trkpt>
   <trkpt lat="31.9298970" lon="34.9865490">
    <ele>201.1</ele>
    <time>2018-08-18T05:26:15Z</time>
   </trkpt>
   <trkpt lat="31.9299010" lon="34.9865030">
    <ele>200.8</ele>
    <time>2018-08-18T05:26:16Z</time>
   </trkpt>
   <trkpt lat="31.9299010" lon="34.9864630">
    <ele>200.6</ele>
    <time>2018-08-18T05:26:17Z</time>
   </trkpt>
   <trkpt lat="31.9299030" lon="34.9864160">
    <ele>200.4</ele>
    <time>2018-08-18T05:26:18Z</time>
   </trkpt>
   <trkpt lat="31.9299070" lon="34.9863700">
    <ele>200.1</ele>
    <time>2018-08-18T05:26:19Z</time>
   </trkpt>
   <trkpt lat="31.9299100" lon="34.9863190">
    <ele>199.9</ele>
    <time>2018-08-18T05:26:20Z</time>
   </trkpt>
   <trkpt lat="31.9299110" lon="34.9862780">
    <ele>199.7</ele>
    <time>2018-08-18T05:26:21Z</time>
   </trkpt>
   <trkpt lat="31.9299130" lon="34.9862350">
    <ele>199.5</ele>
    <time>2018-08-18T05:26:22Z</time>
   </trkpt>
   <trkpt lat="31.9299180" lon="34.9861900">
    <ele>199.2</ele>
    <time>2018-08-18T05:26:23Z</time>
   </trkpt>
   <trkpt lat="31.9299190" lon="34.9861410">
    <ele>199.0</ele>
    <time>2018-08-18T05:26:24Z</time>
   </trkpt>
   <trkpt lat="31.9299140" lon="34.9860700">
    <ele>198.6</ele>
    <time>2018-08-18T05:26:25Z</time>
   </trkpt>
   <trkpt lat="31.9299140" lon="34.9860030">
    <ele>198.3</ele>
    <time>2018-08-18T05:26:26Z</time>
   </trkpt>
   <trkpt lat="31.9299160" lon="34.9859360">
    <ele>198.0</ele>
    <time>2018-08-18T05:26:27Z</time>
   </trkpt>
   <trkpt lat="31.9299170" lon="34.9858590">
    <ele>197.5</ele>
    <time>2018-08-18T05:26:28Z</time>
   </trkpt>
   <trkpt lat="31.9299170" lon="34.9857660">
    <ele>197.0</ele>
    <time>2018-08-18T05:26:29Z</time>
   </trkpt>
   <trkpt lat="31.9299130" lon="34.9856780">
    <ele>196.5</ele>
    <time>2018-08-18T05:26:30Z</time>
   </trkpt>
   <trkpt lat="31.9299030" lon="34.9855900">
    <ele>195.8</ele>
    <time>2018-08-18T05:26:31Z</time>
   </trkpt>
   <trkpt lat="31.9298940" lon="34.9855070">
    <ele>195.1</ele>
    <time>2018-08-18T05:26:32Z</time>
   </trkpt>
   <trkpt lat="31.9298790" lon="34.9854200">
    <ele>194.4</ele>
    <time>2018-08-18T05:26:33Z</time>
   </trkpt>
   <trkpt lat="31.9298660" lon="34.9853290">
    <ele>193.6</ele>
    <time>2018-08-18T05:26:34Z</time>
   </trkpt>
   <trkpt lat="31.9298540" lon="34.9852390">
    <ele>192.8</ele>
    <time>2018-08-18T05:26:35Z</time>
   </trkpt>
   <trkpt lat="31.9298390" lon="34.9851540">
    <ele>192.0</ele>
    <time>2018-08-18T05:26:36Z</time>
   </trkpt>
   <trkpt lat="31.9298260" lon="34.9850710">
    <ele>191.2</ele>
    <time>2018-08-18T05:26:37Z</time>
   </trkpt>
   <trkpt lat="31.9298120" lon="34.9849930">
    <ele>190.6</ele>
    <time>2018-08-18T05:26:38Z</time>
   </trkpt>
   <trkpt lat="31.9298030" lon="34.9849120">
    <ele>190.3</ele>
    <time>2018-08-18T05:26:39Z</time>
   </trkpt>
   <trkpt lat="31.9297950" lon="34.9848370">
    <ele>189.9</ele>
    <time>2018-08-18T05:26:40Z</time>
   </trkpt>
   <trkpt lat="31.9297880" lon="34.9847610">
    <ele>189.6</ele>
    <time>2018-08-18T05:26:41Z</time>
   </trkpt>
   <trkpt lat="31.9297800" lon="34.9846810">
    <ele>189.2</ele>
    <time>2018-08-18T05:26:42Z</time>
   </trkpt>
   <trkpt lat="31.9297780" lon="34.9846010">
    <ele>188.9</ele>
    <time>2018-08-18T05:26:43Z</time>
   </trkpt>
   <trkpt lat="31.9297760" lon="34.9845260">
    <ele>188.5</ele>
    <time>2018-08-18T05:26:44Z</time>
   </trkpt>
   <trkpt lat="31.9297710" lon="34.9844510">
    <ele>187.8</ele>
    <time>2018-08-18T05:26:45Z</time>
   </trkpt>
   <trkpt lat="31.9297730" lon="34.9843670">
    <ele>187.0</ele>
    <time>2018-08-18T05:26:46Z</time>
   </trkpt>
   <trkpt lat="31.9297830" lon="34.9842810">
    <ele>186.0</ele>
    <time>2018-08-18T05:26:47Z</time>
   </trkpt>
   <trkpt lat="31.9297950" lon="34.9842030">
    <ele>185.4</ele>
    <time>2018-08-18T05:26:48Z</time>
   </trkpt>
   <trkpt lat="31.9298060" lon="34.9841440">
    <ele>184.9</ele>
    <time>2018-08-18T05:26:49Z</time>
   </trkpt>
   <trkpt lat="31.9298280" lon="34.9840970">
    <ele>184.4</ele>
    <time>2018-08-18T05:26:50Z</time>
   </trkpt>
   <trkpt lat="31.9298600" lon="34.9840570">
    <ele>184.0</ele>
    <time>2018-08-18T05:26:51Z</time>
   </trkpt>
   <trkpt lat="31.9299020" lon="34.9840250">
    <ele>184.1</ele>
    <time>2018-08-18T05:26:52Z</time>
   </trkpt>
   <trkpt lat="31.9299410" lon="34.9840080">
    <ele>184.1</ele>
    <time>2018-08-18T05:26:53Z</time>
   </trkpt>
   <trkpt lat="31.9299810" lon="34.9839980">
    <ele>184.1</ele>
    <time>2018-08-18T05:26:54Z</time>
   </trkpt>
   <trkpt lat="31.9300210" lon="34.9839790">
    <ele>184.2</ele>
    <time>2018-08-18T05:26:55Z</time>
   </trkpt>
   <trkpt lat="31.9300610" lon="34.9839490">
    <ele>184.2</ele>
    <time>2018-08-18T05:26:56Z</time>
   </trkpt>
   <trkpt lat="31.9301000" lon="34.9839150">
    <ele>184.2</ele>
    <time>2018-08-18T05:26:57Z</time>
   </trkpt>
   <trkpt lat="31.9301380" lon="34.9838740">
    <ele>184.2</ele>
    <time>2018-08-18T05:26:58Z</time>
   </trkpt>
   <trkpt lat="31.9301730" lon="34.9838290">
    <ele>184.2</ele>
    <time>2018-08-18T05:26:59Z</time>
   </trkpt>
   <trkpt lat="31.9302080" lon="34.9837810">
    <ele>184.2</ele>
    <time>2018-08-18T05:27:00Z</time>
   </trkpt>
   <trkpt lat="31.9302410" lon="34.9837290">
    <ele>184.2</ele>
    <time>2018-08-18T05:27:01Z</time>
   </trkpt>
   <trkpt lat="31.9302730" lon="34.9836780">
    <ele>184.2</ele>
    <time>2018-08-18T05:27:02Z</time>
   </trkpt>
   <trkpt lat="31.9302990" lon="34.9836200">
    <ele>184.2</ele>
    <time>2018-08-18T05:27:03Z</time>
   </trkpt>
   <trkpt lat="31.9303280" lon="34.9835510">
    <ele>184.1</ele>
    <time>2018-08-18T05:27:04Z</time>
   </trkpt>
   <trkpt lat="31.9303610" lon="34.9834730">
    <ele>184.0</ele>
    <time>2018-08-18T05:27:05Z</time>
   </trkpt>
   <trkpt lat="31.9303950" lon="34.9833920">
    <ele>183.9</ele>
    <time>2018-08-18T05:27:06Z</time>
   </trkpt>
   <trkpt lat="31.9304270" lon="34.9833230">
    <ele>183.8</ele>
    <time>2018-08-18T05:27:07Z</time>
   </trkpt>
   <trkpt lat="31.9304600" lon="34.9832590">
    <ele>183.7</ele>
    <time>2018-08-18T05:27:08Z</time>
   </trkpt>
   <trkpt lat="31.9304950" lon="34.9831910">
    <ele>183.7</ele>
    <time>2018-08-18T05:27:09Z</time>
   </trkpt>
   <trkpt lat="31.9305240" lon="34.9831240">
    <ele>183.1</ele>
    <time>2018-08-18T05:27:10Z</time>
   </trkpt>
   <trkpt lat="31.9305630" lon="34.9830690">
    <ele>182.9</ele>
    <time>2018-08-18T05:27:11Z</time>
   </trkpt>
   <trkpt lat="31.9306010" lon="34.9830250">
    <ele>182.7</ele>
    <time>2018-08-18T05:27:12Z</time>
   </trkpt>
   <trkpt lat="31.9306180" lon="34.9829880">
    <ele>182.5</ele>
    <time>2018-08-18T05:27:13Z</time>
   </trkpt>
   <trkpt lat="31.9306280" lon="34.9829530">
    <ele>182.4</ele>
    <time>2018-08-18T05:27:14Z</time>
   </trkpt>
   <trkpt lat="31.9306390" lon="34.9829180">
    <ele>182.3</ele>
    <time>2018-08-18T05:27:15Z</time>
   </trkpt>
   <trkpt lat="31.9306470" lon="34.9828700">
    <ele>182.2</ele>
    <time>2018-08-18T05:27:16Z</time>
   </trkpt>
   <trkpt lat="31.9306460" lon="34.9828230">
    <ele>182.1</ele>
    <time>2018-08-18T05:27:17Z</time>
   </trkpt>
   <trkpt lat="31.9306470" lon="34.9827640">
    <ele>181.9</ele>
    <time>2018-08-18T05:27:18Z</time>
   </trkpt>
   <trkpt lat="31.9306590" lon="34.9827020">
    <ele>181.8</ele>
    <time>2018-08-18T05:27:19Z</time>
   </trkpt>
   <trkpt lat="31.9306740" lon="34.9826460">
    <ele>181.6</ele>
    <time>2018-08-18T05:27:20Z</time>
   </trkpt>
   <trkpt lat="31.9306950" lon="34.9825950">
    <ele>181.4</ele>
    <time>2018-08-18T05:27:21Z</time>
   </trkpt>
   <trkpt lat="31.9307150" lon="34.9825420">
    <ele>181.2</ele>
    <time>2018-08-18T05:27:22Z</time>
   </trkpt>
   <trkpt lat="31.9307350" lon="34.9824910">
    <ele>181.0</ele>
    <time>2018-08-18T05:27:23Z</time>
   </trkpt>
   <trkpt lat="31.9307570" lon="34.9824380">
    <ele>180.8</ele>
    <time>2018-08-18T05:27:24Z</time>
   </trkpt>
   <trkpt lat="31.9307790" lon="34.9823830">
    <ele>180.6</ele>
    <time>2018-08-18T05:27:25Z</time>
   </trkpt>
   <trkpt lat="31.9308010" lon="34.9823290">
    <ele>180.5</ele>
    <time>2018-08-18T05:27:26Z</time>
   </trkpt>
   <trkpt lat="31.9308250" lon="34.9822730">
    <ele>180.3</ele>
    <time>2018-08-18T05:27:27Z</time>
   </trkpt>
   <trkpt lat="31.9308480" lon="34.9822130">
    <ele>180.2</ele>
    <time>2018-08-18T05:27:28Z</time>
   </trkpt>
   <trkpt lat="31.9308700" lon="34.9821600">
    <ele>180.0</ele>
    <time>2018-08-18T05:27:29Z</time>
   </trkpt>
   <trkpt lat="31.9308920" lon="34.9821070">
    <ele>179.8</ele>
    <time>2018-08-18T05:27:30Z</time>
   </trkpt>
   <trkpt lat="31.9309150" lon="34.9820520">
    <ele>179.6</ele>
    <time>2018-08-18T05:27:31Z</time>
   </trkpt>
   <trkpt lat="31.9309340" lon="34.9820030">
    <ele>179.4</ele>
    <time>2018-08-18T05:27:32Z</time>
   </trkpt>
   <trkpt lat="31.9309550" lon="34.9819530">
    <ele>179.2</ele>
    <time>2018-08-18T05:27:33Z</time>
   </trkpt>
   <trkpt lat="31.9309750" lon="34.9818960">
    <ele>179.0</ele>
    <time>2018-08-18T05:27:34Z</time>
   </trkpt>
   <trkpt lat="31.9309920" lon="34.9818390">
    <ele>178.8</ele>
    <time>2018-08-18T05:27:35Z</time>
   </trkpt>
   <trkpt lat="31.9310080" lon="34.9817830">
    <ele>178.7</ele>
    <time>2018-08-18T05:27:36Z</time>
   </trkpt>
   <trkpt lat="31.9310260" lon="34.9817220">
    <ele>178.6</ele>
    <time>2018-08-18T05:27:37Z</time>
   </trkpt>
   <trkpt lat="31.9310390" lon="34.9816580">
    <ele>178.5</ele>
    <time>2018-08-18T05:27:38Z</time>
   </trkpt>
   <trkpt lat="31.9310520" lon="34.9816030">
    <ele>178.4</ele>
    <time>2018-08-18T05:27:39Z</time>
   </trkpt>
   <trkpt lat="31.9310630" lon="34.9815480">
    <ele>178.3</ele>
    <time>2018-08-18T05:27:40Z</time>
   </trkpt>
   <trkpt lat="31.9310760" lon="34.9814960">
    <ele>178.2</ele>
    <time>2018-08-18T05:27:41Z</time>
   </trkpt>
   <trkpt lat="31.9310900" lon="34.9814440">
    <ele>178.1</ele>
    <time>2018-08-18T05:27:42Z</time>
   </trkpt>
   <trkpt lat="31.9311010" lon="34.9813980">
    <ele>178.0</ele>
    <time>2018-08-18T05:27:43Z</time>
   </trkpt>
   <trkpt lat="31.9311110" lon="34.9813510">
    <ele>178.2</ele>
    <time>2018-08-18T05:27:44Z</time>
   </trkpt>
   <trkpt lat="31.9311230" lon="34.9813000">
    <ele>178.4</ele>
    <time>2018-08-18T05:27:45Z</time>
   </trkpt>
   <trkpt lat="31.9311350" lon="34.9812450">
    <ele>178.6</ele>
    <time>2018-08-18T05:27:46Z</time>
   </trkpt>
   <trkpt lat="31.9311450" lon="34.9811870">
    <ele>178.9</ele>
    <time>2018-08-18T05:27:47Z</time>
   </trkpt>
   <trkpt lat="31.9311550" lon="34.9811330">
    <ele>179.1</ele>
    <time>2018-08-18T05:27:48Z</time>
   </trkpt>
   <trkpt lat="31.9311620" lon="34.9810630">
    <ele>179.4</ele>
    <time>2018-08-18T05:27:49Z</time>
   </trkpt>
   <trkpt lat="31.9311700" lon="34.9809930">
    <ele>179.7</ele>
    <time>2018-08-18T05:27:50Z</time>
   </trkpt>
   <trkpt lat="31.9311800" lon="34.9809260">
    <ele>180.0</ele>
    <time>2018-08-18T05:27:51Z</time>
   </trkpt>
   <trkpt lat="31.9311920" lon="34.9808680">
    <ele>180.5</ele>
    <time>2018-08-18T05:27:52Z</time>
   </trkpt>
   <trkpt lat="31.9312070" lon="34.9808120">
    <ele>180.8</ele>
    <time>2018-08-18T05:27:53Z</time>
   </trkpt>
   <trkpt lat="31.9312290" lon="34.9807690">
    <ele>181.1</ele>
    <time>2018-08-18T05:27:54Z</time>
   </trkpt>
   <trkpt lat="31.9312530" lon="34.9807350">
    <ele>181.3</ele>
    <time>2018-08-18T05:27:55Z</time>
   </trkpt>
   <trkpt lat="31.9312760" lon="34.9806950">
    <ele>181.6</ele>
    <time>2018-08-18T05:27:56Z</time>
   </trkpt>
   <trkpt lat="31.9312960" lon="34.9806660">
    <ele>181.9</ele>
    <time>2018-08-18T05:27:57Z</time>
   </trkpt>
   <trkpt lat="31.9313180" lon="34.9806420">
    <ele>182.1</ele>
    <time>2018-08-18T05:27:58Z</time>
   </trkpt>
   <trkpt lat="31.9313490" lon="34.9806250">
    <ele>182.3</ele>
    <time>2018-08-18T05:27:59Z</time>
   </trkpt>
   <trkpt lat="31.9313780" lon="34.9806160">
    <ele>182.5</ele>
    <time>2018-08-18T05:28:00Z</time>
   </trkpt>
   <trkpt lat="31.9314080" lon="34.9806060">
    <ele>182.7</ele>
    <time>2018-08-18T05:28:01Z</time>
   </trkpt>
   <trkpt lat="31.9314420" lon="34.9805990">
    <ele>182.9</ele>
    <time>2018-08-18T05:28:02Z</time>
   </trkpt>
   <trkpt lat="31.9314710" lon="34.9805930">
    <ele>183.0</ele>
    <time>2018-08-18T05:28:03Z</time>
   </trkpt>
   <trkpt lat="31.9315090" lon="34.9806050">
    <ele>183.0</ele>
    <time>2018-08-18T05:28:04Z</time>
   </trkpt>
   <trkpt lat="31.9315460" lon="34.9806160">
    <ele>183.0</ele>
    <time>2018-08-18T05:28:05Z</time>
   </trkpt>
   <trkpt lat="31.9315760" lon="34.9806210">
    <ele>183.1</ele>
    <time>2018-08-18T05:28:06Z</time>
   </trkpt>
   <trkpt lat="31.9316230" lon="34.9806230">
    <ele>183.2</ele>
    <time>2018-08-18T05:28:08Z</time>
   </trkpt>
   <trkpt lat="31.9316690" lon="34.9806180">
    <ele>183.2</ele>
    <time>2018-08-18T05:28:10Z</time>
   </trkpt>
   <trkpt lat="31.9317150" lon="34.9806070">
    <ele>183.3</ele>
    <time>2018-08-18T05:28:12Z</time>
   </trkpt>
   <trkpt lat="31.9317490" lon="34.9805980">
    <ele>183.4</ele>
    <time>2018-08-18T05:28:14Z</time>
   </trkpt>
   <trkpt lat="31.9317830" lon="34.9805990">
    <ele>183.4</ele>
    <time>2018-08-18T05:28:16Z</time>
   </trkpt>
   <trkpt lat="31.9318260" lon="34.9805900">
    <ele>183.5</ele>
    <time>2018-08-18T05:28:18Z</time>
   </trkpt>
   <trkpt lat="31.9318640" lon="34.9805760">
    <ele>183.6</ele>
    <time>2018-08-18T05:28:20Z</time>
   </trkpt>
   <trkpt lat="31.9318930" lon="34.9805610">
    <ele>183.6</ele>
    <time>2018-08-18T05:28:22Z</time>
   </trkpt>
   <trkpt lat="31.9319260" lon="34.9805580">
    <ele>183.6</ele>
    <time>2018-08-18T05:28:24Z</time>
   </trkpt>
   <trkpt lat="31.9319580" lon="34.9805430">
    <ele>183.7</ele>
    <time>2018-08-18T05:28:26Z</time>
   </trkpt>
   <trkpt lat="31.9319910" lon="34.9805410">
    <ele>183.7</ele>
    <time>2018-08-18T05:28:28Z</time>
   </trkpt>
   <trkpt lat="31.9320260" lon="34.9805450">
    <ele>183.7</ele>
    <time>2018-08-18T05:28:30Z</time>
   </trkpt>
   <trkpt lat="31.9320640" lon="34.9805480">
    <ele>183.8</ele>
    <time>2018-08-18T05:28:32Z</time>
   </trkpt>
   <trkpt lat="31.9321010" lon="34.9805570">
    <ele>183.8</ele>
    <time>2018-08-18T05:28:34Z</time>
   </trkpt>
   <trkpt lat="31.9321410" lon="34.9805650">
    <ele>183.8</ele>
    <time>2018-08-18T05:28:36Z</time>
   </trkpt>
   <trkpt lat="31.9321730" lon="34.9805690">
    <ele>183.9</ele>
    <time>2018-08-18T05:28:38Z</time>
   </trkpt>
   <trkpt lat="31.9322150" lon="34.9805730">
    <ele>183.9</ele>
    <time>2018-08-18T05:28:40Z</time>
   </trkpt>
   <trkpt lat="31.9322490" lon="34.9805860">
    <ele>183.9</ele>
    <time>2018-08-18T05:28:42Z</time>
   </trkpt>
   <trkpt lat="31.9322800" lon="34.9805920">
    <ele>184.0</ele>
    <time>2018-08-18T05:28:44Z</time>
   </trkpt>
   <trkpt lat="31.9323100" lon="34.9806050">
    <ele>184.0</ele>
    <time>2018-08-18T05:28:46Z</time>
   </trkpt>
   <trkpt lat="31.9323370" lon="34.9806160">
    <ele>184.0</ele>
    <time>2018-08-18T05:28:48Z</time>
   </trkpt>
   <trkpt lat="31.9323630" lon="34.9806230">
    <ele>184.1</ele>
    <time>2018-08-18T05:28:50Z</time>
   </trkpt>
   <trkpt lat="31.9324000" lon="34.9806490">
    <ele>184.2</ele>
    <time>2018-08-18T05:28:53Z</time>
   </trkpt>
   <trkpt lat="31.9324340" lon="34.9806770">
    <ele>184.3</ele>
    <time>2018-08-18T05:28:56Z</time>
   </trkpt>
   <trkpt lat="31.9324650" lon="34.9806920">
    <ele>184.4</ele>
    <time>2018-08-18T05:28:58Z</time>
   </trkpt>
   <trkpt lat="31.9325000" lon="34.9806980">
    <ele>184.5</ele>
    <time>2018-08-18T05:29:00Z</time>
   </trkpt>
   <trkpt lat="31.9325350" lon="34.9807090">
    <ele>184.6</ele>
    <time>2018-08-18T05:29:02Z</time>
   </trkpt>
   <trkpt lat="31.9325620" lon="34.9807150">
    <ele>184.7</ele>
    <time>2018-08-18T05:29:04Z</time>
   </trkpt>
   <trkpt lat="31.9325930" lon="34.9807260">
    <ele>184.8</ele>
    <time>2018-08-18T05:29:06Z</time>
   </trkpt>
   <trkpt lat="31.9326210" lon="34.9807420">
    <ele>184.9</ele>
    <time>2018-08-18T05:29:08Z</time>
   </trkpt>
   <trkpt lat="31.9326540" lon="34.9807460">
    <ele>185.1</ele>
    <time>2018-08-18T05:29:11Z</time>
   </trkpt>
   <trkpt lat="31.9326840" lon="34.9807530">
    <ele>185.2</ele>
    <time>2018-08-18T05:29:13Z</time>
   </trkpt>
   <trkpt lat="31.9327250" lon="34.9807550">
    <ele>185.3</ele>
    <time>2018-08-18T05:29:16Z</time>
   </trkpt>
   <trkpt lat="31.9327570" lon="34.9807670">
    <ele>185.5</ele>
    <time>2018-08-18T05:29:19Z</time>
   </trkpt>
   <trkpt lat="31.9327880" lon="34.9807610">
    <ele>185.6</ele>
    <time>2018-08-18T05:29:21Z</time>
   </trkpt>
   <trkpt lat="31.9328170" lon="34.9807600">
    <ele>185.7</ele>
    <time>2018-08-18T05:29:23Z</time>
   </trkpt>
   <trkpt lat="31.9328480" lon="34.9807650">
    <ele>185.8</ele>
    <time>2018-08-18T05:29:26Z</time>
   </trkpt>
   <trkpt lat="31.9328790" lon="34.9807770">
    <ele>185.9</ele>
    <time>2018-08-18T05:29:29Z</time>
   </trkpt>
   <trkpt lat="31.9329120" lon="34.9807780">
    <ele>186.0</ele>
    <time>2018-08-18T05:29:31Z</time>
   </trkpt>
   <trkpt lat="31.9329440" lon="34.9807570">
    <ele>186.1</ele>
    <time>2018-08-18T05:29:33Z</time>
   </trkpt>
   <trkpt lat="31.9329750" lon="34.9807520">
    <ele>186.2</ele>
    <time>2018-08-18T05:29:35Z</time>
   </trkpt>
   <trkpt lat="31.9330070" lon="34.9807360">
    <ele>186.2</ele>
    <time>2018-08-18T05:29:38Z</time>
   </trkpt>
   <trkpt lat="31.9330290" lon="34.9807130">
    <ele>186.2</ele>
    <time>2018-08-18T05:29:40Z</time>
   </trkpt>
   <trkpt lat="31.9330570" lon="34.9806880">
    <ele>186.2</ele>
    <time>2018-08-18T05:29:43Z</time>
   </trkpt>
   <trkpt lat="31.9330850" lon="34.9806670">
    <ele>186.1</ele>
    <time>2018-08-18T05:29:46Z</time>
   </trkpt>
   <trkpt lat="31.9331040" lon="34.9806260">
    <ele>186.0</ele>
    <time>2018-08-18T05:29:50Z</time>
   </trkpt>
   <trkpt lat="31.9331160" lon="34.9805820">
    <ele>186.0</ele>
    <time>2018-08-18T05:29:53Z</time>
   </trkpt>
   <trkpt lat="31.9331160" lon="34.9805490">
    <ele>186.0</ele>
    <time>2018-08-18T05:29:55Z</time>
   </trkpt>
   <trkpt lat="31.9331270" lon="34.9805110">
    <ele>186.0</ele>
    <time>2018-08-18T05:29:57Z</time>
   </trkpt>
   <trkpt lat="31.9331280" lon="34.9804670">
    <ele>186.0</ele>
    <time>2018-08-18T05:29:59Z</time>
   </trkpt>
   <trkpt lat="31.9331210" lon="34.9804180">
    <ele>186.1</ele>
    <time>2018-08-18T05:30:01Z</time>
   </trkpt>
   <trkpt lat="31.9331140" lon="34.9803720">
    <ele>186.1</ele>
    <time>2018-08-18T05:30:03Z</time>
   </trkpt>
   <trkpt lat="31.9331020" lon="34.9803340">
    <ele>186.1</ele>
    <time>2018-08-18T05:30:05Z</time>
   </trkpt>
   <trkpt lat="31.9330880" lon="34.9803040">
    <ele>186.1</ele>
    <time>2018-08-18T05:30:07Z</time>
   </trkpt>
   <trkpt lat="31.9330800" lon="34.9802630">
    <ele>186.1</ele>
    <time>2018-08-18T05:30:09Z</time>
   </trkpt>
   <trkpt lat="31.9330790" lon="34.9802240">
    <ele>186.2</ele>
    <time>2018-08-18T05:30:11Z</time>
   </trkpt>
   <trkpt lat="31.9330610" lon="34.9801690">
    <ele>186.2</ele>
    <time>2018-08-18T05:30:13Z</time>
   </trkpt>
   <trkpt lat="31.9330420" lon="34.9801340">
    <ele>186.3</ele>
    <time>2018-08-18T05:30:14Z</time>
   </trkpt>
   <trkpt lat="31.9330240" lon="34.9800930">
    <ele>186.4</ele>
    <time>2018-08-18T05:30:15Z</time>
   </trkpt>
   <trkpt lat="31.9330090" lon="34.9800530">
    <ele>186.5</ele>
    <time>2018-08-18T05:30:16Z</time>
   </trkpt>
   <trkpt lat="31.9329940" lon="34.9800180">
    <ele>186.5</ele>
    <time>2018-08-18T05:30:17Z</time>
   </trkpt>
   <trkpt lat="31.9329750" lon="34.9799800">
    <ele>186.7</ele>
    <time>2018-08-18T05:30:18Z</time>
   </trkpt>
   <trkpt lat="31.9329600" lon="34.9799390">
    <ele>187.0</ele>
    <time>2018-08-18T05:30:19Z</time>
   </trkpt>
   <trkpt lat="31.9329460" lon="34.9798930">
    <ele>187.3</ele>
    <time>2018-08-18T05:30:20Z</time>
   </trkpt>
   <trkpt lat="31.9329360" lon="34.9798330">
    <ele>187.7</ele>
    <time>2018-08-18T05:30:21Z</time>
   </trkpt>
   <trkpt lat="31.9329300" lon="34.9797820">
    <ele>187.9</ele>
    <time>2018-08-18T05:30:22Z</time>
   </trkpt>
   <trkpt lat="31.9329270" lon="34.9797330">
    <ele>188.1</ele>
    <time>2018-08-18T05:30:23Z</time>
   </trkpt>
   <trkpt lat="31.9329350" lon="34.9796850">
    <ele>188.2</ele>
    <time>2018-08-18T05:30:24Z</time>
   </trkpt>
   <trkpt lat="31.9329480" lon="34.9796400">
    <ele>188.3</ele>
    <time>2018-08-18T05:30:25Z</time>
   </trkpt>
   <trkpt lat="31.9329680" lon="34.9795990">
    <ele>188.3</ele>
    <time>2018-08-18T05:30:26Z</time>
   </trkpt>
   <trkpt lat="31.9329880" lon="34.9795650">
    <ele>188.3</ele>
    <time>2018-08-18T05:30:27Z</time>
   </trkpt>
   <trkpt lat="31.9330020" lon="34.9795350">
    <ele>188.3</ele>
    <time>2018-08-18T05:30:28Z</time>
   </trkpt>
   <trkpt lat="31.9330200" lon="34.9795040">
    <ele>188.4</ele>
    <time>2018-08-18T05:30:29Z</time>
   </trkpt>
   <trkpt lat="31.9330390" lon="34.9794730">
    <ele>188.4</ele>
    <time>2018-08-18T05:30:30Z</time>
   </trkpt>
   <trkpt lat="31.9330540" lon="34.9794360">
    <ele>188.4</ele>
    <time>2018-08-18T05:30:31Z</time>
   </trkpt>
   <trkpt lat="31.9330680" lon="34.9794030">
    <ele>188.4</ele>
    <time>2018-08-18T05:30:32Z</time>
   </trkpt>
   <trkpt lat="31.9330800" lon="34.9793680">
    <ele>188.4</ele>
    <time>2018-08-18T05:30:33Z</time>
   </trkpt>
   <trkpt lat="31.9330960" lon="34.9793360">
    <ele>188.4</ele>
    <time>2018-08-18T05:30:34Z</time>
   </trkpt>
   <trkpt lat="31.9331170" lon="34.9793050">
    <ele>188.4</ele>
    <time>2018-08-18T05:30:35Z</time>
   </trkpt>
   <trkpt lat="31.9331390" lon="34.9792730">
    <ele>188.3</ele>
    <time>2018-08-18T05:30:36Z</time>
   </trkpt>
   <trkpt lat="31.9331590" lon="34.9792460">
    <ele>188.3</ele>
    <time>2018-08-18T05:30:37Z</time>
   </trkpt>
   <trkpt lat="31.9331840" lon="34.9792150">
    <ele>188.3</ele>
    <time>2018-08-18T05:30:38Z</time>
   </trkpt>
   <trkpt lat="31.9332130" lon="34.9791870">
    <ele>188.3</ele>
    <time>2018-08-18T05:30:39Z</time>
   </trkpt>
   <trkpt lat="31.9332470" lon="34.9791670">
    <ele>188.3</ele>
    <time>2018-08-18T05:30:40Z</time>
   </trkpt>
   <trkpt lat="31.9332820" lon="34.9791450">
    <ele>188.2</ele>
    <time>2018-08-18T05:30:41Z</time>
   </trkpt>
   <trkpt lat="31.9333210" lon="34.9791250">
    <ele>188.2</ele>
    <time>2018-08-18T05:30:42Z</time>
   </trkpt>
   <trkpt lat="31.9333610" lon="34.9791120">
    <ele>188.1</ele>
    <time>2018-08-18T05:30:43Z</time>
   </trkpt>
   <trkpt lat="31.9333980" lon="34.9791030">
    <ele>188.1</ele>
    <time>2018-08-18T05:30:44Z</time>
   </trkpt>
   <trkpt lat="31.9334340" lon="34.9790930">
    <ele>188.0</ele>
    <time>2018-08-18T05:30:45Z</time>
   </trkpt>
   <trkpt lat="31.9334680" lon="34.9790870">
    <ele>188.0</ele>
    <time>2018-08-18T05:30:46Z</time>
   </trkpt>
   <trkpt lat="31.9335030" lon="34.9790800">
    <ele>187.8</ele>
    <time>2018-08-18T05:30:47Z</time>
   </trkpt>
   <trkpt lat="31.9335400" lon="34.9790690">
    <ele>187.5</ele>
    <time>2018-08-18T05:30:48Z</time>
   </trkpt>
   <trkpt lat="31.9335790" lon="34.9790620">
    <ele>187.2</ele>
    <time>2018-08-18T05:30:49Z</time>
   </trkpt>
   <trkpt lat="31.9336150" lon="34.9790520">
    <ele>186.9</ele>
    <time>2018-08-18T05:30:50Z</time>
   </trkpt>
   <trkpt lat="31.9336490" lon="34.9790390">
    <ele>186.7</ele>
    <time>2018-08-18T05:30:51Z</time>
   </trkpt>
   <trkpt lat="31.9336810" lon="34.9790270">
    <ele>186.5</ele>
    <time>2018-08-18T05:30:52Z</time>
   </trkpt>
   <trkpt lat="31.9337170" lon="34.9790130">
    <ele>186.4</ele>
    <time>2018-08-18T05:30:53Z</time>
   </trkpt>
   <trkpt lat="31.9337570" lon="34.9790010">
    <ele>186.3</ele>
    <time>2018-08-18T05:30:54Z</time>
   </trkpt>
   <trkpt lat="31.9337920" lon="34.9789870">
    <ele>186.2</ele>
    <time>2018-08-18T05:30:55Z</time>
   </trkpt>
   <trkpt lat="31.9338290" lon="34.9789760">
    <ele>186.1</ele>
    <time>2018-08-18T05:30:56Z</time>
   </trkpt>
   <trkpt lat="31.9338650" lon="34.9789620">
    <ele>186.1</ele>
    <time>2018-08-18T05:30:57Z</time>
   </trkpt>
   <trkpt lat="31.9339000" lon="34.9789480">
    <ele>186.1</ele>
    <time>2018-08-18T05:30:58Z</time>
   </trkpt>
   <trkpt lat="31.9339320" lon="34.9789370">
    <ele>186.1</ele>
    <time>2018-08-18T05:30:59Z</time>
   </trkpt>
   <trkpt lat="31.9339650" lon="34.9789290">
    <ele>186.0</ele>
    <time>2018-08-18T05:31:00Z</time>
   </trkpt>
   <trkpt lat="31.9339920" lon="34.9789190">
    <ele>186.0</ele>
    <time>2018-08-18T05:31:01Z</time>
   </trkpt>
   <trkpt lat="31.9340370" lon="34.9788740">
    <ele>186.0</ele>
    <time>2018-08-18T05:31:03Z</time>
   </trkpt>
   <trkpt lat="31.9340590" lon="34.9788310">
    <ele>186.0</ele>
    <time>2018-08-18T05:31:04Z</time>
   </trkpt>
   <trkpt lat="31.9340830" lon="34.9787870">
    <ele>186.0</ele>
    <time>2018-08-18T05:31:05Z</time>
   </trkpt>
   <trkpt lat="31.9341050" lon="34.9787430">
    <ele>186.0</ele>
    <time>2018-08-18T05:31:06Z</time>
   </trkpt>
   <trkpt lat="31.9341270" lon="34.9786950">
    <ele>186.5</ele>
    <time>2018-08-18T05:31:07Z</time>
   </trkpt>
   <trkpt lat="31.9341470" lon="34.9786500">
    <ele>187.5</ele>
    <time>2018-08-18T05:31:08Z</time>
   </trkpt>
   <trkpt lat="31.9341630" lon="34.9786040">
    <ele>188.4</ele>
    <time>2018-08-18T05:31:09Z</time>
   </trkpt>
   <trkpt lat="31.9341770" lon="34.9785610">
    <ele>189.2</ele>
    <time>2018-08-18T05:31:10Z</time>
   </trkpt>
   <trkpt lat="31.9341850" lon="34.9785250">
    <ele>189.9</ele>
    <time>2018-08-18T05:31:11Z</time>
   </trkpt>
   <trkpt lat="31.9341940" lon="34.9784860">
    <ele>190.7</ele>
    <time>2018-08-18T05:31:12Z</time>
   </trkpt>
   <trkpt lat="31.9342030" lon="34.9784440">
    <ele>191.5</ele>
    <time>2018-08-18T05:31:13Z</time>
   </trkpt>
   <trkpt lat="31.9342010" lon="34.9784050">
    <ele>192.2</ele>
    <time>2018-08-18T05:31:14Z</time>
   </trkpt>
   <trkpt lat="31.9342060" lon="34.9783620">
    <ele>193.0</ele>
    <time>2018-08-18T05:31:15Z</time>
   </trkpt>
   <trkpt lat="31.9342060" lon="34.9783260">
    <ele>193.7</ele>
    <time>2018-08-18T05:31:16Z</time>
   </trkpt>
   <trkpt lat="31.9342050" lon="34.9782680">
    <ele>194.7</ele>
    <time>2018-08-18T05:31:18Z</time>
   </trkpt>
   <trkpt lat="31.9341940" lon="34.9782350">
    <ele>194.4</ele>
    <time>2018-08-18T05:31:19Z</time>
   </trkpt>
   <trkpt lat="31.9341830" lon="34.9782030">
    <ele>193.9</ele>
    <time>2018-08-18T05:31:20Z</time>
   </trkpt>
   <trkpt lat="31.9341720" lon="34.9781710">
    <ele>193.3</ele>
    <time>2018-08-18T05:31:21Z</time>
   </trkpt>
   <trkpt lat="31.9341520" lon="34.9781180">
    <ele>192.3</ele>
    <time>2018-08-18T05:31:23Z</time>
   </trkpt>
   <trkpt lat="31.9341440" lon="34.9780870">
    <ele>191.8</ele>
    <time>2018-08-18T05:31:24Z</time>
   </trkpt>
   <trkpt lat="31.9341340" lon="34.9780530">
    <ele>191.2</ele>
    <time>2018-08-18T05:31:25Z</time>
   </trkpt>
   <trkpt lat="31.9341270" lon="34.9780210">
    <ele>190.6</ele>
    <time>2018-08-18T05:31:26Z</time>
   </trkpt>
   <trkpt lat="31.9341210" lon="34.9779860">
    <ele>189.6</ele>
    <time>2018-08-18T05:31:27Z</time>
   </trkpt>
   <trkpt lat="31.9341170" lon="34.9779530">
    <ele>188.5</ele>
    <time>2018-08-18T05:31:28Z</time>
   </trkpt>
   <trkpt lat="31.9341040" lon="34.9778930">
    <ele>187.1</ele>
    <time>2018-08-18T05:31:30Z</time>
   </trkpt>
   <trkpt lat="31.9340970" lon="34.9778320">
    <ele>186.0</ele>
    <time>2018-08-18T05:31:32Z</time>
   </trkpt>
   <trkpt lat="31.9340830" lon="34.9777830">
    <ele>185.1</ele>
    <time>2018-08-18T05:31:34Z</time>
   </trkpt>
   <trkpt lat="31.9340760" lon="34.9777500">
    <ele>184.5</ele>
    <time>2018-08-18T05:31:35Z</time>
   </trkpt>
   <trkpt lat="31.9340640" lon="34.9776880">
    <ele>183.4</ele>
    <time>2018-08-18T05:31:37Z</time>
   </trkpt>
   <trkpt lat="31.9340480" lon="34.9776290">
    <ele>182.3</ele>
    <time>2018-08-18T05:31:39Z</time>
   </trkpt>
   <trkpt lat="31.9340240" lon="34.9775650">
    <ele>182.1</ele>
    <time>2018-08-18T05:31:41Z</time>
   </trkpt>
   <trkpt lat="31.9340180" lon="34.9775220">
    <ele>182.2</ele>
    <time>2018-08-18T05:31:42Z</time>
   </trkpt>
   <trkpt lat="31.9340060" lon="34.9774830">
    <ele>182.3</ele>
    <time>2018-08-18T05:31:43Z</time>
   </trkpt>
   <trkpt lat="31.9339910" lon="34.9774470">
    <ele>182.3</ele>
    <time>2018-08-18T05:31:44Z</time>
   </trkpt>
   <trkpt lat="31.9339790" lon="34.9774070">
    <ele>182.4</ele>
    <time>2018-08-18T05:31:45Z</time>
   </trkpt>
   <trkpt lat="31.9339680" lon="34.9773710">
    <ele>182.5</ele>
    <time>2018-08-18T05:31:46Z</time>
   </trkpt>
   <trkpt lat="31.9339600" lon="34.9773340">
    <ele>182.6</ele>
    <time>2018-08-18T05:31:47Z</time>
   </trkpt>
   <trkpt lat="31.9339530" lon="34.9772950">
    <ele>182.6</ele>
    <time>2018-08-18T05:31:48Z</time>
   </trkpt>
   <trkpt lat="31.9339460" lon="34.9772540">
    <ele>182.7</ele>
    <time>2018-08-18T05:31:49Z</time>
   </trkpt>
   <trkpt lat="31.9339410" lon="34.9772130">
    <ele>182.8</ele>
    <time>2018-08-18T05:31:50Z</time>
   </trkpt>
   <trkpt lat="31.9339360" lon="34.9771650">
    <ele>182.9</ele>
    <time>2018-08-18T05:31:51Z</time>
   </trkpt>
   <trkpt lat="31.9339310" lon="34.9771200">
    <ele>183.0</ele>
    <time>2018-08-18T05:31:52Z</time>
   </trkpt>
   <trkpt lat="31.9339290" lon="34.9770820">
    <ele>183.1</ele>
    <time>2018-08-18T05:31:53Z</time>
   </trkpt>
   <trkpt lat="31.9339230" lon="34.9770480">
    <ele>183.2</ele>
    <time>2018-08-18T05:31:54Z</time>
   </trkpt>
   <trkpt lat="31.9339180" lon="34.9770140">
    <ele>183.3</ele>
    <time>2018-08-18T05:31:55Z</time>
   </trkpt>
   <trkpt lat="31.9339110" lon="34.9769780">
    <ele>183.4</ele>
    <time>2018-08-18T05:31:56Z</time>
   </trkpt>
   <trkpt lat="31.9339080" lon="34.9769410">
    <ele>183.6</ele>
    <time>2018-08-18T05:31:57Z</time>
   </trkpt>
   <trkpt lat="31.9339110" lon="34.9769030">
    <ele>183.7</ele>
    <time>2018-08-18T05:31:58Z</time>
   </trkpt>
   <trkpt lat="31.9339060" lon="34.9768580">
    <ele>183.8</ele>
    <time>2018-08-18T05:31:59Z</time>
   </trkpt>
   <trkpt lat="31.9339030" lon="34.9768070">
    <ele>183.9</ele>
    <time>2018-08-18T05:32:00Z</time>
   </trkpt>
   <trkpt lat="31.9339060" lon="34.9767420">
    <ele>184.1</ele>
    <time>2018-08-18T05:32:01Z</time>
   </trkpt>
   <trkpt lat="31.9339030" lon="34.9766870">
    <ele>184.2</ele>
    <time>2018-08-18T05:32:02Z</time>
   </trkpt>
   <trkpt lat="31.9339010" lon="34.9766300">
    <ele>184.3</ele>
    <time>2018-08-18T05:32:03Z</time>
   </trkpt>
   <trkpt lat="31.9339040" lon="34.9765810">
    <ele>184.4</ele>
    <time>2018-08-18T05:32:04Z</time>
   </trkpt>
   <trkpt lat="31.9339120" lon="34.9765280">
    <ele>184.5</ele>
    <time>2018-08-18T05:32:05Z</time>
   </trkpt>
   <trkpt lat="31.9339250" lon="34.9764710">
    <ele>184.6</ele>
    <time>2018-08-18T05:32:06Z</time>
   </trkpt>
   <trkpt lat="31.9339380" lon="34.9764260">
    <ele>184.7</ele>
    <time>2018-08-18T05:32:07Z</time>
   </trkpt>
   <trkpt lat="31.9339560" lon="34.9763850">
    <ele>184.8</ele>
    <time>2018-08-18T05:32:08Z</time>
   </trkpt>
   <trkpt lat="31.9339740" lon="34.9763410">
    <ele>184.9</ele>
    <time>2018-08-18T05:32:09Z</time>
   </trkpt>
   <trkpt lat="31.9339970" lon="34.9762950">
    <ele>185.1</ele>
    <time>2018-08-18T05:32:10Z</time>
   </trkpt>
   <trkpt lat="31.9340300" lon="34.9762530">
    <ele>185.4</ele>
    <time>2018-08-18T05:32:11Z</time>
   </trkpt>
   <trkpt lat="31.9340590" lon="34.9762150">
    <ele>185.6</ele>
    <time>2018-08-18T05:32:12Z</time>
   </trkpt>
   <trkpt lat="31.9340890" lon="34.9761760">
    <ele>185.8</ele>
    <time>2018-08-18T05:32:13Z</time>
   </trkpt>
   <trkpt lat="31.9341230" lon="34.9761410">
    <ele>186.0</ele>
    <time>2018-08-18T05:32:14Z</time>
   </trkpt>
   <trkpt lat="31.9341570" lon="34.9761140">
    <ele>186.1</ele>
    <time>2018-08-18T05:32:15Z</time>
   </trkpt>
   <trkpt lat="31.9341920" lon="34.9760890">
    <ele>186.2</ele>
    <time>2018-08-18T05:32:16Z</time>
   </trkpt>
   <trkpt lat="31.9342250" lon="34.9760570">
    <ele>186.4</ele>
    <time>2018-08-18T05:32:17Z</time>
   </trkpt>
   <trkpt lat="31.9342550" lon="34.9760390">
    <ele>186.5</ele>
    <time>2018-08-18T05:32:18Z</time>
   </trkpt>
   <trkpt lat="31.9342900" lon="34.9760260">
    <ele>186.6</ele>
    <time>2018-08-18T05:32:19Z</time>
   </trkpt>
   <trkpt lat="31.9343230" lon="34.9760210">
    <ele>186.8</ele>
    <time>2018-08-18T05:32:20Z</time>
   </trkpt>
   <trkpt lat="31.9343530" lon="34.9760150">
    <ele>187.0</ele>
    <time>2018-08-18T05:32:21Z</time>
   </trkpt>
   <trkpt lat="31.9343830" lon="34.9760050">
    <ele>187.1</ele>
    <time>2018-08-18T05:32:22Z</time>
   </trkpt>
   <trkpt lat="31.9344200" lon="34.9759990">
    <ele>187.3</ele>
    <time>2018-08-18T05:32:23Z</time>
   </trkpt>
   <trkpt lat="31.9344540" lon="34.9759890">
    <ele>187.5</ele>
    <time>2018-08-18T05:32:24Z</time>
   </trkpt>
   <trkpt lat="31.9344850" lon="34.9759850">
    <ele>187.7</ele>
    <time>2018-08-18T05:32:25Z</time>
   </trkpt>
   <trkpt lat="31.9345220" lon="34.9759840">
    <ele>187.9</ele>
    <time>2018-08-18T05:32:26Z</time>
   </trkpt>
   <trkpt lat="31.9345530" lon="34.9759920">
    <ele>188.0</ele>
    <time>2018-08-18T05:32:27Z</time>
   </trkpt>
   <trkpt lat="31.9345830" lon="34.9760090">
    <ele>188.1</ele>
    <time>2018-08-18T05:32:28Z</time>
   </trkpt>
   <trkpt lat="31.9346090" lon="34.9760310">
    <ele>188.1</ele>
    <time>2018-08-18T05:32:29Z</time>
   </trkpt>
   <trkpt lat="31.9346360" lon="34.9760590">
    <ele>188.2</ele>
    <time>2018-08-18T05:32:30Z</time>
   </trkpt>
   <trkpt lat="31.9346530" lon="34.9760880">
    <ele>188.3</ele>
    <time>2018-08-18T05:32:31Z</time>
   </trkpt>
   <trkpt lat="31.9346710" lon="34.9761180">
    <ele>188.4</ele>
    <time>2018-08-18T05:32:32Z</time>
   </trkpt>
   <trkpt lat="31.9346890" lon="34.9761470">
    <ele>188.5</ele>
    <time>2018-08-18T05:32:33Z</time>
   </trkpt>
   <trkpt lat="31.9347050" lon="34.9761740">
    <ele>188.5</ele>
    <time>2018-08-18T05:32:34Z</time>
   </trkpt>
   <trkpt lat="31.9347170" lon="34.9762040">
    <ele>188.6</ele>
    <time>2018-08-18T05:32:35Z</time>
   </trkpt>
   <trkpt lat="31.9347320" lon="34.9762330">
    <ele>188.7</ele>
    <time>2018-08-18T05:32:36Z</time>
   </trkpt>
   <trkpt lat="31.9347440" lon="34.9762610">
    <ele>188.8</ele>
    <time>2018-08-18T05:32:37Z</time>
   </trkpt>
   <trkpt lat="31.9347720" lon="34.9763090">
    <ele>188.8</ele>
    <time>2018-08-18T05:32:39Z</time>
   </trkpt>
   <trkpt lat="31.9347990" lon="34.9763620">
    <ele>188.9</ele>
    <time>2018-08-18T05:32:41Z</time>
   </trkpt>
   <trkpt lat="31.9348170" lon="34.9763910">
    <ele>188.9</ele>
    <time>2018-08-18T05:32:42Z</time>
   </trkpt>
   <trkpt lat="31.9348340" lon="34.9764160">
    <ele>188.9</ele>
    <time>2018-08-18T05:32:43Z</time>
   </trkpt>
   <trkpt lat="31.9348630" lon="34.9764670">
    <ele>189.0</ele>
    <time>2018-08-18T05:32:45Z</time>
   </trkpt>
   <trkpt lat="31.9348750" lon="34.9764950">
    <ele>189.0</ele>
    <time>2018-08-18T05:32:46Z</time>
   </trkpt>
   <trkpt lat="31.9348890" lon="34.9765250">
    <ele>189.0</ele>
    <time>2018-08-18T05:32:47Z</time>
   </trkpt>
   <trkpt lat="31.9349150" lon="34.9765790">
    <ele>189.0</ele>
    <time>2018-08-18T05:32:49Z</time>
   </trkpt>
   <trkpt lat="31.9349320" lon="34.9766120">
    <ele>189.1</ele>
    <time>2018-08-18T05:32:50Z</time>
   </trkpt>
   <trkpt lat="31.9349520" lon="34.9766530">
    <ele>189.1</ele>
    <time>2018-08-18T05:32:51Z</time>
   </trkpt>
   <trkpt lat="31.9349690" lon="34.9766940">
    <ele>189.1</ele>
    <time>2018-08-18T05:32:52Z</time>
   </trkpt>
   <trkpt lat="31.9349830" lon="34.9767330">
    <ele>189.2</ele>
    <time>2018-08-18T05:32:53Z</time>
   </trkpt>
   <trkpt lat="31.9349970" lon="34.9767720">
    <ele>189.2</ele>
    <time>2018-08-18T05:32:54Z</time>
   </trkpt>
   <trkpt lat="31.9350130" lon="34.9768140">
    <ele>189.2</ele>
    <time>2018-08-18T05:32:55Z</time>
   </trkpt>
   <trkpt lat="31.9350230" lon="34.9768470">
    <ele>189.3</ele>
    <time>2018-08-18T05:32:56Z</time>
   </trkpt>
   <trkpt lat="31.9350330" lon="34.9768830">
    <ele>189.3</ele>
    <time>2018-08-18T05:32:57Z</time>
   </trkpt>
   <trkpt lat="31.9350450" lon="34.9769300">
    <ele>189.4</ele>
    <time>2018-08-18T05:32:58Z</time>
   </trkpt>
   <trkpt lat="31.9350570" lon="34.9769760">
    <ele>189.4</ele>
    <time>2018-08-18T05:32:59Z</time>
   </trkpt>
   <trkpt lat="31.9350670" lon="34.9770200">
    <ele>189.4</ele>
    <time>2018-08-18T05:33:00Z</time>
   </trkpt>
   <trkpt lat="31.9350760" lon="34.9770670">
    <ele>189.5</ele>
    <time>2018-08-18T05:33:01Z</time>
   </trkpt>
   <trkpt lat="31.9350850" lon="34.9771150">
    <ele>189.5</ele>
    <time>2018-08-18T05:33:02Z</time>
   </trkpt>
   <trkpt lat="31.9350970" lon="34.9771550">
    <ele>189.6</ele>
    <time>2018-08-18T05:33:03Z</time>
   </trkpt>
   <trkpt lat="31.9351100" lon="34.9771960">
    <ele>189.6</ele>
    <time>2018-08-18T05:33:04Z</time>
   </trkpt>
   <trkpt lat="31.9351170" lon="34.9772350">
    <ele>189.7</ele>
    <time>2018-08-18T05:33:05Z</time>
   </trkpt>
   <trkpt lat="31.9351250" lon="34.9772780">
    <ele>189.8</ele>
    <time>2018-08-18T05:33:06Z</time>
   </trkpt>
   <trkpt lat="31.9351370" lon="34.9773160">
    <ele>189.8</ele>
    <time>2018-08-18T05:33:07Z</time>
   </trkpt>
   <trkpt lat="31.9351490" lon="34.9773530">
    <ele>189.9</ele>
    <time>2018-08-18T05:33:08Z</time>
   </trkpt>
   <trkpt lat="31.9351590" lon="34.9773910">
    <ele>190.0</ele>
    <time>2018-08-18T05:33:09Z</time>
   </trkpt>
   <trkpt lat="31.9351650" lon="34.9774500">
    <ele>190.1</ele>
    <time>2018-08-18T05:33:11Z</time>
   </trkpt>
   <trkpt lat="31.9351700" lon="34.9774900">
    <ele>190.3</ele>
    <time>2018-08-18T05:33:12Z</time>
   </trkpt>
   <trkpt lat="31.9351740" lon="34.9775300">
    <ele>190.6</ele>
    <time>2018-08-18T05:33:13Z</time>
   </trkpt>
   <trkpt lat="31.9351770" lon="34.9775660">
    <ele>190.8</ele>
    <time>2018-08-18T05:33:14Z</time>
   </trkpt>
   <trkpt lat="31.9351790" lon="34.9776080">
    <ele>191.0</ele>
    <time>2018-08-18T05:33:15Z</time>
   </trkpt>
   <trkpt lat="31.9351790" lon="34.9776500">
    <ele>191.3</ele>
    <time>2018-08-18T05:33:16Z</time>
   </trkpt>
   <trkpt lat="31.9351740" lon="34.9776850">
    <ele>191.5</ele>
    <time>2018-08-18T05:33:17Z</time>
   </trkpt>
   <trkpt lat="31.9351680" lon="34.9777220">
    <ele>191.6</ele>
    <time>2018-08-18T05:33:18Z</time>
   </trkpt>
   <trkpt lat="31.9351620" lon="34.9777610">
    <ele>191.7</ele>
    <time>2018-08-18T05:33:19Z</time>
   </trkpt>
   <trkpt lat="31.9351590" lon="34.9778010">
    <ele>191.9</ele>
    <time>2018-08-18T05:33:20Z</time>
   </trkpt>
   <trkpt lat="31.9351540" lon="34.9778330">
    <ele>191.9</ele>
    <time>2018-08-18T05:33:21Z</time>
   </trkpt>
   <trkpt lat="31.9351520" lon="34.9778740">
    <ele>192.0</ele>
    <time>2018-08-18T05:33:22Z</time>
   </trkpt>
   <trkpt lat="31.9351440" lon="34.9779090">
    <ele>192.1</ele>
    <time>2018-08-18T05:33:23Z</time>
   </trkpt>
   <trkpt lat="31.9351340" lon="34.9779510">
    <ele>192.2</ele>
    <time>2018-08-18T05:33:24Z</time>
   </trkpt>
   <trkpt lat="31.9351250" lon="34.9779980">
    <ele>192.4</ele>
    <time>2018-08-18T05:33:25Z</time>
   </trkpt>
   <trkpt lat="31.9351180" lon="34.9780490">
    <ele>192.5</ele>
    <time>2018-08-18T05:33:26Z</time>
   </trkpt>
   <trkpt lat="31.9351160" lon="34.9781030">
    <ele>192.7</ele>
    <time>2018-08-18T05:33:27Z</time>
   </trkpt>
   <trkpt lat="31.9351080" lon="34.9781520">
    <ele>192.8</ele>
    <time>2018-08-18T05:33:28Z</time>
   </trkpt>
   <trkpt lat="31.9351020" lon="34.9781980">
    <ele>193.0</ele>
    <time>2018-08-18T05:33:29Z</time>
   </trkpt>
   <trkpt lat="31.9350970" lon="34.9782420">
    <ele>193.1</ele>
    <time>2018-08-18T05:33:30Z</time>
   </trkpt>
   <trkpt lat="31.9350880" lon="34.9782850">
    <ele>193.1</ele>
    <time>2018-08-18T05:33:31Z</time>
   </trkpt>
   <trkpt lat="31.9350840" lon="34.9783290">
    <ele>193.2</ele>
    <time>2018-08-18T05:33:32Z</time>
   </trkpt>
   <trkpt lat="31.9350770" lon="34.9783640">
    <ele>193.2</ele>
    <time>2018-08-18T05:33:33Z</time>
   </trkpt>
   <trkpt lat="31.9350680" lon="34.9783980">
    <ele>193.3</ele>
    <time>2018-08-18T05:33:34Z</time>
   </trkpt>
   <trkpt lat="31.9350520" lon="34.9784360">
    <ele>193.3</ele>
    <time>2018-08-18T05:33:35Z</time>
   </trkpt>
   <trkpt lat="31.9350410" lon="34.9784770">
    <ele>193.4</ele>
    <time>2018-08-18T05:33:36Z</time>
   </trkpt>
   <trkpt lat="31.9350300" lon="34.9785130">
    <ele>193.5</ele>
    <time>2018-08-18T05:33:37Z</time>
   </trkpt>
   <trkpt lat="31.9350210" lon="34.9785510">
    <ele>193.6</ele>
    <time>2018-08-18T05:33:38Z</time>
   </trkpt>
   <trkpt lat="31.9350100" lon="34.9785900">
    <ele>193.7</ele>
    <time>2018-08-18T05:33:39Z</time>
   </trkpt>
   <trkpt lat="31.9350010" lon="34.9786280">
    <ele>193.9</ele>
    <time>2018-08-18T05:33:40Z</time>
   </trkpt>
   <trkpt lat="31.9349890" lon="34.9786680">
    <ele>194.1</ele>
    <time>2018-08-18T05:33:41Z</time>
   </trkpt>
   <trkpt lat="31.9349770" lon="34.9787070">
    <ele>194.4</ele>
    <time>2018-08-18T05:33:42Z</time>
   </trkpt>
   <trkpt lat="31.9349600" lon="34.9787470">
    <ele>194.7</ele>
    <time>2018-08-18T05:33:43Z</time>
   </trkpt>
   <trkpt lat="31.9349420" lon="34.9787870">
    <ele>195.0</ele>
    <time>2018-08-18T05:33:44Z</time>
   </trkpt>
   <trkpt lat="31.9349260" lon="34.9788240">
    <ele>195.4</ele>
    <time>2018-08-18T05:33:45Z</time>
   </trkpt>
   <trkpt lat="31.9349110" lon="34.9788580">
    <ele>195.7</ele>
    <time>2018-08-18T05:33:46Z</time>
   </trkpt>
   <trkpt lat="31.9348950" lon="34.9788910">
    <ele>196.1</ele>
    <time>2018-08-18T05:33:47Z</time>
   </trkpt>
   <trkpt lat="31.9348790" lon="34.9789250">
    <ele>196.5</ele>
    <time>2018-08-18T05:33:48Z</time>
   </trkpt>
   <trkpt lat="31.9348620" lon="34.9789580">
    <ele>196.8</ele>
    <time>2018-08-18T05:33:49Z</time>
   </trkpt>
   <trkpt lat="31.9348450" lon="34.9789940">
    <ele>197.2</ele>
    <time>2018-08-18T05:33:50Z</time>
   </trkpt>
   <trkpt lat="31.9348330" lon="34.9790270">
    <ele>197.5</ele>
    <time>2018-08-18T05:33:51Z</time>
   </trkpt>
   <trkpt lat="31.9348200" lon="34.9790570">
    <ele>197.8</ele>
    <time>2018-08-18T05:33:52Z</time>
   </trkpt>
   <trkpt lat="31.9347970" lon="34.9791050">
    <ele>198.3</ele>
    <time>2018-08-18T05:33:54Z</time>
   </trkpt>
   <trkpt lat="31.9347630" lon="34.9791510">
    <ele>198.8</ele>
    <time>2018-08-18T05:33:56Z</time>
   </trkpt>
   <trkpt lat="31.9347390" lon="34.9791980">
    <ele>199.0</ele>
    <time>2018-08-18T05:33:58Z</time>
   </trkpt>
   <trkpt lat="31.9347150" lon="34.9792470">
    <ele>199.2</ele>
    <time>2018-08-18T05:34:00Z</time>
   </trkpt>
   <trkpt lat="31.9346950" lon="34.9792880">
    <ele>199.5</ele>
    <time>2018-08-18T05:34:02Z</time>
   </trkpt>
   <trkpt lat="31.9346710" lon="34.9793220">
    <ele>199.7</ele>
    <time>2018-08-18T05:34:04Z</time>
   </trkpt>
   <trkpt lat="31.9346470" lon="34.9793520">
    <ele>199.9</ele>
    <time>2018-08-18T05:34:06Z</time>
   </trkpt>
   <trkpt lat="31.9346320" lon="34.9793850">
    <ele>200.0</ele>
    <time>2018-08-18T05:34:08Z</time>
   </trkpt>
   <trkpt lat="31.9346110" lon="34.9794230">
    <ele>200.1</ele>
    <time>2018-08-18T05:34:10Z</time>
   </trkpt>
   <trkpt lat="31.9345890" lon="34.9794630">
    <ele>200.2</ele>
    <time>2018-08-18T05:34:12Z</time>
   </trkpt>
   <trkpt lat="31.9345710" lon="34.9795040">
    <ele>200.4</ele>
    <time>2018-08-18T05:34:14Z</time>
   </trkpt>
   <trkpt lat="31.9345640" lon="34.9795490">
    <ele>200.6</ele>
    <time>2018-08-18T05:34:16Z</time>
   </trkpt>
   <trkpt lat="31.9345520" lon="34.9796000">
    <ele>200.7</ele>
    <time>2018-08-18T05:34:18Z</time>
   </trkpt>
   <trkpt lat="31.9345580" lon="34.9796610">
    <ele>200.8</ele>
    <time>2018-08-18T05:34:20Z</time>
   </trkpt>
   <trkpt lat="31.9345650" lon="34.9796940">
    <ele>200.8</ele>
    <time>2018-08-18T05:34:21Z</time>
   </trkpt>
   <trkpt lat="31.9345760" lon="34.9797310">
    <ele>200.8</ele>
    <time>2018-08-18T05:34:22Z</time>
   </trkpt>
   <trkpt lat="31.9345870" lon="34.9797670">
    <ele>200.9</ele>
    <time>2018-08-18T05:34:23Z</time>
   </trkpt>
   <trkpt lat="31.9346010" lon="34.9798000">
    <ele>200.9</ele>
    <time>2018-08-18T05:34:24Z</time>
   </trkpt>
   <trkpt lat="31.9346140" lon="34.9798340">
    <ele>201.0</ele>
    <time>2018-08-18T05:34:25Z</time>
   </trkpt>
   <trkpt lat="31.9346270" lon="34.9798690">
    <ele>201.0</ele>
    <time>2018-08-18T05:34:26Z</time>
   </trkpt>
   <trkpt lat="31.9346410" lon="34.9799040">
    <ele>201.0</ele>
    <time>2018-08-18T05:34:27Z</time>
   </trkpt>
   <trkpt lat="31.9346580" lon="34.9799420">
    <ele>201.1</ele>
    <time>2018-08-18T05:34:28Z</time>
   </trkpt>
   <trkpt lat="31.9346730" lon="34.9799840">
    <ele>201.1</ele>
    <time>2018-08-18T05:34:29Z</time>
   </trkpt>
   <trkpt lat="31.9346850" lon="34.9800280">
    <ele>201.2</ele>
    <time>2018-08-18T05:34:30Z</time>
   </trkpt>
   <trkpt lat="31.9346930" lon="34.9800770">
    <ele>201.2</ele>
    <time>2018-08-18T05:34:31Z</time>
   </trkpt>
   <trkpt lat="31.9347000" lon="34.9801220">
    <ele>201.3</ele>
    <time>2018-08-18T05:34:32Z</time>
   </trkpt>
   <trkpt lat="31.9347020" lon="34.9801580">
    <ele>201.3</ele>
    <time>2018-08-18T05:34:33Z</time>
   </trkpt>
   <trkpt lat="31.9346990" lon="34.9801940">
    <ele>201.4</ele>
    <time>2018-08-18T05:34:34Z</time>
   </trkpt>
   <trkpt lat="31.9346940" lon="34.9802340">
    <ele>201.4</ele>
    <time>2018-08-18T05:34:35Z</time>
   </trkpt>
   <trkpt lat="31.9346900" lon="34.9802690">
    <ele>201.4</ele>
    <time>2018-08-18T05:34:36Z</time>
   </trkpt>
   <trkpt lat="31.9346890" lon="34.9803050">
    <ele>201.4</ele>
    <time>2018-08-18T05:34:37Z</time>
   </trkpt>
   <trkpt lat="31.9346880" lon="34.9803430">
    <ele>201.5</ele>
    <time>2018-08-18T05:34:38Z</time>
   </trkpt>
   <trkpt lat="31.9346800" lon="34.9803790">
    <ele>201.5</ele>
    <time>2018-08-18T05:34:39Z</time>
   </trkpt>
   <trkpt lat="31.9346710" lon="34.9804170">
    <ele>201.5</ele>
    <time>2018-08-18T05:34:40Z</time>
   </trkpt>
   <trkpt lat="31.9346630" lon="34.9804580">
    <ele>201.5</ele>
    <time>2018-08-18T05:34:41Z</time>
   </trkpt>
   <trkpt lat="31.9346540" lon="34.9804960">
    <ele>201.6</ele>
    <time>2018-08-18T05:34:42Z</time>
   </trkpt>
   <trkpt lat="31.9346470" lon="34.9805360">
    <ele>201.6</ele>
    <time>2018-08-18T05:34:43Z</time>
   </trkpt>
   <trkpt lat="31.9346410" lon="34.9805780">
    <ele>201.6</ele>
    <time>2018-08-18T05:34:44Z</time>
   </trkpt>
   <trkpt lat="31.9346320" lon="34.9806240">
    <ele>201.6</ele>
    <time>2018-08-18T05:34:45Z</time>
   </trkpt>
   <trkpt lat="31.9346240" lon="34.9806690">
    <ele>201.5</ele>
    <time>2018-08-18T05:34:46Z</time>
   </trkpt>
   <trkpt lat="31.9346150" lon="34.9807160">
    <ele>201.4</ele>
    <time>2018-08-18T05:34:47Z</time>
   </trkpt>
   <trkpt lat="31.9346050" lon="34.9807740">
    <ele>201.3</ele>
    <time>2018-08-18T05:34:48Z</time>
   </trkpt>
   <trkpt lat="31.9345950" lon="34.9808340">
    <ele>201.2</ele>
    <time>2018-08-18T05:34:49Z</time>
   </trkpt>
   <trkpt lat="31.9345830" lon="34.9808960">
    <ele>201.2</ele>
    <time>2018-08-18T05:34:50Z</time>
   </trkpt>
   <trkpt lat="31.9345670" lon="34.9809590">
    <ele>201.2</ele>
    <time>2018-08-18T05:34:51Z</time>
   </trkpt>
   <trkpt lat="31.9345500" lon="34.9810200">
    <ele>201.2</ele>
    <time>2018-08-18T05:34:52Z</time>
   </trkpt>
   <trkpt lat="31.9345380" lon="34.9810740">
    <ele>201.2</ele>
    <time>2018-08-18T05:34:53Z</time>
   </trkpt>
   <trkpt lat="31.9345250" lon="34.9811290">
    <ele>201.0</ele>
    <time>2018-08-18T05:34:54Z</time>
   </trkpt>
   <trkpt lat="31.9345100" lon="34.9811800">
    <ele>200.8</ele>
    <time>2018-08-18T05:34:55Z</time>
   </trkpt>
   <trkpt lat="31.9344960" lon="34.9812290">
    <ele>200.7</ele>
    <time>2018-08-18T05:34:56Z</time>
   </trkpt>
   <trkpt lat="31.9344800" lon="34.9812750">
    <ele>200.6</ele>
    <time>2018-08-18T05:34:57Z</time>
   </trkpt>
   <trkpt lat="31.9344620" lon="34.9813190">
    <ele>200.5</ele>
    <time>2018-08-18T05:34:58Z</time>
   </trkpt>
   <trkpt lat="31.9344480" lon="34.9813660">
    <ele>200.4</ele>
    <time>2018-08-18T05:34:59Z</time>
   </trkpt>
   <trkpt lat="31.9344340" lon="34.9814150">
    <ele>200.2</ele>
    <time>2018-08-18T05:35:00Z</time>
   </trkpt>
   <trkpt lat="31.9344260" lon="34.9814740">
    <ele>199.9</ele>
    <time>2018-08-18T05:35:01Z</time>
   </trkpt>
   <trkpt lat="31.9344170" lon="34.9815320">
    <ele>199.8</ele>
    <time>2018-08-18T05:35:02Z</time>
   </trkpt>
   <trkpt lat="31.9344110" lon="34.9815850">
    <ele>199.6</ele>
    <time>2018-08-18T05:35:03Z</time>
   </trkpt>
   <trkpt lat="31.9344060" lon="34.9816340">
    <ele>199.5</ele>
    <time>2018-08-18T05:35:04Z</time>
   </trkpt>
   <trkpt lat="31.9344010" lon="34.9816840">
    <ele>199.3</ele>
    <time>2018-08-18T05:35:05Z</time>
   </trkpt>
   <trkpt lat="31.9343930" lon="34.9817280">
    <ele>199.2</ele>
    <time>2018-08-18T05:35:06Z</time>
   </trkpt>
   <trkpt lat="31.9343850" lon="34.9817720">
    <ele>199.1</ele>
    <time>2018-08-18T05:35:07Z</time>
   </trkpt>
   <trkpt lat="31.9343920" lon="34.9818370">
    <ele>199.0</ele>
    <time>2018-08-18T05:35:09Z</time>
   </trkpt>
   <trkpt lat="31.9344120" lon="34.9818660">
    <ele>198.9</ele>
    <time>2018-08-18T05:35:10Z</time>
   </trkpt>
   <trkpt lat="31.9344370" lon="34.9818870">
    <ele>198.7</ele>
    <time>2018-08-18T05:35:11Z</time>
   </trkpt>
   <trkpt lat="31.9344640" lon="34.9819050">
    <ele>198.4</ele>
    <time>2018-08-18T05:35:12Z</time>
   </trkpt>
   <trkpt lat="31.9344980" lon="34.9819070">
    <ele>198.2</ele>
    <time>2018-08-18T05:35:13Z</time>
   </trkpt>
   <trkpt lat="31.9345340" lon="34.9818930">
    <ele>197.8</ele>
    <time>2018-08-18T05:35:14Z</time>
   </trkpt>
   <trkpt lat="31.9345740" lon="34.9818780">
    <ele>197.0</ele>
    <time>2018-08-18T05:35:15Z</time>
   </trkpt>
   <trkpt lat="31.9346200" lon="34.9818580">
    <ele>196.1</ele>
    <time>2018-08-18T05:35:16Z</time>
   </trkpt>
   <trkpt lat="31.9346630" lon="34.9818420">
    <ele>195.6</ele>
    <time>2018-08-18T05:35:17Z</time>
   </trkpt>
   <trkpt lat="31.9347160" lon="34.9818180">
    <ele>195.1</ele>
    <time>2018-08-18T05:35:18Z</time>
   </trkpt>
   <trkpt lat="31.9347770" lon="34.9818000">
    <ele>194.7</ele>
    <time>2018-08-18T05:35:19Z</time>
   </trkpt>
   <trkpt lat="31.9348340" lon="34.9817820">
    <ele>194.3</ele>
    <time>2018-08-18T05:35:20Z</time>
   </trkpt>
   <trkpt lat="31.9348890" lon="34.9817660">
    <ele>193.7</ele>
    <time>2018-08-18T05:35:21Z</time>
   </trkpt>
   <trkpt lat="31.9349430" lon="34.9817540">
    <ele>192.9</ele>
    <time>2018-08-18T05:35:22Z</time>
   </trkpt>
   <trkpt lat="31.9349920" lon="34.9817400">
    <ele>192.1</ele>
    <time>2018-08-18T05:35:23Z</time>
   </trkpt>
   <trkpt lat="31.9350450" lon="34.9817230">
    <ele>191.5</ele>
    <time>2018-08-18T05:35:24Z</time>
   </trkpt>
   <trkpt lat="31.9351030" lon="34.9817070">
    <ele>191.0</ele>
    <time>2018-08-18T05:35:25Z</time>
   </trkpt>
   <trkpt lat="31.9351630" lon="34.9816920">
    <ele>190.4</ele>
    <time>2018-08-18T05:35:26Z</time>
   </trkpt>
   <trkpt lat="31.9352200" lon="34.9816760">
    <ele>189.7</ele>
    <time>2018-08-18T05:35:27Z</time>
   </trkpt>
   <trkpt lat="31.9352810" lon="34.9816630">
    <ele>188.8</ele>
    <time>2018-08-18T05:35:28Z</time>
   </trkpt>
   <trkpt lat="31.9353390" lon="34.9816390">
    <ele>187.9</ele>
    <time>2018-08-18T05:35:29Z</time>
   </trkpt>
   <trkpt lat="31.9353970" lon="34.9816150">
    <ele>187.2</ele>
    <time>2018-08-18T05:35:30Z</time>
   </trkpt>
   <trkpt lat="31.9354520" lon="34.9815890">
    <ele>186.9</ele>
    <time>2018-08-18T05:35:31Z</time>
   </trkpt>
   <trkpt lat="31.9355040" lon="34.9815580">
    <ele>186.6</ele>
    <time>2018-08-18T05:35:32Z</time>
   </trkpt>
   <trkpt lat="31.9355480" lon="34.9815250">
    <ele>186.3</ele>
    <time>2018-08-18T05:35:33Z</time>
   </trkpt>
   <trkpt lat="31.9355830" lon="34.9814870">
    <ele>186.1</ele>
    <time>2018-08-18T05:35:34Z</time>
   </trkpt>
   <trkpt lat="31.9356080" lon="34.9814480">
    <ele>185.8</ele>
    <time>2018-08-18T05:35:35Z</time>
   </trkpt>
   <trkpt lat="31.9356290" lon="34.9814130">
    <ele>185.7</ele>
    <time>2018-08-18T05:35:36Z</time>
   </trkpt>
   <trkpt lat="31.9356460" lon="34.9813810">
    <ele>185.5</ele>
    <time>2018-08-18T05:35:37Z</time>
   </trkpt>
   <trkpt lat="31.9356610" lon="34.9813540">
    <ele>185.2</ele>
    <time>2018-08-18T05:35:38Z</time>
   </trkpt>
   <trkpt lat="31.9356750" lon="34.9813240">
    <ele>184.9</ele>
    <time>2018-08-18T05:35:39Z</time>
   </trkpt>
   <trkpt lat="31.9356910" lon="34.9812920">
    <ele>184.5</ele>
    <time>2018-08-18T05:35:40Z</time>
   </trkpt>
   <trkpt lat="31.9357120" lon="34.9812560">
    <ele>184.1</ele>
    <time>2018-08-18T05:35:41Z</time>
   </trkpt>
   <trkpt lat="31.9357370" lon="34.9812150">
    <ele>183.7</ele>
    <time>2018-08-18T05:35:42Z</time>
   </trkpt>
   <trkpt lat="31.9357600" lon="34.9811780">
    <ele>183.3</ele>
    <time>2018-08-18T05:35:43Z</time>
   </trkpt>
   <trkpt lat="31.9357800" lon="34.9811320">
    <ele>182.9</ele>
    <time>2018-08-18T05:35:44Z</time>
   </trkpt>
   <trkpt lat="31.9358000" lon="34.9810890">
    <ele>182.6</ele>
    <time>2018-08-18T05:35:45Z</time>
   </trkpt>
   <trkpt lat="31.9358180" lon="34.9810340">
    <ele>182.2</ele>
    <time>2018-08-18T05:35:46Z</time>
   </trkpt>
   <trkpt lat="31.9358360" lon="34.9809780">
    <ele>181.9</ele>
    <time>2018-08-18T05:35:47Z</time>
   </trkpt>
   <trkpt lat="31.9358600" lon="34.9809180">
    <ele>181.4</ele>
    <time>2018-08-18T05:35:48Z</time>
   </trkpt>
   <trkpt lat="31.9358850" lon="34.9808600">
    <ele>180.7</ele>
    <time>2018-08-18T05:35:49Z</time>
   </trkpt>
   <trkpt lat="31.9359050" lon="34.9808030">
    <ele>180.1</ele>
    <time>2018-08-18T05:35:50Z</time>
   </trkpt>
   <trkpt lat="31.9359200" lon="34.9807460">
    <ele>180.1</ele>
    <time>2018-08-18T05:35:51Z</time>
   </trkpt>
   <trkpt lat="31.9359310" lon="34.9806940">
    <ele>180.2</ele>
    <time>2018-08-18T05:35:52Z</time>
   </trkpt>
   <trkpt lat="31.9359330" lon="34.9806540">
    <ele>180.2</ele>
    <time>2018-08-18T05:35:53Z</time>
   </trkpt>
   <trkpt lat="31.9358960" lon="34.9805970">
    <ele>180.3</ele>
    <time>2018-08-18T05:35:55Z</time>
   </trkpt>
   <trkpt lat="31.9358680" lon="34.9805650">
    <ele>180.3</ele>
    <time>2018-08-18T05:35:56Z</time>
   </trkpt>
   <trkpt lat="31.9358490" lon="34.9805350">
    <ele>180.4</ele>
    <time>2018-08-18T05:35:57Z</time>
   </trkpt>
   <trkpt lat="31.9358300" lon="34.9805050">
    <ele>180.4</ele>
    <time>2018-08-18T05:35:58Z</time>
   </trkpt>
   <trkpt lat="31.9358110" lon="34.9804730">
    <ele>180.4</ele>
    <time>2018-08-18T05:35:59Z</time>
   </trkpt>
   <trkpt lat="31.9357940" lon="34.9804390">
    <ele>180.5</ele>
    <time>2018-08-18T05:36:00Z</time>
   </trkpt>
   <trkpt lat="31.9357750" lon="34.9804020">
    <ele>180.5</ele>
    <time>2018-08-18T05:36:01Z</time>
   </trkpt>
   <trkpt lat="31.9357560" lon="34.9803670">
    <ele>180.5</ele>
    <time>2018-08-18T05:36:02Z</time>
   </trkpt>
   <trkpt lat="31.9357300" lon="34.9803320">
    <ele>180.6</ele>
    <time>2018-08-18T05:36:03Z</time>
   </trkpt>
   <trkpt lat="31.9357090" lon="34.9802950">
    <ele>180.7</ele>
    <time>2018-08-18T05:36:04Z</time>
   </trkpt>
   <trkpt lat="31.9356910" lon="34.9802550">
    <ele>180.7</ele>
    <time>2018-08-18T05:36:05Z</time>
   </trkpt>
   <trkpt lat="31.9356710" lon="34.9802190">
    <ele>180.8</ele>
    <time>2018-08-18T05:36:06Z</time>
   </trkpt>
   <trkpt lat="31.9356480" lon="34.9801850">
    <ele>180.8</ele>
    <time>2018-08-18T05:36:07Z</time>
   </trkpt>
   <trkpt lat="31.9356280" lon="34.9801500">
    <ele>180.9</ele>
    <time>2018-08-18T05:36:08Z</time>
   </trkpt>
   <trkpt lat="31.9356080" lon="34.9801170">
    <ele>180.9</ele>
    <time>2018-08-18T05:36:09Z</time>
   </trkpt>
   <trkpt lat="31.9355880" lon="34.9800890">
    <ele>180.9</ele>
    <time>2018-08-18T05:36:10Z</time>
   </trkpt>
   <trkpt lat="31.9355690" lon="34.9800600">
    <ele>181.0</ele>
    <time>2018-08-18T05:36:11Z</time>
   </trkpt>
   <trkpt lat="31.9355510" lon="34.9800330">
    <ele>181.0</ele>
    <time>2018-08-18T05:36:12Z</time>
   </trkpt>
   <trkpt lat="31.9355340" lon="34.9800080">
    <ele>181.1</ele>
    <time>2018-08-18T05:36:13Z</time>
   </trkpt>
   <trkpt lat="31.9355000" lon="34.9799600">
    <ele>181.1</ele>
    <time>2018-08-18T05:36:15Z</time>
   </trkpt>
   <trkpt lat="31.9354680" lon="34.9799210">
    <ele>181.2</ele>
    <time>2018-08-18T05:36:17Z</time>
   </trkpt>
   <trkpt lat="31.9354560" lon="34.9798680">
    <ele>181.2</ele>
    <time>2018-08-18T05:36:19Z</time>
   </trkpt>
   <trkpt lat="31.9354590" lon="34.9798040">
    <ele>181.3</ele>
    <time>2018-08-18T05:36:21Z</time>
   </trkpt>
   <trkpt lat="31.9354620" lon="34.9797660">
    <ele>181.3</ele>
    <time>2018-08-18T05:36:22Z</time>
   </trkpt>
   <trkpt lat="31.9354670" lon="34.9797330">
    <ele>181.3</ele>
    <time>2018-08-18T05:36:23Z</time>
   </trkpt>
   <trkpt lat="31.9354680" lon="34.9796970">
    <ele>181.4</ele>
    <time>2018-08-18T05:36:24Z</time>
   </trkpt>
   <trkpt lat="31.9354690" lon="34.9796550">
    <ele>181.4</ele>
    <time>2018-08-18T05:36:25Z</time>
   </trkpt>
   <trkpt lat="31.9354700" lon="34.9796080">
    <ele>181.4</ele>
    <time>2018-08-18T05:36:26Z</time>
   </trkpt>
   <trkpt lat="31.9354700" lon="34.9795640">
    <ele>181.4</ele>
    <time>2018-08-18T05:36:27Z</time>
   </trkpt>
   <trkpt lat="31.9354700" lon="34.9795260">
    <ele>181.5</ele>
    <time>2018-08-18T05:36:28Z</time>
   </trkpt>
   <trkpt lat="31.9354740" lon="34.9794620">
    <ele>181.5</ele>
    <time>2018-08-18T05:36:30Z</time>
   </trkpt>
   <trkpt lat="31.9354730" lon="34.9794290">
    <ele>181.5</ele>
    <time>2018-08-18T05:36:31Z</time>
   </trkpt>
   <trkpt lat="31.9354740" lon="34.9793940">
    <ele>181.5</ele>
    <time>2018-08-18T05:36:32Z</time>
   </trkpt>
   <trkpt lat="31.9354750" lon="34.9793520">
    <ele>181.5</ele>
    <time>2018-08-18T05:36:33Z</time>
   </trkpt>
   <trkpt lat="31.9354810" lon="34.9792870">
    <ele>181.6</ele>
    <time>2018-08-18T05:36:35Z</time>
   </trkpt>
   <trkpt lat="31.9354810" lon="34.9792510">
    <ele>181.6</ele>
    <time>2018-08-18T05:36:36Z</time>
   </trkpt>
   <trkpt lat="31.9354840" lon="34.9792120">
    <ele>181.6</ele>
    <time>2018-08-18T05:36:37Z</time>
   </trkpt>
   <trkpt lat="31.9354980" lon="34.9791730">
    <ele>181.6</ele>
    <time>2018-08-18T05:36:38Z</time>
   </trkpt>
   <trkpt lat="31.9355080" lon="34.9791330">
    <ele>181.6</ele>
    <time>2018-08-18T05:36:39Z</time>
   </trkpt>
   <trkpt lat="31.9355200" lon="34.9790850">
    <ele>181.6</ele>
    <time>2018-08-18T05:36:40Z</time>
   </trkpt>
   <trkpt lat="31.9355350" lon="34.9790440">
    <ele>181.6</ele>
    <time>2018-08-18T05:36:41Z</time>
   </trkpt>
   <trkpt lat="31.9355510" lon="34.9789990">
    <ele>181.5</ele>
    <time>2018-08-18T05:36:42Z</time>
   </trkpt>
   <trkpt lat="31.9355690" lon="34.9789510">
    <ele>181.5</ele>
    <time>2018-08-18T05:36:43Z</time>
   </trkpt>
   <trkpt lat="31.9355850" lon="34.9789080">
    <ele>181.4</ele>
    <time>2018-08-18T05:36:44Z</time>
   </trkpt>
   <trkpt lat="31.9355980" lon="34.9788610">
    <ele>181.2</ele>
    <time>2018-08-18T05:36:45Z</time>
   </trkpt>
   <trkpt lat="31.9356130" lon="34.9788080">
    <ele>181.0</ele>
    <time>2018-08-18T05:36:46Z</time>
   </trkpt>
   <trkpt lat="31.9356270" lon="34.9787510">
    <ele>180.9</ele>
    <time>2018-08-18T05:36:47Z</time>
   </trkpt>
   <trkpt lat="31.9356420" lon="34.9787020">
    <ele>180.8</ele>
    <time>2018-08-18T05:36:48Z</time>
   </trkpt>
   <trkpt lat="31.9356550" lon="34.9786480">
    <ele>180.7</ele>
    <time>2018-08-18T05:36:49Z</time>
   </trkpt>
   <trkpt lat="31.9356680" lon="34.9785970">
    <ele>180.7</ele>
    <time>2018-08-18T05:36:50Z</time>
   </trkpt>
   <trkpt lat="31.9356810" lon="34.9785480">
    <ele>180.7</ele>
    <time>2018-08-18T05:36:51Z</time>
   </trkpt>
   <trkpt lat="31.9356970" lon="34.9785000">
    <ele>180.6</ele>
    <time>2018-08-18T05:36:52Z</time>
   </trkpt>
   <trkpt lat="31.9357140" lon="34.9784540">
    <ele>180.6</ele>
    <time>2018-08-18T05:36:53Z</time>
   </trkpt>
   <trkpt lat="31.9357310" lon="34.9783990">
    <ele>180.6</ele>
    <time>2018-08-18T05:36:54Z</time>
   </trkpt>
   <trkpt lat="31.9357470" lon="34.9783500">
    <ele>180.6</ele>
    <time>2018-08-18T05:36:55Z</time>
   </trkpt>
   <trkpt lat="31.9357660" lon="34.9783000">
    <ele>180.6</ele>
    <time>2018-08-18T05:36:56Z</time>
   </trkpt>
   <trkpt lat="31.9357920" lon="34.9782550">
    <ele>180.5</ele>
    <time>2018-08-18T05:36:57Z</time>
   </trkpt>
   <trkpt lat="31.9358270" lon="34.9782160">
    <ele>180.5</ele>
    <time>2018-08-18T05:36:58Z</time>
   </trkpt>
   <trkpt lat="31.9358660" lon="34.9781760">
    <ele>180.4</ele>
    <time>2018-08-18T05:36:59Z</time>
   </trkpt>
   <trkpt lat="31.9359040" lon="34.9781390">
    <ele>180.2</ele>
    <time>2018-08-18T05:37:00Z</time>
   </trkpt>
   <trkpt lat="31.9359450" lon="34.9781010">
    <ele>180.0</ele>
    <time>2018-08-18T05:37:01Z</time>
   </trkpt>
   <trkpt lat="31.9359820" lon="34.9780590">
    <ele>179.8</ele>
    <time>2018-08-18T05:37:02Z</time>
   </trkpt>
   <trkpt lat="31.9360260" lon="34.9780070">
    <ele>179.6</ele>
    <time>2018-08-18T05:37:03Z</time>
   </trkpt>
   <trkpt lat="31.9360690" lon="34.9779650">
    <ele>179.4</ele>
    <time>2018-08-18T05:37:04Z</time>
   </trkpt>
   <trkpt lat="31.9361110" lon="34.9779340">
    <ele>179.2</ele>
    <time>2018-08-18T05:37:05Z</time>
   </trkpt>
   <trkpt lat="31.9361600" lon="34.9779220">
    <ele>178.8</ele>
    <time>2018-08-18T05:37:06Z</time>
   </trkpt>
   <trkpt lat="31.9362080" lon="34.9779130">
    <ele>178.6</ele>
    <time>2018-08-18T05:37:07Z</time>
   </trkpt>
   <trkpt lat="31.9362550" lon="34.9779120">
    <ele>178.4</ele>
    <time>2018-08-18T05:37:08Z</time>
   </trkpt>
   <trkpt lat="31.9363040" lon="34.9779130">
    <ele>178.3</ele>
    <time>2018-08-18T05:37:09Z</time>
   </trkpt>
   <trkpt lat="31.9363410" lon="34.9779060">
    <ele>178.1</ele>
    <time>2018-08-18T05:37:10Z</time>
   </trkpt>
   <trkpt lat="31.9363720" lon="34.9778930">
    <ele>178.0</ele>
    <time>2018-08-18T05:37:11Z</time>
   </trkpt>
   <trkpt lat="31.9363990" lon="34.9778800">
    <ele>177.8</ele>
    <time>2018-08-18T05:37:12Z</time>
   </trkpt>
   <trkpt lat="31.9364390" lon="34.9778400">
    <ele>177.4</ele>
    <time>2018-08-18T05:37:14Z</time>
   </trkpt>
   <trkpt lat="31.9364510" lon="34.9777950">
    <ele>177.1</ele>
    <time>2018-08-18T05:37:15Z</time>
   </trkpt>
   <trkpt lat="31.9364610" lon="34.9777450">
    <ele>176.9</ele>
    <time>2018-08-18T05:37:16Z</time>
   </trkpt>
   <trkpt lat="31.9364740" lon="34.9776840">
    <ele>176.8</ele>
    <time>2018-08-18T05:37:17Z</time>
   </trkpt>
   <trkpt lat="31.9364860" lon="34.9776370">
    <ele>176.7</ele>
    <time>2018-08-18T05:37:18Z</time>
   </trkpt>
   <trkpt lat="31.9364930" lon="34.9775870">
    <ele>176.5</ele>
    <time>2018-08-18T05:37:19Z</time>
   </trkpt>
   <trkpt lat="31.9365070" lon="34.9775340">
    <ele>176.3</ele>
    <time>2018-08-18T05:37:20Z</time>
   </trkpt>
   <trkpt lat="31.9365160" lon="34.9774750">
    <ele>176.1</ele>
    <time>2018-08-18T05:37:21Z</time>
   </trkpt>
   <trkpt lat="31.9365260" lon="34.9774140">
    <ele>176.0</ele>
    <time>2018-08-18T05:37:22Z</time>
   </trkpt>
   <trkpt lat="31.9365400" lon="34.9773520">
    <ele>176.0</ele>
    <time>2018-08-18T05:37:23Z</time>
   </trkpt>
   <trkpt lat="31.9365520" lon="34.9772870">
    <ele>175.9</ele>
    <time>2018-08-18T05:37:24Z</time>
   </trkpt>
   <trkpt lat="31.9365630" lon="34.9772230">
    <ele>175.9</ele>
    <time>2018-08-18T05:37:25Z</time>
   </trkpt>
   <trkpt lat="31.9365740" lon="34.9771610">
    <ele>175.9</ele>
    <time>2018-08-18T05:37:26Z</time>
   </trkpt>
   <trkpt lat="31.9365810" lon="34.9771000">
    <ele>175.9</ele>
    <time>2018-08-18T05:37:27Z</time>
   </trkpt>
   <trkpt lat="31.9365810" lon="34.9770380">
    <ele>176.0</ele>
    <time>2018-08-18T05:37:28Z</time>
   </trkpt>
   <trkpt lat="31.9365720" lon="34.9769740">
    <ele>175.5</ele>
    <time>2018-08-18T05:37:29Z</time>
   </trkpt>
   <trkpt lat="31.9365610" lon="34.9769070">
    <ele>174.9</ele>
    <time>2018-08-18T05:37:30Z</time>
   </trkpt>
   <trkpt lat="31.9365630" lon="34.9768410">
    <ele>174.2</ele>
    <time>2018-08-18T05:37:31Z</time>
   </trkpt>
   <trkpt lat="31.9365670" lon="34.9767820">
    <ele>173.6</ele>
    <time>2018-08-18T05:37:32Z</time>
   </trkpt>
   <trkpt lat="31.9365680" lon="34.9767210">
    <ele>173.0</ele>
    <time>2018-08-18T05:37:33Z</time>
   </trkpt>
   <trkpt lat="31.9365650" lon="34.9766640">
    <ele>172.5</ele>
    <time>2018-08-18T05:37:34Z</time>
   </trkpt>
   <trkpt lat="31.9365550" lon="34.9766070">
    <ele>172.0</ele>
    <time>2018-08-18T05:37:35Z</time>
   </trkpt>
   <trkpt lat="31.9365530" lon="34.9765510">
    <ele>171.6</ele>
    <time>2018-08-18T05:37:36Z</time>
   </trkpt>
   <trkpt lat="31.9365510" lon="34.9764920">
    <ele>171.1</ele>
    <time>2018-08-18T05:37:37Z</time>
   </trkpt>
   <trkpt lat="31.9365440" lon="34.9764390">
    <ele>170.8</ele>
    <time>2018-08-18T05:37:38Z</time>
   </trkpt>
   <trkpt lat="31.9365400" lon="34.9763830">
    <ele>170.6</ele>
    <time>2018-08-18T05:37:39Z</time>
   </trkpt>
   <trkpt lat="31.9365370" lon="34.9763340">
    <ele>170.3</ele>
    <time>2018-08-18T05:37:40Z</time>
   </trkpt>
   <trkpt lat="31.9365310" lon="34.9762860">
    <ele>170.1</ele>
    <time>2018-08-18T05:37:41Z</time>
   </trkpt>
   <trkpt lat="31.9365240" lon="34.9762330">
    <ele>169.9</ele>
    <time>2018-08-18T05:37:42Z</time>
   </trkpt>
   <trkpt lat="31.9365150" lon="34.9761860">
    <ele>169.6</ele>
    <time>2018-08-18T05:37:43Z</time>
   </trkpt>
   <trkpt lat="31.9365070" lon="34.9761330">
    <ele>169.4</ele>
    <time>2018-08-18T05:37:44Z</time>
   </trkpt>
   <trkpt lat="31.9364960" lon="34.9760860">
    <ele>169.2</ele>
    <time>2018-08-18T05:37:45Z</time>
   </trkpt>
   <trkpt lat="31.9364820" lon="34.9760310">
    <ele>169.0</ele>
    <time>2018-08-18T05:37:46Z</time>
   </trkpt>
   <trkpt lat="31.9364710" lon="34.9759850">
    <ele>168.8</ele>
    <time>2018-08-18T05:37:47Z</time>
   </trkpt>
   <trkpt lat="31.9364590" lon="34.9759260">
    <ele>168.5</ele>
    <time>2018-08-18T05:37:48Z</time>
   </trkpt>
   <trkpt lat="31.9364450" lon="34.9758830">
    <ele>168.4</ele>
    <time>2018-08-18T05:37:49Z</time>
   </trkpt>
   <trkpt lat="31.9364270" lon="34.9758230">
    <ele>168.1</ele>
    <time>2018-08-18T05:37:50Z</time>
   </trkpt>
   <trkpt lat="31.9364090" lon="34.9757650">
    <ele>167.8</ele>
    <time>2018-08-18T05:37:51Z</time>
   </trkpt>
   <trkpt lat="31.9363860" lon="34.9757060">
    <ele>167.5</ele>
    <time>2018-08-18T05:37:52Z</time>
   </trkpt>
   <trkpt lat="31.9363630" lon="34.9756460">
    <ele>167.1</ele>
    <time>2018-08-18T05:37:53Z</time>
   </trkpt>
   <trkpt lat="31.9363370" lon="34.9755950">
    <ele>166.9</ele>
    <time>2018-08-18T05:37:54Z</time>
   </trkpt>
   <trkpt lat="31.9363060" lon="34.9755440">
    <ele>166.6</ele>
    <time>2018-08-18T05:37:55Z</time>
   </trkpt>
   <trkpt lat="31.9362760" lon="34.9754910">
    <ele>166.3</ele>
    <time>2018-08-18T05:37:56Z</time>
   </trkpt>
   <trkpt lat="31.9362440" lon="34.9754380">
    <ele>166.1</ele>
    <time>2018-08-18T05:37:57Z</time>
   </trkpt>
   <trkpt lat="31.9362050" lon="34.9753980">
    <ele>165.9</ele>
    <time>2018-08-18T05:37:58Z</time>
   </trkpt>
   <trkpt lat="31.9361760" lon="34.9753620">
    <ele>165.7</ele>
    <time>2018-08-18T05:37:59Z</time>
   </trkpt>
   <trkpt lat="31.9361370" lon="34.9753260">
    <ele>165.5</ele>
    <time>2018-08-18T05:38:00Z</time>
   </trkpt>
   <trkpt lat="31.9360940" lon="34.9752940">
    <ele>165.3</ele>
    <time>2018-08-18T05:38:01Z</time>
   </trkpt>
   <trkpt lat="31.9360470" lon="34.9752610">
    <ele>165.1</ele>
    <time>2018-08-18T05:38:02Z</time>
   </trkpt>
   <trkpt lat="31.9359980" lon="34.9752350">
    <ele>164.9</ele>
    <time>2018-08-18T05:38:03Z</time>
   </trkpt>
   <trkpt lat="31.9359500" lon="34.9752090">
    <ele>164.6</ele>
    <time>2018-08-18T05:38:04Z</time>
   </trkpt>
   <trkpt lat="31.9359060" lon="34.9751860">
    <ele>164.4</ele>
    <time>2018-08-18T05:38:05Z</time>
   </trkpt>
   <trkpt lat="31.9358600" lon="34.9751610">
    <ele>164.1</ele>
    <time>2018-08-18T05:38:06Z</time>
   </trkpt>
   <trkpt lat="31.9358130" lon="34.9751330">
    <ele>163.8</ele>
    <time>2018-08-18T05:38:07Z</time>
   </trkpt>
   <trkpt lat="31.9357670" lon="34.9751020">
    <ele>163.6</ele>
    <time>2018-08-18T05:38:08Z</time>
   </trkpt>
   <trkpt lat="31.9357250" lon="34.9750690">
    <ele>163.3</ele>
    <time>2018-08-18T05:38:09Z</time>
   </trkpt>
   <trkpt lat="31.9356840" lon="34.9750270">
    <ele>163.0</ele>
    <time>2018-08-18T05:38:10Z</time>
   </trkpt>
   <trkpt lat="31.9356440" lon="34.9749930">
    <ele>162.7</ele>
    <time>2018-08-18T05:38:11Z</time>
   </trkpt>
   <trkpt lat="31.9356060" lon="34.9749670">
    <ele>162.5</ele>
    <time>2018-08-18T05:38:12Z</time>
   </trkpt>
   <trkpt lat="31.9355650" lon="34.9749310">
    <ele>162.2</ele>
    <time>2018-08-18T05:38:13Z</time>
   </trkpt>
   <trkpt lat="31.9355280" lon="34.9748990">
    <ele>162.0</ele>
    <time>2018-08-18T05:38:14Z</time>
   </trkpt>
   <trkpt lat="31.9354910" lon="34.9748690">
    <ele>161.8</ele>
    <time>2018-08-18T05:38:15Z</time>
   </trkpt>
   <trkpt lat="31.9354550" lon="34.9748360">
    <ele>161.5</ele>
    <time>2018-08-18T05:38:16Z</time>
   </trkpt>
   <trkpt lat="31.9354170" lon="34.9748090">
    <ele>161.3</ele>
    <time>2018-08-18T05:38:17Z</time>
   </trkpt>
   <trkpt lat="31.9353790" lon="34.9747810">
    <ele>161.1</ele>
    <time>2018-08-18T05:38:18Z</time>
   </trkpt>
   <trkpt lat="31.9353420" lon="34.9747500">
    <ele>160.9</ele>
    <time>2018-08-18T05:38:19Z</time>
   </trkpt>
   <trkpt lat="31.9353090" lon="34.9747220">
    <ele>160.7</ele>
    <time>2018-08-18T05:38:20Z</time>
   </trkpt>
   <trkpt lat="31.9352790" lon="34.9746890">
    <ele>160.5</ele>
    <time>2018-08-18T05:38:21Z</time>
   </trkpt>
   <trkpt lat="31.9352550" lon="34.9746560">
    <ele>160.4</ele>
    <time>2018-08-18T05:38:22Z</time>
   </trkpt>
   <trkpt lat="31.9352350" lon="34.9746250">
    <ele>160.2</ele>
    <time>2018-08-18T05:38:23Z</time>
   </trkpt>
   <trkpt lat="31.9352210" lon="34.9745890">
    <ele>160.1</ele>
    <time>2018-08-18T05:38:24Z</time>
   </trkpt>
   <trkpt lat="31.9352160" lon="34.9745480">
    <ele>160.0</ele>
    <time>2018-08-18T05:38:25Z</time>
   </trkpt>
   <trkpt lat="31.9352200" lon="34.9745090">
    <ele>160.0</ele>
    <time>2018-08-18T05:38:26Z</time>
   </trkpt>
   <trkpt lat="31.9352340" lon="34.9744670">
    <ele>160.0</ele>
    <time>2018-08-18T05:38:27Z</time>
   </trkpt>
   <trkpt lat="31.9352520" lon="34.9744290">
    <ele>160.0</ele>
    <time>2018-08-18T05:38:28Z</time>
   </trkpt>
   <trkpt lat="31.9352770" lon="34.9743940">
    <ele>160.0</ele>
    <time>2018-08-18T05:38:29Z</time>
   </trkpt>
   <trkpt lat="31.9352980" lon="34.9743510">
    <ele>160.0</ele>
    <time>2018-08-18T05:38:30Z</time>
   </trkpt>
   <trkpt lat="31.9353210" lon="34.9743040">
    <ele>160.0</ele>
    <time>2018-08-18T05:38:31Z</time>
   </trkpt>
   <trkpt lat="31.9353470" lon="34.9742600">
    <ele>160.0</ele>
    <time>2018-08-18T05:38:32Z</time>
   </trkpt>
   <trkpt lat="31.9353740" lon="34.9742290">
    <ele>160.0</ele>
    <time>2018-08-18T05:38:33Z</time>
   </trkpt>
   <trkpt lat="31.9354030" lon="34.9742150">
    <ele>160.0</ele>
    <time>2018-08-18T05:38:34Z</time>
   </trkpt>
   <trkpt lat="31.9354500" lon="34.9742320">
    <ele>160.0</ele>
    <time>2018-08-18T05:38:36Z</time>
   </trkpt>
   <trkpt lat="31.9354960" lon="34.9742420">
    <ele>160.0</ele>
    <time>2018-08-18T05:38:38Z</time>
   </trkpt>
   <trkpt lat="31.9355250" lon="34.9742520">
    <ele>160.0</ele>
    <time>2018-08-18T05:38:39Z</time>
   </trkpt>
   <trkpt lat="31.9355640" lon="34.9742670">
    <ele>160.1</ele>
    <time>2018-08-18T05:38:40Z</time>
   </trkpt>
   <trkpt lat="31.9355930" lon="34.9742790">
    <ele>160.3</ele>
    <time>2018-08-18T05:38:41Z</time>
   </trkpt>
   <trkpt lat="31.9356240" lon="34.9742900">
    <ele>160.5</ele>
    <time>2018-08-18T05:38:42Z</time>
   </trkpt>
   <trkpt lat="31.9356650" lon="34.9743080">
    <ele>160.8</ele>
    <time>2018-08-18T05:38:44Z</time>
   </trkpt>
   <trkpt lat="31.9357040" lon="34.9743310">
    <ele>161.1</ele>
    <time>2018-08-18T05:38:46Z</time>
   </trkpt>
   <trkpt lat="31.9357490" lon="34.9743450">
    <ele>161.4</ele>
    <time>2018-08-18T05:38:48Z</time>
   </trkpt>
   <trkpt lat="31.9358010" lon="34.9743650">
    <ele>161.8</ele>
    <time>2018-08-18T05:38:50Z</time>
   </trkpt>
   <trkpt lat="31.9358510" lon="34.9743850">
    <ele>162.3</ele>
    <time>2018-08-18T05:38:52Z</time>
   </trkpt>
   <trkpt lat="31.9358810" lon="34.9744000">
    <ele>162.6</ele>
    <time>2018-08-18T05:38:53Z</time>
   </trkpt>
   <trkpt lat="31.9359260" lon="34.9744220">
    <ele>163.1</ele>
    <time>2018-08-18T05:38:55Z</time>
   </trkpt>
   <trkpt lat="31.9359770" lon="34.9744470">
    <ele>163.7</ele>
    <time>2018-08-18T05:38:57Z</time>
   </trkpt>
   <trkpt lat="31.9360180" lon="34.9744640">
    <ele>164.1</ele>
    <time>2018-08-18T05:38:59Z</time>
   </trkpt>
   <trkpt lat="31.9360480" lon="34.9744780">
    <ele>164.4</ele>
    <time>2018-08-18T05:39:01Z</time>
   </trkpt>
   <trkpt lat="31.9360810" lon="34.9744550">
    <ele>165.6</ele>
    <time>2018-08-18T05:39:04Z</time>
   </trkpt>
   <trkpt lat="31.9361050" lon="34.9744260">
    <ele>166.0</ele>
    <time>2018-08-18T05:39:07Z</time>
   </trkpt>
   <trkpt lat="31.9361220" lon="34.9743820">
    <ele>166.6</ele>
    <time>2018-08-18T05:39:10Z</time>
   </trkpt>
   <trkpt lat="31.9361290" lon="34.9743360">
    <ele>167.1</ele>
    <time>2018-08-18T05:39:13Z</time>
   </trkpt>
   <trkpt lat="31.9361460" lon="34.9743030">
    <ele>167.7</ele>
    <time>2018-08-18T05:39:16Z</time>
   </trkpt>
   <trkpt lat="31.9361540" lon="34.9742590">
    <ele>168.3</ele>
    <time>2018-08-18T05:39:19Z</time>
   </trkpt>
   <trkpt lat="31.9361570" lon="34.9742150">
    <ele>169.3</ele>
    <time>2018-08-18T05:39:22Z</time>
   </trkpt>
   <trkpt lat="31.9361650" lon="34.9741660">
    <ele>169.8</ele>
    <time>2018-08-18T05:39:25Z</time>
   </trkpt>
   <trkpt lat="31.9361670" lon="34.9741310">
    <ele>170.2</ele>
    <time>2018-08-18T05:39:28Z</time>
   </trkpt>
   <trkpt lat="31.9361680" lon="34.9740960">
    <ele>170.6</ele>
    <time>2018-08-18T05:39:31Z</time>
   </trkpt>
   <trkpt lat="31.9361750" lon="34.9740530">
    <ele>171.1</ele>
    <time>2018-08-18T05:39:34Z</time>
   </trkpt>
   <trkpt lat="31.9361840" lon="34.9740200">
    <ele>171.6</ele>
    <time>2018-08-18T05:39:37Z</time>
   </trkpt>
   <trkpt lat="31.9361910" lon="34.9739820">
    <ele>172.3</ele>
    <time>2018-08-18T05:39:40Z</time>
   </trkpt>
   <trkpt lat="31.9362080" lon="34.9739510">
    <ele>173.0</ele>
    <time>2018-08-18T05:39:43Z</time>
   </trkpt>
   <trkpt lat="31.9362160" lon="34.9739140">
    <ele>173.7</ele>
    <time>2018-08-18T05:39:45Z</time>
   </trkpt>
   <trkpt lat="31.9362320" lon="34.9738810">
    <ele>174.7</ele>
    <time>2018-08-18T05:39:48Z</time>
   </trkpt>
   <trkpt lat="31.9362440" lon="34.9738390">
    <ele>175.5</ele>
    <time>2018-08-18T05:39:51Z</time>
   </trkpt>
   <trkpt lat="31.9362510" lon="34.9737960">
    <ele>176.1</ele>
    <time>2018-08-18T05:39:55Z</time>
   </trkpt>
   <trkpt lat="31.9362580" lon="34.9737630">
    <ele>176.5</ele>
    <time>2018-08-18T05:39:58Z</time>
   </trkpt>
   <trkpt lat="31.9362780" lon="34.9737280">
    <ele>177.0</ele>
    <time>2018-08-18T05:40:01Z</time>
   </trkpt>
   <trkpt lat="31.9362890" lon="34.9736930">
    <ele>177.5</ele>
    <time>2018-08-18T05:40:05Z</time>
   </trkpt>
   <trkpt lat="31.9362950" lon="34.9736570">
    <ele>178.0</ele>
    <time>2018-08-18T05:40:08Z</time>
   </trkpt>
   <trkpt lat="31.9363020" lon="34.9736260">
    <ele>178.4</ele>
    <time>2018-08-18T05:40:11Z</time>
   </trkpt>
   <trkpt lat="31.9363070" lon="34.9735890">
    <ele>178.9</ele>
    <time>2018-08-18T05:40:15Z</time>
   </trkpt>
   <trkpt lat="31.9363190" lon="34.9735500">
    <ele>179.5</ele>
    <time>2018-08-18T05:40:18Z</time>
   </trkpt>
   <trkpt lat="31.9363210" lon="34.9735120">
    <ele>180.0</ele>
    <time>2018-08-18T05:40:21Z</time>
   </trkpt>
   <trkpt lat="31.9363130" lon="34.9734650">
    <ele>180.6</ele>
    <time>2018-08-18T05:40:24Z</time>
   </trkpt>
   <trkpt lat="31.9363050" lon="34.9734240">
    <ele>181.0</ele>
    <time>2018-08-18T05:40:26Z</time>
   </trkpt>
   <trkpt lat="31.9363100" lon="34.9733770">
    <ele>181.5</ele>
    <time>2018-08-18T05:40:29Z</time>
   </trkpt>
   <trkpt lat="31.9363150" lon="34.9733420">
    <ele>181.9</ele>
    <time>2018-08-18T05:40:32Z</time>
   </trkpt>
   <trkpt lat="31.9363190" lon="34.9733040">
    <ele>182.3</ele>
    <time>2018-08-18T05:40:35Z</time>
   </trkpt>
   <trkpt lat="31.9363170" lon="34.9732600">
    <ele>182.8</ele>
    <time>2018-08-18T05:40:39Z</time>
   </trkpt>
   <trkpt lat="31.9363100" lon="34.9732270">
    <ele>183.2</ele>
    <time>2018-08-18T05:40:43Z</time>
   </trkpt>
   <trkpt lat="31.9362970" lon="34.9731840">
    <ele>185.9</ele>
    <time>2018-08-18T05:40:46Z</time>
   </trkpt>
   <trkpt lat="31.9362790" lon="34.9731530">
    <ele>185.8</ele>
    <time>2018-08-18T05:40:49Z</time>
   </trkpt>
   <trkpt lat="31.9362910" lon="34.9731060">
    <ele>185.9</ele>
    <time>2018-08-18T05:40:54Z</time>
   </trkpt>
   <trkpt lat="31.9363210" lon="34.9730700">
    <ele>186.0</ele>
    <time>2018-08-18T05:40:57Z</time>
   </trkpt>
   <trkpt lat="31.9363410" lon="34.9730390">
    <ele>186.1</ele>
    <time>2018-08-18T05:41:01Z</time>
   </trkpt>
   <trkpt lat="31.9363590" lon="34.9730150">
    <ele>186.2</ele>
    <time>2018-08-18T05:41:13Z</time>
   </trkpt>
   <trkpt lat="31.9363730" lon="34.9730450">
    <ele>186.3</ele>
    <time>2018-08-18T05:41:29Z</time>
   </trkpt>
   <trkpt lat="31.9363810" lon="34.9730120">
    <ele>186.4</ele>
    <time>2018-08-18T05:42:03Z</time>
   </trkpt>
   <trkpt lat="31.9363850" lon="34.9729800">
    <ele>186.5</ele>
    <time>2018-08-18T05:42:05Z</time>
   </trkpt>
   <trkpt lat="31.9364170" lon="34.9729510">
    <ele>187.6</ele>
    <time>2018-08-18T05:42:08Z</time>
   </trkpt>
   <trkpt lat="31.9364410" lon="34.9729280">
    <ele>187.8</ele>
    <time>2018-08-18T05:42:10Z</time>
   </trkpt>
   <trkpt lat="31.9364580" lon="34.9728980">
    <ele>188.1</ele>
    <time>2018-08-18T05:42:13Z</time>
   </trkpt>
   <trkpt lat="31.9364620" lon="34.9728650">
    <ele>188.3</ele>
    <time>2018-08-18T05:42:15Z</time>
   </trkpt>
   <trkpt lat="31.9364510" lon="34.9728290">
    <ele>188.4</ele>
    <time>2018-08-18T05:42:17Z</time>
   </trkpt>
   <trkpt lat="31.9364430" lon="34.9727940">
    <ele>188.6</ele>
    <time>2018-08-18T05:42:20Z</time>
   </trkpt>
   <trkpt lat="31.9364370" lon="34.9727460">
    <ele>188.8</ele>
    <time>2018-08-18T05:42:23Z</time>
   </trkpt>
   <trkpt lat="31.9364300" lon="34.9727060">
    <ele>189.0</ele>
    <time>2018-08-18T05:42:26Z</time>
   </trkpt>
   <trkpt lat="31.9364230" lon="34.9726650">
    <ele>189.2</ele>
    <time>2018-08-18T05:42:29Z</time>
   </trkpt>
   <trkpt lat="31.9364170" lon="34.9726250">
    <ele>189.3</ele>
    <time>2018-08-18T05:42:32Z</time>
   </trkpt>
   <trkpt lat="31.9364160" lon="34.9725910">
    <ele>189.5</ele>
    <time>2018-08-18T05:42:34Z</time>
   </trkpt>
   <trkpt lat="31.9364200" lon="34.9725520">
    <ele>189.6</ele>
    <time>2018-08-18T05:42:37Z</time>
   </trkpt>
   <trkpt lat="31.9364240" lon="34.9725170">
    <ele>189.7</ele>
    <time>2018-08-18T05:42:39Z</time>
   </trkpt>
   <trkpt lat="31.9364260" lon="34.9724790">
    <ele>189.8</ele>
    <time>2018-08-18T05:42:41Z</time>
   </trkpt>
   <trkpt lat="31.9364260" lon="34.9724370">
    <ele>189.9</ele>
    <time>2018-08-18T05:42:44Z</time>
   </trkpt>
   <trkpt lat="31.9364270" lon="34.9723880">
    <ele>190.0</ele>
    <time>2018-08-18T05:42:47Z</time>
   </trkpt>
   <trkpt lat="31.9364300" lon="34.9723400">
    <ele>189.8</ele>
    <time>2018-08-18T05:42:50Z</time>
   </trkpt>
   <trkpt lat="31.9364310" lon="34.9723060">
    <ele>189.7</ele>
    <time>2018-08-18T05:42:52Z</time>
   </trkpt>
   <trkpt lat="31.9364330" lon="34.9722610">
    <ele>189.6</ele>
    <time>2018-08-18T05:42:55Z</time>
   </trkpt>
   <trkpt lat="31.9364240" lon="34.9722220">
    <ele>189.4</ele>
    <time>2018-08-18T05:42:57Z</time>
   </trkpt>
   <trkpt lat="31.9364210" lon="34.9721830">
    <ele>189.3</ele>
    <time>2018-08-18T05:43:00Z</time>
   </trkpt>
   <trkpt lat="31.9364260" lon="34.9721420">
    <ele>189.1</ele>
    <time>2018-08-18T05:43:02Z</time>
   </trkpt>
   <trkpt lat="31.9364260" lon="34.9720910">
    <ele>188.9</ele>
    <time>2018-08-18T05:43:06Z</time>
   </trkpt>
   <trkpt lat="31.9364290" lon="34.9720540">
    <ele>188.8</ele>
    <time>2018-08-18T05:43:08Z</time>
   </trkpt>
   <trkpt lat="31.9364230" lon="34.9719990">
    <ele>188.5</ele>
    <time>2018-08-18T05:43:10Z</time>
   </trkpt>
   <trkpt lat="31.9364260" lon="34.9719590">
    <ele>188.2</ele>
    <time>2018-08-18T05:43:12Z</time>
   </trkpt>
   <trkpt lat="31.9364280" lon="34.9719140">
    <ele>187.9</ele>
    <time>2018-08-18T05:43:14Z</time>
   </trkpt>
   <trkpt lat="31.9364270" lon="34.9718610">
    <ele>187.5</ele>
    <time>2018-08-18T05:43:16Z</time>
   </trkpt>
   <trkpt lat="31.9364270" lon="34.9718040">
    <ele>187.1</ele>
    <time>2018-08-18T05:43:18Z</time>
   </trkpt>
   <trkpt lat="31.9364280" lon="34.9717720">
    <ele>186.9</ele>
    <time>2018-08-18T05:43:19Z</time>
   </trkpt>
   <trkpt lat="31.9364300" lon="34.9717180">
    <ele>186.4</ele>
    <time>2018-08-18T05:43:21Z</time>
   </trkpt>
   <trkpt lat="31.9364290" lon="34.9716630">
    <ele>185.9</ele>
    <time>2018-08-18T05:43:23Z</time>
   </trkpt>
   <trkpt lat="31.9364320" lon="34.9715980">
    <ele>185.3</ele>
    <time>2018-08-18T05:43:25Z</time>
   </trkpt>
   <trkpt lat="31.9364370" lon="34.9715310">
    <ele>184.9</ele>
    <time>2018-08-18T05:43:27Z</time>
   </trkpt>
   <trkpt lat="31.9364410" lon="34.9714990">
    <ele>184.7</ele>
    <time>2018-08-18T05:43:28Z</time>
   </trkpt>
   <trkpt lat="31.9364440" lon="34.9714580">
    <ele>184.6</ele>
    <time>2018-08-18T05:43:29Z</time>
   </trkpt>
   <trkpt lat="31.9364460" lon="34.9714250">
    <ele>184.4</ele>
    <time>2018-08-18T05:43:30Z</time>
   </trkpt>
   <trkpt lat="31.9364490" lon="34.9713750">
    <ele>184.0</ele>
    <time>2018-08-18T05:43:31Z</time>
   </trkpt>
   <trkpt lat="31.9364500" lon="34.9713270">
    <ele>183.6</ele>
    <time>2018-08-18T05:43:32Z</time>
   </trkpt>
   <trkpt lat="31.9364500" lon="34.9712900">
    <ele>183.3</ele>
    <time>2018-08-18T05:43:33Z</time>
   </trkpt>
   <trkpt lat="31.9364500" lon="34.9712460">
    <ele>183.2</ele>
    <time>2018-08-18T05:43:34Z</time>
   </trkpt>
   <trkpt lat="31.9364490" lon="34.9711950">
    <ele>183.0</ele>
    <time>2018-08-18T05:43:35Z</time>
   </trkpt>
   <trkpt lat="31.9364500" lon="34.9711380">
    <ele>182.7</ele>
    <time>2018-08-18T05:43:36Z</time>
   </trkpt>
   <trkpt lat="31.9364490" lon="34.9710830">
    <ele>182.4</ele>
    <time>2018-08-18T05:43:37Z</time>
   </trkpt>
   <trkpt lat="31.9364440" lon="34.9710100">
    <ele>181.6</ele>
    <time>2018-08-18T05:43:38Z</time>
   </trkpt>
   <trkpt lat="31.9364440" lon="34.9709610">
    <ele>181.1</ele>
    <time>2018-08-18T05:43:39Z</time>
   </trkpt>
   <trkpt lat="31.9364500" lon="34.9709150">
    <ele>180.9</ele>
    <time>2018-08-18T05:43:40Z</time>
   </trkpt>
   <trkpt lat="31.9364560" lon="34.9708730">
    <ele>180.7</ele>
    <time>2018-08-18T05:43:41Z</time>
   </trkpt>
   <trkpt lat="31.9364600" lon="34.9708300">
    <ele>180.5</ele>
    <time>2018-08-18T05:43:42Z</time>
   </trkpt>
   <trkpt lat="31.9364600" lon="34.9707880">
    <ele>180.3</ele>
    <time>2018-08-18T05:43:43Z</time>
   </trkpt>
   <trkpt lat="31.9364710" lon="34.9707560">
    <ele>180.1</ele>
    <time>2018-08-18T05:43:44Z</time>
   </trkpt>
   <trkpt lat="31.9364780" lon="34.9707220">
    <ele>179.9</ele>
    <time>2018-08-18T05:43:45Z</time>
   </trkpt>
   <trkpt lat="31.9364860" lon="34.9706790">
    <ele>179.3</ele>
    <time>2018-08-18T05:43:46Z</time>
   </trkpt>
   <trkpt lat="31.9364850" lon="34.9706360">
    <ele>178.7</ele>
    <time>2018-08-18T05:43:47Z</time>
   </trkpt>
   <trkpt lat="31.9364850" lon="34.9705940">
    <ele>178.6</ele>
    <time>2018-08-18T05:43:48Z</time>
   </trkpt>
   <trkpt lat="31.9364850" lon="34.9705550">
    <ele>178.4</ele>
    <time>2018-08-18T05:43:49Z</time>
   </trkpt>
   <trkpt lat="31.9364870" lon="34.9705070">
    <ele>178.2</ele>
    <time>2018-08-18T05:43:51Z</time>
   </trkpt>
   <trkpt lat="31.9364730" lon="34.9704690">
    <ele>178.1</ele>
    <time>2018-08-18T05:43:53Z</time>
   </trkpt>
   <trkpt lat="31.9364570" lon="34.9704050">
    <ele>178.2</ele>
    <time>2018-08-18T05:43:55Z</time>
   </trkpt>
   <trkpt lat="31.9364520" lon="34.9703690">
    <ele>178.2</ele>
    <time>2018-08-18T05:43:56Z</time>
   </trkpt>
   <trkpt lat="31.9364400" lon="34.9703370">
    <ele>178.3</ele>
    <time>2018-08-18T05:43:57Z</time>
   </trkpt>
   <trkpt lat="31.9364250" lon="34.9702910">
    <ele>178.3</ele>
    <time>2018-08-18T05:43:58Z</time>
   </trkpt>
   <trkpt lat="31.9364130" lon="34.9702530">
    <ele>178.4</ele>
    <time>2018-08-18T05:43:59Z</time>
   </trkpt>
   <trkpt lat="31.9363830" lon="34.9701980">
    <ele>178.5</ele>
    <time>2018-08-18T05:44:01Z</time>
   </trkpt>
   <trkpt lat="31.9363650" lon="34.9701730">
    <ele>178.5</ele>
    <time>2018-08-18T05:44:02Z</time>
   </trkpt>
   <trkpt lat="31.9363420" lon="34.9701390">
    <ele>178.6</ele>
    <time>2018-08-18T05:44:03Z</time>
   </trkpt>
   <trkpt lat="31.9363140" lon="34.9700930">
    <ele>178.6</ele>
    <time>2018-08-18T05:44:04Z</time>
   </trkpt>
   <trkpt lat="31.9362900" lon="34.9700580">
    <ele>178.6</ele>
    <time>2018-08-18T05:44:05Z</time>
   </trkpt>
   <trkpt lat="31.9362650" lon="34.9700210">
    <ele>178.6</ele>
    <time>2018-08-18T05:44:06Z</time>
   </trkpt>
   <trkpt lat="31.9362370" lon="34.9699800">
    <ele>178.5</ele>
    <time>2018-08-18T05:44:07Z</time>
   </trkpt>
   <trkpt lat="31.9362160" lon="34.9699250">
    <ele>178.5</ele>
    <time>2018-08-18T05:44:08Z</time>
   </trkpt>
   <trkpt lat="31.9361990" lon="34.9698820">
    <ele>178.5</ele>
    <time>2018-08-18T05:44:09Z</time>
   </trkpt>
   <trkpt lat="31.9361880" lon="34.9698380">
    <ele>178.5</ele>
    <time>2018-08-18T05:44:10Z</time>
   </trkpt>
   <trkpt lat="31.9361730" lon="34.9697940">
    <ele>178.5</ele>
    <time>2018-08-18T05:44:11Z</time>
   </trkpt>
   <trkpt lat="31.9361570" lon="34.9697470">
    <ele>178.5</ele>
    <time>2018-08-18T05:44:12Z</time>
   </trkpt>
   <trkpt lat="31.9361340" lon="34.9696840">
    <ele>178.4</ele>
    <time>2018-08-18T05:44:13Z</time>
   </trkpt>
   <trkpt lat="31.9361090" lon="34.9695960">
    <ele>178.4</ele>
    <time>2018-08-18T05:44:14Z</time>
   </trkpt>
   <trkpt lat="31.9360850" lon="34.9695350">
    <ele>178.3</ele>
    <time>2018-08-18T05:44:15Z</time>
   </trkpt>
   <trkpt lat="31.9360610" lon="34.9694750">
    <ele>178.2</ele>
    <time>2018-08-18T05:44:16Z</time>
   </trkpt>
   <trkpt lat="31.9360390" lon="34.9694140">
    <ele>178.1</ele>
    <time>2018-08-18T05:44:17Z</time>
   </trkpt>
   <trkpt lat="31.9360180" lon="34.9693550">
    <ele>178.0</ele>
    <time>2018-08-18T05:44:18Z</time>
   </trkpt>
   <trkpt lat="31.9359920" lon="34.9692960">
    <ele>178.0</ele>
    <time>2018-08-18T05:44:19Z</time>
   </trkpt>
   <trkpt lat="31.9359670" lon="34.9692300">
    <ele>177.8</ele>
    <time>2018-08-18T05:44:20Z</time>
   </trkpt>
   <trkpt lat="31.9359440" lon="34.9691680">
    <ele>177.7</ele>
    <time>2018-08-18T05:44:21Z</time>
   </trkpt>
   <trkpt lat="31.9359240" lon="34.9691100">
    <ele>177.6</ele>
    <time>2018-08-18T05:44:22Z</time>
   </trkpt>
   <trkpt lat="31.9359100" lon="34.9690640">
    <ele>177.4</ele>
    <time>2018-08-18T05:44:23Z</time>
   </trkpt>
   <trkpt lat="31.9358900" lon="34.9690180">
    <ele>177.3</ele>
    <time>2018-08-18T05:44:24Z</time>
   </trkpt>
   <trkpt lat="31.9358690" lon="34.9689690">
    <ele>177.2</ele>
    <time>2018-08-18T05:44:25Z</time>
   </trkpt>
   <trkpt lat="31.9358490" lon="34.9689230">
    <ele>177.1</ele>
    <time>2018-08-18T05:44:26Z</time>
   </trkpt>
   <trkpt lat="31.9358260" lon="34.9688790">
    <ele>176.9</ele>
    <time>2018-08-18T05:44:27Z</time>
   </trkpt>
   <trkpt lat="31.9358050" lon="34.9688350">
    <ele>176.7</ele>
    <time>2018-08-18T05:44:28Z</time>
   </trkpt>
   <trkpt lat="31.9357850" lon="34.9688010">
    <ele>176.5</ele>
    <time>2018-08-18T05:44:29Z</time>
   </trkpt>
   <trkpt lat="31.9357640" lon="34.9687600">
    <ele>176.2</ele>
    <time>2018-08-18T05:44:30Z</time>
   </trkpt>
   <trkpt lat="31.9357390" lon="34.9687250">
    <ele>175.8</ele>
    <time>2018-08-18T05:44:31Z</time>
   </trkpt>
   <trkpt lat="31.9357160" lon="34.9686930">
    <ele>175.6</ele>
    <time>2018-08-18T05:44:32Z</time>
   </trkpt>
   <trkpt lat="31.9356930" lon="34.9686540">
    <ele>175.3</ele>
    <time>2018-08-18T05:44:33Z</time>
   </trkpt>
   <trkpt lat="31.9356730" lon="34.9686180">
    <ele>175.1</ele>
    <time>2018-08-18T05:44:34Z</time>
   </trkpt>
   <trkpt lat="31.9356550" lon="34.9685840">
    <ele>174.9</ele>
    <time>2018-08-18T05:44:35Z</time>
   </trkpt>
   <trkpt lat="31.9356360" lon="34.9685480">
    <ele>174.7</ele>
    <time>2018-08-18T05:44:36Z</time>
   </trkpt>
   <trkpt lat="31.9356180" lon="34.9685150">
    <ele>174.5</ele>
    <time>2018-08-18T05:44:37Z</time>
   </trkpt>
   <trkpt lat="31.9355990" lon="34.9684790">
    <ele>174.4</ele>
    <time>2018-08-18T05:44:38Z</time>
   </trkpt>
   <trkpt lat="31.9355800" lon="34.9684450">
    <ele>174.2</ele>
    <time>2018-08-18T05:44:39Z</time>
   </trkpt>
   <trkpt lat="31.9355610" lon="34.9684050">
    <ele>174.0</ele>
    <time>2018-08-18T05:44:40Z</time>
   </trkpt>
   <trkpt lat="31.9355420" lon="34.9683670">
    <ele>173.8</ele>
    <time>2018-08-18T05:44:41Z</time>
   </trkpt>
   <trkpt lat="31.9355230" lon="34.9683330">
    <ele>173.6</ele>
    <time>2018-08-18T05:44:42Z</time>
   </trkpt>
   <trkpt lat="31.9355030" lon="34.9682970">
    <ele>173.4</ele>
    <time>2018-08-18T05:44:43Z</time>
   </trkpt>
   <trkpt lat="31.9354830" lon="34.9682580">
    <ele>173.2</ele>
    <time>2018-08-18T05:44:44Z</time>
   </trkpt>
   <trkpt lat="31.9354600" lon="34.9682310">
    <ele>173.0</ele>
    <time>2018-08-18T05:44:45Z</time>
   </trkpt>
   <trkpt lat="31.9354380" lon="34.9682040">
    <ele>172.9</ele>
    <time>2018-08-18T05:44:46Z</time>
   </trkpt>
   <trkpt lat="31.9354150" lon="34.9681810">
    <ele>172.7</ele>
    <time>2018-08-18T05:44:47Z</time>
   </trkpt>
   <trkpt lat="31.9353980" lon="34.9681560">
    <ele>172.5</ele>
    <time>2018-08-18T05:44:48Z</time>
   </trkpt>
   <trkpt lat="31.9353790" lon="34.9681330">
    <ele>172.3</ele>
    <time>2018-08-18T05:44:49Z</time>
   </trkpt>
   <trkpt lat="31.9353390" lon="34.9680910">
    <ele>172.0</ele>
    <time>2018-08-18T05:44:51Z</time>
   </trkpt>
   <trkpt lat="31.9353130" lon="34.9680610">
    <ele>171.8</ele>
    <time>2018-08-18T05:44:52Z</time>
   </trkpt>
   <trkpt lat="31.9352880" lon="34.9680300">
    <ele>171.6</ele>
    <time>2018-08-18T05:44:53Z</time>
   </trkpt>
   <trkpt lat="31.9352660" lon="34.9680020">
    <ele>171.5</ele>
    <time>2018-08-18T05:44:54Z</time>
   </trkpt>
   <trkpt lat="31.9352430" lon="34.9679710">
    <ele>171.5</ele>
    <time>2018-08-18T05:44:55Z</time>
   </trkpt>
   <trkpt lat="31.9352250" lon="34.9679310">
    <ele>171.4</ele>
    <time>2018-08-18T05:44:56Z</time>
   </trkpt>
   <trkpt lat="31.9352040" lon="34.9678970">
    <ele>171.3</ele>
    <time>2018-08-18T05:44:57Z</time>
   </trkpt>
   <trkpt lat="31.9351800" lon="34.9678560">
    <ele>171.1</ele>
    <time>2018-08-18T05:44:58Z</time>
   </trkpt>
   <trkpt lat="31.9351590" lon="34.9678170">
    <ele>171.0</ele>
    <time>2018-08-18T05:44:59Z</time>
   </trkpt>
   <trkpt lat="31.9351430" lon="34.9677770">
    <ele>170.9</ele>
    <time>2018-08-18T05:45:00Z</time>
   </trkpt>
   <trkpt lat="31.9351210" lon="34.9677500">
    <ele>170.8</ele>
    <time>2018-08-18T05:45:01Z</time>
   </trkpt>
   <trkpt lat="31.9351060" lon="34.9677200">
    <ele>170.7</ele>
    <time>2018-08-18T05:45:02Z</time>
   </trkpt>
   <trkpt lat="31.9350960" lon="34.9676850">
    <ele>170.6</ele>
    <time>2018-08-18T05:45:03Z</time>
   </trkpt>
   <trkpt lat="31.9350880" lon="34.9676500">
    <ele>170.6</ele>
    <time>2018-08-18T05:45:04Z</time>
   </trkpt>
   <trkpt lat="31.9350860" lon="34.9676120">
    <ele>170.5</ele>
    <time>2018-08-18T05:45:05Z</time>
   </trkpt>
   <trkpt lat="31.9350850" lon="34.9675790">
    <ele>170.4</ele>
    <time>2018-08-18T05:45:06Z</time>
   </trkpt>
   <trkpt lat="31.9350840" lon="34.9675440">
    <ele>170.3</ele>
    <time>2018-08-18T05:45:07Z</time>
   </trkpt>
   <trkpt lat="31.9350880" lon="34.9675040">
    <ele>170.2</ele>
    <time>2018-08-18T05:45:08Z</time>
   </trkpt>
   <trkpt lat="31.9350930" lon="34.9674620">
    <ele>170.1</ele>
    <time>2018-08-18T05:45:09Z</time>
   </trkpt>
   <trkpt lat="31.9351040" lon="34.9674230">
    <ele>170.0</ele>
    <time>2018-08-18T05:45:10Z</time>
   </trkpt>
   <trkpt lat="31.9351210" lon="34.9673870">
    <ele>169.9</ele>
    <time>2018-08-18T05:45:11Z</time>
   </trkpt>
   <trkpt lat="31.9351360" lon="34.9673510">
    <ele>169.7</ele>
    <time>2018-08-18T05:45:12Z</time>
   </trkpt>
   <trkpt lat="31.9351490" lon="34.9673210">
    <ele>169.6</ele>
    <time>2018-08-18T05:45:13Z</time>
   </trkpt>
   <trkpt lat="31.9351610" lon="34.9672750">
    <ele>169.4</ele>
    <time>2018-08-18T05:45:15Z</time>
   </trkpt>
   <trkpt lat="31.9351550" lon="34.9672420">
    <ele>169.2</ele>
    <time>2018-08-18T05:45:16Z</time>
   </trkpt>
   <trkpt lat="31.9351420" lon="34.9672120">
    <ele>169.0</ele>
    <time>2018-08-18T05:45:17Z</time>
   </trkpt>
   <trkpt lat="31.9350970" lon="34.9671890">
    <ele>168.8</ele>
    <time>2018-08-18T05:45:19Z</time>
   </trkpt>
   <trkpt lat="31.9350690" lon="34.9671870">
    <ele>168.8</ele>
    <time>2018-08-18T05:45:20Z</time>
   </trkpt>
   <trkpt lat="31.9350170" lon="34.9671830">
    <ele>168.6</ele>
    <time>2018-08-18T05:45:22Z</time>
   </trkpt>
   <trkpt lat="31.9349710" lon="34.9671640">
    <ele>168.3</ele>
    <time>2018-08-18T05:45:24Z</time>
   </trkpt>
   <trkpt lat="31.9349450" lon="34.9671520">
    <ele>168.1</ele>
    <time>2018-08-18T05:45:25Z</time>
   </trkpt>
   <trkpt lat="31.9349180" lon="34.9671360">
    <ele>168.0</ele>
    <time>2018-08-18T05:45:26Z</time>
   </trkpt>
   <trkpt lat="31.9348920" lon="34.9671030">
    <ele>167.8</ele>
    <time>2018-08-18T05:45:27Z</time>
   </trkpt>
   <trkpt lat="31.9348590" lon="34.9670690">
    <ele>167.5</ele>
    <time>2018-08-18T05:45:28Z</time>
   </trkpt>
   <trkpt lat="31.9348230" lon="34.9670350">
    <ele>167.2</ele>
    <time>2018-08-18T05:45:29Z</time>
   </trkpt>
   <trkpt lat="31.9347900" lon="34.9670000">
    <ele>166.6</ele>
    <time>2018-08-18T05:45:30Z</time>
   </trkpt>
   <trkpt lat="31.9347610" lon="34.9669710">
    <ele>166.2</ele>
    <time>2018-08-18T05:45:31Z</time>
   </trkpt>
   <trkpt lat="31.9347300" lon="34.9669460">
    <ele>165.9</ele>
    <time>2018-08-18T05:45:32Z</time>
   </trkpt>
   <trkpt lat="31.9346970" lon="34.9669230">
    <ele>165.6</ele>
    <time>2018-08-18T05:45:33Z</time>
   </trkpt>
   <trkpt lat="31.9346650" lon="34.9669040">
    <ele>165.3</ele>
    <time>2018-08-18T05:45:34Z</time>
   </trkpt>
   <trkpt lat="31.9346380" lon="34.9668860">
    <ele>165.0</ele>
    <time>2018-08-18T05:45:35Z</time>
   </trkpt>
   <trkpt lat="31.9346120" lon="34.9668660">
    <ele>164.5</ele>
    <time>2018-08-18T05:45:36Z</time>
   </trkpt>
   <trkpt lat="31.9345720" lon="34.9668300">
    <ele>163.6</ele>
    <time>2018-08-18T05:45:38Z</time>
   </trkpt>
   <trkpt lat="31.9345520" lon="34.9667860">
    <ele>163.1</ele>
    <time>2018-08-18T05:45:40Z</time>
   </trkpt>
   <trkpt lat="31.9345340" lon="34.9667430">
    <ele>162.5</ele>
    <time>2018-08-18T05:45:42Z</time>
   </trkpt>
   <trkpt lat="31.9345150" lon="34.9666830">
    <ele>161.6</ele>
    <time>2018-08-18T05:45:44Z</time>
   </trkpt>
   <trkpt lat="31.9345010" lon="34.9666480">
    <ele>161.1</ele>
    <time>2018-08-18T05:45:45Z</time>
   </trkpt>
   <trkpt lat="31.9344860" lon="34.9666080">
    <ele>160.6</ele>
    <time>2018-08-18T05:45:46Z</time>
   </trkpt>
   <trkpt lat="31.9344730" lon="34.9665710">
    <ele>160.1</ele>
    <time>2018-08-18T05:45:47Z</time>
   </trkpt>
   <trkpt lat="31.9344580" lon="34.9665330">
    <ele>159.7</ele>
    <time>2018-08-18T05:45:48Z</time>
   </trkpt>
   <trkpt lat="31.9344430" lon="34.9665030">
    <ele>159.3</ele>
    <time>2018-08-18T05:45:49Z</time>
   </trkpt>
   <trkpt lat="31.9344070" lon="34.9664480">
    <ele>158.5</ele>
    <time>2018-08-18T05:45:51Z</time>
   </trkpt>
   <trkpt lat="31.9343870" lon="34.9664170">
    <ele>158.1</ele>
    <time>2018-08-18T05:45:52Z</time>
   </trkpt>
   <trkpt lat="31.9343620" lon="34.9663850">
    <ele>157.6</ele>
    <time>2018-08-18T05:45:53Z</time>
   </trkpt>
   <trkpt lat="31.9343390" lon="34.9663640">
    <ele>157.2</ele>
    <time>2018-08-18T05:45:54Z</time>
   </trkpt>
   <trkpt lat="31.9343120" lon="34.9663430">
    <ele>156.8</ele>
    <time>2018-08-18T05:45:55Z</time>
   </trkpt>
   <trkpt lat="31.9342680" lon="34.9663160">
    <ele>156.2</ele>
    <time>2018-08-18T05:45:57Z</time>
   </trkpt>
   <trkpt lat="31.9342390" lon="34.9663020">
    <ele>155.7</ele>
    <time>2018-08-18T05:45:58Z</time>
   </trkpt>
   <trkpt lat="31.9342050" lon="34.9662840">
    <ele>155.1</ele>
    <time>2018-08-18T05:46:00Z</time>
   </trkpt>
   <trkpt lat="31.9341900" lon="34.9662510">
    <ele>154.6</ele>
    <time>2018-08-18T05:46:03Z</time>
   </trkpt>
   <trkpt lat="31.9341800" lon="34.9662040">
    <ele>153.7</ele>
    <time>2018-08-18T05:46:05Z</time>
   </trkpt>
   <trkpt lat="31.9341940" lon="34.9661580">
    <ele>153.6</ele>
    <time>2018-08-18T05:46:08Z</time>
   </trkpt>
   <trkpt lat="31.9342050" lon="34.9661060">
    <ele>153.4</ele>
    <time>2018-08-18T05:46:10Z</time>
   </trkpt>
   <trkpt lat="31.9342090" lon="34.9660660">
    <ele>153.3</ele>
    <time>2018-08-18T05:46:11Z</time>
   </trkpt>
   <trkpt lat="31.9342210" lon="34.9660000">
    <ele>153.1</ele>
    <time>2018-08-18T05:46:13Z</time>
   </trkpt>
   <trkpt lat="31.9342250" lon="34.9659590">
    <ele>152.9</ele>
    <time>2018-08-18T05:46:14Z</time>
   </trkpt>
   <trkpt lat="31.9342300" lon="34.9659210">
    <ele>152.8</ele>
    <time>2018-08-18T05:46:15Z</time>
   </trkpt>
   <trkpt lat="31.9342360" lon="34.9658770">
    <ele>152.7</ele>
    <time>2018-08-18T05:46:16Z</time>
   </trkpt>
   <trkpt lat="31.9342440" lon="34.9658370">
    <ele>152.6</ele>
    <time>2018-08-18T05:46:17Z</time>
   </trkpt>
   <trkpt lat="31.9342500" lon="34.9657990">
    <ele>152.5</ele>
    <time>2018-08-18T05:46:18Z</time>
   </trkpt>
   <trkpt lat="31.9342540" lon="34.9657650">
    <ele>152.4</ele>
    <time>2018-08-18T05:46:19Z</time>
   </trkpt>
   <trkpt lat="31.9342570" lon="34.9657310">
    <ele>152.3</ele>
    <time>2018-08-18T05:46:20Z</time>
   </trkpt>
   <trkpt lat="31.9342590" lon="34.9656960">
    <ele>152.3</ele>
    <time>2018-08-18T05:46:21Z</time>
   </trkpt>
   <trkpt lat="31.9342630" lon="34.9656580">
    <ele>152.2</ele>
    <time>2018-08-18T05:46:22Z</time>
   </trkpt>
   <trkpt lat="31.9342670" lon="34.9656200">
    <ele>152.0</ele>
    <time>2018-08-18T05:46:23Z</time>
   </trkpt>
   <trkpt lat="31.9342690" lon="34.9655770">
    <ele>151.8</ele>
    <time>2018-08-18T05:46:24Z</time>
   </trkpt>
   <trkpt lat="31.9342710" lon="34.9655300">
    <ele>151.6</ele>
    <time>2018-08-18T05:46:25Z</time>
   </trkpt>
   <trkpt lat="31.9342700" lon="34.9654860">
    <ele>151.4</ele>
    <time>2018-08-18T05:46:26Z</time>
   </trkpt>
   <trkpt lat="31.9342690" lon="34.9654360">
    <ele>151.0</ele>
    <time>2018-08-18T05:46:27Z</time>
   </trkpt>
   <trkpt lat="31.9342640" lon="34.9653900">
    <ele>150.6</ele>
    <time>2018-08-18T05:46:28Z</time>
   </trkpt>
   <trkpt lat="31.9342590" lon="34.9653330">
    <ele>150.0</ele>
    <time>2018-08-18T05:46:29Z</time>
   </trkpt>
   <trkpt lat="31.9342560" lon="34.9652720">
    <ele>149.4</ele>
    <time>2018-08-18T05:46:30Z</time>
   </trkpt>
   <trkpt lat="31.9342540" lon="34.9651960">
    <ele>148.7</ele>
    <time>2018-08-18T05:46:31Z</time>
   </trkpt>
   <trkpt lat="31.9342570" lon="34.9651260">
    <ele>148.0</ele>
    <time>2018-08-18T05:46:32Z</time>
   </trkpt>
   <trkpt lat="31.9342660" lon="34.9650580">
    <ele>147.3</ele>
    <time>2018-08-18T05:46:33Z</time>
   </trkpt>
   <trkpt lat="31.9342840" lon="34.9649800">
    <ele>146.5</ele>
    <time>2018-08-18T05:46:34Z</time>
   </trkpt>
   <trkpt lat="31.9343070" lon="34.9649100">
    <ele>145.8</ele>
    <time>2018-08-18T05:46:35Z</time>
   </trkpt>
   <trkpt lat="31.9343310" lon="34.9648510">
    <ele>145.2</ele>
    <time>2018-08-18T05:46:36Z</time>
   </trkpt>
   <trkpt lat="31.9343580" lon="34.9647900">
    <ele>144.7</ele>
    <time>2018-08-18T05:46:37Z</time>
   </trkpt>
   <trkpt lat="31.9343900" lon="34.9647370">
    <ele>144.4</ele>
    <time>2018-08-18T05:46:38Z</time>
   </trkpt>
   <trkpt lat="31.9344280" lon="34.9646860">
    <ele>144.2</ele>
    <time>2018-08-18T05:46:39Z</time>
   </trkpt>
   <trkpt lat="31.9344610" lon="34.9646350">
    <ele>143.9</ele>
    <time>2018-08-18T05:46:40Z</time>
   </trkpt>
   <trkpt lat="31.9344940" lon="34.9645880">
    <ele>143.7</ele>
    <time>2018-08-18T05:46:41Z</time>
   </trkpt>
   <trkpt lat="31.9345200" lon="34.9645290">
    <ele>143.5</ele>
    <time>2018-08-18T05:46:42Z</time>
   </trkpt>
   <trkpt lat="31.9345420" lon="34.9644840">
    <ele>143.4</ele>
    <time>2018-08-18T05:46:43Z</time>
   </trkpt>
   <trkpt lat="31.9345580" lon="34.9644320">
    <ele>143.2</ele>
    <time>2018-08-18T05:46:44Z</time>
   </trkpt>
   <trkpt lat="31.9345670" lon="34.9643730">
    <ele>143.0</ele>
    <time>2018-08-18T05:46:45Z</time>
   </trkpt>
   <trkpt lat="31.9345740" lon="34.9643260">
    <ele>142.9</ele>
    <time>2018-08-18T05:46:46Z</time>
   </trkpt>
   <trkpt lat="31.9345790" lon="34.9642730">
    <ele>142.7</ele>
    <time>2018-08-18T05:46:47Z</time>
   </trkpt>
   <trkpt lat="31.9345830" lon="34.9642330">
    <ele>142.4</ele>
    <time>2018-08-18T05:46:48Z</time>
   </trkpt>
   <trkpt lat="31.9345850" lon="34.9641910">
    <ele>142.1</ele>
    <time>2018-08-18T05:46:49Z</time>
   </trkpt>
   <trkpt lat="31.9345850" lon="34.9641490">
    <ele>141.8</ele>
    <time>2018-08-18T05:46:50Z</time>
   </trkpt>
   <trkpt lat="31.9345810" lon="34.9641140">
    <ele>141.6</ele>
    <time>2018-08-18T05:46:51Z</time>
   </trkpt>
   <trkpt lat="31.9345840" lon="34.9640680">
    <ele>141.3</ele>
    <time>2018-08-18T05:46:53Z</time>
   </trkpt>
   <trkpt lat="31.9345890" lon="34.9640240">
    <ele>141.0</ele>
    <time>2018-08-18T05:46:55Z</time>
   </trkpt>
   <trkpt lat="31.9345920" lon="34.9639710">
    <ele>141.0</ele>
    <time>2018-08-18T05:46:57Z</time>
   </trkpt>
   <trkpt lat="31.9345910" lon="34.9639270">
    <ele>141.0</ele>
    <time>2018-08-18T05:46:59Z</time>
   </trkpt>
   <trkpt lat="31.9345810" lon="34.9638870">
    <ele>141.0</ele>
    <time>2018-08-18T05:47:01Z</time>
   </trkpt>
   <trkpt lat="31.9345710" lon="34.9638370">
    <ele>141.0</ele>
    <time>2018-08-18T05:47:03Z</time>
   </trkpt>
   <trkpt lat="31.9345590" lon="34.9637880">
    <ele>141.0</ele>
    <time>2018-08-18T05:47:05Z</time>
   </trkpt>
   <trkpt lat="31.9345340" lon="34.9637460">
    <ele>141.0</ele>
    <time>2018-08-18T05:47:07Z</time>
   </trkpt>
   <trkpt lat="31.9345230" lon="34.9637060">
    <ele>141.0</ele>
    <time>2018-08-18T05:47:09Z</time>
   </trkpt>
   <trkpt lat="31.9345160" lon="34.9636630">
    <ele>141.0</ele>
    <time>2018-08-18T05:47:11Z</time>
   </trkpt>
   <trkpt lat="31.9345090" lon="34.9636290">
    <ele>141.0</ele>
    <time>2018-08-18T05:47:13Z</time>
   </trkpt>
   <trkpt lat="31.9344970" lon="34.9635900">
    <ele>141.0</ele>
    <time>2018-08-18T05:47:15Z</time>
   </trkpt>
   <trkpt lat="31.9344890" lon="34.9635590">
    <ele>141.0</ele>
    <time>2018-08-18T05:47:16Z</time>
   </trkpt>
   <trkpt lat="31.9344740" lon="34.9634970">
    <ele>139.3</ele>
    <time>2018-08-18T05:47:18Z</time>
   </trkpt>
   <trkpt lat="31.9344650" lon="34.9634650">
    <ele>138.5</ele>
    <time>2018-08-18T05:47:19Z</time>
   </trkpt>
   <trkpt lat="31.9344560" lon="34.9634290">
    <ele>137.6</ele>
    <time>2018-08-18T05:47:20Z</time>
   </trkpt>
   <trkpt lat="31.9344450" lon="34.9633890">
    <ele>136.6</ele>
    <time>2018-08-18T05:47:21Z</time>
   </trkpt>
   <trkpt lat="31.9344340" lon="34.9633550">
    <ele>136.3</ele>
    <time>2018-08-18T05:47:22Z</time>
   </trkpt>
   <trkpt lat="31.9344210" lon="34.9633180">
    <ele>136.0</ele>
    <time>2018-08-18T05:47:23Z</time>
   </trkpt>
   <trkpt lat="31.9344110" lon="34.9632810">
    <ele>135.7</ele>
    <time>2018-08-18T05:47:24Z</time>
   </trkpt>
   <trkpt lat="31.9344010" lon="34.9632460">
    <ele>135.4</ele>
    <time>2018-08-18T05:47:25Z</time>
   </trkpt>
   <trkpt lat="31.9343990" lon="34.9632140">
    <ele>135.2</ele>
    <time>2018-08-18T05:47:26Z</time>
   </trkpt>
   <trkpt lat="31.9343970" lon="34.9631740">
    <ele>134.9</ele>
    <time>2018-08-18T05:47:27Z</time>
   </trkpt>
   <trkpt lat="31.9343920" lon="34.9631400">
    <ele>134.6</ele>
    <time>2018-08-18T05:47:28Z</time>
   </trkpt>
   <trkpt lat="31.9343850" lon="34.9630980">
    <ele>134.3</ele>
    <time>2018-08-18T05:47:29Z</time>
   </trkpt>
   <trkpt lat="31.9343710" lon="34.9630380">
    <ele>133.5</ele>
    <time>2018-08-18T05:47:31Z</time>
   </trkpt>
   <trkpt lat="31.9343640" lon="34.9630050">
    <ele>133.1</ele>
    <time>2018-08-18T05:47:32Z</time>
   </trkpt>
   <trkpt lat="31.9343590" lon="34.9629690">
    <ele>132.5</ele>
    <time>2018-08-18T05:47:33Z</time>
   </trkpt>
   <trkpt lat="31.9343540" lon="34.9629220">
    <ele>131.6</ele>
    <time>2018-08-18T05:47:34Z</time>
   </trkpt>
   <trkpt lat="31.9343490" lon="34.9628680">
    <ele>130.8</ele>
    <time>2018-08-18T05:47:35Z</time>
   </trkpt>
   <trkpt lat="31.9343450" lon="34.9628230">
    <ele>130.5</ele>
    <time>2018-08-18T05:47:36Z</time>
   </trkpt>
   <trkpt lat="31.9343450" lon="34.9627820">
    <ele>130.2</ele>
    <time>2018-08-18T05:47:37Z</time>
   </trkpt>
   <trkpt lat="31.9343450" lon="34.9627370">
    <ele>130.0</ele>
    <time>2018-08-18T05:47:38Z</time>
   </trkpt>
   <trkpt lat="31.9343490" lon="34.9626920">
    <ele>129.9</ele>
    <time>2018-08-18T05:47:39Z</time>
   </trkpt>
   <trkpt lat="31.9343670" lon="34.9626470">
    <ele>129.7</ele>
    <time>2018-08-18T05:47:40Z</time>
   </trkpt>
   <trkpt lat="31.9343800" lon="34.9626020">
    <ele>129.5</ele>
    <time>2018-08-18T05:47:41Z</time>
   </trkpt>
   <trkpt lat="31.9343930" lon="34.9625640">
    <ele>129.4</ele>
    <time>2018-08-18T05:47:42Z</time>
   </trkpt>
   <trkpt lat="31.9344120" lon="34.9625180">
    <ele>129.2</ele>
    <time>2018-08-18T05:47:43Z</time>
   </trkpt>
   <trkpt lat="31.9344320" lon="34.9624820">
    <ele>128.9</ele>
    <time>2018-08-18T05:47:44Z</time>
   </trkpt>
   <trkpt lat="31.9344530" lon="34.9624520">
    <ele>128.6</ele>
    <time>2018-08-18T05:47:45Z</time>
   </trkpt>
   <trkpt lat="31.9344740" lon="34.9624270">
    <ele>128.4</ele>
    <time>2018-08-18T05:47:46Z</time>
   </trkpt>
   <trkpt lat="31.9344960" lon="34.9623950">
    <ele>128.1</ele>
    <time>2018-08-18T05:47:47Z</time>
   </trkpt>
   <trkpt lat="31.9345210" lon="34.9623630">
    <ele>128.0</ele>
    <time>2018-08-18T05:47:48Z</time>
   </trkpt>
   <trkpt lat="31.9345500" lon="34.9623310">
    <ele>127.9</ele>
    <time>2018-08-18T05:47:49Z</time>
   </trkpt>
   <trkpt lat="31.9345770" lon="34.9623050">
    <ele>127.8</ele>
    <time>2018-08-18T05:47:50Z</time>
   </trkpt>
   <trkpt lat="31.9346060" lon="34.9622810">
    <ele>127.6</ele>
    <time>2018-08-18T05:47:51Z</time>
   </trkpt>
   <trkpt lat="31.9346390" lon="34.9622570">
    <ele>127.4</ele>
    <time>2018-08-18T05:47:52Z</time>
   </trkpt>
   <trkpt lat="31.9346730" lon="34.9622340">
    <ele>126.9</ele>
    <time>2018-08-18T05:47:53Z</time>
   </trkpt>
   <trkpt lat="31.9347050" lon="34.9622080">
    <ele>126.7</ele>
    <time>2018-08-18T05:47:54Z</time>
   </trkpt>
   <trkpt lat="31.9347390" lon="34.9621860">
    <ele>126.3</ele>
    <time>2018-08-18T05:47:55Z</time>
   </trkpt>
   <trkpt lat="31.9347760" lon="34.9621600">
    <ele>126.1</ele>
    <time>2018-08-18T05:47:56Z</time>
   </trkpt>
   <trkpt lat="31.9348090" lon="34.9621410">
    <ele>125.8</ele>
    <time>2018-08-18T05:47:57Z</time>
   </trkpt>
   <trkpt lat="31.9348480" lon="34.9621200">
    <ele>125.4</ele>
    <time>2018-08-18T05:47:58Z</time>
   </trkpt>
   <trkpt lat="31.9348870" lon="34.9620930">
    <ele>125.0</ele>
    <time>2018-08-18T05:47:59Z</time>
   </trkpt>
   <trkpt lat="31.9349300" lon="34.9620690">
    <ele>124.8</ele>
    <time>2018-08-18T05:48:00Z</time>
   </trkpt>
   <trkpt lat="31.9349740" lon="34.9620470">
    <ele>124.6</ele>
    <time>2018-08-18T05:48:01Z</time>
   </trkpt>
   <trkpt lat="31.9350210" lon="34.9620200">
    <ele>124.1</ele>
    <time>2018-08-18T05:48:02Z</time>
   </trkpt>
   <trkpt lat="31.9350650" lon="34.9619930">
    <ele>123.6</ele>
    <time>2018-08-18T05:48:03Z</time>
   </trkpt>
   <trkpt lat="31.9351110" lon="34.9619640">
    <ele>123.4</ele>
    <time>2018-08-18T05:48:04Z</time>
   </trkpt>
   <trkpt lat="31.9351510" lon="34.9619390">
    <ele>123.3</ele>
    <time>2018-08-18T05:48:05Z</time>
   </trkpt>
   <trkpt lat="31.9351890" lon="34.9619130">
    <ele>123.2</ele>
    <time>2018-08-18T05:48:06Z</time>
   </trkpt>
   <trkpt lat="31.9352240" lon="34.9618970">
    <ele>123.2</ele>
    <time>2018-08-18T05:48:07Z</time>
   </trkpt>
   <trkpt lat="31.9352590" lon="34.9618770">
    <ele>123.1</ele>
    <time>2018-08-18T05:48:08Z</time>
   </trkpt>
   <trkpt lat="31.9352960" lon="34.9618590">
    <ele>123.1</ele>
    <time>2018-08-18T05:48:09Z</time>
   </trkpt>
   <trkpt lat="31.9353370" lon="34.9618390">
    <ele>123.0</ele>
    <time>2018-08-18T05:48:10Z</time>
   </trkpt>
   <trkpt lat="31.9353620" lon="34.9618230">
    <ele>123.0</ele>
    <time>2018-08-18T05:48:11Z</time>
   </trkpt>
   <trkpt lat="31.9354090" lon="34.9617980">
    <ele>122.6</ele>
    <time>2018-08-18T05:48:13Z</time>
   </trkpt>
   <trkpt lat="31.9354480" lon="34.9617710">
    <ele>121.5</ele>
    <time>2018-08-18T05:48:15Z</time>
   </trkpt>
   <trkpt lat="31.9354810" lon="34.9617320">
    <ele>120.5</ele>
    <time>2018-08-18T05:48:17Z</time>
   </trkpt>
   <trkpt lat="31.9354970" lon="34.9617050">
    <ele>120.0</ele>
    <time>2018-08-18T05:48:18Z</time>
   </trkpt>
   <trkpt lat="31.9355170" lon="34.9616730">
    <ele>119.4</ele>
    <time>2018-08-18T05:48:19Z</time>
   </trkpt>
   <trkpt lat="31.9355450" lon="34.9616280">
    <ele>118.7</ele>
    <time>2018-08-18T05:48:21Z</time>
   </trkpt>
   <trkpt lat="31.9355570" lon="34.9615950">
    <ele>118.2</ele>
    <time>2018-08-18T05:48:22Z</time>
   </trkpt>
   <trkpt lat="31.9355700" lon="34.9615610">
    <ele>117.7</ele>
    <time>2018-08-18T05:48:24Z</time>
   </trkpt>
   <trkpt lat="31.9355950" lon="34.9615380">
    <ele>117.3</ele>
    <time>2018-08-18T05:48:26Z</time>
   </trkpt>
   <trkpt lat="31.9356430" lon="34.9615170">
    <ele>116.7</ele>
    <time>2018-08-18T05:48:28Z</time>
   </trkpt>
   <trkpt lat="31.9356700" lon="34.9615470">
    <ele>116.4</ele>
    <time>2018-08-18T05:48:31Z</time>
   </trkpt>
   <trkpt lat="31.9356970" lon="34.9615900">
    <ele>116.5</ele>
    <time>2018-08-18T05:48:33Z</time>
   </trkpt>
   <trkpt lat="31.9357240" lon="34.9616380">
    <ele>116.7</ele>
    <time>2018-08-18T05:48:35Z</time>
   </trkpt>
   <trkpt lat="31.9357340" lon="34.9616720">
    <ele>116.8</ele>
    <time>2018-08-18T05:48:36Z</time>
   </trkpt>
   <trkpt lat="31.9357440" lon="34.9617150">
    <ele>117.0</ele>
    <time>2018-08-18T05:48:38Z</time>
   </trkpt>
   <trkpt lat="31.9357570" lon="34.9617650">
    <ele>117.2</ele>
    <time>2018-08-18T05:48:40Z</time>
   </trkpt>
   <trkpt lat="31.9357750" lon="34.9618230">
    <ele>117.5</ele>
    <time>2018-08-18T05:48:42Z</time>
   </trkpt>
   <trkpt lat="31.9357780" lon="34.9618630">
    <ele>117.8</ele>
    <time>2018-08-18T05:48:43Z</time>
   </trkpt>
   <trkpt lat="31.9357810" lon="34.9618980">
    <ele>118.1</ele>
    <time>2018-08-18T05:48:44Z</time>
   </trkpt>
   <trkpt lat="31.9357880" lon="34.9619360">
    <ele>118.5</ele>
    <time>2018-08-18T05:48:45Z</time>
   </trkpt>
   <trkpt lat="31.9357840" lon="34.9619900">
    <ele>119.0</ele>
    <time>2018-08-18T05:48:47Z</time>
   </trkpt>
   <trkpt lat="31.9357820" lon="34.9620440">
    <ele>119.6</ele>
    <time>2018-08-18T05:48:49Z</time>
   </trkpt>
   <trkpt lat="31.9357860" lon="34.9620840">
    <ele>120.0</ele>
    <time>2018-08-18T05:48:50Z</time>
   </trkpt>
   <trkpt lat="31.9357960" lon="34.9621190">
    <ele>120.4</ele>
    <time>2018-08-18T05:48:51Z</time>
   </trkpt>
   <trkpt lat="31.9358030" lon="34.9621500">
    <ele>120.7</ele>
    <time>2018-08-18T05:48:52Z</time>
   </trkpt>
   <trkpt lat="31.9358090" lon="34.9621990">
    <ele>121.1</ele>
    <time>2018-08-18T05:48:54Z</time>
   </trkpt>
   <trkpt lat="31.9358310" lon="34.9622500">
    <ele>121.4</ele>
    <time>2018-08-18T05:48:56Z</time>
   </trkpt>
   <trkpt lat="31.9358710" lon="34.9622860">
    <ele>121.8</ele>
    <time>2018-08-18T05:48:58Z</time>
   </trkpt>
   <trkpt lat="31.9359030" lon="34.9623160">
    <ele>122.1</ele>
    <time>2018-08-18T05:49:00Z</time>
   </trkpt>
   <trkpt lat="31.9359270" lon="34.9623580">
    <ele>122.7</ele>
    <time>2018-08-18T05:49:02Z</time>
   </trkpt>
   <trkpt lat="31.9359650" lon="34.9624000">
    <ele>123.4</ele>
    <time>2018-08-18T05:49:04Z</time>
   </trkpt>
   <trkpt lat="31.9359860" lon="34.9624250">
    <ele>123.9</ele>
    <time>2018-08-18T05:49:05Z</time>
   </trkpt>
   <trkpt lat="31.9360020" lon="34.9624530">
    <ele>124.3</ele>
    <time>2018-08-18T05:49:06Z</time>
   </trkpt>
   <trkpt lat="31.9360300" lon="34.9625010">
    <ele>124.7</ele>
    <time>2018-08-18T05:49:08Z</time>
   </trkpt>
   <trkpt lat="31.9360540" lon="34.9625510">
    <ele>125.0</ele>
    <time>2018-08-18T05:49:10Z</time>
   </trkpt>
   <trkpt lat="31.9360740" lon="34.9626020">
    <ele>125.4</ele>
    <time>2018-08-18T05:49:12Z</time>
   </trkpt>
   <trkpt lat="31.9360840" lon="34.9626380">
    <ele>125.7</ele>
    <time>2018-08-18T05:49:14Z</time>
   </trkpt>
   <trkpt lat="31.9360930" lon="34.9626870">
    <ele>126.0</ele>
    <time>2018-08-18T05:49:16Z</time>
   </trkpt>
   <trkpt lat="31.9361070" lon="34.9627400">
    <ele>126.2</ele>
    <time>2018-08-18T05:49:18Z</time>
   </trkpt>
   <trkpt lat="31.9361290" lon="34.9627980">
    <ele>126.5</ele>
    <time>2018-08-18T05:49:20Z</time>
   </trkpt>
   <trkpt lat="31.9361430" lon="34.9628500">
    <ele>126.8</ele>
    <time>2018-08-18T05:49:22Z</time>
   </trkpt>
   <trkpt lat="31.9361520" lon="34.9629020">
    <ele>127.1</ele>
    <time>2018-08-18T05:49:24Z</time>
   </trkpt>
   <trkpt lat="31.9361500" lon="34.9629340">
    <ele>127.2</ele>
    <time>2018-08-18T05:49:25Z</time>
   </trkpt>
   <trkpt lat="31.9361560" lon="34.9629660">
    <ele>127.4</ele>
    <time>2018-08-18T05:49:26Z</time>
   </trkpt>
   <trkpt lat="31.9361660" lon="34.9629980">
    <ele>127.8</ele>
    <time>2018-08-18T05:49:27Z</time>
   </trkpt>
   <trkpt lat="31.9361750" lon="34.9630330">
    <ele>128.2</ele>
    <time>2018-08-18T05:49:28Z</time>
   </trkpt>
   <trkpt lat="31.9361880" lon="34.9630940">
    <ele>129.2</ele>
    <time>2018-08-18T05:49:30Z</time>
   </trkpt>
   <trkpt lat="31.9362040" lon="34.9631460">
    <ele>130.1</ele>
    <time>2018-08-18T05:49:32Z</time>
   </trkpt>
   <trkpt lat="31.9362200" lon="34.9631920">
    <ele>130.6</ele>
    <time>2018-08-18T05:49:34Z</time>
   </trkpt>
   <trkpt lat="31.9362450" lon="34.9632310">
    <ele>131.4</ele>
    <time>2018-08-18T05:49:36Z</time>
   </trkpt>
   <trkpt lat="31.9362690" lon="34.9632500">
    <ele>132.1</ele>
    <time>2018-08-18T05:49:38Z</time>
   </trkpt>
   <trkpt lat="31.9363080" lon="34.9632780">
    <ele>133.0</ele>
    <time>2018-08-18T05:49:40Z</time>
   </trkpt>
   <trkpt lat="31.9363340" lon="34.9633030">
    <ele>133.6</ele>
    <time>2018-08-18T05:49:42Z</time>
   </trkpt>
   <trkpt lat="31.9363700" lon="34.9633330">
    <ele>134.1</ele>
    <time>2018-08-18T05:49:44Z</time>
   </trkpt>
   <trkpt lat="31.9364020" lon="34.9633630">
    <ele>134.6</ele>
    <time>2018-08-18T05:49:46Z</time>
   </trkpt>
   <trkpt lat="31.9364330" lon="34.9633860">
    <ele>135.0</ele>
    <time>2018-08-18T05:49:48Z</time>
   </trkpt>
   <trkpt lat="31.9364680" lon="34.9634130">
    <ele>135.4</ele>
    <time>2018-08-18T05:49:50Z</time>
   </trkpt>
   <trkpt lat="31.9364990" lon="34.9634370">
    <ele>135.5</ele>
    <time>2018-08-18T05:49:52Z</time>
   </trkpt>
   <trkpt lat="31.9365290" lon="34.9634530">
    <ele>135.7</ele>
    <time>2018-08-18T05:49:54Z</time>
   </trkpt>
   <trkpt lat="31.9365770" lon="34.9634760">
    <ele>135.9</ele>
    <time>2018-08-18T05:49:56Z</time>
   </trkpt>
   <trkpt lat="31.9366050" lon="34.9634850">
    <ele>136.0</ele>
    <time>2018-08-18T05:49:57Z</time>
   </trkpt>
   <trkpt lat="31.9366360" lon="34.9635000">
    <ele>136.0</ele>
    <time>2018-08-18T05:49:58Z</time>
   </trkpt>
   <trkpt lat="31.9366700" lon="34.9635090">
    <ele>136.0</ele>
    <time>2018-08-18T05:49:59Z</time>
   </trkpt>
   <trkpt lat="31.9367140" lon="34.9635220">
    <ele>136.0</ele>
    <time>2018-08-18T05:50:01Z</time>
   </trkpt>
   <trkpt lat="31.9367430" lon="34.9635330">
    <ele>136.0</ele>
    <time>2018-08-18T05:50:02Z</time>
   </trkpt>
   <trkpt lat="31.9367860" lon="34.9635480">
    <ele>136.0</ele>
    <time>2018-08-18T05:50:04Z</time>
   </trkpt>
   <trkpt lat="31.9368300" lon="34.9635600">
    <ele>136.1</ele>
    <time>2018-08-18T05:50:06Z</time>
   </trkpt>
   <trkpt lat="31.9368580" lon="34.9635830">
    <ele>136.1</ele>
    <time>2018-08-18T05:50:07Z</time>
   </trkpt>
   <trkpt lat="31.9368820" lon="34.9636070">
    <ele>136.2</ele>
    <time>2018-08-18T05:50:08Z</time>
   </trkpt>
   <trkpt lat="31.9369110" lon="34.9636300">
    <ele>136.2</ele>
    <time>2018-08-18T05:50:09Z</time>
   </trkpt>
   <trkpt lat="31.9369410" lon="34.9636470">
    <ele>136.3</ele>
    <time>2018-08-18T05:50:10Z</time>
   </trkpt>
   <trkpt lat="31.9369800" lon="34.9636630">
    <ele>136.4</ele>
    <time>2018-08-18T05:50:12Z</time>
   </trkpt>
   <trkpt lat="31.9370260" lon="34.9636760">
    <ele>136.5</ele>
    <time>2018-08-18T05:50:14Z</time>
   </trkpt>
   <trkpt lat="31.9370680" lon="34.9636960">
    <ele>136.7</ele>
    <time>2018-08-18T05:50:16Z</time>
   </trkpt>
   <trkpt lat="31.9371160" lon="34.9637190">
    <ele>137.1</ele>
    <time>2018-08-18T05:50:18Z</time>
   </trkpt>
   <trkpt lat="31.9371440" lon="34.9637280">
    <ele>137.3</ele>
    <time>2018-08-18T05:50:19Z</time>
   </trkpt>
   <trkpt lat="31.9371940" lon="34.9637580">
    <ele>137.5</ele>
    <time>2018-08-18T05:50:21Z</time>
   </trkpt>
   <trkpt lat="31.9372220" lon="34.9637760">
    <ele>137.6</ele>
    <time>2018-08-18T05:50:22Z</time>
   </trkpt>
   <trkpt lat="31.9372510" lon="34.9637980">
    <ele>137.6</ele>
    <time>2018-08-18T05:50:23Z</time>
   </trkpt>
   <trkpt lat="31.9372800" lon="34.9638160">
    <ele>137.7</ele>
    <time>2018-08-18T05:50:24Z</time>
   </trkpt>
   <trkpt lat="31.9373090" lon="34.9638330">
    <ele>137.7</ele>
    <time>2018-08-18T05:50:25Z</time>
   </trkpt>
   <trkpt lat="31.9373530" lon="34.9638520">
    <ele>137.8</ele>
    <time>2018-08-18T05:50:27Z</time>
   </trkpt>
   <trkpt lat="31.9373920" lon="34.9638720">
    <ele>137.8</ele>
    <time>2018-08-18T05:50:29Z</time>
   </trkpt>
   <trkpt lat="31.9374270" lon="34.9639000">
    <ele>137.9</ele>
    <time>2018-08-18T05:50:31Z</time>
   </trkpt>
   <trkpt lat="31.9374760" lon="34.9639340">
    <ele>137.9</ele>
    <time>2018-08-18T05:50:33Z</time>
   </trkpt>
   <trkpt lat="31.9375160" lon="34.9639680">
    <ele>137.9</ele>
    <time>2018-08-18T05:50:35Z</time>
   </trkpt>
   <trkpt lat="31.9375610" lon="34.9639990">
    <ele>138.0</ele>
    <time>2018-08-18T05:50:37Z</time>
   </trkpt>
   <trkpt lat="31.9375820" lon="34.9640210">
    <ele>137.8</ele>
    <time>2018-08-18T05:50:38Z</time>
   </trkpt>
   <trkpt lat="31.9376170" lon="34.9640520">
    <ele>137.4</ele>
    <time>2018-08-18T05:50:40Z</time>
   </trkpt>
   <trkpt lat="31.9376490" lon="34.9640810">
    <ele>137.0</ele>
    <time>2018-08-18T05:50:42Z</time>
   </trkpt>
   <trkpt lat="31.9376790" lon="34.9640990">
    <ele>136.7</ele>
    <time>2018-08-18T05:50:44Z</time>
   </trkpt>
   <trkpt lat="31.9376990" lon="34.9641330">
    <ele>136.3</ele>
    <time>2018-08-18T05:50:46Z</time>
   </trkpt>
   <trkpt lat="31.9377180" lon="34.9641650">
    <ele>136.0</ele>
    <time>2018-08-18T05:50:48Z</time>
   </trkpt>
   <trkpt lat="31.9377430" lon="34.9641930">
    <ele>135.7</ele>
    <time>2018-08-18T05:50:50Z</time>
   </trkpt>
   <trkpt lat="31.9377690" lon="34.9641800">
    <ele>135.4</ele>
    <time>2018-08-18T05:50:53Z</time>
   </trkpt>
   <trkpt lat="31.9377740" lon="34.9641400">
    <ele>135.6</ele>
    <time>2018-08-18T05:50:57Z</time>
   </trkpt>
   <trkpt lat="31.9377740" lon="34.9640990">
    <ele>135.7</ele>
    <time>2018-08-18T05:50:59Z</time>
   </trkpt>
   <trkpt lat="31.9377730" lon="34.9640660">
    <ele>135.9</ele>
    <time>2018-08-18T05:51:01Z</time>
   </trkpt>
   <trkpt lat="31.9377620" lon="34.9640230">
    <ele>136.1</ele>
    <time>2018-08-18T05:51:04Z</time>
   </trkpt>
   <trkpt lat="31.9377500" lon="34.9639750">
    <ele>136.3</ele>
    <time>2018-08-18T05:51:07Z</time>
   </trkpt>
   <trkpt lat="31.9377380" lon="34.9639400">
    <ele>136.5</ele>
    <time>2018-08-18T05:51:09Z</time>
   </trkpt>
   <trkpt lat="31.9377340" lon="34.9638970">
    <ele>136.7</ele>
    <time>2018-08-18T05:51:12Z</time>
   </trkpt>
   <trkpt lat="31.9377250" lon="34.9638520">
    <ele>136.9</ele>
    <time>2018-08-18T05:51:15Z</time>
   </trkpt>
   <trkpt lat="31.9377160" lon="34.9638190">
    <ele>137.1</ele>
    <time>2018-08-18T05:51:17Z</time>
   </trkpt>
   <trkpt lat="31.9377070" lon="34.9637880">
    <ele>137.3</ele>
    <time>2018-08-18T05:51:19Z</time>
   </trkpt>
   <trkpt lat="31.9377060" lon="34.9637560">
    <ele>137.4</ele>
    <time>2018-08-18T05:51:21Z</time>
   </trkpt>
   <trkpt lat="31.9377080" lon="34.9637070">
    <ele>137.6</ele>
    <time>2018-08-18T05:51:24Z</time>
   </trkpt>
   <trkpt lat="31.9377160" lon="34.9636570">
    <ele>137.8</ele>
    <time>2018-08-18T05:51:27Z</time>
   </trkpt>
   <trkpt lat="31.9377270" lon="34.9636140">
    <ele>138.2</ele>
    <time>2018-08-18T05:51:30Z</time>
   </trkpt>
   <trkpt lat="31.9377330" lon="34.9635750">
    <ele>138.4</ele>
    <time>2018-08-18T05:51:32Z</time>
   </trkpt>
   <trkpt lat="31.9377360" lon="34.9635260">
    <ele>138.5</ele>
    <time>2018-08-18T05:51:34Z</time>
   </trkpt>
   <trkpt lat="31.9377360" lon="34.9634770">
    <ele>138.7</ele>
    <time>2018-08-18T05:51:36Z</time>
   </trkpt>
   <trkpt lat="31.9377390" lon="34.9634190">
    <ele>138.8</ele>
    <time>2018-08-18T05:51:38Z</time>
   </trkpt>
   <trkpt lat="31.9377400" lon="34.9633850">
    <ele>138.9</ele>
    <time>2018-08-18T05:51:39Z</time>
   </trkpt>
   <trkpt lat="31.9377400" lon="34.9633230">
    <ele>139.0</ele>
    <time>2018-08-18T05:51:41Z</time>
   </trkpt>
   <trkpt lat="31.9377450" lon="34.9632840">
    <ele>139.1</ele>
    <time>2018-08-18T05:51:43Z</time>
   </trkpt>
   <trkpt lat="31.9377430" lon="34.9632460">
    <ele>139.2</ele>
    <time>2018-08-18T05:51:45Z</time>
   </trkpt>
   <trkpt lat="31.9377350" lon="34.9632010">
    <ele>139.4</ele>
    <time>2018-08-18T05:51:47Z</time>
   </trkpt>
   <trkpt lat="31.9377210" lon="34.9631550">
    <ele>139.5</ele>
    <time>2018-08-18T05:51:49Z</time>
   </trkpt>
   <trkpt lat="31.9377280" lon="34.9631030">
    <ele>139.7</ele>
    <time>2018-08-18T05:51:51Z</time>
   </trkpt>
   <trkpt lat="31.9377370" lon="34.9630650">
    <ele>139.8</ele>
    <time>2018-08-18T05:51:53Z</time>
   </trkpt>
   <trkpt lat="31.9377450" lon="34.9630110">
    <ele>139.9</ele>
    <time>2018-08-18T05:51:55Z</time>
   </trkpt>
   <trkpt lat="31.9377460" lon="34.9629760">
    <ele>140.0</ele>
    <time>2018-08-18T05:51:56Z</time>
   </trkpt>
   <trkpt lat="31.9377480" lon="34.9629300">
    <ele>140.0</ele>
    <time>2018-08-18T05:51:58Z</time>
   </trkpt>
   <trkpt lat="31.9377530" lon="34.9628880">
    <ele>140.0</ele>
    <time>2018-08-18T05:52:00Z</time>
   </trkpt>
   <trkpt lat="31.9377620" lon="34.9628470">
    <ele>140.0</ele>
    <time>2018-08-18T05:52:02Z</time>
   </trkpt>
   <trkpt lat="31.9377540" lon="34.9628040">
    <ele>140.0</ele>
    <time>2018-08-18T05:52:04Z</time>
   </trkpt>
   <trkpt lat="31.9377490" lon="34.9627600">
    <ele>140.0</ele>
    <time>2018-08-18T05:52:06Z</time>
   </trkpt>
   <trkpt lat="31.9377360" lon="34.9627270">
    <ele>140.0</ele>
    <time>2018-08-18T05:52:08Z</time>
   </trkpt>
   <trkpt lat="31.9377150" lon="34.9626710">
    <ele>140.0</ele>
    <time>2018-08-18T05:52:10Z</time>
   </trkpt>
   <trkpt lat="31.9377100" lon="34.9626110">
    <ele>140.0</ele>
    <time>2018-08-18T05:52:12Z</time>
   </trkpt>
   <trkpt lat="31.9377050" lon="34.9625570">
    <ele>139.7</ele>
    <time>2018-08-18T05:52:14Z</time>
   </trkpt>
   <trkpt lat="31.9376930" lon="34.9625010">
    <ele>139.3</ele>
    <time>2018-08-18T05:52:16Z</time>
   </trkpt>
   <trkpt lat="31.9376670" lon="34.9624460">
    <ele>138.9</ele>
    <time>2018-08-18T05:52:18Z</time>
   </trkpt>
   <trkpt lat="31.9376520" lon="34.9624140">
    <ele>138.7</ele>
    <time>2018-08-18T05:52:19Z</time>
   </trkpt>
   <trkpt lat="31.9376420" lon="34.9623760">
    <ele>138.5</ele>
    <time>2018-08-18T05:52:20Z</time>
   </trkpt>
   <trkpt lat="31.9376280" lon="34.9623280">
    <ele>138.2</ele>
    <time>2018-08-18T05:52:21Z</time>
   </trkpt>
   <trkpt lat="31.9376110" lon="34.9622930">
    <ele>138.0</ele>
    <time>2018-08-18T05:52:22Z</time>
   </trkpt>
   <trkpt lat="31.9375980" lon="34.9622580">
    <ele>137.9</ele>
    <time>2018-08-18T05:52:23Z</time>
   </trkpt>
   <trkpt lat="31.9375900" lon="34.9622230">
    <ele>137.8</ele>
    <time>2018-08-18T05:52:24Z</time>
   </trkpt>
   <trkpt lat="31.9375820" lon="34.9621880">
    <ele>137.7</ele>
    <time>2018-08-18T05:52:25Z</time>
   </trkpt>
   <trkpt lat="31.9375750" lon="34.9621500">
    <ele>137.6</ele>
    <time>2018-08-18T05:52:26Z</time>
   </trkpt>
   <trkpt lat="31.9375680" lon="34.9621180">
    <ele>137.5</ele>
    <time>2018-08-18T05:52:27Z</time>
   </trkpt>
   <trkpt lat="31.9375620" lon="34.9620780">
    <ele>137.4</ele>
    <time>2018-08-18T05:52:28Z</time>
   </trkpt>
   <trkpt lat="31.9375600" lon="34.9620400">
    <ele>137.3</ele>
    <time>2018-08-18T05:52:29Z</time>
   </trkpt>
   <trkpt lat="31.9375540" lon="34.9620020">
    <ele>137.1</ele>
    <time>2018-08-18T05:52:30Z</time>
   </trkpt>
   <trkpt lat="31.9375440" lon="34.9619690">
    <ele>136.9</ele>
    <time>2018-08-18T05:52:31Z</time>
   </trkpt>
   <trkpt lat="31.9375340" lon="34.9619310">
    <ele>136.7</ele>
    <time>2018-08-18T05:52:32Z</time>
   </trkpt>
   <trkpt lat="31.9375250" lon="34.9618900">
    <ele>136.4</ele>
    <time>2018-08-18T05:52:33Z</time>
   </trkpt>
   <trkpt lat="31.9375210" lon="34.9618410">
    <ele>136.0</ele>
    <time>2018-08-18T05:52:34Z</time>
   </trkpt>
   <trkpt lat="31.9375220" lon="34.9617830">
    <ele>135.5</ele>
    <time>2018-08-18T05:52:35Z</time>
   </trkpt>
   <trkpt lat="31.9375180" lon="34.9617270">
    <ele>135.0</ele>
    <time>2018-08-18T05:52:36Z</time>
   </trkpt>
   <trkpt lat="31.9375080" lon="34.9616880">
    <ele>134.7</ele>
    <time>2018-08-18T05:52:37Z</time>
   </trkpt>
   <trkpt lat="31.9374990" lon="34.9616450">
    <ele>134.5</ele>
    <time>2018-08-18T05:52:38Z</time>
   </trkpt>
   <trkpt lat="31.9375050" lon="34.9615930">
    <ele>134.3</ele>
    <time>2018-08-18T05:52:39Z</time>
   </trkpt>
   <trkpt lat="31.9375180" lon="34.9615520">
    <ele>134.1</ele>
    <time>2018-08-18T05:52:40Z</time>
   </trkpt>
   <trkpt lat="31.9375380" lon="34.9615110">
    <ele>133.9</ele>
    <time>2018-08-18T05:52:41Z</time>
   </trkpt>
   <trkpt lat="31.9375550" lon="34.9614790">
    <ele>133.8</ele>
    <time>2018-08-18T05:52:42Z</time>
   </trkpt>
   <trkpt lat="31.9375780" lon="34.9614440">
    <ele>133.5</ele>
    <time>2018-08-18T05:52:43Z</time>
   </trkpt>
   <trkpt lat="31.9376050" lon="34.9613990">
    <ele>133.2</ele>
    <time>2018-08-18T05:52:44Z</time>
   </trkpt>
   <trkpt lat="31.9376280" lon="34.9613640">
    <ele>132.9</ele>
    <time>2018-08-18T05:52:45Z</time>
   </trkpt>
   <trkpt lat="31.9376370" lon="34.9613270">
    <ele>132.5</ele>
    <time>2018-08-18T05:52:46Z</time>
   </trkpt>
   <trkpt lat="31.9376450" lon="34.9612740">
    <ele>131.9</ele>
    <time>2018-08-18T05:52:47Z</time>
   </trkpt>
   <trkpt lat="31.9376540" lon="34.9612260">
    <ele>131.2</ele>
    <time>2018-08-18T05:52:48Z</time>
   </trkpt>
   <trkpt lat="31.9376620" lon="34.9611760">
    <ele>130.4</ele>
    <time>2018-08-18T05:52:49Z</time>
   </trkpt>
   <trkpt lat="31.9376650" lon="34.9611240">
    <ele>129.7</ele>
    <time>2018-08-18T05:52:50Z</time>
   </trkpt>
   <trkpt lat="31.9376650" lon="34.9610790">
    <ele>129.1</ele>
    <time>2018-08-18T05:52:51Z</time>
   </trkpt>
   <trkpt lat="31.9376640" lon="34.9610330">
    <ele>128.5</ele>
    <time>2018-08-18T05:52:52Z</time>
   </trkpt>
   <trkpt lat="31.9376560" lon="34.9609850">
    <ele>127.8</ele>
    <time>2018-08-18T05:52:53Z</time>
   </trkpt>
   <trkpt lat="31.9376460" lon="34.9609370">
    <ele>127.1</ele>
    <time>2018-08-18T05:52:54Z</time>
   </trkpt>
   <trkpt lat="31.9376390" lon="34.9608910">
    <ele>126.4</ele>
    <time>2018-08-18T05:52:55Z</time>
   </trkpt>
   <trkpt lat="31.9376390" lon="34.9608420">
    <ele>125.8</ele>
    <time>2018-08-18T05:52:56Z</time>
   </trkpt>
   <trkpt lat="31.9376300" lon="34.9607860">
    <ele>125.0</ele>
    <time>2018-08-18T05:52:57Z</time>
   </trkpt>
   <trkpt lat="31.9376130" lon="34.9607320">
    <ele>124.3</ele>
    <time>2018-08-18T05:52:58Z</time>
   </trkpt>
   <trkpt lat="31.9375950" lon="34.9606910">
    <ele>123.7</ele>
    <time>2018-08-18T05:52:59Z</time>
   </trkpt>
   <trkpt lat="31.9375770" lon="34.9606520">
    <ele>123.4</ele>
    <time>2018-08-18T05:53:00Z</time>
   </trkpt>
   <trkpt lat="31.9375590" lon="34.9606060">
    <ele>123.1</ele>
    <time>2018-08-18T05:53:01Z</time>
   </trkpt>
   <trkpt lat="31.9375450" lon="34.9605640">
    <ele>122.9</ele>
    <time>2018-08-18T05:53:02Z</time>
   </trkpt>
   <trkpt lat="31.9375280" lon="34.9605180">
    <ele>122.8</ele>
    <time>2018-08-18T05:53:03Z</time>
   </trkpt>
   <trkpt lat="31.9375100" lon="34.9604670">
    <ele>122.6</ele>
    <time>2018-08-18T05:53:04Z</time>
   </trkpt>
   <trkpt lat="31.9374970" lon="34.9604320">
    <ele>122.4</ele>
    <time>2018-08-18T05:53:05Z</time>
   </trkpt>
   <trkpt lat="31.9374860" lon="34.9603820">
    <ele>122.2</ele>
    <time>2018-08-18T05:53:06Z</time>
   </trkpt>
   <trkpt lat="31.9374820" lon="34.9603310">
    <ele>122.1</ele>
    <time>2018-08-18T05:53:07Z</time>
   </trkpt>
   <trkpt lat="31.9374810" lon="34.9602760">
    <ele>123.0</ele>
    <time>2018-08-18T05:53:08Z</time>
   </trkpt>
   <trkpt lat="31.9374830" lon="34.9602260">
    <ele>123.8</ele>
    <time>2018-08-18T05:53:09Z</time>
   </trkpt>
   <trkpt lat="31.9374920" lon="34.9601860">
    <ele>124.5</ele>
    <time>2018-08-18T05:53:10Z</time>
   </trkpt>
   <trkpt lat="31.9375060" lon="34.9601520">
    <ele>125.2</ele>
    <time>2018-08-18T05:53:11Z</time>
   </trkpt>
   <trkpt lat="31.9375220" lon="34.9601190">
    <ele>125.8</ele>
    <time>2018-08-18T05:53:12Z</time>
   </trkpt>
   <trkpt lat="31.9375340" lon="34.9600880">
    <ele>126.4</ele>
    <time>2018-08-18T05:53:13Z</time>
   </trkpt>
   <trkpt lat="31.9375440" lon="34.9600460">
    <ele>127.1</ele>
    <time>2018-08-18T05:53:14Z</time>
   </trkpt>
   <trkpt lat="31.9375580" lon="34.9600110">
    <ele>127.8</ele>
    <time>2018-08-18T05:53:15Z</time>
   </trkpt>
   <trkpt lat="31.9375810" lon="34.9599830">
    <ele>128.4</ele>
    <time>2018-08-18T05:53:16Z</time>
   </trkpt>
   <trkpt lat="31.9376010" lon="34.9599580">
    <ele>129.0</ele>
    <time>2018-08-18T05:53:17Z</time>
   </trkpt>
   <trkpt lat="31.9376130" lon="34.9599060">
    <ele>129.9</ele>
    <time>2018-08-18T05:53:19Z</time>
   </trkpt>
   <trkpt lat="31.9376180" lon="34.9598640">
    <ele>130.6</ele>
    <time>2018-08-18T05:53:20Z</time>
   </trkpt>
   <trkpt lat="31.9376220" lon="34.9598180">
    <ele>130.9</ele>
    <time>2018-08-18T05:53:21Z</time>
   </trkpt>
   <trkpt lat="31.9376310" lon="34.9597760">
    <ele>130.7</ele>
    <time>2018-08-18T05:53:22Z</time>
   </trkpt>
   <trkpt lat="31.9376460" lon="34.9597310">
    <ele>130.5</ele>
    <time>2018-08-18T05:53:23Z</time>
   </trkpt>
   <trkpt lat="31.9376630" lon="34.9596900">
    <ele>130.2</ele>
    <time>2018-08-18T05:53:24Z</time>
   </trkpt>
   <trkpt lat="31.9376810" lon="34.9596600">
    <ele>129.8</ele>
    <time>2018-08-18T05:53:25Z</time>
   </trkpt>
   <trkpt lat="31.9377080" lon="34.9596150">
    <ele>129.5</ele>
    <time>2018-08-18T05:53:27Z</time>
   </trkpt>
   <trkpt lat="31.9377240" lon="34.9595710">
    <ele>129.1</ele>
    <time>2018-08-18T05:53:29Z</time>
   </trkpt>
   <trkpt lat="31.9377370" lon="34.9595330">
    <ele>128.8</ele>
    <time>2018-08-18T05:53:31Z</time>
   </trkpt>
   <trkpt lat="31.9377150" lon="34.9594730">
    <ele>128.5</ele>
    <time>2018-08-18T05:53:33Z</time>
   </trkpt>
   <trkpt lat="31.9377030" lon="34.9594320">
    <ele>128.3</ele>
    <time>2018-08-18T05:53:34Z</time>
   </trkpt>
   <trkpt lat="31.9376900" lon="34.9593890">
    <ele>127.9</ele>
    <time>2018-08-18T05:53:35Z</time>
   </trkpt>
   <trkpt lat="31.9376760" lon="34.9593570">
    <ele>127.7</ele>
    <time>2018-08-18T05:53:36Z</time>
   </trkpt>
   <trkpt lat="31.9376620" lon="34.9593200">
    <ele>127.5</ele>
    <time>2018-08-18T05:53:37Z</time>
   </trkpt>
   <trkpt lat="31.9376460" lon="34.9592750">
    <ele>127.3</ele>
    <time>2018-08-18T05:53:38Z</time>
   </trkpt>
   <trkpt lat="31.9376340" lon="34.9592330">
    <ele>127.2</ele>
    <time>2018-08-18T05:53:39Z</time>
   </trkpt>
   <trkpt lat="31.9376210" lon="34.9591800">
    <ele>127.0</ele>
    <time>2018-08-18T05:53:40Z</time>
   </trkpt>
   <trkpt lat="31.9376110" lon="34.9591380">
    <ele>126.8</ele>
    <time>2018-08-18T05:53:41Z</time>
   </trkpt>
   <trkpt lat="31.9375990" lon="34.9590910">
    <ele>126.7</ele>
    <time>2018-08-18T05:53:42Z</time>
   </trkpt>
   <trkpt lat="31.9375900" lon="34.9590420">
    <ele>126.5</ele>
    <time>2018-08-18T05:53:43Z</time>
   </trkpt>
   <trkpt lat="31.9375850" lon="34.9589890">
    <ele>126.4</ele>
    <time>2018-08-18T05:53:44Z</time>
   </trkpt>
   <trkpt lat="31.9375830" lon="34.9589420">
    <ele>126.2</ele>
    <time>2018-08-18T05:53:45Z</time>
   </trkpt>
   <trkpt lat="31.9375830" lon="34.9589010">
    <ele>126.1</ele>
    <time>2018-08-18T05:53:46Z</time>
   </trkpt>
   <trkpt lat="31.9375830" lon="34.9588640">
    <ele>126.0</ele>
    <time>2018-08-18T05:53:47Z</time>
   </trkpt>
   <trkpt lat="31.9375760" lon="34.9588200">
    <ele>125.8</ele>
    <time>2018-08-18T05:53:48Z</time>
   </trkpt>
   <trkpt lat="31.9375710" lon="34.9587790">
    <ele>125.7</ele>
    <time>2018-08-18T05:53:49Z</time>
   </trkpt>
   <trkpt lat="31.9375710" lon="34.9587400">
    <ele>125.6</ele>
    <time>2018-08-18T05:53:50Z</time>
   </trkpt>
   <trkpt lat="31.9375700" lon="34.9586810">
    <ele>125.5</ele>
    <time>2018-08-18T05:53:52Z</time>
   </trkpt>
   <trkpt lat="31.9375570" lon="34.9586230">
    <ele>125.3</ele>
    <time>2018-08-18T05:53:54Z</time>
   </trkpt>
   <trkpt lat="31.9375470" lon="34.9585930">
    <ele>125.2</ele>
    <time>2018-08-18T05:53:55Z</time>
   </trkpt>
   <trkpt lat="31.9375380" lon="34.9585630">
    <ele>125.2</ele>
    <time>2018-08-18T05:53:56Z</time>
   </trkpt>
   <trkpt lat="31.9375290" lon="34.9585270">
    <ele>125.1</ele>
    <time>2018-08-18T05:53:57Z</time>
   </trkpt>
   <trkpt lat="31.9375220" lon="34.9584960">
    <ele>125.0</ele>
    <time>2018-08-18T05:53:58Z</time>
   </trkpt>
   <trkpt lat="31.9375050" lon="34.9584560">
    <ele>124.9</ele>
    <time>2018-08-18T05:53:59Z</time>
   </trkpt>
   <trkpt lat="31.9374850" lon="34.9584070">
    <ele>124.8</ele>
    <time>2018-08-18T05:54:01Z</time>
   </trkpt>
   <trkpt lat="31.9374730" lon="34.9583430">
    <ele>124.6</ele>
    <time>2018-08-18T05:54:03Z</time>
   </trkpt>
   <trkpt lat="31.9374610" lon="34.9583000">
    <ele>124.5</ele>
    <time>2018-08-18T05:54:04Z</time>
   </trkpt>
   <trkpt lat="31.9374500" lon="34.9582590">
    <ele>124.4</ele>
    <time>2018-08-18T05:54:05Z</time>
   </trkpt>
   <trkpt lat="31.9374380" lon="34.9582130">
    <ele>124.3</ele>
    <time>2018-08-18T05:54:06Z</time>
   </trkpt>
   <trkpt lat="31.9374320" lon="34.9581710">
    <ele>124.2</ele>
    <time>2018-08-18T05:54:07Z</time>
   </trkpt>
   <trkpt lat="31.9374220" lon="34.9581300">
    <ele>124.1</ele>
    <time>2018-08-18T05:54:08Z</time>
   </trkpt>
   <trkpt lat="31.9374110" lon="34.9580830">
    <ele>123.9</ele>
    <time>2018-08-18T05:54:09Z</time>
   </trkpt>
   <trkpt lat="31.9374030" lon="34.9580420">
    <ele>123.8</ele>
    <time>2018-08-18T05:54:10Z</time>
   </trkpt>
   <trkpt lat="31.9373950" lon="34.9580010">
    <ele>123.7</ele>
    <time>2018-08-18T05:54:11Z</time>
   </trkpt>
   <trkpt lat="31.9373870" lon="34.9579600">
    <ele>123.6</ele>
    <time>2018-08-18T05:54:12Z</time>
   </trkpt>
   <trkpt lat="31.9373790" lon="34.9579200">
    <ele>123.4</ele>
    <time>2018-08-18T05:54:13Z</time>
   </trkpt>
   <trkpt lat="31.9373690" lon="34.9578730">
    <ele>123.2</ele>
    <time>2018-08-18T05:54:14Z</time>
   </trkpt>
   <trkpt lat="31.9373580" lon="34.9578300">
    <ele>123.0</ele>
    <time>2018-08-18T05:54:15Z</time>
   </trkpt>
   <trkpt lat="31.9373520" lon="34.9577890">
    <ele>122.8</ele>
    <time>2018-08-18T05:54:16Z</time>
   </trkpt>
   <trkpt lat="31.9373460" lon="34.9577430">
    <ele>122.6</ele>
    <time>2018-08-18T05:54:17Z</time>
   </trkpt>
   <trkpt lat="31.9373430" lon="34.9577080">
    <ele>122.5</ele>
    <time>2018-08-18T05:54:18Z</time>
   </trkpt>
   <trkpt lat="31.9373360" lon="34.9576710">
    <ele>122.3</ele>
    <time>2018-08-18T05:54:19Z</time>
   </trkpt>
   <trkpt lat="31.9373270" lon="34.9576370">
    <ele>121.9</ele>
    <time>2018-08-18T05:54:20Z</time>
   </trkpt>
   <trkpt lat="31.9373190" lon="34.9576040">
    <ele>121.5</ele>
    <time>2018-08-18T05:54:21Z</time>
   </trkpt>
   <trkpt lat="31.9373150" lon="34.9575590">
    <ele>120.8</ele>
    <time>2018-08-18T05:54:22Z</time>
   </trkpt>
   <trkpt lat="31.9373220" lon="34.9575170">
    <ele>120.2</ele>
    <time>2018-08-18T05:54:23Z</time>
   </trkpt>
   <trkpt lat="31.9373440" lon="34.9574880">
    <ele>119.6</ele>
    <time>2018-08-18T05:54:24Z</time>
   </trkpt>
   <trkpt lat="31.9373700" lon="34.9574620">
    <ele>119.0</ele>
    <time>2018-08-18T05:54:25Z</time>
   </trkpt>
   <trkpt lat="31.9374080" lon="34.9574410">
    <ele>119.1</ele>
    <time>2018-08-18T05:54:27Z</time>
   </trkpt>
   <trkpt lat="31.9374430" lon="34.9574460">
    <ele>119.3</ele>
    <time>2018-08-18T05:54:29Z</time>
   </trkpt>
   <trkpt lat="31.9374700" lon="34.9574590">
    <ele>119.5</ele>
    <time>2018-08-18T05:54:33Z</time>
   </trkpt>
   <trkpt lat="31.9374980" lon="34.9574690">
    <ele>119.7</ele>
    <time>2018-08-18T05:54:37Z</time>
   </trkpt>
   <trkpt lat="31.9375390" lon="34.9574890">
    <ele>120.0</ele>
    <time>2018-08-18T05:54:39Z</time>
   </trkpt>
   <trkpt lat="31.9375820" lon="34.9575300">
    <ele>120.4</ele>
    <time>2018-08-18T05:54:41Z</time>
   </trkpt>
   <trkpt lat="31.9376100" lon="34.9575570">
    <ele>120.8</ele>
    <time>2018-08-18T05:54:43Z</time>
   </trkpt>
   <trkpt lat="31.9376580" lon="34.9575650">
    <ele>121.3</ele>
    <time>2018-08-18T05:54:46Z</time>
   </trkpt>
   <trkpt lat="31.9376970" lon="34.9575510">
    <ele>122.0</ele>
    <time>2018-08-18T05:54:48Z</time>
   </trkpt>
   <trkpt lat="31.9377310" lon="34.9575230">
    <ele>122.8</ele>
    <time>2018-08-18T05:54:50Z</time>
   </trkpt>
   <trkpt lat="31.9377780" lon="34.9574990">
    <ele>123.9</ele>
    <time>2018-08-18T05:54:52Z</time>
   </trkpt>
   <trkpt lat="31.9378190" lon="34.9574860">
    <ele>124.5</ele>
    <time>2018-08-18T05:54:54Z</time>
   </trkpt>
   <trkpt lat="31.9378470" lon="34.9575070">
    <ele>124.9</ele>
    <time>2018-08-18T05:54:56Z</time>
   </trkpt>
   <trkpt lat="31.9378840" lon="34.9575030">
    <ele>125.2</ele>
    <time>2018-08-18T05:54:58Z</time>
   </trkpt>
   <trkpt lat="31.9379220" lon="34.9574870">
    <ele>125.6</ele>
    <time>2018-08-18T05:55:00Z</time>
   </trkpt>
   <trkpt lat="31.9379650" lon="34.9574730">
    <ele>126.0</ele>
    <time>2018-08-18T05:55:02Z</time>
   </trkpt>
   <trkpt lat="31.9380020" lon="34.9574670">
    <ele>126.5</ele>
    <time>2018-08-18T05:55:04Z</time>
   </trkpt>
   <trkpt lat="31.9380460" lon="34.9574610">
    <ele>127.2</ele>
    <time>2018-08-18T05:55:06Z</time>
   </trkpt>
   <trkpt lat="31.9380810" lon="34.9574510">
    <ele>127.8</ele>
    <time>2018-08-18T05:55:08Z</time>
   </trkpt>
   <trkpt lat="31.9381150" lon="34.9574510">
    <ele>128.3</ele>
    <time>2018-08-18T05:55:10Z</time>
   </trkpt>
   <trkpt lat="31.9381510" lon="34.9574570">
    <ele>128.9</ele>
    <time>2018-08-18T05:55:12Z</time>
   </trkpt>
   <trkpt lat="31.9381940" lon="34.9574700">
    <ele>129.7</ele>
    <time>2018-08-18T05:55:14Z</time>
   </trkpt>
   <trkpt lat="31.9382280" lon="34.9574800">
    <ele>130.3</ele>
    <time>2018-08-18T05:55:16Z</time>
   </trkpt>
   <trkpt lat="31.9382750" lon="34.9574960">
    <ele>131.2</ele>
    <time>2018-08-18T05:55:18Z</time>
   </trkpt>
   <trkpt lat="31.9383050" lon="34.9575130">
    <ele>131.7</ele>
    <time>2018-08-18T05:55:20Z</time>
   </trkpt>
   <trkpt lat="31.9383320" lon="34.9575200">
    <ele>132.2</ele>
    <time>2018-08-18T05:55:22Z</time>
   </trkpt>
   <trkpt lat="31.9383650" lon="34.9575260">
    <ele>132.7</ele>
    <time>2018-08-18T05:55:24Z</time>
   </trkpt>
   <trkpt lat="31.9384020" lon="34.9575280">
    <ele>133.2</ele>
    <time>2018-08-18T05:55:26Z</time>
   </trkpt>
   <trkpt lat="31.9384300" lon="34.9575460">
    <ele>133.4</ele>
    <time>2018-08-18T05:55:28Z</time>
   </trkpt>
   <trkpt lat="31.9384620" lon="34.9575490">
    <ele>133.6</ele>
    <time>2018-08-18T05:55:31Z</time>
   </trkpt>
   <trkpt lat="31.9385000" lon="34.9575450">
    <ele>133.8</ele>
    <time>2018-08-18T05:55:33Z</time>
   </trkpt>
   <trkpt lat="31.9385280" lon="34.9575270">
    <ele>134.0</ele>
    <time>2018-08-18T05:55:35Z</time>
   </trkpt>
   <trkpt lat="31.9385500" lon="34.9574970">
    <ele>134.2</ele>
    <time>2018-08-18T05:55:37Z</time>
   </trkpt>
   <trkpt lat="31.9385770" lon="34.9574580">
    <ele>134.3</ele>
    <time>2018-08-18T05:55:39Z</time>
   </trkpt>
   <trkpt lat="31.9386080" lon="34.9574270">
    <ele>134.5</ele>
    <time>2018-08-18T05:55:41Z</time>
   </trkpt>
   <trkpt lat="31.9386380" lon="34.9573860">
    <ele>134.6</ele>
    <time>2018-08-18T05:55:43Z</time>
   </trkpt>
   <trkpt lat="31.9386670" lon="34.9573420">
    <ele>134.8</ele>
    <time>2018-08-18T05:55:45Z</time>
   </trkpt>
   <trkpt lat="31.9386830" lon="34.9573160">
    <ele>134.9</ele>
    <time>2018-08-18T05:55:46Z</time>
   </trkpt>
   <trkpt lat="31.9387110" lon="34.9572640">
    <ele>135.1</ele>
    <time>2018-08-18T05:55:48Z</time>
   </trkpt>
   <trkpt lat="31.9387250" lon="34.9572310">
    <ele>135.2</ele>
    <time>2018-08-18T05:55:49Z</time>
   </trkpt>
   <trkpt lat="31.9387390" lon="34.9572040">
    <ele>135.3</ele>
    <time>2018-08-18T05:55:50Z</time>
   </trkpt>
   <trkpt lat="31.9387660" lon="34.9571540">
    <ele>135.4</ele>
    <time>2018-08-18T05:55:52Z</time>
   </trkpt>
   <trkpt lat="31.9387780" lon="34.9571220">
    <ele>135.5</ele>
    <time>2018-08-18T05:55:53Z</time>
   </trkpt>
   <trkpt lat="31.9387830" lon="34.9570820">
    <ele>135.6</ele>
    <time>2018-08-18T05:55:54Z</time>
   </trkpt>
   <trkpt lat="31.9387880" lon="34.9570430">
    <ele>135.7</ele>
    <time>2018-08-18T05:55:55Z</time>
   </trkpt>
   <trkpt lat="31.9387940" lon="34.9570120">
    <ele>135.8</ele>
    <time>2018-08-18T05:55:56Z</time>
   </trkpt>
   <trkpt lat="31.9388160" lon="34.9569870">
    <ele>135.9</ele>
    <time>2018-08-18T05:55:57Z</time>
   </trkpt>
   <trkpt lat="31.9388420" lon="34.9569670">
    <ele>135.9</ele>
    <time>2018-08-18T05:55:58Z</time>
   </trkpt>
   <trkpt lat="31.9388670" lon="34.9569480">
    <ele>135.5</ele>
    <time>2018-08-18T05:55:59Z</time>
   </trkpt>
   <trkpt lat="31.9388920" lon="34.9569270">
    <ele>135.1</ele>
    <time>2018-08-18T05:56:00Z</time>
   </trkpt>
   <trkpt lat="31.9389090" lon="34.9568990">
    <ele>134.8</ele>
    <time>2018-08-18T05:56:01Z</time>
   </trkpt>
   <trkpt lat="31.9389360" lon="34.9568650">
    <ele>134.3</ele>
    <time>2018-08-18T05:56:03Z</time>
   </trkpt>
   <trkpt lat="31.9389700" lon="34.9568320">
    <ele>133.7</ele>
    <time>2018-08-18T05:56:05Z</time>
   </trkpt>
   <trkpt lat="31.9390120" lon="34.9568240">
    <ele>133.0</ele>
    <time>2018-08-18T05:56:07Z</time>
   </trkpt>
   <trkpt lat="31.9390520" lon="34.9568220">
    <ele>132.4</ele>
    <time>2018-08-18T05:56:09Z</time>
   </trkpt>
   <trkpt lat="31.9390830" lon="34.9568110">
    <ele>131.9</ele>
    <time>2018-08-18T05:56:22Z</time>
   </trkpt>
   <trkpt lat="31.9391180" lon="34.9568060">
    <ele>131.3</ele>
    <time>2018-08-18T05:56:24Z</time>
   </trkpt>
   <trkpt lat="31.9391560" lon="34.9567990">
    <ele>130.5</ele>
    <time>2018-08-18T05:56:26Z</time>
   </trkpt>
   <trkpt lat="31.9391840" lon="34.9567900">
    <ele>130.0</ele>
    <time>2018-08-18T05:56:28Z</time>
   </trkpt>
   <trkpt lat="31.9392220" lon="34.9567570">
    <ele>129.0</ele>
    <time>2018-08-18T05:56:30Z</time>
   </trkpt>
   <trkpt lat="31.9392390" lon="34.9567100">
    <ele>128.1</ele>
    <time>2018-08-18T05:56:32Z</time>
   </trkpt>
   <trkpt lat="31.9392520" lon="34.9566590">
    <ele>126.9</ele>
    <time>2018-08-18T05:56:34Z</time>
   </trkpt>
   <trkpt lat="31.9392600" lon="34.9566260">
    <ele>126.1</ele>
    <time>2018-08-18T05:56:35Z</time>
   </trkpt>
   <trkpt lat="31.9392640" lon="34.9565920">
    <ele>125.8</ele>
    <time>2018-08-18T05:56:36Z</time>
   </trkpt>
   <trkpt lat="31.9392710" lon="34.9565410">
    <ele>125.4</ele>
    <time>2018-08-18T05:56:38Z</time>
   </trkpt>
   <trkpt lat="31.9392760" lon="34.9565090">
    <ele>125.2</ele>
    <time>2018-08-18T05:56:39Z</time>
   </trkpt>
   <trkpt lat="31.9392870" lon="34.9564510">
    <ele>124.9</ele>
    <time>2018-08-18T05:56:41Z</time>
   </trkpt>
   <trkpt lat="31.9393050" lon="34.9564040">
    <ele>124.7</ele>
    <time>2018-08-18T05:56:43Z</time>
   </trkpt>
   <trkpt lat="31.9393290" lon="34.9563520">
    <ele>124.4</ele>
    <time>2018-08-18T05:56:45Z</time>
   </trkpt>
   <trkpt lat="31.9393470" lon="34.9563090">
    <ele>124.0</ele>
    <time>2018-08-18T05:56:47Z</time>
   </trkpt>
   <trkpt lat="31.9393680" lon="34.9562750">
    <ele>123.7</ele>
    <time>2018-08-18T05:56:49Z</time>
   </trkpt>
   <trkpt lat="31.9393870" lon="34.9562360">
    <ele>123.3</ele>
    <time>2018-08-18T05:56:51Z</time>
   </trkpt>
   <trkpt lat="31.9394100" lon="34.9561750">
    <ele>122.6</ele>
    <time>2018-08-18T05:56:53Z</time>
   </trkpt>
   <trkpt lat="31.9394280" lon="34.9561450">
    <ele>122.5</ele>
    <time>2018-08-18T05:56:54Z</time>
   </trkpt>
   <trkpt lat="31.9394480" lon="34.9561180">
    <ele>122.5</ele>
    <time>2018-08-18T05:56:55Z</time>
   </trkpt>
   <trkpt lat="31.9394710" lon="34.9560970">
    <ele>122.6</ele>
    <time>2018-08-18T05:56:56Z</time>
   </trkpt>
   <trkpt lat="31.9394980" lon="34.9560790">
    <ele>122.4</ele>
    <time>2018-08-18T05:56:57Z</time>
   </trkpt>
   <trkpt lat="31.9395550" lon="34.9560680">
    <ele>121.8</ele>
    <time>2018-08-18T05:56:59Z</time>
   </trkpt>
   <trkpt lat="31.9395920" lon="34.9560700">
    <ele>121.9</ele>
    <time>2018-08-18T05:57:00Z</time>
   </trkpt>
   <trkpt lat="31.9396290" lon="34.9560830">
    <ele>122.0</ele>
    <time>2018-08-18T05:57:01Z</time>
   </trkpt>
   <trkpt lat="31.9396750" lon="34.9560810">
    <ele>122.0</ele>
    <time>2018-08-18T05:57:02Z</time>
   </trkpt>
   <trkpt lat="31.9397110" lon="34.9560700">
    <ele>121.9</ele>
    <time>2018-08-18T05:57:03Z</time>
   </trkpt>
   <trkpt lat="31.9397570" lon="34.9560680">
    <ele>122.1</ele>
    <time>2018-08-18T05:57:04Z</time>
   </trkpt>
   <trkpt lat="31.9397960" lon="34.9560700">
    <ele>122.5</ele>
    <time>2018-08-18T05:57:05Z</time>
   </trkpt>
   <trkpt lat="31.9398280" lon="34.9560730">
    <ele>122.7</ele>
    <time>2018-08-18T05:57:06Z</time>
   </trkpt>
   <trkpt lat="31.9398610" lon="34.9560690">
    <ele>122.7</ele>
    <time>2018-08-18T05:57:07Z</time>
   </trkpt>
   <trkpt lat="31.9398930" lon="34.9560650">
    <ele>122.6</ele>
    <time>2018-08-18T05:57:08Z</time>
   </trkpt>
   <trkpt lat="31.9399520" lon="34.9560480">
    <ele>123.0</ele>
    <time>2018-08-18T05:57:10Z</time>
   </trkpt>
   <trkpt lat="31.9399790" lon="34.9560310">
    <ele>123.3</ele>
    <time>2018-08-18T05:57:11Z</time>
   </trkpt>
   <trkpt lat="31.9400110" lon="34.9560160">
    <ele>123.3</ele>
    <time>2018-08-18T05:57:12Z</time>
   </trkpt>
   <trkpt lat="31.9400500" lon="34.9560060">
    <ele>123.3</ele>
    <time>2018-08-18T05:57:13Z</time>
   </trkpt>
   <trkpt lat="31.9400820" lon="34.9559940">
    <ele>123.5</ele>
    <time>2018-08-18T05:57:14Z</time>
   </trkpt>
   <trkpt lat="31.9401210" lon="34.9559740">
    <ele>124.5</ele>
    <time>2018-08-18T05:57:15Z</time>
   </trkpt>
   <trkpt lat="31.9401610" lon="34.9559520">
    <ele>125.5</ele>
    <time>2018-08-18T05:57:16Z</time>
   </trkpt>
   <trkpt lat="31.9401900" lon="34.9559400">
    <ele>126.1</ele>
    <time>2018-08-18T05:57:17Z</time>
   </trkpt>
   <trkpt lat="31.9402180" lon="34.9559350">
    <ele>126.6</ele>
    <time>2018-08-18T05:57:18Z</time>
   </trkpt>
   <trkpt lat="31.9402630" lon="34.9559290">
    <ele>127.0</ele>
    <time>2018-08-18T05:57:19Z</time>
   </trkpt>
   <trkpt lat="31.9403010" lon="34.9559230">
    <ele>127.4</ele>
    <time>2018-08-18T05:57:20Z</time>
   </trkpt>
   <trkpt lat="31.9403440" lon="34.9559270">
    <ele>127.8</ele>
    <time>2018-08-18T05:57:21Z</time>
   </trkpt>
   <trkpt lat="31.9403750" lon="34.9559300">
    <ele>128.0</ele>
    <time>2018-08-18T05:57:22Z</time>
   </trkpt>
   <trkpt lat="31.9404040" lon="34.9559500">
    <ele>128.0</ele>
    <time>2018-08-18T05:57:23Z</time>
   </trkpt>
   <trkpt lat="31.9404320" lon="34.9559710">
    <ele>128.0</ele>
    <time>2018-08-18T05:57:24Z</time>
   </trkpt>
   <trkpt lat="31.9404610" lon="34.9559870">
    <ele>128.0</ele>
    <time>2018-08-18T05:57:25Z</time>
   </trkpt>
   <trkpt lat="31.9404850" lon="34.9560130">
    <ele>128.0</ele>
    <time>2018-08-18T05:57:26Z</time>
   </trkpt>
   <trkpt lat="31.9405030" lon="34.9560440">
    <ele>128.0</ele>
    <time>2018-08-18T05:57:27Z</time>
   </trkpt>
   <trkpt lat="31.9405420" lon="34.9560880">
    <ele>128.3</ele>
    <time>2018-08-18T05:57:29Z</time>
   </trkpt>
   <trkpt lat="31.9405700" lon="34.9561220">
    <ele>128.6</ele>
    <time>2018-08-18T05:57:31Z</time>
   </trkpt>
   <trkpt lat="31.9405960" lon="34.9561550">
    <ele>128.9</ele>
    <time>2018-08-18T05:57:33Z</time>
   </trkpt>
   <trkpt lat="31.9406160" lon="34.9561860">
    <ele>129.1</ele>
    <time>2018-08-18T05:57:35Z</time>
   </trkpt>
   <trkpt lat="31.9406450" lon="34.9562270">
    <ele>129.3</ele>
    <time>2018-08-18T05:57:37Z</time>
   </trkpt>
   <trkpt lat="31.9406670" lon="34.9562570">
    <ele>129.5</ele>
    <time>2018-08-18T05:57:39Z</time>
   </trkpt>
   <trkpt lat="31.9406880" lon="34.9562820">
    <ele>129.6</ele>
    <time>2018-08-18T05:57:41Z</time>
   </trkpt>
   <trkpt lat="31.9407200" lon="34.9563150">
    <ele>129.8</ele>
    <time>2018-08-18T05:57:43Z</time>
   </trkpt>
   <trkpt lat="31.9407490" lon="34.9563370">
    <ele>129.9</ele>
    <time>2018-08-18T05:57:46Z</time>
   </trkpt>
   <trkpt lat="31.9407780" lon="34.9563550">
    <ele>130.0</ele>
    <time>2018-08-18T05:57:48Z</time>
   </trkpt>
   <trkpt lat="31.9408020" lon="34.9563800">
    <ele>130.3</ele>
    <time>2018-08-18T05:57:50Z</time>
   </trkpt>
   <trkpt lat="31.9408310" lon="34.9563980">
    <ele>130.5</ele>
    <time>2018-08-18T05:57:52Z</time>
   </trkpt>
   <trkpt lat="31.9408580" lon="34.9564180">
    <ele>130.7</ele>
    <time>2018-08-18T05:57:54Z</time>
   </trkpt>
   <trkpt lat="31.9408820" lon="34.9564350">
    <ele>134.2</ele>
    <time>2018-08-18T05:57:56Z</time>
   </trkpt>
   <trkpt lat="31.9409090" lon="34.9564510">
    <ele>137.6</ele>
    <time>2018-08-18T05:57:59Z</time>
   </trkpt>
   <trkpt lat="31.9409380" lon="34.9564700">
    <ele>137.9</ele>
    <time>2018-08-18T05:58:02Z</time>
   </trkpt>
   <trkpt lat="31.9409620" lon="34.9564880">
    <ele>138.1</ele>
    <time>2018-08-18T05:58:04Z</time>
   </trkpt>
   <trkpt lat="31.9409930" lon="34.9565030">
    <ele>138.3</ele>
    <time>2018-08-18T05:58:08Z</time>
   </trkpt>
   <trkpt lat="31.9410220" lon="34.9565150">
    <ele>138.5</ele>
    <time>2018-08-18T05:58:10Z</time>
   </trkpt>
   <trkpt lat="31.9410550" lon="34.9565380">
    <ele>138.8</ele>
    <time>2018-08-18T05:58:12Z</time>
   </trkpt>
   <trkpt lat="31.9410800" lon="34.9565570">
    <ele>139.0</ele>
    <time>2018-08-18T05:58:14Z</time>
   </trkpt>
   <trkpt lat="31.9411210" lon="34.9565920">
    <ele>139.3</ele>
    <time>2018-08-18T05:58:16Z</time>
   </trkpt>
   <trkpt lat="31.9411560" lon="34.9566210">
    <ele>139.6</ele>
    <time>2018-08-18T05:58:19Z</time>
   </trkpt>
   <trkpt lat="31.9411730" lon="34.9566490">
    <ele>139.8</ele>
    <time>2018-08-18T05:58:21Z</time>
   </trkpt>
   <trkpt lat="31.9411930" lon="34.9566980">
    <ele>140.1</ele>
    <time>2018-08-18T05:58:24Z</time>
   </trkpt>
   <trkpt lat="31.9412010" lon="34.9567290">
    <ele>140.3</ele>
    <time>2018-08-18T05:58:26Z</time>
   </trkpt>
   <trkpt lat="31.9412160" lon="34.9567590">
    <ele>140.5</ele>
    <time>2018-08-18T05:58:28Z</time>
   </trkpt>
   <trkpt lat="31.9412140" lon="34.9568020">
    <ele>140.8</ele>
    <time>2018-08-18T05:58:30Z</time>
   </trkpt>
   <trkpt lat="31.9412230" lon="34.9568380">
    <ele>141.0</ele>
    <time>2018-08-18T05:58:32Z</time>
   </trkpt>
   <trkpt lat="31.9412320" lon="34.9568740">
    <ele>141.3</ele>
    <time>2018-08-18T05:58:35Z</time>
   </trkpt>
   <trkpt lat="31.9412430" lon="34.9569130">
    <ele>141.6</ele>
    <time>2018-08-18T05:58:38Z</time>
   </trkpt>
   <trkpt lat="31.9412110" lon="34.9568850">
    <ele>142.0</ele>
    <time>2018-08-18T05:58:46Z</time>
   </trkpt>
   <trkpt lat="31.9411380" lon="34.9569020">
    <ele>142.0</ele>
    <time>2018-08-18T06:00:20Z</time>
   </trkpt>
   <trkpt lat="31.9411340" lon="34.9569460">
    <ele>142.0</ele>
    <time>2018-08-18T06:00:23Z</time>
   </trkpt>
   <trkpt lat="31.9411320" lon="34.9569850">
    <ele>142.0</ele>
    <time>2018-08-18T06:00:26Z</time>
   </trkpt>
   <trkpt lat="31.9411150" lon="34.9570240">
    <ele>142.0</ele>
    <time>2018-08-18T06:00:30Z</time>
   </trkpt>
   <trkpt lat="31.9410940" lon="34.9570480">
    <ele>142.0</ele>
    <time>2018-08-18T06:00:33Z</time>
   </trkpt>
   <trkpt lat="31.9410760" lon="34.9570760">
    <ele>142.0</ele>
    <time>2018-08-18T06:00:37Z</time>
   </trkpt>
   <trkpt lat="31.9410390" lon="34.9570940">
    <ele>142.0</ele>
    <time>2018-08-18T06:00:40Z</time>
   </trkpt>
   <trkpt lat="31.9410010" lon="34.9571050">
    <ele>142.0</ele>
    <time>2018-08-18T06:00:42Z</time>
   </trkpt>
   <trkpt lat="31.9409610" lon="34.9571190">
    <ele>142.0</ele>
    <time>2018-08-18T06:00:44Z</time>
   </trkpt>
   <trkpt lat="31.9409270" lon="34.9571270">
    <ele>142.0</ele>
    <time>2018-08-18T06:00:46Z</time>
   </trkpt>
   <trkpt lat="31.9408910" lon="34.9571460">
    <ele>142.0</ele>
    <time>2018-08-18T06:00:48Z</time>
   </trkpt>
   <trkpt lat="31.9408590" lon="34.9571650">
    <ele>141.9</ele>
    <time>2018-08-18T06:00:50Z</time>
   </trkpt>
   <trkpt lat="31.9408140" lon="34.9571820">
    <ele>141.8</ele>
    <time>2018-08-18T06:00:52Z</time>
   </trkpt>
   <trkpt lat="31.9407850" lon="34.9572010">
    <ele>141.7</ele>
    <time>2018-08-18T06:00:53Z</time>
   </trkpt>
   <trkpt lat="31.9407530" lon="34.9572170">
    <ele>141.5</ele>
    <time>2018-08-18T06:00:54Z</time>
   </trkpt>
   <trkpt lat="31.9407160" lon="34.9572200">
    <ele>141.4</ele>
    <time>2018-08-18T06:00:55Z</time>
   </trkpt>
   <trkpt lat="31.9406870" lon="34.9572270">
    <ele>141.3</ele>
    <time>2018-08-18T06:00:56Z</time>
   </trkpt>
   <trkpt lat="31.9406580" lon="34.9572290">
    <ele>141.1</ele>
    <time>2018-08-18T06:00:57Z</time>
   </trkpt>
   <trkpt lat="31.9406300" lon="34.9572340">
    <ele>140.9</ele>
    <time>2018-08-18T06:00:58Z</time>
   </trkpt>
   <trkpt lat="31.9406030" lon="34.9572390">
    <ele>140.8</ele>
    <time>2018-08-18T06:00:59Z</time>
   </trkpt>
   <trkpt lat="31.9405760" lon="34.9572490">
    <ele>140.6</ele>
    <time>2018-08-18T06:01:00Z</time>
   </trkpt>
   <trkpt lat="31.9405250" lon="34.9572650">
    <ele>140.3</ele>
    <time>2018-08-18T06:01:02Z</time>
   </trkpt>
   <trkpt lat="31.9404950" lon="34.9572750">
    <ele>140.1</ele>
    <time>2018-08-18T06:01:03Z</time>
   </trkpt>
   <trkpt lat="31.9404370" lon="34.9573020">
    <ele>139.7</ele>
    <time>2018-08-18T06:01:05Z</time>
   </trkpt>
   <trkpt lat="31.9404080" lon="34.9573160">
    <ele>139.5</ele>
    <time>2018-08-18T06:01:06Z</time>
   </trkpt>
   <trkpt lat="31.9403700" lon="34.9573580">
    <ele>139.1</ele>
    <time>2018-08-18T06:01:07Z</time>
   </trkpt>
   <trkpt lat="31.9403360" lon="34.9573900">
    <ele>138.8</ele>
    <time>2018-08-18T06:01:08Z</time>
   </trkpt>
   <trkpt lat="31.9403010" lon="34.9574160">
    <ele>138.4</ele>
    <time>2018-08-18T06:01:09Z</time>
   </trkpt>
   <trkpt lat="31.9402650" lon="34.9574380">
    <ele>138.1</ele>
    <time>2018-08-18T06:01:10Z</time>
   </trkpt>
   <trkpt lat="31.9402340" lon="34.9574590">
    <ele>138.2</ele>
    <time>2018-08-18T06:01:11Z</time>
   </trkpt>
   <trkpt lat="31.9402050" lon="34.9574780">
    <ele>138.4</ele>
    <time>2018-08-18T06:01:12Z</time>
   </trkpt>
   <trkpt lat="31.9401720" lon="34.9574930">
    <ele>138.5</ele>
    <time>2018-08-18T06:01:13Z</time>
   </trkpt>
   <trkpt lat="31.9401420" lon="34.9575090">
    <ele>138.7</ele>
    <time>2018-08-18T06:01:14Z</time>
   </trkpt>
   <trkpt lat="31.9401160" lon="34.9575260">
    <ele>138.9</ele>
    <time>2018-08-18T06:01:15Z</time>
   </trkpt>
   <trkpt lat="31.9400890" lon="34.9575510">
    <ele>139.1</ele>
    <time>2018-08-18T06:01:16Z</time>
   </trkpt>
   <trkpt lat="31.9400560" lon="34.9575820">
    <ele>139.7</ele>
    <time>2018-08-18T06:01:17Z</time>
   </trkpt>
   <trkpt lat="31.9400320" lon="34.9576140">
    <ele>140.1</ele>
    <time>2018-08-18T06:01:18Z</time>
   </trkpt>
   <trkpt lat="31.9400150" lon="34.9576470">
    <ele>140.3</ele>
    <time>2018-08-18T06:01:19Z</time>
   </trkpt>
   <trkpt lat="31.9400010" lon="34.9576770">
    <ele>140.4</ele>
    <time>2018-08-18T06:01:20Z</time>
   </trkpt>
   <trkpt lat="31.9399860" lon="34.9577050">
    <ele>140.6</ele>
    <time>2018-08-18T06:01:21Z</time>
   </trkpt>
   <trkpt lat="31.9399680" lon="34.9577550">
    <ele>140.7</ele>
    <time>2018-08-18T06:01:23Z</time>
   </trkpt>
   <trkpt lat="31.9399550" lon="34.9578060">
    <ele>140.8</ele>
    <time>2018-08-18T06:01:25Z</time>
   </trkpt>
   <trkpt lat="31.9399430" lon="34.9578510">
    <ele>140.9</ele>
    <time>2018-08-18T06:01:27Z</time>
   </trkpt>
   <trkpt lat="31.9399470" lon="34.9578980">
    <ele>141.6</ele>
    <time>2018-08-18T06:01:29Z</time>
   </trkpt>
   <trkpt lat="31.9399390" lon="34.9579400">
    <ele>142.1</ele>
    <time>2018-08-18T06:01:31Z</time>
   </trkpt>
   <trkpt lat="31.9399360" lon="34.9579840">
    <ele>142.6</ele>
    <time>2018-08-18T06:01:33Z</time>
   </trkpt>
   <trkpt lat="31.9399400" lon="34.9580350">
    <ele>143.1</ele>
    <time>2018-08-18T06:01:35Z</time>
   </trkpt>
   <trkpt lat="31.9399490" lon="34.9580890">
    <ele>143.7</ele>
    <time>2018-08-18T06:01:37Z</time>
   </trkpt>
   <trkpt lat="31.9399580" lon="34.9581380">
    <ele>144.1</ele>
    <time>2018-08-18T06:01:40Z</time>
   </trkpt>
   <trkpt lat="31.9399680" lon="34.9581910">
    <ele>144.4</ele>
    <time>2018-08-18T06:01:42Z</time>
   </trkpt>
   <trkpt lat="31.9399760" lon="34.9582290">
    <ele>144.6</ele>
    <time>2018-08-18T06:01:44Z</time>
   </trkpt>
   <trkpt lat="31.9399880" lon="34.9582680">
    <ele>144.9</ele>
    <time>2018-08-18T06:01:46Z</time>
   </trkpt>
   <trkpt lat="31.9399950" lon="34.9583100">
    <ele>145.1</ele>
    <time>2018-08-18T06:01:48Z</time>
   </trkpt>
   <trkpt lat="31.9400050" lon="34.9583530">
    <ele>145.5</ele>
    <time>2018-08-18T06:01:50Z</time>
   </trkpt>
   <trkpt lat="31.9400170" lon="34.9583970">
    <ele>145.9</ele>
    <time>2018-08-18T06:01:52Z</time>
   </trkpt>
   <trkpt lat="31.9400190" lon="34.9584360">
    <ele>146.2</ele>
    <time>2018-08-18T06:01:54Z</time>
   </trkpt>
   <trkpt lat="31.9400250" lon="34.9584710">
    <ele>146.6</ele>
    <time>2018-08-18T06:01:56Z</time>
   </trkpt>
   <trkpt lat="31.9400300" lon="34.9585170">
    <ele>147.0</ele>
    <time>2018-08-18T06:01:58Z</time>
   </trkpt>
   <trkpt lat="31.9400410" lon="34.9585610">
    <ele>147.4</ele>
    <time>2018-08-18T06:02:00Z</time>
   </trkpt>
   <trkpt lat="31.9400490" lon="34.9586120">
    <ele>147.8</ele>
    <time>2018-08-18T06:02:02Z</time>
   </trkpt>
   <trkpt lat="31.9400620" lon="34.9586660">
    <ele>148.2</ele>
    <time>2018-08-18T06:02:04Z</time>
   </trkpt>
   <trkpt lat="31.9400670" lon="34.9587070">
    <ele>148.3</ele>
    <time>2018-08-18T06:02:06Z</time>
   </trkpt>
   <trkpt lat="31.9400800" lon="34.9587480">
    <ele>148.4</ele>
    <time>2018-08-18T06:02:08Z</time>
   </trkpt>
   <trkpt lat="31.9400920" lon="34.9587930">
    <ele>148.5</ele>
    <time>2018-08-18T06:02:10Z</time>
   </trkpt>
   <trkpt lat="31.9401040" lon="34.9588370">
    <ele>148.5</ele>
    <time>2018-08-18T06:02:12Z</time>
   </trkpt>
   <trkpt lat="31.9401230" lon="34.9588700">
    <ele>148.6</ele>
    <time>2018-08-18T06:02:14Z</time>
   </trkpt>
   <trkpt lat="31.9401320" lon="34.9589110">
    <ele>148.7</ele>
    <time>2018-08-18T06:02:16Z</time>
   </trkpt>
   <trkpt lat="31.9401470" lon="34.9589440">
    <ele>148.8</ele>
    <time>2018-08-18T06:02:18Z</time>
   </trkpt>
   <trkpt lat="31.9401610" lon="34.9589810">
    <ele>148.8</ele>
    <time>2018-08-18T06:02:20Z</time>
   </trkpt>
   <trkpt lat="31.9401750" lon="34.9590180">
    <ele>148.9</ele>
    <time>2018-08-18T06:02:22Z</time>
   </trkpt>
   <trkpt lat="31.9401840" lon="34.9590620">
    <ele>149.0</ele>
    <time>2018-08-18T06:02:24Z</time>
   </trkpt>
   <trkpt lat="31.9401930" lon="34.9591040">
    <ele>149.1</ele>
    <time>2018-08-18T06:02:26Z</time>
   </trkpt>
   <trkpt lat="31.9402080" lon="34.9591500">
    <ele>149.1</ele>
    <time>2018-08-18T06:02:28Z</time>
   </trkpt>
   <trkpt lat="31.9402260" lon="34.9591850">
    <ele>149.2</ele>
    <time>2018-08-18T06:02:30Z</time>
   </trkpt>
   <trkpt lat="31.9402520" lon="34.9592280">
    <ele>149.3</ele>
    <time>2018-08-18T06:02:32Z</time>
   </trkpt>
   <trkpt lat="31.9402730" lon="34.9592710">
    <ele>149.4</ele>
    <time>2018-08-18T06:02:34Z</time>
   </trkpt>
   <trkpt lat="31.9402950" lon="34.9593210">
    <ele>149.5</ele>
    <time>2018-08-18T06:02:36Z</time>
   </trkpt>
   <trkpt lat="31.9403130" lon="34.9593610">
    <ele>149.5</ele>
    <time>2018-08-18T06:02:38Z</time>
   </trkpt>
   <trkpt lat="31.9403350" lon="34.9594040">
    <ele>149.6</ele>
    <time>2018-08-18T06:02:40Z</time>
   </trkpt>
   <trkpt lat="31.9403540" lon="34.9594430">
    <ele>149.7</ele>
    <time>2018-08-18T06:02:42Z</time>
   </trkpt>
   <trkpt lat="31.9403660" lon="34.9594720">
    <ele>149.7</ele>
    <time>2018-08-18T06:02:43Z</time>
   </trkpt>
   <trkpt lat="31.9403770" lon="34.9595030">
    <ele>149.8</ele>
    <time>2018-08-18T06:02:44Z</time>
   </trkpt>
   <trkpt lat="31.9404000" lon="34.9595530">
    <ele>149.8</ele>
    <time>2018-08-18T06:02:46Z</time>
   </trkpt>
   <trkpt lat="31.9404280" lon="34.9596070">
    <ele>149.9</ele>
    <time>2018-08-18T06:02:48Z</time>
   </trkpt>
   <trkpt lat="31.9404470" lon="34.9596410">
    <ele>150.0</ele>
    <time>2018-08-18T06:02:49Z</time>
   </trkpt>
   <trkpt lat="31.9404600" lon="34.9596710">
    <ele>150.0</ele>
    <time>2018-08-18T06:02:50Z</time>
   </trkpt>
   <trkpt lat="31.9404730" lon="34.9597040">
    <ele>150.0</ele>
    <time>2018-08-18T06:02:51Z</time>
   </trkpt>
   <trkpt lat="31.9404920" lon="34.9597350">
    <ele>150.1</ele>
    <time>2018-08-18T06:02:52Z</time>
   </trkpt>
   <trkpt lat="31.9405130" lon="34.9597660">
    <ele>150.1</ele>
    <time>2018-08-18T06:02:53Z</time>
   </trkpt>
   <trkpt lat="31.9405380" lon="34.9597920">
    <ele>150.2</ele>
    <time>2018-08-18T06:02:54Z</time>
   </trkpt>
   <trkpt lat="31.9405600" lon="34.9598190">
    <ele>150.3</ele>
    <time>2018-08-18T06:02:55Z</time>
   </trkpt>
   <trkpt lat="31.9405820" lon="34.9598510">
    <ele>150.3</ele>
    <time>2018-08-18T06:02:56Z</time>
   </trkpt>
   <trkpt lat="31.9406020" lon="34.9598830">
    <ele>150.3</ele>
    <time>2018-08-18T06:02:57Z</time>
   </trkpt>
   <trkpt lat="31.9406260" lon="34.9599200">
    <ele>150.3</ele>
    <time>2018-08-18T06:02:58Z</time>
   </trkpt>
   <trkpt lat="31.9406540" lon="34.9599560">
    <ele>150.2</ele>
    <time>2018-08-18T06:02:59Z</time>
   </trkpt>
   <trkpt lat="31.9406770" lon="34.9599900">
    <ele>150.2</ele>
    <time>2018-08-18T06:03:00Z</time>
   </trkpt>
   <trkpt lat="31.9407030" lon="34.9600300">
    <ele>150.2</ele>
    <time>2018-08-18T06:03:01Z</time>
   </trkpt>
   <trkpt lat="31.9407330" lon="34.9600750">
    <ele>150.2</ele>
    <time>2018-08-18T06:03:02Z</time>
   </trkpt>
   <trkpt lat="31.9407610" lon="34.9601230">
    <ele>150.1</ele>
    <time>2018-08-18T06:03:03Z</time>
   </trkpt>
   <trkpt lat="31.9407830" lon="34.9601820">
    <ele>150.1</ele>
    <time>2018-08-18T06:03:04Z</time>
   </trkpt>
   <trkpt lat="31.9408160" lon="34.9602440">
    <ele>150.1</ele>
    <time>2018-08-18T06:03:05Z</time>
   </trkpt>
   <trkpt lat="31.9408480" lon="34.9603020">
    <ele>150.0</ele>
    <time>2018-08-18T06:03:06Z</time>
   </trkpt>
   <trkpt lat="31.9408690" lon="34.9603680">
    <ele>149.9</ele>
    <time>2018-08-18T06:03:07Z</time>
   </trkpt>
   <trkpt lat="31.9408880" lon="34.9604380">
    <ele>150.0</ele>
    <time>2018-08-18T06:03:08Z</time>
   </trkpt>
   <trkpt lat="31.9408990" lon="34.9605210">
    <ele>150.0</ele>
    <time>2018-08-18T06:03:09Z</time>
   </trkpt>
   <trkpt lat="31.9409080" lon="34.9605960">
    <ele>150.1</ele>
    <time>2018-08-18T06:03:10Z</time>
   </trkpt>
   <trkpt lat="31.9409240" lon="34.9606620">
    <ele>150.2</ele>
    <time>2018-08-18T06:03:11Z</time>
   </trkpt>
   <trkpt lat="31.9409360" lon="34.9607430">
    <ele>150.3</ele>
    <time>2018-08-18T06:03:12Z</time>
   </trkpt>
   <trkpt lat="31.9409490" lon="34.9608230">
    <ele>150.4</ele>
    <time>2018-08-18T06:03:13Z</time>
   </trkpt>
   <trkpt lat="31.9409550" lon="34.9608920">
    <ele>150.5</ele>
    <time>2018-08-18T06:03:14Z</time>
   </trkpt>
   <trkpt lat="31.9409610" lon="34.9609630">
    <ele>150.7</ele>
    <time>2018-08-18T06:03:15Z</time>
   </trkpt>
   <trkpt lat="31.9409670" lon="34.9610240">
    <ele>151.6</ele>
    <time>2018-08-18T06:03:16Z</time>
   </trkpt>
   <trkpt lat="31.9409760" lon="34.9610660">
    <ele>151.9</ele>
    <time>2018-08-18T06:03:17Z</time>
   </trkpt>
   <trkpt lat="31.9410060" lon="34.9610970">
    <ele>152.2</ele>
    <time>2018-08-18T06:03:19Z</time>
   </trkpt>
   <trkpt lat="31.9410530" lon="34.9610840">
    <ele>152.5</ele>
    <time>2018-08-18T06:03:21Z</time>
   </trkpt>
   <trkpt lat="31.9411000" lon="34.9610710">
    <ele>153.0</ele>
    <time>2018-08-18T06:03:23Z</time>
   </trkpt>
   <trkpt lat="31.9411590" lon="34.9610520">
    <ele>153.6</ele>
    <time>2018-08-18T06:03:25Z</time>
   </trkpt>
   <trkpt lat="31.9411950" lon="34.9610340">
    <ele>153.8</ele>
    <time>2018-08-18T06:03:26Z</time>
   </trkpt>
   <trkpt lat="31.9412300" lon="34.9610180">
    <ele>154.0</ele>
    <time>2018-08-18T06:03:27Z</time>
   </trkpt>
   <trkpt lat="31.9412580" lon="34.9610000">
    <ele>154.2</ele>
    <time>2018-08-18T06:03:28Z</time>
   </trkpt>
   <trkpt lat="31.9412810" lon="34.9609820">
    <ele>154.4</ele>
    <time>2018-08-18T06:03:29Z</time>
   </trkpt>
   <trkpt lat="31.9413070" lon="34.9609690">
    <ele>154.6</ele>
    <time>2018-08-18T06:03:30Z</time>
   </trkpt>
   <trkpt lat="31.9413510" lon="34.9609390">
    <ele>155.1</ele>
    <time>2018-08-18T06:03:32Z</time>
   </trkpt>
   <trkpt lat="31.9413740" lon="34.9609180">
    <ele>155.4</ele>
    <time>2018-08-18T06:03:33Z</time>
   </trkpt>
   <trkpt lat="31.9413980" lon="34.9608880">
    <ele>155.6</ele>
    <time>2018-08-18T06:03:34Z</time>
   </trkpt>
   <trkpt lat="31.9414440" lon="34.9608490">
    <ele>156.0</ele>
    <time>2018-08-18T06:03:36Z</time>
   </trkpt>
   <trkpt lat="31.9414670" lon="34.9608280">
    <ele>156.2</ele>
    <time>2018-08-18T06:03:37Z</time>
   </trkpt>
   <trkpt lat="31.9414940" lon="34.9608070">
    <ele>156.4</ele>
    <time>2018-08-18T06:03:38Z</time>
   </trkpt>
   <trkpt lat="31.9415200" lon="34.9607870">
    <ele>156.6</ele>
    <time>2018-08-18T06:03:39Z</time>
   </trkpt>
   <trkpt lat="31.9415450" lon="34.9607690">
    <ele>156.8</ele>
    <time>2018-08-18T06:03:40Z</time>
   </trkpt>
   <trkpt lat="31.9415740" lon="34.9607550">
    <ele>157.0</ele>
    <time>2018-08-18T06:03:41Z</time>
   </trkpt>
   <trkpt lat="31.9416020" lon="34.9607360">
    <ele>157.2</ele>
    <time>2018-08-18T06:03:42Z</time>
   </trkpt>
   <trkpt lat="31.9416280" lon="34.9607220">
    <ele>157.4</ele>
    <time>2018-08-18T06:03:43Z</time>
   </trkpt>
   <trkpt lat="31.9416520" lon="34.9607060">
    <ele>157.6</ele>
    <time>2018-08-18T06:03:44Z</time>
   </trkpt>
   <trkpt lat="31.9417010" lon="34.9606780">
    <ele>158.3</ele>
    <time>2018-08-18T06:03:46Z</time>
   </trkpt>
   <trkpt lat="31.9417310" lon="34.9606550">
    <ele>158.7</ele>
    <time>2018-08-18T06:03:47Z</time>
   </trkpt>
   <trkpt lat="31.9417770" lon="34.9606400">
    <ele>159.3</ele>
    <time>2018-08-18T06:03:49Z</time>
   </trkpt>
   <trkpt lat="31.9418240" lon="34.9606360">
    <ele>160.0</ele>
    <time>2018-08-18T06:03:51Z</time>
   </trkpt>
   <trkpt lat="31.9418680" lon="34.9606350">
    <ele>160.0</ele>
    <time>2018-08-18T06:03:53Z</time>
   </trkpt>
   <trkpt lat="31.9419110" lon="34.9606240">
    <ele>160.0</ele>
    <time>2018-08-18T06:03:55Z</time>
   </trkpt>
   <trkpt lat="31.9419590" lon="34.9606170">
    <ele>160.0</ele>
    <time>2018-08-18T06:03:57Z</time>
   </trkpt>
   <trkpt lat="31.9420040" lon="34.9606380">
    <ele>160.0</ele>
    <time>2018-08-18T06:03:59Z</time>
   </trkpt>
   <trkpt lat="31.9420330" lon="34.9606440">
    <ele>160.0</ele>
    <time>2018-08-18T06:04:00Z</time>
   </trkpt>
   <trkpt lat="31.9420620" lon="34.9606490">
    <ele>160.0</ele>
    <time>2018-08-18T06:04:01Z</time>
   </trkpt>
   <trkpt lat="31.9420890" lon="34.9606540">
    <ele>160.0</ele>
    <time>2018-08-18T06:04:02Z</time>
   </trkpt>
   <trkpt lat="31.9421190" lon="34.9606670">
    <ele>160.0</ele>
    <time>2018-08-18T06:04:03Z</time>
   </trkpt>
   <trkpt lat="31.9421660" lon="34.9606830">
    <ele>160.0</ele>
    <time>2018-08-18T06:04:05Z</time>
   </trkpt>
   <trkpt lat="31.9421970" lon="34.9606860">
    <ele>160.0</ele>
    <time>2018-08-18T06:04:07Z</time>
   </trkpt>
   <trkpt lat="31.9422440" lon="34.9606980">
    <ele>160.0</ele>
    <time>2018-08-18T06:04:09Z</time>
   </trkpt>
   <trkpt lat="31.9422690" lon="34.9607110">
    <ele>160.0</ele>
    <time>2018-08-18T06:04:10Z</time>
   </trkpt>
   <trkpt lat="31.9423210" lon="34.9607150">
    <ele>160.0</ele>
    <time>2018-08-18T06:04:12Z</time>
   </trkpt>
   <trkpt lat="31.9423500" lon="34.9607110">
    <ele>160.0</ele>
    <time>2018-08-18T06:04:13Z</time>
   </trkpt>
   <trkpt lat="31.9423820" lon="34.9607080">
    <ele>160.0</ele>
    <time>2018-08-18T06:04:14Z</time>
   </trkpt>
   <trkpt lat="31.9424240" lon="34.9607040">
    <ele>160.0</ele>
    <time>2018-08-18T06:04:15Z</time>
   </trkpt>
   <trkpt lat="31.9424690" lon="34.9607100">
    <ele>159.8</ele>
    <time>2018-08-18T06:04:16Z</time>
   </trkpt>
   <trkpt lat="31.9425060" lon="34.9607310">
    <ele>159.7</ele>
    <time>2018-08-18T06:04:17Z</time>
   </trkpt>
   <trkpt lat="31.9425370" lon="34.9607660">
    <ele>159.6</ele>
    <time>2018-08-18T06:04:18Z</time>
   </trkpt>
   <trkpt lat="31.9425540" lon="34.9607980">
    <ele>159.5</ele>
    <time>2018-08-18T06:04:19Z</time>
   </trkpt>
   <trkpt lat="31.9425720" lon="34.9608280">
    <ele>159.4</ele>
    <time>2018-08-18T06:04:20Z</time>
   </trkpt>
   <trkpt lat="31.9425960" lon="34.9608610">
    <ele>159.3</ele>
    <time>2018-08-18T06:04:21Z</time>
   </trkpt>
   <trkpt lat="31.9426230" lon="34.9609010">
    <ele>159.2</ele>
    <time>2018-08-18T06:04:22Z</time>
   </trkpt>
   <trkpt lat="31.9426440" lon="34.9609380">
    <ele>159.1</ele>
    <time>2018-08-18T06:04:23Z</time>
   </trkpt>
   <trkpt lat="31.9426650" lon="34.9609740">
    <ele>159.0</ele>
    <time>2018-08-18T06:04:24Z</time>
   </trkpt>
   <trkpt lat="31.9426830" lon="34.9610100">
    <ele>158.8</ele>
    <time>2018-08-18T06:04:25Z</time>
   </trkpt>
   <trkpt lat="31.9426960" lon="34.9610440">
    <ele>158.7</ele>
    <time>2018-08-18T06:04:26Z</time>
   </trkpt>
   <trkpt lat="31.9427220" lon="34.9611030">
    <ele>158.4</ele>
    <time>2018-08-18T06:04:28Z</time>
   </trkpt>
   <trkpt lat="31.9427380" lon="34.9611400">
    <ele>158.3</ele>
    <time>2018-08-18T06:04:29Z</time>
   </trkpt>
   <trkpt lat="31.9427510" lon="34.9611830">
    <ele>158.2</ele>
    <time>2018-08-18T06:04:30Z</time>
   </trkpt>
   <trkpt lat="31.9427640" lon="34.9612270">
    <ele>158.1</ele>
    <time>2018-08-18T06:04:31Z</time>
   </trkpt>
   <trkpt lat="31.9427790" lon="34.9612710">
    <ele>157.9</ele>
    <time>2018-08-18T06:04:32Z</time>
   </trkpt>
   <trkpt lat="31.9428030" lon="34.9613180">
    <ele>157.6</ele>
    <time>2018-08-18T06:04:33Z</time>
   </trkpt>
   <trkpt lat="31.9428250" lon="34.9613560">
    <ele>157.4</ele>
    <time>2018-08-18T06:04:34Z</time>
   </trkpt>
   <trkpt lat="31.9428440" lon="34.9613980">
    <ele>157.2</ele>
    <time>2018-08-18T06:04:35Z</time>
   </trkpt>
   <trkpt lat="31.9428620" lon="34.9614310">
    <ele>157.0</ele>
    <time>2018-08-18T06:04:36Z</time>
   </trkpt>
   <trkpt lat="31.9428830" lon="34.9614660">
    <ele>156.8</ele>
    <time>2018-08-18T06:04:37Z</time>
   </trkpt>
   <trkpt lat="31.9429070" lon="34.9615200">
    <ele>156.6</ele>
    <time>2018-08-18T06:04:38Z</time>
   </trkpt>
   <trkpt lat="31.9429260" lon="34.9615750">
    <ele>156.5</ele>
    <time>2018-08-18T06:04:39Z</time>
   </trkpt>
   <trkpt lat="31.9429460" lon="34.9616260">
    <ele>156.4</ele>
    <time>2018-08-18T06:04:40Z</time>
   </trkpt>
   <trkpt lat="31.9429560" lon="34.9616770">
    <ele>156.3</ele>
    <time>2018-08-18T06:04:41Z</time>
   </trkpt>
   <trkpt lat="31.9429630" lon="34.9617320">
    <ele>156.2</ele>
    <time>2018-08-18T06:04:42Z</time>
   </trkpt>
   <trkpt lat="31.9429690" lon="34.9617800">
    <ele>156.0</ele>
    <time>2018-08-18T06:04:43Z</time>
   </trkpt>
   <trkpt lat="31.9429750" lon="34.9618250">
    <ele>155.7</ele>
    <time>2018-08-18T06:04:44Z</time>
   </trkpt>
   <trkpt lat="31.9429800" lon="34.9618640">
    <ele>155.4</ele>
    <time>2018-08-18T06:04:45Z</time>
   </trkpt>
   <trkpt lat="31.9429790" lon="34.9619020">
    <ele>155.2</ele>
    <time>2018-08-18T06:04:46Z</time>
   </trkpt>
   <trkpt lat="31.9429780" lon="34.9619400">
    <ele>154.9</ele>
    <time>2018-08-18T06:04:47Z</time>
   </trkpt>
   <trkpt lat="31.9429810" lon="34.9619780">
    <ele>154.7</ele>
    <time>2018-08-18T06:04:48Z</time>
   </trkpt>
   <trkpt lat="31.9429800" lon="34.9620130">
    <ele>154.5</ele>
    <time>2018-08-18T06:04:49Z</time>
   </trkpt>
   <trkpt lat="31.9429730" lon="34.9620490">
    <ele>154.3</ele>
    <time>2018-08-18T06:04:50Z</time>
   </trkpt>
   <trkpt lat="31.9429720" lon="34.9620840">
    <ele>154.0</ele>
    <time>2018-08-18T06:04:51Z</time>
   </trkpt>
   <trkpt lat="31.9429710" lon="34.9621170">
    <ele>153.6</ele>
    <time>2018-08-18T06:04:52Z</time>
   </trkpt>
   <trkpt lat="31.9429730" lon="34.9621810">
    <ele>152.9</ele>
    <time>2018-08-18T06:04:54Z</time>
   </trkpt>
   <trkpt lat="31.9429740" lon="34.9622140">
    <ele>152.6</ele>
    <time>2018-08-18T06:04:55Z</time>
   </trkpt>
   <trkpt lat="31.9429770" lon="34.9622500">
    <ele>152.4</ele>
    <time>2018-08-18T06:04:56Z</time>
   </trkpt>
   <trkpt lat="31.9429690" lon="34.9622820">
    <ele>152.3</ele>
    <time>2018-08-18T06:04:57Z</time>
   </trkpt>
   <trkpt lat="31.9429690" lon="34.9623410">
    <ele>152.0</ele>
    <time>2018-08-18T06:04:59Z</time>
   </trkpt>
   <trkpt lat="31.9429670" lon="34.9623980">
    <ele>151.8</ele>
    <time>2018-08-18T06:05:01Z</time>
   </trkpt>
   <trkpt lat="31.9429740" lon="34.9624500">
    <ele>151.6</ele>
    <time>2018-08-18T06:05:03Z</time>
   </trkpt>
   <trkpt lat="31.9429840" lon="34.9625030">
    <ele>151.4</ele>
    <time>2018-08-18T06:05:05Z</time>
   </trkpt>
   <trkpt lat="31.9429940" lon="34.9625610">
    <ele>151.2</ele>
    <time>2018-08-18T06:05:07Z</time>
   </trkpt>
   <trkpt lat="31.9430030" lon="34.9625960">
    <ele>151.1</ele>
    <time>2018-08-18T06:05:08Z</time>
   </trkpt>
   <trkpt lat="31.9430180" lon="34.9626450">
    <ele>150.9</ele>
    <time>2018-08-18T06:05:10Z</time>
   </trkpt>
   <trkpt lat="31.9430400" lon="34.9626990">
    <ele>150.5</ele>
    <time>2018-08-18T06:05:12Z</time>
   </trkpt>
   <trkpt lat="31.9430590" lon="34.9627520">
    <ele>150.1</ele>
    <time>2018-08-18T06:05:14Z</time>
   </trkpt>
   <trkpt lat="31.9430690" lon="34.9627830">
    <ele>149.9</ele>
    <time>2018-08-18T06:05:15Z</time>
   </trkpt>
   <trkpt lat="31.9430800" lon="34.9628200">
    <ele>149.8</ele>
    <time>2018-08-18T06:05:16Z</time>
   </trkpt>
   <trkpt lat="31.9431060" lon="34.9628790">
    <ele>149.6</ele>
    <time>2018-08-18T06:05:18Z</time>
   </trkpt>
   <trkpt lat="31.9431260" lon="34.9629120">
    <ele>149.4</ele>
    <time>2018-08-18T06:05:19Z</time>
   </trkpt>
   <trkpt lat="31.9431490" lon="34.9629390">
    <ele>149.3</ele>
    <time>2018-08-18T06:05:20Z</time>
   </trkpt>
   <trkpt lat="31.9431640" lon="34.9629670">
    <ele>149.2</ele>
    <time>2018-08-18T06:05:21Z</time>
   </trkpt>
   <trkpt lat="31.9431770" lon="34.9629960">
    <ele>149.1</ele>
    <time>2018-08-18T06:05:22Z</time>
   </trkpt>
   <trkpt lat="31.9431950" lon="34.9630270">
    <ele>149.0</ele>
    <time>2018-08-18T06:05:23Z</time>
   </trkpt>
   <trkpt lat="31.9432190" lon="34.9630570">
    <ele>148.9</ele>
    <time>2018-08-18T06:05:24Z</time>
   </trkpt>
   <trkpt lat="31.9432440" lon="34.9630780">
    <ele>148.8</ele>
    <time>2018-08-18T06:05:25Z</time>
   </trkpt>
   <trkpt lat="31.9432800" lon="34.9630960">
    <ele>148.7</ele>
    <time>2018-08-18T06:05:26Z</time>
   </trkpt>
   <trkpt lat="31.9433130" lon="34.9631200">
    <ele>148.5</ele>
    <time>2018-08-18T06:05:27Z</time>
   </trkpt>
   <trkpt lat="31.9433460" lon="34.9631360">
    <ele>148.4</ele>
    <time>2018-08-18T06:05:28Z</time>
   </trkpt>
   <trkpt lat="31.9433780" lon="34.9631530">
    <ele>148.3</ele>
    <time>2018-08-18T06:05:29Z</time>
   </trkpt>
   <trkpt lat="31.9434090" lon="34.9631670">
    <ele>148.1</ele>
    <time>2018-08-18T06:05:30Z</time>
   </trkpt>
   <trkpt lat="31.9434480" lon="34.9631840">
    <ele>148.0</ele>
    <time>2018-08-18T06:05:31Z</time>
   </trkpt>
   <trkpt lat="31.9434890" lon="34.9632040">
    <ele>148.4</ele>
    <time>2018-08-18T06:05:32Z</time>
   </trkpt>
   <trkpt lat="31.9435290" lon="34.9632340">
    <ele>148.8</ele>
    <time>2018-08-18T06:05:33Z</time>
   </trkpt>
   <trkpt lat="31.9435670" lon="34.9632690">
    <ele>149.2</ele>
    <time>2018-08-18T06:05:34Z</time>
   </trkpt>
   <trkpt lat="31.9435990" lon="34.9633070">
    <ele>149.6</ele>
    <time>2018-08-18T06:05:35Z</time>
   </trkpt>
   <trkpt lat="31.9436260" lon="34.9633430">
    <ele>150.1</ele>
    <time>2018-08-18T06:05:36Z</time>
   </trkpt>
   <trkpt lat="31.9436440" lon="34.9633690">
    <ele>150.5</ele>
    <time>2018-08-18T06:05:37Z</time>
   </trkpt>
   <trkpt lat="31.9436630" lon="34.9633960">
    <ele>150.8</ele>
    <time>2018-08-18T06:05:38Z</time>
   </trkpt>
   <trkpt lat="31.9436810" lon="34.9634270">
    <ele>151.1</ele>
    <time>2018-08-18T06:05:39Z</time>
   </trkpt>
   <trkpt lat="31.9436970" lon="34.9634620">
    <ele>151.4</ele>
    <time>2018-08-18T06:05:40Z</time>
   </trkpt>
   <trkpt lat="31.9437100" lon="34.9634980">
    <ele>151.7</ele>
    <time>2018-08-18T06:05:41Z</time>
   </trkpt>
   <trkpt lat="31.9437260" lon="34.9635310">
    <ele>151.8</ele>
    <time>2018-08-18T06:05:42Z</time>
   </trkpt>
   <trkpt lat="31.9437410" lon="34.9635670">
    <ele>152.0</ele>
    <time>2018-08-18T06:05:43Z</time>
   </trkpt>
   <trkpt lat="31.9437530" lon="34.9636050">
    <ele>152.2</ele>
    <time>2018-08-18T06:05:44Z</time>
   </trkpt>
   <trkpt lat="31.9437690" lon="34.9636400">
    <ele>152.4</ele>
    <time>2018-08-18T06:05:45Z</time>
   </trkpt>
   <trkpt lat="31.9437850" lon="34.9636790">
    <ele>152.6</ele>
    <time>2018-08-18T06:05:46Z</time>
   </trkpt>
   <trkpt lat="31.9438020" lon="34.9637190">
    <ele>152.8</ele>
    <time>2018-08-18T06:05:47Z</time>
   </trkpt>
   <trkpt lat="31.9438180" lon="34.9637630">
    <ele>153.0</ele>
    <time>2018-08-18T06:05:48Z</time>
   </trkpt>
   <trkpt lat="31.9438320" lon="34.9637980">
    <ele>153.2</ele>
    <time>2018-08-18T06:05:49Z</time>
   </trkpt>
   <trkpt lat="31.9438460" lon="34.9638380">
    <ele>153.4</ele>
    <time>2018-08-18T06:05:50Z</time>
   </trkpt>
   <trkpt lat="31.9438640" lon="34.9638760">
    <ele>153.6</ele>
    <time>2018-08-18T06:05:51Z</time>
   </trkpt>
   <trkpt lat="31.9438840" lon="34.9639140">
    <ele>153.8</ele>
    <time>2018-08-18T06:05:52Z</time>
   </trkpt>
   <trkpt lat="31.9439050" lon="34.9639440">
    <ele>154.0</ele>
    <time>2018-08-18T06:05:53Z</time>
   </trkpt>
   <trkpt lat="31.9439480" lon="34.9639930">
    <ele>154.9</ele>
    <time>2018-08-18T06:05:55Z</time>
   </trkpt>
   <trkpt lat="31.9439670" lon="34.9640210">
    <ele>155.3</ele>
    <time>2018-08-18T06:05:56Z</time>
   </trkpt>
   <trkpt lat="31.9439910" lon="34.9640480">
    <ele>155.8</ele>
    <time>2018-08-18T06:05:57Z</time>
   </trkpt>
   <trkpt lat="31.9440160" lon="34.9640690">
    <ele>156.2</ele>
    <time>2018-08-18T06:05:58Z</time>
   </trkpt>
   <trkpt lat="31.9440440" lon="34.9640890">
    <ele>156.7</ele>
    <time>2018-08-18T06:05:59Z</time>
   </trkpt>
   <trkpt lat="31.9440670" lon="34.9641110">
    <ele>157.1</ele>
    <time>2018-08-18T06:06:00Z</time>
   </trkpt>
   <trkpt lat="31.9441010" lon="34.9641430">
    <ele>157.8</ele>
    <time>2018-08-18T06:06:02Z</time>
   </trkpt>
   <trkpt lat="31.9441370" lon="34.9641720">
    <ele>158.4</ele>
    <time>2018-08-18T06:06:04Z</time>
   </trkpt>
   <trkpt lat="31.9441610" lon="34.9641950">
    <ele>158.8</ele>
    <time>2018-08-18T06:06:06Z</time>
   </trkpt>
   <trkpt lat="31.9441700" lon="34.9642640">
    <ele>160.1</ele>
    <time>2018-08-18T06:06:30Z</time>
   </trkpt>
   <trkpt lat="31.9441840" lon="34.9642930">
    <ele>160.3</ele>
    <time>2018-08-18T06:06:34Z</time>
   </trkpt>
   <trkpt lat="31.9441700" lon="34.9643310">
    <ele>160.4</ele>
    <time>2018-08-18T06:06:44Z</time>
   </trkpt>
   <trkpt lat="31.9441830" lon="34.9643770">
    <ele>160.5</ele>
    <time>2018-08-18T06:06:49Z</time>
   </trkpt>
   <trkpt lat="31.9441610" lon="34.9644000">
    <ele>160.8</ele>
    <time>2018-08-18T06:06:51Z</time>
   </trkpt>
   <trkpt lat="31.9441410" lon="34.9644320">
    <ele>161.1</ele>
    <time>2018-08-18T06:06:53Z</time>
   </trkpt>
   <trkpt lat="31.9441170" lon="34.9644780">
    <ele>161.4</ele>
    <time>2018-08-18T06:06:55Z</time>
   </trkpt>
   <trkpt lat="31.9441080" lon="34.9645230">
    <ele>161.6</ele>
    <time>2018-08-18T06:06:57Z</time>
   </trkpt>
   <trkpt lat="31.9440840" lon="34.9645730">
    <ele>161.8</ele>
    <time>2018-08-18T06:06:59Z</time>
   </trkpt>
   <trkpt lat="31.9440640" lon="34.9646040">
    <ele>161.9</ele>
    <time>2018-08-18T06:07:01Z</time>
   </trkpt>
   <trkpt lat="31.9440500" lon="34.9646500">
    <ele>162.1</ele>
    <time>2018-08-18T06:07:03Z</time>
   </trkpt>
   <trkpt lat="31.9440270" lon="34.9646890">
    <ele>162.2</ele>
    <time>2018-08-18T06:07:05Z</time>
   </trkpt>
   <trkpt lat="31.9440030" lon="34.9647330">
    <ele>162.4</ele>
    <time>2018-08-18T06:07:07Z</time>
   </trkpt>
   <trkpt lat="31.9439950" lon="34.9647800">
    <ele>162.5</ele>
    <time>2018-08-18T06:07:09Z</time>
   </trkpt>
   <trkpt lat="31.9439820" lon="34.9648230">
    <ele>162.9</ele>
    <time>2018-08-18T06:07:11Z</time>
   </trkpt>
   <trkpt lat="31.9439680" lon="34.9648630">
    <ele>163.2</ele>
    <time>2018-08-18T06:07:13Z</time>
   </trkpt>
   <trkpt lat="31.9439490" lon="34.9649110">
    <ele>163.4</ele>
    <time>2018-08-18T06:07:15Z</time>
   </trkpt>
   <trkpt lat="31.9439300" lon="34.9649540">
    <ele>163.6</ele>
    <time>2018-08-18T06:07:17Z</time>
   </trkpt>
   <trkpt lat="31.9439090" lon="34.9649920">
    <ele>163.7</ele>
    <time>2018-08-18T06:07:19Z</time>
   </trkpt>
   <trkpt lat="31.9438810" lon="34.9650370">
    <ele>163.8</ele>
    <time>2018-08-18T06:07:21Z</time>
   </trkpt>
   <trkpt lat="31.9438510" lon="34.9650790">
    <ele>164.0</ele>
    <time>2018-08-18T06:07:23Z</time>
   </trkpt>
   <trkpt lat="31.9438260" lon="34.9651040">
    <ele>164.2</ele>
    <time>2018-08-18T06:07:25Z</time>
   </trkpt>
   <trkpt lat="31.9438020" lon="34.9651450">
    <ele>164.5</ele>
    <time>2018-08-18T06:07:27Z</time>
   </trkpt>
   <trkpt lat="31.9437800" lon="34.9651880">
    <ele>164.7</ele>
    <time>2018-08-18T06:07:29Z</time>
   </trkpt>
   <trkpt lat="31.9437630" lon="34.9652260">
    <ele>164.8</ele>
    <time>2018-08-18T06:07:31Z</time>
   </trkpt>
   <trkpt lat="31.9437430" lon="34.9652870">
    <ele>165.0</ele>
    <time>2018-08-18T06:07:33Z</time>
   </trkpt>
   <trkpt lat="31.9437330" lon="34.9653200">
    <ele>165.1</ele>
    <time>2018-08-18T06:07:34Z</time>
   </trkpt>
   <trkpt lat="31.9437150" lon="34.9653680">
    <ele>165.3</ele>
    <time>2018-08-18T06:07:36Z</time>
   </trkpt>
   <trkpt lat="31.9437100" lon="34.9654210">
    <ele>165.5</ele>
    <time>2018-08-18T06:07:38Z</time>
   </trkpt>
   <trkpt lat="31.9437070" lon="34.9654570">
    <ele>165.6</ele>
    <time>2018-08-18T06:07:40Z</time>
   </trkpt>
   <trkpt lat="31.9437090" lon="34.9654950">
    <ele>165.9</ele>
    <time>2018-08-18T06:07:42Z</time>
   </trkpt>
   <trkpt lat="31.9437110" lon="34.9655330">
    <ele>166.1</ele>
    <time>2018-08-18T06:07:44Z</time>
   </trkpt>
   <trkpt lat="31.9437090" lon="34.9655780">
    <ele>166.2</ele>
    <time>2018-08-18T06:07:46Z</time>
   </trkpt>
   <trkpt lat="31.9437080" lon="34.9656190">
    <ele>166.3</ele>
    <time>2018-08-18T06:07:48Z</time>
   </trkpt>
   <trkpt lat="31.9437010" lon="34.9656660">
    <ele>166.4</ele>
    <time>2018-08-18T06:07:50Z</time>
   </trkpt>
   <trkpt lat="31.9437000" lon="34.9657060">
    <ele>166.4</ele>
    <time>2018-08-18T06:07:52Z</time>
   </trkpt>
   <trkpt lat="31.9436930" lon="34.9657400">
    <ele>166.5</ele>
    <time>2018-08-18T06:07:54Z</time>
   </trkpt>
   <trkpt lat="31.9436810" lon="34.9657840">
    <ele>166.6</ele>
    <time>2018-08-18T06:07:56Z</time>
   </trkpt>
   <trkpt lat="31.9436860" lon="34.9658190">
    <ele>166.7</ele>
    <time>2018-08-18T06:07:58Z</time>
   </trkpt>
   <trkpt lat="31.9436820" lon="34.9658600">
    <ele>166.8</ele>
    <time>2018-08-18T06:08:00Z</time>
   </trkpt>
   <trkpt lat="31.9436790" lon="34.9659150">
    <ele>166.9</ele>
    <time>2018-08-18T06:08:02Z</time>
   </trkpt>
   <trkpt lat="31.9436780" lon="34.9659640">
    <ele>167.2</ele>
    <time>2018-08-18T06:08:04Z</time>
   </trkpt>
   <trkpt lat="31.9436730" lon="34.9659960">
    <ele>167.4</ele>
    <time>2018-08-18T06:08:05Z</time>
   </trkpt>
   <trkpt lat="31.9436720" lon="34.9660440">
    <ele>167.6</ele>
    <time>2018-08-18T06:08:07Z</time>
   </trkpt>
   <trkpt lat="31.9436700" lon="34.9660960">
    <ele>167.8</ele>
    <time>2018-08-18T06:08:09Z</time>
   </trkpt>
   <trkpt lat="31.9436750" lon="34.9661450">
    <ele>167.8</ele>
    <time>2018-08-18T06:08:11Z</time>
   </trkpt>
   <trkpt lat="31.9436740" lon="34.9661910">
    <ele>167.9</ele>
    <time>2018-08-18T06:08:13Z</time>
   </trkpt>
   <trkpt lat="31.9436610" lon="34.9662260">
    <ele>168.0</ele>
    <time>2018-08-18T06:08:15Z</time>
   </trkpt>
   <trkpt lat="31.9436410" lon="34.9662680">
    <ele>168.0</ele>
    <time>2018-08-18T06:08:17Z</time>
   </trkpt>
   <trkpt lat="31.9436150" lon="34.9663080">
    <ele>168.0</ele>
    <time>2018-08-18T06:08:19Z</time>
   </trkpt>
   <trkpt lat="31.9435940" lon="34.9663500">
    <ele>168.0</ele>
    <time>2018-08-18T06:08:21Z</time>
   </trkpt>
   <trkpt lat="31.9435630" lon="34.9663840">
    <ele>168.0</ele>
    <time>2018-08-18T06:08:23Z</time>
   </trkpt>
   <trkpt lat="31.9435260" lon="34.9664220">
    <ele>168.0</ele>
    <time>2018-08-18T06:08:25Z</time>
   </trkpt>
   <trkpt lat="31.9434910" lon="34.9664430">
    <ele>168.0</ele>
    <time>2018-08-18T06:08:27Z</time>
   </trkpt>
   <trkpt lat="31.9434640" lon="34.9664530">
    <ele>168.0</ele>
    <time>2018-08-18T06:08:28Z</time>
   </trkpt>
   <trkpt lat="31.9434180" lon="34.9664770">
    <ele>167.9</ele>
    <time>2018-08-18T06:08:30Z</time>
   </trkpt>
   <trkpt lat="31.9433920" lon="34.9664880">
    <ele>167.9</ele>
    <time>2018-08-18T06:08:31Z</time>
   </trkpt>
   <trkpt lat="31.9433610" lon="34.9664960">
    <ele>167.9</ele>
    <time>2018-08-18T06:08:32Z</time>
   </trkpt>
   <trkpt lat="31.9433300" lon="34.9664970">
    <ele>167.9</ele>
    <time>2018-08-18T06:08:33Z</time>
   </trkpt>
   <trkpt lat="31.9432970" lon="34.9664960">
    <ele>167.9</ele>
    <time>2018-08-18T06:08:34Z</time>
   </trkpt>
   <trkpt lat="31.9432640" lon="34.9664950">
    <ele>167.9</ele>
    <time>2018-08-18T06:08:35Z</time>
   </trkpt>
   <trkpt lat="31.9432330" lon="34.9664890">
    <ele>167.9</ele>
    <time>2018-08-18T06:08:36Z</time>
   </trkpt>
   <trkpt lat="31.9432040" lon="34.9664810">
    <ele>167.9</ele>
    <time>2018-08-18T06:08:37Z</time>
   </trkpt>
   <trkpt lat="31.9431690" lon="34.9664720">
    <ele>167.9</ele>
    <time>2018-08-18T06:08:38Z</time>
   </trkpt>
   <trkpt lat="31.9431350" lon="34.9664670">
    <ele>167.9</ele>
    <time>2018-08-18T06:08:39Z</time>
   </trkpt>
   <trkpt lat="31.9431020" lon="34.9664570">
    <ele>167.9</ele>
    <time>2018-08-18T06:08:40Z</time>
   </trkpt>
   <trkpt lat="31.9430740" lon="34.9664450">
    <ele>167.9</ele>
    <time>2018-08-18T06:08:41Z</time>
   </trkpt>
   <trkpt lat="31.9430380" lon="34.9664360">
    <ele>167.9</ele>
    <time>2018-08-18T06:08:42Z</time>
   </trkpt>
   <trkpt lat="31.9430070" lon="34.9664280">
    <ele>167.9</ele>
    <time>2018-08-18T06:08:43Z</time>
   </trkpt>
   <trkpt lat="31.9429770" lon="34.9664200">
    <ele>167.9</ele>
    <time>2018-08-18T06:08:44Z</time>
   </trkpt>
   <trkpt lat="31.9429400" lon="34.9664110">
    <ele>167.9</ele>
    <time>2018-08-18T06:08:45Z</time>
   </trkpt>
   <trkpt lat="31.9429080" lon="34.9664030">
    <ele>167.9</ele>
    <time>2018-08-18T06:08:46Z</time>
   </trkpt>
   <trkpt lat="31.9428790" lon="34.9663900">
    <ele>167.9</ele>
    <time>2018-08-18T06:08:47Z</time>
   </trkpt>
   <trkpt lat="31.9428530" lon="34.9663810">
    <ele>167.9</ele>
    <time>2018-08-18T06:08:48Z</time>
   </trkpt>
   <trkpt lat="31.9428250" lon="34.9663750">
    <ele>167.9</ele>
    <time>2018-08-18T06:08:49Z</time>
   </trkpt>
   <trkpt lat="31.9427750" lon="34.9663580">
    <ele>167.9</ele>
    <time>2018-08-18T06:08:51Z</time>
   </trkpt>
   <trkpt lat="31.9427210" lon="34.9663380">
    <ele>167.9</ele>
    <time>2018-08-18T06:08:53Z</time>
   </trkpt>
   <trkpt lat="31.9426900" lon="34.9663340">
    <ele>167.9</ele>
    <time>2018-08-18T06:08:54Z</time>
   </trkpt>
   <trkpt lat="31.9426610" lon="34.9663390">
    <ele>167.9</ele>
    <time>2018-08-18T06:08:55Z</time>
   </trkpt>
   <trkpt lat="31.9426160" lon="34.9663300">
    <ele>167.9</ele>
    <time>2018-08-18T06:08:57Z</time>
   </trkpt>
   <trkpt lat="31.9425620" lon="34.9663130">
    <ele>167.9</ele>
    <time>2018-08-18T06:08:59Z</time>
   </trkpt>
   <trkpt lat="31.9425310" lon="34.9663090">
    <ele>167.9</ele>
    <time>2018-08-18T06:09:00Z</time>
   </trkpt>
   <trkpt lat="31.9425030" lon="34.9663110">
    <ele>167.9</ele>
    <time>2018-08-18T06:09:01Z</time>
   </trkpt>
   <trkpt lat="31.9424760" lon="34.9663130">
    <ele>167.9</ele>
    <time>2018-08-18T06:09:02Z</time>
   </trkpt>
   <trkpt lat="31.9424480" lon="34.9663090">
    <ele>167.9</ele>
    <time>2018-08-18T06:09:03Z</time>
   </trkpt>
   <trkpt lat="31.9424190" lon="34.9663060">
    <ele>168.0</ele>
    <time>2018-08-18T06:09:04Z</time>
   </trkpt>
   <trkpt lat="31.9423890" lon="34.9663060">
    <ele>168.0</ele>
    <time>2018-08-18T06:09:05Z</time>
   </trkpt>
   <trkpt lat="31.9423570" lon="34.9663130">
    <ele>168.0</ele>
    <time>2018-08-18T06:09:06Z</time>
   </trkpt>
   <trkpt lat="31.9423300" lon="34.9663140">
    <ele>168.0</ele>
    <time>2018-08-18T06:09:07Z</time>
   </trkpt>
   <trkpt lat="31.9422990" lon="34.9663160">
    <ele>168.0</ele>
    <time>2018-08-18T06:09:08Z</time>
   </trkpt>
   <trkpt lat="31.9422680" lon="34.9663260">
    <ele>168.0</ele>
    <time>2018-08-18T06:09:09Z</time>
   </trkpt>
   <trkpt lat="31.9422380" lon="34.9663330">
    <ele>168.0</ele>
    <time>2018-08-18T06:09:10Z</time>
   </trkpt>
   <trkpt lat="31.9422070" lon="34.9663430">
    <ele>168.0</ele>
    <time>2018-08-18T06:09:11Z</time>
   </trkpt>
   <trkpt lat="31.9421770" lon="34.9663450">
    <ele>168.0</ele>
    <time>2018-08-18T06:09:12Z</time>
   </trkpt>
   <trkpt lat="31.9421500" lon="34.9663480">
    <ele>168.0</ele>
    <time>2018-08-18T06:09:13Z</time>
   </trkpt>
   <trkpt lat="31.9421190" lon="34.9663470">
    <ele>168.0</ele>
    <time>2018-08-18T06:09:14Z</time>
   </trkpt>
   <trkpt lat="31.9420890" lon="34.9663500">
    <ele>168.0</ele>
    <time>2018-08-18T06:09:15Z</time>
   </trkpt>
   <trkpt lat="31.9420570" lon="34.9663470">
    <ele>167.9</ele>
    <time>2018-08-18T06:09:16Z</time>
   </trkpt>
   <trkpt lat="31.9420250" lon="34.9663450">
    <ele>167.8</ele>
    <time>2018-08-18T06:09:17Z</time>
   </trkpt>
   <trkpt lat="31.9419920" lon="34.9663400">
    <ele>167.8</ele>
    <time>2018-08-18T06:09:18Z</time>
   </trkpt>
   <trkpt lat="31.9419550" lon="34.9663410">
    <ele>167.7</ele>
    <time>2018-08-18T06:09:19Z</time>
   </trkpt>
   <trkpt lat="31.9419160" lon="34.9663620">
    <ele>167.6</ele>
    <time>2018-08-18T06:09:20Z</time>
   </trkpt>
   <trkpt lat="31.9418760" lon="34.9663950">
    <ele>167.4</ele>
    <time>2018-08-18T06:09:21Z</time>
   </trkpt>
   <trkpt lat="31.9418340" lon="34.9664290">
    <ele>166.9</ele>
    <time>2018-08-18T06:09:22Z</time>
   </trkpt>
   <trkpt lat="31.9417950" lon="34.9664560">
    <ele>166.4</ele>
    <time>2018-08-18T06:09:23Z</time>
   </trkpt>
   <trkpt lat="31.9417580" lon="34.9664820">
    <ele>166.1</ele>
    <time>2018-08-18T06:09:24Z</time>
   </trkpt>
   <trkpt lat="31.9417140" lon="34.9665120">
    <ele>165.6</ele>
    <time>2018-08-18T06:09:25Z</time>
   </trkpt>
   <trkpt lat="31.9416580" lon="34.9665340">
    <ele>165.0</ele>
    <time>2018-08-18T06:09:26Z</time>
   </trkpt>
   <trkpt lat="31.9416030" lon="34.9665590">
    <ele>164.4</ele>
    <time>2018-08-18T06:09:27Z</time>
   </trkpt>
   <trkpt lat="31.9415450" lon="34.9665770">
    <ele>163.9</ele>
    <time>2018-08-18T06:09:28Z</time>
   </trkpt>
   <trkpt lat="31.9414890" lon="34.9665920">
    <ele>163.4</ele>
    <time>2018-08-18T06:09:29Z</time>
   </trkpt>
   <trkpt lat="31.9414300" lon="34.9665950">
    <ele>163.0</ele>
    <time>2018-08-18T06:09:30Z</time>
   </trkpt>
   <trkpt lat="31.9413800" lon="34.9666020">
    <ele>162.6</ele>
    <time>2018-08-18T06:09:31Z</time>
   </trkpt>
   <trkpt lat="31.9413240" lon="34.9666000">
    <ele>162.3</ele>
    <time>2018-08-18T06:09:32Z</time>
   </trkpt>
   <trkpt lat="31.9412670" lon="34.9666070">
    <ele>161.9</ele>
    <time>2018-08-18T06:09:33Z</time>
   </trkpt>
   <trkpt lat="31.9412060" lon="34.9666250">
    <ele>161.6</ele>
    <time>2018-08-18T06:09:34Z</time>
   </trkpt>
   <trkpt lat="31.9411430" lon="34.9666420">
    <ele>161.1</ele>
    <time>2018-08-18T06:09:35Z</time>
   </trkpt>
   <trkpt lat="31.9410800" lon="34.9666510">
    <ele>160.8</ele>
    <time>2018-08-18T06:09:36Z</time>
   </trkpt>
   <trkpt lat="31.9410210" lon="34.9666510">
    <ele>160.4</ele>
    <time>2018-08-18T06:09:37Z</time>
   </trkpt>
   <trkpt lat="31.9409640" lon="34.9666390">
    <ele>160.2</ele>
    <time>2018-08-18T06:09:38Z</time>
   </trkpt>
   <trkpt lat="31.9409120" lon="34.9666240">
    <ele>159.8</ele>
    <time>2018-08-18T06:09:39Z</time>
   </trkpt>
   <trkpt lat="31.9408690" lon="34.9666130">
    <ele>159.5</ele>
    <time>2018-08-18T06:09:40Z</time>
   </trkpt>
   <trkpt lat="31.9408220" lon="34.9666050">
    <ele>159.0</ele>
    <time>2018-08-18T06:09:41Z</time>
   </trkpt>
   <trkpt lat="31.9407780" lon="34.9666040">
    <ele>158.5</ele>
    <time>2018-08-18T06:09:42Z</time>
   </trkpt>
   <trkpt lat="31.9407390" lon="34.9666070">
    <ele>158.2</ele>
    <time>2018-08-18T06:09:43Z</time>
   </trkpt>
   <trkpt lat="31.9406880" lon="34.9666100">
    <ele>157.9</ele>
    <time>2018-08-18T06:09:44Z</time>
   </trkpt>
   <trkpt lat="31.9406330" lon="34.9666210">
    <ele>157.4</ele>
    <time>2018-08-18T06:09:45Z</time>
   </trkpt>
   <trkpt lat="31.9405850" lon="34.9666250">
    <ele>156.9</ele>
    <time>2018-08-18T06:09:46Z</time>
   </trkpt>
   <trkpt lat="31.9405430" lon="34.9666050">
    <ele>156.5</ele>
    <time>2018-08-18T06:09:47Z</time>
   </trkpt>
   <trkpt lat="31.9404950" lon="34.9665940">
    <ele>156.3</ele>
    <time>2018-08-18T06:09:48Z</time>
   </trkpt>
   <trkpt lat="31.9404480" lon="34.9665770">
    <ele>156.0</ele>
    <time>2018-08-18T06:09:49Z</time>
   </trkpt>
   <trkpt lat="31.9404030" lon="34.9665610">
    <ele>155.5</ele>
    <time>2018-08-18T06:09:50Z</time>
   </trkpt>
   <trkpt lat="31.9403730" lon="34.9665570">
    <ele>155.1</ele>
    <time>2018-08-18T06:09:51Z</time>
   </trkpt>
   <trkpt lat="31.9403280" lon="34.9665580">
    <ele>154.6</ele>
    <time>2018-08-18T06:09:52Z</time>
   </trkpt>
   <trkpt lat="31.9402720" lon="34.9665600">
    <ele>154.3</ele>
    <time>2018-08-18T06:09:53Z</time>
   </trkpt>
   <trkpt lat="31.9402160" lon="34.9665660">
    <ele>154.0</ele>
    <time>2018-08-18T06:09:54Z</time>
   </trkpt>
   <trkpt lat="31.9401660" lon="34.9665590">
    <ele>153.6</ele>
    <time>2018-08-18T06:09:55Z</time>
   </trkpt>
   <trkpt lat="31.9401130" lon="34.9665600">
    <ele>153.2</ele>
    <time>2018-08-18T06:09:56Z</time>
   </trkpt>
   <trkpt lat="31.9400590" lon="34.9665690">
    <ele>152.8</ele>
    <time>2018-08-18T06:09:57Z</time>
   </trkpt>
   <trkpt lat="31.9400040" lon="34.9665790">
    <ele>152.5</ele>
    <time>2018-08-18T06:09:58Z</time>
   </trkpt>
   <trkpt lat="31.9399480" lon="34.9665900">
    <ele>152.2</ele>
    <time>2018-08-18T06:09:59Z</time>
   </trkpt>
   <trkpt lat="31.9398910" lon="34.9666100">
    <ele>151.9</ele>
    <time>2018-08-18T06:10:00Z</time>
   </trkpt>
   <trkpt lat="31.9398330" lon="34.9666300">
    <ele>151.5</ele>
    <time>2018-08-18T06:10:01Z</time>
   </trkpt>
   <trkpt lat="31.9397780" lon="34.9666400">
    <ele>151.1</ele>
    <time>2018-08-18T06:10:02Z</time>
   </trkpt>
   <trkpt lat="31.9397200" lon="34.9666430">
    <ele>150.7</ele>
    <time>2018-08-18T06:10:03Z</time>
   </trkpt>
   <trkpt lat="31.9396660" lon="34.9666320">
    <ele>150.3</ele>
    <time>2018-08-18T06:10:04Z</time>
   </trkpt>
   <trkpt lat="31.9396140" lon="34.9666100">
    <ele>149.9</ele>
    <time>2018-08-18T06:10:05Z</time>
   </trkpt>
   <trkpt lat="31.9395610" lon="34.9665800">
    <ele>149.5</ele>
    <time>2018-08-18T06:10:06Z</time>
   </trkpt>
   <trkpt lat="31.9395170" lon="34.9665550">
    <ele>149.2</ele>
    <time>2018-08-18T06:10:07Z</time>
   </trkpt>
   <trkpt lat="31.9394770" lon="34.9665330">
    <ele>149.0</ele>
    <time>2018-08-18T06:10:08Z</time>
   </trkpt>
   <trkpt lat="31.9394400" lon="34.9665070">
    <ele>148.8</ele>
    <time>2018-08-18T06:10:09Z</time>
   </trkpt>
   <trkpt lat="31.9394070" lon="34.9664810">
    <ele>148.7</ele>
    <time>2018-08-18T06:10:10Z</time>
   </trkpt>
   <trkpt lat="31.9393790" lon="34.9664610">
    <ele>148.6</ele>
    <time>2018-08-18T06:10:11Z</time>
   </trkpt>
   <trkpt lat="31.9393280" lon="34.9664570">
    <ele>148.5</ele>
    <time>2018-08-18T06:10:13Z</time>
   </trkpt>
   <trkpt lat="31.9392970" lon="34.9664520">
    <ele>148.4</ele>
    <time>2018-08-18T06:10:14Z</time>
   </trkpt>
   <trkpt lat="31.9392550" lon="34.9664420">
    <ele>148.2</ele>
    <time>2018-08-18T06:10:15Z</time>
   </trkpt>
   <trkpt lat="31.9391950" lon="34.9664510">
    <ele>147.9</ele>
    <time>2018-08-18T06:10:16Z</time>
   </trkpt>
   <trkpt lat="31.9391370" lon="34.9664670">
    <ele>147.4</ele>
    <time>2018-08-18T06:10:17Z</time>
   </trkpt>
   <trkpt lat="31.9390790" lon="34.9664610">
    <ele>146.8</ele>
    <time>2018-08-18T06:10:18Z</time>
   </trkpt>
   <trkpt lat="31.9390220" lon="34.9664600">
    <ele>146.2</ele>
    <time>2018-08-18T06:10:19Z</time>
   </trkpt>
   <trkpt lat="31.9389720" lon="34.9664720">
    <ele>145.7</ele>
    <time>2018-08-18T06:10:20Z</time>
   </trkpt>
   <trkpt lat="31.9389270" lon="34.9665000">
    <ele>145.1</ele>
    <time>2018-08-18T06:10:21Z</time>
   </trkpt>
   <trkpt lat="31.9388910" lon="34.9665360">
    <ele>144.7</ele>
    <time>2018-08-18T06:10:22Z</time>
   </trkpt>
   <trkpt lat="31.9388760" lon="34.9665790">
    <ele>145.1</ele>
    <time>2018-08-18T06:10:23Z</time>
   </trkpt>
   <trkpt lat="31.9388670" lon="34.9666360">
    <ele>145.6</ele>
    <time>2018-08-18T06:10:24Z</time>
   </trkpt>
   <trkpt lat="31.9388650" lon="34.9666930">
    <ele>146.1</ele>
    <time>2018-08-18T06:10:25Z</time>
   </trkpt>
   <trkpt lat="31.9388620" lon="34.9667460">
    <ele>146.6</ele>
    <time>2018-08-18T06:10:26Z</time>
   </trkpt>
   <trkpt lat="31.9388600" lon="34.9667950">
    <ele>147.0</ele>
    <time>2018-08-18T06:10:27Z</time>
   </trkpt>
   <trkpt lat="31.9388570" lon="34.9668370">
    <ele>147.3</ele>
    <time>2018-08-18T06:10:28Z</time>
   </trkpt>
   <trkpt lat="31.9388520" lon="34.9668760">
    <ele>147.7</ele>
    <time>2018-08-18T06:10:29Z</time>
   </trkpt>
   <trkpt lat="31.9388480" lon="34.9669090">
    <ele>148.0</ele>
    <time>2018-08-18T06:10:30Z</time>
   </trkpt>
   <trkpt lat="31.9388460" lon="34.9669720">
    <ele>148.0</ele>
    <time>2018-08-18T06:10:32Z</time>
   </trkpt>
   <trkpt lat="31.9388340" lon="34.9670360">
    <ele>148.1</ele>
    <time>2018-08-18T06:10:34Z</time>
   </trkpt>
   <trkpt lat="31.9388400" lon="34.9671010">
    <ele>148.1</ele>
    <time>2018-08-18T06:10:36Z</time>
   </trkpt>
   <trkpt lat="31.9388410" lon="34.9671340">
    <ele>148.1</ele>
    <time>2018-08-18T06:10:37Z</time>
   </trkpt>
   <trkpt lat="31.9388410" lon="34.9671720">
    <ele>148.2</ele>
    <time>2018-08-18T06:10:38Z</time>
   </trkpt>
   <trkpt lat="31.9388420" lon="34.9672040">
    <ele>148.2</ele>
    <time>2018-08-18T06:10:39Z</time>
   </trkpt>
   <trkpt lat="31.9388510" lon="34.9672650">
    <ele>148.3</ele>
    <time>2018-08-18T06:10:41Z</time>
   </trkpt>
   <trkpt lat="31.9388560" lon="34.9673280">
    <ele>148.4</ele>
    <time>2018-08-18T06:10:43Z</time>
   </trkpt>
   <trkpt lat="31.9388580" lon="34.9673620">
    <ele>148.5</ele>
    <time>2018-08-18T06:10:44Z</time>
   </trkpt>
   <trkpt lat="31.9388630" lon="34.9674090">
    <ele>148.6</ele>
    <time>2018-08-18T06:10:45Z</time>
   </trkpt>
   <trkpt lat="31.9388740" lon="34.9674560">
    <ele>148.8</ele>
    <time>2018-08-18T06:10:46Z</time>
   </trkpt>
   <trkpt lat="31.9388840" lon="34.9674960">
    <ele>149.0</ele>
    <time>2018-08-18T06:10:47Z</time>
   </trkpt>
   <trkpt lat="31.9388930" lon="34.9675310">
    <ele>149.2</ele>
    <time>2018-08-18T06:10:48Z</time>
   </trkpt>
   <trkpt lat="31.9389120" lon="34.9675830">
    <ele>149.5</ele>
    <time>2018-08-18T06:10:50Z</time>
   </trkpt>
   <trkpt lat="31.9389330" lon="34.9676350">
    <ele>149.6</ele>
    <time>2018-08-18T06:10:52Z</time>
   </trkpt>
   <trkpt lat="31.9389510" lon="34.9676870">
    <ele>149.8</ele>
    <time>2018-08-18T06:10:54Z</time>
   </trkpt>
   <trkpt lat="31.9389720" lon="34.9677490">
    <ele>149.9</ele>
    <time>2018-08-18T06:10:56Z</time>
   </trkpt>
   <trkpt lat="31.9389850" lon="34.9677780">
    <ele>150.0</ele>
    <time>2018-08-18T06:10:57Z</time>
   </trkpt>
   <trkpt lat="31.9390090" lon="34.9678320">
    <ele>150.2</ele>
    <time>2018-08-18T06:10:59Z</time>
   </trkpt>
   <trkpt lat="31.9390290" lon="34.9678850">
    <ele>150.5</ele>
    <time>2018-08-18T06:11:01Z</time>
   </trkpt>
   <trkpt lat="31.9390560" lon="34.9679420">
    <ele>151.0</ele>
    <time>2018-08-18T06:11:03Z</time>
   </trkpt>
   <trkpt lat="31.9390830" lon="34.9679950">
    <ele>151.4</ele>
    <time>2018-08-18T06:11:05Z</time>
   </trkpt>
   <trkpt lat="31.9390940" lon="34.9680420">
    <ele>151.8</ele>
    <time>2018-08-18T06:11:07Z</time>
   </trkpt>
   <trkpt lat="31.9391030" lon="34.9680950">
    <ele>152.0</ele>
    <time>2018-08-18T06:11:09Z</time>
   </trkpt>
   <trkpt lat="31.9391090" lon="34.9681510">
    <ele>152.2</ele>
    <time>2018-08-18T06:11:11Z</time>
   </trkpt>
   <trkpt lat="31.9391150" lon="34.9682180">
    <ele>152.5</ele>
    <time>2018-08-18T06:11:13Z</time>
   </trkpt>
   <trkpt lat="31.9391180" lon="34.9682740">
    <ele>152.7</ele>
    <time>2018-08-18T06:11:15Z</time>
   </trkpt>
   <trkpt lat="31.9391130" lon="34.9683310">
    <ele>153.0</ele>
    <time>2018-08-18T06:11:17Z</time>
   </trkpt>
   <trkpt lat="31.9391090" lon="34.9683670">
    <ele>153.1</ele>
    <time>2018-08-18T06:11:18Z</time>
   </trkpt>
   <trkpt lat="31.9391050" lon="34.9683990">
    <ele>153.2</ele>
    <time>2018-08-18T06:11:19Z</time>
   </trkpt>
   <trkpt lat="31.9390980" lon="34.9684560">
    <ele>153.5</ele>
    <time>2018-08-18T06:11:21Z</time>
   </trkpt>
   <trkpt lat="31.9390950" lon="34.9685210">
    <ele>153.7</ele>
    <time>2018-08-18T06:11:23Z</time>
   </trkpt>
   <trkpt lat="31.9390940" lon="34.9685560">
    <ele>153.9</ele>
    <time>2018-08-18T06:11:24Z</time>
   </trkpt>
   <trkpt lat="31.9390920" lon="34.9685900">
    <ele>154.0</ele>
    <time>2018-08-18T06:11:25Z</time>
   </trkpt>
   <trkpt lat="31.9390930" lon="34.9686250">
    <ele>154.1</ele>
    <time>2018-08-18T06:11:26Z</time>
   </trkpt>
   <trkpt lat="31.9390920" lon="34.9686580">
    <ele>154.3</ele>
    <time>2018-08-18T06:11:27Z</time>
   </trkpt>
   <trkpt lat="31.9390920" lon="34.9686930">
    <ele>154.4</ele>
    <time>2018-08-18T06:11:28Z</time>
   </trkpt>
   <trkpt lat="31.9390960" lon="34.9687330">
    <ele>154.6</ele>
    <time>2018-08-18T06:11:29Z</time>
   </trkpt>
   <trkpt lat="31.9391010" lon="34.9687750">
    <ele>154.7</ele>
    <time>2018-08-18T06:11:30Z</time>
   </trkpt>
   <trkpt lat="31.9391090" lon="34.9688160">
    <ele>154.9</ele>
    <time>2018-08-18T06:11:31Z</time>
   </trkpt>
   <trkpt lat="31.9391070" lon="34.9688570">
    <ele>155.0</ele>
    <time>2018-08-18T06:11:32Z</time>
   </trkpt>
   <trkpt lat="31.9391090" lon="34.9689000">
    <ele>155.0</ele>
    <time>2018-08-18T06:11:33Z</time>
   </trkpt>
   <trkpt lat="31.9391110" lon="34.9689390">
    <ele>155.0</ele>
    <time>2018-08-18T06:11:34Z</time>
   </trkpt>
   <trkpt lat="31.9391170" lon="34.9689780">
    <ele>155.3</ele>
    <time>2018-08-18T06:11:35Z</time>
   </trkpt>
   <trkpt lat="31.9391240" lon="34.9690170">
    <ele>156.0</ele>
    <time>2018-08-18T06:11:36Z</time>
   </trkpt>
   <trkpt lat="31.9391280" lon="34.9690590">
    <ele>156.7</ele>
    <time>2018-08-18T06:11:37Z</time>
   </trkpt>
   <trkpt lat="31.9391310" lon="34.9691000">
    <ele>157.4</ele>
    <time>2018-08-18T06:11:38Z</time>
   </trkpt>
   <trkpt lat="31.9391350" lon="34.9691430">
    <ele>158.2</ele>
    <time>2018-08-18T06:11:39Z</time>
   </trkpt>
   <trkpt lat="31.9391420" lon="34.9691820">
    <ele>158.9</ele>
    <time>2018-08-18T06:11:40Z</time>
   </trkpt>
   <trkpt lat="31.9391480" lon="34.9692200">
    <ele>159.6</ele>
    <time>2018-08-18T06:11:41Z</time>
   </trkpt>
   <trkpt lat="31.9391560" lon="34.9692540">
    <ele>160.2</ele>
    <time>2018-08-18T06:11:42Z</time>
   </trkpt>
   <trkpt lat="31.9391650" lon="34.9692930">
    <ele>160.9</ele>
    <time>2018-08-18T06:11:43Z</time>
   </trkpt>
   <trkpt lat="31.9391700" lon="34.9693370">
    <ele>161.0</ele>
    <time>2018-08-18T06:11:44Z</time>
   </trkpt>
   <trkpt lat="31.9391770" lon="34.9693730">
    <ele>161.0</ele>
    <time>2018-08-18T06:11:45Z</time>
   </trkpt>
   <trkpt lat="31.9391850" lon="34.9694330">
    <ele>161.0</ele>
    <time>2018-08-18T06:11:47Z</time>
   </trkpt>
   <trkpt lat="31.9391900" lon="34.9694680">
    <ele>161.0</ele>
    <time>2018-08-18T06:11:48Z</time>
   </trkpt>
   <trkpt lat="31.9391940" lon="34.9695300">
    <ele>161.0</ele>
    <time>2018-08-18T06:11:50Z</time>
   </trkpt>
   <trkpt lat="31.9391940" lon="34.9695640">
    <ele>161.0</ele>
    <time>2018-08-18T06:11:51Z</time>
   </trkpt>
   <trkpt lat="31.9391940" lon="34.9696000">
    <ele>161.0</ele>
    <time>2018-08-18T06:11:52Z</time>
   </trkpt>
   <trkpt lat="31.9391940" lon="34.9696390">
    <ele>161.0</ele>
    <time>2018-08-18T06:11:53Z</time>
   </trkpt>
   <trkpt lat="31.9391920" lon="34.9696800">
    <ele>161.0</ele>
    <time>2018-08-18T06:11:54Z</time>
   </trkpt>
   <trkpt lat="31.9391910" lon="34.9697250">
    <ele>161.0</ele>
    <time>2018-08-18T06:11:55Z</time>
   </trkpt>
   <trkpt lat="31.9391890" lon="34.9697650">
    <ele>160.9</ele>
    <time>2018-08-18T06:11:56Z</time>
   </trkpt>
   <trkpt lat="31.9391900" lon="34.9698000">
    <ele>160.9</ele>
    <time>2018-08-18T06:11:57Z</time>
   </trkpt>
   <trkpt lat="31.9391900" lon="34.9698350">
    <ele>160.8</ele>
    <time>2018-08-18T06:11:58Z</time>
   </trkpt>
   <trkpt lat="31.9391880" lon="34.9698690">
    <ele>160.8</ele>
    <time>2018-08-18T06:11:59Z</time>
   </trkpt>
   <trkpt lat="31.9391910" lon="34.9699110">
    <ele>160.8</ele>
    <time>2018-08-18T06:12:00Z</time>
   </trkpt>
   <trkpt lat="31.9391910" lon="34.9699500">
    <ele>160.7</ele>
    <time>2018-08-18T06:12:01Z</time>
   </trkpt>
   <trkpt lat="31.9391830" lon="34.9699860">
    <ele>160.7</ele>
    <time>2018-08-18T06:12:02Z</time>
   </trkpt>
   <trkpt lat="31.9391750" lon="34.9700190">
    <ele>160.6</ele>
    <time>2018-08-18T06:12:03Z</time>
   </trkpt>
   <trkpt lat="31.9391720" lon="34.9700580">
    <ele>160.6</ele>
    <time>2018-08-18T06:12:04Z</time>
   </trkpt>
   <trkpt lat="31.9391680" lon="34.9700990">
    <ele>160.6</ele>
    <time>2018-08-18T06:12:05Z</time>
   </trkpt>
   <trkpt lat="31.9391650" lon="34.9701340">
    <ele>160.5</ele>
    <time>2018-08-18T06:12:06Z</time>
   </trkpt>
   <trkpt lat="31.9391610" lon="34.9701780">
    <ele>160.4</ele>
    <time>2018-08-18T06:12:07Z</time>
   </trkpt>
   <trkpt lat="31.9391590" lon="34.9702220">
    <ele>160.3</ele>
    <time>2018-08-18T06:12:08Z</time>
   </trkpt>
   <trkpt lat="31.9391610" lon="34.9702680">
    <ele>160.5</ele>
    <time>2018-08-18T06:12:09Z</time>
   </trkpt>
   <trkpt lat="31.9391590" lon="34.9703010">
    <ele>160.6</ele>
    <time>2018-08-18T06:12:10Z</time>
   </trkpt>
   <trkpt lat="31.9391580" lon="34.9703380">
    <ele>160.7</ele>
    <time>2018-08-18T06:12:11Z</time>
   </trkpt>
   <trkpt lat="31.9391560" lon="34.9703760">
    <ele>160.9</ele>
    <time>2018-08-18T06:12:12Z</time>
   </trkpt>
   <trkpt lat="31.9391500" lon="34.9704140">
    <ele>160.9</ele>
    <time>2018-08-18T06:12:13Z</time>
   </trkpt>
   <trkpt lat="31.9391530" lon="34.9704550">
    <ele>160.4</ele>
    <time>2018-08-18T06:12:14Z</time>
   </trkpt>
   <trkpt lat="31.9391570" lon="34.9704970">
    <ele>159.8</ele>
    <time>2018-08-18T06:12:15Z</time>
   </trkpt>
   <trkpt lat="31.9391600" lon="34.9705430">
    <ele>159.2</ele>
    <time>2018-08-18T06:12:16Z</time>
   </trkpt>
   <trkpt lat="31.9391660" lon="34.9705800">
    <ele>158.5</ele>
    <time>2018-08-18T06:12:17Z</time>
   </trkpt>
   <trkpt lat="31.9391710" lon="34.9706130">
    <ele>158.0</ele>
    <time>2018-08-18T06:12:18Z</time>
   </trkpt>
   <trkpt lat="31.9391780" lon="34.9706510">
    <ele>157.5</ele>
    <time>2018-08-18T06:12:19Z</time>
   </trkpt>
   <trkpt lat="31.9391830" lon="34.9707090">
    <ele>156.8</ele>
    <time>2018-08-18T06:12:21Z</time>
   </trkpt>
   <trkpt lat="31.9391900" lon="34.9707460">
    <ele>156.4</ele>
    <time>2018-08-18T06:12:22Z</time>
   </trkpt>
   <trkpt lat="31.9391990" lon="34.9707840">
    <ele>156.1</ele>
    <time>2018-08-18T06:12:23Z</time>
   </trkpt>
   <trkpt lat="31.9392110" lon="34.9708200">
    <ele>155.9</ele>
    <time>2018-08-18T06:12:24Z</time>
   </trkpt>
   <trkpt lat="31.9392250" lon="34.9708630">
    <ele>155.6</ele>
    <time>2018-08-18T06:12:25Z</time>
   </trkpt>
   <trkpt lat="31.9392400" lon="34.9709050">
    <ele>155.4</ele>
    <time>2018-08-18T06:12:26Z</time>
   </trkpt>
   <trkpt lat="31.9392560" lon="34.9709410">
    <ele>155.2</ele>
    <time>2018-08-18T06:12:27Z</time>
   </trkpt>
   <trkpt lat="31.9392710" lon="34.9709690">
    <ele>155.0</ele>
    <time>2018-08-18T06:12:28Z</time>
   </trkpt>
   <trkpt lat="31.9392980" lon="34.9710160">
    <ele>154.7</ele>
    <time>2018-08-18T06:12:30Z</time>
   </trkpt>
   <trkpt lat="31.9393190" lon="34.9710660">
    <ele>154.4</ele>
    <time>2018-08-18T06:12:32Z</time>
   </trkpt>
   <trkpt lat="31.9393380" lon="34.9710890">
    <ele>154.3</ele>
    <time>2018-08-18T06:12:33Z</time>
   </trkpt>
   <trkpt lat="31.9393660" lon="34.9711420">
    <ele>154.0</ele>
    <time>2018-08-18T06:12:35Z</time>
   </trkpt>
   <trkpt lat="31.9393860" lon="34.9711690">
    <ele>153.9</ele>
    <time>2018-08-18T06:12:36Z</time>
   </trkpt>
   <trkpt lat="31.9394000" lon="34.9712010">
    <ele>153.7</ele>
    <time>2018-08-18T06:12:37Z</time>
   </trkpt>
   <trkpt lat="31.9394220" lon="34.9712510">
    <ele>153.6</ele>
    <time>2018-08-18T06:12:39Z</time>
   </trkpt>
   <trkpt lat="31.9394350" lon="34.9713100">
    <ele>153.4</ele>
    <time>2018-08-18T06:12:41Z</time>
   </trkpt>
   <trkpt lat="31.9394410" lon="34.9713420">
    <ele>153.2</ele>
    <time>2018-08-18T06:12:42Z</time>
   </trkpt>
   <trkpt lat="31.9394530" lon="34.9713740">
    <ele>153.1</ele>
    <time>2018-08-18T06:12:43Z</time>
   </trkpt>
   <trkpt lat="31.9394650" lon="34.9714060">
    <ele>153.0</ele>
    <time>2018-08-18T06:12:44Z</time>
   </trkpt>
   <trkpt lat="31.9394720" lon="34.9714440">
    <ele>152.9</ele>
    <time>2018-08-18T06:12:45Z</time>
   </trkpt>
   <trkpt lat="31.9394810" lon="34.9714820">
    <ele>152.8</ele>
    <time>2018-08-18T06:12:46Z</time>
   </trkpt>
   <trkpt lat="31.9394910" lon="34.9715250">
    <ele>152.7</ele>
    <time>2018-08-18T06:12:47Z</time>
   </trkpt>
   <trkpt lat="31.9394960" lon="34.9715660">
    <ele>152.5</ele>
    <time>2018-08-18T06:12:48Z</time>
   </trkpt>
   <trkpt lat="31.9395000" lon="34.9716080">
    <ele>152.4</ele>
    <time>2018-08-18T06:12:49Z</time>
   </trkpt>
   <trkpt lat="31.9395070" lon="34.9716490">
    <ele>152.3</ele>
    <time>2018-08-18T06:12:50Z</time>
   </trkpt>
   <trkpt lat="31.9395140" lon="34.9716910">
    <ele>152.2</ele>
    <time>2018-08-18T06:12:51Z</time>
   </trkpt>
   <trkpt lat="31.9395240" lon="34.9717320">
    <ele>152.1</ele>
    <time>2018-08-18T06:12:52Z</time>
   </trkpt>
   <trkpt lat="31.9395330" lon="34.9717820">
    <ele>151.9</ele>
    <time>2018-08-18T06:12:53Z</time>
   </trkpt>
   <trkpt lat="31.9395410" lon="34.9718280">
    <ele>151.8</ele>
    <time>2018-08-18T06:12:54Z</time>
   </trkpt>
   <trkpt lat="31.9395490" lon="34.9718710">
    <ele>151.7</ele>
    <time>2018-08-18T06:12:55Z</time>
   </trkpt>
   <trkpt lat="31.9395560" lon="34.9719120">
    <ele>151.6</ele>
    <time>2018-08-18T06:12:56Z</time>
   </trkpt>
   <trkpt lat="31.9395570" lon="34.9719550">
    <ele>151.5</ele>
    <time>2018-08-18T06:12:57Z</time>
   </trkpt>
   <trkpt lat="31.9395570" lon="34.9720010">
    <ele>151.4</ele>
    <time>2018-08-18T06:12:58Z</time>
   </trkpt>
   <trkpt lat="31.9395540" lon="34.9720510">
    <ele>151.3</ele>
    <time>2018-08-18T06:12:59Z</time>
   </trkpt>
   <trkpt lat="31.9395470" lon="34.9720960">
    <ele>151.2</ele>
    <time>2018-08-18T06:13:00Z</time>
   </trkpt>
   <trkpt lat="31.9395400" lon="34.9721420">
    <ele>151.1</ele>
    <time>2018-08-18T06:13:01Z</time>
   </trkpt>
   <trkpt lat="31.9395340" lon="34.9721890">
    <ele>151.0</ele>
    <time>2018-08-18T06:13:02Z</time>
   </trkpt>
   <trkpt lat="31.9395280" lon="34.9722400">
    <ele>151.1</ele>
    <time>2018-08-18T06:13:03Z</time>
   </trkpt>
   <trkpt lat="31.9395150" lon="34.9722880">
    <ele>151.3</ele>
    <time>2018-08-18T06:13:04Z</time>
   </trkpt>
   <trkpt lat="31.9394970" lon="34.9723260">
    <ele>151.4</ele>
    <time>2018-08-18T06:13:05Z</time>
   </trkpt>
   <trkpt lat="31.9394780" lon="34.9723690">
    <ele>151.5</ele>
    <time>2018-08-18T06:13:06Z</time>
   </trkpt>
   <trkpt lat="31.9394690" lon="34.9724020">
    <ele>151.6</ele>
    <time>2018-08-18T06:13:07Z</time>
   </trkpt>
   <trkpt lat="31.9394560" lon="34.9724430">
    <ele>151.7</ele>
    <time>2018-08-18T06:13:08Z</time>
   </trkpt>
   <trkpt lat="31.9394430" lon="34.9724800">
    <ele>151.8</ele>
    <time>2018-08-18T06:13:09Z</time>
   </trkpt>
   <trkpt lat="31.9394320" lon="34.9725130">
    <ele>152.0</ele>
    <time>2018-08-18T06:13:10Z</time>
   </trkpt>
   <trkpt lat="31.9394200" lon="34.9725450">
    <ele>152.1</ele>
    <time>2018-08-18T06:13:11Z</time>
   </trkpt>
   <trkpt lat="31.9394060" lon="34.9725830">
    <ele>152.2</ele>
    <time>2018-08-18T06:13:12Z</time>
   </trkpt>
   <trkpt lat="31.9393880" lon="34.9726210">
    <ele>152.4</ele>
    <time>2018-08-18T06:13:13Z</time>
   </trkpt>
   <trkpt lat="31.9393620" lon="34.9726800">
    <ele>152.8</ele>
    <time>2018-08-18T06:13:15Z</time>
   </trkpt>
   <trkpt lat="31.9393470" lon="34.9727170">
    <ele>153.1</ele>
    <time>2018-08-18T06:13:16Z</time>
   </trkpt>
   <trkpt lat="31.9393330" lon="34.9727490">
    <ele>153.4</ele>
    <time>2018-08-18T06:13:17Z</time>
   </trkpt>
   <trkpt lat="31.9393180" lon="34.9727780">
    <ele>153.7</ele>
    <time>2018-08-18T06:13:18Z</time>
   </trkpt>
   <trkpt lat="31.9393100" lon="34.9728110">
    <ele>154.0</ele>
    <time>2018-08-18T06:13:19Z</time>
   </trkpt>
   <trkpt lat="31.9393040" lon="34.9728470">
    <ele>154.1</ele>
    <time>2018-08-18T06:13:20Z</time>
   </trkpt>
   <trkpt lat="31.9393000" lon="34.9728950">
    <ele>154.2</ele>
    <time>2018-08-18T06:13:21Z</time>
   </trkpt>
   <trkpt lat="31.9393010" lon="34.9729450">
    <ele>154.3</ele>
    <time>2018-08-18T06:13:22Z</time>
   </trkpt>
   <trkpt lat="31.9393020" lon="34.9729860">
    <ele>154.4</ele>
    <time>2018-08-18T06:13:23Z</time>
   </trkpt>
   <trkpt lat="31.9393100" lon="34.9730320">
    <ele>154.6</ele>
    <time>2018-08-18T06:13:24Z</time>
   </trkpt>
   <trkpt lat="31.9393160" lon="34.9730690">
    <ele>154.7</ele>
    <time>2018-08-18T06:13:25Z</time>
   </trkpt>
   <trkpt lat="31.9393220" lon="34.9731100">
    <ele>154.8</ele>
    <time>2018-08-18T06:13:26Z</time>
   </trkpt>
   <trkpt lat="31.9393300" lon="34.9731440">
    <ele>154.9</ele>
    <time>2018-08-18T06:13:27Z</time>
   </trkpt>
   <trkpt lat="31.9393370" lon="34.9732020">
    <ele>156.1</ele>
    <time>2018-08-18T06:13:29Z</time>
   </trkpt>
   <trkpt lat="31.9393450" lon="34.9732350">
    <ele>156.4</ele>
    <time>2018-08-18T06:13:30Z</time>
   </trkpt>
   <trkpt lat="31.9393610" lon="34.9732820">
    <ele>157.0</ele>
    <time>2018-08-18T06:13:32Z</time>
   </trkpt>
   <trkpt lat="31.9393730" lon="34.9733300">
    <ele>157.5</ele>
    <time>2018-08-18T06:13:34Z</time>
   </trkpt>
   <trkpt lat="31.9393980" lon="34.9733790">
    <ele>158.2</ele>
    <time>2018-08-18T06:13:36Z</time>
   </trkpt>
   <trkpt lat="31.9394190" lon="34.9734040">
    <ele>158.5</ele>
    <time>2018-08-18T06:13:37Z</time>
   </trkpt>
   <trkpt lat="31.9394490" lon="34.9734370">
    <ele>159.0</ele>
    <time>2018-08-18T06:13:39Z</time>
   </trkpt>
   <trkpt lat="31.9394890" lon="34.9734710">
    <ele>159.1</ele>
    <time>2018-08-18T06:13:41Z</time>
   </trkpt>
   <trkpt lat="31.9395280" lon="34.9734930">
    <ele>159.1</ele>
    <time>2018-08-18T06:13:43Z</time>
   </trkpt>
   <trkpt lat="31.9395680" lon="34.9735190">
    <ele>159.2</ele>
    <time>2018-08-18T06:13:45Z</time>
   </trkpt>
   <trkpt lat="31.9395950" lon="34.9735370">
    <ele>159.2</ele>
    <time>2018-08-18T06:13:46Z</time>
   </trkpt>
   <trkpt lat="31.9396230" lon="34.9735570">
    <ele>159.2</ele>
    <time>2018-08-18T06:13:47Z</time>
   </trkpt>
   <trkpt lat="31.9396500" lon="34.9735770">
    <ele>159.3</ele>
    <time>2018-08-18T06:13:48Z</time>
   </trkpt>
   <trkpt lat="31.9396770" lon="34.9735890">
    <ele>159.3</ele>
    <time>2018-08-18T06:13:49Z</time>
   </trkpt>
   <trkpt lat="31.9397260" lon="34.9736150">
    <ele>159.3</ele>
    <time>2018-08-18T06:13:51Z</time>
   </trkpt>
   <trkpt lat="31.9397750" lon="34.9736430">
    <ele>159.4</ele>
    <time>2018-08-18T06:13:53Z</time>
   </trkpt>
   <trkpt lat="31.9398030" lon="34.9736540">
    <ele>159.4</ele>
    <time>2018-08-18T06:13:54Z</time>
   </trkpt>
   <trkpt lat="31.9398280" lon="34.9736670">
    <ele>159.4</ele>
    <time>2018-08-18T06:13:55Z</time>
   </trkpt>
   <trkpt lat="31.9398720" lon="34.9736900">
    <ele>159.5</ele>
    <time>2018-08-18T06:13:57Z</time>
   </trkpt>
   <trkpt lat="31.9399180" lon="34.9737110">
    <ele>159.6</ele>
    <time>2018-08-18T06:13:59Z</time>
   </trkpt>
   <trkpt lat="31.9399660" lon="34.9737270">
    <ele>159.6</ele>
    <time>2018-08-18T06:14:01Z</time>
   </trkpt>
   <trkpt lat="31.9400150" lon="34.9737450">
    <ele>159.7</ele>
    <time>2018-08-18T06:14:03Z</time>
   </trkpt>
   <trkpt lat="31.9400410" lon="34.9737560">
    <ele>159.7</ele>
    <time>2018-08-18T06:14:04Z</time>
   </trkpt>
   <trkpt lat="31.9400720" lon="34.9737790">
    <ele>159.8</ele>
    <time>2018-08-18T06:14:05Z</time>
   </trkpt>
   <trkpt lat="31.9400960" lon="34.9738010">
    <ele>159.9</ele>
    <time>2018-08-18T06:14:06Z</time>
   </trkpt>
   <trkpt lat="31.9401370" lon="34.9738360">
    <ele>160.0</ele>
    <time>2018-08-18T06:14:08Z</time>
   </trkpt>
   <trkpt lat="31.9401570" lon="34.9738600">
    <ele>160.0</ele>
    <time>2018-08-18T06:14:09Z</time>
   </trkpt>
   <trkpt lat="31.9401980" lon="34.9738960">
    <ele>160.3</ele>
    <time>2018-08-18T06:14:11Z</time>
   </trkpt>
   <trkpt lat="31.9402170" lon="34.9739200">
    <ele>160.4</ele>
    <time>2018-08-18T06:14:12Z</time>
   </trkpt>
   <trkpt lat="31.9402550" lon="34.9739570">
    <ele>160.8</ele>
    <time>2018-08-18T06:14:14Z</time>
   </trkpt>
   <trkpt lat="31.9402890" lon="34.9740040">
    <ele>161.3</ele>
    <time>2018-08-18T06:14:16Z</time>
   </trkpt>
   <trkpt lat="31.9403220" lon="34.9740530">
    <ele>161.6</ele>
    <time>2018-08-18T06:14:18Z</time>
   </trkpt>
   <trkpt lat="31.9403390" lon="34.9740790">
    <ele>161.7</ele>
    <time>2018-08-18T06:14:19Z</time>
   </trkpt>
   <trkpt lat="31.9403710" lon="34.9741290">
    <ele>161.8</ele>
    <time>2018-08-18T06:14:21Z</time>
   </trkpt>
   <trkpt lat="31.9403930" lon="34.9741610">
    <ele>161.9</ele>
    <time>2018-08-18T06:14:22Z</time>
   </trkpt>
   <trkpt lat="31.9404130" lon="34.9741870">
    <ele>162.0</ele>
    <time>2018-08-18T06:14:23Z</time>
   </trkpt>
   <trkpt lat="31.9404460" lon="34.9742450">
    <ele>162.2</ele>
    <time>2018-08-18T06:14:25Z</time>
   </trkpt>
   <trkpt lat="31.9404600" lon="34.9742760">
    <ele>162.2</ele>
    <time>2018-08-18T06:14:26Z</time>
   </trkpt>
   <trkpt lat="31.9404920" lon="34.9743380">
    <ele>162.4</ele>
    <time>2018-08-18T06:14:28Z</time>
   </trkpt>
   <trkpt lat="31.9405050" lon="34.9743680">
    <ele>162.5</ele>
    <time>2018-08-18T06:14:29Z</time>
   </trkpt>
   <trkpt lat="31.9405170" lon="34.9743980">
    <ele>162.6</ele>
    <time>2018-08-18T06:14:30Z</time>
   </trkpt>
   <trkpt lat="31.9405280" lon="34.9744350">
    <ele>162.7</ele>
    <time>2018-08-18T06:14:31Z</time>
   </trkpt>
   <trkpt lat="31.9405350" lon="34.9744660">
    <ele>162.7</ele>
    <time>2018-08-18T06:14:32Z</time>
   </trkpt>
   <trkpt lat="31.9405430" lon="34.9744970">
    <ele>162.8</ele>
    <time>2018-08-18T06:14:33Z</time>
   </trkpt>
   <trkpt lat="31.9405560" lon="34.9745320">
    <ele>162.9</ele>
    <time>2018-08-18T06:14:34Z</time>
   </trkpt>
   <trkpt lat="31.9405790" lon="34.9745860">
    <ele>163.1</ele>
    <time>2018-08-18T06:14:36Z</time>
   </trkpt>
   <trkpt lat="31.9406030" lon="34.9746440">
    <ele>163.6</ele>
    <time>2018-08-18T06:14:38Z</time>
   </trkpt>
   <trkpt lat="31.9406120" lon="34.9746790">
    <ele>163.9</ele>
    <time>2018-08-18T06:14:39Z</time>
   </trkpt>
   <trkpt lat="31.9406290" lon="34.9747380">
    <ele>164.1</ele>
    <time>2018-08-18T06:14:41Z</time>
   </trkpt>
   <trkpt lat="31.9406470" lon="34.9747970">
    <ele>164.3</ele>
    <time>2018-08-18T06:14:43Z</time>
   </trkpt>
   <trkpt lat="31.9406600" lon="34.9748410">
    <ele>164.5</ele>
    <time>2018-08-18T06:14:45Z</time>
   </trkpt>
   <trkpt lat="31.9406830" lon="34.9748840">
    <ele>164.6</ele>
    <time>2018-08-18T06:14:47Z</time>
   </trkpt>
   <trkpt lat="31.9407040" lon="34.9749260">
    <ele>164.7</ele>
    <time>2018-08-18T06:14:49Z</time>
   </trkpt>
   <trkpt lat="31.9407350" lon="34.9749800">
    <ele>164.9</ele>
    <time>2018-08-18T06:14:51Z</time>
   </trkpt>
   <trkpt lat="31.9407480" lon="34.9750090">
    <ele>165.0</ele>
    <time>2018-08-18T06:14:52Z</time>
   </trkpt>
   <trkpt lat="31.9407760" lon="34.9750540">
    <ele>165.2</ele>
    <time>2018-08-18T06:14:54Z</time>
   </trkpt>
   <trkpt lat="31.9408000" lon="34.9750850">
    <ele>165.3</ele>
    <time>2018-08-18T06:14:56Z</time>
   </trkpt>
   <trkpt lat="31.9408240" lon="34.9751160">
    <ele>165.6</ele>
    <time>2018-08-18T06:14:58Z</time>
   </trkpt>
   <trkpt lat="31.9408500" lon="34.9751420">
    <ele>165.9</ele>
    <time>2018-08-18T06:15:00Z</time>
   </trkpt>
   <trkpt lat="31.9408780" lon="34.9751580">
    <ele>166.2</ele>
    <time>2018-08-18T06:15:02Z</time>
   </trkpt>
   <trkpt lat="31.9409010" lon="34.9751890">
    <ele>166.6</ele>
    <time>2018-08-18T06:15:04Z</time>
   </trkpt>
   <trkpt lat="31.9409270" lon="34.9752260">
    <ele>166.8</ele>
    <time>2018-08-18T06:15:07Z</time>
   </trkpt>
   <trkpt lat="31.9409550" lon="34.9752500">
    <ele>167.0</ele>
    <time>2018-08-18T06:15:09Z</time>
   </trkpt>
   <trkpt lat="31.9409830" lon="34.9752960">
    <ele>167.4</ele>
    <time>2018-08-18T06:15:11Z</time>
   </trkpt>
   <trkpt lat="31.9410090" lon="34.9753300">
    <ele>167.6</ele>
    <time>2018-08-18T06:15:13Z</time>
   </trkpt>
   <trkpt lat="31.9410390" lon="34.9753470">
    <ele>167.9</ele>
    <time>2018-08-18T06:15:15Z</time>
   </trkpt>
   <trkpt lat="31.9410710" lon="34.9753680">
    <ele>168.3</ele>
    <time>2018-08-18T06:15:17Z</time>
   </trkpt>
   <trkpt lat="31.9411030" lon="34.9753960">
    <ele>168.7</ele>
    <time>2018-08-18T06:15:19Z</time>
   </trkpt>
   <trkpt lat="31.9411280" lon="34.9754270">
    <ele>169.1</ele>
    <time>2018-08-18T06:15:21Z</time>
   </trkpt>
   <trkpt lat="31.9411610" lon="34.9754540">
    <ele>169.3</ele>
    <time>2018-08-18T06:15:23Z</time>
   </trkpt>
   <trkpt lat="31.9411960" lon="34.9754770">
    <ele>169.5</ele>
    <time>2018-08-18T06:15:25Z</time>
   </trkpt>
   <trkpt lat="31.9412370" lon="34.9755060">
    <ele>169.7</ele>
    <time>2018-08-18T06:15:27Z</time>
   </trkpt>
   <trkpt lat="31.9412750" lon="34.9755330">
    <ele>170.0</ele>
    <time>2018-08-18T06:15:29Z</time>
   </trkpt>
   <trkpt lat="31.9413000" lon="34.9755640">
    <ele>170.2</ele>
    <time>2018-08-18T06:15:31Z</time>
   </trkpt>
   <trkpt lat="31.9413370" lon="34.9755810">
    <ele>170.6</ele>
    <time>2018-08-18T06:15:33Z</time>
   </trkpt>
   <trkpt lat="31.9413690" lon="34.9756140">
    <ele>171.1</ele>
    <time>2018-08-18T06:15:35Z</time>
   </trkpt>
   <trkpt lat="31.9413880" lon="34.9756560">
    <ele>171.5</ele>
    <time>2018-08-18T06:15:37Z</time>
   </trkpt>
   <trkpt lat="31.9414100" lon="34.9756940">
    <ele>171.6</ele>
    <time>2018-08-18T06:15:39Z</time>
   </trkpt>
   <trkpt lat="31.9414360" lon="34.9757170">
    <ele>171.8</ele>
    <time>2018-08-18T06:15:41Z</time>
   </trkpt>
   <trkpt lat="31.9414650" lon="34.9757280">
    <ele>172.4</ele>
    <time>2018-08-18T06:15:44Z</time>
   </trkpt>
   <trkpt lat="31.9414970" lon="34.9756880">
    <ele>172.7</ele>
    <time>2018-08-18T06:15:46Z</time>
   </trkpt>
   <trkpt lat="31.9415240" lon="34.9756520">
    <ele>173.1</ele>
    <time>2018-08-18T06:15:48Z</time>
   </trkpt>
   <trkpt lat="31.9415440" lon="34.9756120">
    <ele>173.7</ele>
    <time>2018-08-18T06:15:50Z</time>
   </trkpt>
   <trkpt lat="31.9415700" lon="34.9755810">
    <ele>174.2</ele>
    <time>2018-08-18T06:15:52Z</time>
   </trkpt>
   <trkpt lat="31.9416030" lon="34.9755540">
    <ele>174.7</ele>
    <time>2018-08-18T06:15:54Z</time>
   </trkpt>
   <trkpt lat="31.9416350" lon="34.9755290">
    <ele>175.3</ele>
    <time>2018-08-18T06:15:56Z</time>
   </trkpt>
   <trkpt lat="31.9416590" lon="34.9755140">
    <ele>175.7</ele>
    <time>2018-08-18T06:15:58Z</time>
   </trkpt>
   <trkpt lat="31.9416870" lon="34.9754960">
    <ele>176.3</ele>
    <time>2018-08-18T06:16:00Z</time>
   </trkpt>
   <trkpt lat="31.9417160" lon="34.9754680">
    <ele>177.0</ele>
    <time>2018-08-18T06:16:02Z</time>
   </trkpt>
   <trkpt lat="31.9417370" lon="34.9754450">
    <ele>177.4</ele>
    <time>2018-08-18T06:16:04Z</time>
   </trkpt>
   <trkpt lat="31.9417570" lon="34.9754240">
    <ele>177.8</ele>
    <time>2018-08-18T06:16:06Z</time>
   </trkpt>
   <trkpt lat="31.9417790" lon="34.9754010">
    <ele>178.3</ele>
    <time>2018-08-18T06:16:08Z</time>
   </trkpt>
   <trkpt lat="31.9418060" lon="34.9753670">
    <ele>179.0</ele>
    <time>2018-08-18T06:16:11Z</time>
   </trkpt>
   <trkpt lat="31.9418320" lon="34.9753430">
    <ele>179.4</ele>
    <time>2018-08-18T06:16:13Z</time>
   </trkpt>
   <trkpt lat="31.9418540" lon="34.9753240">
    <ele>179.7</ele>
    <time>2018-08-18T06:16:15Z</time>
   </trkpt>
   <trkpt lat="31.9418910" lon="34.9753060">
    <ele>180.0</ele>
    <time>2018-08-18T06:16:18Z</time>
   </trkpt>
   <trkpt lat="31.9419140" lon="34.9752850">
    <ele>180.3</ele>
    <time>2018-08-18T06:16:20Z</time>
   </trkpt>
   <trkpt lat="31.9419340" lon="34.9752540">
    <ele>180.9</ele>
    <time>2018-08-18T06:16:23Z</time>
   </trkpt>
   <trkpt lat="31.9419570" lon="34.9752190">
    <ele>181.6</ele>
    <time>2018-08-18T06:16:26Z</time>
   </trkpt>
   <trkpt lat="31.9419790" lon="34.9751940">
    <ele>181.8</ele>
    <time>2018-08-18T06:16:29Z</time>
   </trkpt>
   <trkpt lat="31.9419920" lon="34.9751630">
    <ele>182.0</ele>
    <time>2018-08-18T06:16:31Z</time>
   </trkpt>
   <trkpt lat="31.9419920" lon="34.9751270">
    <ele>182.2</ele>
    <time>2018-08-18T06:16:35Z</time>
   </trkpt>
   <trkpt lat="31.9419640" lon="34.9751810">
    <ele>181.8</ele>
    <time>2018-08-18T06:17:03Z</time>
   </trkpt>
   <trkpt lat="31.9419370" lon="34.9751930">
    <ele>181.6</ele>
    <time>2018-08-18T06:17:10Z</time>
   </trkpt>
   <trkpt lat="31.9419230" lon="34.9752280">
    <ele>181.1</ele>
    <time>2018-08-18T06:17:12Z</time>
   </trkpt>
   <trkpt lat="31.9418980" lon="34.9752540">
    <ele>180.5</ele>
    <time>2018-08-18T06:17:14Z</time>
   </trkpt>
   <trkpt lat="31.9418610" lon="34.9752790">
    <ele>180.0</ele>
    <time>2018-08-18T06:17:16Z</time>
   </trkpt>
   <trkpt lat="31.9418230" lon="34.9753120">
    <ele>179.6</ele>
    <time>2018-08-18T06:17:18Z</time>
   </trkpt>
   <trkpt lat="31.9418020" lon="34.9753340">
    <ele>179.3</ele>
    <time>2018-08-18T06:17:19Z</time>
   </trkpt>
   <trkpt lat="31.9417760" lon="34.9753580">
    <ele>178.8</ele>
    <time>2018-08-18T06:17:20Z</time>
   </trkpt>
   <trkpt lat="31.9417480" lon="34.9753940">
    <ele>178.1</ele>
    <time>2018-08-18T06:17:21Z</time>
   </trkpt>
   <trkpt lat="31.9417220" lon="34.9754290">
    <ele>177.5</ele>
    <time>2018-08-18T06:17:22Z</time>
   </trkpt>
   <trkpt lat="31.9416990" lon="34.9754690">
    <ele>176.9</ele>
    <time>2018-08-18T06:17:23Z</time>
   </trkpt>
   <trkpt lat="31.9416710" lon="34.9755100">
    <ele>176.1</ele>
    <time>2018-08-18T06:17:24Z</time>
   </trkpt>
   <trkpt lat="31.9416470" lon="34.9755440">
    <ele>175.4</ele>
    <time>2018-08-18T06:17:25Z</time>
   </trkpt>
   <trkpt lat="31.9416290" lon="34.9755820">
    <ele>174.8</ele>
    <time>2018-08-18T06:17:26Z</time>
   </trkpt>
   <trkpt lat="31.9416110" lon="34.9756220">
    <ele>174.4</ele>
    <time>2018-08-18T06:17:27Z</time>
   </trkpt>
   <trkpt lat="31.9415860" lon="34.9756640">
    <ele>173.8</ele>
    <time>2018-08-18T06:17:28Z</time>
   </trkpt>
   <trkpt lat="31.9415620" lon="34.9757090">
    <ele>173.2</ele>
    <time>2018-08-18T06:17:29Z</time>
   </trkpt>
   <trkpt lat="31.9415520" lon="34.9757500">
    <ele>172.7</ele>
    <time>2018-08-18T06:17:30Z</time>
   </trkpt>
   <trkpt lat="31.9415430" lon="34.9757920">
    <ele>172.5</ele>
    <time>2018-08-18T06:17:31Z</time>
   </trkpt>
   <trkpt lat="31.9415410" lon="34.9758300">
    <ele>173.3</ele>
    <time>2018-08-18T06:17:32Z</time>
   </trkpt>
   <trkpt lat="31.9415520" lon="34.9758650">
    <ele>173.7</ele>
    <time>2018-08-18T06:17:34Z</time>
   </trkpt>
   <trkpt lat="31.9415760" lon="34.9758810">
    <ele>174.1</ele>
    <time>2018-08-18T06:17:37Z</time>
   </trkpt>
   <trkpt lat="31.9416070" lon="34.9759120">
    <ele>174.6</ele>
    <time>2018-08-18T06:17:40Z</time>
   </trkpt>
   <trkpt lat="31.9416370" lon="34.9759350">
    <ele>175.1</ele>
    <time>2018-08-18T06:17:42Z</time>
   </trkpt>
   <trkpt lat="31.9416630" lon="34.9759470">
    <ele>175.2</ele>
    <time>2018-08-18T06:17:44Z</time>
   </trkpt>
   <trkpt lat="31.9416910" lon="34.9759450">
    <ele>175.3</ele>
    <time>2018-08-18T06:17:46Z</time>
   </trkpt>
   <trkpt lat="31.9417430" lon="34.9759260">
    <ele>175.6</ele>
    <time>2018-08-18T06:17:48Z</time>
   </trkpt>
   <trkpt lat="31.9417890" lon="34.9759050">
    <ele>175.8</ele>
    <time>2018-08-18T06:17:50Z</time>
   </trkpt>
   <trkpt lat="31.9418180" lon="34.9758890">
    <ele>175.9</ele>
    <time>2018-08-18T06:17:52Z</time>
   </trkpt>
   <trkpt lat="31.9418530" lon="34.9758910">
    <ele>176.1</ele>
    <time>2018-08-18T06:17:55Z</time>
   </trkpt>
   <trkpt lat="31.9418850" lon="34.9758890">
    <ele>176.3</ele>
    <time>2018-08-18T06:17:58Z</time>
   </trkpt>
   <trkpt lat="31.9419130" lon="34.9758870">
    <ele>176.4</ele>
    <time>2018-08-18T06:18:01Z</time>
   </trkpt>
   <trkpt lat="31.9419610" lon="34.9759060">
    <ele>176.5</ele>
    <time>2018-08-18T06:18:03Z</time>
   </trkpt>
   <trkpt lat="31.9419870" lon="34.9759160">
    <ele>176.6</ele>
    <time>2018-08-18T06:18:04Z</time>
   </trkpt>
   <trkpt lat="31.9420340" lon="34.9759380">
    <ele>176.7</ele>
    <time>2018-08-18T06:18:06Z</time>
   </trkpt>
   <trkpt lat="31.9420790" lon="34.9759610">
    <ele>176.7</ele>
    <time>2018-08-18T06:18:08Z</time>
   </trkpt>
   <trkpt lat="31.9421330" lon="34.9759860">
    <ele>176.8</ele>
    <time>2018-08-18T06:18:10Z</time>
   </trkpt>
   <trkpt lat="31.9421620" lon="34.9759980">
    <ele>176.9</ele>
    <time>2018-08-18T06:18:11Z</time>
   </trkpt>
   <trkpt lat="31.9421920" lon="34.9760110">
    <ele>176.9</ele>
    <time>2018-08-18T06:18:12Z</time>
   </trkpt>
   <trkpt lat="31.9422220" lon="34.9760250">
    <ele>177.0</ele>
    <time>2018-08-18T06:18:13Z</time>
   </trkpt>
   <trkpt lat="31.9422560" lon="34.9760380">
    <ele>177.3</ele>
    <time>2018-08-18T06:18:14Z</time>
   </trkpt>
   <trkpt lat="31.9422960" lon="34.9760510">
    <ele>177.6</ele>
    <time>2018-08-18T06:18:16Z</time>
   </trkpt>
   <trkpt lat="31.9423410" lon="34.9760760">
    <ele>177.8</ele>
    <time>2018-08-18T06:18:18Z</time>
   </trkpt>
   <trkpt lat="31.9423710" lon="34.9761060">
    <ele>177.9</ele>
    <time>2018-08-18T06:18:20Z</time>
   </trkpt>
   <trkpt lat="31.9423950" lon="34.9761250">
    <ele>178.0</ele>
    <time>2018-08-18T06:18:21Z</time>
   </trkpt>
   <trkpt lat="31.9424310" lon="34.9761510">
    <ele>178.3</ele>
    <time>2018-08-18T06:18:23Z</time>
   </trkpt>
   <trkpt lat="31.9424660" lon="34.9761990">
    <ele>178.5</ele>
    <time>2018-08-18T06:18:25Z</time>
   </trkpt>
   <trkpt lat="31.9424920" lon="34.9762270">
    <ele>178.6</ele>
    <time>2018-08-18T06:18:27Z</time>
   </trkpt>
   <trkpt lat="31.9425220" lon="34.9762650">
    <ele>178.6</ele>
    <time>2018-08-18T06:18:29Z</time>
   </trkpt>
   <trkpt lat="31.9425600" lon="34.9763080">
    <ele>178.6</ele>
    <time>2018-08-18T06:18:31Z</time>
   </trkpt>
   <trkpt lat="31.9425830" lon="34.9763260">
    <ele>178.6</ele>
    <time>2018-08-18T06:18:32Z</time>
   </trkpt>
   <trkpt lat="31.9426060" lon="34.9763500">
    <ele>178.6</ele>
    <time>2018-08-18T06:18:33Z</time>
   </trkpt>
   <trkpt lat="31.9426300" lon="34.9763750">
    <ele>178.6</ele>
    <time>2018-08-18T06:18:34Z</time>
   </trkpt>
   <trkpt lat="31.9426600" lon="34.9763970">
    <ele>178.6</ele>
    <time>2018-08-18T06:18:35Z</time>
   </trkpt>
   <trkpt lat="31.9426880" lon="34.9764220">
    <ele>178.6</ele>
    <time>2018-08-18T06:18:36Z</time>
   </trkpt>
   <trkpt lat="31.9427110" lon="34.9764410">
    <ele>178.6</ele>
    <time>2018-08-18T06:18:37Z</time>
   </trkpt>
   <trkpt lat="31.9427360" lon="34.9764640">
    <ele>178.5</ele>
    <time>2018-08-18T06:18:38Z</time>
   </trkpt>
   <trkpt lat="31.9427570" lon="34.9764850">
    <ele>178.5</ele>
    <time>2018-08-18T06:18:39Z</time>
   </trkpt>
   <trkpt lat="31.9427770" lon="34.9765060">
    <ele>178.5</ele>
    <time>2018-08-18T06:18:40Z</time>
   </trkpt>
   <trkpt lat="31.9428080" lon="34.9765440">
    <ele>178.5</ele>
    <time>2018-08-18T06:18:42Z</time>
   </trkpt>
   <trkpt lat="31.9428380" lon="34.9765760">
    <ele>178.5</ele>
    <time>2018-08-18T06:18:44Z</time>
   </trkpt>
   <trkpt lat="31.9428700" lon="34.9766040">
    <ele>178.5</ele>
    <time>2018-08-18T06:18:46Z</time>
   </trkpt>
   <trkpt lat="31.9429060" lon="34.9766350">
    <ele>178.5</ele>
    <time>2018-08-18T06:18:48Z</time>
   </trkpt>
   <trkpt lat="31.9429360" lon="34.9766710">
    <ele>178.5</ele>
    <time>2018-08-18T06:18:50Z</time>
   </trkpt>
   <trkpt lat="31.9429660" lon="34.9767120">
    <ele>178.5</ele>
    <time>2018-08-18T06:18:52Z</time>
   </trkpt>
   <trkpt lat="31.9429890" lon="34.9767560">
    <ele>178.6</ele>
    <time>2018-08-18T06:18:54Z</time>
   </trkpt>
   <trkpt lat="31.9430210" lon="34.9768090">
    <ele>178.8</ele>
    <time>2018-08-18T06:18:56Z</time>
   </trkpt>
   <trkpt lat="31.9430490" lon="34.9768530">
    <ele>178.9</ele>
    <time>2018-08-18T06:18:58Z</time>
   </trkpt>
   <trkpt lat="31.9430790" lon="34.9768930">
    <ele>178.9</ele>
    <time>2018-08-18T06:19:00Z</time>
   </trkpt>
   <trkpt lat="31.9431120" lon="34.9769340">
    <ele>179.0</ele>
    <time>2018-08-18T06:19:02Z</time>
   </trkpt>
   <trkpt lat="31.9431400" lon="34.9769740">
    <ele>179.0</ele>
    <time>2018-08-18T06:19:04Z</time>
   </trkpt>
   <trkpt lat="31.9431700" lon="34.9770080">
    <ele>179.0</ele>
    <time>2018-08-18T06:19:06Z</time>
   </trkpt>
   <trkpt lat="31.9431930" lon="34.9770570">
    <ele>179.0</ele>
    <time>2018-08-18T06:19:08Z</time>
   </trkpt>
   <trkpt lat="31.9432140" lon="34.9771000">
    <ele>179.0</ele>
    <time>2018-08-18T06:19:10Z</time>
   </trkpt>
   <trkpt lat="31.9432250" lon="34.9771460">
    <ele>179.0</ele>
    <time>2018-08-18T06:19:12Z</time>
   </trkpt>
   <trkpt lat="31.9432450" lon="34.9771830">
    <ele>179.0</ele>
    <time>2018-08-18T06:19:15Z</time>
   </trkpt>
   <trkpt lat="31.9432860" lon="34.9771680">
    <ele>179.6</ele>
    <time>2018-08-18T06:19:19Z</time>
   </trkpt>
   <trkpt lat="31.9433170" lon="34.9771630">
    <ele>179.9</ele>
    <time>2018-08-18T06:19:21Z</time>
   </trkpt>
   <trkpt lat="31.9433440" lon="34.9771650">
    <ele>180.1</ele>
    <time>2018-08-18T06:19:27Z</time>
   </trkpt>
   <trkpt lat="31.9433710" lon="34.9771920">
    <ele>180.3</ele>
    <time>2018-08-18T06:19:32Z</time>
   </trkpt>
   <trkpt lat="31.9434030" lon="34.9771950">
    <ele>180.5</ele>
    <time>2018-08-18T06:19:34Z</time>
   </trkpt>
   <trkpt lat="31.9434330" lon="34.9772080">
    <ele>180.7</ele>
    <time>2018-08-18T06:19:36Z</time>
   </trkpt>
   <trkpt lat="31.9434660" lon="34.9772050">
    <ele>180.9</ele>
    <time>2018-08-18T06:19:38Z</time>
   </trkpt>
   <trkpt lat="31.9435160" lon="34.9771970">
    <ele>181.3</ele>
    <time>2018-08-18T06:19:41Z</time>
   </trkpt>
   <trkpt lat="31.9435560" lon="34.9771850">
    <ele>181.6</ele>
    <time>2018-08-18T06:19:43Z</time>
   </trkpt>
   <trkpt lat="31.9435840" lon="34.9771870">
    <ele>181.8</ele>
    <time>2018-08-18T06:19:45Z</time>
   </trkpt>
   <trkpt lat="31.9436110" lon="34.9771830">
    <ele>182.1</ele>
    <time>2018-08-18T06:19:47Z</time>
   </trkpt>
   <trkpt lat="31.9436560" lon="34.9771600">
    <ele>182.5</ele>
    <time>2018-08-18T06:19:49Z</time>
   </trkpt>
   <trkpt lat="31.9436950" lon="34.9771350">
    <ele>182.9</ele>
    <time>2018-08-18T06:19:52Z</time>
   </trkpt>
   <trkpt lat="31.9437300" lon="34.9771000">
    <ele>183.3</ele>
    <time>2018-08-18T06:19:55Z</time>
   </trkpt>
   <trkpt lat="31.9437580" lon="34.9770730">
    <ele>183.7</ele>
    <time>2018-08-18T06:19:57Z</time>
   </trkpt>
   <trkpt lat="31.9437870" lon="34.9770520">
    <ele>184.0</ele>
    <time>2018-08-18T06:19:59Z</time>
   </trkpt>
   <trkpt lat="31.9438120" lon="34.9770270">
    <ele>184.3</ele>
    <time>2018-08-18T06:20:01Z</time>
   </trkpt>
   <trkpt lat="31.9438360" lon="34.9770060">
    <ele>184.6</ele>
    <time>2018-08-18T06:20:03Z</time>
   </trkpt>
   <trkpt lat="31.9438690" lon="34.9769800">
    <ele>184.9</ele>
    <time>2018-08-18T06:20:06Z</time>
   </trkpt>
   <trkpt lat="31.9438930" lon="34.9769600">
    <ele>185.2</ele>
    <time>2018-08-18T06:20:09Z</time>
   </trkpt>
   <trkpt lat="31.9439130" lon="34.9769320">
    <ele>185.5</ele>
    <time>2018-08-18T06:20:11Z</time>
   </trkpt>
   <trkpt lat="31.9439270" lon="34.9768890">
    <ele>185.9</ele>
    <time>2018-08-18T06:20:14Z</time>
   </trkpt>
   <trkpt lat="31.9439440" lon="34.9768630">
    <ele>186.1</ele>
    <time>2018-08-18T06:20:16Z</time>
   </trkpt>
   <trkpt lat="31.9439540" lon="34.9768260">
    <ele>186.3</ele>
    <time>2018-08-18T06:20:18Z</time>
   </trkpt>
   <trkpt lat="31.9439640" lon="34.9767940">
    <ele>186.5</ele>
    <time>2018-08-18T06:20:20Z</time>
   </trkpt>
   <trkpt lat="31.9439820" lon="34.9767510">
    <ele>186.6</ele>
    <time>2018-08-18T06:20:23Z</time>
   </trkpt>
   <trkpt lat="31.9439980" lon="34.9767110">
    <ele>186.8</ele>
    <time>2018-08-18T06:20:26Z</time>
   </trkpt>
   <trkpt lat="31.9440070" lon="34.9766780">
    <ele>186.9</ele>
    <time>2018-08-18T06:20:28Z</time>
   </trkpt>
   <trkpt lat="31.9440060" lon="34.9766270">
    <ele>187.1</ele>
    <time>2018-08-18T06:20:30Z</time>
   </trkpt>
   <trkpt lat="31.9439990" lon="34.9765890">
    <ele>187.2</ele>
    <time>2018-08-18T06:20:32Z</time>
   </trkpt>
   <trkpt lat="31.9439860" lon="34.9765510">
    <ele>187.4</ele>
    <time>2018-08-18T06:20:36Z</time>
   </trkpt>
   <trkpt lat="31.9439630" lon="34.9765160">
    <ele>187.6</ele>
    <time>2018-08-18T06:20:38Z</time>
   </trkpt>
   <trkpt lat="31.9439520" lon="34.9764700">
    <ele>187.8</ele>
    <time>2018-08-18T06:20:40Z</time>
   </trkpt>
   <trkpt lat="31.9439650" lon="34.9764380">
    <ele>188.0</ele>
    <time>2018-08-18T06:20:42Z</time>
   </trkpt>
   <trkpt lat="31.9439770" lon="34.9764000">
    <ele>188.2</ele>
    <time>2018-08-18T06:20:44Z</time>
   </trkpt>
   <trkpt lat="31.9439930" lon="34.9763620">
    <ele>188.4</ele>
    <time>2018-08-18T06:20:46Z</time>
   </trkpt>
   <trkpt lat="31.9440130" lon="34.9763350">
    <ele>188.6</ele>
    <time>2018-08-18T06:20:48Z</time>
   </trkpt>
   <trkpt lat="31.9440210" lon="34.9763010">
    <ele>188.8</ele>
    <time>2018-08-18T06:20:50Z</time>
   </trkpt>
   <trkpt lat="31.9440280" lon="34.9762500">
    <ele>189.0</ele>
    <time>2018-08-18T06:20:52Z</time>
   </trkpt>
   <trkpt lat="31.9440300" lon="34.9762180">
    <ele>189.1</ele>
    <time>2018-08-18T06:20:53Z</time>
   </trkpt>
   <trkpt lat="31.9440280" lon="34.9761790">
    <ele>189.3</ele>
    <time>2018-08-18T06:20:54Z</time>
   </trkpt>
   <trkpt lat="31.9440350" lon="34.9761320">
    <ele>189.4</ele>
    <time>2018-08-18T06:20:56Z</time>
   </trkpt>
   <trkpt lat="31.9440370" lon="34.9760910">
    <ele>189.6</ele>
    <time>2018-08-18T06:20:58Z</time>
   </trkpt>
   <trkpt lat="31.9440330" lon="34.9760450">
    <ele>189.7</ele>
    <time>2018-08-18T06:21:00Z</time>
   </trkpt>
   <trkpt lat="31.9440300" lon="34.9760130">
    <ele>189.7</ele>
    <time>2018-08-18T06:21:02Z</time>
   </trkpt>
   <trkpt lat="31.9440250" lon="34.9759800">
    <ele>189.8</ele>
    <time>2018-08-18T06:21:04Z</time>
   </trkpt>
   <trkpt lat="31.9440270" lon="34.9759370">
    <ele>189.9</ele>
    <time>2018-08-18T06:21:06Z</time>
   </trkpt>
   <trkpt lat="31.9440360" lon="34.9758690">
    <ele>190.0</ele>
    <time>2018-08-18T06:21:08Z</time>
   </trkpt>
   <trkpt lat="31.9440610" lon="34.9758250">
    <ele>190.1</ele>
    <time>2018-08-18T06:21:10Z</time>
   </trkpt>
   <trkpt lat="31.9440800" lon="34.9757960">
    <ele>190.1</ele>
    <time>2018-08-18T06:21:12Z</time>
   </trkpt>
   <trkpt lat="31.9441010" lon="34.9757620">
    <ele>190.1</ele>
    <time>2018-08-18T06:21:14Z</time>
   </trkpt>
   <trkpt lat="31.9441320" lon="34.9757260">
    <ele>190.1</ele>
    <time>2018-08-18T06:21:16Z</time>
   </trkpt>
   <trkpt lat="31.9441560" lon="34.9756810">
    <ele>190.2</ele>
    <time>2018-08-18T06:21:18Z</time>
   </trkpt>
   <trkpt lat="31.9441780" lon="34.9756370">
    <ele>190.2</ele>
    <time>2018-08-18T06:21:20Z</time>
   </trkpt>
   <trkpt lat="31.9442140" lon="34.9756110">
    <ele>190.2</ele>
    <time>2018-08-18T06:21:22Z</time>
   </trkpt>
   <trkpt lat="31.9442480" lon="34.9755790">
    <ele>190.2</ele>
    <time>2018-08-18T06:21:24Z</time>
   </trkpt>
   <trkpt lat="31.9442850" lon="34.9755500">
    <ele>190.2</ele>
    <time>2018-08-18T06:21:26Z</time>
   </trkpt>
   <trkpt lat="31.9443050" lon="34.9755210">
    <ele>190.2</ele>
    <time>2018-08-18T06:21:27Z</time>
   </trkpt>
   <trkpt lat="31.9443290" lon="34.9754880">
    <ele>190.3</ele>
    <time>2018-08-18T06:21:28Z</time>
   </trkpt>
   <trkpt lat="31.9443610" lon="34.9754400">
    <ele>190.3</ele>
    <time>2018-08-18T06:21:30Z</time>
   </trkpt>
   <trkpt lat="31.9443890" lon="34.9754030">
    <ele>190.3</ele>
    <time>2018-08-18T06:21:32Z</time>
   </trkpt>
   <trkpt lat="31.9444050" lon="34.9753780">
    <ele>190.3</ele>
    <time>2018-08-18T06:21:33Z</time>
   </trkpt>
   <trkpt lat="31.9444260" lon="34.9753560">
    <ele>190.3</ele>
    <time>2018-08-18T06:21:34Z</time>
   </trkpt>
   <trkpt lat="31.9444720" lon="34.9753120">
    <ele>190.3</ele>
    <time>2018-08-18T06:21:36Z</time>
   </trkpt>
   <trkpt lat="31.9445000" lon="34.9752910">
    <ele>190.3</ele>
    <time>2018-08-18T06:21:37Z</time>
   </trkpt>
   <trkpt lat="31.9445250" lon="34.9752730">
    <ele>190.3</ele>
    <time>2018-08-18T06:21:38Z</time>
   </trkpt>
   <trkpt lat="31.9445690" lon="34.9752540">
    <ele>190.3</ele>
    <time>2018-08-18T06:21:40Z</time>
   </trkpt>
   <trkpt lat="31.9445990" lon="34.9752080">
    <ele>190.3</ele>
    <time>2018-08-18T06:21:42Z</time>
   </trkpt>
   <trkpt lat="31.9446100" lon="34.9751770">
    <ele>190.3</ele>
    <time>2018-08-18T06:21:43Z</time>
   </trkpt>
   <trkpt lat="31.9446110" lon="34.9751270">
    <ele>190.3</ele>
    <time>2018-08-18T06:21:44Z</time>
   </trkpt>
   <trkpt lat="31.9446130" lon="34.9750820">
    <ele>190.3</ele>
    <time>2018-08-18T06:21:45Z</time>
   </trkpt>
   <trkpt lat="31.9446180" lon="34.9750420">
    <ele>190.3</ele>
    <time>2018-08-18T06:21:46Z</time>
   </trkpt>
   <trkpt lat="31.9446250" lon="34.9749890">
    <ele>190.3</ele>
    <time>2018-08-18T06:21:47Z</time>
   </trkpt>
   <trkpt lat="31.9446280" lon="34.9749400">
    <ele>190.2</ele>
    <time>2018-08-18T06:21:48Z</time>
   </trkpt>
   <trkpt lat="31.9446270" lon="34.9748900">
    <ele>190.2</ele>
    <time>2018-08-18T06:21:49Z</time>
   </trkpt>
   <trkpt lat="31.9446260" lon="34.9748370">
    <ele>190.1</ele>
    <time>2018-08-18T06:21:50Z</time>
   </trkpt>
   <trkpt lat="31.9446220" lon="34.9747890">
    <ele>190.1</ele>
    <time>2018-08-18T06:21:51Z</time>
   </trkpt>
   <trkpt lat="31.9446170" lon="34.9747410">
    <ele>190.0</ele>
    <time>2018-08-18T06:21:52Z</time>
   </trkpt>
   <trkpt lat="31.9446100" lon="34.9747040">
    <ele>190.0</ele>
    <time>2018-08-18T06:21:53Z</time>
   </trkpt>
   <trkpt lat="31.9446060" lon="34.9746390">
    <ele>189.8</ele>
    <time>2018-08-18T06:21:55Z</time>
   </trkpt>
   <trkpt lat="31.9446070" lon="34.9746070">
    <ele>189.8</ele>
    <time>2018-08-18T06:21:56Z</time>
   </trkpt>
   <trkpt lat="31.9446090" lon="34.9745730">
    <ele>189.7</ele>
    <time>2018-08-18T06:21:57Z</time>
   </trkpt>
   <trkpt lat="31.9446090" lon="34.9745320">
    <ele>189.5</ele>
    <time>2018-08-18T06:21:58Z</time>
   </trkpt>
   <trkpt lat="31.9446080" lon="34.9744910">
    <ele>189.3</ele>
    <time>2018-08-18T06:21:59Z</time>
   </trkpt>
   <trkpt lat="31.9445980" lon="34.9744450">
    <ele>189.1</ele>
    <time>2018-08-18T06:22:00Z</time>
   </trkpt>
   <trkpt lat="31.9445900" lon="34.9744040">
    <ele>188.9</ele>
    <time>2018-08-18T06:22:01Z</time>
   </trkpt>
   <trkpt lat="31.9445860" lon="34.9743570">
    <ele>188.7</ele>
    <time>2018-08-18T06:22:03Z</time>
   </trkpt>
   <trkpt lat="31.9445870" lon="34.9743210">
    <ele>188.5</ele>
    <time>2018-08-18T06:22:05Z</time>
   </trkpt>
   <trkpt lat="31.9445920" lon="34.9742550">
    <ele>188.2</ele>
    <time>2018-08-18T06:22:07Z</time>
   </trkpt>
   <trkpt lat="31.9446010" lon="34.9742220">
    <ele>188.0</ele>
    <time>2018-08-18T06:22:08Z</time>
   </trkpt>
   <trkpt lat="31.9446070" lon="34.9741820">
    <ele>187.8</ele>
    <time>2018-08-18T06:22:09Z</time>
   </trkpt>
   <trkpt lat="31.9446170" lon="34.9741460">
    <ele>187.6</ele>
    <time>2018-08-18T06:22:10Z</time>
   </trkpt>
   <trkpt lat="31.9446300" lon="34.9741030">
    <ele>187.3</ele>
    <time>2018-08-18T06:22:11Z</time>
   </trkpt>
   <trkpt lat="31.9446550" lon="34.9740730">
    <ele>187.1</ele>
    <time>2018-08-18T06:22:12Z</time>
   </trkpt>
   <trkpt lat="31.9446700" lon="34.9740330">
    <ele>186.8</ele>
    <time>2018-08-18T06:22:13Z</time>
   </trkpt>
   <trkpt lat="31.9446820" lon="34.9739930">
    <ele>186.6</ele>
    <time>2018-08-18T06:22:14Z</time>
   </trkpt>
   <trkpt lat="31.9446920" lon="34.9739460">
    <ele>186.3</ele>
    <time>2018-08-18T06:22:15Z</time>
   </trkpt>
   <trkpt lat="31.9446960" lon="34.9738980">
    <ele>185.9</ele>
    <time>2018-08-18T06:22:16Z</time>
   </trkpt>
   <trkpt lat="31.9446900" lon="34.9738530">
    <ele>185.6</ele>
    <time>2018-08-18T06:22:17Z</time>
   </trkpt>
   <trkpt lat="31.9446810" lon="34.9738140">
    <ele>185.3</ele>
    <time>2018-08-18T06:22:18Z</time>
   </trkpt>
   <trkpt lat="31.9446680" lon="34.9737590">
    <ele>184.8</ele>
    <time>2018-08-18T06:22:20Z</time>
   </trkpt>
   <trkpt lat="31.9446640" lon="34.9737050">
    <ele>184.4</ele>
    <time>2018-08-18T06:22:22Z</time>
   </trkpt>
   <trkpt lat="31.9446640" lon="34.9736710">
    <ele>184.1</ele>
    <time>2018-08-18T06:22:23Z</time>
   </trkpt>
   <trkpt lat="31.9446560" lon="34.9736310">
    <ele>183.8</ele>
    <time>2018-08-18T06:22:24Z</time>
   </trkpt>
   <trkpt lat="31.9446500" lon="34.9735930">
    <ele>183.5</ele>
    <time>2018-08-18T06:22:25Z</time>
   </trkpt>
   <trkpt lat="31.9446480" lon="34.9735610">
    <ele>183.3</ele>
    <time>2018-08-18T06:22:26Z</time>
   </trkpt>
   <trkpt lat="31.9445970" lon="34.9735260">
    <ele>182.7</ele>
    <time>2018-08-18T06:22:28Z</time>
   </trkpt>
   <trkpt lat="31.9445540" lon="34.9735120">
    <ele>182.1</ele>
    <time>2018-08-18T06:22:30Z</time>
   </trkpt>
   <trkpt lat="31.9445010" lon="34.9735110">
    <ele>181.9</ele>
    <time>2018-08-18T06:22:32Z</time>
   </trkpt>
   <trkpt lat="31.9444560" lon="34.9735040">
    <ele>181.3</ele>
    <time>2018-08-18T06:22:33Z</time>
   </trkpt>
   <trkpt lat="31.9444130" lon="34.9735160">
    <ele>180.7</ele>
    <time>2018-08-18T06:22:34Z</time>
   </trkpt>
   <trkpt lat="31.9443710" lon="34.9735350">
    <ele>180.1</ele>
    <time>2018-08-18T06:22:35Z</time>
   </trkpt>
   <trkpt lat="31.9443300" lon="34.9735570">
    <ele>179.5</ele>
    <time>2018-08-18T06:22:36Z</time>
   </trkpt>
   <trkpt lat="31.9442870" lon="34.9735800">
    <ele>179.0</ele>
    <time>2018-08-18T06:22:37Z</time>
   </trkpt>
   <trkpt lat="31.9442440" lon="34.9736130">
    <ele>178.6</ele>
    <time>2018-08-18T06:22:38Z</time>
   </trkpt>
   <trkpt lat="31.9442100" lon="34.9736500">
    <ele>178.2</ele>
    <time>2018-08-18T06:22:39Z</time>
   </trkpt>
   <trkpt lat="31.9441830" lon="34.9736810">
    <ele>178.0</ele>
    <time>2018-08-18T06:22:40Z</time>
   </trkpt>
   <trkpt lat="31.9441480" lon="34.9736860">
    <ele>177.8</ele>
    <time>2018-08-18T06:22:41Z</time>
   </trkpt>
   <trkpt lat="31.9441060" lon="34.9736800">
    <ele>177.6</ele>
    <time>2018-08-18T06:22:42Z</time>
   </trkpt>
   <trkpt lat="31.9440690" lon="34.9736720">
    <ele>177.5</ele>
    <time>2018-08-18T06:22:43Z</time>
   </trkpt>
   <trkpt lat="31.9440320" lon="34.9736620">
    <ele>177.4</ele>
    <time>2018-08-18T06:22:44Z</time>
   </trkpt>
   <trkpt lat="31.9439980" lon="34.9736390">
    <ele>177.3</ele>
    <time>2018-08-18T06:22:46Z</time>
   </trkpt>
   <trkpt lat="31.9439950" lon="34.9735800">
    <ele>177.1</ele>
    <time>2018-08-18T06:22:48Z</time>
   </trkpt>
   <trkpt lat="31.9439950" lon="34.9735440">
    <ele>177.1</ele>
    <time>2018-08-18T06:22:49Z</time>
   </trkpt>
   <trkpt lat="31.9440020" lon="34.9735070">
    <ele>177.1</ele>
    <time>2018-08-18T06:22:50Z</time>
   </trkpt>
   <trkpt lat="31.9440090" lon="34.9734710">
    <ele>177.2</ele>
    <time>2018-08-18T06:22:51Z</time>
   </trkpt>
   <trkpt lat="31.9440170" lon="34.9734180">
    <ele>177.3</ele>
    <time>2018-08-18T06:22:53Z</time>
   </trkpt>
   <trkpt lat="31.9440220" lon="34.9733780">
    <ele>177.4</ele>
    <time>2018-08-18T06:22:54Z</time>
   </trkpt>
   <trkpt lat="31.9440280" lon="34.9733420">
    <ele>177.4</ele>
    <time>2018-08-18T06:22:55Z</time>
   </trkpt>
   <trkpt lat="31.9440340" lon="34.9732980">
    <ele>177.6</ele>
    <time>2018-08-18T06:22:57Z</time>
   </trkpt>
   <trkpt lat="31.9440430" lon="34.9732480">
    <ele>178.0</ele>
    <time>2018-08-18T06:23:00Z</time>
   </trkpt>
   <trkpt lat="31.9440450" lon="34.9732060">
    <ele>178.3</ele>
    <time>2018-08-18T06:23:02Z</time>
   </trkpt>
   <trkpt lat="31.9440620" lon="34.9731630">
    <ele>178.8</ele>
    <time>2018-08-18T06:23:05Z</time>
   </trkpt>
   <trkpt lat="31.9440710" lon="34.9731250">
    <ele>179.1</ele>
    <time>2018-08-18T06:23:07Z</time>
   </trkpt>
   <trkpt lat="31.9440810" lon="34.9730940">
    <ele>179.3</ele>
    <time>2018-08-18T06:23:09Z</time>
   </trkpt>
   <trkpt lat="31.9440920" lon="34.9730510">
    <ele>179.6</ele>
    <time>2018-08-18T06:23:11Z</time>
   </trkpt>
   <trkpt lat="31.9440970" lon="34.9730150">
    <ele>180.0</ele>
    <time>2018-08-18T06:23:13Z</time>
   </trkpt>
   <trkpt lat="31.9441070" lon="34.9729690">
    <ele>180.6</ele>
    <time>2018-08-18T06:23:16Z</time>
   </trkpt>
   <trkpt lat="31.9441150" lon="34.9729310">
    <ele>181.2</ele>
    <time>2018-08-18T06:23:18Z</time>
   </trkpt>
   <trkpt lat="31.9441230" lon="34.9728990">
    <ele>181.6</ele>
    <time>2018-08-18T06:23:20Z</time>
   </trkpt>
   <trkpt lat="31.9441390" lon="34.9728670">
    <ele>182.1</ele>
    <time>2018-08-18T06:23:23Z</time>
   </trkpt>
   <trkpt lat="31.9441500" lon="34.9728280">
    <ele>182.8</ele>
    <time>2018-08-18T06:23:25Z</time>
   </trkpt>
   <trkpt lat="31.9441620" lon="34.9727960">
    <ele>183.4</ele>
    <time>2018-08-18T06:23:27Z</time>
   </trkpt>
   <trkpt lat="31.9441690" lon="34.9727600">
    <ele>183.8</ele>
    <time>2018-08-18T06:23:29Z</time>
   </trkpt>
   <trkpt lat="31.9441770" lon="34.9727230">
    <ele>184.3</ele>
    <time>2018-08-18T06:23:31Z</time>
   </trkpt>
   <trkpt lat="31.9441900" lon="34.9726930">
    <ele>184.9</ele>
    <time>2018-08-18T06:23:34Z</time>
   </trkpt>
   <trkpt lat="31.9441970" lon="34.9726560">
    <ele>185.4</ele>
    <time>2018-08-18T06:23:37Z</time>
   </trkpt>
   <trkpt lat="31.9442080" lon="34.9726230">
    <ele>185.8</ele>
    <time>2018-08-18T06:23:40Z</time>
   </trkpt>
   <trkpt lat="31.9442150" lon="34.9725890">
    <ele>186.1</ele>
    <time>2018-08-18T06:23:43Z</time>
   </trkpt>
   <trkpt lat="31.9442130" lon="34.9725560">
    <ele>186.4</ele>
    <time>2018-08-18T06:23:45Z</time>
   </trkpt>
   <trkpt lat="31.9442290" lon="34.9725150">
    <ele>187.0</ele>
    <time>2018-08-18T06:23:48Z</time>
   </trkpt>
   <trkpt lat="31.9442430" lon="34.9724810">
    <ele>187.4</ele>
    <time>2018-08-18T06:23:51Z</time>
   </trkpt>
   <trkpt lat="31.9442620" lon="34.9724570">
    <ele>187.8</ele>
    <time>2018-08-18T06:23:53Z</time>
   </trkpt>
   <trkpt lat="31.9442770" lon="34.9724200">
    <ele>188.1</ele>
    <time>2018-08-18T06:23:56Z</time>
   </trkpt>
   <trkpt lat="31.9442930" lon="34.9723910">
    <ele>188.4</ele>
    <time>2018-08-18T06:23:59Z</time>
   </trkpt>
   <trkpt lat="31.9443000" lon="34.9723560">
    <ele>188.7</ele>
    <time>2018-08-18T06:24:02Z</time>
   </trkpt>
   <trkpt lat="31.9443160" lon="34.9723190">
    <ele>189.2</ele>
    <time>2018-08-18T06:24:05Z</time>
   </trkpt>
   <trkpt lat="31.9443310" lon="34.9722890">
    <ele>189.9</ele>
    <time>2018-08-18T06:24:08Z</time>
   </trkpt>
   <trkpt lat="31.9443400" lon="34.9722520">
    <ele>190.2</ele>
    <time>2018-08-18T06:24:11Z</time>
   </trkpt>
   <trkpt lat="31.9443500" lon="34.9722210">
    <ele>190.6</ele>
    <time>2018-08-18T06:24:13Z</time>
   </trkpt>
   <trkpt lat="31.9443490" lon="34.9721740">
    <ele>191.4</ele>
    <time>2018-08-18T06:24:15Z</time>
   </trkpt>
   <trkpt lat="31.9443590" lon="34.9721400">
    <ele>191.9</ele>
    <time>2018-08-18T06:24:19Z</time>
   </trkpt>
   <trkpt lat="31.9443640" lon="34.9720940">
    <ele>192.4</ele>
    <time>2018-08-18T06:24:23Z</time>
   </trkpt>
   <trkpt lat="31.9443660" lon="34.9720580">
    <ele>192.9</ele>
    <time>2018-08-18T06:24:26Z</time>
   </trkpt>
   <trkpt lat="31.9443670" lon="34.9720250">
    <ele>193.4</ele>
    <time>2018-08-18T06:24:28Z</time>
   </trkpt>
   <trkpt lat="31.9443690" lon="34.9719920">
    <ele>193.9</ele>
    <time>2018-08-18T06:24:30Z</time>
   </trkpt>
   <trkpt lat="31.9443820" lon="34.9719600">
    <ele>194.4</ele>
    <time>2018-08-18T06:24:33Z</time>
   </trkpt>
   <trkpt lat="31.9443880" lon="34.9719130">
    <ele>195.0</ele>
    <time>2018-08-18T06:24:36Z</time>
   </trkpt>
   <trkpt lat="31.9443910" lon="34.9718700">
    <ele>195.6</ele>
    <time>2018-08-18T06:24:40Z</time>
   </trkpt>
   <trkpt lat="31.9443940" lon="34.9718260">
    <ele>195.9</ele>
    <time>2018-08-18T06:24:43Z</time>
   </trkpt>
   <trkpt lat="31.9444020" lon="34.9717930">
    <ele>196.0</ele>
    <time>2018-08-18T06:24:45Z</time>
   </trkpt>
   <trkpt lat="31.9444140" lon="34.9717640">
    <ele>196.2</ele>
    <time>2018-08-18T06:24:47Z</time>
   </trkpt>
   <trkpt lat="31.9444250" lon="34.9717280">
    <ele>196.3</ele>
    <time>2018-08-18T06:24:49Z</time>
   </trkpt>
   <trkpt lat="31.9444370" lon="34.9716900">
    <ele>196.6</ele>
    <time>2018-08-18T06:24:51Z</time>
   </trkpt>
   <trkpt lat="31.9444420" lon="34.9716580">
    <ele>196.9</ele>
    <time>2018-08-18T06:24:53Z</time>
   </trkpt>
   <trkpt lat="31.9444460" lon="34.9716100">
    <ele>197.5</ele>
    <time>2018-08-18T06:24:56Z</time>
   </trkpt>
   <trkpt lat="31.9444480" lon="34.9715690">
    <ele>197.9</ele>
    <time>2018-08-18T06:24:58Z</time>
   </trkpt>
   <trkpt lat="31.9444440" lon="34.9715280">
    <ele>198.0</ele>
    <time>2018-08-18T06:25:01Z</time>
   </trkpt>
   <trkpt lat="31.9444420" lon="34.9714790">
    <ele>198.1</ele>
    <time>2018-08-18T06:25:03Z</time>
   </trkpt>
   <trkpt lat="31.9444480" lon="34.9714450">
    <ele>198.2</ele>
    <time>2018-08-18T06:25:05Z</time>
   </trkpt>
   <trkpt lat="31.9444670" lon="34.9713920">
    <ele>198.3</ele>
    <time>2018-08-18T06:25:08Z</time>
   </trkpt>
   <trkpt lat="31.9444720" lon="34.9713560">
    <ele>198.4</ele>
    <time>2018-08-18T06:25:10Z</time>
   </trkpt>
   <trkpt lat="31.9444770" lon="34.9713120">
    <ele>198.4</ele>
    <time>2018-08-18T06:25:12Z</time>
   </trkpt>
   <trkpt lat="31.9444860" lon="34.9712610">
    <ele>198.5</ele>
    <time>2018-08-18T06:25:15Z</time>
   </trkpt>
   <trkpt lat="31.9444840" lon="34.9712160">
    <ele>198.7</ele>
    <time>2018-08-18T06:25:17Z</time>
   </trkpt>
   <trkpt lat="31.9444700" lon="34.9711830">
    <ele>198.8</ele>
    <time>2018-08-18T06:25:18Z</time>
   </trkpt>
   <trkpt lat="31.9444350" lon="34.9711440">
    <ele>198.8</ele>
    <time>2018-08-18T06:25:20Z</time>
   </trkpt>
   <trkpt lat="31.9444030" lon="34.9711090">
    <ele>198.5</ele>
    <time>2018-08-18T06:25:21Z</time>
   </trkpt>
   <trkpt lat="31.9443670" lon="34.9710810">
    <ele>198.2</ele>
    <time>2018-08-18T06:25:22Z</time>
   </trkpt>
   <trkpt lat="31.9443380" lon="34.9710510">
    <ele>198.0</ele>
    <time>2018-08-18T06:25:23Z</time>
   </trkpt>
   <trkpt lat="31.9443040" lon="34.9710210">
    <ele>197.7</ele>
    <time>2018-08-18T06:25:24Z</time>
   </trkpt>
   <trkpt lat="31.9442740" lon="34.9710060">
    <ele>197.5</ele>
    <time>2018-08-18T06:25:25Z</time>
   </trkpt>
   <trkpt lat="31.9442410" lon="34.9709960">
    <ele>197.3</ele>
    <time>2018-08-18T06:25:26Z</time>
   </trkpt>
   <trkpt lat="31.9441990" lon="34.9710140">
    <ele>197.0</ele>
    <time>2018-08-18T06:25:27Z</time>
   </trkpt>
   <trkpt lat="31.9441490" lon="34.9710050">
    <ele>196.6</ele>
    <time>2018-08-18T06:25:28Z</time>
   </trkpt>
   <trkpt lat="31.9440970" lon="34.9709990">
    <ele>196.3</ele>
    <time>2018-08-18T06:25:29Z</time>
   </trkpt>
   <trkpt lat="31.9440540" lon="34.9710030">
    <ele>196.0</ele>
    <time>2018-08-18T06:25:30Z</time>
   </trkpt>
   <trkpt lat="31.9440030" lon="34.9709990">
    <ele>195.6</ele>
    <time>2018-08-18T06:25:31Z</time>
   </trkpt>
   <trkpt lat="31.9439460" lon="34.9709890">
    <ele>195.2</ele>
    <time>2018-08-18T06:25:32Z</time>
   </trkpt>
   <trkpt lat="31.9438810" lon="34.9709690">
    <ele>194.8</ele>
    <time>2018-08-18T06:25:33Z</time>
   </trkpt>
   <trkpt lat="31.9438100" lon="34.9709560">
    <ele>194.3</ele>
    <time>2018-08-18T06:25:34Z</time>
   </trkpt>
   <trkpt lat="31.9437430" lon="34.9709490">
    <ele>193.9</ele>
    <time>2018-08-18T06:25:35Z</time>
   </trkpt>
   <trkpt lat="31.9436730" lon="34.9709360">
    <ele>193.5</ele>
    <time>2018-08-18T06:25:36Z</time>
   </trkpt>
   <trkpt lat="31.9436000" lon="34.9709220">
    <ele>193.1</ele>
    <time>2018-08-18T06:25:37Z</time>
   </trkpt>
   <trkpt lat="31.9435250" lon="34.9709110">
    <ele>192.7</ele>
    <time>2018-08-18T06:25:38Z</time>
   </trkpt>
   <trkpt lat="31.9434560" lon="34.9708940">
    <ele>192.3</ele>
    <time>2018-08-18T06:25:39Z</time>
   </trkpt>
   <trkpt lat="31.9433770" lon="34.9708810">
    <ele>191.9</ele>
    <time>2018-08-18T06:25:40Z</time>
   </trkpt>
   <trkpt lat="31.9432980" lon="34.9708640">
    <ele>191.4</ele>
    <time>2018-08-18T06:25:41Z</time>
   </trkpt>
   <trkpt lat="31.9432210" lon="34.9708530">
    <ele>191.0</ele>
    <time>2018-08-18T06:25:42Z</time>
   </trkpt>
   <trkpt lat="31.9431400" lon="34.9708480">
    <ele>190.6</ele>
    <time>2018-08-18T06:25:43Z</time>
   </trkpt>
   <trkpt lat="31.9430600" lon="34.9708490">
    <ele>190.2</ele>
    <time>2018-08-18T06:25:44Z</time>
   </trkpt>
   <trkpt lat="31.9429960" lon="34.9708400">
    <ele>190.0</ele>
    <time>2018-08-18T06:25:45Z</time>
   </trkpt>
   <trkpt lat="31.9429440" lon="34.9708380">
    <ele>189.7</ele>
    <time>2018-08-18T06:25:46Z</time>
   </trkpt>
   <trkpt lat="31.9428810" lon="34.9708400">
    <ele>189.5</ele>
    <time>2018-08-18T06:25:47Z</time>
   </trkpt>
   <trkpt lat="31.9428130" lon="34.9708120">
    <ele>189.2</ele>
    <time>2018-08-18T06:25:48Z</time>
   </trkpt>
   <trkpt lat="31.9427410" lon="34.9707650">
    <ele>188.8</ele>
    <time>2018-08-18T06:25:49Z</time>
   </trkpt>
   <trkpt lat="31.9426750" lon="34.9707070">
    <ele>188.5</ele>
    <time>2018-08-18T06:25:50Z</time>
   </trkpt>
   <trkpt lat="31.9426110" lon="34.9706490">
    <ele>188.0</ele>
    <time>2018-08-18T06:25:51Z</time>
   </trkpt>
   <trkpt lat="31.9425560" lon="34.9705990">
    <ele>187.7</ele>
    <time>2018-08-18T06:25:52Z</time>
   </trkpt>
   <trkpt lat="31.9425130" lon="34.9705480">
    <ele>187.3</ele>
    <time>2018-08-18T06:25:53Z</time>
   </trkpt>
   <trkpt lat="31.9424850" lon="34.9704920">
    <ele>187.0</ele>
    <time>2018-08-18T06:25:54Z</time>
   </trkpt>
   <trkpt lat="31.9424690" lon="34.9704250">
    <ele>187.0</ele>
    <time>2018-08-18T06:25:55Z</time>
   </trkpt>
   <trkpt lat="31.9424680" lon="34.9703500">
    <ele>187.0</ele>
    <time>2018-08-18T06:25:56Z</time>
   </trkpt>
   <trkpt lat="31.9424720" lon="34.9702850">
    <ele>186.9</ele>
    <time>2018-08-18T06:25:57Z</time>
   </trkpt>
   <trkpt lat="31.9424820" lon="34.9702230">
    <ele>186.8</ele>
    <time>2018-08-18T06:25:58Z</time>
   </trkpt>
   <trkpt lat="31.9424960" lon="34.9701610">
    <ele>186.8</ele>
    <time>2018-08-18T06:25:59Z</time>
   </trkpt>
   <trkpt lat="31.9425150" lon="34.9701020">
    <ele>186.7</ele>
    <time>2018-08-18T06:26:00Z</time>
   </trkpt>
   <trkpt lat="31.9425370" lon="34.9700370">
    <ele>186.6</ele>
    <time>2018-08-18T06:26:01Z</time>
   </trkpt>
   <trkpt lat="31.9425650" lon="34.9699820">
    <ele>186.5</ele>
    <time>2018-08-18T06:26:02Z</time>
   </trkpt>
   <trkpt lat="31.9425860" lon="34.9699200">
    <ele>186.4</ele>
    <time>2018-08-18T06:26:03Z</time>
   </trkpt>
   <trkpt lat="31.9426050" lon="34.9698640">
    <ele>186.3</ele>
    <time>2018-08-18T06:26:04Z</time>
   </trkpt>
   <trkpt lat="31.9426180" lon="34.9698220">
    <ele>186.2</ele>
    <time>2018-08-18T06:26:05Z</time>
   </trkpt>
   <trkpt lat="31.9426210" lon="34.9697720">
    <ele>186.1</ele>
    <time>2018-08-18T06:26:06Z</time>
   </trkpt>
   <trkpt lat="31.9426230" lon="34.9697300">
    <ele>186.1</ele>
    <time>2018-08-18T06:26:07Z</time>
   </trkpt>
   <trkpt lat="31.9426300" lon="34.9696970">
    <ele>186.0</ele>
    <time>2018-08-18T06:26:08Z</time>
   </trkpt>
   <trkpt lat="31.9426310" lon="34.9696590">
    <ele>185.9</ele>
    <time>2018-08-18T06:26:09Z</time>
   </trkpt>
   <trkpt lat="31.9426270" lon="34.9696240">
    <ele>185.6</ele>
    <time>2018-08-18T06:26:10Z</time>
   </trkpt>
   <trkpt lat="31.9426200" lon="34.9695700">
    <ele>185.3</ele>
    <time>2018-08-18T06:26:13Z</time>
   </trkpt>
   <trkpt lat="31.9426220" lon="34.9695280">
    <ele>185.0</ele>
    <time>2018-08-18T06:26:16Z</time>
   </trkpt>
   <trkpt lat="31.9426270" lon="34.9694890">
    <ele>184.8</ele>
    <time>2018-08-18T06:26:18Z</time>
   </trkpt>
   <trkpt lat="31.9426310" lon="34.9694500">
    <ele>184.5</ele>
    <time>2018-08-18T06:26:20Z</time>
   </trkpt>
   <trkpt lat="31.9426260" lon="34.9694090">
    <ele>184.2</ele>
    <time>2018-08-18T06:26:22Z</time>
   </trkpt>
   <trkpt lat="31.9426390" lon="34.9693810">
    <ele>184.0</ele>
    <time>2018-08-18T06:26:23Z</time>
   </trkpt>
   <trkpt lat="31.9426530" lon="34.9693500">
    <ele>183.7</ele>
    <time>2018-08-18T06:26:24Z</time>
   </trkpt>
   <trkpt lat="31.9426730" lon="34.9692900">
    <ele>183.4</ele>
    <time>2018-08-18T06:26:26Z</time>
   </trkpt>
   <trkpt lat="31.9426770" lon="34.9692580">
    <ele>183.2</ele>
    <time>2018-08-18T06:26:27Z</time>
   </trkpt>
   <trkpt lat="31.9426840" lon="34.9691980">
    <ele>182.9</ele>
    <time>2018-08-18T06:26:29Z</time>
   </trkpt>
   <trkpt lat="31.9426880" lon="34.9691630">
    <ele>182.8</ele>
    <time>2018-08-18T06:26:30Z</time>
   </trkpt>
   <trkpt lat="31.9426950" lon="34.9691280">
    <ele>182.6</ele>
    <time>2018-08-18T06:26:31Z</time>
   </trkpt>
   <trkpt lat="31.9427080" lon="34.9690900">
    <ele>182.4</ele>
    <time>2018-08-18T06:26:32Z</time>
   </trkpt>
   <trkpt lat="31.9427200" lon="34.9690480">
    <ele>182.2</ele>
    <time>2018-08-18T06:26:33Z</time>
   </trkpt>
   <trkpt lat="31.9427360" lon="34.9690060">
    <ele>182.0</ele>
    <time>2018-08-18T06:26:34Z</time>
   </trkpt>
   <trkpt lat="31.9427540" lon="34.9689640">
    <ele>181.8</ele>
    <time>2018-08-18T06:26:35Z</time>
   </trkpt>
   <trkpt lat="31.9427690" lon="34.9689090">
    <ele>181.6</ele>
    <time>2018-08-18T06:26:36Z</time>
   </trkpt>
   <trkpt lat="31.9427900" lon="34.9688540">
    <ele>181.4</ele>
    <time>2018-08-18T06:26:37Z</time>
   </trkpt>
   <trkpt lat="31.9428140" lon="34.9688140">
    <ele>181.2</ele>
    <time>2018-08-18T06:26:38Z</time>
   </trkpt>
   <trkpt lat="31.9428380" lon="34.9687690">
    <ele>180.9</ele>
    <time>2018-08-18T06:26:39Z</time>
   </trkpt>
   <trkpt lat="31.9428570" lon="34.9687290">
    <ele>180.8</ele>
    <time>2018-08-18T06:26:40Z</time>
   </trkpt>
   <trkpt lat="31.9428950" lon="34.9686890">
    <ele>180.6</ele>
    <time>2018-08-18T06:26:41Z</time>
   </trkpt>
   <trkpt lat="31.9429390" lon="34.9686560">
    <ele>180.3</ele>
    <time>2018-08-18T06:26:42Z</time>
   </trkpt>
   <trkpt lat="31.9429730" lon="34.9686320">
    <ele>180.2</ele>
    <time>2018-08-18T06:26:43Z</time>
   </trkpt>
   <trkpt lat="31.9430030" lon="34.9686200">
    <ele>180.0</ele>
    <time>2018-08-18T06:26:44Z</time>
   </trkpt>
   <trkpt lat="31.9430400" lon="34.9686100">
    <ele>179.9</ele>
    <time>2018-08-18T06:26:45Z</time>
   </trkpt>
   <trkpt lat="31.9430790" lon="34.9686020">
    <ele>179.8</ele>
    <time>2018-08-18T06:26:46Z</time>
   </trkpt>
   <trkpt lat="31.9431210" lon="34.9685950">
    <ele>179.7</ele>
    <time>2018-08-18T06:26:47Z</time>
   </trkpt>
   <trkpt lat="31.9431580" lon="34.9685910">
    <ele>179.6</ele>
    <time>2018-08-18T06:26:48Z</time>
   </trkpt>
   <trkpt lat="31.9432090" lon="34.9685750">
    <ele>179.4</ele>
    <time>2018-08-18T06:26:49Z</time>
   </trkpt>
   <trkpt lat="31.9432640" lon="34.9685530">
    <ele>179.2</ele>
    <time>2018-08-18T06:26:50Z</time>
   </trkpt>
   <trkpt lat="31.9433330" lon="34.9685280">
    <ele>179.0</ele>
    <time>2018-08-18T06:26:51Z</time>
   </trkpt>
   <trkpt lat="31.9433990" lon="34.9685080">
    <ele>178.8</ele>
    <time>2018-08-18T06:26:52Z</time>
   </trkpt>
   <trkpt lat="31.9434690" lon="34.9684860">
    <ele>178.6</ele>
    <time>2018-08-18T06:26:53Z</time>
   </trkpt>
   <trkpt lat="31.9435440" lon="34.9684660">
    <ele>178.4</ele>
    <time>2018-08-18T06:26:54Z</time>
   </trkpt>
   <trkpt lat="31.9436170" lon="34.9684480">
    <ele>178.0</ele>
    <time>2018-08-18T06:26:55Z</time>
   </trkpt>
   <trkpt lat="31.9436930" lon="34.9684230">
    <ele>177.6</ele>
    <time>2018-08-18T06:26:56Z</time>
   </trkpt>
   <trkpt lat="31.9437690" lon="34.9683780">
    <ele>177.2</ele>
    <time>2018-08-18T06:26:57Z</time>
   </trkpt>
   <trkpt lat="31.9438370" lon="34.9683140">
    <ele>176.8</ele>
    <time>2018-08-18T06:26:58Z</time>
   </trkpt>
   <trkpt lat="31.9438980" lon="34.9682410">
    <ele>176.5</ele>
    <time>2018-08-18T06:26:59Z</time>
   </trkpt>
   <trkpt lat="31.9439510" lon="34.9681690">
    <ele>176.0</ele>
    <time>2018-08-18T06:27:00Z</time>
   </trkpt>
   <trkpt lat="31.9439960" lon="34.9680930">
    <ele>175.6</ele>
    <time>2018-08-18T06:27:01Z</time>
   </trkpt>
   <trkpt lat="31.9440310" lon="34.9680170">
    <ele>175.2</ele>
    <time>2018-08-18T06:27:02Z</time>
   </trkpt>
   <trkpt lat="31.9440610" lon="34.9679360">
    <ele>174.8</ele>
    <time>2018-08-18T06:27:03Z</time>
   </trkpt>
   <trkpt lat="31.9440920" lon="34.9678550">
    <ele>174.5</ele>
    <time>2018-08-18T06:27:04Z</time>
   </trkpt>
   <trkpt lat="31.9441200" lon="34.9677790">
    <ele>174.3</ele>
    <time>2018-08-18T06:27:05Z</time>
   </trkpt>
   <trkpt lat="31.9441500" lon="34.9677020">
    <ele>174.1</ele>
    <time>2018-08-18T06:27:06Z</time>
   </trkpt>
   <trkpt lat="31.9441850" lon="34.9676190">
    <ele>173.9</ele>
    <time>2018-08-18T06:27:07Z</time>
   </trkpt>
   <trkpt lat="31.9442180" lon="34.9675400">
    <ele>173.7</ele>
    <time>2018-08-18T06:27:08Z</time>
   </trkpt>
   <trkpt lat="31.9442500" lon="34.9674480">
    <ele>173.3</ele>
    <time>2018-08-18T06:27:09Z</time>
   </trkpt>
   <trkpt lat="31.9442890" lon="34.9673530">
    <ele>172.9</ele>
    <time>2018-08-18T06:27:10Z</time>
   </trkpt>
   <trkpt lat="31.9443270" lon="34.9672540">
    <ele>172.5</ele>
    <time>2018-08-18T06:27:11Z</time>
   </trkpt>
   <trkpt lat="31.9443680" lon="34.9671670">
    <ele>172.1</ele>
    <time>2018-08-18T06:27:12Z</time>
   </trkpt>
   <trkpt lat="31.9444050" lon="34.9670850">
    <ele>171.8</ele>
    <time>2018-08-18T06:27:13Z</time>
   </trkpt>
   <trkpt lat="31.9444380" lon="34.9670020">
    <ele>171.6</ele>
    <time>2018-08-18T06:27:14Z</time>
   </trkpt>
   <trkpt lat="31.9444690" lon="34.9669210">
    <ele>171.2</ele>
    <time>2018-08-18T06:27:15Z</time>
   </trkpt>
   <trkpt lat="31.9445040" lon="34.9668410">
    <ele>170.8</ele>
    <time>2018-08-18T06:27:16Z</time>
   </trkpt>
   <trkpt lat="31.9445440" lon="34.9667550">
    <ele>170.4</ele>
    <time>2018-08-18T06:27:17Z</time>
   </trkpt>
   <trkpt lat="31.9445790" lon="34.9666680">
    <ele>170.1</ele>
    <time>2018-08-18T06:27:18Z</time>
   </trkpt>
   <trkpt lat="31.9446060" lon="34.9665740">
    <ele>169.8</ele>
    <time>2018-08-18T06:27:19Z</time>
   </trkpt>
   <trkpt lat="31.9446400" lon="34.9664800">
    <ele>169.4</ele>
    <time>2018-08-18T06:27:20Z</time>
   </trkpt>
   <trkpt lat="31.9446780" lon="34.9663920">
    <ele>169.0</ele>
    <time>2018-08-18T06:27:21Z</time>
   </trkpt>
   <trkpt lat="31.9447130" lon="34.9663010">
    <ele>168.6</ele>
    <time>2018-08-18T06:27:22Z</time>
   </trkpt>
   <trkpt lat="31.9447480" lon="34.9662150">
    <ele>168.3</ele>
    <time>2018-08-18T06:27:23Z</time>
   </trkpt>
   <trkpt lat="31.9447830" lon="34.9661220">
    <ele>167.9</ele>
    <time>2018-08-18T06:27:24Z</time>
   </trkpt>
   <trkpt lat="31.9448180" lon="34.9660340">
    <ele>167.6</ele>
    <time>2018-08-18T06:27:25Z</time>
   </trkpt>
   <trkpt lat="31.9448530" lon="34.9659480">
    <ele>167.3</ele>
    <time>2018-08-18T06:27:26Z</time>
   </trkpt>
   <trkpt lat="31.9448880" lon="34.9658620">
    <ele>166.9</ele>
    <time>2018-08-18T06:27:27Z</time>
   </trkpt>
   <trkpt lat="31.9449260" lon="34.9657780">
    <ele>166.4</ele>
    <time>2018-08-18T06:27:28Z</time>
   </trkpt>
   <trkpt lat="31.9449630" lon="34.9656920">
    <ele>166.0</ele>
    <time>2018-08-18T06:27:29Z</time>
   </trkpt>
   <trkpt lat="31.9449970" lon="34.9656040">
    <ele>165.7</ele>
    <time>2018-08-18T06:27:30Z</time>
   </trkpt>
   <trkpt lat="31.9450240" lon="34.9655140">
    <ele>165.4</ele>
    <time>2018-08-18T06:27:31Z</time>
   </trkpt>
   <trkpt lat="31.9450530" lon="34.9654280">
    <ele>165.2</ele>
    <time>2018-08-18T06:27:32Z</time>
   </trkpt>
   <trkpt lat="31.9450900" lon="34.9653540">
    <ele>164.9</ele>
    <time>2018-08-18T06:27:33Z</time>
   </trkpt>
   <trkpt lat="31.9451230" lon="34.9652920">
    <ele>164.6</ele>
    <time>2018-08-18T06:27:34Z</time>
   </trkpt>
   <trkpt lat="31.9451610" lon="34.9652510">
    <ele>164.3</ele>
    <time>2018-08-18T06:27:35Z</time>
   </trkpt>
   <trkpt lat="31.9451990" lon="34.9652250">
    <ele>164.1</ele>
    <time>2018-08-18T06:27:36Z</time>
   </trkpt>
   <trkpt lat="31.9452300" lon="34.9652220">
    <ele>164.3</ele>
    <time>2018-08-18T06:27:37Z</time>
   </trkpt>
   <trkpt lat="31.9452620" lon="34.9652360">
    <ele>164.5</ele>
    <time>2018-08-18T06:27:38Z</time>
   </trkpt>
   <trkpt lat="31.9452860" lon="34.9652550">
    <ele>164.7</ele>
    <time>2018-08-18T06:27:39Z</time>
   </trkpt>
   <trkpt lat="31.9453180" lon="34.9652770">
    <ele>165.0</ele>
    <time>2018-08-18T06:27:41Z</time>
   </trkpt>
   <trkpt lat="31.9453340" lon="34.9653080">
    <ele>165.2</ele>
    <time>2018-08-18T06:27:43Z</time>
   </trkpt>
   <trkpt lat="31.9453680" lon="34.9653290">
    <ele>165.4</ele>
    <time>2018-08-18T06:27:45Z</time>
   </trkpt>
   <trkpt lat="31.9454060" lon="34.9653460">
    <ele>165.9</ele>
    <time>2018-08-18T06:27:47Z</time>
   </trkpt>
   <trkpt lat="31.9454450" lon="34.9653670">
    <ele>166.5</ele>
    <time>2018-08-18T06:27:49Z</time>
   </trkpt>
   <trkpt lat="31.9454800" lon="34.9653920">
    <ele>166.9</ele>
    <time>2018-08-18T06:27:51Z</time>
   </trkpt>
   <trkpt lat="31.9455290" lon="34.9654090">
    <ele>167.2</ele>
    <time>2018-08-18T06:27:53Z</time>
   </trkpt>
   <trkpt lat="31.9455710" lon="34.9654190">
    <ele>167.5</ele>
    <time>2018-08-18T06:27:55Z</time>
   </trkpt>
   <trkpt lat="31.9456050" lon="34.9654390">
    <ele>167.7</ele>
    <time>2018-08-18T06:27:57Z</time>
   </trkpt>
   <trkpt lat="31.9456350" lon="34.9654580">
    <ele>168.0</ele>
    <time>2018-08-18T06:27:59Z</time>
   </trkpt>
   <trkpt lat="31.9456710" lon="34.9654740">
    <ele>168.3</ele>
    <time>2018-08-18T06:28:01Z</time>
   </trkpt>
   <trkpt lat="31.9457160" lon="34.9654880">
    <ele>168.6</ele>
    <time>2018-08-18T06:28:03Z</time>
   </trkpt>
   <trkpt lat="31.9457590" lon="34.9654960">
    <ele>168.9</ele>
    <time>2018-08-18T06:28:05Z</time>
   </trkpt>
   <trkpt lat="31.9457950" lon="34.9654920">
    <ele>169.2</ele>
    <time>2018-08-18T06:28:07Z</time>
   </trkpt>
   <trkpt lat="31.9458260" lon="34.9654700">
    <ele>169.4</ele>
    <time>2018-08-18T06:28:09Z</time>
   </trkpt>
   <trkpt lat="31.9458570" lon="34.9654240">
    <ele>169.7</ele>
    <time>2018-08-18T06:28:11Z</time>
   </trkpt>
   <trkpt lat="31.9458860" lon="34.9653780">
    <ele>170.0</ele>
    <time>2018-08-18T06:28:13Z</time>
   </trkpt>
   <trkpt lat="31.9459030" lon="34.9653530">
    <ele>170.2</ele>
    <time>2018-08-18T06:28:14Z</time>
   </trkpt>
   <trkpt lat="31.9459340" lon="34.9653180">
    <ele>170.7</ele>
    <time>2018-08-18T06:28:16Z</time>
   </trkpt>
   <trkpt lat="31.9459650" lon="34.9652760">
    <ele>173.1</ele>
    <time>2018-08-18T06:28:18Z</time>
   </trkpt>
   <trkpt lat="31.9460060" lon="34.9652430">
    <ele>173.1</ele>
    <time>2018-08-18T06:28:20Z</time>
   </trkpt>
   <trkpt lat="31.9460380" lon="34.9652070">
    <ele>173.0</ele>
    <time>2018-08-18T06:28:22Z</time>
   </trkpt>
   <trkpt lat="31.9460570" lon="34.9651730">
    <ele>173.0</ele>
    <time>2018-08-18T06:28:24Z</time>
   </trkpt>
   <trkpt lat="31.9460650" lon="34.9651280">
    <ele>173.0</ele>
    <time>2018-08-18T06:28:26Z</time>
   </trkpt>
   <trkpt lat="31.9460610" lon="34.9650760">
    <ele>173.0</ele>
    <time>2018-08-18T06:28:28Z</time>
   </trkpt>
   <trkpt lat="31.9460610" lon="34.9650300">
    <ele>172.9</ele>
    <time>2018-08-18T06:28:30Z</time>
   </trkpt>
   <trkpt lat="31.9460610" lon="34.9649810">
    <ele>172.9</ele>
    <time>2018-08-18T06:28:32Z</time>
   </trkpt>
   <trkpt lat="31.9460550" lon="34.9649340">
    <ele>172.9</ele>
    <time>2018-08-18T06:28:34Z</time>
   </trkpt>
   <trkpt lat="31.9460590" lon="34.9648810">
    <ele>172.9</ele>
    <time>2018-08-18T06:28:36Z</time>
   </trkpt>
   <trkpt lat="31.9460630" lon="34.9648390">
    <ele>172.9</ele>
    <time>2018-08-18T06:28:38Z</time>
   </trkpt>
   <trkpt lat="31.9460670" lon="34.9647860">
    <ele>173.0</ele>
    <time>2018-08-18T06:28:40Z</time>
   </trkpt>
   <trkpt lat="31.9460680" lon="34.9647290">
    <ele>173.1</ele>
    <time>2018-08-18T06:28:42Z</time>
   </trkpt>
   <trkpt lat="31.9460720" lon="34.9646680">
    <ele>173.2</ele>
    <time>2018-08-18T06:28:44Z</time>
   </trkpt>
   <trkpt lat="31.9460780" lon="34.9646190">
    <ele>173.2</ele>
    <time>2018-08-18T06:28:46Z</time>
   </trkpt>
   <trkpt lat="31.9460800" lon="34.9645740">
    <ele>173.2</ele>
    <time>2018-08-18T06:28:48Z</time>
   </trkpt>
   <trkpt lat="31.9460850" lon="34.9645240">
    <ele>173.2</ele>
    <time>2018-08-18T06:28:50Z</time>
   </trkpt>
   <trkpt lat="31.9460930" lon="34.9644790">
    <ele>173.3</ele>
    <time>2018-08-18T06:28:52Z</time>
   </trkpt>
   <trkpt lat="31.9460970" lon="34.9644380">
    <ele>173.3</ele>
    <time>2018-08-18T06:28:53Z</time>
   </trkpt>
   <trkpt lat="31.9461030" lon="34.9644020">
    <ele>173.3</ele>
    <time>2018-08-18T06:28:54Z</time>
   </trkpt>
   <trkpt lat="31.9461090" lon="34.9643640">
    <ele>173.3</ele>
    <time>2018-08-18T06:28:55Z</time>
   </trkpt>
   <trkpt lat="31.9461150" lon="34.9643270">
    <ele>173.4</ele>
    <time>2018-08-18T06:28:56Z</time>
   </trkpt>
   <trkpt lat="31.9461170" lon="34.9642930">
    <ele>173.4</ele>
    <time>2018-08-18T06:28:57Z</time>
   </trkpt>
   <trkpt lat="31.9461240" lon="34.9642400">
    <ele>173.5</ele>
    <time>2018-08-18T06:28:59Z</time>
   </trkpt>
   <trkpt lat="31.9461260" lon="34.9642060">
    <ele>173.6</ele>
    <time>2018-08-18T06:29:00Z</time>
   </trkpt>
   <trkpt lat="31.9461270" lon="34.9641730">
    <ele>173.6</ele>
    <time>2018-08-18T06:29:01Z</time>
   </trkpt>
   <trkpt lat="31.9461360" lon="34.9641200">
    <ele>173.6</ele>
    <time>2018-08-18T06:29:03Z</time>
   </trkpt>
   <trkpt lat="31.9461440" lon="34.9640850">
    <ele>173.6</ele>
    <time>2018-08-18T06:29:05Z</time>
   </trkpt>
   <trkpt lat="31.9461510" lon="34.9640350">
    <ele>173.6</ele>
    <time>2018-08-18T06:29:07Z</time>
   </trkpt>
   <trkpt lat="31.9461470" lon="34.9639760">
    <ele>173.7</ele>
    <time>2018-08-18T06:29:09Z</time>
   </trkpt>
   <trkpt lat="31.9461440" lon="34.9639210">
    <ele>173.8</ele>
    <time>2018-08-18T06:29:11Z</time>
   </trkpt>
   <trkpt lat="31.9461390" lon="34.9638660">
    <ele>173.9</ele>
    <time>2018-08-18T06:29:13Z</time>
   </trkpt>
   <trkpt lat="31.9461420" lon="34.9638030">
    <ele>173.9</ele>
    <time>2018-08-18T06:29:15Z</time>
   </trkpt>
   <trkpt lat="31.9461440" lon="34.9637440">
    <ele>174.0</ele>
    <time>2018-08-18T06:29:17Z</time>
   </trkpt>
   <trkpt lat="31.9461450" lon="34.9636850">
    <ele>174.0</ele>
    <time>2018-08-18T06:29:19Z</time>
   </trkpt>
   <trkpt lat="31.9461550" lon="34.9636330">
    <ele>174.0</ele>
    <time>2018-08-18T06:29:21Z</time>
   </trkpt>
   <trkpt lat="31.9461660" lon="34.9635940">
    <ele>174.0</ele>
    <time>2018-08-18T06:29:23Z</time>
   </trkpt>
   <trkpt lat="31.9461750" lon="34.9635440">
    <ele>174.0</ele>
    <time>2018-08-18T06:29:25Z</time>
   </trkpt>
   <trkpt lat="31.9461780" lon="34.9635120">
    <ele>174.0</ele>
    <time>2018-08-18T06:29:26Z</time>
   </trkpt>
   <trkpt lat="31.9461850" lon="34.9634600">
    <ele>174.0</ele>
    <time>2018-08-18T06:29:28Z</time>
   </trkpt>
   <trkpt lat="31.9461910" lon="34.9633960">
    <ele>174.0</ele>
    <time>2018-08-18T06:29:30Z</time>
   </trkpt>
   <trkpt lat="31.9461900" lon="34.9633440">
    <ele>174.1</ele>
    <time>2018-08-18T06:29:32Z</time>
   </trkpt>
   <trkpt lat="31.9461910" lon="34.9632790">
    <ele>174.2</ele>
    <time>2018-08-18T06:29:34Z</time>
   </trkpt>
   <trkpt lat="31.9461910" lon="34.9632230">
    <ele>174.2</ele>
    <time>2018-08-18T06:29:36Z</time>
   </trkpt>
   <trkpt lat="31.9461880" lon="34.9631670">
    <ele>174.2</ele>
    <time>2018-08-18T06:29:38Z</time>
   </trkpt>
   <trkpt lat="31.9461830" lon="34.9631180">
    <ele>174.2</ele>
    <time>2018-08-18T06:29:40Z</time>
   </trkpt>
   <trkpt lat="31.9461800" lon="34.9630650">
    <ele>174.2</ele>
    <time>2018-08-18T06:29:42Z</time>
   </trkpt>
   <trkpt lat="31.9461790" lon="34.9630190">
    <ele>174.2</ele>
    <time>2018-08-18T06:29:44Z</time>
   </trkpt>
   <trkpt lat="31.9461810" lon="34.9629660">
    <ele>174.2</ele>
    <time>2018-08-18T06:29:46Z</time>
   </trkpt>
   <trkpt lat="31.9461870" lon="34.9629170">
    <ele>174.2</ele>
    <time>2018-08-18T06:29:48Z</time>
   </trkpt>
   <trkpt lat="31.9461870" lon="34.9628820">
    <ele>174.3</ele>
    <time>2018-08-18T06:29:49Z</time>
   </trkpt>
   <trkpt lat="31.9461800" lon="34.9628310">
    <ele>174.3</ele>
    <time>2018-08-18T06:29:51Z</time>
   </trkpt>
   <trkpt lat="31.9461730" lon="34.9627960">
    <ele>174.2</ele>
    <time>2018-08-18T06:29:54Z</time>
   </trkpt>
   <trkpt lat="31.9461690" lon="34.9627560">
    <ele>174.2</ele>
    <time>2018-08-18T06:29:58Z</time>
   </trkpt>
   <trkpt lat="31.9461670" lon="34.9627170">
    <ele>174.2</ele>
    <time>2018-08-18T06:30:00Z</time>
   </trkpt>
   <trkpt lat="31.9461720" lon="34.9626690">
    <ele>174.2</ele>
    <time>2018-08-18T06:30:02Z</time>
   </trkpt>
   <trkpt lat="31.9461770" lon="34.9626340">
    <ele>174.2</ele>
    <time>2018-08-18T06:30:04Z</time>
   </trkpt>
   <trkpt lat="31.9461840" lon="34.9625890">
    <ele>174.1</ele>
    <time>2018-08-18T06:30:06Z</time>
   </trkpt>
   <trkpt lat="31.9461820" lon="34.9625550">
    <ele>174.1</ele>
    <time>2018-08-18T06:30:12Z</time>
   </trkpt>
   <trkpt lat="31.9461690" lon="34.9625270">
    <ele>174.1</ele>
    <time>2018-08-18T06:31:02Z</time>
   </trkpt>
   <trkpt lat="31.9461830" lon="34.9624990">
    <ele>174.1</ele>
    <time>2018-08-18T06:31:03Z</time>
   </trkpt>
   <trkpt lat="31.9462010" lon="34.9624320">
    <ele>174.0</ele>
    <time>2018-08-18T06:31:05Z</time>
   </trkpt>
   <trkpt lat="31.9462160" lon="34.9624030">
    <ele>174.0</ele>
    <time>2018-08-18T06:31:06Z</time>
   </trkpt>
   <trkpt lat="31.9462480" lon="34.9623700">
    <ele>174.1</ele>
    <time>2018-08-18T06:31:08Z</time>
   </trkpt>
   <trkpt lat="31.9462730" lon="34.9623570">
    <ele>174.1</ele>
    <time>2018-08-18T06:31:10Z</time>
   </trkpt>
   <trkpt lat="31.9463130" lon="34.9623410">
    <ele>174.1</ele>
    <time>2018-08-18T06:31:12Z</time>
   </trkpt>
   <trkpt lat="31.9463610" lon="34.9623330">
    <ele>174.2</ele>
    <time>2018-08-18T06:31:14Z</time>
   </trkpt>
   <trkpt lat="31.9464100" lon="34.9623210">
    <ele>174.2</ele>
    <time>2018-08-18T06:31:16Z</time>
   </trkpt>
   <trkpt lat="31.9464470" lon="34.9623120">
    <ele>174.3</ele>
    <time>2018-08-18T06:31:18Z</time>
   </trkpt>
   <trkpt lat="31.9465010" lon="34.9623010">
    <ele>174.3</ele>
    <time>2018-08-18T06:31:20Z</time>
   </trkpt>
   <trkpt lat="31.9465290" lon="34.9622940">
    <ele>174.4</ele>
    <time>2018-08-18T06:31:21Z</time>
   </trkpt>
   <trkpt lat="31.9465580" lon="34.9622920">
    <ele>174.4</ele>
    <time>2018-08-18T06:31:22Z</time>
   </trkpt>
   <trkpt lat="31.9465890" lon="34.9622820">
    <ele>174.4</ele>
    <time>2018-08-18T06:31:23Z</time>
   </trkpt>
   <trkpt lat="31.9466170" lon="34.9622670">
    <ele>174.5</ele>
    <time>2018-08-18T06:31:24Z</time>
   </trkpt>
   <trkpt lat="31.9466490" lon="34.9622580">
    <ele>174.5</ele>
    <time>2018-08-18T06:31:25Z</time>
   </trkpt>
   <trkpt lat="31.9466840" lon="34.9622570">
    <ele>174.6</ele>
    <time>2018-08-18T06:31:26Z</time>
   </trkpt>
   <trkpt lat="31.9467130" lon="34.9622610">
    <ele>174.6</ele>
    <time>2018-08-18T06:31:27Z</time>
   </trkpt>
   <trkpt lat="31.9467620" lon="34.9622560">
    <ele>174.7</ele>
    <time>2018-08-18T06:31:29Z</time>
   </trkpt>
   <trkpt lat="31.9468160" lon="34.9622490">
    <ele>174.7</ele>
    <time>2018-08-18T06:31:31Z</time>
   </trkpt>
   <trkpt lat="31.9468440" lon="34.9622500">
    <ele>174.8</ele>
    <time>2018-08-18T06:31:32Z</time>
   </trkpt>
   <trkpt lat="31.9468720" lon="34.9622440">
    <ele>174.8</ele>
    <time>2018-08-18T06:31:33Z</time>
   </trkpt>
   <trkpt lat="31.9469010" lon="34.9622400">
    <ele>174.9</ele>
    <time>2018-08-18T06:31:34Z</time>
   </trkpt>
   <trkpt lat="31.9469280" lon="34.9622320">
    <ele>174.9</ele>
    <time>2018-08-18T06:31:35Z</time>
   </trkpt>
   <trkpt lat="31.9469720" lon="34.9622050">
    <ele>175.0</ele>
    <time>2018-08-18T06:31:37Z</time>
   </trkpt>
   <trkpt lat="31.9469920" lon="34.9621470">
    <ele>174.6</ele>
    <time>2018-08-18T06:31:39Z</time>
   </trkpt>
   <trkpt lat="31.9469920" lon="34.9621140">
    <ele>174.5</ele>
    <time>2018-08-18T06:31:40Z</time>
   </trkpt>
   <trkpt lat="31.9469890" lon="34.9620820">
    <ele>174.3</ele>
    <time>2018-08-18T06:31:41Z</time>
   </trkpt>
   <trkpt lat="31.9469770" lon="34.9620210">
    <ele>174.1</ele>
    <time>2018-08-18T06:31:43Z</time>
   </trkpt>
   <trkpt lat="31.9469710" lon="34.9619900">
    <ele>173.9</ele>
    <time>2018-08-18T06:31:44Z</time>
   </trkpt>
   <trkpt lat="31.9469650" lon="34.9619220">
    <ele>173.4</ele>
    <time>2018-08-18T06:31:46Z</time>
   </trkpt>
   <trkpt lat="31.9469690" lon="34.9618840">
    <ele>173.2</ele>
    <time>2018-08-18T06:31:47Z</time>
   </trkpt>
   <trkpt lat="31.9469720" lon="34.9618410">
    <ele>173.0</ele>
    <time>2018-08-18T06:31:48Z</time>
   </trkpt>
   <trkpt lat="31.9469730" lon="34.9617960">
    <ele>172.8</ele>
    <time>2018-08-18T06:31:49Z</time>
   </trkpt>
   <trkpt lat="31.9469800" lon="34.9617440">
    <ele>172.6</ele>
    <time>2018-08-18T06:31:50Z</time>
   </trkpt>
   <trkpt lat="31.9469890" lon="34.9616920">
    <ele>172.3</ele>
    <time>2018-08-18T06:31:51Z</time>
   </trkpt>
   <trkpt lat="31.9470020" lon="34.9616520">
    <ele>172.1</ele>
    <time>2018-08-18T06:31:52Z</time>
   </trkpt>
   <trkpt lat="31.9470150" lon="34.9616200">
    <ele>172.0</ele>
    <time>2018-08-18T06:31:53Z</time>
   </trkpt>
   <trkpt lat="31.9470290" lon="34.9615880">
    <ele>171.8</ele>
    <time>2018-08-18T06:31:54Z</time>
   </trkpt>
   <trkpt lat="31.9470420" lon="34.9615560">
    <ele>171.7</ele>
    <time>2018-08-18T06:31:55Z</time>
   </trkpt>
   <trkpt lat="31.9470560" lon="34.9615270">
    <ele>171.5</ele>
    <time>2018-08-18T06:31:56Z</time>
   </trkpt>
   <trkpt lat="31.9470690" lon="34.9614980">
    <ele>171.3</ele>
    <time>2018-08-18T06:31:57Z</time>
   </trkpt>
   <trkpt lat="31.9470910" lon="34.9614540">
    <ele>171.1</ele>
    <time>2018-08-18T06:31:59Z</time>
   </trkpt>
   <trkpt lat="31.9471160" lon="34.9614070">
    <ele>170.8</ele>
    <time>2018-08-18T06:32:01Z</time>
   </trkpt>
   <trkpt lat="31.9471280" lon="34.9613780">
    <ele>170.6</ele>
    <time>2018-08-18T06:32:02Z</time>
   </trkpt>
   <trkpt lat="31.9471370" lon="34.9613470">
    <ele>170.4</ele>
    <time>2018-08-18T06:32:03Z</time>
   </trkpt>
   <trkpt lat="31.9471380" lon="34.9613080">
    <ele>170.0</ele>
    <time>2018-08-18T06:32:04Z</time>
   </trkpt>
   <trkpt lat="31.9471340" lon="34.9612640">
    <ele>169.6</ele>
    <time>2018-08-18T06:32:05Z</time>
   </trkpt>
   <trkpt lat="31.9471350" lon="34.9612200">
    <ele>169.3</ele>
    <time>2018-08-18T06:32:06Z</time>
   </trkpt>
   <trkpt lat="31.9471350" lon="34.9611700">
    <ele>169.0</ele>
    <time>2018-08-18T06:32:07Z</time>
   </trkpt>
   <trkpt lat="31.9471380" lon="34.9611200">
    <ele>168.7</ele>
    <time>2018-08-18T06:32:08Z</time>
   </trkpt>
   <trkpt lat="31.9471460" lon="34.9610850">
    <ele>168.4</ele>
    <time>2018-08-18T06:32:09Z</time>
   </trkpt>
   <trkpt lat="31.9471570" lon="34.9610460">
    <ele>168.1</ele>
    <time>2018-08-18T06:32:10Z</time>
   </trkpt>
   <trkpt lat="31.9471730" lon="34.9610060">
    <ele>167.9</ele>
    <time>2018-08-18T06:32:11Z</time>
   </trkpt>
   <trkpt lat="31.9471920" lon="34.9609690">
    <ele>167.7</ele>
    <time>2018-08-18T06:32:12Z</time>
   </trkpt>
   <trkpt lat="31.9472100" lon="34.9609390">
    <ele>167.5</ele>
    <time>2018-08-18T06:32:13Z</time>
   </trkpt>
   <trkpt lat="31.9472340" lon="34.9608990">
    <ele>167.2</ele>
    <time>2018-08-18T06:32:14Z</time>
   </trkpt>
   <trkpt lat="31.9472560" lon="34.9608670">
    <ele>167.0</ele>
    <time>2018-08-18T06:32:15Z</time>
   </trkpt>
   <trkpt lat="31.9472820" lon="34.9608370">
    <ele>166.8</ele>
    <time>2018-08-18T06:32:16Z</time>
   </trkpt>
   <trkpt lat="31.9473060" lon="34.9608120">
    <ele>166.6</ele>
    <time>2018-08-18T06:32:17Z</time>
   </trkpt>
   <trkpt lat="31.9473270" lon="34.9607910">
    <ele>166.4</ele>
    <time>2018-08-18T06:32:18Z</time>
   </trkpt>
   <trkpt lat="31.9473650" lon="34.9607460">
    <ele>165.8</ele>
    <time>2018-08-18T06:32:20Z</time>
   </trkpt>
   <trkpt lat="31.9473840" lon="34.9607220">
    <ele>165.5</ele>
    <time>2018-08-18T06:32:21Z</time>
   </trkpt>
   <trkpt lat="31.9474180" lon="34.9606790">
    <ele>165.0</ele>
    <time>2018-08-18T06:32:23Z</time>
   </trkpt>
   <trkpt lat="31.9474380" lon="34.9606550">
    <ele>164.7</ele>
    <time>2018-08-18T06:32:24Z</time>
   </trkpt>
   <trkpt lat="31.9474550" lon="34.9606290">
    <ele>164.4</ele>
    <time>2018-08-18T06:32:25Z</time>
   </trkpt>
   <trkpt lat="31.9474780" lon="34.9605860">
    <ele>163.9</ele>
    <time>2018-08-18T06:32:27Z</time>
   </trkpt>
   <trkpt lat="31.9474820" lon="34.9605540">
    <ele>163.6</ele>
    <time>2018-08-18T06:32:28Z</time>
   </trkpt>
   <trkpt lat="31.9474890" lon="34.9604830">
    <ele>163.0</ele>
    <time>2018-08-18T06:32:30Z</time>
   </trkpt>
   <trkpt lat="31.9474950" lon="34.9604420">
    <ele>162.6</ele>
    <time>2018-08-18T06:32:31Z</time>
   </trkpt>
   <trkpt lat="31.9475050" lon="34.9604040">
    <ele>162.2</ele>
    <time>2018-08-18T06:32:32Z</time>
   </trkpt>
   <trkpt lat="31.9475140" lon="34.9603650">
    <ele>161.8</ele>
    <time>2018-08-18T06:32:33Z</time>
   </trkpt>
   <trkpt lat="31.9475290" lon="34.9603260">
    <ele>161.4</ele>
    <time>2018-08-18T06:32:34Z</time>
   </trkpt>
   <trkpt lat="31.9475430" lon="34.9602910">
    <ele>161.1</ele>
    <time>2018-08-18T06:32:35Z</time>
   </trkpt>
   <trkpt lat="31.9475610" lon="34.9602540">
    <ele>160.8</ele>
    <time>2018-08-18T06:32:36Z</time>
   </trkpt>
   <trkpt lat="31.9475810" lon="34.9602100">
    <ele>160.4</ele>
    <time>2018-08-18T06:32:37Z</time>
   </trkpt>
   <trkpt lat="31.9475950" lon="34.9601790">
    <ele>160.2</ele>
    <time>2018-08-18T06:32:38Z</time>
   </trkpt>
   <trkpt lat="31.9476100" lon="34.9601460">
    <ele>159.9</ele>
    <time>2018-08-18T06:32:39Z</time>
   </trkpt>
   <trkpt lat="31.9476170" lon="34.9601160">
    <ele>159.7</ele>
    <time>2018-08-18T06:32:40Z</time>
   </trkpt>
   <trkpt lat="31.9476320" lon="34.9600850">
    <ele>159.4</ele>
    <time>2018-08-18T06:32:41Z</time>
   </trkpt>
   <trkpt lat="31.9476670" lon="34.9600580">
    <ele>159.1</ele>
    <time>2018-08-18T06:32:43Z</time>
   </trkpt>
   <trkpt lat="31.9477180" lon="34.9600520">
    <ele>158.9</ele>
    <time>2018-08-18T06:32:45Z</time>
   </trkpt>
   <trkpt lat="31.9477530" lon="34.9600620">
    <ele>158.8</ele>
    <time>2018-08-18T06:32:46Z</time>
   </trkpt>
   <trkpt lat="31.9477880" lon="34.9600750">
    <ele>158.7</ele>
    <time>2018-08-18T06:32:47Z</time>
   </trkpt>
   <trkpt lat="31.9478130" lon="34.9601010">
    <ele>158.6</ele>
    <time>2018-08-18T06:32:48Z</time>
   </trkpt>
   <trkpt lat="31.9478370" lon="34.9601310">
    <ele>158.5</ele>
    <time>2018-08-18T06:32:49Z</time>
   </trkpt>
   <trkpt lat="31.9478630" lon="34.9601550">
    <ele>158.5</ele>
    <time>2018-08-18T06:32:50Z</time>
   </trkpt>
   <trkpt lat="31.9478860" lon="34.9601820">
    <ele>158.4</ele>
    <time>2018-08-18T06:32:51Z</time>
   </trkpt>
   <trkpt lat="31.9479090" lon="34.9602040">
    <ele>158.4</ele>
    <time>2018-08-18T06:32:52Z</time>
   </trkpt>
   <trkpt lat="31.9479330" lon="34.9602210">
    <ele>158.3</ele>
    <time>2018-08-18T06:32:53Z</time>
   </trkpt>
   <trkpt lat="31.9479740" lon="34.9602570">
    <ele>158.3</ele>
    <time>2018-08-18T06:32:55Z</time>
   </trkpt>
   <trkpt lat="31.9480190" lon="34.9602850">
    <ele>158.3</ele>
    <time>2018-08-18T06:32:57Z</time>
   </trkpt>
   <trkpt lat="31.9480620" lon="34.9603160">
    <ele>158.3</ele>
    <time>2018-08-18T06:32:59Z</time>
   </trkpt>
   <trkpt lat="31.9481060" lon="34.9603490">
    <ele>158.2</ele>
    <time>2018-08-18T06:33:01Z</time>
   </trkpt>
   <trkpt lat="31.9481480" lon="34.9603870">
    <ele>158.3</ele>
    <time>2018-08-18T06:33:03Z</time>
   </trkpt>
   <trkpt lat="31.9481770" lon="34.9604140">
    <ele>158.3</ele>
    <time>2018-08-18T06:33:05Z</time>
   </trkpt>
   <trkpt lat="31.9482090" lon="34.9604440">
    <ele>158.4</ele>
    <time>2018-08-18T06:33:07Z</time>
   </trkpt>
   <trkpt lat="31.9482300" lon="34.9604660">
    <ele>158.5</ele>
    <time>2018-08-18T06:33:08Z</time>
   </trkpt>
   <trkpt lat="31.9482690" lon="34.9604990">
    <ele>158.6</ele>
    <time>2018-08-18T06:33:10Z</time>
   </trkpt>
   <trkpt lat="31.9483030" lon="34.9605350">
    <ele>158.6</ele>
    <time>2018-08-18T06:33:12Z</time>
   </trkpt>
   <trkpt lat="31.9483450" lon="34.9605620">
    <ele>158.6</ele>
    <time>2018-08-18T06:33:14Z</time>
   </trkpt>
   <trkpt lat="31.9483910" lon="34.9605870">
    <ele>158.6</ele>
    <time>2018-08-18T06:33:16Z</time>
   </trkpt>
   <trkpt lat="31.9484190" lon="34.9605950">
    <ele>158.6</ele>
    <time>2018-08-18T06:33:17Z</time>
   </trkpt>
   <trkpt lat="31.9484480" lon="34.9606040">
    <ele>158.5</ele>
    <time>2018-08-18T06:33:18Z</time>
   </trkpt>
   <trkpt lat="31.9485000" lon="34.9606220">
    <ele>158.5</ele>
    <time>2018-08-18T06:33:20Z</time>
   </trkpt>
   <trkpt lat="31.9485250" lon="34.9606320">
    <ele>158.5</ele>
    <time>2018-08-18T06:33:21Z</time>
   </trkpt>
   <trkpt lat="31.9485740" lon="34.9606520">
    <ele>158.5</ele>
    <time>2018-08-18T06:33:23Z</time>
   </trkpt>
   <trkpt lat="31.9486220" lon="34.9606800">
    <ele>158.4</ele>
    <time>2018-08-18T06:33:25Z</time>
   </trkpt>
   <trkpt lat="31.9486470" lon="34.9606940">
    <ele>158.4</ele>
    <time>2018-08-18T06:33:26Z</time>
   </trkpt>
   <trkpt lat="31.9486980" lon="34.9607150">
    <ele>158.4</ele>
    <time>2018-08-18T06:33:28Z</time>
   </trkpt>
   <trkpt lat="31.9487240" lon="34.9607260">
    <ele>158.3</ele>
    <time>2018-08-18T06:33:29Z</time>
   </trkpt>
   <trkpt lat="31.9487710" lon="34.9607480">
    <ele>158.3</ele>
    <time>2018-08-18T06:33:31Z</time>
   </trkpt>
   <trkpt lat="31.9487990" lon="34.9607570">
    <ele>158.3</ele>
    <time>2018-08-18T06:33:32Z</time>
   </trkpt>
   <trkpt lat="31.9488280" lon="34.9607660">
    <ele>158.2</ele>
    <time>2018-08-18T06:33:33Z</time>
   </trkpt>
   <trkpt lat="31.9488800" lon="34.9607820">
    <ele>158.2</ele>
    <time>2018-08-18T06:33:35Z</time>
   </trkpt>
   <trkpt lat="31.9489090" lon="34.9607880">
    <ele>158.2</ele>
    <time>2018-08-18T06:33:36Z</time>
   </trkpt>
   <trkpt lat="31.9489360" lon="34.9607940">
    <ele>158.1</ele>
    <time>2018-08-18T06:33:37Z</time>
   </trkpt>
   <trkpt lat="31.9489650" lon="34.9607980">
    <ele>158.1</ele>
    <time>2018-08-18T06:33:38Z</time>
   </trkpt>
   <trkpt lat="31.9489940" lon="34.9608000">
    <ele>158.1</ele>
    <time>2018-08-18T06:33:39Z</time>
   </trkpt>
   <trkpt lat="31.9490460" lon="34.9607850">
    <ele>158.0</ele>
    <time>2018-08-18T06:33:41Z</time>
   </trkpt>
   <trkpt lat="31.9490850" lon="34.9607690">
    <ele>158.0</ele>
    <time>2018-08-18T06:33:43Z</time>
   </trkpt>
   <trkpt lat="31.9491140" lon="34.9607570">
    <ele>158.1</ele>
    <time>2018-08-18T06:33:44Z</time>
   </trkpt>
   <trkpt lat="31.9491660" lon="34.9607210">
    <ele>158.2</ele>
    <time>2018-08-18T06:33:46Z</time>
   </trkpt>
   <trkpt lat="31.9491920" lon="34.9607020">
    <ele>158.3</ele>
    <time>2018-08-18T06:33:47Z</time>
   </trkpt>
   <trkpt lat="31.9492210" lon="34.9606790">
    <ele>158.4</ele>
    <time>2018-08-18T06:33:48Z</time>
   </trkpt>
   <trkpt lat="31.9492460" lon="34.9606580">
    <ele>158.5</ele>
    <time>2018-08-18T06:33:49Z</time>
   </trkpt>
   <trkpt lat="31.9492720" lon="34.9606240">
    <ele>158.6</ele>
    <time>2018-08-18T06:33:50Z</time>
   </trkpt>
   <trkpt lat="31.9492940" lon="34.9605910">
    <ele>158.7</ele>
    <time>2018-08-18T06:33:51Z</time>
   </trkpt>
   <trkpt lat="31.9493200" lon="34.9605580">
    <ele>158.8</ele>
    <time>2018-08-18T06:33:52Z</time>
   </trkpt>
   <trkpt lat="31.9493500" lon="34.9605300">
    <ele>158.9</ele>
    <time>2018-08-18T06:33:53Z</time>
   </trkpt>
   <trkpt lat="31.9493710" lon="34.9604970">
    <ele>159.0</ele>
    <time>2018-08-18T06:33:54Z</time>
   </trkpt>
   <trkpt lat="31.9493920" lon="34.9604660">
    <ele>159.1</ele>
    <time>2018-08-18T06:33:55Z</time>
   </trkpt>
   <trkpt lat="31.9494150" lon="34.9604270">
    <ele>159.2</ele>
    <time>2018-08-18T06:33:56Z</time>
   </trkpt>
   <trkpt lat="31.9494390" lon="34.9603860">
    <ele>159.3</ele>
    <time>2018-08-18T06:33:57Z</time>
   </trkpt>
   <trkpt lat="31.9494620" lon="34.9603470">
    <ele>159.4</ele>
    <time>2018-08-18T06:33:58Z</time>
   </trkpt>
   <trkpt lat="31.9494850" lon="34.9603060">
    <ele>159.5</ele>
    <time>2018-08-18T06:33:59Z</time>
   </trkpt>
   <trkpt lat="31.9495090" lon="34.9602620">
    <ele>159.7</ele>
    <time>2018-08-18T06:34:00Z</time>
   </trkpt>
   <trkpt lat="31.9495330" lon="34.9602200">
    <ele>159.8</ele>
    <time>2018-08-18T06:34:01Z</time>
   </trkpt>
   <trkpt lat="31.9495530" lon="34.9601830">
    <ele>160.0</ele>
    <time>2018-08-18T06:34:02Z</time>
   </trkpt>
   <trkpt lat="31.9495780" lon="34.9601410">
    <ele>160.1</ele>
    <time>2018-08-18T06:34:03Z</time>
   </trkpt>
   <trkpt lat="31.9495960" lon="34.9600980">
    <ele>160.2</ele>
    <time>2018-08-18T06:34:04Z</time>
   </trkpt>
   <trkpt lat="31.9496170" lon="34.9600540">
    <ele>160.5</ele>
    <time>2018-08-18T06:34:05Z</time>
   </trkpt>
   <trkpt lat="31.9496360" lon="34.9600130">
    <ele>160.8</ele>
    <time>2018-08-18T06:34:06Z</time>
   </trkpt>
   <trkpt lat="31.9496570" lon="34.9599750">
    <ele>161.1</ele>
    <time>2018-08-18T06:34:07Z</time>
   </trkpt>
   <trkpt lat="31.9496800" lon="34.9599370">
    <ele>161.4</ele>
    <time>2018-08-18T06:34:08Z</time>
   </trkpt>
   <trkpt lat="31.9497000" lon="34.9598960">
    <ele>161.7</ele>
    <time>2018-08-18T06:34:09Z</time>
   </trkpt>
   <trkpt lat="31.9497200" lon="34.9598570">
    <ele>161.9</ele>
    <time>2018-08-18T06:34:10Z</time>
   </trkpt>
   <trkpt lat="31.9497400" lon="34.9598290">
    <ele>162.0</ele>
    <time>2018-08-18T06:34:11Z</time>
   </trkpt>
   <trkpt lat="31.9497610" lon="34.9597960">
    <ele>162.2</ele>
    <time>2018-08-18T06:34:12Z</time>
   </trkpt>
   <trkpt lat="31.9497820" lon="34.9597630">
    <ele>162.3</ele>
    <time>2018-08-18T06:34:13Z</time>
   </trkpt>
   <trkpt lat="31.9498030" lon="34.9597290">
    <ele>162.4</ele>
    <time>2018-08-18T06:34:14Z</time>
   </trkpt>
   <trkpt lat="31.9498190" lon="34.9597010">
    <ele>162.5</ele>
    <time>2018-08-18T06:34:15Z</time>
   </trkpt>
   <trkpt lat="31.9498380" lon="34.9596700">
    <ele>162.6</ele>
    <time>2018-08-18T06:34:16Z</time>
   </trkpt>
   <trkpt lat="31.9498520" lon="34.9596400">
    <ele>162.7</ele>
    <time>2018-08-18T06:34:17Z</time>
   </trkpt>
   <trkpt lat="31.9498720" lon="34.9595790">
    <ele>162.9</ele>
    <time>2018-08-18T06:34:19Z</time>
   </trkpt>
   <trkpt lat="31.9498890" lon="34.9595480">
    <ele>163.0</ele>
    <time>2018-08-18T06:34:20Z</time>
   </trkpt>
   <trkpt lat="31.9499060" lon="34.9594960">
    <ele>163.5</ele>
    <time>2018-08-18T06:34:22Z</time>
   </trkpt>
   <trkpt lat="31.9499210" lon="34.9594660">
    <ele>164.0</ele>
    <time>2018-08-18T06:34:23Z</time>
   </trkpt>
   <trkpt lat="31.9499390" lon="34.9594320">
    <ele>164.5</ele>
    <time>2018-08-18T06:34:24Z</time>
   </trkpt>
   <trkpt lat="31.9499730" lon="34.9593740">
    <ele>165.3</ele>
    <time>2018-08-18T06:34:26Z</time>
   </trkpt>
   <trkpt lat="31.9499880" lon="34.9593460">
    <ele>165.5</ele>
    <time>2018-08-18T06:34:27Z</time>
   </trkpt>
   <trkpt lat="31.9500140" lon="34.9592880">
    <ele>166.1</ele>
    <time>2018-08-18T06:34:29Z</time>
   </trkpt>
   <trkpt lat="31.9500270" lon="34.9592590">
    <ele>166.3</ele>
    <time>2018-08-18T06:34:30Z</time>
   </trkpt>
   <trkpt lat="31.9500500" lon="34.9592110">
    <ele>166.6</ele>
    <time>2018-08-18T06:34:32Z</time>
   </trkpt>
   <trkpt lat="31.9500740" lon="34.9591600">
    <ele>166.9</ele>
    <time>2018-08-18T06:34:34Z</time>
   </trkpt>
   <trkpt lat="31.9500990" lon="34.9591050">
    <ele>167.1</ele>
    <time>2018-08-18T06:34:36Z</time>
   </trkpt>
   <trkpt lat="31.9501260" lon="34.9590600">
    <ele>167.4</ele>
    <time>2018-08-18T06:34:38Z</time>
   </trkpt>
   <trkpt lat="31.9501380" lon="34.9590310">
    <ele>167.5</ele>
    <time>2018-08-18T06:34:39Z</time>
   </trkpt>
   <trkpt lat="31.9501480" lon="34.9589980">
    <ele>167.7</ele>
    <time>2018-08-18T06:34:40Z</time>
   </trkpt>
   <trkpt lat="31.9501570" lon="34.9589670">
    <ele>167.8</ele>
    <time>2018-08-18T06:34:41Z</time>
   </trkpt>
   <trkpt lat="31.9501690" lon="34.9589360">
    <ele>168.0</ele>
    <time>2018-08-18T06:34:42Z</time>
   </trkpt>
   <trkpt lat="31.9501940" lon="34.9588820">
    <ele>168.5</ele>
    <time>2018-08-18T06:34:44Z</time>
   </trkpt>
   <trkpt lat="31.9502040" lon="34.9588520">
    <ele>168.8</ele>
    <time>2018-08-18T06:34:45Z</time>
   </trkpt>
   <trkpt lat="31.9502160" lon="34.9588170">
    <ele>169.2</ele>
    <time>2018-08-18T06:34:46Z</time>
   </trkpt>
   <trkpt lat="31.9502380" lon="34.9587650">
    <ele>169.9</ele>
    <time>2018-08-18T06:34:48Z</time>
   </trkpt>
   <trkpt lat="31.9502500" lon="34.9587330">
    <ele>170.3</ele>
    <time>2018-08-18T06:34:49Z</time>
   </trkpt>
   <trkpt lat="31.9502760" lon="34.9586740">
    <ele>171.1</ele>
    <time>2018-08-18T06:34:51Z</time>
   </trkpt>
   <trkpt lat="31.9502890" lon="34.9586460">
    <ele>171.4</ele>
    <time>2018-08-18T06:34:52Z</time>
   </trkpt>
   <trkpt lat="31.9503090" lon="34.9585910">
    <ele>171.8</ele>
    <time>2018-08-18T06:34:54Z</time>
   </trkpt>
   <trkpt lat="31.9503200" lon="34.9585590">
    <ele>172.0</ele>
    <time>2018-08-18T06:34:55Z</time>
   </trkpt>
   <trkpt lat="31.9503320" lon="34.9585250">
    <ele>172.3</ele>
    <time>2018-08-18T06:34:56Z</time>
   </trkpt>
   <trkpt lat="31.9503440" lon="34.9584890">
    <ele>172.5</ele>
    <time>2018-08-18T06:34:57Z</time>
   </trkpt>
   <trkpt lat="31.9503620" lon="34.9584270">
    <ele>172.8</ele>
    <time>2018-08-18T06:34:59Z</time>
   </trkpt>
   <trkpt lat="31.9503820" lon="34.9583720">
    <ele>173.1</ele>
    <time>2018-08-18T06:35:01Z</time>
   </trkpt>
   <trkpt lat="31.9503860" lon="34.9583400">
    <ele>173.2</ele>
    <time>2018-08-18T06:35:02Z</time>
   </trkpt>
   <trkpt lat="31.9503980" lon="34.9582850">
    <ele>173.5</ele>
    <time>2018-08-18T06:35:04Z</time>
   </trkpt>
   <trkpt lat="31.9504100" lon="34.9582360">
    <ele>173.7</ele>
    <time>2018-08-18T06:35:06Z</time>
   </trkpt>
   <trkpt lat="31.9504210" lon="34.9581810">
    <ele>174.0</ele>
    <time>2018-08-18T06:35:08Z</time>
   </trkpt>
   <trkpt lat="31.9504350" lon="34.9581360">
    <ele>173.9</ele>
    <time>2018-08-18T06:35:10Z</time>
   </trkpt>
   <trkpt lat="31.9504520" lon="34.9580810">
    <ele>173.9</ele>
    <time>2018-08-18T06:35:12Z</time>
   </trkpt>
   <trkpt lat="31.9504660" lon="34.9580120">
    <ele>173.8</ele>
    <time>2018-08-18T06:35:14Z</time>
   </trkpt>
   <trkpt lat="31.9504750" lon="34.9579810">
    <ele>173.8</ele>
    <time>2018-08-18T06:35:15Z</time>
   </trkpt>
   <trkpt lat="31.9504920" lon="34.9579290">
    <ele>173.7</ele>
    <time>2018-08-18T06:35:17Z</time>
   </trkpt>
   <trkpt lat="31.9505060" lon="34.9578760">
    <ele>173.7</ele>
    <time>2018-08-18T06:35:19Z</time>
   </trkpt>
   <trkpt lat="31.9505230" lon="34.9578220">
    <ele>173.6</ele>
    <time>2018-08-18T06:35:21Z</time>
   </trkpt>
   <trkpt lat="31.9505370" lon="34.9577620">
    <ele>173.5</ele>
    <time>2018-08-18T06:35:23Z</time>
   </trkpt>
   <trkpt lat="31.9505440" lon="34.9577280">
    <ele>173.5</ele>
    <time>2018-08-18T06:35:24Z</time>
   </trkpt>
   <trkpt lat="31.9505500" lon="34.9576930">
    <ele>173.4</ele>
    <time>2018-08-18T06:35:25Z</time>
   </trkpt>
   <trkpt lat="31.9505550" lon="34.9576540">
    <ele>173.4</ele>
    <time>2018-08-18T06:35:26Z</time>
   </trkpt>
   <trkpt lat="31.9505590" lon="34.9576210">
    <ele>173.3</ele>
    <time>2018-08-18T06:35:27Z</time>
   </trkpt>
   <trkpt lat="31.9505670" lon="34.9575840">
    <ele>173.3</ele>
    <time>2018-08-18T06:35:28Z</time>
   </trkpt>
   <trkpt lat="31.9505740" lon="34.9575460">
    <ele>173.2</ele>
    <time>2018-08-18T06:35:29Z</time>
   </trkpt>
   <trkpt lat="31.9505800" lon="34.9575110">
    <ele>173.2</ele>
    <time>2018-08-18T06:35:30Z</time>
   </trkpt>
   <trkpt lat="31.9505840" lon="34.9574720">
    <ele>173.2</ele>
    <time>2018-08-18T06:35:31Z</time>
   </trkpt>
   <trkpt lat="31.9505890" lon="34.9574330">
    <ele>173.1</ele>
    <time>2018-08-18T06:35:32Z</time>
   </trkpt>
   <trkpt lat="31.9505940" lon="34.9573940">
    <ele>173.1</ele>
    <time>2018-08-18T06:35:33Z</time>
   </trkpt>
   <trkpt lat="31.9506010" lon="34.9573550">
    <ele>173.0</ele>
    <time>2018-08-18T06:35:34Z</time>
   </trkpt>
   <trkpt lat="31.9506090" lon="34.9573150">
    <ele>173.0</ele>
    <time>2018-08-18T06:35:35Z</time>
   </trkpt>
   <trkpt lat="31.9506160" lon="34.9572740">
    <ele>172.9</ele>
    <time>2018-08-18T06:35:36Z</time>
   </trkpt>
   <trkpt lat="31.9506240" lon="34.9572400">
    <ele>172.9</ele>
    <time>2018-08-18T06:35:37Z</time>
   </trkpt>
   <trkpt lat="31.9506340" lon="34.9572110">
    <ele>172.9</ele>
    <time>2018-08-18T06:35:38Z</time>
   </trkpt>
   <trkpt lat="31.9506450" lon="34.9571620">
    <ele>172.7</ele>
    <time>2018-08-18T06:35:40Z</time>
   </trkpt>
   <trkpt lat="31.9506530" lon="34.9571250">
    <ele>172.7</ele>
    <time>2018-08-18T06:35:42Z</time>
   </trkpt>
   <trkpt lat="31.9506540" lon="34.9570930">
    <ele>172.7</ele>
    <time>2018-08-18T06:35:51Z</time>
   </trkpt>
   <trkpt lat="31.9506330" lon="34.9570530">
    <ele>172.6</ele>
    <time>2018-08-18T06:38:15Z</time>
   </trkpt>
   <trkpt lat="31.9506480" lon="34.9570250">
    <ele>172.5</ele>
    <time>2018-08-18T06:38:19Z</time>
   </trkpt>
   <trkpt lat="31.9506730" lon="34.9569880">
    <ele>172.5</ele>
    <time>2018-08-18T06:38:36Z</time>
   </trkpt>
   <trkpt lat="31.9506800" lon="34.9569570">
    <ele>172.4</ele>
    <time>2018-08-18T06:38:38Z</time>
   </trkpt>
   <trkpt lat="31.9506850" lon="34.9569090">
    <ele>172.4</ele>
    <time>2018-08-18T06:38:40Z</time>
   </trkpt>
   <trkpt lat="31.9506920" lon="34.9568510">
    <ele>172.2</ele>
    <time>2018-08-18T06:38:42Z</time>
   </trkpt>
   <trkpt lat="31.9507080" lon="34.9567870">
    <ele>172.1</ele>
    <time>2018-08-18T06:38:44Z</time>
   </trkpt>
   <trkpt lat="31.9507180" lon="34.9567430">
    <ele>172.0</ele>
    <time>2018-08-18T06:38:45Z</time>
   </trkpt>
   <trkpt lat="31.9507260" lon="34.9566990">
    <ele>171.8</ele>
    <time>2018-08-18T06:38:46Z</time>
   </trkpt>
   <trkpt lat="31.9507270" lon="34.9566580">
    <ele>171.6</ele>
    <time>2018-08-18T06:38:47Z</time>
   </trkpt>
   <trkpt lat="31.9507220" lon="34.9566160">
    <ele>171.2</ele>
    <time>2018-08-18T06:38:48Z</time>
   </trkpt>
   <trkpt lat="31.9507160" lon="34.9565790">
    <ele>170.8</ele>
    <time>2018-08-18T06:38:49Z</time>
   </trkpt>
   <trkpt lat="31.9507330" lon="34.9565210">
    <ele>170.3</ele>
    <time>2018-08-18T06:38:51Z</time>
   </trkpt>
   <trkpt lat="31.9507460" lon="34.9564870">
    <ele>170.1</ele>
    <time>2018-08-18T06:38:52Z</time>
   </trkpt>
   <trkpt lat="31.9507540" lon="34.9564460">
    <ele>169.9</ele>
    <time>2018-08-18T06:38:53Z</time>
   </trkpt>
   <trkpt lat="31.9507670" lon="34.9563980">
    <ele>169.7</ele>
    <time>2018-08-18T06:38:54Z</time>
   </trkpt>
   <trkpt lat="31.9507740" lon="34.9563560">
    <ele>169.5</ele>
    <time>2018-08-18T06:38:55Z</time>
   </trkpt>
   <trkpt lat="31.9507810" lon="34.9563130">
    <ele>169.4</ele>
    <time>2018-08-18T06:38:56Z</time>
   </trkpt>
   <trkpt lat="31.9507900" lon="34.9562800">
    <ele>169.3</ele>
    <time>2018-08-18T06:38:57Z</time>
   </trkpt>
   <trkpt lat="31.9508030" lon="34.9562390">
    <ele>169.2</ele>
    <time>2018-08-18T06:38:58Z</time>
   </trkpt>
   <trkpt lat="31.9508160" lon="34.9561980">
    <ele>169.1</ele>
    <time>2018-08-18T06:38:59Z</time>
   </trkpt>
   <trkpt lat="31.9508260" lon="34.9561580">
    <ele>169.0</ele>
    <time>2018-08-18T06:39:00Z</time>
   </trkpt>
   <trkpt lat="31.9508360" lon="34.9561240">
    <ele>169.0</ele>
    <time>2018-08-18T06:39:01Z</time>
   </trkpt>
   <trkpt lat="31.9508480" lon="34.9560890">
    <ele>168.9</ele>
    <time>2018-08-18T06:39:02Z</time>
   </trkpt>
   <trkpt lat="31.9508570" lon="34.9560510">
    <ele>168.9</ele>
    <time>2018-08-18T06:39:03Z</time>
   </trkpt>
   <trkpt lat="31.9508710" lon="34.9560120">
    <ele>168.8</ele>
    <time>2018-08-18T06:39:04Z</time>
   </trkpt>
   <trkpt lat="31.9508840" lon="34.9559740">
    <ele>168.8</ele>
    <time>2018-08-18T06:39:05Z</time>
   </trkpt>
   <trkpt lat="31.9508970" lon="34.9559330">
    <ele>168.8</ele>
    <time>2018-08-18T06:39:06Z</time>
   </trkpt>
   <trkpt lat="31.9509110" lon="34.9558820">
    <ele>168.7</ele>
    <time>2018-08-18T06:39:08Z</time>
   </trkpt>
   <trkpt lat="31.9509210" lon="34.9558510">
    <ele>168.7</ele>
    <time>2018-08-18T06:39:09Z</time>
   </trkpt>
   <trkpt lat="31.9509320" lon="34.9558170">
    <ele>168.6</ele>
    <time>2018-08-18T06:39:10Z</time>
   </trkpt>
   <trkpt lat="31.9509430" lon="34.9557820">
    <ele>168.6</ele>
    <time>2018-08-18T06:39:11Z</time>
   </trkpt>
   <trkpt lat="31.9509530" lon="34.9557430">
    <ele>168.6</ele>
    <time>2018-08-18T06:39:12Z</time>
   </trkpt>
   <trkpt lat="31.9509680" lon="34.9556980">
    <ele>168.5</ele>
    <time>2018-08-18T06:39:13Z</time>
   </trkpt>
   <trkpt lat="31.9509770" lon="34.9556570">
    <ele>168.5</ele>
    <time>2018-08-18T06:39:14Z</time>
   </trkpt>
   <trkpt lat="31.9509840" lon="34.9556060">
    <ele>168.4</ele>
    <time>2018-08-18T06:39:15Z</time>
   </trkpt>
   <trkpt lat="31.9509890" lon="34.9555640">
    <ele>168.3</ele>
    <time>2018-08-18T06:39:16Z</time>
   </trkpt>
   <trkpt lat="31.9509880" lon="34.9555290">
    <ele>168.2</ele>
    <time>2018-08-18T06:39:18Z</time>
   </trkpt>
   <trkpt lat="31.9509820" lon="34.9554920">
    <ele>168.2</ele>
    <time>2018-08-18T06:39:20Z</time>
   </trkpt>
   <trkpt lat="31.9509640" lon="34.9554660">
    <ele>167.7</ele>
    <time>2018-08-18T06:39:22Z</time>
   </trkpt>
   <trkpt lat="31.9509190" lon="34.9554440">
    <ele>167.6</ele>
    <time>2018-08-18T06:39:24Z</time>
   </trkpt>
   <trkpt lat="31.9508690" lon="34.9554370">
    <ele>167.4</ele>
    <time>2018-08-18T06:39:26Z</time>
   </trkpt>
   <trkpt lat="31.9508410" lon="34.9554320">
    <ele>167.3</ele>
    <time>2018-08-18T06:39:27Z</time>
   </trkpt>
   <trkpt lat="31.9508110" lon="34.9554280">
    <ele>167.2</ele>
    <time>2018-08-18T06:39:28Z</time>
   </trkpt>
   <trkpt lat="31.9507800" lon="34.9554260">
    <ele>167.2</ele>
    <time>2018-08-18T06:39:29Z</time>
   </trkpt>
   <trkpt lat="31.9507320" lon="34.9554210">
    <ele>167.0</ele>
    <time>2018-08-18T06:39:31Z</time>
   </trkpt>
   <trkpt lat="31.9506770" lon="34.9554260">
    <ele>166.9</ele>
    <time>2018-08-18T06:39:33Z</time>
   </trkpt>
   <trkpt lat="31.9506490" lon="34.9554320">
    <ele>166.8</ele>
    <time>2018-08-18T06:39:34Z</time>
   </trkpt>
   <trkpt lat="31.9506020" lon="34.9554340">
    <ele>166.7</ele>
    <time>2018-08-18T06:39:36Z</time>
   </trkpt>
   <trkpt lat="31.9505740" lon="34.9554130">
    <ele>166.5</ele>
    <time>2018-08-18T06:39:38Z</time>
   </trkpt>
   <trkpt lat="31.9505760" lon="34.9553690">
    <ele>166.4</ele>
    <time>2018-08-18T06:39:40Z</time>
   </trkpt>
   <trkpt lat="31.9505770" lon="34.9553040">
    <ele>166.0</ele>
    <time>2018-08-18T06:39:42Z</time>
   </trkpt>
   <trkpt lat="31.9505750" lon="34.9552630">
    <ele>165.9</ele>
    <time>2018-08-18T06:39:43Z</time>
   </trkpt>
   <trkpt lat="31.9505720" lon="34.9552270">
    <ele>165.7</ele>
    <time>2018-08-18T06:39:44Z</time>
   </trkpt>
   <trkpt lat="31.9505700" lon="34.9551850">
    <ele>165.6</ele>
    <time>2018-08-18T06:39:45Z</time>
   </trkpt>
   <trkpt lat="31.9505680" lon="34.9551450">
    <ele>165.1</ele>
    <time>2018-08-18T06:39:46Z</time>
   </trkpt>
   <trkpt lat="31.9505690" lon="34.9551040">
    <ele>164.6</ele>
    <time>2018-08-18T06:39:47Z</time>
   </trkpt>
   <trkpt lat="31.9505640" lon="34.9550710">
    <ele>164.3</ele>
    <time>2018-08-18T06:39:48Z</time>
   </trkpt>
   <trkpt lat="31.9505540" lon="34.9550110">
    <ele>163.8</ele>
    <time>2018-08-18T06:39:50Z</time>
   </trkpt>
   <trkpt lat="31.9505740" lon="34.9549780">
    <ele>163.6</ele>
    <time>2018-08-18T06:39:51Z</time>
   </trkpt>
   <trkpt lat="31.9505870" lon="34.9549490">
    <ele>163.4</ele>
    <time>2018-08-18T06:39:52Z</time>
   </trkpt>
   <trkpt lat="31.9505790" lon="34.9548820">
    <ele>162.9</ele>
    <time>2018-08-18T06:39:54Z</time>
   </trkpt>
   <trkpt lat="31.9505770" lon="34.9548400">
    <ele>162.7</ele>
    <time>2018-08-18T06:39:55Z</time>
   </trkpt>
   <trkpt lat="31.9505810" lon="34.9548010">
    <ele>162.5</ele>
    <time>2018-08-18T06:39:56Z</time>
   </trkpt>
   <trkpt lat="31.9505910" lon="34.9547600">
    <ele>162.2</ele>
    <time>2018-08-18T06:39:57Z</time>
   </trkpt>
   <trkpt lat="31.9506010" lon="34.9547150">
    <ele>161.8</ele>
    <time>2018-08-18T06:39:58Z</time>
   </trkpt>
   <trkpt lat="31.9506180" lon="34.9546650">
    <ele>161.3</ele>
    <time>2018-08-18T06:40:00Z</time>
   </trkpt>
   <trkpt lat="31.9506330" lon="34.9546030">
    <ele>160.8</ele>
    <time>2018-08-18T06:40:02Z</time>
   </trkpt>
   <trkpt lat="31.9506440" lon="34.9545680">
    <ele>160.6</ele>
    <time>2018-08-18T06:40:03Z</time>
   </trkpt>
   <trkpt lat="31.9506600" lon="34.9545340">
    <ele>160.4</ele>
    <time>2018-08-18T06:40:04Z</time>
   </trkpt>
   <trkpt lat="31.9506800" lon="34.9544990">
    <ele>160.3</ele>
    <time>2018-08-18T06:40:05Z</time>
   </trkpt>
   <trkpt lat="31.9506940" lon="34.9544630">
    <ele>160.2</ele>
    <time>2018-08-18T06:40:06Z</time>
   </trkpt>
   <trkpt lat="31.9507140" lon="34.9544300">
    <ele>160.1</ele>
    <time>2018-08-18T06:40:07Z</time>
   </trkpt>
   <trkpt lat="31.9507400" lon="34.9543960">
    <ele>160.0</ele>
    <time>2018-08-18T06:40:08Z</time>
   </trkpt>
   <trkpt lat="31.9507640" lon="34.9543610">
    <ele>159.9</ele>
    <time>2018-08-18T06:40:09Z</time>
   </trkpt>
   <trkpt lat="31.9507880" lon="34.9543210">
    <ele>159.8</ele>
    <time>2018-08-18T06:40:10Z</time>
   </trkpt>
   <trkpt lat="31.9508050" lon="34.9542810">
    <ele>159.7</ele>
    <time>2018-08-18T06:40:11Z</time>
   </trkpt>
   <trkpt lat="31.9508150" lon="34.9542320">
    <ele>159.6</ele>
    <time>2018-08-18T06:40:12Z</time>
   </trkpt>
   <trkpt lat="31.9508340" lon="34.9541790">
    <ele>159.5</ele>
    <time>2018-08-18T06:40:13Z</time>
   </trkpt>
   <trkpt lat="31.9508560" lon="34.9541300">
    <ele>159.3</ele>
    <time>2018-08-18T06:40:14Z</time>
   </trkpt>
   <trkpt lat="31.9508820" lon="34.9540800">
    <ele>159.1</ele>
    <time>2018-08-18T06:40:15Z</time>
   </trkpt>
   <trkpt lat="31.9509150" lon="34.9540470">
    <ele>159.0</ele>
    <time>2018-08-18T06:40:16Z</time>
   </trkpt>
   <trkpt lat="31.9509470" lon="34.9540090">
    <ele>159.0</ele>
    <time>2018-08-18T06:40:17Z</time>
   </trkpt>
   <trkpt lat="31.9509860" lon="34.9539870">
    <ele>159.0</ele>
    <time>2018-08-18T06:40:18Z</time>
   </trkpt>
   <trkpt lat="31.9510230" lon="34.9539690">
    <ele>159.0</ele>
    <time>2018-08-18T06:40:19Z</time>
   </trkpt>
   <trkpt lat="31.9510560" lon="34.9539530">
    <ele>159.0</ele>
    <time>2018-08-18T06:40:20Z</time>
   </trkpt>
   <trkpt lat="31.9510900" lon="34.9539420">
    <ele>159.0</ele>
    <time>2018-08-18T06:40:21Z</time>
   </trkpt>
   <trkpt lat="31.9511240" lon="34.9539160">
    <ele>159.0</ele>
    <time>2018-08-18T06:40:22Z</time>
   </trkpt>
   <trkpt lat="31.9511550" lon="34.9538800">
    <ele>159.0</ele>
    <time>2018-08-18T06:40:23Z</time>
   </trkpt>
   <trkpt lat="31.9511850" lon="34.9538440">
    <ele>159.0</ele>
    <time>2018-08-18T06:40:24Z</time>
   </trkpt>
   <trkpt lat="31.9512110" lon="34.9538120">
    <ele>159.0</ele>
    <time>2018-08-18T06:40:25Z</time>
   </trkpt>
   <trkpt lat="31.9512370" lon="34.9537830">
    <ele>159.0</ele>
    <time>2018-08-18T06:40:26Z</time>
   </trkpt>
   <trkpt lat="31.9512580" lon="34.9537510">
    <ele>159.0</ele>
    <time>2018-08-18T06:40:27Z</time>
   </trkpt>
   <trkpt lat="31.9512750" lon="34.9537260">
    <ele>159.0</ele>
    <time>2018-08-18T06:40:28Z</time>
   </trkpt>
   <trkpt lat="31.9513030" lon="34.9536890">
    <ele>159.0</ele>
    <time>2018-08-18T06:40:30Z</time>
   </trkpt>
   <trkpt lat="31.9513350" lon="34.9536260">
    <ele>159.0</ele>
    <time>2018-08-18T06:40:32Z</time>
   </trkpt>
   <trkpt lat="31.9513480" lon="34.9535900">
    <ele>159.0</ele>
    <time>2018-08-18T06:40:33Z</time>
   </trkpt>
   <trkpt lat="31.9513680" lon="34.9535530">
    <ele>159.0</ele>
    <time>2018-08-18T06:40:34Z</time>
   </trkpt>
   <trkpt lat="31.9513840" lon="34.9535220">
    <ele>159.0</ele>
    <time>2018-08-18T06:40:35Z</time>
   </trkpt>
   <trkpt lat="31.9513900" lon="34.9534790">
    <ele>159.0</ele>
    <time>2018-08-18T06:40:37Z</time>
   </trkpt>
   <trkpt lat="31.9513760" lon="34.9534330">
    <ele>158.1</ele>
    <time>2018-08-18T06:40:40Z</time>
   </trkpt>
   <trkpt lat="31.9513460" lon="34.9533850">
    <ele>157.6</ele>
    <time>2018-08-18T06:40:42Z</time>
   </trkpt>
   <trkpt lat="31.9513220" lon="34.9533590">
    <ele>157.3</ele>
    <time>2018-08-18T06:40:43Z</time>
   </trkpt>
   <trkpt lat="31.9512990" lon="34.9533340">
    <ele>157.0</ele>
    <time>2018-08-18T06:40:44Z</time>
   </trkpt>
   <trkpt lat="31.9512630" lon="34.9533040">
    <ele>156.7</ele>
    <time>2018-08-18T06:40:46Z</time>
   </trkpt>
   <trkpt lat="31.9512110" lon="34.9533070">
    <ele>156.4</ele>
    <time>2018-08-18T06:40:48Z</time>
   </trkpt>
   <trkpt lat="31.9511810" lon="34.9532960">
    <ele>156.1</ele>
    <time>2018-08-18T06:40:49Z</time>
   </trkpt>
   <trkpt lat="31.9511410" lon="34.9532690">
    <ele>155.8</ele>
    <time>2018-08-18T06:40:50Z</time>
   </trkpt>
   <trkpt lat="31.9511000" lon="34.9532270">
    <ele>155.5</ele>
    <time>2018-08-18T06:40:51Z</time>
   </trkpt>
   <trkpt lat="31.9510680" lon="34.9531840">
    <ele>155.2</ele>
    <time>2018-08-18T06:40:52Z</time>
   </trkpt>
   <trkpt lat="31.9510340" lon="34.9531440">
    <ele>154.9</ele>
    <time>2018-08-18T06:40:53Z</time>
   </trkpt>
   <trkpt lat="31.9509980" lon="34.9531060">
    <ele>154.7</ele>
    <time>2018-08-18T06:40:54Z</time>
   </trkpt>
   <trkpt lat="31.9509470" lon="34.9530660">
    <ele>154.4</ele>
    <time>2018-08-18T06:40:55Z</time>
   </trkpt>
   <trkpt lat="31.9509010" lon="34.9530250">
    <ele>154.1</ele>
    <time>2018-08-18T06:40:56Z</time>
   </trkpt>
   <trkpt lat="31.9508550" lon="34.9529840">
    <ele>153.9</ele>
    <time>2018-08-18T06:40:57Z</time>
   </trkpt>
   <trkpt lat="31.9508080" lon="34.9529450">
    <ele>153.6</ele>
    <time>2018-08-18T06:40:58Z</time>
   </trkpt>
   <trkpt lat="31.9507610" lon="34.9529090">
    <ele>153.4</ele>
    <time>2018-08-18T06:40:59Z</time>
   </trkpt>
   <trkpt lat="31.9507100" lon="34.9528770">
    <ele>153.1</ele>
    <time>2018-08-18T06:41:00Z</time>
   </trkpt>
   <trkpt lat="31.9506590" lon="34.9528460">
    <ele>152.9</ele>
    <time>2018-08-18T06:41:01Z</time>
   </trkpt>
   <trkpt lat="31.9506090" lon="34.9528150">
    <ele>152.7</ele>
    <time>2018-08-18T06:41:02Z</time>
   </trkpt>
   <trkpt lat="31.9505600" lon="34.9527810">
    <ele>152.5</ele>
    <time>2018-08-18T06:41:03Z</time>
   </trkpt>
   <trkpt lat="31.9505130" lon="34.9527450">
    <ele>152.3</ele>
    <time>2018-08-18T06:41:04Z</time>
   </trkpt>
   <trkpt lat="31.9504650" lon="34.9527100">
    <ele>152.1</ele>
    <time>2018-08-18T06:41:05Z</time>
   </trkpt>
   <trkpt lat="31.9504200" lon="34.9526760">
    <ele>151.9</ele>
    <time>2018-08-18T06:41:06Z</time>
   </trkpt>
   <trkpt lat="31.9503740" lon="34.9526410">
    <ele>151.8</ele>
    <time>2018-08-18T06:41:07Z</time>
   </trkpt>
   <trkpt lat="31.9503370" lon="34.9526050">
    <ele>151.6</ele>
    <time>2018-08-18T06:41:08Z</time>
   </trkpt>
   <trkpt lat="31.9503080" lon="34.9525640">
    <ele>151.4</ele>
    <time>2018-08-18T06:41:09Z</time>
   </trkpt>
   <trkpt lat="31.9502790" lon="34.9525340">
    <ele>151.3</ele>
    <time>2018-08-18T06:41:10Z</time>
   </trkpt>
   <trkpt lat="31.9502440" lon="34.9525200">
    <ele>151.2</ele>
    <time>2018-08-18T06:41:12Z</time>
   </trkpt>
   <trkpt lat="31.9501980" lon="34.9525320">
    <ele>151.0</ele>
    <time>2018-08-18T06:41:14Z</time>
   </trkpt>
   <trkpt lat="31.9501420" lon="34.9525210">
    <ele>150.7</ele>
    <time>2018-08-18T06:41:16Z</time>
   </trkpt>
   <trkpt lat="31.9501040" lon="34.9525250">
    <ele>150.3</ele>
    <time>2018-08-18T06:41:17Z</time>
   </trkpt>
   <trkpt lat="31.9500710" lon="34.9525320">
    <ele>150.1</ele>
    <time>2018-08-18T06:41:18Z</time>
   </trkpt>
   <trkpt lat="31.9500410" lon="34.9525380">
    <ele>149.9</ele>
    <time>2018-08-18T06:41:19Z</time>
   </trkpt>
   <trkpt lat="31.9500080" lon="34.9525320">
    <ele>149.8</ele>
    <time>2018-08-18T06:41:20Z</time>
   </trkpt>
   <trkpt lat="31.9499590" lon="34.9525160">
    <ele>149.5</ele>
    <time>2018-08-18T06:41:22Z</time>
   </trkpt>
   <trkpt lat="31.9499140" lon="34.9524900">
    <ele>149.2</ele>
    <time>2018-08-18T06:41:24Z</time>
   </trkpt>
   <trkpt lat="31.9498960" lon="34.9524650">
    <ele>149.1</ele>
    <time>2018-08-18T06:41:25Z</time>
   </trkpt>
   <trkpt lat="31.9498810" lon="34.9524380">
    <ele>148.9</ele>
    <time>2018-08-18T06:41:26Z</time>
   </trkpt>
   <trkpt lat="31.9498690" lon="34.9523950">
    <ele>148.7</ele>
    <time>2018-08-18T06:41:27Z</time>
   </trkpt>
   <trkpt lat="31.9498560" lon="34.9523530">
    <ele>148.4</ele>
    <time>2018-08-18T06:41:28Z</time>
   </trkpt>
   <trkpt lat="31.9498470" lon="34.9523140">
    <ele>148.2</ele>
    <time>2018-08-18T06:41:29Z</time>
   </trkpt>
   <trkpt lat="31.9498370" lon="34.9522820">
    <ele>147.9</ele>
    <time>2018-08-18T06:41:30Z</time>
   </trkpt>
   <trkpt lat="31.9498230" lon="34.9522180">
    <ele>147.4</ele>
    <time>2018-08-18T06:41:32Z</time>
   </trkpt>
   <trkpt lat="31.9498480" lon="34.9521730">
    <ele>147.0</ele>
    <time>2018-08-18T06:41:34Z</time>
   </trkpt>
   <trkpt lat="31.9498900" lon="34.9521620">
    <ele>146.8</ele>
    <time>2018-08-18T06:41:36Z</time>
   </trkpt>
   <trkpt lat="31.9499230" lon="34.9521840">
    <ele>146.7</ele>
    <time>2018-08-18T06:41:38Z</time>
   </trkpt>
   <trkpt lat="31.9499620" lon="34.9522050">
    <ele>146.5</ele>
    <time>2018-08-18T06:41:40Z</time>
   </trkpt>
   <trkpt lat="31.9499940" lon="34.9522000">
    <ele>146.4</ele>
    <time>2018-08-18T06:41:42Z</time>
   </trkpt>
   <trkpt lat="31.9500170" lon="34.9521610">
    <ele>146.2</ele>
    <time>2018-08-18T06:41:45Z</time>
   </trkpt>
   <trkpt lat="31.9500180" lon="34.9521290">
    <ele>146.1</ele>
    <time>2018-08-18T06:41:46Z</time>
   </trkpt>
   <trkpt lat="31.9500270" lon="34.9520890">
    <ele>146.0</ele>
    <time>2018-08-18T06:41:48Z</time>
   </trkpt>
   <trkpt lat="31.9500490" lon="34.9520370">
    <ele>145.8</ele>
    <time>2018-08-18T06:41:50Z</time>
   </trkpt>
   <trkpt lat="31.9500620" lon="34.9520020">
    <ele>145.7</ele>
    <time>2018-08-18T06:41:51Z</time>
   </trkpt>
   <trkpt lat="31.9500870" lon="34.9519750">
    <ele>145.6</ele>
    <time>2018-08-18T06:41:52Z</time>
   </trkpt>
   <trkpt lat="31.9501200" lon="34.9519580">
    <ele>145.4</ele>
    <time>2018-08-18T06:41:53Z</time>
   </trkpt>
   <trkpt lat="31.9501510" lon="34.9519520">
    <ele>145.3</ele>
    <time>2018-08-18T06:41:54Z</time>
   </trkpt>
   <trkpt lat="31.9501900" lon="34.9519380">
    <ele>145.1</ele>
    <time>2018-08-18T06:41:55Z</time>
   </trkpt>
   <trkpt lat="31.9502330" lon="34.9519300">
    <ele>145.0</ele>
    <time>2018-08-18T06:41:56Z</time>
   </trkpt>
   <trkpt lat="31.9502710" lon="34.9519310">
    <ele>144.8</ele>
    <time>2018-08-18T06:41:57Z</time>
   </trkpt>
   <trkpt lat="31.9503110" lon="34.9519340">
    <ele>144.7</ele>
    <time>2018-08-18T06:41:58Z</time>
   </trkpt>
   <trkpt lat="31.9503560" lon="34.9519110">
    <ele>144.6</ele>
    <time>2018-08-18T06:42:00Z</time>
   </trkpt>
   <trkpt lat="31.9503870" lon="34.9518970">
    <ele>144.5</ele>
    <time>2018-08-18T06:42:01Z</time>
   </trkpt>
   <trkpt lat="31.9504290" lon="34.9518860">
    <ele>144.4</ele>
    <time>2018-08-18T06:42:02Z</time>
   </trkpt>
   <trkpt lat="31.9504680" lon="34.9518680">
    <ele>144.3</ele>
    <time>2018-08-18T06:42:03Z</time>
   </trkpt>
   <trkpt lat="31.9505050" lon="34.9518460">
    <ele>144.2</ele>
    <time>2018-08-18T06:42:04Z</time>
   </trkpt>
   <trkpt lat="31.9505420" lon="34.9518090">
    <ele>144.1</ele>
    <time>2018-08-18T06:42:05Z</time>
   </trkpt>
   <trkpt lat="31.9505860" lon="34.9517890">
    <ele>144.0</ele>
    <time>2018-08-18T06:42:06Z</time>
   </trkpt>
   <trkpt lat="31.9506310" lon="34.9517810">
    <ele>143.9</ele>
    <time>2018-08-18T06:42:07Z</time>
   </trkpt>
   <trkpt lat="31.9506810" lon="34.9517760">
    <ele>143.7</ele>
    <time>2018-08-18T06:42:08Z</time>
   </trkpt>
   <trkpt lat="31.9507220" lon="34.9517650">
    <ele>143.5</ele>
    <time>2018-08-18T06:42:09Z</time>
   </trkpt>
   <trkpt lat="31.9507650" lon="34.9517350">
    <ele>143.3</ele>
    <time>2018-08-18T06:42:10Z</time>
   </trkpt>
   <trkpt lat="31.9508070" lon="34.9517010">
    <ele>143.0</ele>
    <time>2018-08-18T06:42:11Z</time>
   </trkpt>
   <trkpt lat="31.9508320" lon="34.9516690">
    <ele>142.9</ele>
    <time>2018-08-18T06:42:12Z</time>
   </trkpt>
   <trkpt lat="31.9508420" lon="34.9516330">
    <ele>142.7</ele>
    <time>2018-08-18T06:42:13Z</time>
   </trkpt>
   <trkpt lat="31.9508480" lon="34.9515890">
    <ele>142.5</ele>
    <time>2018-08-18T06:42:14Z</time>
   </trkpt>
   <trkpt lat="31.9508570" lon="34.9515460">
    <ele>142.4</ele>
    <time>2018-08-18T06:42:15Z</time>
   </trkpt>
   <trkpt lat="31.9508600" lon="34.9514980">
    <ele>142.2</ele>
    <time>2018-08-18T06:42:16Z</time>
   </trkpt>
   <trkpt lat="31.9508660" lon="34.9514500">
    <ele>142.0</ele>
    <time>2018-08-18T06:42:17Z</time>
   </trkpt>
   <trkpt lat="31.9508800" lon="34.9514220">
    <ele>142.0</ele>
    <time>2018-08-18T06:42:18Z</time>
   </trkpt>
   <trkpt lat="31.9509010" lon="34.9513960">
    <ele>141.9</ele>
    <time>2018-08-18T06:42:19Z</time>
   </trkpt>
   <trkpt lat="31.9509230" lon="34.9513600">
    <ele>141.9</ele>
    <time>2018-08-18T06:42:20Z</time>
   </trkpt>
   <trkpt lat="31.9509330" lon="34.9513140">
    <ele>141.9</ele>
    <time>2018-08-18T06:42:21Z</time>
   </trkpt>
   <trkpt lat="31.9509420" lon="34.9512760">
    <ele>141.8</ele>
    <time>2018-08-18T06:42:22Z</time>
   </trkpt>
   <trkpt lat="31.9509560" lon="34.9512370">
    <ele>141.8</ele>
    <time>2018-08-18T06:42:23Z</time>
   </trkpt>
   <trkpt lat="31.9509770" lon="34.9512060">
    <ele>141.8</ele>
    <time>2018-08-18T06:42:24Z</time>
   </trkpt>
   <trkpt lat="31.9510170" lon="34.9511740">
    <ele>141.8</ele>
    <time>2018-08-18T06:42:26Z</time>
   </trkpt>
   <trkpt lat="31.9510670" lon="34.9511420">
    <ele>141.8</ele>
    <time>2018-08-18T06:42:28Z</time>
   </trkpt>
   <trkpt lat="31.9510950" lon="34.9511480">
    <ele>141.8</ele>
    <time>2018-08-18T06:42:29Z</time>
   </trkpt>
   <trkpt lat="31.9511260" lon="34.9511540">
    <ele>141.8</ele>
    <time>2018-08-18T06:42:30Z</time>
   </trkpt>
   <trkpt lat="31.9511620" lon="34.9511380">
    <ele>141.8</ele>
    <time>2018-08-18T06:42:32Z</time>
   </trkpt>
   <trkpt lat="31.9512010" lon="34.9511050">
    <ele>141.8</ele>
    <time>2018-08-18T06:42:34Z</time>
   </trkpt>
   <trkpt lat="31.9512300" lon="34.9510610">
    <ele>141.9</ele>
    <time>2018-08-18T06:42:36Z</time>
   </trkpt>
   <trkpt lat="31.9512400" lon="34.9510310">
    <ele>141.9</ele>
    <time>2018-08-18T06:42:37Z</time>
   </trkpt>
   <trkpt lat="31.9512460" lon="34.9509970">
    <ele>141.9</ele>
    <time>2018-08-18T06:42:38Z</time>
   </trkpt>
   <trkpt lat="31.9512450" lon="34.9509330">
    <ele>141.9</ele>
    <time>2018-08-18T06:42:40Z</time>
   </trkpt>
   <trkpt lat="31.9512490" lon="34.9508910">
    <ele>142.0</ele>
    <time>2018-08-18T06:42:41Z</time>
   </trkpt>
   <trkpt lat="31.9512570" lon="34.9508470">
    <ele>142.0</ele>
    <time>2018-08-18T06:42:42Z</time>
   </trkpt>
   <trkpt lat="31.9512600" lon="34.9508040">
    <ele>142.1</ele>
    <time>2018-08-18T06:42:43Z</time>
   </trkpt>
   <trkpt lat="31.9512640" lon="34.9507670">
    <ele>142.1</ele>
    <time>2018-08-18T06:42:44Z</time>
   </trkpt>
   <trkpt lat="31.9512830" lon="34.9507030">
    <ele>142.2</ele>
    <time>2018-08-18T06:42:46Z</time>
   </trkpt>
   <trkpt lat="31.9512940" lon="34.9506700">
    <ele>142.2</ele>
    <time>2018-08-18T06:42:47Z</time>
   </trkpt>
   <trkpt lat="31.9512970" lon="34.9506310">
    <ele>142.3</ele>
    <time>2018-08-18T06:42:48Z</time>
   </trkpt>
   <trkpt lat="31.9513120" lon="34.9505740">
    <ele>142.4</ele>
    <time>2018-08-18T06:42:50Z</time>
   </trkpt>
   <trkpt lat="31.9513260" lon="34.9505400">
    <ele>142.4</ele>
    <time>2018-08-18T06:42:51Z</time>
   </trkpt>
   <trkpt lat="31.9513290" lon="34.9504820">
    <ele>142.5</ele>
    <time>2018-08-18T06:42:53Z</time>
   </trkpt>
   <trkpt lat="31.9513300" lon="34.9504300">
    <ele>142.7</ele>
    <time>2018-08-18T06:42:55Z</time>
   </trkpt>
   <trkpt lat="31.9513360" lon="34.9503560">
    <ele>142.8</ele>
    <time>2018-08-18T06:42:57Z</time>
   </trkpt>
   <trkpt lat="31.9513420" lon="34.9503060">
    <ele>142.9</ele>
    <time>2018-08-18T06:42:59Z</time>
   </trkpt>
   <trkpt lat="31.9513470" lon="34.9502730">
    <ele>142.9</ele>
    <time>2018-08-18T06:43:00Z</time>
   </trkpt>
   <trkpt lat="31.9513600" lon="34.9502180">
    <ele>143.0</ele>
    <time>2018-08-18T06:43:02Z</time>
   </trkpt>
   <trkpt lat="31.9513410" lon="34.9501610">
    <ele>143.1</ele>
    <time>2018-08-18T06:43:04Z</time>
   </trkpt>
   <trkpt lat="31.9513260" lon="34.9501330">
    <ele>143.2</ele>
    <time>2018-08-18T06:43:05Z</time>
   </trkpt>
   <trkpt lat="31.9513070" lon="34.9501070">
    <ele>143.2</ele>
    <time>2018-08-18T06:43:06Z</time>
   </trkpt>
   <trkpt lat="31.9512890" lon="34.9500770">
    <ele>143.3</ele>
    <time>2018-08-18T06:43:07Z</time>
   </trkpt>
   <trkpt lat="31.9512690" lon="34.9500500">
    <ele>143.3</ele>
    <time>2018-08-18T06:43:08Z</time>
   </trkpt>
   <trkpt lat="31.9512370" lon="34.9500170">
    <ele>143.3</ele>
    <time>2018-08-18T06:43:10Z</time>
   </trkpt>
   <trkpt lat="31.9512000" lon="34.9499770">
    <ele>143.4</ele>
    <time>2018-08-18T06:43:12Z</time>
   </trkpt>
   <trkpt lat="31.9511660" lon="34.9499490">
    <ele>143.4</ele>
    <time>2018-08-18T06:43:13Z</time>
   </trkpt>
   <trkpt lat="31.9511370" lon="34.9499240">
    <ele>143.4</ele>
    <time>2018-08-18T06:43:14Z</time>
   </trkpt>
   <trkpt lat="31.9510920" lon="34.9498880">
    <ele>143.4</ele>
    <time>2018-08-18T06:43:16Z</time>
   </trkpt>
   <trkpt lat="31.9510570" lon="34.9498650">
    <ele>143.4</ele>
    <time>2018-08-18T06:43:17Z</time>
   </trkpt>
   <trkpt lat="31.9510270" lon="34.9498440">
    <ele>143.4</ele>
    <time>2018-08-18T06:43:18Z</time>
   </trkpt>
   <trkpt lat="31.9509860" lon="34.9498250">
    <ele>143.4</ele>
    <time>2018-08-18T06:43:19Z</time>
   </trkpt>
   <trkpt lat="31.9509400" lon="34.9498040">
    <ele>143.4</ele>
    <time>2018-08-18T06:43:20Z</time>
   </trkpt>
   <trkpt lat="31.9509050" lon="34.9497860">
    <ele>143.4</ele>
    <time>2018-08-18T06:43:21Z</time>
   </trkpt>
   <trkpt lat="31.9508750" lon="34.9497720">
    <ele>143.3</ele>
    <time>2018-08-18T06:43:22Z</time>
   </trkpt>
   <trkpt lat="31.9508360" lon="34.9497510">
    <ele>143.3</ele>
    <time>2018-08-18T06:43:23Z</time>
   </trkpt>
   <trkpt lat="31.9507980" lon="34.9497180">
    <ele>143.3</ele>
    <time>2018-08-18T06:43:24Z</time>
   </trkpt>
   <trkpt lat="31.9507670" lon="34.9496770">
    <ele>143.2</ele>
    <time>2018-08-18T06:43:25Z</time>
   </trkpt>
   <trkpt lat="31.9507460" lon="34.9496460">
    <ele>143.2</ele>
    <time>2018-08-18T06:43:26Z</time>
   </trkpt>
   <trkpt lat="31.9507310" lon="34.9496080">
    <ele>143.1</ele>
    <time>2018-08-18T06:43:27Z</time>
   </trkpt>
   <trkpt lat="31.9507050" lon="34.9495760">
    <ele>143.0</ele>
    <time>2018-08-18T06:43:28Z</time>
   </trkpt>
   <trkpt lat="31.9506720" lon="34.9495470">
    <ele>143.0</ele>
    <time>2018-08-18T06:43:29Z</time>
   </trkpt>
   <trkpt lat="31.9506350" lon="34.9495160">
    <ele>142.9</ele>
    <time>2018-08-18T06:43:30Z</time>
   </trkpt>
   <trkpt lat="31.9505980" lon="34.9494810">
    <ele>142.8</ele>
    <time>2018-08-18T06:43:31Z</time>
   </trkpt>
   <trkpt lat="31.9505640" lon="34.9494570">
    <ele>142.7</ele>
    <time>2018-08-18T06:43:32Z</time>
   </trkpt>
   <trkpt lat="31.9505310" lon="34.9494370">
    <ele>142.6</ele>
    <time>2018-08-18T06:43:33Z</time>
   </trkpt>
   <trkpt lat="31.9504920" lon="34.9494130">
    <ele>142.5</ele>
    <time>2018-08-18T06:43:34Z</time>
   </trkpt>
   <trkpt lat="31.9504530" lon="34.9493850">
    <ele>142.4</ele>
    <time>2018-08-18T06:43:35Z</time>
   </trkpt>
   <trkpt lat="31.9504210" lon="34.9493540">
    <ele>142.3</ele>
    <time>2018-08-18T06:43:36Z</time>
   </trkpt>
   <trkpt lat="31.9503860" lon="34.9493200">
    <ele>142.2</ele>
    <time>2018-08-18T06:43:37Z</time>
   </trkpt>
   <trkpt lat="31.9503500" lon="34.9492910">
    <ele>142.1</ele>
    <time>2018-08-18T06:43:38Z</time>
   </trkpt>
   <trkpt lat="31.9503130" lon="34.9492580">
    <ele>142.0</ele>
    <time>2018-08-18T06:43:39Z</time>
   </trkpt>
   <trkpt lat="31.9502740" lon="34.9492230">
    <ele>141.9</ele>
    <time>2018-08-18T06:43:40Z</time>
   </trkpt>
   <trkpt lat="31.9502390" lon="34.9491940">
    <ele>141.8</ele>
    <time>2018-08-18T06:43:41Z</time>
   </trkpt>
   <trkpt lat="31.9502050" lon="34.9491630">
    <ele>141.7</ele>
    <time>2018-08-18T06:43:42Z</time>
   </trkpt>
   <trkpt lat="31.9501730" lon="34.9491270">
    <ele>141.6</ele>
    <time>2018-08-18T06:43:43Z</time>
   </trkpt>
   <trkpt lat="31.9501440" lon="34.9490940">
    <ele>141.5</ele>
    <time>2018-08-18T06:43:44Z</time>
   </trkpt>
   <trkpt lat="31.9501140" lon="34.9490660">
    <ele>141.4</ele>
    <time>2018-08-18T06:43:45Z</time>
   </trkpt>
   <trkpt lat="31.9500870" lon="34.9490300">
    <ele>141.3</ele>
    <time>2018-08-18T06:43:46Z</time>
   </trkpt>
   <trkpt lat="31.9500660" lon="34.9489960">
    <ele>141.2</ele>
    <time>2018-08-18T06:43:47Z</time>
   </trkpt>
   <trkpt lat="31.9500550" lon="34.9489470">
    <ele>141.1</ele>
    <time>2018-08-18T06:43:48Z</time>
   </trkpt>
   <trkpt lat="31.9500400" lon="34.9488810">
    <ele>141.0</ele>
    <time>2018-08-18T06:43:49Z</time>
   </trkpt>
   <trkpt lat="31.9500220" lon="34.9488330">
    <ele>140.8</ele>
    <time>2018-08-18T06:43:50Z</time>
   </trkpt>
   <trkpt lat="31.9500130" lon="34.9487830">
    <ele>140.6</ele>
    <time>2018-08-18T06:43:51Z</time>
   </trkpt>
   <trkpt lat="31.9500020" lon="34.9487360">
    <ele>140.5</ele>
    <time>2018-08-18T06:43:52Z</time>
   </trkpt>
   <trkpt lat="31.9499890" lon="34.9486810">
    <ele>140.3</ele>
    <time>2018-08-18T06:43:53Z</time>
   </trkpt>
   <trkpt lat="31.9499820" lon="34.9486290">
    <ele>140.2</ele>
    <time>2018-08-18T06:43:54Z</time>
   </trkpt>
   <trkpt lat="31.9499830" lon="34.9485770">
    <ele>140.1</ele>
    <time>2018-08-18T06:43:55Z</time>
   </trkpt>
   <trkpt lat="31.9499750" lon="34.9485390">
    <ele>140.0</ele>
    <time>2018-08-18T06:43:56Z</time>
   </trkpt>
   <trkpt lat="31.9499650" lon="34.9484890">
    <ele>139.9</ele>
    <time>2018-08-18T06:43:57Z</time>
   </trkpt>
   <trkpt lat="31.9499590" lon="34.9484350">
    <ele>139.8</ele>
    <time>2018-08-18T06:43:58Z</time>
   </trkpt>
   <trkpt lat="31.9499620" lon="34.9483960">
    <ele>139.7</ele>
    <time>2018-08-18T06:43:59Z</time>
   </trkpt>
   <trkpt lat="31.9499630" lon="34.9483550">
    <ele>139.7</ele>
    <time>2018-08-18T06:44:00Z</time>
   </trkpt>
   <trkpt lat="31.9499570" lon="34.9483040">
    <ele>139.6</ele>
    <time>2018-08-18T06:44:01Z</time>
   </trkpt>
   <trkpt lat="31.9499480" lon="34.9482650">
    <ele>139.5</ele>
    <time>2018-08-18T06:44:02Z</time>
   </trkpt>
   <trkpt lat="31.9499470" lon="34.9482250">
    <ele>139.4</ele>
    <time>2018-08-18T06:44:03Z</time>
   </trkpt>
   <trkpt lat="31.9499470" lon="34.9481650">
    <ele>139.2</ele>
    <time>2018-08-18T06:44:04Z</time>
   </trkpt>
   <trkpt lat="31.9499420" lon="34.9481190">
    <ele>139.1</ele>
    <time>2018-08-18T06:44:05Z</time>
   </trkpt>
   <trkpt lat="31.9499400" lon="34.9480670">
    <ele>139.0</ele>
    <time>2018-08-18T06:44:06Z</time>
   </trkpt>
   <trkpt lat="31.9499430" lon="34.9480060">
    <ele>138.8</ele>
    <time>2018-08-18T06:44:07Z</time>
   </trkpt>
   <trkpt lat="31.9499510" lon="34.9479410">
    <ele>138.6</ele>
    <time>2018-08-18T06:44:08Z</time>
   </trkpt>
   <trkpt lat="31.9499560" lon="34.9478760">
    <ele>138.4</ele>
    <time>2018-08-18T06:44:09Z</time>
   </trkpt>
   <trkpt lat="31.9499720" lon="34.9478280">
    <ele>138.2</ele>
    <time>2018-08-18T06:44:10Z</time>
   </trkpt>
   <trkpt lat="31.9499760" lon="34.9477710">
    <ele>138.0</ele>
    <time>2018-08-18T06:44:11Z</time>
   </trkpt>
   <trkpt lat="31.9499750" lon="34.9477110">
    <ele>137.7</ele>
    <time>2018-08-18T06:44:12Z</time>
   </trkpt>
   <trkpt lat="31.9499710" lon="34.9476510">
    <ele>137.5</ele>
    <time>2018-08-18T06:44:13Z</time>
   </trkpt>
   <trkpt lat="31.9499700" lon="34.9476000">
    <ele>137.3</ele>
    <time>2018-08-18T06:44:14Z</time>
   </trkpt>
   <trkpt lat="31.9499610" lon="34.9475620">
    <ele>137.1</ele>
    <time>2018-08-18T06:44:15Z</time>
   </trkpt>
   <trkpt lat="31.9499410" lon="34.9475320">
    <ele>136.9</ele>
    <time>2018-08-18T06:44:16Z</time>
   </trkpt>
   <trkpt lat="31.9499120" lon="34.9474940">
    <ele>136.6</ele>
    <time>2018-08-18T06:44:17Z</time>
   </trkpt>
   <trkpt lat="31.9498850" lon="34.9474530">
    <ele>136.3</ele>
    <time>2018-08-18T06:44:18Z</time>
   </trkpt>
   <trkpt lat="31.9498490" lon="34.9474260">
    <ele>136.1</ele>
    <time>2018-08-18T06:44:19Z</time>
   </trkpt>
   <trkpt lat="31.9498170" lon="34.9474020">
    <ele>135.8</ele>
    <time>2018-08-18T06:44:20Z</time>
   </trkpt>
   <trkpt lat="31.9497850" lon="34.9473560">
    <ele>135.5</ele>
    <time>2018-08-18T06:44:21Z</time>
   </trkpt>
   <trkpt lat="31.9497640" lon="34.9472940">
    <ele>135.1</ele>
    <time>2018-08-18T06:44:22Z</time>
   </trkpt>
   <trkpt lat="31.9497500" lon="34.9472300">
    <ele>134.8</ele>
    <time>2018-08-18T06:44:23Z</time>
   </trkpt>
   <trkpt lat="31.9497380" lon="34.9471550">
    <ele>134.4</ele>
    <time>2018-08-18T06:44:24Z</time>
   </trkpt>
   <trkpt lat="31.9497380" lon="34.9470920">
    <ele>134.1</ele>
    <time>2018-08-18T06:44:25Z</time>
   </trkpt>
   <trkpt lat="31.9497590" lon="34.9470360">
    <ele>133.9</ele>
    <time>2018-08-18T06:44:26Z</time>
   </trkpt>
   <trkpt lat="31.9497800" lon="34.9469910">
    <ele>133.7</ele>
    <time>2018-08-18T06:44:27Z</time>
   </trkpt>
   <trkpt lat="31.9498020" lon="34.9469640">
    <ele>133.6</ele>
    <time>2018-08-18T06:44:28Z</time>
   </trkpt>
   <trkpt lat="31.9498280" lon="34.9469400">
    <ele>133.4</ele>
    <time>2018-08-18T06:44:29Z</time>
   </trkpt>
   <trkpt lat="31.9498590" lon="34.9469020">
    <ele>133.3</ele>
    <time>2018-08-18T06:44:31Z</time>
   </trkpt>
   <trkpt lat="31.9498740" lon="34.9468730">
    <ele>133.2</ele>
    <time>2018-08-18T06:44:32Z</time>
   </trkpt>
   <trkpt lat="31.9498880" lon="34.9468440">
    <ele>133.1</ele>
    <time>2018-08-18T06:44:33Z</time>
   </trkpt>
   <trkpt lat="31.9499050" lon="34.9468090">
    <ele>132.9</ele>
    <time>2018-08-18T06:44:34Z</time>
   </trkpt>
   <trkpt lat="31.9499190" lon="34.9467700">
    <ele>132.8</ele>
    <time>2018-08-18T06:44:35Z</time>
   </trkpt>
   <trkpt lat="31.9499240" lon="34.9467310">
    <ele>132.6</ele>
    <time>2018-08-18T06:44:36Z</time>
   </trkpt>
   <trkpt lat="31.9499170" lon="34.9466950">
    <ele>132.4</ele>
    <time>2018-08-18T06:44:37Z</time>
   </trkpt>
   <trkpt lat="31.9499110" lon="34.9466590">
    <ele>132.3</ele>
    <time>2018-08-18T06:44:38Z</time>
   </trkpt>
   <trkpt lat="31.9499040" lon="34.9466100">
    <ele>132.0</ele>
    <time>2018-08-18T06:44:39Z</time>
   </trkpt>
   <trkpt lat="31.9498860" lon="34.9465630">
    <ele>131.8</ele>
    <time>2018-08-18T06:44:40Z</time>
   </trkpt>
   <trkpt lat="31.9498680" lon="34.9465290">
    <ele>131.6</ele>
    <time>2018-08-18T06:44:41Z</time>
   </trkpt>
   <trkpt lat="31.9498470" lon="34.9464990">
    <ele>131.4</ele>
    <time>2018-08-18T06:44:42Z</time>
   </trkpt>
   <trkpt lat="31.9498230" lon="34.9464540">
    <ele>131.1</ele>
    <time>2018-08-18T06:44:43Z</time>
   </trkpt>
   <trkpt lat="31.9498160" lon="34.9463980">
    <ele>130.8</ele>
    <time>2018-08-18T06:44:44Z</time>
   </trkpt>
   <trkpt lat="31.9498130" lon="34.9463410">
    <ele>130.4</ele>
    <time>2018-08-18T06:44:45Z</time>
   </trkpt>
   <trkpt lat="31.9498060" lon="34.9462870">
    <ele>130.1</ele>
    <time>2018-08-18T06:44:46Z</time>
   </trkpt>
   <trkpt lat="31.9497870" lon="34.9462430">
    <ele>129.8</ele>
    <time>2018-08-18T06:44:47Z</time>
   </trkpt>
   <trkpt lat="31.9497700" lon="34.9462000">
    <ele>129.5</ele>
    <time>2018-08-18T06:44:48Z</time>
   </trkpt>
   <trkpt lat="31.9497670" lon="34.9461560">
    <ele>129.1</ele>
    <time>2018-08-18T06:44:49Z</time>
   </trkpt>
   <trkpt lat="31.9497640" lon="34.9461120">
    <ele>128.7</ele>
    <time>2018-08-18T06:44:50Z</time>
   </trkpt>
   <trkpt lat="31.9497590" lon="34.9460610">
    <ele>128.2</ele>
    <time>2018-08-18T06:44:51Z</time>
   </trkpt>
   <trkpt lat="31.9497550" lon="34.9460130">
    <ele>127.8</ele>
    <time>2018-08-18T06:44:52Z</time>
   </trkpt>
   <trkpt lat="31.9497490" lon="34.9459650">
    <ele>127.3</ele>
    <time>2018-08-18T06:44:53Z</time>
   </trkpt>
   <trkpt lat="31.9497400" lon="34.9459300">
    <ele>127.1</ele>
    <time>2018-08-18T06:44:54Z</time>
   </trkpt>
   <trkpt lat="31.9497140" lon="34.9458870">
    <ele>126.7</ele>
    <time>2018-08-18T06:44:56Z</time>
   </trkpt>
   <trkpt lat="31.9496850" lon="34.9458570">
    <ele>126.4</ele>
    <time>2018-08-18T06:44:58Z</time>
   </trkpt>
   <trkpt lat="31.9496600" lon="34.9458140">
    <ele>126.0</ele>
    <time>2018-08-18T06:45:00Z</time>
   </trkpt>
   <trkpt lat="31.9496480" lon="34.9457670">
    <ele>125.6</ele>
    <time>2018-08-18T06:45:01Z</time>
   </trkpt>
   <trkpt lat="31.9496070" lon="34.9456930">
    <ele>124.9</ele>
    <time>2018-08-18T06:45:02Z</time>
   </trkpt>
   <trkpt lat="31.9495610" lon="34.9456150">
    <ele>124.2</ele>
    <time>2018-08-18T06:45:03Z</time>
   </trkpt>
   <trkpt lat="31.9495180" lon="34.9455490">
    <ele>123.6</ele>
    <time>2018-08-18T06:45:04Z</time>
   </trkpt>
   <trkpt lat="31.9494770" lon="34.9454890">
    <ele>122.8</ele>
    <time>2018-08-18T06:45:05Z</time>
   </trkpt>
   <trkpt lat="31.9494350" lon="34.9454380">
    <ele>122.3</ele>
    <time>2018-08-18T06:45:06Z</time>
   </trkpt>
   <trkpt lat="31.9493960" lon="34.9453930">
    <ele>121.9</ele>
    <time>2018-08-18T06:45:07Z</time>
   </trkpt>
   <trkpt lat="31.9493670" lon="34.9453430">
    <ele>121.5</ele>
    <time>2018-08-18T06:45:08Z</time>
   </trkpt>
   <trkpt lat="31.9493470" lon="34.9453100">
    <ele>121.2</ele>
    <time>2018-08-18T06:45:09Z</time>
   </trkpt>
   <trkpt lat="31.9493380" lon="34.9452620">
    <ele>120.8</ele>
    <time>2018-08-18T06:45:10Z</time>
   </trkpt>
   <trkpt lat="31.9493380" lon="34.9452200">
    <ele>120.5</ele>
    <time>2018-08-18T06:45:11Z</time>
   </trkpt>
   <trkpt lat="31.9493420" lon="34.9451750">
    <ele>120.2</ele>
    <time>2018-08-18T06:45:12Z</time>
   </trkpt>
   <trkpt lat="31.9493470" lon="34.9451220">
    <ele>119.9</ele>
    <time>2018-08-18T06:45:13Z</time>
   </trkpt>
   <trkpt lat="31.9493490" lon="34.9450830">
    <ele>119.6</ele>
    <time>2018-08-18T06:45:14Z</time>
   </trkpt>
   <trkpt lat="31.9493450" lon="34.9450050">
    <ele>119.0</ele>
    <time>2018-08-18T06:45:16Z</time>
   </trkpt>
   <trkpt lat="31.9493470" lon="34.9449600">
    <ele>118.7</ele>
    <time>2018-08-18T06:45:17Z</time>
   </trkpt>
   <trkpt lat="31.9493420" lon="34.9449260">
    <ele>118.4</ele>
    <time>2018-08-18T06:45:18Z</time>
   </trkpt>
   <trkpt lat="31.9493430" lon="34.9448820">
    <ele>118.0</ele>
    <time>2018-08-18T06:45:19Z</time>
   </trkpt>
   <trkpt lat="31.9493550" lon="34.9448500">
    <ele>117.6</ele>
    <time>2018-08-18T06:45:20Z</time>
   </trkpt>
   <trkpt lat="31.9494070" lon="34.9448250">
    <ele>117.0</ele>
    <time>2018-08-18T06:45:22Z</time>
   </trkpt>
   <trkpt lat="31.9494330" lon="34.9448060">
    <ele>116.7</ele>
    <time>2018-08-18T06:45:23Z</time>
   </trkpt>
   <trkpt lat="31.9494620" lon="34.9447800">
    <ele>116.3</ele>
    <time>2018-08-18T06:45:24Z</time>
   </trkpt>
   <trkpt lat="31.9495030" lon="34.9447730">
    <ele>115.9</ele>
    <time>2018-08-18T06:45:25Z</time>
   </trkpt>
   <trkpt lat="31.9495450" lon="34.9447660">
    <ele>115.5</ele>
    <time>2018-08-18T06:45:26Z</time>
   </trkpt>
   <trkpt lat="31.9495940" lon="34.9447320">
    <ele>115.0</ele>
    <time>2018-08-18T06:45:27Z</time>
   </trkpt>
   <trkpt lat="31.9496370" lon="34.9446820">
    <ele>114.6</ele>
    <time>2018-08-18T06:45:28Z</time>
   </trkpt>
   <trkpt lat="31.9496910" lon="34.9446360">
    <ele>114.1</ele>
    <time>2018-08-18T06:45:29Z</time>
   </trkpt>
   <trkpt lat="31.9497670" lon="34.9445750">
    <ele>114.5</ele>
    <time>2018-08-18T06:45:30Z</time>
   </trkpt>
   <trkpt lat="31.9498480" lon="34.9445120">
    <ele>115.1</ele>
    <time>2018-08-18T06:45:31Z</time>
   </trkpt>
   <trkpt lat="31.9499250" lon="34.9444570">
    <ele>115.7</ele>
    <time>2018-08-18T06:45:32Z</time>
   </trkpt>
   <trkpt lat="31.9499970" lon="34.9444210">
    <ele>116.1</ele>
    <time>2018-08-18T06:45:33Z</time>
   </trkpt>
   <trkpt lat="31.9500650" lon="34.9443960">
    <ele>116.5</ele>
    <time>2018-08-18T06:45:34Z</time>
   </trkpt>
   <trkpt lat="31.9501300" lon="34.9443740">
    <ele>116.9</ele>
    <time>2018-08-18T06:45:35Z</time>
   </trkpt>
   <trkpt lat="31.9501900" lon="34.9443570">
    <ele>117.2</ele>
    <time>2018-08-18T06:45:36Z</time>
   </trkpt>
   <trkpt lat="31.9502470" lon="34.9443220">
    <ele>117.5</ele>
    <time>2018-08-18T06:45:37Z</time>
   </trkpt>
   <trkpt lat="31.9503010" lon="34.9442870">
    <ele>117.9</ele>
    <time>2018-08-18T06:45:38Z</time>
   </trkpt>
   <trkpt lat="31.9503430" lon="34.9442550">
    <ele>118.1</ele>
    <time>2018-08-18T06:45:39Z</time>
   </trkpt>
   <trkpt lat="31.9503860" lon="34.9442210">
    <ele>118.5</ele>
    <time>2018-08-18T06:45:40Z</time>
   </trkpt>
   <trkpt lat="31.9504220" lon="34.9441880">
    <ele>118.8</ele>
    <time>2018-08-18T06:45:41Z</time>
   </trkpt>
   <trkpt lat="31.9504560" lon="34.9441540">
    <ele>119.1</ele>
    <time>2018-08-18T06:45:42Z</time>
   </trkpt>
   <trkpt lat="31.9504870" lon="34.9441210">
    <ele>119.4</ele>
    <time>2018-08-18T06:45:43Z</time>
   </trkpt>
   <trkpt lat="31.9505170" lon="34.9440840">
    <ele>119.7</ele>
    <time>2018-08-18T06:45:44Z</time>
   </trkpt>
   <trkpt lat="31.9505460" lon="34.9440460">
    <ele>120.0</ele>
    <time>2018-08-18T06:45:45Z</time>
   </trkpt>
   <trkpt lat="31.9505700" lon="34.9440040">
    <ele>120.0</ele>
    <time>2018-08-18T06:45:46Z</time>
   </trkpt>
   <trkpt lat="31.9505840" lon="34.9439600">
    <ele>120.0</ele>
    <time>2018-08-18T06:45:47Z</time>
   </trkpt>
   <trkpt lat="31.9505950" lon="34.9439140">
    <ele>120.0</ele>
    <time>2018-08-18T06:45:48Z</time>
   </trkpt>
   <trkpt lat="31.9506040" lon="34.9438670">
    <ele>120.0</ele>
    <time>2018-08-18T06:45:49Z</time>
   </trkpt>
   <trkpt lat="31.9506120" lon="34.9438160">
    <ele>120.0</ele>
    <time>2018-08-18T06:45:50Z</time>
   </trkpt>
   <trkpt lat="31.9506210" lon="34.9437650">
    <ele>120.0</ele>
    <time>2018-08-18T06:45:51Z</time>
   </trkpt>
   <trkpt lat="31.9506280" lon="34.9437160">
    <ele>120.0</ele>
    <time>2018-08-18T06:45:52Z</time>
   </trkpt>
   <trkpt lat="31.9506350" lon="34.9436740">
    <ele>120.0</ele>
    <time>2018-08-18T06:45:53Z</time>
   </trkpt>
   <trkpt lat="31.9506470" lon="34.9436340">
    <ele>120.0</ele>
    <time>2018-08-18T06:45:54Z</time>
   </trkpt>
   <trkpt lat="31.9506590" lon="34.9435890">
    <ele>120.0</ele>
    <time>2018-08-18T06:45:55Z</time>
   </trkpt>
   <trkpt lat="31.9506720" lon="34.9435430">
    <ele>120.2</ele>
    <time>2018-08-18T06:45:56Z</time>
   </trkpt>
   <trkpt lat="31.9506850" lon="34.9434980">
    <ele>120.3</ele>
    <time>2018-08-18T06:45:57Z</time>
   </trkpt>
   <trkpt lat="31.9506980" lon="34.9434620">
    <ele>120.5</ele>
    <time>2018-08-18T06:45:58Z</time>
   </trkpt>
   <trkpt lat="31.9507090" lon="34.9434270">
    <ele>120.6</ele>
    <time>2018-08-18T06:45:59Z</time>
   </trkpt>
   <trkpt lat="31.9507190" lon="34.9433770">
    <ele>120.8</ele>
    <time>2018-08-18T06:46:01Z</time>
   </trkpt>
   <trkpt lat="31.9507220" lon="34.9433400">
    <ele>121.1</ele>
    <time>2018-08-18T06:46:05Z</time>
   </trkpt>
   <trkpt lat="31.9507280" lon="34.9433060">
    <ele>121.4</ele>
    <time>2018-08-18T06:46:07Z</time>
   </trkpt>
   <trkpt lat="31.9507320" lon="34.9432610">
    <ele>121.9</ele>
    <time>2018-08-18T06:46:09Z</time>
   </trkpt>
   <trkpt lat="31.9507250" lon="34.9432120">
    <ele>122.1</ele>
    <time>2018-08-18T06:46:11Z</time>
   </trkpt>
   <trkpt lat="31.9507270" lon="34.9431770">
    <ele>122.3</ele>
    <time>2018-08-18T06:46:12Z</time>
   </trkpt>
   <trkpt lat="31.9507390" lon="34.9431040">
    <ele>122.7</ele>
    <time>2018-08-18T06:46:14Z</time>
   </trkpt>
   <trkpt lat="31.9507390" lon="34.9430690">
    <ele>122.9</ele>
    <time>2018-08-18T06:46:15Z</time>
   </trkpt>
   <trkpt lat="31.9507330" lon="34.9430010">
    <ele>123.2</ele>
    <time>2018-08-18T06:46:17Z</time>
   </trkpt>
   <trkpt lat="31.9507250" lon="34.9429590">
    <ele>123.5</ele>
    <time>2018-08-18T06:46:18Z</time>
   </trkpt>
   <trkpt lat="31.9507230" lon="34.9429120">
    <ele>123.7</ele>
    <time>2018-08-18T06:46:19Z</time>
   </trkpt>
   <trkpt lat="31.9507010" lon="34.9428590">
    <ele>124.0</ele>
    <time>2018-08-18T06:46:21Z</time>
   </trkpt>
   <trkpt lat="31.9506970" lon="34.9428270">
    <ele>124.2</ele>
    <time>2018-08-18T06:46:22Z</time>
   </trkpt>
   <trkpt lat="31.9506810" lon="34.9427890">
    <ele>124.4</ele>
    <time>2018-08-18T06:46:24Z</time>
   </trkpt>
   <trkpt lat="31.9506600" lon="34.9427500">
    <ele>124.6</ele>
    <time>2018-08-18T06:46:26Z</time>
   </trkpt>
   <trkpt lat="31.9506480" lon="34.9426990">
    <ele>124.9</ele>
    <time>2018-08-18T06:46:28Z</time>
   </trkpt>
   <trkpt lat="31.9506390" lon="34.9426500">
    <ele>125.1</ele>
    <time>2018-08-18T06:46:30Z</time>
   </trkpt>
   <trkpt lat="31.9506310" lon="34.9425910">
    <ele>125.4</ele>
    <time>2018-08-18T06:46:32Z</time>
   </trkpt>
   <trkpt lat="31.9506200" lon="34.9425350">
    <ele>125.7</ele>
    <time>2018-08-18T06:46:34Z</time>
   </trkpt>
   <trkpt lat="31.9506230" lon="34.9424860">
    <ele>125.9</ele>
    <time>2018-08-18T06:46:36Z</time>
   </trkpt>
   <trkpt lat="31.9506240" lon="34.9424410">
    <ele>126.0</ele>
    <time>2018-08-18T06:46:38Z</time>
   </trkpt>
   <trkpt lat="31.9506120" lon="34.9423870">
    <ele>126.2</ele>
    <time>2018-08-18T06:46:40Z</time>
   </trkpt>
   <trkpt lat="31.9506030" lon="34.9423400">
    <ele>126.4</ele>
    <time>2018-08-18T06:46:42Z</time>
   </trkpt>
   <trkpt lat="31.9505970" lon="34.9422880">
    <ele>126.6</ele>
    <time>2018-08-18T06:46:44Z</time>
   </trkpt>
   <trkpt lat="31.9505910" lon="34.9422340">
    <ele>126.8</ele>
    <time>2018-08-18T06:46:46Z</time>
   </trkpt>
   <trkpt lat="31.9505950" lon="34.9421800">
    <ele>126.9</ele>
    <time>2018-08-18T06:46:48Z</time>
   </trkpt>
   <trkpt lat="31.9505990" lon="34.9421260">
    <ele>127.0</ele>
    <time>2018-08-18T06:46:50Z</time>
   </trkpt>
   <trkpt lat="31.9506040" lon="34.9420940">
    <ele>127.1</ele>
    <time>2018-08-18T06:46:51Z</time>
   </trkpt>
   <trkpt lat="31.9506230" lon="34.9420410">
    <ele>127.1</ele>
    <time>2018-08-18T06:46:53Z</time>
   </trkpt>
   <trkpt lat="31.9506410" lon="34.9419870">
    <ele>127.1</ele>
    <time>2018-08-18T06:46:55Z</time>
   </trkpt>
   <trkpt lat="31.9506630" lon="34.9419310">
    <ele>127.2</ele>
    <time>2018-08-18T06:46:57Z</time>
   </trkpt>
   <trkpt lat="31.9506780" lon="34.9418930">
    <ele>127.2</ele>
    <time>2018-08-18T06:46:58Z</time>
   </trkpt>
   <trkpt lat="31.9506880" lon="34.9418450">
    <ele>127.2</ele>
    <time>2018-08-18T06:46:59Z</time>
   </trkpt>
   <trkpt lat="31.9506950" lon="34.9418080">
    <ele>127.1</ele>
    <time>2018-08-18T06:47:00Z</time>
   </trkpt>
   <trkpt lat="31.9507080" lon="34.9417410">
    <ele>127.1</ele>
    <time>2018-08-18T06:47:02Z</time>
   </trkpt>
   <trkpt lat="31.9507120" lon="34.9416990">
    <ele>127.1</ele>
    <time>2018-08-18T06:47:03Z</time>
   </trkpt>
   <trkpt lat="31.9507120" lon="34.9416590">
    <ele>127.0</ele>
    <time>2018-08-18T06:47:04Z</time>
   </trkpt>
   <trkpt lat="31.9507190" lon="34.9416210">
    <ele>127.0</ele>
    <time>2018-08-18T06:47:05Z</time>
   </trkpt>
   <trkpt lat="31.9507450" lon="34.9415930">
    <ele>126.9</ele>
    <time>2018-08-18T06:47:06Z</time>
   </trkpt>
   <trkpt lat="31.9507700" lon="34.9415790">
    <ele>126.9</ele>
    <time>2018-08-18T06:47:07Z</time>
   </trkpt>
   <trkpt lat="31.9507980" lon="34.9415480">
    <ele>126.8</ele>
    <time>2018-08-18T06:47:09Z</time>
   </trkpt>
   <trkpt lat="31.9508230" lon="34.9414950">
    <ele>126.7</ele>
    <time>2018-08-18T06:47:11Z</time>
   </trkpt>
   <trkpt lat="31.9508390" lon="34.9414660">
    <ele>126.7</ele>
    <time>2018-08-18T06:47:12Z</time>
   </trkpt>
   <trkpt lat="31.9508560" lon="34.9414330">
    <ele>126.6</ele>
    <time>2018-08-18T06:47:13Z</time>
   </trkpt>
   <trkpt lat="31.9508730" lon="34.9413970">
    <ele>126.5</ele>
    <time>2018-08-18T06:47:14Z</time>
   </trkpt>
   <trkpt lat="31.9508910" lon="34.9413560">
    <ele>126.4</ele>
    <time>2018-08-18T06:47:15Z</time>
   </trkpt>
   <trkpt lat="31.9509130" lon="34.9413290">
    <ele>126.3</ele>
    <time>2018-08-18T06:47:16Z</time>
   </trkpt>
   <trkpt lat="31.9509290" lon="34.9413030">
    <ele>126.2</ele>
    <time>2018-08-18T06:47:17Z</time>
   </trkpt>
   <trkpt lat="31.9509370" lon="34.9412690">
    <ele>126.1</ele>
    <time>2018-08-18T06:47:18Z</time>
   </trkpt>
   <trkpt lat="31.9509470" lon="34.9412280">
    <ele>125.9</ele>
    <time>2018-08-18T06:47:19Z</time>
   </trkpt>
   <trkpt lat="31.9509570" lon="34.9411840">
    <ele>125.8</ele>
    <time>2018-08-18T06:47:20Z</time>
   </trkpt>
   <trkpt lat="31.9509540" lon="34.9411390">
    <ele>125.6</ele>
    <time>2018-08-18T06:47:21Z</time>
   </trkpt>
   <trkpt lat="31.9509470" lon="34.9411020">
    <ele>125.5</ele>
    <time>2018-08-18T06:47:22Z</time>
   </trkpt>
   <trkpt lat="31.9509200" lon="34.9410440">
    <ele>125.2</ele>
    <time>2018-08-18T06:47:24Z</time>
   </trkpt>
   <trkpt lat="31.9508920" lon="34.9410120">
    <ele>125.0</ele>
    <time>2018-08-18T06:47:25Z</time>
   </trkpt>
   <trkpt lat="31.9508650" lon="34.9409850">
    <ele>124.8</ele>
    <time>2018-08-18T06:47:26Z</time>
   </trkpt>
   <trkpt lat="31.9508360" lon="34.9409630">
    <ele>124.6</ele>
    <time>2018-08-18T06:47:27Z</time>
   </trkpt>
   <trkpt lat="31.9508140" lon="34.9409410">
    <ele>124.5</ele>
    <time>2018-08-18T06:47:28Z</time>
   </trkpt>
   <trkpt lat="31.9507860" lon="34.9408840">
    <ele>124.1</ele>
    <time>2018-08-18T06:47:30Z</time>
   </trkpt>
   <trkpt lat="31.9507850" lon="34.9408360">
    <ele>123.9</ele>
    <time>2018-08-18T06:47:31Z</time>
   </trkpt>
   <trkpt lat="31.9507860" lon="34.9407880">
    <ele>123.6</ele>
    <time>2018-08-18T06:47:32Z</time>
   </trkpt>
   <trkpt lat="31.9507770" lon="34.9407430">
    <ele>123.3</ele>
    <time>2018-08-18T06:47:33Z</time>
   </trkpt>
   <trkpt lat="31.9507550" lon="34.9407050">
    <ele>123.0</ele>
    <time>2018-08-18T06:47:34Z</time>
   </trkpt>
   <trkpt lat="31.9507290" lon="34.9406810">
    <ele>122.8</ele>
    <time>2018-08-18T06:47:35Z</time>
   </trkpt>
   <trkpt lat="31.9507010" lon="34.9406740">
    <ele>122.5</ele>
    <time>2018-08-18T06:47:37Z</time>
   </trkpt>
   <trkpt lat="31.9506790" lon="34.9406990">
    <ele>122.2</ele>
    <time>2018-08-18T06:47:40Z</time>
   </trkpt>
   <trkpt lat="31.9506310" lon="34.9407080">
    <ele>121.9</ele>
    <time>2018-08-18T06:47:42Z</time>
   </trkpt>
   <trkpt lat="31.9506020" lon="34.9407180">
    <ele>121.7</ele>
    <time>2018-08-18T06:47:43Z</time>
   </trkpt>
   <trkpt lat="31.9505720" lon="34.9407210">
    <ele>121.4</ele>
    <time>2018-08-18T06:47:44Z</time>
   </trkpt>
   <trkpt lat="31.9505290" lon="34.9407070">
    <ele>121.1</ele>
    <time>2018-08-18T06:47:45Z</time>
   </trkpt>
   <trkpt lat="31.9504870" lon="34.9406910">
    <ele>120.9</ele>
    <time>2018-08-18T06:47:46Z</time>
   </trkpt>
   <trkpt lat="31.9504410" lon="34.9406770">
    <ele>120.7</ele>
    <time>2018-08-18T06:47:47Z</time>
   </trkpt>
   <trkpt lat="31.9503940" lon="34.9406650">
    <ele>120.6</ele>
    <time>2018-08-18T06:47:48Z</time>
   </trkpt>
   <trkpt lat="31.9503420" lon="34.9406470">
    <ele>120.5</ele>
    <time>2018-08-18T06:47:49Z</time>
   </trkpt>
   <trkpt lat="31.9502790" lon="34.9406370">
    <ele>120.5</ele>
    <time>2018-08-18T06:47:50Z</time>
   </trkpt>
   <trkpt lat="31.9502380" lon="34.9406380">
    <ele>120.4</ele>
    <time>2018-08-18T06:47:51Z</time>
   </trkpt>
   <trkpt lat="31.9502030" lon="34.9406260">
    <ele>120.5</ele>
    <time>2018-08-18T06:47:52Z</time>
   </trkpt>
   <trkpt lat="31.9501610" lon="34.9406010">
    <ele>120.6</ele>
    <time>2018-08-18T06:47:54Z</time>
   </trkpt>
   <trkpt lat="31.9501120" lon="34.9405890">
    <ele>120.7</ele>
    <time>2018-08-18T06:47:56Z</time>
   </trkpt>
   <trkpt lat="31.9500650" lon="34.9405730">
    <ele>120.8</ele>
    <time>2018-08-18T06:47:58Z</time>
   </trkpt>
   <trkpt lat="31.9500090" lon="34.9405370">
    <ele>121.0</ele>
    <time>2018-08-18T06:48:00Z</time>
   </trkpt>
   <trkpt lat="31.9499660" lon="34.9405190">
    <ele>121.1</ele>
    <time>2018-08-18T06:48:01Z</time>
   </trkpt>
   <trkpt lat="31.9499240" lon="34.9405050">
    <ele>121.3</ele>
    <time>2018-08-18T06:48:02Z</time>
   </trkpt>
   <trkpt lat="31.9498870" lon="34.9404960">
    <ele>121.4</ele>
    <time>2018-08-18T06:48:03Z</time>
   </trkpt>
   <trkpt lat="31.9498540" lon="34.9404880">
    <ele>121.6</ele>
    <time>2018-08-18T06:48:04Z</time>
   </trkpt>
   <trkpt lat="31.9498210" lon="34.9404890">
    <ele>121.7</ele>
    <time>2018-08-18T06:48:05Z</time>
   </trkpt>
   <trkpt lat="31.9497840" lon="34.9405340">
    <ele>121.9</ele>
    <time>2018-08-18T06:48:07Z</time>
   </trkpt>
   <trkpt lat="31.9497510" lon="34.9405650">
    <ele>122.1</ele>
    <time>2018-08-18T06:48:09Z</time>
   </trkpt>
   <trkpt lat="31.9497140" lon="34.9405770">
    <ele>122.2</ele>
    <time>2018-08-18T06:48:11Z</time>
   </trkpt>
   <trkpt lat="31.9496830" lon="34.9405810">
    <ele>122.3</ele>
    <time>2018-08-18T06:48:12Z</time>
   </trkpt>
   <trkpt lat="31.9496320" lon="34.9405860">
    <ele>122.5</ele>
    <time>2018-08-18T06:48:14Z</time>
   </trkpt>
   <trkpt lat="31.9495850" lon="34.9405910">
    <ele>122.7</ele>
    <time>2018-08-18T06:48:16Z</time>
   </trkpt>
   <trkpt lat="31.9495310" lon="34.9405900">
    <ele>123.0</ele>
    <time>2018-08-18T06:48:18Z</time>
   </trkpt>
   <trkpt lat="31.9494990" lon="34.9406030">
    <ele>123.3</ele>
    <time>2018-08-18T06:48:19Z</time>
   </trkpt>
   <trkpt lat="31.9494550" lon="34.9406330">
    <ele>123.5</ele>
    <time>2018-08-18T06:48:21Z</time>
   </trkpt>
   <trkpt lat="31.9494130" lon="34.9406530">
    <ele>123.7</ele>
    <time>2018-08-18T06:48:23Z</time>
   </trkpt>
   <trkpt lat="31.9493620" lon="34.9406570">
    <ele>123.9</ele>
    <time>2018-08-18T06:48:25Z</time>
   </trkpt>
   <trkpt lat="31.9493130" lon="34.9406530">
    <ele>124.0</ele>
    <time>2018-08-18T06:48:27Z</time>
   </trkpt>
   <trkpt lat="31.9492670" lon="34.9406560">
    <ele>124.1</ele>
    <time>2018-08-18T06:48:28Z</time>
   </trkpt>
   <trkpt lat="31.9492290" lon="34.9406620">
    <ele>124.2</ele>
    <time>2018-08-18T06:48:29Z</time>
   </trkpt>
   <trkpt lat="31.9492010" lon="34.9406620">
    <ele>124.3</ele>
    <time>2018-08-18T06:48:30Z</time>
   </trkpt>
   <trkpt lat="31.9491730" lon="34.9406630">
    <ele>124.4</ele>
    <time>2018-08-18T06:48:31Z</time>
   </trkpt>
   <trkpt lat="31.9491440" lon="34.9406650">
    <ele>124.4</ele>
    <time>2018-08-18T06:48:32Z</time>
   </trkpt>
   <trkpt lat="31.9491000" lon="34.9406680">
    <ele>124.5</ele>
    <time>2018-08-18T06:48:33Z</time>
   </trkpt>
   <trkpt lat="31.9490580" lon="34.9406690">
    <ele>124.6</ele>
    <time>2018-08-18T06:48:34Z</time>
   </trkpt>
   <trkpt lat="31.9490200" lon="34.9406670">
    <ele>124.6</ele>
    <time>2018-08-18T06:48:35Z</time>
   </trkpt>
   <trkpt lat="31.9489830" lon="34.9406650">
    <ele>124.6</ele>
    <time>2018-08-18T06:48:36Z</time>
   </trkpt>
   <trkpt lat="31.9489550" lon="34.9406690">
    <ele>124.6</ele>
    <time>2018-08-18T06:48:37Z</time>
   </trkpt>
   <trkpt lat="31.9489280" lon="34.9406510">
    <ele>124.6</ele>
    <time>2018-08-18T06:48:38Z</time>
   </trkpt>
   <trkpt lat="31.9488930" lon="34.9406160">
    <ele>124.6</ele>
    <time>2018-08-18T06:48:39Z</time>
   </trkpt>
   <trkpt lat="31.9488300" lon="34.9405700">
    <ele>124.4</ele>
    <time>2018-08-18T06:48:40Z</time>
   </trkpt>
   <trkpt lat="31.9487860" lon="34.9405470">
    <ele>124.3</ele>
    <time>2018-08-18T06:48:41Z</time>
   </trkpt>
   <trkpt lat="31.9487510" lon="34.9405300">
    <ele>124.3</ele>
    <time>2018-08-18T06:48:42Z</time>
   </trkpt>
   <trkpt lat="31.9487200" lon="34.9405020">
    <ele>124.2</ele>
    <time>2018-08-18T06:48:43Z</time>
   </trkpt>
   <trkpt lat="31.9486900" lon="34.9404450">
    <ele>123.9</ele>
    <time>2018-08-18T06:48:45Z</time>
   </trkpt>
   <trkpt lat="31.9486710" lon="34.9404160">
    <ele>123.8</ele>
    <time>2018-08-18T06:48:46Z</time>
   </trkpt>
   <trkpt lat="31.9486510" lon="34.9403760">
    <ele>123.6</ele>
    <time>2018-08-18T06:48:47Z</time>
   </trkpt>
   <trkpt lat="31.9486530" lon="34.9403270">
    <ele>123.5</ele>
    <time>2018-08-18T06:48:48Z</time>
   </trkpt>
   <trkpt lat="31.9486700" lon="34.9402690">
    <ele>123.2</ele>
    <time>2018-08-18T06:48:49Z</time>
   </trkpt>
   <trkpt lat="31.9486790" lon="34.9402100">
    <ele>123.0</ele>
    <time>2018-08-18T06:48:50Z</time>
   </trkpt>
   <trkpt lat="31.9486890" lon="34.9401470">
    <ele>123.0</ele>
    <time>2018-08-18T06:48:51Z</time>
   </trkpt>
   <trkpt lat="31.9487000" lon="34.9400870">
    <ele>123.0</ele>
    <time>2018-08-18T06:48:52Z</time>
   </trkpt>
   <trkpt lat="31.9487160" lon="34.9400290">
    <ele>123.0</ele>
    <time>2018-08-18T06:48:53Z</time>
   </trkpt>
   <trkpt lat="31.9487320" lon="34.9399800">
    <ele>123.2</ele>
    <time>2018-08-18T06:48:54Z</time>
   </trkpt>
   <trkpt lat="31.9487480" lon="34.9399240">
    <ele>123.6</ele>
    <time>2018-08-18T06:48:55Z</time>
   </trkpt>
   <trkpt lat="31.9487620" lon="34.9398640">
    <ele>124.0</ele>
    <time>2018-08-18T06:48:56Z</time>
   </trkpt>
   <trkpt lat="31.9487730" lon="34.9398020">
    <ele>124.5</ele>
    <time>2018-08-18T06:48:57Z</time>
   </trkpt>
   <trkpt lat="31.9487880" lon="34.9397420">
    <ele>124.9</ele>
    <time>2018-08-18T06:48:58Z</time>
   </trkpt>
   <trkpt lat="31.9488020" lon="34.9396800">
    <ele>125.5</ele>
    <time>2018-08-18T06:48:59Z</time>
   </trkpt>
   <trkpt lat="31.9488110" lon="34.9396140">
    <ele>126.4</ele>
    <time>2018-08-18T06:49:00Z</time>
   </trkpt>
   <trkpt lat="31.9488240" lon="34.9395620">
    <ele>127.1</ele>
    <time>2018-08-18T06:49:01Z</time>
   </trkpt>
   <trkpt lat="31.9488380" lon="34.9395060">
    <ele>127.9</ele>
    <time>2018-08-18T06:49:02Z</time>
   </trkpt>
   <trkpt lat="31.9488470" lon="34.9394570">
    <ele>128.6</ele>
    <time>2018-08-18T06:49:03Z</time>
   </trkpt>
   <trkpt lat="31.9488570" lon="34.9394080">
    <ele>129.3</ele>
    <time>2018-08-18T06:49:04Z</time>
   </trkpt>
   <trkpt lat="31.9488630" lon="34.9393560">
    <ele>129.6</ele>
    <time>2018-08-18T06:49:05Z</time>
   </trkpt>
   <trkpt lat="31.9488670" lon="34.9393050">
    <ele>130.0</ele>
    <time>2018-08-18T06:49:06Z</time>
   </trkpt>
   <trkpt lat="31.9488580" lon="34.9392680">
    <ele>130.2</ele>
    <time>2018-08-18T06:49:07Z</time>
   </trkpt>
   <trkpt lat="31.9488170" lon="34.9392260">
    <ele>131.4</ele>
    <time>2018-08-18T06:49:09Z</time>
   </trkpt>
   <trkpt lat="31.9487810" lon="34.9392090">
    <ele>131.6</ele>
    <time>2018-08-18T06:49:10Z</time>
   </trkpt>
   <trkpt lat="31.9487330" lon="34.9392040">
    <ele>131.8</ele>
    <time>2018-08-18T06:49:11Z</time>
   </trkpt>
   <trkpt lat="31.9486790" lon="34.9392000">
    <ele>132.0</ele>
    <time>2018-08-18T06:49:12Z</time>
   </trkpt>
   <trkpt lat="31.9486280" lon="34.9392030">
    <ele>132.2</ele>
    <time>2018-08-18T06:49:13Z</time>
   </trkpt>
   <trkpt lat="31.9485860" lon="34.9392060">
    <ele>132.3</ele>
    <time>2018-08-18T06:49:14Z</time>
   </trkpt>
   <trkpt lat="31.9485470" lon="34.9392110">
    <ele>132.4</ele>
    <time>2018-08-18T06:49:15Z</time>
   </trkpt>
   <trkpt lat="31.9485060" lon="34.9392130">
    <ele>132.5</ele>
    <time>2018-08-18T06:49:16Z</time>
   </trkpt>
   <trkpt lat="31.9484660" lon="34.9392170">
    <ele>132.7</ele>
    <time>2018-08-18T06:49:17Z</time>
   </trkpt>
   <trkpt lat="31.9484250" lon="34.9392220">
    <ele>132.8</ele>
    <time>2018-08-18T06:49:18Z</time>
   </trkpt>
   <trkpt lat="31.9483780" lon="34.9392190">
    <ele>133.1</ele>
    <time>2018-08-18T06:49:19Z</time>
   </trkpt>
   <trkpt lat="31.9483330" lon="34.9392160">
    <ele>133.2</ele>
    <time>2018-08-18T06:49:20Z</time>
   </trkpt>
   <trkpt lat="31.9482920" lon="34.9392190">
    <ele>133.3</ele>
    <time>2018-08-18T06:49:21Z</time>
   </trkpt>
   <trkpt lat="31.9482530" lon="34.9392170">
    <ele>133.3</ele>
    <time>2018-08-18T06:49:22Z</time>
   </trkpt>
   <trkpt lat="31.9482150" lon="34.9392140">
    <ele>133.4</ele>
    <time>2018-08-18T06:49:23Z</time>
   </trkpt>
   <trkpt lat="31.9481880" lon="34.9392140">
    <ele>133.4</ele>
    <time>2018-08-18T06:49:24Z</time>
   </trkpt>
   <trkpt lat="31.9481480" lon="34.9392170">
    <ele>133.5</ele>
    <time>2018-08-18T06:49:26Z</time>
   </trkpt>
  </trkseg>
 </trk>
</gpx>
